<?xml version='1.0' encoding='UTF-8'?><gpx version="1.1" creator="JPX - https://github.com/jenetics/jpx" xmlns="http://www.topografix.com/GPX/1/1"><trk><trkseg><trkpt lat="45.555946664801326" lon="8.064251965414252"><ele>400.0</ele><time>2026-05-01T11:28:43Z</time></trkpt><trkpt lat="45.55603126242733" lon="8.064344396954938"><ele>400.0</ele><time>2026-05-01T11:30:28Z</time></trkpt><trkpt lat="45.556070038921526" lon="8.06444550406896"><ele>400.0</ele><time>2026-05-01T11:30:29Z</time></trkpt><trkpt lat="45.55611655397546" lon="8.064578169683116"><ele>400.0</ele><time>2026-05-01T11:30:30Z</time></trkpt><trkpt lat="45.55617034838162" lon="8.06471718118873"><ele>400.0</ele><time>2026-05-01T11:30:31Z</time></trkpt><trkpt lat="45.55622136285824" lon="8.064853985506382"><ele>400.1666666666667</ele><time>2026-05-01T11:30:32Z</time></trkpt><trkpt lat="45.55625802025949" lon="8.064974207437562"><ele>400.33333333333337</ele><time>2026-05-01T11:30:33Z</time></trkpt><trkpt lat="45.556299312977245" lon="8.065081816621953"><ele>400.5</ele><time>2026-05-01T11:30:34Z</time></trkpt><trkpt lat="45.55633289048468" lon="8.06517706718824"><ele>400.66666666666663</ele><time>2026-05-01T11:30:35Z</time></trkpt><trkpt lat="45.55638718142032" lon="8.065325742288403"><ele>400.8333333333333</ele><time>2026-05-01T11:30:37Z</time></trkpt><trkpt lat="45.55641783240181" lon="8.06541001897258"><ele>401.0</ele><time>2026-05-01T11:30:38Z</time></trkpt><trkpt lat="45.55645527627448" lon="8.065507256367354"><ele>400.99999999999994</ele><time>2026-05-01T11:30:39Z</time></trkpt><trkpt lat="45.556487710570394" lon="8.065597827920126"><ele>401.0</ele><time>2026-05-01T11:30:40Z</time></trkpt><trkpt lat="45.55652211250879" lon="8.06567529978846"><ele>401.0</ele><time>2026-05-01T11:30:41Z</time></trkpt><trkpt lat="45.556555146065506" lon="8.06575744288156"><ele>401.0</ele><time>2026-05-01T11:30:42Z</time></trkpt><trkpt lat="45.55660323358305" lon="8.065916176956508"><ele>400.99999999999994</ele><time>2026-05-01T11:30:44Z</time></trkpt><trkpt lat="45.55662030955858" lon="8.06605945936882"><ele>401.0</ele><time>2026-05-01T11:30:46Z</time></trkpt><trkpt lat="45.55662833484309" lon="8.06624961812887"><ele>400.49999999999994</ele><time>2026-05-01T11:30:48Z</time></trkpt><trkpt lat="45.55664453327666" lon="8.066346606229367"><ele>400.0</ele><time>2026-05-01T11:30:49Z</time></trkpt><trkpt lat="45.556692721536045" lon="8.066408926989808"><ele>399.5</ele><time>2026-05-01T11:30:50Z</time></trkpt><trkpt lat="45.55676362030258" lon="8.06643280602225"><ele>399.0</ele><time>2026-05-01T11:30:51Z</time></trkpt><trkpt lat="45.556835305454975" lon="8.066409529505634"><ele>398.49999999999994</ele><time>2026-05-01T11:30:52Z</time></trkpt><trkpt lat="45.556896885645195" lon="8.066302758296537"><ele>398.0</ele><time>2026-05-01T11:30:53Z</time></trkpt><trkpt lat="45.556960412383994" lon="8.066186702357985"><ele>397.99999999999994</ele><time>2026-05-01T11:30:54Z</time></trkpt><trkpt lat="45.5570231521846" lon="8.066090596529264"><ele>398.0</ele><time>2026-05-01T11:30:55Z</time></trkpt><trkpt lat="45.557076226094466" lon="8.06602393883213"><ele>398.0</ele><time>2026-05-01T11:30:56Z</time></trkpt><trkpt lat="45.5571348852028" lon="8.065958695023784"><ele>398.0</ele><time>2026-05-01T11:30:57Z</time></trkpt><trkpt lat="45.55720735845366" lon="8.06590296493136"><ele>397.99999999999994</ele><time>2026-05-01T11:30:58Z</time></trkpt><trkpt lat="45.557296620850146" lon="8.06585588319666"><ele>398.0</ele><time>2026-05-01T11:30:59Z</time></trkpt><trkpt lat="45.5573770457277" lon="8.065795256609373"><ele>398.16666666666663</ele><time>2026-05-01T11:31:00Z</time></trkpt><trkpt lat="45.557454626253325" lon="8.065741393544135"><ele>398.3333333333333</ele><time>2026-05-01T11:31:01Z</time></trkpt><trkpt lat="45.557531591652506" lon="8.065683740463996"><ele>398.5</ele><time>2026-05-01T11:31:02Z</time></trkpt><trkpt lat="45.5576074781242" lon="8.065627815783376"><ele>398.66666666666663</ele><time>2026-05-01T11:31:03Z</time></trkpt><trkpt lat="45.55768689722348" lon="8.065582364935896"><ele>398.8333333333333</ele><time>2026-05-01T11:31:04Z</time></trkpt><trkpt lat="45.55777164543751" lon="8.065538806358811"><ele>399.0</ele><time>2026-05-01T11:31:05Z</time></trkpt><trkpt lat="45.55786025519991" lon="8.065488740012022"><ele>399.2</ele><time>2026-05-01T11:31:06Z</time></trkpt><trkpt lat="45.55793924091621" lon="8.065444039364271"><ele>399.4</ele><time>2026-05-01T11:31:07Z</time></trkpt><trkpt lat="45.55801663033843" lon="8.06539732057406"><ele>399.6</ele><time>2026-05-01T11:31:08Z</time></trkpt><trkpt lat="45.55811260163567" lon="8.065344169597443"><ele>399.8</ele><time>2026-05-01T11:31:09Z</time></trkpt><trkpt lat="45.55821171096658" lon="8.065282756489138"><ele>400.0</ele><time>2026-05-01T11:31:10Z</time></trkpt><trkpt lat="45.55830677716056" lon="8.065221720313103"><ele>400.0</ele><time>2026-05-01T11:31:11Z</time></trkpt><trkpt lat="45.5584008074165" lon="8.065157915768497"><ele>400.0</ele><time>2026-05-01T11:31:12Z</time></trkpt><trkpt lat="45.55850381772325" lon="8.065093279562046"><ele>400.0</ele><time>2026-05-01T11:31:13Z</time></trkpt><trkpt lat="45.55860850833374" lon="8.065032617967512"><ele>400.0</ele><time>2026-05-01T11:31:14Z</time></trkpt><trkpt lat="45.55870729373475" lon="8.064978012369119"><ele>400.0</ele><time>2026-05-01T11:31:15Z</time></trkpt><trkpt lat="45.558793549192075" lon="8.064927949032738"><ele>400.83333333333337</ele><time>2026-05-01T11:31:16Z</time></trkpt><trkpt lat="45.55886833136395" lon="8.064891247625463"><ele>401.6666666666667</ele><time>2026-05-01T11:31:17Z</time></trkpt><trkpt lat="45.55894580626437" lon="8.064873942196481"><ele>402.5</ele><time>2026-05-01T11:31:19Z</time></trkpt><trkpt lat="45.559025670291135" lon="8.064940569677718"><ele>403.33333333333337</ele><time>2026-05-01T11:31:21Z</time></trkpt><trkpt lat="45.55905956508357" lon="8.065033297883982"><ele>404.1666666666667</ele><time>2026-05-01T11:31:22Z</time></trkpt><trkpt lat="45.55909406868375" lon="8.065169900977038"><ele>405.0</ele><time>2026-05-01T11:31:23Z</time></trkpt><trkpt lat="45.559146550297235" lon="8.065363486580281"><ele>405.0</ele><time>2026-05-01T11:31:24Z</time></trkpt><trkpt lat="45.55921357330886" lon="8.065575528560778"><ele>405.0</ele><time>2026-05-01T11:31:25Z</time></trkpt><trkpt lat="45.55928123905112" lon="8.065777742660686"><ele>405.0</ele><time>2026-05-01T11:31:26Z</time></trkpt><trkpt lat="45.55935161814276" lon="8.06598025350343"><ele>403.66666666666663</ele><time>2026-05-01T11:31:27Z</time></trkpt><trkpt lat="45.55942509648038" lon="8.06621011964062"><ele>402.3333333333333</ele><time>2026-05-01T11:31:28Z</time></trkpt><trkpt lat="45.55950038440471" lon="8.06644358493626"><ele>401.0</ele><time>2026-05-01T11:31:29Z</time></trkpt><trkpt lat="45.55956599136932" lon="8.066637366258101"><ele>400.0</ele><time>2026-05-01T11:31:30Z</time></trkpt><trkpt lat="45.559615853244864" lon="8.066791998781923"><ele>399.0</ele><time>2026-05-01T11:31:31Z</time></trkpt><trkpt lat="45.55966159202495" lon="8.066930464504916"><ele>398.0</ele><time>2026-05-01T11:31:32Z</time></trkpt><trkpt lat="45.55969310695344" lon="8.06704770954855"><ele>397.0</ele><time>2026-05-01T11:31:33Z</time></trkpt><trkpt lat="45.559700595901674" lon="8.067160863437072"><ele>396.0</ele><time>2026-05-01T11:31:34Z</time></trkpt><trkpt lat="45.55968834810156" lon="8.067281156770486"><ele>396.0</ele><time>2026-05-01T11:31:35Z</time></trkpt><trkpt lat="45.559654924654815" lon="8.067401058592834"><ele>396.0</ele><time>2026-05-01T11:31:36Z</time></trkpt><trkpt lat="45.55960041699957" lon="8.067542540159268"><ele>396.0</ele><time>2026-05-01T11:31:37Z</time></trkpt><trkpt lat="45.5595319885237" lon="8.067696465536432"><ele>396.0</ele><time>2026-05-01T11:31:38Z</time></trkpt><trkpt lat="45.559445064693946" lon="8.067860638707913"><ele>396.66666666666663</ele><time>2026-05-01T11:31:39Z</time></trkpt><trkpt lat="45.559343418041045" lon="8.068029157305395"><ele>397.3333333333333</ele><time>2026-05-01T11:31:40Z</time></trkpt><trkpt lat="45.559218836191796" lon="8.06819777796712"><ele>398.0</ele><time>2026-05-01T11:31:41Z</time></trkpt><trkpt lat="45.55908235377146" lon="8.068360017896058"><ele>398.0</ele><time>2026-05-01T11:31:42Z</time></trkpt><trkpt lat="45.55892990688774" lon="8.068525586696577"><ele>398.0</ele><time>2026-05-01T11:31:43Z</time></trkpt><trkpt lat="45.55876668212474" lon="8.068684548838233"><ele>398.0</ele><time>2026-05-01T11:31:44Z</time></trkpt><trkpt lat="45.558606950825265" lon="8.068829343186177"><ele>397.3333333333333</ele><time>2026-05-01T11:31:45Z</time></trkpt><trkpt lat="45.55845478668488" lon="8.06896360277817"><ele>396.66666666666663</ele><time>2026-05-01T11:31:46Z</time></trkpt><trkpt lat="45.558305408749" lon="8.069102109052752"><ele>396.0</ele><time>2026-05-01T11:31:47Z</time></trkpt><trkpt lat="45.55814930482425" lon="8.069247536850192"><ele>396.0</ele><time>2026-05-01T11:31:48Z</time></trkpt><trkpt lat="45.557988823261844" lon="8.069390819400013"><ele>396.0</ele><time>2026-05-01T11:31:49Z</time></trkpt><trkpt lat="45.55782825168305" lon="8.069538132453985"><ele>396.0</ele><time>2026-05-01T11:31:50Z</time></trkpt><trkpt lat="45.55767285549964" lon="8.069682944607584"><ele>395.0</ele><time>2026-05-01T11:31:51Z</time></trkpt><trkpt lat="45.55752897630648" lon="8.06981473885919"><ele>394.0</ele><time>2026-05-01T11:31:52Z</time></trkpt><trkpt lat="45.55739186050228" lon="8.069943894545357"><ele>393.0</ele><time>2026-05-01T11:31:53Z</time></trkpt><trkpt lat="45.55726107699683" lon="8.070065790750766"><ele>393.0</ele><time>2026-05-01T11:31:54Z</time></trkpt><trkpt lat="45.55713191598718" lon="8.070183427222554"><ele>393.0</ele><time>2026-05-01T11:31:55Z</time></trkpt><trkpt lat="45.5570084352146" lon="8.070294407857558"><ele>393.0</ele><time>2026-05-01T11:31:56Z</time></trkpt><trkpt lat="45.55688228955889" lon="8.07041677168785"><ele>393.0</ele><time>2026-05-01T11:31:57Z</time></trkpt><trkpt lat="45.55676509248721" lon="8.070526322878562"><ele>393.0</ele><time>2026-05-01T11:31:58Z</time></trkpt><trkpt lat="45.556642795180665" lon="8.070637336632634"><ele>393.0</ele><time>2026-05-01T11:31:59Z</time></trkpt><trkpt lat="45.556522166775075" lon="8.070743696555148"><ele>393.0</ele><time>2026-05-01T11:32:00Z</time></trkpt><trkpt lat="45.55639971224571" lon="8.070855121749508"><ele>392.5</ele><time>2026-05-01T11:32:01Z</time></trkpt><trkpt lat="45.55627815256458" lon="8.070971669478135"><ele>392.0</ele><time>2026-05-01T11:32:02Z</time></trkpt><trkpt lat="45.55615436404014" lon="8.071090201452808"><ele>391.5</ele><time>2026-05-01T11:32:03Z</time></trkpt><trkpt lat="45.55603059851427" lon="8.071203401922473"><ele>391.0</ele><time>2026-05-01T11:32:04Z</time></trkpt><trkpt lat="45.55590984533499" lon="8.071317698967242"><ele>391.0</ele><time>2026-05-01T11:32:05Z</time></trkpt><trkpt lat="45.555793799934236" lon="8.071438990741166"><ele>391.0</ele><time>2026-05-01T11:32:06Z</time></trkpt><trkpt lat="45.55568448834768" lon="8.071572491700715"><ele>391.0</ele><time>2026-05-01T11:32:07Z</time></trkpt><trkpt lat="45.55559413671776" lon="8.071716497043075"><ele>391.0</ele><time>2026-05-01T11:32:08Z</time></trkpt><trkpt lat="45.5555164327904" lon="8.071863924329293"><ele>390.6666666666667</ele><time>2026-05-01T11:32:09Z</time></trkpt><trkpt lat="45.55545431245326" lon="8.07202937125895"><ele>390.33333333333337</ele><time>2026-05-01T11:32:10Z</time></trkpt><trkpt lat="45.55539183107129" lon="8.072228228678554"><ele>390.0</ele><time>2026-05-01T11:32:11Z</time></trkpt><trkpt lat="45.55534021717181" lon="8.072452874660367"><ele>388.66666666666663</ele><time>2026-05-01T11:32:12Z</time></trkpt><trkpt lat="45.55530308220313" lon="8.072711382277934"><ele>387.3333333333333</ele><time>2026-05-01T11:32:13Z</time></trkpt><trkpt lat="45.55527001771009" lon="8.072994355408055"><ele>386.0</ele><time>2026-05-01T11:32:14Z</time></trkpt><trkpt lat="45.55523570333549" lon="8.073259169193372"><ele>385.66666666666663</ele><time>2026-05-01T11:32:15Z</time></trkpt><trkpt lat="45.55520086960558" lon="8.073501504612521"><ele>385.33333333333337</ele><time>2026-05-01T11:32:16Z</time></trkpt><trkpt lat="45.55516951969953" lon="8.073718100494203"><ele>385.0</ele><time>2026-05-01T11:32:17Z</time></trkpt><trkpt lat="45.55514914286762" lon="8.073890286072151"><ele>385.0</ele><time>2026-05-01T11:32:18Z</time></trkpt><trkpt lat="45.55514125460721" lon="8.074038175282366"><ele>385.0</ele><time>2026-05-01T11:32:19Z</time></trkpt><trkpt lat="45.55515525910285" lon="8.074175511911355"><ele>385.0</ele><time>2026-05-01T11:32:20Z</time></trkpt><trkpt lat="45.55519391500432" lon="8.074311939926758"><ele>385.0</ele><time>2026-05-01T11:32:21Z</time></trkpt><trkpt lat="45.555253417417575" lon="8.07444094435887"><ele>385.0</ele><time>2026-05-01T11:32:22Z</time></trkpt><trkpt lat="45.55533002675664" lon="8.07455744033998"><ele>385.0</ele><time>2026-05-01T11:32:23Z</time></trkpt><trkpt lat="45.55542020753716" lon="8.074644716458561"><ele>385.0</ele><time>2026-05-01T11:32:24Z</time></trkpt><trkpt lat="45.555523523459584" lon="8.074707774787374"><ele>385.0</ele><time>2026-05-01T11:32:25Z</time></trkpt><trkpt lat="45.55563389592676" lon="8.074745259556991"><ele>385.0</ele><time>2026-05-01T11:32:26Z</time></trkpt><trkpt lat="45.55574675898515" lon="8.074739370707348"><ele>385.0</ele><time>2026-05-01T11:32:27Z</time></trkpt><trkpt lat="45.555851828511564" lon="8.07470099820221"><ele>385.0</ele><time>2026-05-01T11:32:28Z</time></trkpt><trkpt lat="45.55595534009001" lon="8.074627780056524"><ele>385.0</ele><time>2026-05-01T11:32:29Z</time></trkpt><trkpt lat="45.55605666764605" lon="8.074524020097408"><ele>385.0</ele><time>2026-05-01T11:32:30Z</time></trkpt><trkpt lat="45.55613271728658" lon="8.074378377767387"><ele>385.0</ele><time>2026-05-01T11:32:31Z</time></trkpt><trkpt lat="45.55621905733217" lon="8.07426345518638"><ele>384.25</ele><time>2026-05-01T11:32:32Z</time></trkpt><trkpt lat="45.55629430638621" lon="8.0741270960488"><ele>383.5</ele><time>2026-05-01T11:32:33Z</time></trkpt><trkpt lat="45.556388539776194" lon="8.073998366689388"><ele>382.75</ele><time>2026-05-01T11:32:34Z</time></trkpt><trkpt lat="45.55650439465929" lon="8.073894729697939"><ele>382.0</ele><time>2026-05-01T11:32:35Z</time></trkpt><trkpt lat="45.556635705015886" lon="8.073804119519396"><ele>382.0</ele><time>2026-05-01T11:32:36Z</time></trkpt><trkpt lat="45.55676593922099" lon="8.07372922073543"><ele>382.0</ele><time>2026-05-01T11:32:37Z</time></trkpt><trkpt lat="45.5568866647672" lon="8.073664299293823"><ele>382.0</ele><time>2026-05-01T11:32:38Z</time></trkpt><trkpt lat="45.55696579780846" lon="8.073577941493424"><ele>382.0</ele><time>2026-05-01T11:32:39Z</time></trkpt><trkpt lat="45.55708645734925" lon="8.073614280041884"><ele>376.3333333333333</ele><time>2026-05-01T11:32:40Z</time></trkpt><trkpt lat="45.55720952497806" lon="8.073600406403791"><ele>370.6666666666667</ele><time>2026-05-01T11:32:41Z</time></trkpt><trkpt lat="45.55736685888571" lon="8.073584267763586"><ele>365.0</ele><time>2026-05-01T11:32:42Z</time></trkpt><trkpt lat="45.557541158772146" lon="8.073565279920905"><ele>365.0</ele><time>2026-05-01T11:32:43Z</time></trkpt><trkpt lat="45.557705249715525" lon="8.07354976570437"><ele>365.0</ele><time>2026-05-01T11:32:44Z</time></trkpt><trkpt lat="45.55788165904839" lon="8.073533216766132"><ele>365.0</ele><time>2026-05-01T11:32:45Z</time></trkpt><trkpt lat="45.55806359922002" lon="8.073518342085201"><ele>360.33333333333337</ele><time>2026-05-01T11:32:46Z</time></trkpt><trkpt lat="45.55824104257538" lon="8.073503405363375"><ele>355.6666666666667</ele><time>2026-05-01T11:32:47Z</time></trkpt><trkpt lat="45.55842412784547" lon="8.073487801172233"><ele>351.0</ele><time>2026-05-01T11:32:48Z</time></trkpt><trkpt lat="45.55859585861157" lon="8.073467228655337"><ele>350.0</ele><time>2026-05-01T11:32:49Z</time></trkpt><trkpt lat="45.5587626473256" lon="8.073453288618058"><ele>349.0</ele><time>2026-05-01T11:32:50Z</time></trkpt><trkpt lat="45.558926718742704" lon="8.073435509194582"><ele>348.0</ele><time>2026-05-01T11:32:51Z</time></trkpt><trkpt lat="45.5590937973504" lon="8.073420074504998"><ele>348.0</ele><time>2026-05-01T11:32:52Z</time></trkpt><trkpt lat="45.55926945894982" lon="8.073401585958845"><ele>348.0</ele><time>2026-05-01T11:32:53Z</time></trkpt><trkpt lat="45.55944432315152" lon="8.073386778221522"><ele>348.0</ele><time>2026-05-01T11:32:54Z</time></trkpt><trkpt lat="45.55962005848234" lon="8.073362699172359"><ele>349.6666666666667</ele><time>2026-05-01T11:32:55Z</time></trkpt><trkpt lat="45.5598007096971" lon="8.073346909955852"><ele>351.33333333333337</ele><time>2026-05-01T11:32:56Z</time></trkpt><trkpt lat="45.55998075680663" lon="8.073330639165427"><ele>353.0</ele><time>2026-05-01T11:32:57Z</time></trkpt><trkpt lat="45.560152531105885" lon="8.073313973681376"><ele>353.0</ele><time>2026-05-01T11:32:58Z</time></trkpt><trkpt lat="45.56033241891572" lon="8.07329687263896"><ele>353.0</ele><time>2026-05-01T11:32:59Z</time></trkpt><trkpt lat="45.56052998934296" lon="8.073276994893229"><ele>353.0</ele><time>2026-05-01T11:33:00Z</time></trkpt><trkpt lat="45.560736752426216" lon="8.073258474231896"><ele>353.6666666666667</ele><time>2026-05-01T11:33:01Z</time></trkpt><trkpt lat="45.56093754172301" lon="8.073240531800629"><ele>354.3333333333333</ele><time>2026-05-01T11:33:02Z</time></trkpt><trkpt lat="45.5611354931088" lon="8.073221880615636"><ele>355.0</ele><time>2026-05-01T11:33:03Z</time></trkpt><trkpt lat="45.561329034423615" lon="8.073207040242805"><ele>356.3333333333333</ele><time>2026-05-01T11:33:04Z</time></trkpt><trkpt lat="45.56150542429337" lon="8.07318957231347"><ele>357.6666666666667</ele><time>2026-05-01T11:33:05Z</time></trkpt><trkpt lat="45.561690131419034" lon="8.073180983051053"><ele>359.0</ele><time>2026-05-01T11:33:06Z</time></trkpt><trkpt lat="45.561852658783486" lon="8.073172945071512"><ele>359.0</ele><time>2026-05-01T11:33:07Z</time></trkpt><trkpt lat="45.56199778102706" lon="8.073161569424562"><ele>359.0</ele><time>2026-05-01T11:33:08Z</time></trkpt><trkpt lat="45.56214289524769" lon="8.073149462310239"><ele>359.0</ele><time>2026-05-01T11:33:09Z</time></trkpt><trkpt lat="45.56229450801268" lon="8.0731449978814"><ele>359.0</ele><time>2026-05-01T11:33:10Z</time></trkpt><trkpt lat="45.562443193163816" lon="8.073137748066307"><ele>359.5</ele><time>2026-05-01T11:33:11Z</time></trkpt><trkpt lat="45.56258493311856" lon="8.073133628568913"><ele>360.0</ele><time>2026-05-01T11:33:12Z</time></trkpt><trkpt lat="45.562724372606645" lon="8.073133422823558"><ele>360.5</ele><time>2026-05-01T11:33:13Z</time></trkpt><trkpt lat="45.56285836197009" lon="8.073145106420752"><ele>361.0</ele><time>2026-05-01T11:33:14Z</time></trkpt><trkpt lat="45.56300388585242" lon="8.073175783448331"><ele>362.66666666666663</ele><time>2026-05-01T11:33:15Z</time></trkpt><trkpt lat="45.56315657867662" lon="8.07323393251637"><ele>364.3333333333333</ele><time>2026-05-01T11:33:16Z</time></trkpt><trkpt lat="45.563313266290976" lon="8.073306109104422"><ele>366.0</ele><time>2026-05-01T11:33:17Z</time></trkpt><trkpt lat="45.563468018033355" lon="8.073395023712056"><ele>366.0</ele><time>2026-05-01T11:33:18Z</time></trkpt><trkpt lat="45.563610133123404" lon="8.073508358637337"><ele>366.0</ele><time>2026-05-01T11:33:19Z</time></trkpt><trkpt lat="45.56375419659836" lon="8.07364458453579"><ele>366.0</ele><time>2026-05-01T11:33:20Z</time></trkpt><trkpt lat="45.56389455440167" lon="8.073788199748948"><ele>366.0</ele><time>2026-05-01T11:33:21Z</time></trkpt><trkpt lat="45.56402041013133" lon="8.073939074395676"><ele>366.0</ele><time>2026-05-01T11:33:22Z</time></trkpt><trkpt lat="45.56413616933544" lon="8.074117868176502"><ele>366.0</ele><time>2026-05-01T11:33:23Z</time></trkpt><trkpt lat="45.56425010057031" lon="8.07431230424701"><ele>366.0</ele><time>2026-05-01T11:33:24Z</time></trkpt><trkpt lat="45.564372180849205" lon="8.074535573682875"><ele>366.0</ele><time>2026-05-01T11:33:25Z</time></trkpt><trkpt lat="45.56450196912419" lon="8.074787783095275"><ele>366.0</ele><time>2026-05-01T11:33:26Z</time></trkpt><trkpt lat="45.56465248648804" lon="8.075071925244659"><ele>367.0</ele><time>2026-05-01T11:33:27Z</time></trkpt><trkpt lat="45.56481722806224" lon="8.075383680510107"><ele>368.0</ele><time>2026-05-01T11:33:28Z</time></trkpt><trkpt lat="45.56497895473188" lon="8.075693615539318"><ele>368.0</ele><time>2026-05-01T11:33:29Z</time></trkpt><trkpt lat="45.56512343729629" lon="8.075972499606069"><ele>368.0</ele><time>2026-05-01T11:33:30Z</time></trkpt><trkpt lat="45.56526579647455" lon="8.076246346868357"><ele>367.6666666666667</ele><time>2026-05-01T11:33:31Z</time></trkpt><trkpt lat="45.56540096038256" lon="8.076504986134758"><ele>367.3333333333333</ele><time>2026-05-01T11:33:32Z</time></trkpt><trkpt lat="45.5655318020321" lon="8.076755351800724"><ele>367.0</ele><time>2026-05-01T11:33:33Z</time></trkpt><trkpt lat="45.56565904137856" lon="8.076996261026705"><ele>367.0</ele><time>2026-05-01T11:33:34Z</time></trkpt><trkpt lat="45.56579049869968" lon="8.077239955731715"><ele>367.0</ele><time>2026-05-01T11:33:35Z</time></trkpt><trkpt lat="45.565918960820824" lon="8.077482816924574"><ele>367.0</ele><time>2026-05-01T11:33:36Z</time></trkpt><trkpt lat="45.56604231373248" lon="8.077712614458068"><ele>366.5</ele><time>2026-05-01T11:33:37Z</time></trkpt><trkpt lat="45.56617807373669" lon="8.077971010336684"><ele>366.0</ele><time>2026-05-01T11:33:38Z</time></trkpt><trkpt lat="45.56631397507261" lon="8.078224448271976"><ele>365.6666666666667</ele><time>2026-05-01T11:33:39Z</time></trkpt><trkpt lat="45.566443602966345" lon="8.078466994033064"><ele>365.33333333333337</ele><time>2026-05-01T11:33:40Z</time></trkpt><trkpt lat="45.56656966320992" lon="8.078705401575407"><ele>365.0</ele><time>2026-05-01T11:33:41Z</time></trkpt><trkpt lat="45.566694291650585" lon="8.078942339737516"><ele>364.6666666666667</ele><time>2026-05-01T11:33:42Z</time></trkpt><trkpt lat="45.566821920300946" lon="8.079182520896294"><ele>364.3333333333333</ele><time>2026-05-01T11:33:43Z</time></trkpt><trkpt lat="45.5669369834828" lon="8.079404908226886"><ele>364.0</ele><time>2026-05-01T11:33:44Z</time></trkpt><trkpt lat="45.567039998527186" lon="8.079622025603454"><ele>364.3333333333333</ele><time>2026-05-01T11:33:45Z</time></trkpt><trkpt lat="45.56713102430552" lon="8.079828209571863"><ele>364.6666666666667</ele><time>2026-05-01T11:33:46Z</time></trkpt><trkpt lat="45.56720681396299" lon="8.080022158651934"><ele>365.0</ele><time>2026-05-01T11:33:47Z</time></trkpt><trkpt lat="45.56726453877658" lon="8.080207623608482"><ele>365.0</ele><time>2026-05-01T11:33:48Z</time></trkpt><trkpt lat="45.56731193261896" lon="8.08037131022493"><ele>365.0</ele><time>2026-05-01T11:33:49Z</time></trkpt><trkpt lat="45.56734835017344" lon="8.080503420331008"><ele>365.0</ele><time>2026-05-01T11:33:50Z</time></trkpt><trkpt lat="45.567379424771616" lon="8.080614687101411"><ele>365.0</ele><time>2026-05-01T11:33:51Z</time></trkpt><trkpt lat="45.56739887961169" lon="8.080723031520884"><ele>365.0</ele><time>2026-05-01T11:33:52Z</time></trkpt><trkpt lat="45.56741424510417" lon="8.080818039911481"><ele>364.5</ele><time>2026-05-01T11:33:53Z</time></trkpt><trkpt lat="45.56743412944283" lon="8.080910644915951"><ele>364.0</ele><time>2026-05-01T11:33:54Z</time></trkpt><trkpt lat="45.56750522531992" lon="8.08104504894277"><ele>363.5</ele><time>2026-05-01T11:33:56Z</time></trkpt><trkpt lat="45.567586564042" lon="8.081123787895667"><ele>363.0</ele><time>2026-05-01T11:33:58Z</time></trkpt><trkpt lat="45.567667652184774" lon="8.08107026174463"><ele>362.5</ele><time>2026-05-01T11:33:59Z</time></trkpt><trkpt lat="45.567721811904725" lon="8.08101254543977"><ele>362.0</ele><time>2026-05-01T11:34:00Z</time></trkpt><trkpt lat="45.567765885998696" lon="8.080933108350242"><ele>362.0</ele><time>2026-05-01T11:34:01Z</time></trkpt><trkpt lat="45.56780041756201" lon="8.080816644898118"><ele>362.0</ele><time>2026-05-01T11:34:02Z</time></trkpt><trkpt lat="45.56782551453191" lon="8.080669553746075"><ele>362.0</ele><time>2026-05-01T11:34:03Z</time></trkpt><trkpt lat="45.5678444559188" lon="8.080537755716827"><ele>362.0</ele><time>2026-05-01T11:34:04Z</time></trkpt><trkpt lat="45.56786863827753" lon="8.080404243805727"><ele>362.0</ele><time>2026-05-01T11:34:05Z</time></trkpt><trkpt lat="45.5678994547947" lon="8.080254761857505"><ele>362.5</ele><time>2026-05-01T11:34:06Z</time></trkpt><trkpt lat="45.56792962878992" lon="8.08008901235794"><ele>363.0</ele><time>2026-05-01T11:34:07Z</time></trkpt><trkpt lat="45.56795977717796" lon="8.079909202214083"><ele>363.5</ele><time>2026-05-01T11:34:08Z</time></trkpt><trkpt lat="45.567990761620344" lon="8.079734038937648"><ele>364.0</ele><time>2026-05-01T11:34:09Z</time></trkpt><trkpt lat="45.56802219930647" lon="8.079565262109083"><ele>364.75</ele><time>2026-05-01T11:34:10Z</time></trkpt><trkpt lat="45.56805906007311" lon="8.079386168624177"><ele>365.5</ele><time>2026-05-01T11:34:11Z</time></trkpt><trkpt lat="45.56809897290582" lon="8.07918183763267"><ele>366.25</ele><time>2026-05-01T11:34:12Z</time></trkpt><trkpt lat="45.568141492730355" lon="8.078965761608476"><ele>367.0</ele><time>2026-05-01T11:34:13Z</time></trkpt><trkpt lat="45.56817977199943" lon="8.07875031182077"><ele>367.66666666666663</ele><time>2026-05-01T11:34:14Z</time></trkpt><trkpt lat="45.56821741411481" lon="8.078543420753778"><ele>368.3333333333333</ele><time>2026-05-01T11:34:15Z</time></trkpt><trkpt lat="45.56825334543467" lon="8.078339340300934"><ele>369.0</ele><time>2026-05-01T11:34:16Z</time></trkpt><trkpt lat="45.56829654355373" lon="8.078111154845978"><ele>369.0</ele><time>2026-05-01T11:34:17Z</time></trkpt><trkpt lat="45.568344228778074" lon="8.077850266043065"><ele>369.0</ele><time>2026-05-01T11:34:18Z</time></trkpt><trkpt lat="45.56839104247776" lon="8.077592202636179"><ele>369.0</ele><time>2026-05-01T11:34:19Z</time></trkpt><trkpt lat="45.56843803474521" lon="8.077334235875206"><ele>369.3333333333333</ele><time>2026-05-01T11:34:20Z</time></trkpt><trkpt lat="45.56848995881525" lon="8.077079627174278"><ele>369.66666666666663</ele><time>2026-05-01T11:34:21Z</time></trkpt><trkpt lat="45.56853681181765" lon="8.076837162192774"><ele>370.0</ele><time>2026-05-01T11:34:22Z</time></trkpt><trkpt lat="45.56857701442474" lon="8.076605961595252"><ele>370.25</ele><time>2026-05-01T11:34:23Z</time></trkpt><trkpt lat="45.568616737364884" lon="8.076403676374735"><ele>370.5</ele><time>2026-05-01T11:34:24Z</time></trkpt><trkpt lat="45.568651649908155" lon="8.07622048606062"><ele>370.75</ele><time>2026-05-01T11:34:25Z</time></trkpt><trkpt lat="45.56868380964445" lon="8.076037688645492"><ele>371.0</ele><time>2026-05-01T11:34:26Z</time></trkpt><trkpt lat="45.56870718072125" lon="8.075875945214875"><ele>372.0</ele><time>2026-05-01T11:34:27Z</time></trkpt><trkpt lat="45.56872366016844" lon="8.07576034072042"><ele>373.0</ele><time>2026-05-01T11:34:28Z</time></trkpt><trkpt lat="45.56878480689879" lon="8.075578378088167"><ele>374.0</ele><time>2026-05-01T11:34:30Z</time></trkpt><trkpt lat="45.56882657151944" lon="8.075450813142583"><ele>375.0</ele><time>2026-05-01T11:34:31Z</time></trkpt><trkpt lat="45.568851335189244" lon="8.07528018963912"><ele>376.0</ele><time>2026-05-01T11:34:32Z</time></trkpt><trkpt lat="45.56887392844347" lon="8.075083103381045"><ele>376.0</ele><time>2026-05-01T11:34:33Z</time></trkpt><trkpt lat="45.56891052128795" lon="8.07486431830775"><ele>376.0</ele><time>2026-05-01T11:34:34Z</time></trkpt><trkpt lat="45.56895780941213" lon="8.074616809108601"><ele>376.0</ele><time>2026-05-01T11:34:35Z</time></trkpt><trkpt lat="45.569009143360034" lon="8.07434322640372"><ele>377.0</ele><time>2026-05-01T11:34:36Z</time></trkpt><trkpt lat="45.56906415635424" lon="8.074035821378406"><ele>378.0</ele><time>2026-05-01T11:34:37Z</time></trkpt><trkpt lat="45.56911880567724" lon="8.073717528586242"><ele>378.0</ele><time>2026-05-01T11:34:38Z</time></trkpt><trkpt lat="45.56917354975592" lon="8.073420466812458"><ele>378.0</ele><time>2026-05-01T11:34:39Z</time></trkpt><trkpt lat="45.56922474490742" lon="8.073160553551094"><ele>378.0</ele><time>2026-05-01T11:34:40Z</time></trkpt><trkpt lat="45.5692678983387" lon="8.072943229760773"><ele>378.3333333333333</ele><time>2026-05-01T11:34:41Z</time></trkpt><trkpt lat="45.569311605374615" lon="8.072719216133235"><ele>378.66666666666663</ele><time>2026-05-01T11:34:42Z</time></trkpt><trkpt lat="45.56934920057764" lon="8.072495638261522"><ele>379.0</ele><time>2026-05-01T11:34:43Z</time></trkpt><trkpt lat="45.56938271497746" lon="8.072253401289908"><ele>378.66666666666663</ele><time>2026-05-01T11:34:44Z</time></trkpt><trkpt lat="45.56942741321584" lon="8.071998964199778"><ele>378.3333333333333</ele><time>2026-05-01T11:34:45Z</time></trkpt><trkpt lat="45.569479799568" lon="8.07173141158992"><ele>378.0</ele><time>2026-05-01T11:34:46Z</time></trkpt><trkpt lat="45.56952239310134" lon="8.071491489317923"><ele>379.6666666666667</ele><time>2026-05-01T11:34:47Z</time></trkpt><trkpt lat="45.569565608134255" lon="8.071261026069314"><ele>381.33333333333337</ele><time>2026-05-01T11:34:48Z</time></trkpt><trkpt lat="45.56960646750429" lon="8.071053702143008"><ele>383.0</ele><time>2026-05-01T11:34:49Z</time></trkpt><trkpt lat="45.56964361616521" lon="8.070848462568438"><ele>383.33333333333337</ele><time>2026-05-01T11:34:50Z</time></trkpt><trkpt lat="45.56968310885857" lon="8.070628495233478"><ele>383.6666666666667</ele><time>2026-05-01T11:34:51Z</time></trkpt><trkpt lat="45.5697256603519" lon="8.070392961944664"><ele>384.0</ele><time>2026-05-01T11:34:52Z</time></trkpt><trkpt lat="45.569769812549595" lon="8.070172365098475"><ele>384.0</ele><time>2026-05-01T11:34:53Z</time></trkpt><trkpt lat="45.56981316859216" lon="8.069951298187116"><ele>384.0</ele><time>2026-05-01T11:34:54Z</time></trkpt><trkpt lat="45.56985727818283" lon="8.069708398908658"><ele>384.0</ele><time>2026-05-01T11:34:55Z</time></trkpt><trkpt lat="45.569903944997904" lon="8.069461639096426"><ele>384.33333333333337</ele><time>2026-05-01T11:34:56Z</time></trkpt><trkpt lat="45.5699487551432" lon="8.069226357998359"><ele>384.6666666666667</ele><time>2026-05-01T11:34:57Z</time></trkpt><trkpt lat="45.56999240209605" lon="8.068996581994632"><ele>385.0</ele><time>2026-05-01T11:34:58Z</time></trkpt><trkpt lat="45.570031593548364" lon="8.06880261687746"><ele>385.00000000000006</ele><time>2026-05-01T11:34:59Z</time></trkpt><trkpt lat="45.57006369116038" lon="8.068641988643586"><ele>385.0</ele><time>2026-05-01T11:35:00Z</time></trkpt><trkpt lat="45.570087486195625" lon="8.06851620447506"><ele>385.0</ele><time>2026-05-01T11:35:01Z</time></trkpt><trkpt lat="45.57010649075614" lon="8.068407213822125"><ele>385.0</ele><time>2026-05-01T11:35:02Z</time></trkpt><trkpt lat="45.570120185431364" lon="8.068303133039128"><ele>385.00000000000006</ele><time>2026-05-01T11:35:03Z</time></trkpt><trkpt lat="45.570129912226676" lon="8.068211929968092"><ele>385.0</ele><time>2026-05-01T11:35:04Z</time></trkpt><trkpt lat="45.57015622484152" lon="8.068064817396582"><ele>385.0</ele><time>2026-05-01T11:35:06Z</time></trkpt><trkpt lat="45.570176489381325" lon="8.067940699013304"><ele>385.0</ele><time>2026-05-01T11:35:08Z</time></trkpt><trkpt lat="45.57019574058675" lon="8.067841305630427"><ele>385.0</ele><time>2026-05-01T11:35:11Z</time></trkpt><trkpt lat="45.57023892656146" lon="8.06770444430886"><ele>385.0</ele><time>2026-05-01T11:35:16Z</time></trkpt><trkpt lat="45.57025195986883" lon="8.067548701831038"><ele>385.0</ele><time>2026-05-01T11:35:17Z</time></trkpt><trkpt lat="45.57028294703754" lon="8.067391182249985"><ele>385.33333333333337</ele><time>2026-05-01T11:35:18Z</time></trkpt><trkpt lat="45.5703273435825" lon="8.067204117200824"><ele>385.66666666666663</ele><time>2026-05-01T11:35:19Z</time></trkpt><trkpt lat="45.57037547044293" lon="8.066985514371206"><ele>386.0</ele><time>2026-05-01T11:35:20Z</time></trkpt><trkpt lat="45.570420804619104" lon="8.066765251806244"><ele>388.0</ele><time>2026-05-01T11:35:21Z</time></trkpt><trkpt lat="45.57046675327471" lon="8.066535255601828"><ele>390.0</ele><time>2026-05-01T11:35:22Z</time></trkpt><trkpt lat="45.57051199514631" lon="8.066283558459023"><ele>392.0</ele><time>2026-05-01T11:35:23Z</time></trkpt><trkpt lat="45.57055499836718" lon="8.066037732093783"><ele>392.0</ele><time>2026-05-01T11:35:24Z</time></trkpt><trkpt lat="45.57060327554095" lon="8.065783031827607"><ele>392.0</ele><time>2026-05-01T11:35:25Z</time></trkpt><trkpt lat="45.57065583925154" lon="8.065514271168997"><ele>392.0</ele><time>2026-05-01T11:35:26Z</time></trkpt><trkpt lat="45.57071075987079" lon="8.065224706797624"><ele>391.3333333333333</ele><time>2026-05-01T11:35:27Z</time></trkpt><trkpt lat="45.57076602420034" lon="8.06493826036254"><ele>390.66666666666663</ele><time>2026-05-01T11:35:28Z</time></trkpt><trkpt lat="45.57082057239939" lon="8.064640850042062"><ele>390.0</ele><time>2026-05-01T11:35:29Z</time></trkpt><trkpt lat="45.57087595923951" lon="8.064347239282364"><ele>390.66666666666663</ele><time>2026-05-01T11:35:30Z</time></trkpt><trkpt lat="45.57092160833903" lon="8.064092311421115"><ele>391.3333333333333</ele><time>2026-05-01T11:35:31Z</time></trkpt><trkpt lat="45.570967958640175" lon="8.063831676636466"><ele>392.0</ele><time>2026-05-01T11:35:32Z</time></trkpt><trkpt lat="45.57101822619787" lon="8.063548142884933"><ele>391.66666666666663</ele><time>2026-05-01T11:35:33Z</time></trkpt><trkpt lat="45.571072628595665" lon="8.063264848884556"><ele>391.33333333333337</ele><time>2026-05-01T11:35:34Z</time></trkpt><trkpt lat="45.571122889530045" lon="8.062998696477612"><ele>391.0</ele><time>2026-05-01T11:35:35Z</time></trkpt><trkpt lat="45.571168378390176" lon="8.062741629091898"><ele>393.33333333333337</ele><time>2026-05-01T11:35:36Z</time></trkpt><trkpt lat="45.57122224050589" lon="8.062478957590798"><ele>395.66666666666663</ele><time>2026-05-01T11:35:37Z</time></trkpt><trkpt lat="45.57127083529681" lon="8.06221521272416"><ele>398.0</ele><time>2026-05-01T11:35:38Z</time></trkpt><trkpt lat="45.571319478296836" lon="8.06196457854965"><ele>398.0</ele><time>2026-05-01T11:35:39Z</time></trkpt><trkpt lat="45.5713626087403" lon="8.061739450741088"><ele>398.0</ele><time>2026-05-01T11:35:40Z</time></trkpt><trkpt lat="45.57139983003183" lon="8.061547702130147"><ele>398.0</ele><time>2026-05-01T11:35:41Z</time></trkpt><trkpt lat="45.571436087739315" lon="8.061377015752361"><ele>398.0</ele><time>2026-05-01T11:35:42Z</time></trkpt><trkpt lat="45.57146669839732" lon="8.061226260741034"><ele>397.49999999999994</ele><time>2026-05-01T11:35:43Z</time></trkpt><trkpt lat="45.57148969131933" lon="8.06111411897227"><ele>397.0</ele><time>2026-05-01T11:35:44Z</time></trkpt><trkpt lat="45.57151125145874" lon="8.061020383725898"><ele>396.5</ele><time>2026-05-01T11:35:45Z</time></trkpt><trkpt lat="45.57153282309909" lon="8.060928259934368"><ele>396.0</ele><time>2026-05-01T11:35:46Z</time></trkpt><trkpt lat="45.571566690873304" lon="8.060822072270328"><ele>395.49999999999994</ele><time>2026-05-01T11:35:47Z</time></trkpt><trkpt lat="45.57161326588177" lon="8.06073171655756"><ele>395.0</ele><time>2026-05-01T11:35:48Z</time></trkpt><trkpt lat="45.57166279794688" lon="8.060657605196711"><ele>394.0</ele><time>2026-05-01T11:35:49Z</time></trkpt><trkpt lat="45.5717065644438" lon="8.060566077038803"><ele>393.0</ele><time>2026-05-01T11:35:50Z</time></trkpt><trkpt lat="45.57173879994296" lon="8.060432079010969"><ele>392.0</ele><time>2026-05-01T11:35:51Z</time></trkpt><trkpt lat="45.57177254389894" lon="8.06022775629676"><ele>391.0</ele><time>2026-05-01T11:35:52Z</time></trkpt><trkpt lat="45.57182085790172" lon="8.059977263530847"><ele>391.0</ele><time>2026-05-01T11:35:53Z</time></trkpt><trkpt lat="45.57187286788213" lon="8.059703656340076"><ele>391.0</ele><time>2026-05-01T11:35:54Z</time></trkpt><trkpt lat="45.57191990652283" lon="8.059474789702241"><ele>391.0</ele><time>2026-05-01T11:35:55Z</time></trkpt><trkpt lat="45.57196632380186" lon="8.059270389976286"><ele>391.5</ele><time>2026-05-01T11:35:56Z</time></trkpt><trkpt lat="45.57200829700091" lon="8.05908049195158"><ele>392.0</ele><time>2026-05-01T11:35:57Z</time></trkpt><trkpt lat="45.57204417522459" lon="8.058901620302244"><ele>392.5</ele><time>2026-05-01T11:35:58Z</time></trkpt><trkpt lat="45.57207795027916" lon="8.05873984044238"><ele>393.0</ele><time>2026-05-01T11:35:59Z</time></trkpt><trkpt lat="45.57211022189853" lon="8.058574378389043"><ele>395.75</ele><time>2026-05-01T11:36:00Z</time></trkpt><trkpt lat="45.57214367885321" lon="8.05840785026855"><ele>398.5</ele><time>2026-05-01T11:36:01Z</time></trkpt><trkpt lat="45.57217629544138" lon="8.05824464802688"><ele>401.25</ele><time>2026-05-01T11:36:02Z</time></trkpt><trkpt lat="45.572209692130734" lon="8.058087527966906"><ele>404.0</ele><time>2026-05-01T11:36:03Z</time></trkpt><trkpt lat="45.572255260208465" lon="8.057943114719889"><ele>404.0</ele><time>2026-05-01T11:36:04Z</time></trkpt><trkpt lat="45.572315700617686" lon="8.057803717683518"><ele>404.0</ele><time>2026-05-01T11:36:05Z</time></trkpt><trkpt lat="45.57240310461104" lon="8.057646926349113"><ele>404.0</ele><time>2026-05-01T11:36:06Z</time></trkpt><trkpt lat="45.57252390522484" lon="8.05747212105448"><ele>404.0</ele><time>2026-05-01T11:36:07Z</time></trkpt><trkpt lat="45.572655735732326" lon="8.057268466275952"><ele>401.66666666666663</ele><time>2026-05-01T11:36:08Z</time></trkpt><trkpt lat="45.57277778231906" lon="8.057073835877189"><ele>399.33333333333337</ele><time>2026-05-01T11:36:09Z</time></trkpt><trkpt lat="45.572884051100175" lon="8.056903254158831"><ele>397.0</ele><time>2026-05-01T11:36:10Z</time></trkpt><trkpt lat="45.57298343117996" lon="8.056745258860225"><ele>398.0</ele><time>2026-05-01T11:36:11Z</time></trkpt><trkpt lat="45.573067197477855" lon="8.05660776330889"><ele>399.0</ele><time>2026-05-01T11:36:12Z</time></trkpt><trkpt lat="45.57314375210522" lon="8.056484115781773"><ele>400.0</ele><time>2026-05-01T11:36:13Z</time></trkpt><trkpt lat="45.57322213532119" lon="8.056361757899232"><ele>401.0</ele><time>2026-05-01T11:36:14Z</time></trkpt><trkpt lat="45.57330533358182" lon="8.056231913669313"><ele>401.0</ele><time>2026-05-01T11:36:15Z</time></trkpt><trkpt lat="45.57339546441596" lon="8.056085148055312"><ele>401.0</ele><time>2026-05-01T11:36:16Z</time></trkpt><trkpt lat="45.573487844964966" lon="8.05592965838246"><ele>401.0</ele><time>2026-05-01T11:36:17Z</time></trkpt><trkpt lat="45.57358819107268" lon="8.055757447779266"><ele>401.0</ele><time>2026-05-01T11:36:18Z</time></trkpt><trkpt lat="45.573700531473094" lon="8.055545046530622"><ele>402.3333333333333</ele><time>2026-05-01T11:36:19Z</time></trkpt><trkpt lat="45.57382824024096" lon="8.055313691650033"><ele>403.66666666666663</ele><time>2026-05-01T11:36:20Z</time></trkpt><trkpt lat="45.57396016644648" lon="8.055095631825269"><ele>405.0</ele><time>2026-05-01T11:36:21Z</time></trkpt><trkpt lat="45.57410915380135" lon="8.054907607891046"><ele>405.0</ele><time>2026-05-01T11:36:22Z</time></trkpt><trkpt lat="45.574224799029516" lon="8.05468158480185"><ele>405.0</ele><time>2026-05-01T11:36:23Z</time></trkpt><trkpt lat="45.57433253236954" lon="8.05449002024788"><ele>405.0</ele><time>2026-05-01T11:36:24Z</time></trkpt><trkpt lat="45.57444148050955" lon="8.054296042881687"><ele>407.0</ele><time>2026-05-01T11:36:25Z</time></trkpt><trkpt lat="45.574547348211645" lon="8.054120144099613"><ele>409.0</ele><time>2026-05-01T11:36:26Z</time></trkpt><trkpt lat="45.57463367612397" lon="8.053980099064452"><ele>411.0</ele><time>2026-05-01T11:36:27Z</time></trkpt><trkpt lat="45.57470667424223" lon="8.05386951077197"><ele>413.0</ele><time>2026-05-01T11:36:28Z</time></trkpt><trkpt lat="45.57476584355265" lon="8.05378168185092"><ele>413.0</ele><time>2026-05-01T11:36:29Z</time></trkpt><trkpt lat="45.57483289762406" lon="8.053685659716788"><ele>413.0</ele><time>2026-05-01T11:36:30Z</time></trkpt><trkpt lat="45.574933161597514" lon="8.05358509153647"><ele>413.0</ele><time>2026-05-01T11:36:31Z</time></trkpt><trkpt lat="45.57506900576879" lon="8.053489267239426"><ele>413.0</ele><time>2026-05-01T11:36:32Z</time></trkpt><trkpt lat="45.57521806452402" lon="8.053404338885226"><ele>412.3333333333333</ele><time>2026-05-01T11:36:33Z</time></trkpt><trkpt lat="45.5753937284464" lon="8.05332381670268"><ele>411.66666666666663</ele><time>2026-05-01T11:36:34Z</time></trkpt><trkpt lat="45.57558832976435" lon="8.053235154478056"><ele>411.0</ele><time>2026-05-01T11:36:35Z</time></trkpt><trkpt lat="45.575818944082016" lon="8.05313511202181"><ele>411.0</ele><time>2026-05-01T11:36:36Z</time></trkpt><trkpt lat="45.57603065023678" lon="8.053042432306157"><ele>411.0</ele><time>2026-05-01T11:36:37Z</time></trkpt><trkpt lat="45.57621940175684" lon="8.05295236974008"><ele>411.0</ele><time>2026-05-01T11:36:38Z</time></trkpt><trkpt lat="45.57640547522623" lon="8.052868783322106"><ele>413.0</ele><time>2026-05-01T11:36:39Z</time></trkpt><trkpt lat="45.57657661497088" lon="8.05279537813888"><ele>415.0</ele><time>2026-05-01T11:36:40Z</time></trkpt><trkpt lat="45.57673151175598" lon="8.052725193867499"><ele>417.0</ele><time>2026-05-01T11:36:41Z</time></trkpt><trkpt lat="45.57686332062504" lon="8.052677587503235"><ele>417.0</ele><time>2026-05-01T11:36:42Z</time></trkpt><trkpt lat="45.57700216431344" lon="8.05263155437898"><ele>417.0</ele><time>2026-05-01T11:36:43Z</time></trkpt><trkpt lat="45.57714581458889" lon="8.052618091983414"><ele>417.0</ele><time>2026-05-01T11:36:44Z</time></trkpt><trkpt lat="45.57730836362924" lon="8.052649857949975"><ele>417.66666666666663</ele><time>2026-05-01T11:36:45Z</time></trkpt><trkpt lat="45.577480066346645" lon="8.052707853016761"><ele>418.3333333333333</ele><time>2026-05-01T11:36:46Z</time></trkpt><trkpt lat="45.577640509057446" lon="8.052801996948816"><ele>419.0</ele><time>2026-05-01T11:36:47Z</time></trkpt><trkpt lat="45.57778895005013" lon="8.052917788554902"><ele>418.66666666666663</ele><time>2026-05-01T11:36:48Z</time></trkpt><trkpt lat="45.57793599575727" lon="8.053046358253095"><ele>418.33333333333337</ele><time>2026-05-01T11:36:49Z</time></trkpt><trkpt lat="45.578064698164184" lon="8.053190793733014"><ele>418.0</ele><time>2026-05-01T11:36:50Z</time></trkpt><trkpt lat="45.57817154474682" lon="8.053337211790195"><ele>420.6666666666667</ele><time>2026-05-01T11:36:51Z</time></trkpt><trkpt lat="45.57827179975994" lon="8.053501630127181"><ele>423.33333333333337</ele><time>2026-05-01T11:36:52Z</time></trkpt><trkpt lat="45.57836609861037" lon="8.053711038105469"><ele>426.0</ele><time>2026-05-01T11:36:53Z</time></trkpt><trkpt lat="45.57847366489966" lon="8.053949814985979"><ele>425.0</ele><time>2026-05-01T11:36:54Z</time></trkpt><trkpt lat="45.57859317642229" lon="8.054213941937167"><ele>424.0</ele><time>2026-05-01T11:36:55Z</time></trkpt><trkpt lat="45.57870872795743" lon="8.054468351385783"><ele>423.0</ele><time>2026-05-01T11:36:56Z</time></trkpt><trkpt lat="45.57881180653365" lon="8.05470201938865"><ele>423.0</ele><time>2026-05-01T11:36:57Z</time></trkpt><trkpt lat="45.578904506752224" lon="8.054917157736527"><ele>423.0</ele><time>2026-05-01T11:36:58Z</time></trkpt><trkpt lat="45.57898913657411" lon="8.055125122761062"><ele>423.0</ele><time>2026-05-01T11:36:59Z</time></trkpt><trkpt lat="45.57906269806909" lon="8.05533306518332"><ele>425.66666666666663</ele><time>2026-05-01T11:37:00Z</time></trkpt><trkpt lat="45.579127774878344" lon="8.055556896218835"><ele>428.3333333333333</ele><time>2026-05-01T11:37:01Z</time></trkpt><trkpt lat="45.579196179391865" lon="8.055782510683086"><ele>431.0</ele><time>2026-05-01T11:37:02Z</time></trkpt><trkpt lat="45.57927268344951" lon="8.05599995371093"><ele>429.0</ele><time>2026-05-01T11:37:03Z</time></trkpt><trkpt lat="45.57936543832269" lon="8.056209872187866"><ele>427.0</ele><time>2026-05-01T11:37:04Z</time></trkpt><trkpt lat="45.57947148603009" lon="8.056405704373583"><ele>425.0</ele><time>2026-05-01T11:37:05Z</time></trkpt><trkpt lat="45.57959191850489" lon="8.056591231627792"><ele>427.66666666666663</ele><time>2026-05-01T11:37:06Z</time></trkpt><trkpt lat="45.57973208088095" lon="8.056756780012439"><ele>430.33333333333337</ele><time>2026-05-01T11:37:07Z</time></trkpt><trkpt lat="45.57988498871206" lon="8.05691559245128"><ele>433.0</ele><time>2026-05-01T11:37:08Z</time></trkpt><trkpt lat="45.58005189683116" lon="8.057074022722349"><ele>433.0</ele><time>2026-05-01T11:37:09Z</time></trkpt><trkpt lat="45.58024753826457" lon="8.057230215449449"><ele>433.0</ele><time>2026-05-01T11:37:10Z</time></trkpt><trkpt lat="45.580459680750174" lon="8.057380660377579"><ele>438.5</ele><time>2026-05-01T11:37:11Z</time></trkpt><trkpt lat="45.580677994014295" lon="8.057553079229939"><ele>444.0</ele><time>2026-05-01T11:37:12Z</time></trkpt><trkpt lat="45.58089789824807" lon="8.05771871882876"><ele>444.0</ele><time>2026-05-01T11:37:13Z</time></trkpt><trkpt lat="45.58109913383205" lon="8.057868174951293"><ele>444.0</ele><time>2026-05-01T11:37:14Z</time></trkpt><trkpt lat="45.581280658133146" lon="8.058011792605242"><ele>444.0</ele><time>2026-05-01T11:37:15Z</time></trkpt><trkpt lat="45.58144940780007" lon="8.058134440619996"><ele>441.66666666666663</ele><time>2026-05-01T11:37:16Z</time></trkpt><trkpt lat="45.58161734288848" lon="8.05824713825464"><ele>439.3333333333333</ele><time>2026-05-01T11:37:17Z</time></trkpt><trkpt lat="45.58178824539805" lon="8.058350671637509"><ele>437.0</ele><time>2026-05-01T11:37:18Z</time></trkpt><trkpt lat="45.581969569760126" lon="8.058434265403156"><ele>443.3333333333333</ele><time>2026-05-01T11:37:19Z</time></trkpt><trkpt lat="45.582140618894186" lon="8.058500172860029"><ele>449.66666666666663</ele><time>2026-05-01T11:37:20Z</time></trkpt><trkpt lat="45.582302939742775" lon="8.058549541092107"><ele>456.0</ele><time>2026-05-01T11:37:21Z</time></trkpt><trkpt lat="45.58242636588208" lon="8.058587211582378"><ele>456.0</ele><time>2026-05-01T11:37:22Z</time></trkpt><trkpt lat="45.582524863357385" lon="8.058624742370405"><ele>456.0</ele><time>2026-05-01T11:37:23Z</time></trkpt><trkpt lat="45.58260330573489" lon="8.058644801662709"><ele>456.0</ele><time>2026-05-01T11:37:24.001Z</time></trkpt><trkpt lat="45.58267157437774" lon="8.058663932661876"><ele>456.0</ele><time>2026-05-01T11:37:25.001Z</time></trkpt><trkpt lat="45.582732430729294" lon="8.058708444672376"><ele>456.0</ele><time>2026-05-01T11:37:26.001Z</time></trkpt><trkpt lat="45.582803091237516" lon="8.05878960602649"><ele>456.0</ele><time>2026-05-01T11:37:28.001Z</time></trkpt><trkpt lat="45.58278035500802" lon="8.058991286974248"><ele>459.0</ele><time>2026-05-01T11:37:29.001Z</time></trkpt><trkpt lat="45.58280942280327" lon="8.059152922039203"><ele>462.0</ele><time>2026-05-01T11:37:30.001Z</time></trkpt><trkpt lat="45.58282455827472" lon="8.059324482629755"><ele>465.0</ele><time>2026-05-01T11:37:31.001Z</time></trkpt><trkpt lat="45.582835817664886" lon="8.059488243793542"><ele>468.0</ele><time>2026-05-01T11:37:32.001Z</time></trkpt><trkpt lat="45.582846362403146" lon="8.05963627159621"><ele>467.59999999999997</ele><time>2026-05-01T11:37:33.001Z</time></trkpt><trkpt lat="45.58286874546257" lon="8.059765054748368"><ele>467.19999999999993</ele><time>2026-05-01T11:37:34Z</time></trkpt><trkpt lat="45.58290648719441" lon="8.059878310547772"><ele>466.8</ele><time>2026-05-01T11:37:35Z</time></trkpt><trkpt lat="45.58294852027296" lon="8.059992399481441"><ele>466.4</ele><time>2026-05-01T11:37:36Z</time></trkpt><trkpt lat="45.58307018814074" lon="8.060035951697968"><ele>466.0</ele><time>2026-05-01T11:37:37Z</time></trkpt><trkpt lat="45.5831856693837" lon="8.060062740320987"><ele>468.33333333333337</ele><time>2026-05-01T11:37:38Z</time></trkpt><trkpt lat="45.58332792813779" lon="8.060069973228126"><ele>470.66666666666663</ele><time>2026-05-01T11:37:39Z</time></trkpt><trkpt lat="45.583499405208045" lon="8.060098959947062"><ele>473.0</ele><time>2026-05-01T11:37:40Z</time></trkpt><trkpt lat="45.58368841772034" lon="8.060134169882428"><ele>473.66666666666663</ele><time>2026-05-01T11:37:41Z</time></trkpt><trkpt lat="45.58387885586257" lon="8.06019540227317"><ele>474.33333333333337</ele><time>2026-05-01T11:37:42Z</time></trkpt><trkpt lat="45.5840523539237" lon="8.060245538747765"><ele>475.0</ele><time>2026-05-01T11:37:43Z</time></trkpt><trkpt lat="45.58420899292506" lon="8.060342809643299"><ele>475.0</ele><time>2026-05-01T11:37:44Z</time></trkpt><trkpt lat="45.58436680758204" lon="8.060429622579509"><ele>475.0</ele><time>2026-05-01T11:37:45Z</time></trkpt><trkpt lat="45.58452265356491" lon="8.060535408198573"><ele>475.0</ele><time>2026-05-01T11:37:46Z</time></trkpt><trkpt lat="45.58468764853172" lon="8.060626037888596"><ele>475.0</ele><time>2026-05-01T11:37:47Z</time></trkpt><trkpt lat="45.584831230754574" lon="8.060720894074137"><ele>475.0</ele><time>2026-05-01T11:37:48Z</time></trkpt><trkpt lat="45.58494698224631" lon="8.06078686795071"><ele>475.0</ele><time>2026-05-01T11:37:49Z</time></trkpt><trkpt lat="45.58504887088789" lon="8.060840907066726"><ele>475.0</ele><time>2026-05-01T11:37:50Z</time></trkpt><trkpt lat="45.585121823817815" lon="8.060865139874686"><ele>476.6666666666667</ele><time>2026-05-01T11:37:51Z</time></trkpt><trkpt lat="45.58518689884578" lon="8.060877189733489"><ele>478.33333333333337</ele><time>2026-05-01T11:37:52Z</time></trkpt><trkpt lat="45.58526899102818" lon="8.060896533974926"><ele>480.0</ele><time>2026-05-01T11:37:54Z</time></trkpt><trkpt lat="45.58536383966811" lon="8.0609105054575"><ele>481.66666666666663</ele><time>2026-05-01T11:38:44Z</time></trkpt><trkpt lat="45.585421013611395" lon="8.060948398591323"><ele>483.3333333333333</ele><time>2026-05-01T11:38:45Z</time></trkpt><trkpt lat="45.58550739259632" lon="8.060970217420431"><ele>485.0</ele><time>2026-05-01T11:38:46Z</time></trkpt><trkpt lat="45.58561226125722" lon="8.060995003718386"><ele>485.0</ele><time>2026-05-01T11:38:47Z</time></trkpt><trkpt lat="45.585731193921376" lon="8.060968135464531"><ele>485.0</ele><time>2026-05-01T11:38:48Z</time></trkpt><trkpt lat="45.585839506743426" lon="8.061001349776445"><ele>485.0</ele><time>2026-05-01T11:38:49Z</time></trkpt><trkpt lat="45.585932213746815" lon="8.061039129845268"><ele>485.0</ele><time>2026-05-01T11:38:50Z</time></trkpt><trkpt lat="45.58600349460818" lon="8.06110176047425"><ele>485.0</ele><time>2026-05-01T11:38:51Z</time></trkpt><trkpt lat="45.58603327590109" lon="8.061213501316782"><ele>485.0</ele><time>2026-05-01T11:38:52Z</time></trkpt><trkpt lat="45.5860694346532" lon="8.061302634468746"><ele>485.0</ele><time>2026-05-01T11:38:53Z</time></trkpt><trkpt lat="45.58606988830339" lon="8.061399204367724"><ele>485.0</ele><time>2026-05-01T11:38:54Z</time></trkpt><trkpt lat="45.58605837944946" lon="8.061506438609088"><ele>485.0</ele><time>2026-05-01T11:38:55Z</time></trkpt><trkpt lat="45.58603945404411" lon="8.061657032021252"><ele>485.0</ele><time>2026-05-01T11:38:56Z</time></trkpt><trkpt lat="45.58601754827153" lon="8.061849302598153"><ele>488.0</ele><time>2026-05-01T11:38:57Z</time></trkpt><trkpt lat="45.58596391014933" lon="8.062094929523923"><ele>491.0</ele><time>2026-05-01T11:38:58Z</time></trkpt><trkpt lat="45.58590587573316" lon="8.062369425588487"><ele>494.0</ele><time>2026-05-01T11:38:59Z</time></trkpt><trkpt lat="45.58581652461383" lon="8.062677888840613"><ele>494.0</ele><time>2026-05-01T11:39:00Z</time></trkpt><trkpt lat="45.58573863620859" lon="8.063018146836752"><ele>494.0</ele><time>2026-05-01T11:39:01Z</time></trkpt><trkpt lat="45.585673752409114" lon="8.06337931821575"><ele>494.0</ele><time>2026-05-01T11:39:02Z</time></trkpt><trkpt lat="45.58559190797009" lon="8.063737726229132"><ele>494.0</ele><time>2026-05-01T11:39:03Z</time></trkpt><trkpt lat="45.58551069244369" lon="8.06409192838512"><ele>496.5</ele><time>2026-05-01T11:39:04Z</time></trkpt><trkpt lat="45.585428554810804" lon="8.064451368709047"><ele>499.0</ele><time>2026-05-01T11:39:05Z</time></trkpt><trkpt lat="45.58535447153242" lon="8.064785574316868"><ele>496.5</ele><time>2026-05-01T11:39:06Z</time></trkpt><trkpt lat="45.585282115470996" lon="8.065101588845394"><ele>494.0</ele><time>2026-05-01T11:39:07Z</time></trkpt><trkpt lat="45.58521110429845" lon="8.065418472021554"><ele>494.0</ele><time>2026-05-01T11:39:08Z</time></trkpt><trkpt lat="45.58514268854129" lon="8.065726880101563"><ele>494.0</ele><time>2026-05-01T11:39:09Z</time></trkpt><trkpt lat="45.58507664932887" lon="8.066030044208546"><ele>494.0</ele><time>2026-05-01T11:39:10Z</time></trkpt><trkpt lat="45.584992838830644" lon="8.066327983214"><ele>497.5</ele><time>2026-05-01T11:39:11Z</time></trkpt><trkpt lat="45.584917475522495" lon="8.066655550668662"><ele>501.0</ele><time>2026-05-01T11:39:12Z</time></trkpt><trkpt lat="45.584844863038626" lon="8.06697597014675"><ele>501.0</ele><time>2026-05-01T11:39:13Z</time></trkpt><trkpt lat="45.58477741599773" lon="8.06727424610833"><ele>501.0</ele><time>2026-05-01T11:39:14Z</time></trkpt><trkpt lat="45.58472332984273" lon="8.067524218104971"><ele>501.0</ele><time>2026-05-01T11:39:15Z</time></trkpt><trkpt lat="45.58469729951713" lon="8.067716519739614"><ele>502.25</ele><time>2026-05-01T11:39:16Z</time></trkpt><trkpt lat="45.58466057033683" lon="8.067855248051192"><ele>503.5</ele><time>2026-05-01T11:39:17Z</time></trkpt><trkpt lat="45.58465110717071" lon="8.06801092958217"><ele>504.75</ele><time>2026-05-01T11:39:18Z</time></trkpt><trkpt lat="45.58466580203386" lon="8.068183924806677"><ele>506.0</ele><time>2026-05-01T11:39:19Z</time></trkpt><trkpt lat="45.58470850578451" lon="8.068375067373765"><ele>507.0</ele><time>2026-05-01T11:39:20Z</time></trkpt><trkpt lat="45.58478426974994" lon="8.068570333703978"><ele>508.0</ele><time>2026-05-01T11:39:21Z</time></trkpt><trkpt lat="45.58486913619871" lon="8.068740033105644"><ele>509.0</ele><time>2026-05-01T11:39:22Z</time></trkpt><trkpt lat="45.584953047939244" lon="8.068890644286826"><ele>510.0</ele><time>2026-05-01T11:39:23Z</time></trkpt><trkpt lat="45.58505715062138" lon="8.069044298435202"><ele>509.66666666666663</ele><time>2026-05-01T11:39:24Z</time></trkpt><trkpt lat="45.58516158514701" lon="8.069228534052366"><ele>509.3333333333333</ele><time>2026-05-01T11:39:25Z</time></trkpt><trkpt lat="45.58529535697868" lon="8.06942961939752"><ele>509.0</ele><time>2026-05-01T11:39:26Z</time></trkpt><trkpt lat="45.58545144011852" lon="8.069663125219641"><ele>508.5</ele><time>2026-05-01T11:39:27Z</time></trkpt><trkpt lat="45.58562385306151" lon="8.069921108060536"><ele>508.0</ele><time>2026-05-01T11:39:28Z</time></trkpt><trkpt lat="45.58579928207078" lon="8.070183160966785"><ele>507.5</ele><time>2026-05-01T11:39:29Z</time></trkpt><trkpt lat="45.58598493253026" lon="8.070460882180738"><ele>507.0</ele><time>2026-05-01T11:39:30.001Z</time></trkpt><trkpt lat="45.58616997310615" lon="8.07070802667856"><ele>507.0</ele><time>2026-05-01T11:39:31.001Z</time></trkpt><trkpt lat="45.58632608251525" lon="8.0709703277133"><ele>507.0</ele><time>2026-05-01T11:39:32.001Z</time></trkpt><trkpt lat="45.586506083906364" lon="8.07121329857198"><ele>507.0</ele><time>2026-05-01T11:39:33.001Z</time></trkpt><trkpt lat="45.58665431279826" lon="8.07147874167364"><ele>507.0</ele><time>2026-05-01T11:39:34.001Z</time></trkpt><trkpt lat="45.58681180694141" lon="8.071717031922848"><ele>506.0</ele><time>2026-05-01T11:39:35.001Z</time></trkpt><trkpt lat="45.58697092676346" lon="8.071951371299438"><ele>505.0</ele><time>2026-05-01T11:39:36.001Z</time></trkpt><trkpt lat="45.5871363104753" lon="8.072163597903366"><ele>505.0</ele><time>2026-05-01T11:39:37.001Z</time></trkpt><trkpt lat="45.587288489482816" lon="8.072396900305113"><ele>505.0</ele><time>2026-05-01T11:39:38.001Z</time></trkpt><trkpt lat="45.58744897846281" lon="8.072632564001882"><ele>503.0</ele><time>2026-05-01T11:39:39.001Z</time></trkpt><trkpt lat="45.58760078953204" lon="8.072895996423988"><ele>501.0</ele><time>2026-05-01T11:39:40.001Z</time></trkpt><trkpt lat="45.58778201006063" lon="8.073136533360874"><ele>500.66666666666663</ele><time>2026-05-01T11:39:41.001Z</time></trkpt><trkpt lat="45.58794145317202" lon="8.07338137706107"><ele>500.3333333333333</ele><time>2026-05-01T11:39:42.001Z</time></trkpt><trkpt lat="45.58807524394579" lon="8.073612937906343"><ele>500.0</ele><time>2026-05-01T11:39:43.001Z</time></trkpt><trkpt lat="45.58822264693702" lon="8.07380182025596"><ele>500.0</ele><time>2026-05-01T11:39:44.001Z</time></trkpt><trkpt lat="45.58834638561326" lon="8.073983108630639"><ele>500.0</ele><time>2026-05-01T11:39:45.001Z</time></trkpt><trkpt lat="45.588448439427644" lon="8.074138545895432"><ele>500.0</ele><time>2026-05-01T11:39:46.001Z</time></trkpt><trkpt lat="45.588536419706706" lon="8.074279075119554"><ele>499.6</ele><time>2026-05-01T11:39:47.001Z</time></trkpt><trkpt lat="45.58860499184983" lon="8.074404191970846"><ele>499.2</ele><time>2026-05-01T11:39:48.001Z</time></trkpt><trkpt lat="45.58865259041821" lon="8.074529966390317"><ele>498.79999999999995</ele><time>2026-05-01T11:39:49.001Z</time></trkpt><trkpt lat="45.58868228764075" lon="8.074663413492726"><ele>498.4</ele><time>2026-05-01T11:39:50.001Z</time></trkpt><trkpt lat="45.58867817870265" lon="8.07477831819866"><ele>498.0</ele><time>2026-05-01T11:39:51.001Z</time></trkpt><trkpt lat="45.58864657626771" lon="8.074895510521264"><ele>498.0</ele><time>2026-05-01T11:39:52.001Z</time></trkpt><trkpt lat="45.588588482247715" lon="8.075005024319012"><ele>497.99999999999994</ele><time>2026-05-01T11:39:53.001Z</time></trkpt><trkpt lat="45.58850827094408" lon="8.075109105410933"><ele>497.99999999999994</ele><time>2026-05-01T11:39:54Z</time></trkpt><trkpt lat="45.58842458323438" lon="8.075224338185343"><ele>498.0</ele><time>2026-05-01T11:39:55Z</time></trkpt><trkpt lat="45.58835069584554" lon="8.075346832072565"><ele>498.0</ele><time>2026-05-01T11:39:56Z</time></trkpt><trkpt lat="45.58829178541038" lon="8.075491696915938"><ele>498.0</ele><time>2026-05-01T11:39:57Z</time></trkpt><trkpt lat="45.58824493259118" lon="8.075660482104215"><ele>498.0</ele><time>2026-05-01T11:39:58Z</time></trkpt><trkpt lat="45.58821188141502" lon="8.075840940909409"><ele>498.0</ele><time>2026-05-01T11:39:59Z</time></trkpt><trkpt lat="45.58819438442462" lon="8.0760205400679"><ele>498.0</ele><time>2026-05-01T11:40:00Z</time></trkpt><trkpt lat="45.58820360445054" lon="8.076192177484907"><ele>498.0</ele><time>2026-05-01T11:40:01Z</time></trkpt><trkpt lat="45.588228547467956" lon="8.076367996479942"><ele>498.0</ele><time>2026-05-01T11:40:02Z</time></trkpt><trkpt lat="45.588263996812586" lon="8.076539409491811"><ele>498.0</ele><time>2026-05-01T11:40:03Z</time></trkpt><trkpt lat="45.588322026361546" lon="8.076707665366067"><ele>498.0</ele><time>2026-05-01T11:40:04Z</time></trkpt><trkpt lat="45.588399681507006" lon="8.076873100616712"><ele>498.66666666666663</ele><time>2026-05-01T11:40:05Z</time></trkpt><trkpt lat="45.588500498301684" lon="8.077051727087825"><ele>499.3333333333333</ele><time>2026-05-01T11:40:06Z</time></trkpt><trkpt lat="45.58862717338418" lon="8.077269738170742"><ele>500.0</ele><time>2026-05-01T11:40:07Z</time></trkpt><trkpt lat="45.58876799628868" lon="8.077526709122141"><ele>495.0</ele><time>2026-05-01T11:40:08Z</time></trkpt><trkpt lat="45.58892082030163" lon="8.077810729951027"><ele>490.0</ele><time>2026-05-01T11:40:09Z</time></trkpt><trkpt lat="45.589083685462136" lon="8.078106270315557"><ele>491.0</ele><time>2026-05-01T11:40:10Z</time></trkpt><trkpt lat="45.58925666521669" lon="8.078428191868422"><ele>492.0</ele><time>2026-05-01T11:40:11Z</time></trkpt><trkpt lat="45.58943255209592" lon="8.078758329278003"><ele>492.0</ele><time>2026-05-01T11:40:12Z</time></trkpt><trkpt lat="45.58960027760698" lon="8.079075388253662"><ele>492.0</ele><time>2026-05-01T11:40:13Z</time></trkpt><trkpt lat="45.58974985933504" lon="8.079366560938773"><ele>493.33333333333337</ele><time>2026-05-01T11:40:14Z</time></trkpt><trkpt lat="45.58988171105866" lon="8.079628166183793"><ele>494.6666666666667</ele><time>2026-05-01T11:40:15Z</time></trkpt><trkpt lat="45.59000526145925" lon="8.079867945292191"><ele>496.0</ele><time>2026-05-01T11:40:16Z</time></trkpt><trkpt lat="45.59011774939125" lon="8.08008713732718"><ele>497.0</ele><time>2026-05-01T11:40:17Z</time></trkpt><trkpt lat="45.590211878548224" lon="8.08027214742369"><ele>498.0</ele><time>2026-05-01T11:40:18Z</time></trkpt><trkpt lat="45.590303226272546" lon="8.080440491713112"><ele>499.0</ele><time>2026-05-01T11:40:19Z</time></trkpt><trkpt lat="45.590415806338406" lon="8.080606212363802"><ele>501.33333333333337</ele><time>2026-05-01T11:40:20Z</time></trkpt><trkpt lat="45.59054994732544" lon="8.080764702332974"><ele>503.66666666666663</ele><time>2026-05-01T11:40:21Z</time></trkpt><trkpt lat="45.59071629956539" lon="8.080910766271316"><ele>506.0</ele><time>2026-05-01T11:40:22Z</time></trkpt><trkpt lat="45.59090071109571" lon="8.081045240295959"><ele>507.0</ele><time>2026-05-01T11:40:23Z</time></trkpt><trkpt lat="45.59108347333058" lon="8.081178913073405"><ele>508.0</ele><time>2026-05-01T11:40:24Z</time></trkpt><trkpt lat="45.59124893296601" lon="8.081300767790955"><ele>509.0</ele><time>2026-05-01T11:40:25Z</time></trkpt><trkpt lat="45.59138790067736" lon="8.081414830473259"><ele>510.3333333333333</ele><time>2026-05-01T11:40:26Z</time></trkpt><trkpt lat="45.591529276009275" lon="8.08152432054457"><ele>511.66666666666663</ele><time>2026-05-01T11:40:27Z</time></trkpt><trkpt lat="45.59168300293858" lon="8.081612620963462"><ele>513.0</ele><time>2026-05-01T11:40:28Z</time></trkpt><trkpt lat="45.59185490812252" lon="8.08167352477246"><ele>516.3333333333334</ele><time>2026-05-01T11:40:29Z</time></trkpt><trkpt lat="45.592042335766045" lon="8.081705431350537"><ele>519.6666666666667</ele><time>2026-05-01T11:40:30Z</time></trkpt><trkpt lat="45.59222441561699" lon="8.081736254661298"><ele>523.0</ele><time>2026-05-01T11:40:31Z</time></trkpt><trkpt lat="45.592389323957704" lon="8.081775396626258"><ele>523.0</ele><time>2026-05-01T11:40:32Z</time></trkpt><trkpt lat="45.59254563375531" lon="8.081853887745538"><ele>523.0</ele><time>2026-05-01T11:40:33Z</time></trkpt><trkpt lat="45.59267686520325" lon="8.081937431666256"><ele>523.0</ele><time>2026-05-01T11:40:34Z</time></trkpt><trkpt lat="45.59278523057815" lon="8.081999897770922"><ele>523.0</ele><time>2026-05-01T11:40:35Z</time></trkpt><trkpt lat="45.592882927436285" lon="8.082038834608058"><ele>526.5</ele><time>2026-05-01T11:40:36Z</time></trkpt><trkpt lat="45.59298588242551" lon="8.082040013526612"><ele>530.0</ele><time>2026-05-01T11:40:37Z</time></trkpt><trkpt lat="45.59309050576797" lon="8.081986820227886"><ele>533.5</ele><time>2026-05-01T11:40:38Z</time></trkpt><trkpt lat="45.59319115646399" lon="8.081889902007825"><ele>537.0</ele><time>2026-05-01T11:40:39Z</time></trkpt><trkpt lat="45.59329023733302" lon="8.08177370180634"><ele>537.0</ele><time>2026-05-01T11:40:40Z</time></trkpt><trkpt lat="45.593405607598314" lon="8.081633990374655"><ele>537.0</ele><time>2026-05-01T11:40:41Z</time></trkpt><trkpt lat="45.59351267523145" lon="8.08152052651633"><ele>537.0</ele><time>2026-05-01T11:40:42Z</time></trkpt><trkpt lat="45.59360194335285" lon="8.081429151364516"><ele>537.0</ele><time>2026-05-01T11:40:43Z</time></trkpt><trkpt lat="45.59367084341831" lon="8.081345616159979"><ele>537.5</ele><time>2026-05-01T11:40:44Z</time></trkpt><trkpt lat="45.593723736565735" lon="8.081250545797296"><ele>538.0</ele><time>2026-05-01T11:40:45Z</time></trkpt><trkpt lat="45.593741635657175" lon="8.081129562483778"><ele>538.5</ele><time>2026-05-01T11:40:46Z</time></trkpt><trkpt lat="45.593723675308404" lon="8.081007955131916"><ele>539.0</ele><time>2026-05-01T11:40:47Z</time></trkpt><trkpt lat="45.5936761662901" lon="8.080900669817815"><ele>539.5</ele><time>2026-05-01T11:40:48Z</time></trkpt><trkpt lat="45.59359833428226" lon="8.080822312996753"><ele>540.0</ele><time>2026-05-01T11:40:49Z</time></trkpt><trkpt lat="45.59349573720459" lon="8.08075533722527"><ele>540.6</ele><time>2026-05-01T11:40:50Z</time></trkpt><trkpt lat="45.59338316646423" lon="8.080698921053818"><ele>541.2</ele><time>2026-05-01T11:40:51Z</time></trkpt><trkpt lat="45.59328096751468" lon="8.080647946540475"><ele>541.8</ele><time>2026-05-01T11:40:52Z</time></trkpt><trkpt lat="45.59318848577269" lon="8.080587996949792"><ele>542.4</ele><time>2026-05-01T11:40:53Z</time></trkpt><trkpt lat="45.593114291235416" lon="8.080476830822269"><ele>543.0</ele><time>2026-05-01T11:40:54Z</time></trkpt><trkpt lat="45.59303834327538" lon="8.080382035939321"><ele>543.0</ele><time>2026-05-01T11:40:55Z</time></trkpt><trkpt lat="45.59298694226927" lon="8.0802744481514"><ele>543.0</ele><time>2026-05-01T11:40:56Z</time></trkpt><trkpt lat="45.59296303139935" lon="8.080146291190637"><ele>543.0</ele><time>2026-05-01T11:40:57Z</time></trkpt><trkpt lat="45.592966360703386" lon="8.080014426866878"><ele>543.0</ele><time>2026-05-01T11:40:58Z</time></trkpt><trkpt lat="45.593005767708796" lon="8.07987733993494"><ele>543.0</ele><time>2026-05-01T11:40:59Z</time></trkpt><trkpt lat="45.59306715367166" lon="8.079757045567648"><ele>542.0</ele><time>2026-05-01T11:41:00Z</time></trkpt><trkpt lat="45.59314898482364" lon="8.079663048046214"><ele>541.0</ele><time>2026-05-01T11:41:01Z</time></trkpt><trkpt lat="45.59325063949407" lon="8.079608398363934"><ele>540.0</ele><time>2026-05-01T11:41:02Z</time></trkpt><trkpt lat="45.593364620174086" lon="8.079619622245547"><ele>539.0</ele><time>2026-05-01T11:41:03Z</time></trkpt><trkpt lat="45.593493388674965" lon="8.079597255239154"><ele>539.0</ele><time>2026-05-01T11:41:04Z</time></trkpt><trkpt lat="45.59364536934438" lon="8.079615801148826"><ele>539.0</ele><time>2026-05-01T11:41:05Z</time></trkpt><trkpt lat="45.593811255204464" lon="8.079642204077365"><ele>539.0</ele><time>2026-05-01T11:41:06Z</time></trkpt><trkpt lat="45.593965544154905" lon="8.079680380697186"><ele>541.25</ele><time>2026-05-01T11:41:07Z</time></trkpt><trkpt lat="45.59409274753219" lon="8.079705945619079"><ele>543.5</ele><time>2026-05-01T11:41:08Z</time></trkpt><trkpt lat="45.594196064106065" lon="8.079681306570107"><ele>545.75</ele><time>2026-05-01T11:41:09Z</time></trkpt><trkpt lat="45.59429607915045" lon="8.079611037432771"><ele>548.0</ele><time>2026-05-01T11:41:10Z</time></trkpt><trkpt lat="45.59437897139537" lon="8.079500225422704"><ele>548.0</ele><time>2026-05-01T11:41:11Z</time></trkpt><trkpt lat="45.59445281896075" lon="8.07936981245565"><ele>548.0</ele><time>2026-05-01T11:41:12Z</time></trkpt><trkpt lat="45.59453365255401" lon="8.079228442638293"><ele>548.0</ele><time>2026-05-01T11:41:13Z</time></trkpt><trkpt lat="45.5946254163729" lon="8.079132875557255"><ele>548.0</ele><time>2026-05-01T11:41:14Z</time></trkpt><trkpt lat="45.59472985489375" lon="8.079102633904922"><ele>550.25</ele><time>2026-05-01T11:41:15Z</time></trkpt><trkpt lat="45.59482294113534" lon="8.0791225564033"><ele>552.5</ele><time>2026-05-01T11:41:16Z</time></trkpt><trkpt lat="45.594933511877976" lon="8.079126953457177"><ele>554.75</ele><time>2026-05-01T11:41:17Z</time></trkpt><trkpt lat="45.59506011483053" lon="8.079171795532842"><ele>557.0</ele><time>2026-05-01T11:41:18Z</time></trkpt><trkpt lat="45.59518217843326" lon="8.079211755811247"><ele>557.0</ele><time>2026-05-01T11:41:19Z</time></trkpt><trkpt lat="45.59528473139714" lon="8.079274139253858"><ele>557.0</ele><time>2026-05-01T11:41:20Z</time></trkpt><trkpt lat="45.595354327981966" lon="8.079393920706405"><ele>557.0</ele><time>2026-05-01T11:41:21Z</time></trkpt><trkpt lat="45.59543101229496" lon="8.079520790674751"><ele>557.0</ele><time>2026-05-01T11:41:22Z</time></trkpt><trkpt lat="45.595491631801295" lon="8.079700832116565"><ele>558.25</ele><time>2026-05-01T11:41:23Z</time></trkpt><trkpt lat="45.595553333695776" lon="8.079894314428508"><ele>559.5</ele><time>2026-05-01T11:41:24Z</time></trkpt><trkpt lat="45.595616264981935" lon="8.080067688741396"><ele>560.75</ele><time>2026-05-01T11:41:25Z</time></trkpt><trkpt lat="45.595703977523755" lon="8.0802226102958"><ele>562.0</ele><time>2026-05-01T11:41:26Z</time></trkpt><trkpt lat="45.59582012704162" lon="8.080369571037735"><ele>562.0</ele><time>2026-05-01T11:41:27Z</time></trkpt><trkpt lat="45.59596117909497" lon="8.080524370412885"><ele>562.0</ele><time>2026-05-01T11:41:28Z</time></trkpt><trkpt lat="45.596072453039696" lon="8.080713612423004"><ele>562.0</ele><time>2026-05-01T11:41:29Z</time></trkpt><trkpt lat="45.59619080984677" lon="8.080872618883502"><ele>561.0</ele><time>2026-05-01T11:41:30Z</time></trkpt><trkpt lat="45.596290856356845" lon="8.081015906134656"><ele>560.0</ele><time>2026-05-01T11:41:31Z</time></trkpt><trkpt lat="45.596420235616726" lon="8.081130981551317"><ele>559.0</ele><time>2026-05-01T11:41:32Z</time></trkpt><trkpt lat="45.596539669345475" lon="8.08124622706197"><ele>558.0</ele><time>2026-05-01T11:41:33Z</time></trkpt><trkpt lat="45.59663733131624" lon="8.081349117777515"><ele>558.0</ele><time>2026-05-01T11:41:34Z</time></trkpt><trkpt lat="45.59671626891253" lon="8.081431748537437"><ele>558.0</ele><time>2026-05-01T11:41:35Z</time></trkpt><trkpt lat="45.59679205039407" lon="8.08152305374527"><ele>558.0</ele><time>2026-05-01T11:41:36Z</time></trkpt><trkpt lat="45.59684697288738" lon="8.081639489722898"><ele>558.0</ele><time>2026-05-01T11:41:37.001Z</time></trkpt><trkpt lat="45.59685138748237" lon="8.081775865373142"><ele>558.0</ele><time>2026-05-01T11:41:38Z</time></trkpt><trkpt lat="45.59683426751051" lon="8.081910287085433"><ele>561.0</ele><time>2026-05-01T11:41:39Z</time></trkpt><trkpt lat="45.5968001408667" lon="8.082090914785924"><ele>564.0</ele><time>2026-05-01T11:41:40Z</time></trkpt><trkpt lat="45.596764840151664" lon="8.08229069356575"><ele>567.0</ele><time>2026-05-01T11:41:41Z</time></trkpt><trkpt lat="45.59672737909672" lon="8.08250269840917"><ele>570.0</ele><time>2026-05-01T11:41:42Z</time></trkpt><trkpt lat="45.59669320970364" lon="8.082696076478749"><ele>570.75</ele><time>2026-05-01T11:41:43Z</time></trkpt><trkpt lat="45.59666253435113" lon="8.082862158038889"><ele>571.5</ele><time>2026-05-01T11:41:44Z</time></trkpt><trkpt lat="45.59663335113831" lon="8.083023092391999"><ele>572.25</ele><time>2026-05-01T11:41:45Z</time></trkpt><trkpt lat="45.59661755671535" lon="8.083200238931752"><ele>573.0</ele><time>2026-05-01T11:41:46Z</time></trkpt><trkpt lat="45.59663844237305" lon="8.08337619368941"><ele>573.8</ele><time>2026-05-01T11:41:47Z</time></trkpt><trkpt lat="45.596681943142684" lon="8.083534692647868"><ele>574.5999999999999</ele><time>2026-05-01T11:41:48Z</time></trkpt><trkpt lat="45.59669104556489" lon="8.083679865734856"><ele>575.4000000000001</ele><time>2026-05-01T11:41:49Z</time></trkpt><trkpt lat="45.596701008041514" lon="8.083810627032307"><ele>576.2</ele><time>2026-05-01T11:41:50Z</time></trkpt><trkpt lat="45.59663312595231" lon="8.08391186513474"><ele>577.0</ele><time>2026-05-01T11:41:51Z</time></trkpt><trkpt lat="45.59657842822466" lon="8.083991762942878"><ele>577.0</ele><time>2026-05-01T11:41:52Z</time></trkpt><trkpt lat="45.596491500072375" lon="8.084043291276702"><ele>577.0</ele><time>2026-05-01T11:41:53Z</time></trkpt><trkpt lat="45.59638687169046" lon="8.084131245076104"><ele>577.0</ele><time>2026-05-01T11:41:54Z</time></trkpt><trkpt lat="45.59627012847725" lon="8.084203427913357"><ele>577.0</ele><time>2026-05-01T11:41:55Z</time></trkpt><trkpt lat="45.59616734959793" lon="8.084287428586094"><ele>576.0</ele><time>2026-05-01T11:41:56Z</time></trkpt><trkpt lat="45.59607752391682" lon="8.084390299322076"><ele>575.0</ele><time>2026-05-01T11:41:57Z</time></trkpt><trkpt lat="45.595994716162735" lon="8.084527708126423"><ele>574.0</ele><time>2026-05-01T11:41:58Z</time></trkpt><trkpt lat="45.595913782626035" lon="8.084684888392195"><ele>573.0</ele><time>2026-05-01T11:41:59Z</time></trkpt><trkpt lat="45.59580573297083" lon="8.084793649999787"><ele>573.0</ele><time>2026-05-01T11:42:00Z</time></trkpt><trkpt lat="45.59569013722505" lon="8.084907069590242"><ele>573.0</ele><time>2026-05-01T11:42:01Z</time></trkpt><trkpt lat="45.59556386314773" lon="8.085029991282074"><ele>573.0</ele><time>2026-05-01T11:42:02Z</time></trkpt><trkpt lat="45.59545322230197" lon="8.085166192021859"><ele>573.0</ele><time>2026-05-01T11:42:03Z</time></trkpt><trkpt lat="45.59535770297027" lon="8.085286673827762"><ele>573.0</ele><time>2026-05-01T11:42:04Z</time></trkpt><trkpt lat="45.59528461913241" lon="8.085400822696569"><ele>573.0</ele><time>2026-05-01T11:42:05Z</time></trkpt><trkpt lat="45.595219939217685" lon="8.08549941823676"><ele>573.0</ele><time>2026-05-01T11:42:06Z</time></trkpt><trkpt lat="45.59521082131637" lon="8.085637099605878"><ele>573.0</ele><time>2026-05-01T11:42:07Z</time></trkpt><trkpt lat="45.5951923625247" lon="8.08576653341238"><ele>573.0</ele><time>2026-05-01T11:42:08Z</time></trkpt><trkpt lat="45.59522919055599" lon="8.08591041019744"><ele>573.6</ele><time>2026-05-01T11:42:09Z</time></trkpt><trkpt lat="45.595272229585234" lon="8.086056207292394"><ele>574.1999999999999</ele><time>2026-05-01T11:42:10Z</time></trkpt><trkpt lat="45.5953221710591" lon="8.086208402862978"><ele>574.8</ele><time>2026-05-01T11:42:11Z</time></trkpt><trkpt lat="45.595335922888545" lon="8.086365248990486"><ele>575.4</ele><time>2026-05-01T11:42:12Z</time></trkpt><trkpt lat="45.5953571594384" lon="8.086505926678965"><ele>576.0</ele><time>2026-05-01T11:42:13Z</time></trkpt><trkpt lat="45.59533529483246" lon="8.086632446996516"><ele>576.0</ele><time>2026-05-01T11:42:14Z</time></trkpt><trkpt lat="45.59530329330051" lon="8.086759926675184"><ele>576.0</ele><time>2026-05-01T11:42:15Z</time></trkpt><trkpt lat="45.59529127177449" lon="8.08686897981714"><ele>576.0</ele><time>2026-05-01T11:42:16Z</time></trkpt><trkpt lat="45.59530771688357" lon="8.086990900785466"><ele>576.0</ele><time>2026-05-01T11:42:17Z</time></trkpt><trkpt lat="45.5953632164898" lon="8.087126472245703"><ele>576.0</ele><time>2026-05-01T11:42:18Z</time></trkpt><trkpt lat="45.59543821369746" lon="8.087248388072013"><ele>578.6</ele><time>2026-05-01T11:42:19Z</time></trkpt><trkpt lat="45.59551382654141" lon="8.08734311082634"><ele>581.2</ele><time>2026-05-01T11:42:20Z</time></trkpt><trkpt lat="45.59559272151657" lon="8.08740844656235"><ele>583.8</ele><time>2026-05-01T11:42:21Z</time></trkpt><trkpt lat="45.59567631026177" lon="8.08745482189815"><ele>586.4</ele><time>2026-05-01T11:42:22Z</time></trkpt><trkpt lat="45.59579191155772" lon="8.08746817011588"><ele>589.0</ele><time>2026-05-01T11:42:23Z</time></trkpt><trkpt lat="45.595923178232034" lon="8.087449255000147"><ele>593.0</ele><time>2026-05-01T11:42:24Z</time></trkpt><trkpt lat="45.596071778518585" lon="8.0874057222747"><ele>597.0</ele><time>2026-05-01T11:42:25Z</time></trkpt><trkpt lat="45.59623825593238" lon="8.087391033658806"><ele>601.0</ele><time>2026-05-01T11:42:26Z</time></trkpt><trkpt lat="45.59639249620342" lon="8.08739814728566"><ele>599.75</ele><time>2026-05-01T11:42:27Z</time></trkpt><trkpt lat="45.59652932501892" lon="8.08743593432219"><ele>598.5</ele><time>2026-05-01T11:42:28Z</time></trkpt><trkpt lat="45.596655762431425" lon="8.087512653131531"><ele>597.25</ele><time>2026-05-01T11:42:29Z</time></trkpt><trkpt lat="45.59680441533451" lon="8.087605524570314"><ele>596.0</ele><time>2026-05-01T11:42:30Z</time></trkpt><trkpt lat="45.59696179257323" lon="8.08768950684599"><ele>600.0</ele><time>2026-05-01T11:42:31Z</time></trkpt><trkpt lat="45.59708450818256" lon="8.087785866249108"><ele>604.0</ele><time>2026-05-01T11:42:32Z</time></trkpt><trkpt lat="45.59717347263672" lon="8.087882718340916"><ele>608.0</ele><time>2026-05-01T11:42:33Z</time></trkpt><trkpt lat="45.59720694973648" lon="8.08800600157207"><ele>612.0</ele><time>2026-05-01T11:42:34Z</time></trkpt><trkpt lat="45.597212330133175" lon="8.08810198289891"><ele>616.0</ele><time>2026-05-01T11:42:35Z</time></trkpt><trkpt lat="45.597197683056294" lon="8.088200786072656"><ele>614.6</ele><time>2026-05-01T11:42:36Z</time></trkpt><trkpt lat="45.59716193501075" lon="8.08829960738159"><ele>613.2</ele><time>2026-05-01T11:42:37Z</time></trkpt><trkpt lat="45.59707189430653" lon="8.08836210666295"><ele>611.8</ele><time>2026-05-01T11:42:38Z</time></trkpt><trkpt lat="45.597012292059205" lon="8.088462660140731"><ele>610.4</ele><time>2026-05-01T11:42:39Z</time></trkpt><trkpt lat="45.59696554552324" lon="8.088566234526557"><ele>609.0</ele><time>2026-05-01T11:42:40Z</time></trkpt><trkpt lat="45.59694724287638" lon="8.088710233511833"><ele>608.5</ele><time>2026-05-01T11:42:41Z</time></trkpt><trkpt lat="45.596932032942796" lon="8.088860952952864"><ele>608.0</ele><time>2026-05-01T11:42:42Z</time></trkpt><trkpt lat="45.596993596879074" lon="8.088999280105789"><ele>607.5</ele><time>2026-05-01T11:42:43Z</time></trkpt><trkpt lat="45.597065784787794" lon="8.089120979435778"><ele>607.0</ele><time>2026-05-01T11:42:44Z</time></trkpt><trkpt lat="45.59715643463192" lon="8.089246302139816"><ele>607.0</ele><time>2026-05-01T11:42:45Z</time></trkpt><trkpt lat="45.59724056705194" lon="8.089352711623203"><ele>607.0</ele><time>2026-05-01T11:42:46Z</time></trkpt><trkpt lat="45.597315943745926" lon="8.089397937722314"><ele>607.0</ele><time>2026-05-01T11:42:47Z</time></trkpt><trkpt lat="45.59740038045668" lon="8.089405775041758"><ele>607.0</ele><time>2026-05-01T11:42:48Z</time></trkpt><trkpt lat="45.59748483010858" lon="8.089390419339326"><ele>607.0</ele><time>2026-05-01T11:42:49Z</time></trkpt><trkpt lat="45.597568717085025" lon="8.089354424467814"><ele>607.0</ele><time>2026-05-01T11:42:50Z</time></trkpt><trkpt lat="45.597675554734515" lon="8.089301014861153"><ele>607.0</ele><time>2026-05-01T11:42:51Z</time></trkpt><trkpt lat="45.597812914469245" lon="8.089246977987727"><ele>607.0</ele><time>2026-05-01T11:42:52Z</time></trkpt><trkpt lat="45.597962653119154" lon="8.089176304840088"><ele>607.0</ele><time>2026-05-01T11:42:53Z</time></trkpt><trkpt lat="45.59811993658405" lon="8.089087751960204"><ele>614.0</ele><time>2026-05-01T11:42:54Z</time></trkpt><trkpt lat="45.598279569904236" lon="8.088991518220947"><ele>621.0</ele><time>2026-05-01T11:42:55Z</time></trkpt><trkpt lat="45.59842124957215" lon="8.088903575691601"><ele>628.0</ele><time>2026-05-01T11:42:56Z</time></trkpt><trkpt lat="45.598532765819456" lon="8.088819809261771"><ele>628.0</ele><time>2026-05-01T11:42:57Z</time></trkpt><trkpt lat="45.59862828951552" lon="8.088723407705046"><ele>628.0</ele><time>2026-05-01T11:42:58Z</time></trkpt><trkpt lat="45.59872661388614" lon="8.088641716727626"><ele>628.0</ele><time>2026-05-01T11:42:59Z</time></trkpt><trkpt lat="45.59881136529691" lon="8.088541463187262"><ele>628.0</ele><time>2026-05-01T11:43:00Z</time></trkpt><trkpt lat="45.59891399177118" lon="8.088501434719232"><ele>628.0</ele><time>2026-05-01T11:43:01Z</time></trkpt><trkpt lat="45.59903029284733" lon="8.088506974221557"><ele>630.5</ele><time>2026-05-01T11:43:02Z</time></trkpt><trkpt lat="45.59915873145098" lon="8.088546504601362"><ele>633.0</ele><time>2026-05-01T11:43:03Z</time></trkpt><trkpt lat="45.599294890510365" lon="8.088612734776332"><ele>635.5</ele><time>2026-05-01T11:43:04Z</time></trkpt><trkpt lat="45.599423711150465" lon="8.08865346141097"><ele>638.0</ele><time>2026-05-01T11:43:05Z</time></trkpt><trkpt lat="45.599549013752274" lon="8.088656121748347"><ele>638.75</ele><time>2026-05-01T11:43:06Z</time></trkpt><trkpt lat="45.59966863881222" lon="8.08863164744013"><ele>639.5</ele><time>2026-05-01T11:43:07Z</time></trkpt><trkpt lat="45.59978075319327" lon="8.088574153377577"><ele>640.25</ele><time>2026-05-01T11:43:08Z</time></trkpt><trkpt lat="45.59989659407679" lon="8.088518447415481"><ele>641.0</ele><time>2026-05-01T11:43:09Z</time></trkpt><trkpt lat="45.60001046213321" lon="8.088511097131777"><ele>641.0</ele><time>2026-05-01T11:43:10Z</time></trkpt><trkpt lat="45.6001340204132" lon="8.088527656836638"><ele>641.0</ele><time>2026-05-01T11:43:11Z</time></trkpt><trkpt lat="45.60025882458449" lon="8.088573001282866"><ele>641.0</ele><time>2026-05-01T11:43:12Z</time></trkpt><trkpt lat="45.60038365666889" lon="8.088641901088467"><ele>641.0</ele><time>2026-05-01T11:43:13Z</time></trkpt><trkpt lat="45.600510652456016" lon="8.088755025833402"><ele>639.3333333333333</ele><time>2026-05-01T11:43:14Z</time></trkpt><trkpt lat="45.600644263583376" lon="8.088883334171753"><ele>637.6666666666666</ele><time>2026-05-01T11:43:15Z</time></trkpt><trkpt lat="45.60077634745178" lon="8.089013750789826"><ele>636.0</ele><time>2026-05-01T11:43:16Z</time></trkpt><trkpt lat="45.60089049433205" lon="8.089135963274614"><ele>636.0</ele><time>2026-05-01T11:43:17Z</time></trkpt><trkpt lat="45.600986067406346" lon="8.089255501716119"><ele>636.0</ele><time>2026-05-01T11:43:18Z</time></trkpt><trkpt lat="45.601061777405434" lon="8.08937344230656"><ele>636.0</ele><time>2026-05-01T11:43:19Z</time></trkpt><trkpt lat="45.601122090744546" lon="8.089522005239395"><ele>636.0</ele><time>2026-05-01T11:43:20Z</time></trkpt><trkpt lat="45.60116861597281" lon="8.089690192424277"><ele>637.8</ele><time>2026-05-01T11:43:21Z</time></trkpt><trkpt lat="45.60120594134235" lon="8.089830967256438"><ele>639.6</ele><time>2026-05-01T11:43:22Z</time></trkpt><trkpt lat="45.60126899836895" lon="8.08994462608655"><ele>641.4</ele><time>2026-05-01T11:43:23Z</time></trkpt><trkpt lat="45.601358441990605" lon="8.090033891120278"><ele>643.2</ele><time>2026-05-01T11:43:24Z</time></trkpt><trkpt lat="45.60146107948717" lon="8.090097595782087"><ele>645.0</ele><time>2026-05-01T11:43:25Z</time></trkpt><trkpt lat="45.601578153526376" lon="8.090115064014261"><ele>645.0</ele><time>2026-05-01T11:43:26Z</time></trkpt><trkpt lat="45.601709122478326" lon="8.090108988189373"><ele>645.0</ele><time>2026-05-01T11:43:27Z</time></trkpt><trkpt lat="45.60185647578362" lon="8.09007960256807"><ele>645.0</ele><time>2026-05-01T11:43:28Z</time></trkpt><trkpt lat="45.602020201910285" lon="8.090036633493671"><ele>645.0</ele><time>2026-05-01T11:43:29Z</time></trkpt><trkpt lat="45.60218687436778" lon="8.090016567929402"><ele>646.25</ele><time>2026-05-01T11:43:30Z</time></trkpt><trkpt lat="45.60234239174885" lon="8.090042002088904"><ele>647.5</ele><time>2026-05-01T11:43:31Z</time></trkpt><trkpt lat="45.60248482634622" lon="8.090067663600594"><ele>648.75</ele><time>2026-05-01T11:43:32Z</time></trkpt><trkpt lat="45.60259915553651" lon="8.09009954473351"><ele>650.0</ele><time>2026-05-01T11:43:33Z</time></trkpt><trkpt lat="45.602686796973146" lon="8.0901540696862"><ele>650.0</ele><time>2026-05-01T11:43:34Z</time></trkpt><trkpt lat="45.60277307956326" lon="8.090220765643242"><ele>650.0</ele><time>2026-05-01T11:43:35Z</time></trkpt><trkpt lat="45.60286767682462" lon="8.090269227538405"><ele>650.0</ele><time>2026-05-01T11:43:36Z</time></trkpt><trkpt lat="45.60298047582924" lon="8.090269744488085"><ele>650.0</ele><time>2026-05-01T11:43:37Z</time></trkpt><trkpt lat="45.60309718235707" lon="8.090218787767268"><ele>650.0</ele><time>2026-05-01T11:43:38Z</time></trkpt><trkpt lat="45.603199637475" lon="8.090121080990974"><ele>650.8</ele><time>2026-05-01T11:43:39Z</time></trkpt><trkpt lat="45.60328570213279" lon="8.090006058212024"><ele>651.6</ele><time>2026-05-01T11:43:40Z</time></trkpt><trkpt lat="45.603363679325454" lon="8.089920604763774"><ele>652.4000000000001</ele><time>2026-05-01T11:43:41Z</time></trkpt><trkpt lat="45.60345081091292" lon="8.089886949513271"><ele>653.2</ele><time>2026-05-01T11:43:42Z</time></trkpt><trkpt lat="45.60354943132547" lon="8.089904926279678"><ele>654.0</ele><time>2026-05-01T11:43:43Z</time></trkpt><trkpt lat="45.60365867755349" lon="8.089959249415738"><ele>651.75</ele><time>2026-05-01T11:43:44Z</time></trkpt><trkpt lat="45.60377244126179" lon="8.090005750141511"><ele>649.5</ele><time>2026-05-01T11:43:45Z</time></trkpt><trkpt lat="45.6038860741218" lon="8.09003292390815"><ele>647.25</ele><time>2026-05-01T11:43:46Z</time></trkpt><trkpt lat="45.6040027511635" lon="8.090015802845535"><ele>645.0</ele><time>2026-05-01T11:43:47Z</time></trkpt><trkpt lat="45.60410244787065" lon="8.089956080177481"><ele>652.2</ele><time>2026-05-01T11:43:48Z</time></trkpt><trkpt lat="45.6041833742501" lon="8.089851710997696"><ele>659.4</ele><time>2026-05-01T11:43:49Z</time></trkpt><trkpt lat="45.60424800574256" lon="8.089724597320451"><ele>666.5999999999999</ele><time>2026-05-01T11:43:50Z</time></trkpt><trkpt lat="45.60429426782529" lon="8.089576359569605"><ele>673.8</ele><time>2026-05-01T11:43:51Z</time></trkpt><trkpt lat="45.604344700481946" lon="8.089451977994015"><ele>681.0</ele><time>2026-05-01T11:43:52Z</time></trkpt><trkpt lat="45.604419052753656" lon="8.089377486974781"><ele>678.5</ele><time>2026-05-01T11:43:53Z</time></trkpt><trkpt lat="45.60451522514422" lon="8.089345603738654"><ele>676.0</ele><time>2026-05-01T11:43:54Z</time></trkpt><trkpt lat="45.604636899972085" lon="8.089383656732627"><ele>673.5</ele><time>2026-05-01T11:43:55Z</time></trkpt><trkpt lat="45.60476364076213" lon="8.089365475868982"><ele>671.0</ele><time>2026-05-01T11:43:56Z</time></trkpt><trkpt lat="45.604884156059335" lon="8.089336263156163"><ele>671.0</ele><time>2026-05-01T11:43:57Z</time></trkpt><trkpt lat="45.60499890507449" lon="8.089286790681614"><ele>671.0</ele><time>2026-05-01T11:43:58Z</time></trkpt><trkpt lat="45.60510697798021" lon="8.08930101091341"><ele>671.0</ele><time>2026-05-01T11:43:59Z</time></trkpt><trkpt lat="45.6052097899971" lon="8.089336371739863"><ele>671.0</ele><time>2026-05-01T11:44:00Z</time></trkpt><trkpt lat="45.6052941551032" lon="8.089468821386653"><ele>676.75</ele><time>2026-05-01T11:44:01Z</time></trkpt><trkpt lat="45.60540386370632" lon="8.08957483808529"><ele>682.5</ele><time>2026-05-01T11:44:02Z</time></trkpt><trkpt lat="45.60551100311762" lon="8.08969112276552"><ele>688.25</ele><time>2026-05-01T11:44:03Z</time></trkpt><trkpt lat="45.60563398670248" lon="8.08977957602247"><ele>694.0</ele><time>2026-05-01T11:44:04Z</time></trkpt><trkpt lat="45.605783293480556" lon="8.089835259788286"><ele>694.0</ele><time>2026-05-01T11:44:05Z</time></trkpt><trkpt lat="45.60595159714239" lon="8.089864633617664"><ele>694.0</ele><time>2026-05-01T11:44:06Z</time></trkpt><trkpt lat="45.60611367508311" lon="8.089891051538158"><ele>694.0</ele><time>2026-05-01T11:44:07Z</time></trkpt><trkpt lat="45.60624898951443" lon="8.089960492969926"><ele>690.0</ele><time>2026-05-01T11:44:08Z</time></trkpt><trkpt lat="45.60636856671895" lon="8.090036084249519"><ele>686.0</ele><time>2026-05-01T11:44:09Z</time></trkpt><trkpt lat="45.60647907805876" lon="8.090112364083396"><ele>682.0</ele><time>2026-05-01T11:44:10Z</time></trkpt><trkpt lat="45.60656543758058" lon="8.090191392718317"><ele>678.0</ele><time>2026-05-01T11:44:11Z</time></trkpt><trkpt lat="45.6066575382436" lon="8.090228996488404"><ele>678.0</ele><time>2026-05-01T11:44:12Z</time></trkpt><trkpt lat="45.606771567260346" lon="8.090225573000918"><ele>678.0</ele><time>2026-05-01T11:44:13Z</time></trkpt><trkpt lat="45.606907655563404" lon="8.090185032847417"><ele>678.0</ele><time>2026-05-01T11:44:14Z</time></trkpt><trkpt lat="45.60702927815562" lon="8.090128470274264"><ele>678.0</ele><time>2026-05-01T11:44:15Z</time></trkpt><trkpt lat="45.607129772277055" lon="8.090107851768217"><ele>679.5999999999999</ele><time>2026-05-01T11:44:16Z</time></trkpt><trkpt lat="45.6072264694017" lon="8.090125334206595"><ele>681.1999999999999</ele><time>2026-05-01T11:44:17Z</time></trkpt><trkpt lat="45.607311309248686" lon="8.090183131947368"><ele>682.8</ele><time>2026-05-01T11:44:18Z</time></trkpt><trkpt lat="45.60737347851547" lon="8.090308043821828"><ele>684.4</ele><time>2026-05-01T11:44:19Z</time></trkpt><trkpt lat="45.60746217997248" lon="8.09040932476021"><ele>686.0</ele><time>2026-05-01T11:44:20Z</time></trkpt><trkpt lat="45.60754550650926" lon="8.090473383358999"><ele>686.0</ele><time>2026-05-01T11:44:21Z</time></trkpt><trkpt lat="45.60763759361222" lon="8.09049871251672"><ele>686.0</ele><time>2026-05-01T11:44:22Z</time></trkpt><trkpt lat="45.60773171187743" lon="8.090535417452363"><ele>686.0</ele><time>2026-05-01T11:44:23Z</time></trkpt><trkpt lat="45.60780487315283" lon="8.09061775545629"><ele>686.0</ele><time>2026-05-01T11:44:24Z</time></trkpt><trkpt lat="45.60784649322193" lon="8.090737777482232"><ele>686.0</ele><time>2026-05-01T11:44:25Z</time></trkpt><trkpt lat="45.60786008933859" lon="8.090895397059786"><ele>682.0</ele><time>2026-05-01T11:44:26Z</time></trkpt><trkpt lat="45.60785132596514" lon="8.091069170936057"><ele>678.0</ele><time>2026-05-01T11:44:27Z</time></trkpt><trkpt lat="45.607818933343985" lon="8.091259700623464"><ele>674.0</ele><time>2026-05-01T11:44:28Z</time></trkpt><trkpt lat="45.60778753189827" lon="8.091466553021055"><ele>670.0</ele><time>2026-05-01T11:44:29Z</time></trkpt><trkpt lat="45.60776710067221" lon="8.091694004078368"><ele>669.5</ele><time>2026-05-01T11:44:30Z</time></trkpt><trkpt lat="45.607767408942095" lon="8.091905108245946"><ele>669.0</ele><time>2026-05-01T11:44:31Z</time></trkpt><trkpt lat="45.60775390365384" lon="8.09208988001943"><ele>668.5</ele><time>2026-05-01T11:44:32Z</time></trkpt><trkpt lat="45.6077074237109" lon="8.092254462462765"><ele>668.0</ele><time>2026-05-01T11:44:33Z</time></trkpt><trkpt lat="45.60762449277036" lon="8.092400302375435"><ele>672.25</ele><time>2026-05-01T11:44:34Z</time></trkpt><trkpt lat="45.607514757634895" lon="8.09253313925483"><ele>676.5</ele><time>2026-05-01T11:44:35Z</time></trkpt><trkpt lat="45.607384559982094" lon="8.092642311259176"><ele>680.75</ele><time>2026-05-01T11:44:36Z</time></trkpt><trkpt lat="45.60724711072634" lon="8.092724177044627"><ele>685.0</ele><time>2026-05-01T11:44:37Z</time></trkpt><trkpt lat="45.607120165446915" lon="8.092799395823985"><ele>685.0</ele><time>2026-05-01T11:44:38Z</time></trkpt><trkpt lat="45.607019620605655" lon="8.092864181231558"><ele>685.0</ele><time>2026-05-01T11:44:39Z</time></trkpt><trkpt lat="45.60693779347638" lon="8.092938942089017"><ele>685.0</ele><time>2026-05-01T11:44:40Z</time></trkpt><trkpt lat="45.606877723606914" lon="8.093038733391587"><ele>685.0</ele><time>2026-05-01T11:44:41Z</time></trkpt><trkpt lat="45.606843726352864" lon="8.093162359284653"><ele>685.0</ele><time>2026-05-01T11:44:42Z</time></trkpt><trkpt lat="45.60684239157899" lon="8.09329198729461"><ele>686.6</ele><time>2026-05-01T11:44:43Z</time></trkpt><trkpt lat="45.60687716243702" lon="8.093408658647121"><ele>688.2</ele><time>2026-05-01T11:44:44Z</time></trkpt><trkpt lat="45.60694172090816" lon="8.093504590125702"><ele>689.8</ele><time>2026-05-01T11:44:45Z</time></trkpt><trkpt lat="45.60703828125321" lon="8.09356085937418"><ele>691.4</ele><time>2026-05-01T11:44:46Z</time></trkpt><trkpt lat="45.607146230253505" lon="8.093586487092564"><ele>693.0</ele><time>2026-05-01T11:44:47Z</time></trkpt><trkpt lat="45.607274328832766" lon="8.093572907285543"><ele>693.0</ele><time>2026-05-01T11:44:48Z</time></trkpt><trkpt lat="45.6074201461383" lon="8.093558650789202"><ele>693.0</ele><time>2026-05-01T11:44:49Z</time></trkpt><trkpt lat="45.607590899198215" lon="8.093562410578299"><ele>693.0</ele><time>2026-05-01T11:44:50Z</time></trkpt><trkpt lat="45.607769510599255" lon="8.093601815014305"><ele>697.75</ele><time>2026-05-01T11:44:51Z</time></trkpt><trkpt lat="45.60792529609722" lon="8.093657890449999"><ele>702.5</ele><time>2026-05-01T11:44:52Z</time></trkpt><trkpt lat="45.60805102064579" lon="8.093735136093098"><ele>707.25</ele><time>2026-05-01T11:44:53Z</time></trkpt><trkpt lat="45.60814262227424" lon="8.093826071679633"><ele>712.0</ele><time>2026-05-01T11:44:54Z</time></trkpt><trkpt lat="45.6081914627517" lon="8.093955578868464"><ele>708.75</ele><time>2026-05-01T11:44:55Z</time></trkpt><trkpt lat="45.608238717002884" lon="8.094111417528401"><ele>705.5</ele><time>2026-05-01T11:44:56Z</time></trkpt><trkpt lat="45.60830161997874" lon="8.09429521339276"><ele>702.25</ele><time>2026-05-01T11:44:57Z</time></trkpt><trkpt lat="45.60836826493687" lon="8.09451056439797"><ele>699.0</ele><time>2026-05-01T11:44:58Z</time></trkpt><trkpt lat="45.608459928783454" lon="8.094728564117574"><ele>694.0</ele><time>2026-05-01T11:44:59Z</time></trkpt><trkpt lat="45.608575956186044" lon="8.09496782405463"><ele>689.0</ele><time>2026-05-01T11:45:00Z</time></trkpt><trkpt lat="45.608687432572474" lon="8.095213766964232"><ele>684.0</ele><time>2026-05-01T11:45:01Z</time></trkpt><trkpt lat="45.608774639544215" lon="8.095435682538112"><ele>689.5</ele><time>2026-05-01T11:45:02Z</time></trkpt><trkpt lat="45.60884163757156" lon="8.095621040691634"><ele>695.0</ele><time>2026-05-01T11:45:03Z</time></trkpt><trkpt lat="45.60887969369199" lon="8.095769536442546"><ele>700.5</ele><time>2026-05-01T11:45:04Z</time></trkpt><trkpt lat="45.60888478402909" lon="8.09592189084824"><ele>706.0</ele><time>2026-05-01T11:45:05Z</time></trkpt><trkpt lat="45.60882666624376" lon="8.096070784142457"><ele>706.0</ele><time>2026-05-01T11:45:06Z</time></trkpt><trkpt lat="45.60882876996094" lon="8.096214915345696"><ele>706.0</ele><time>2026-05-01T11:45:07Z</time></trkpt><trkpt lat="45.608838588061694" lon="8.096345556882062"><ele>706.0</ele><time>2026-05-01T11:45:08Z</time></trkpt><trkpt lat="45.60889313033533" lon="8.096483854378969"><ele>706.0</ele><time>2026-05-01T11:45:09Z</time></trkpt><trkpt lat="45.60897407040683" lon="8.096628748561272"><ele>706.0</ele><time>2026-05-01T11:45:10Z</time></trkpt><trkpt lat="45.609062587751026" lon="8.096756218967009"><ele>705.25</ele><time>2026-05-01T11:45:11Z</time></trkpt><trkpt lat="45.60915250332804" lon="8.096877148353746"><ele>704.5</ele><time>2026-05-01T11:45:12Z</time></trkpt><trkpt lat="45.60924584770591" lon="8.096995654036716"><ele>703.75</ele><time>2026-05-01T11:45:13Z</time></trkpt><trkpt lat="45.60933507660905" lon="8.09711882431854"><ele>703.0</ele><time>2026-05-01T11:45:14Z</time></trkpt><trkpt lat="45.60939443507968" lon="8.097276288873903"><ele>700.5</ele><time>2026-05-01T11:45:15Z</time></trkpt><trkpt lat="45.60946931064808" lon="8.097433725866438"><ele>698.0</ele><time>2026-05-01T11:45:16Z</time></trkpt><trkpt lat="45.60948661072078" lon="8.097623789668742"><ele>695.5</ele><time>2026-05-01T11:45:17Z</time></trkpt><trkpt lat="45.60950609260727" lon="8.097802372430506"><ele>693.0</ele><time>2026-05-01T11:45:18Z</time></trkpt><trkpt lat="45.60951314122278" lon="8.097953075523302"><ele>693.0</ele><time>2026-05-01T11:45:18.999Z</time></trkpt><trkpt lat="45.609445528149394" lon="8.098065414648461"><ele>693.0</ele><time>2026-05-01T11:45:19.999Z</time></trkpt><trkpt lat="45.6093779066667" lon="8.098190467285647"><ele>693.0</ele><time>2026-05-01T11:45:20.999Z</time></trkpt><trkpt lat="45.60933677573219" lon="8.098321029695816"><ele>693.0</ele><time>2026-05-01T11:45:21.999Z</time></trkpt><trkpt lat="45.60930111212945" lon="8.098440765271139"><ele>693.0</ele><time>2026-05-01T11:45:22.999Z</time></trkpt><trkpt lat="45.609304829697045" lon="8.098591717087166"><ele>693.0</ele><time>2026-05-01T11:45:23.999Z</time></trkpt><trkpt lat="45.609338350706224" lon="8.098764948095964"><ele>693.0</ele><time>2026-05-01T11:45:24.999Z</time></trkpt><trkpt lat="45.60935077969964" lon="8.098927681015253"><ele>693.0</ele><time>2026-05-01T11:45:25.999Z</time></trkpt><trkpt lat="45.60929766815897" lon="8.09906787152034"><ele>693.0</ele><time>2026-05-01T11:45:26.999Z</time></trkpt><trkpt lat="45.609237481463694" lon="8.099222805863759"><ele>694.5</ele><time>2026-05-01T11:45:27.999Z</time></trkpt><trkpt lat="45.609194305513036" lon="8.09938519164798"><ele>696.0</ele><time>2026-05-01T11:45:28.999Z</time></trkpt><trkpt lat="45.60915418659661" lon="8.099528990432347"><ele>697.5</ele><time>2026-05-01T11:45:29.999Z</time></trkpt><trkpt lat="45.60915299034781" lon="8.099687464301486"><ele>699.0</ele><time>2026-05-01T11:45:30.999Z</time></trkpt><trkpt lat="45.60917092455245" lon="8.09985260057806"><ele>700.6</ele><time>2026-05-01T11:45:31.999Z</time></trkpt><trkpt lat="45.60921608052027" lon="8.10002085976156"><ele>702.2</ele><time>2026-05-01T11:45:32.999Z</time></trkpt><trkpt lat="45.60926977523004" lon="8.100177706326262"><ele>703.8000000000001</ele><time>2026-05-01T11:45:33.999Z</time></trkpt><trkpt lat="45.60932278424036" lon="8.10028808571525"><ele>705.4000000000001</ele><time>2026-05-01T11:45:34.999Z</time></trkpt><trkpt lat="45.60937246807912" lon="8.100375752747857"><ele>707.0</ele><time>2026-05-01T11:45:35.999Z</time></trkpt><trkpt lat="45.60941365633827" lon="8.100448932504085"><ele>707.0</ele><time>2026-05-01T11:45:36.999Z</time></trkpt><trkpt lat="45.60946014382782" lon="8.100522836918724"><ele>707.0</ele><time>2026-05-01T11:45:37.999Z</time></trkpt><trkpt lat="45.60951695651431" lon="8.100617930958228"><ele>707.0</ele><time>2026-05-01T11:45:38.999Z</time></trkpt><trkpt lat="45.60958392459841" lon="8.100741028616188"><ele>707.0</ele><time>2026-05-01T11:45:39.999Z</time></trkpt><trkpt lat="45.60967054070792" lon="8.100867212796626"><ele>707.0</ele><time>2026-05-01T11:45:40.999Z</time></trkpt><trkpt lat="45.609785391741966" lon="8.100996508468576"><ele>708.6666666666666</ele><time>2026-05-01T11:45:41.999Z</time></trkpt><trkpt lat="45.60991733705024" lon="8.101152269349939"><ele>710.3333333333334</ele><time>2026-05-01T11:45:42.999Z</time></trkpt><trkpt lat="45.610059120901894" lon="8.101327509855098"><ele>712.0</ele><time>2026-05-01T11:45:43.999Z</time></trkpt><trkpt lat="45.61018945311795" lon="8.101492962714332"><ele>712.5</ele><time>2026-05-01T11:45:44.999Z</time></trkpt><trkpt lat="45.610303874845876" lon="8.101637995107058"><ele>713.0</ele><time>2026-05-01T11:45:45.999Z</time></trkpt><trkpt lat="45.61041422174098" lon="8.101766573052076"><ele>713.5</ele><time>2026-05-01T11:45:47Z</time></trkpt><trkpt lat="45.61052862391998" lon="8.101899234785161"><ele>714.0</ele><time>2026-05-01T11:45:48Z</time></trkpt><trkpt lat="45.61062861556202" lon="8.102059869120952"><ele>714.0</ele><time>2026-05-01T11:45:49Z</time></trkpt><trkpt lat="45.61073381226128" lon="8.102198837825918"><ele>714.0</ele><time>2026-05-01T11:45:50Z</time></trkpt><trkpt lat="45.61083312845098" lon="8.1023150238487"><ele>714.0</ele><time>2026-05-01T11:45:51Z</time></trkpt><trkpt lat="45.61091875046201" lon="8.102423907086004"><ele>714.0</ele><time>2026-05-01T11:45:52Z</time></trkpt><trkpt lat="45.611017212534904" lon="8.102521758960254"><ele>714.0</ele><time>2026-05-01T11:45:53Z</time></trkpt><trkpt lat="45.611118571612586" lon="8.102580066474092"><ele>714.0</ele><time>2026-05-01T11:45:54Z</time></trkpt><trkpt lat="45.61123314294799" lon="8.10261875213571"><ele>714.0</ele><time>2026-05-01T11:45:55Z</time></trkpt><trkpt lat="45.61135900232813" lon="8.102631129678613"><ele>714.0</ele><time>2026-05-01T11:45:56Z</time></trkpt><trkpt lat="45.611489568704386" lon="8.102608646090568"><ele>710.75</ele><time>2026-05-01T11:45:57Z</time></trkpt><trkpt lat="45.611625939777774" lon="8.10255166350884"><ele>707.5</ele><time>2026-05-01T11:45:58Z</time></trkpt><trkpt lat="45.61175878587841" lon="8.102484654521115"><ele>704.25</ele><time>2026-05-01T11:45:59Z</time></trkpt><trkpt lat="45.61187691422374" lon="8.10243990431463"><ele>701.0</ele><time>2026-05-01T11:46:00Z</time></trkpt><trkpt lat="45.611982997440194" lon="8.102429785735058"><ele>701.4</ele><time>2026-05-01T11:46:01Z</time></trkpt><trkpt lat="45.61207921183986" lon="8.102454331883807"><ele>701.8</ele><time>2026-05-01T11:46:02Z</time></trkpt><trkpt lat="45.61216592547123" lon="8.102514808634329"><ele>702.1999999999999</ele><time>2026-05-01T11:46:03Z</time></trkpt><trkpt lat="45.61223980587168" lon="8.10262686174543"><ele>702.5999999999999</ele><time>2026-05-01T11:46:04Z</time></trkpt><trkpt lat="45.61229732656184" lon="8.102770902550443"><ele>703.0</ele><time>2026-05-01T11:46:05Z</time></trkpt><trkpt lat="45.61231725172727" lon="8.102956543031262"><ele>703.0</ele><time>2026-05-01T11:46:06Z</time></trkpt><trkpt lat="45.61235813918613" lon="8.103144955543485"><ele>703.0</ele><time>2026-05-01T11:46:07Z</time></trkpt><trkpt lat="45.61243354867769" lon="8.103302830212334"><ele>703.0</ele><time>2026-05-01T11:46:08Z</time></trkpt><trkpt lat="45.61250319905074" lon="8.10345348207286"><ele>703.0</ele><time>2026-05-01T11:46:09Z</time></trkpt><trkpt lat="45.61256424680676" lon="8.103595571840009"><ele>701.75</ele><time>2026-05-01T11:46:10Z</time></trkpt><trkpt lat="45.61261957108951" lon="8.10375099355276"><ele>700.5</ele><time>2026-05-01T11:46:11Z</time></trkpt><trkpt lat="45.61268188915858" lon="8.103936035682011"><ele>699.25</ele><time>2026-05-01T11:46:12Z</time></trkpt><trkpt lat="45.6127698940265" lon="8.104140430493837"><ele>698.0</ele><time>2026-05-01T11:46:13Z</time></trkpt><trkpt lat="45.61284802118924" lon="8.104320467186286"><ele>701.75</ele><time>2026-05-01T11:46:14Z</time></trkpt><trkpt lat="45.612917661406904" lon="8.10447126863494"><ele>705.5</ele><time>2026-05-01T11:46:15Z</time></trkpt><trkpt lat="45.6129862973911" lon="8.10460470594473"><ele>709.25</ele><time>2026-05-01T11:46:16Z</time></trkpt><trkpt lat="45.61308738607288" lon="8.104735559211642"><ele>713.0</ele><time>2026-05-01T11:46:17Z</time></trkpt><trkpt lat="45.61321561140042" lon="8.10486951848485"><ele>709.0</ele><time>2026-05-01T11:46:18Z</time></trkpt><trkpt lat="45.61334172773054" lon="8.104983684364633"><ele>705.0</ele><time>2026-05-01T11:46:19Z</time></trkpt><trkpt lat="45.61344882771379" lon="8.105102170689335"><ele>701.0</ele><time>2026-05-01T11:46:20Z</time></trkpt><trkpt lat="45.61353838300574" lon="8.105236051356876"><ele>697.0</ele><time>2026-05-01T11:46:21Z</time></trkpt><trkpt lat="45.61360803247047" lon="8.105392272825208"><ele>698.0</ele><time>2026-05-01T11:46:22Z</time></trkpt><trkpt lat="45.61369664034258" lon="8.105550706830709"><ele>699.0</ele><time>2026-05-01T11:46:23Z</time></trkpt><trkpt lat="45.61380342878086" lon="8.10570902182415"><ele>700.0</ele><time>2026-05-01T11:46:24Z</time></trkpt><trkpt lat="45.61388991579199" lon="8.10587437413083"><ele>701.0</ele><time>2026-05-01T11:46:25Z</time></trkpt><trkpt lat="45.61396787639018" lon="8.106010399327577"><ele>701.0</ele><time>2026-05-01T11:46:26Z</time></trkpt><trkpt lat="45.614053546599955" lon="8.106134464066226"><ele>701.0</ele><time>2026-05-01T11:46:27Z</time></trkpt><trkpt lat="45.61415987110627" lon="8.106247702173091"><ele>701.0</ele><time>2026-05-01T11:46:28Z</time></trkpt><trkpt lat="45.614279462778796" lon="8.106336164398385"><ele>701.0</ele><time>2026-05-01T11:46:29Z</time></trkpt><trkpt lat="45.61440057818657" lon="8.106423353239231"><ele>700.1999999999999</ele><time>2026-05-01T11:46:30Z</time></trkpt><trkpt lat="45.61450566275382" lon="8.106501761255808"><ele>699.4</ele><time>2026-05-01T11:46:31Z</time></trkpt><trkpt lat="45.614602095970845" lon="8.106573712119488"><ele>698.6</ele><time>2026-05-01T11:46:32Z</time></trkpt><trkpt lat="45.614697740414975" lon="8.106647712109417"><ele>697.8</ele><time>2026-05-01T11:46:33Z</time></trkpt><trkpt lat="45.614789991903166" lon="8.106717527952414"><ele>697.0</ele><time>2026-05-01T11:46:34Z</time></trkpt><trkpt lat="45.6148624299553" lon="8.106814844345077"><ele>697.0</ele><time>2026-05-01T11:46:35Z</time></trkpt><trkpt lat="45.61493932352834" lon="8.106921590827431"><ele>697.0</ele><time>2026-05-01T11:46:36Z</time></trkpt><trkpt lat="45.61500704199211" lon="8.107055558749085"><ele>697.0</ele><time>2026-05-01T11:46:37Z</time></trkpt><trkpt lat="45.615076018377664" lon="8.107212002461788"><ele>697.0</ele><time>2026-05-01T11:46:38Z</time></trkpt><trkpt lat="45.61513724059407" lon="8.107358885077124"><ele>698.5</ele><time>2026-05-01T11:46:39Z</time></trkpt><trkpt lat="45.61519667693312" lon="8.107504462791548"><ele>700.0</ele><time>2026-05-01T11:46:40Z</time></trkpt><trkpt lat="45.615258428706504" lon="8.107664827363356"><ele>701.5</ele><time>2026-05-01T11:46:41Z</time></trkpt><trkpt lat="45.61531317586379" lon="8.107842817394454"><ele>703.0</ele><time>2026-05-01T11:46:42Z</time></trkpt><trkpt lat="45.6153723365817" lon="8.108044650797865"><ele>701.0</ele><time>2026-05-01T11:46:43Z</time></trkpt><trkpt lat="45.61544116456269" lon="8.108283358314651"><ele>699.0</ele><time>2026-05-01T11:46:44Z</time></trkpt><trkpt lat="45.61550963111329" lon="8.108519629482148"><ele>697.0</ele><time>2026-05-01T11:46:45Z</time></trkpt><trkpt lat="45.615572863332616" lon="8.108735859174296"><ele>697.0</ele><time>2026-05-01T11:46:46Z</time></trkpt><trkpt lat="45.61563214698595" lon="8.108937274974624"><ele>697.0</ele><time>2026-05-01T11:46:47Z</time></trkpt><trkpt lat="45.61568672774527" lon="8.109111533758027"><ele>697.0</ele><time>2026-05-01T11:46:48Z</time></trkpt><trkpt lat="45.615737340452206" lon="8.109258058617076"><ele>697.0</ele><time>2026-05-01T11:46:49Z</time></trkpt><trkpt lat="45.615808839665775" lon="8.109392463516908"><ele>695.25</ele><time>2026-05-01T11:46:50Z</time></trkpt><trkpt lat="45.61591590942554" lon="8.109493841080077"><ele>693.5</ele><time>2026-05-01T11:46:51Z</time></trkpt><trkpt lat="45.61603439004181" lon="8.109581552658906"><ele>691.75</ele><time>2026-05-01T11:46:52Z</time></trkpt><trkpt lat="45.61616498384687" lon="8.109668089656527"><ele>690.0</ele><time>2026-05-01T11:46:53Z</time></trkpt><trkpt lat="45.61625539039757" lon="8.109827891681485"><ele>693.0</ele><time>2026-05-01T11:46:54Z</time></trkpt><trkpt lat="45.61637226733964" lon="8.109998291267935"><ele>696.0</ele><time>2026-05-01T11:46:55Z</time></trkpt><trkpt lat="45.61649789113294" lon="8.110176445255359"><ele>699.0</ele><time>2026-05-01T11:46:56Z</time></trkpt><trkpt lat="45.61660366299172" lon="8.110323445117528"><ele>699.0</ele><time>2026-05-01T11:46:57Z</time></trkpt><trkpt lat="45.616692955648105" lon="8.110432991514141"><ele>699.0</ele><time>2026-05-01T11:46:57.999Z</time></trkpt><trkpt lat="45.61681540015747" lon="8.110476434226811"><ele>699.0</ele><time>2026-05-01T11:46:58.999Z</time></trkpt><trkpt lat="45.61690819192101" lon="8.110548865924663"><ele>699.0</ele><time>2026-05-01T11:46:59.999Z</time></trkpt><trkpt lat="45.61696810342528" lon="8.110672133158424"><ele>700.4000000000001</ele><time>2026-05-01T11:47:00.999Z</time></trkpt><trkpt lat="45.61700403910647" lon="8.110805461622418"><ele>701.8</ele><time>2026-05-01T11:47:01.999Z</time></trkpt><trkpt lat="45.617015263330245" lon="8.110947184375508"><ele>703.2</ele><time>2026-05-01T11:47:02.999Z</time></trkpt><trkpt lat="45.61703157552469" lon="8.111091420852636"><ele>704.5999999999999</ele><time>2026-05-01T11:47:03.999Z</time></trkpt><trkpt lat="45.61706580635233" lon="8.1112314800917"><ele>706.0</ele><time>2026-05-01T11:47:04.999Z</time></trkpt><trkpt lat="45.617148329542935" lon="8.111336289433833"><ele>706.0</ele><time>2026-05-01T11:47:05.999Z</time></trkpt><trkpt lat="45.61723023702554" lon="8.111443062391693"><ele>706.0</ele><time>2026-05-01T11:47:06.999Z</time></trkpt><trkpt lat="45.61730747158405" lon="8.111570063251904"><ele>706.0</ele><time>2026-05-01T11:47:07.999Z</time></trkpt><trkpt lat="45.617381827592205" lon="8.111678524819032"><ele>706.0</ele><time>2026-05-01T11:47:08.999Z</time></trkpt><trkpt lat="45.617435846679655" lon="8.111783364045028"><ele>706.0</ele><time>2026-05-01T11:47:09.999Z</time></trkpt><trkpt lat="45.617486756562364" lon="8.111884711880428"><ele>703.5999999999999</ele><time>2026-05-01T11:47:10.999Z</time></trkpt><trkpt lat="45.61749595944379" lon="8.112019912999832"><ele>701.2</ele><time>2026-05-01T11:47:11.999Z</time></trkpt><trkpt lat="45.617481097734604" lon="8.112167767789439"><ele>698.8</ele><time>2026-05-01T11:47:12.999Z</time></trkpt><trkpt lat="45.61746749658794" lon="8.112307593828396"><ele>696.4000000000001</ele><time>2026-05-01T11:47:13.999Z</time></trkpt><trkpt lat="45.617453571277814" lon="8.112428630803128"><ele>694.0</ele><time>2026-05-01T11:47:14.999Z</time></trkpt><trkpt lat="45.61751998031644" lon="8.11253104677889"><ele>691.75</ele><time>2026-05-01T11:47:15.999Z</time></trkpt><trkpt lat="45.61759778036338" lon="8.1126227345829"><ele>689.5</ele><time>2026-05-01T11:47:16.999Z</time></trkpt><trkpt lat="45.617706612668535" lon="8.112760492544096"><ele>687.25</ele><time>2026-05-01T11:47:17.999Z</time></trkpt><trkpt lat="45.617827040877785" lon="8.11292649415071"><ele>685.0</ele><time>2026-05-01T11:47:18.999Z</time></trkpt><trkpt lat="45.617951393853915" lon="8.113115208597515"><ele>687.25</ele><time>2026-05-01T11:47:19.999Z</time></trkpt><trkpt lat="45.618056248988864" lon="8.113278581577092"><ele>689.5</ele><time>2026-05-01T11:47:20.999Z</time></trkpt><trkpt lat="45.618150081206245" lon="8.113390228166287"><ele>691.75</ele><time>2026-05-01T11:47:21.999Z</time></trkpt><trkpt lat="45.618221833102176" lon="8.11348397252572"><ele>694.0</ele><time>2026-05-01T11:47:22.999Z</time></trkpt><trkpt lat="45.61828972290772" lon="8.11355010755362"><ele>694.0</ele><time>2026-05-01T11:47:23.999Z</time></trkpt><trkpt lat="45.61837025557873" lon="8.113595460898596"><ele>694.0</ele><time>2026-05-01T11:47:24.999Z</time></trkpt><trkpt lat="45.61846668626999" lon="8.11361261535315"><ele>694.0</ele><time>2026-05-01T11:47:25.999Z</time></trkpt><trkpt lat="45.61857285457774" lon="8.11360806482058"><ele>694.0</ele><time>2026-05-01T11:47:26.999Z</time></trkpt><trkpt lat="45.61868502478073" lon="8.113572167567005"><ele>694.0</ele><time>2026-05-01T11:47:27.999Z</time></trkpt><trkpt lat="45.618799614198345" lon="8.11349725112801"><ele>693.5</ele><time>2026-05-01T11:47:28.999Z</time></trkpt><trkpt lat="45.61891233252173" lon="8.113392418729209"><ele>693.0</ele><time>2026-05-01T11:47:29.999Z</time></trkpt><trkpt lat="45.61903132526038" lon="8.1132803728933"><ele>692.5</ele><time>2026-05-01T11:47:30.999Z</time></trkpt><trkpt lat="45.619142519410815" lon="8.113197836035054"><ele>692.0</ele><time>2026-05-01T11:47:31.999Z</time></trkpt><trkpt lat="45.619262509582555" lon="8.113148331553885"><ele>701.6666666666666</ele><time>2026-05-01T11:47:32.999Z</time></trkpt><trkpt lat="45.61939570969412" lon="8.113122551635323"><ele>711.3333333333334</ele><time>2026-05-01T11:47:33.999Z</time></trkpt><trkpt lat="45.619554296629" lon="8.113163704180595"><ele>721.0</ele><time>2026-05-01T11:47:34.999Z</time></trkpt><trkpt lat="45.61971880066707" lon="8.113155754217022"><ele>721.0</ele><time>2026-05-01T11:47:35.999Z</time></trkpt><trkpt lat="45.61988251054834" lon="8.11314739219473"><ele>721.0</ele><time>2026-05-01T11:47:36.999Z</time></trkpt><trkpt lat="45.62004735040036" lon="8.113113463960767"><ele>721.0</ele><time>2026-05-01T11:47:37.999Z</time></trkpt><trkpt lat="45.620203151956325" lon="8.113057497025594"><ele>719.5</ele><time>2026-05-01T11:47:38.999Z</time></trkpt><trkpt lat="45.62034944822442" lon="8.113026780494112"><ele>718.0</ele><time>2026-05-01T11:47:39.999Z</time></trkpt><trkpt lat="45.62049222484937" lon="8.113026928863134"><ele>716.5</ele><time>2026-05-01T11:47:40.999Z</time></trkpt><trkpt lat="45.620643386781964" lon="8.113070778616665"><ele>715.0</ele><time>2026-05-01T11:47:41.999Z</time></trkpt><trkpt lat="45.62080039638851" lon="8.113174026462719"><ele>705.6666666666667</ele><time>2026-05-01T11:47:42.999Z</time></trkpt><trkpt lat="45.620982841330026" lon="8.113251786783923"><ele>696.3333333333334</ele><time>2026-05-01T11:47:43.999Z</time></trkpt><trkpt lat="45.62113629334479" lon="8.113344446740145"><ele>687.0</ele><time>2026-05-01T11:47:44.999Z</time></trkpt><trkpt lat="45.621261649453515" lon="8.113420347932315"><ele>686.4000000000001</ele><time>2026-05-01T11:47:45.999Z</time></trkpt><trkpt lat="45.62136916776564" lon="8.11346142631975"><ele>685.8000000000001</ele><time>2026-05-01T11:47:46.999Z</time></trkpt><trkpt lat="45.6214740116542" lon="8.113475980092005"><ele>685.2</ele><time>2026-05-01T11:47:47.999Z</time></trkpt><trkpt lat="45.62157725515669" lon="8.113484777511209"><ele>684.6</ele><time>2026-05-01T11:47:48.999Z</time></trkpt><trkpt lat="45.62167773110354" lon="8.113408695063818"><ele>684.0</ele><time>2026-05-01T11:47:49.999Z</time></trkpt><trkpt lat="45.62177241166526" lon="8.113315593844852"><ele>682.75</ele><time>2026-05-01T11:47:50.999Z</time></trkpt><trkpt lat="45.621858651147406" lon="8.113185845093128"><ele>681.5</ele><time>2026-05-01T11:47:51.999Z</time></trkpt><trkpt lat="45.62193283464343" lon="8.113036241224235"><ele>680.25</ele><time>2026-05-01T11:47:53Z</time></trkpt><trkpt lat="45.62200829753019" lon="8.112862745834605"><ele>679.0</ele><time>2026-05-01T11:47:54Z</time></trkpt><trkpt lat="45.6220836018205" lon="8.112719315396527"><ele>679.0</ele><time>2026-05-01T11:47:55Z</time></trkpt><trkpt lat="45.622157307930976" lon="8.112610202324126"><ele>679.0</ele><time>2026-05-01T11:47:56Z</time></trkpt><trkpt lat="45.622247602243114" lon="8.112522972622624"><ele>679.0</ele><time>2026-05-01T11:47:57Z</time></trkpt><trkpt lat="45.62234941953879" lon="8.112469517618022"><ele>679.0</ele><time>2026-05-01T11:47:58Z</time></trkpt><trkpt lat="45.62246763933457" lon="8.112470509053365"><ele>679.0</ele><time>2026-05-01T11:47:59Z</time></trkpt><trkpt lat="45.62257309714747" lon="8.112488584772603"><ele>679.0</ele><time>2026-05-01T11:48:00Z</time></trkpt><trkpt lat="45.62266059046739" lon="8.112465827037948"><ele>679.0</ele><time>2026-05-01T11:48:01Z</time></trkpt><trkpt lat="45.622737707535045" lon="8.112387429422448"><ele>679.0</ele><time>2026-05-01T11:48:02Z</time></trkpt><trkpt lat="45.62281026032988" lon="8.112270514573499"><ele>679.0</ele><time>2026-05-01T11:48:03Z</time></trkpt><trkpt lat="45.62286077407551" lon="8.112117874954363"><ele>679.0</ele><time>2026-05-01T11:48:04Z</time></trkpt><trkpt lat="45.622906846915" lon="8.11198619652542"><ele>678.8000000000001</ele><time>2026-05-01T11:48:05Z</time></trkpt><trkpt lat="45.62296815405876" lon="8.111880621794487"><ele>678.6</ele><time>2026-05-01T11:48:06Z</time></trkpt><trkpt lat="45.62305184912389" lon="8.111816271122256"><ele>678.4</ele><time>2026-05-01T11:48:07Z</time></trkpt><trkpt lat="45.62314869035592" lon="8.111794480382507"><ele>678.2</ele><time>2026-05-01T11:48:08Z</time></trkpt><trkpt lat="45.6232524301559" lon="8.111804349776637"><ele>678.0</ele><time>2026-05-01T11:48:09Z</time></trkpt><trkpt lat="45.623377807308195" lon="8.111825646298573"><ele>678.0</ele><time>2026-05-01T11:48:10Z</time></trkpt><trkpt lat="45.623526128240236" lon="8.111859661072538"><ele>678.0</ele><time>2026-05-01T11:48:11Z</time></trkpt><trkpt lat="45.623676556692736" lon="8.111877892845753"><ele>678.0</ele><time>2026-05-01T11:48:12Z</time></trkpt><trkpt lat="45.62380025483857" lon="8.11187031933367"><ele>678.0</ele><time>2026-05-01T11:48:13Z</time></trkpt><trkpt lat="45.623915056057825" lon="8.111829723358321"><ele>677.5999999999999</ele><time>2026-05-01T11:48:14Z</time></trkpt><trkpt lat="45.624017281354995" lon="8.11175867659552"><ele>677.1999999999999</ele><time>2026-05-01T11:48:15Z</time></trkpt><trkpt lat="45.624103164477575" lon="8.111664895106905"><ele>676.8</ele><time>2026-05-01T11:48:16Z</time></trkpt><trkpt lat="45.62416234333519" lon="8.11155069617997"><ele>676.4</ele><time>2026-05-01T11:48:17Z</time></trkpt><trkpt lat="45.624197624323166" lon="8.11141392341401"><ele>676.0</ele><time>2026-05-01T11:48:18Z</time></trkpt><trkpt lat="45.62420825551077" lon="8.1112453953381"><ele>676.0</ele><time>2026-05-01T11:48:19Z</time></trkpt><trkpt lat="45.62419611894417" lon="8.111065528351855"><ele>676.0</ele><time>2026-05-01T11:48:20Z</time></trkpt><trkpt lat="45.62418423835253" lon="8.110910033234203"><ele>676.0</ele><time>2026-05-01T11:48:21Z</time></trkpt><trkpt lat="45.62419711169112" lon="8.110777316031792"><ele>676.0</ele><time>2026-05-01T11:48:22Z</time></trkpt><trkpt lat="45.624244405057546" lon="8.110666539409321"><ele>676.0</ele><time>2026-05-01T11:48:23Z</time></trkpt><trkpt lat="45.62432470019977" lon="8.110587719198524"><ele>679.4</ele><time>2026-05-01T11:48:24Z</time></trkpt><trkpt lat="45.62443489779189" lon="8.110599173227484"><ele>682.8</ele><time>2026-05-01T11:48:25Z</time></trkpt><trkpt lat="45.62452164498211" lon="8.1105298608811"><ele>686.1999999999999</ele><time>2026-05-01T11:48:26Z</time></trkpt><trkpt lat="45.62461848115336" lon="8.110459136712054"><ele>689.5999999999999</ele><time>2026-05-01T11:48:27Z</time></trkpt><trkpt lat="45.62470498834999" lon="8.110346666827985"><ele>693.0</ele><time>2026-05-01T11:48:28Z</time></trkpt><trkpt lat="45.624788414622465" lon="8.110233982267358"><ele>685.6666666666666</ele><time>2026-05-01T11:48:29Z</time></trkpt><trkpt lat="45.62487268791271" lon="8.110154875969737"><ele>678.3333333333334</ele><time>2026-05-01T11:48:30Z</time></trkpt><trkpt lat="45.624932439190424" lon="8.110089338154571"><ele>671.0</ele><time>2026-05-01T11:48:31Z</time></trkpt><trkpt lat="45.624958916416205" lon="8.109996166777892"><ele>663.6666666666667</ele><time>2026-05-01T11:48:32Z</time></trkpt><trkpt lat="45.62495280582501" lon="8.10988497725863"><ele>656.3333333333334</ele><time>2026-05-01T11:48:33Z</time></trkpt><trkpt lat="45.62491866561132" lon="8.109775146993364"><ele>649.0</ele><time>2026-05-01T11:48:34Z</time></trkpt><trkpt lat="45.624867596536156" lon="8.109673499818998"><ele>648.8000000000001</ele><time>2026-05-01T11:48:35Z</time></trkpt><trkpt lat="45.62482157646585" lon="8.10954353467898"><ele>648.6</ele><time>2026-05-01T11:48:36Z</time></trkpt><trkpt lat="45.62480013441133" lon="8.109400463250214"><ele>648.4</ele><time>2026-05-01T11:48:37Z</time></trkpt><trkpt lat="45.62480170584372" lon="8.10926013649576"><ele>648.2</ele><time>2026-05-01T11:48:38Z</time></trkpt><trkpt lat="45.624833007761985" lon="8.1091315326195"><ele>648.0</ele><time>2026-05-01T11:48:39Z</time></trkpt><trkpt lat="45.62488557562278" lon="8.109020469272448"><ele>646.5</ele><time>2026-05-01T11:48:40Z</time></trkpt><trkpt lat="45.624929132447534" lon="8.10891842153206"><ele>645.0</ele><time>2026-05-01T11:48:41Z</time></trkpt><trkpt lat="45.62494188038493" lon="8.108818284604338"><ele>643.5</ele><time>2026-05-01T11:48:42Z</time></trkpt><trkpt lat="45.62491672296169" lon="8.108705778193514"><ele>642.0</ele><time>2026-05-01T11:48:43Z</time></trkpt><trkpt lat="45.62486105200418" lon="8.108609388973507"><ele>640.5</ele><time>2026-05-01T11:48:44Z</time></trkpt><trkpt lat="45.62478188131938" lon="8.108548645182564"><ele>639.0</ele><time>2026-05-01T11:48:45Z</time></trkpt><trkpt lat="45.62466843075784" lon="8.10848864731367"><ele>639.0</ele><time>2026-05-01T11:48:46Z</time></trkpt><trkpt lat="45.62456935208909" lon="8.108432377165958"><ele>639.0</ele><time>2026-05-01T11:48:47Z</time></trkpt><trkpt lat="45.62447356415138" lon="8.108375843154224"><ele>639.0</ele><time>2026-05-01T11:48:47.999Z</time></trkpt><trkpt lat="45.62439570405093" lon="8.108336652140034"><ele>639.0</ele><time>2026-05-01T11:48:48.999Z</time></trkpt><trkpt lat="45.62434963015927" lon="8.108253166209073"><ele>639.0</ele><time>2026-05-01T11:48:49.999Z</time></trkpt><trkpt lat="45.62433278557343" lon="8.108142504605008"><ele>639.0</ele><time>2026-05-01T11:48:50.999Z</time></trkpt><trkpt lat="45.62435459567338" lon="8.108029131815332"><ele>641.2</ele><time>2026-05-01T11:48:51.999Z</time></trkpt><trkpt lat="45.62440582984452" lon="8.107951005598622"><ele>643.4</ele><time>2026-05-01T11:48:52.999Z</time></trkpt><trkpt lat="45.62448851451345" lon="8.10788180520916"><ele>645.6</ele><time>2026-05-01T11:48:53.999Z</time></trkpt><trkpt lat="45.624594934572464" lon="8.107801207260785"><ele>647.8</ele><time>2026-05-01T11:48:54.999Z</time></trkpt><trkpt lat="45.624706378981756" lon="8.107702425751377"><ele>650.0</ele><time>2026-05-01T11:48:55.999Z</time></trkpt><trkpt lat="45.62480266993352" lon="8.107621072132362"><ele>650.0</ele><time>2026-05-01T11:48:56.999Z</time></trkpt><trkpt lat="45.62489586775031" lon="8.1075728542086"><ele>650.0</ele><time>2026-05-01T11:48:57.999Z</time></trkpt><trkpt lat="45.625006777496154" lon="8.107561151766882"><ele>650.0</ele><time>2026-05-01T11:48:58.999Z</time></trkpt><trkpt lat="45.625135729504215" lon="8.107575495707609"><ele>650.0</ele><time>2026-05-01T11:48:59.999Z</time></trkpt><trkpt lat="45.6252750181152" lon="8.107594152853853"><ele>644.25</ele><time>2026-05-01T11:49:01Z</time></trkpt><trkpt lat="45.62541160424646" lon="8.107613336655158"><ele>638.5</ele><time>2026-05-01T11:49:02Z</time></trkpt><trkpt lat="45.625534725891875" lon="8.10762684503046"><ele>632.75</ele><time>2026-05-01T11:49:03Z</time></trkpt><trkpt lat="45.62564490440297" lon="8.10763343753865"><ele>627.0</ele><time>2026-05-01T11:49:04Z</time></trkpt><trkpt lat="45.625748307964784" lon="8.10762791879965"><ele>627.0</ele><time>2026-05-01T11:49:05Z</time></trkpt><trkpt lat="45.62583321989168" lon="8.10758919797447"><ele>627.0</ele><time>2026-05-01T11:49:06Z</time></trkpt><trkpt lat="45.62590448464216" lon="8.10750548043476"><ele>627.0</ele><time>2026-05-01T11:49:07Z</time></trkpt><trkpt lat="45.625966355319164" lon="8.107375135869251"><ele>627.0</ele><time>2026-05-01T11:49:08Z</time></trkpt><trkpt lat="45.62602195510319" lon="8.107212613942108"><ele>627.0</ele><time>2026-05-01T11:49:09Z</time></trkpt><trkpt lat="45.62607257197402" lon="8.107034435923985"><ele>625.4</ele><time>2026-05-01T11:49:10Z</time></trkpt><trkpt lat="45.62611056696008" lon="8.106881105910151"><ele>623.8000000000001</ele><time>2026-05-01T11:49:11Z</time></trkpt><trkpt lat="45.62613215661129" lon="8.10675281094278"><ele>622.2</ele><time>2026-05-01T11:49:12Z</time></trkpt><trkpt lat="45.626122946344104" lon="8.106618731035338"><ele>620.6</ele><time>2026-05-01T11:49:13Z</time></trkpt><trkpt lat="45.6260768284358" lon="8.106466291426642"><ele>619.0</ele><time>2026-05-01T11:49:14Z</time></trkpt><trkpt lat="45.62600837903579" lon="8.10629755391272"><ele>619.0</ele><time>2026-05-01T11:49:15Z</time></trkpt><trkpt lat="45.62592256883928" lon="8.10612828492083"><ele>619.0</ele><time>2026-05-01T11:49:16Z</time></trkpt><trkpt lat="45.62586082248397" lon="8.10597949377885"><ele>619.0</ele><time>2026-05-01T11:49:17Z</time></trkpt><trkpt lat="45.62580477526823" lon="8.105851624156555"><ele>619.0</ele><time>2026-05-01T11:49:18Z</time></trkpt><trkpt lat="45.62572036192609" lon="8.10574503710445"><ele>620.0</ele><time>2026-05-01T11:49:19Z</time></trkpt><trkpt lat="45.62560568487095" lon="8.105651518258254"><ele>621.0</ele><time>2026-05-01T11:49:20Z</time></trkpt><trkpt lat="45.62548461865283" lon="8.105567089407025"><ele>622.0</ele><time>2026-05-01T11:49:21Z</time></trkpt><trkpt lat="45.62538159393845" lon="8.105496160561037"><ele>623.0</ele><time>2026-05-01T11:49:22Z</time></trkpt><trkpt lat="45.62529177398224" lon="8.105413265125954"><ele>623.0</ele><time>2026-05-01T11:49:23Z</time></trkpt><trkpt lat="45.6252026235401" lon="8.105296756485165"><ele>623.0</ele><time>2026-05-01T11:49:24Z</time></trkpt><trkpt lat="45.62512525653772" lon="8.105154060459267"><ele>623.0</ele><time>2026-05-01T11:49:25Z</time></trkpt><trkpt lat="45.62505476817932" lon="8.105010766031722"><ele>623.0</ele><time>2026-05-01T11:49:26Z</time></trkpt><trkpt lat="45.62496514666708" lon="8.104875750140335"><ele>613.6666666666666</ele><time>2026-05-01T11:49:27Z</time></trkpt><trkpt lat="45.62484618918192" lon="8.104739609395772"><ele>604.3333333333334</ele><time>2026-05-01T11:49:28Z</time></trkpt><trkpt lat="45.624676066676074" lon="8.104590853384394"><ele>595.0</ele><time>2026-05-01T11:49:29Z</time></trkpt><trkpt lat="45.62450805779813" lon="8.1044421957574"><ele>601.0</ele><time>2026-05-01T11:49:30Z</time></trkpt><trkpt lat="45.62436596566844" lon="8.10430838904602"><ele>607.0</ele><time>2026-05-01T11:49:31Z</time></trkpt><trkpt lat="45.62423595209477" lon="8.10420159122523"><ele>613.0</ele><time>2026-05-01T11:49:32Z</time></trkpt><trkpt lat="45.62410004576987" lon="8.104117352039244"><ele>610.3333333333334</ele><time>2026-05-01T11:49:33Z</time></trkpt><trkpt lat="45.62394869232013" lon="8.10407888242875"><ele>607.6666666666666</ele><time>2026-05-01T11:49:34Z</time></trkpt><trkpt lat="45.623769926999344" lon="8.104052485842136"><ele>605.0</ele><time>2026-05-01T11:49:35Z</time></trkpt><trkpt lat="45.62359526058898" lon="8.104036546726709"><ele>605.0</ele><time>2026-05-01T11:49:36Z</time></trkpt><trkpt lat="45.62345241918738" lon="8.104010650154434"><ele>605.0</ele><time>2026-05-01T11:49:37Z</time></trkpt><trkpt lat="45.623336718124044" lon="8.10397146154471"><ele>605.0</ele><time>2026-05-01T11:49:38Z</time></trkpt><trkpt lat="45.623244963454965" lon="8.103912224778473"><ele>605.0</ele><time>2026-05-01T11:49:39Z</time></trkpt><trkpt lat="45.623167324405415" lon="8.103817926826483"><ele>605.0</ele><time>2026-05-01T11:49:40Z</time></trkpt><trkpt lat="45.62313441448201" lon="8.103674704673464"><ele>605.0</ele><time>2026-05-01T11:49:41Z</time></trkpt><trkpt lat="45.62310190821997" lon="8.103551940654063"><ele>605.0</ele><time>2026-05-01T11:49:42Z</time></trkpt><trkpt lat="45.62311821872676" lon="8.10343297623573"><ele>605.0</ele><time>2026-05-01T11:49:43Z</time></trkpt><trkpt lat="45.62316244933774" lon="8.103321461716327"><ele>605.0</ele><time>2026-05-01T11:49:44Z</time></trkpt><trkpt lat="45.623232009571346" lon="8.103230920169802"><ele>603.2</ele><time>2026-05-01T11:49:45Z</time></trkpt><trkpt lat="45.62332184800455" lon="8.103166358879719"><ele>601.4</ele><time>2026-05-01T11:49:46Z</time></trkpt><trkpt lat="45.6234203372283" lon="8.10313066272025"><ele>599.6</ele><time>2026-05-01T11:49:47Z</time></trkpt><trkpt lat="45.62352764131579" lon="8.103141139576136"><ele>597.8</ele><time>2026-05-01T11:49:48Z</time></trkpt><trkpt lat="45.623629207019" lon="8.10322822165656"><ele>596.0</ele><time>2026-05-01T11:49:49Z</time></trkpt><trkpt lat="45.62376261778878" lon="8.103284671000685"><ele>594.6666666666666</ele><time>2026-05-01T11:49:50Z</time></trkpt><trkpt lat="45.62392438273426" lon="8.103387541567288"><ele>593.3333333333334</ele><time>2026-05-01T11:49:51Z</time></trkpt><trkpt lat="45.62412076759007" lon="8.103492984861113"><ele>592.0</ele><time>2026-05-01T11:49:52Z</time></trkpt><trkpt lat="45.62430391379233" lon="8.103589039967208"><ele>592.0</ele><time>2026-05-01T11:49:53Z</time></trkpt><trkpt lat="45.62446292764915" lon="8.1036803848497"><ele>592.0</ele><time>2026-05-01T11:49:54Z</time></trkpt><trkpt lat="45.62461196047278" lon="8.103769567829389"><ele>592.0</ele><time>2026-05-01T11:49:55Z</time></trkpt><trkpt lat="45.624763096689634" lon="8.103859831702717"><ele>593.0</ele><time>2026-05-01T11:49:56Z</time></trkpt><trkpt lat="45.62491506734635" lon="8.103972218505803"><ele>594.0</ele><time>2026-05-01T11:49:57Z</time></trkpt><trkpt lat="45.625077085849256" lon="8.104127819930488"><ele>595.0</ele><time>2026-05-01T11:49:58Z</time></trkpt><trkpt lat="45.62525594084317" lon="8.10430725034932"><ele>587.0</ele><time>2026-05-01T11:49:59.001Z</time></trkpt><trkpt lat="45.62544776512612" lon="8.104495536128757"><ele>579.0</ele><time>2026-05-01T11:50:00.001Z</time></trkpt><trkpt lat="45.62563463877852" lon="8.104709287047468"><ele>579.0</ele><time>2026-05-01T11:50:01.001Z</time></trkpt><trkpt lat="45.625831389331275" lon="8.104905233413863"><ele>579.0</ele><time>2026-05-01T11:50:02.001Z</time></trkpt><trkpt lat="45.62600953272785" lon="8.105053901881476"><ele>579.0</ele><time>2026-05-01T11:50:03.001Z</time></trkpt><trkpt lat="45.62617509353795" lon="8.105219287039576"><ele>579.6666666666666</ele><time>2026-05-01T11:50:04.001Z</time></trkpt><trkpt lat="45.62632172816621" lon="8.105364467320458"><ele>580.3333333333333</ele><time>2026-05-01T11:50:05.001Z</time></trkpt><trkpt lat="45.62644340618303" lon="8.10548665683854"><ele>581.0</ele><time>2026-05-01T11:50:06.001Z</time></trkpt><trkpt lat="45.62654738137835" lon="8.105595994189919"><ele>581.0</ele><time>2026-05-01T11:50:07.001Z</time></trkpt><trkpt lat="45.62662832403836" lon="8.105685254006973"><ele>581.0</ele><time>2026-05-01T11:50:08.001Z</time></trkpt><trkpt lat="45.62670972884978" lon="8.105786250828983"><ele>581.0</ele><time>2026-05-01T11:50:09.001Z</time></trkpt><trkpt lat="45.62677592755501" lon="8.10590539354151"><ele>581.0</ele><time>2026-05-01T11:50:10.001Z</time></trkpt><trkpt lat="45.626804415648294" lon="8.106064749764945"><ele>581.0</ele><time>2026-05-01T11:50:11.001Z</time></trkpt><trkpt lat="45.626826774557834" lon="8.1062358859291"><ele>581.0</ele><time>2026-05-01T11:50:12.001Z</time></trkpt><trkpt lat="45.626841513502455" lon="8.106400321949199"><ele>581.0</ele><time>2026-05-01T11:50:13.001Z</time></trkpt><trkpt lat="45.6268505386544" lon="8.106545093443785"><ele>581.0</ele><time>2026-05-01T11:50:14.001Z</time></trkpt><trkpt lat="45.62686012611971" lon="8.106695555452745"><ele>581.0</ele><time>2026-05-01T11:50:15.001Z</time></trkpt><trkpt lat="45.6268644841939" lon="8.106858731427955"><ele>581.0</ele><time>2026-05-01T11:50:16.001Z</time></trkpt><trkpt lat="45.626840306294454" lon="8.107033785209639"><ele>582.0</ele><time>2026-05-01T11:50:17.001Z</time></trkpt><trkpt lat="45.626809873745025" lon="8.107212578257545"><ele>583.0</ele><time>2026-05-01T11:50:18.001Z</time></trkpt><trkpt lat="45.626790189481596" lon="8.10739604009802"><ele>584.0</ele><time>2026-05-01T11:50:19.001Z</time></trkpt><trkpt lat="45.62673684074399" lon="8.10755678603063"><ele>585.0</ele><time>2026-05-01T11:50:20.001Z</time></trkpt><trkpt lat="45.62670132142192" lon="8.107723728203629"><ele>585.0</ele><time>2026-05-01T11:50:21.001Z</time></trkpt><trkpt lat="45.62668772607808" lon="8.107873183588307"><ele>585.0</ele><time>2026-05-01T11:50:22.001Z</time></trkpt><trkpt lat="45.62667074431658" lon="8.108003148577192"><ele>585.0</ele><time>2026-05-01T11:50:23.001Z</time></trkpt><trkpt lat="45.626650921296516" lon="8.108108600301504"><ele>585.0</ele><time>2026-05-01T11:50:24.001Z</time></trkpt><trkpt lat="45.62669480872036" lon="8.108247953550904"><ele>585.0</ele><time>2026-05-01T11:50:25.001Z</time></trkpt><trkpt lat="45.626742915965174" lon="8.108393010267012"><ele>582.6</ele><time>2026-05-01T11:50:26.001Z</time></trkpt><trkpt lat="45.62680193364058" lon="8.108541697789551"><ele>580.2</ele><time>2026-05-01T11:50:27.001Z</time></trkpt><trkpt lat="45.62685489243651" lon="8.108685189191762"><ele>577.8</ele><time>2026-05-01T11:50:28.001Z</time></trkpt><trkpt lat="45.62689404433718" lon="8.108825689145732"><ele>575.4</ele><time>2026-05-01T11:50:29.001Z</time></trkpt><trkpt lat="45.62690502007295" lon="8.108964694937464"><ele>573.0</ele><time>2026-05-01T11:50:30.001Z</time></trkpt><trkpt lat="45.62687848938989" lon="8.109115876592817"><ele>571.3333333333334</ele><time>2026-05-01T11:50:31.001Z</time></trkpt><trkpt lat="45.62683575532843" lon="8.109291852008102"><ele>569.6666666666667</ele><time>2026-05-01T11:50:32.001Z</time></trkpt><trkpt lat="45.62677889710817" lon="8.10949379675086"><ele>568.0</ele><time>2026-05-01T11:50:33.001Z</time></trkpt><trkpt lat="45.626724414895655" lon="8.109721969410785"><ele>569.75</ele><time>2026-05-01T11:50:34.001Z</time></trkpt><trkpt lat="45.626655940472446" lon="8.10992469668761"><ele>571.5</ele><time>2026-05-01T11:50:35.001Z</time></trkpt><trkpt lat="45.62658713577341" lon="8.110083579999273"><ele>573.25</ele><time>2026-05-01T11:50:36.001Z</time></trkpt><trkpt lat="45.626528974112446" lon="8.110242567412069"><ele>575.0</ele><time>2026-05-01T11:50:37.001Z</time></trkpt><trkpt lat="45.62647847531069" lon="8.110422204759969"><ele>575.0</ele><time>2026-05-01T11:50:38.001Z</time></trkpt><trkpt lat="45.62644706451784" lon="8.11061220677186"><ele>575.0</ele><time>2026-05-01T11:50:39.001Z</time></trkpt><trkpt lat="45.626428638334225" lon="8.110786464107225"><ele>575.0</ele><time>2026-05-01T11:50:40.001Z</time></trkpt><trkpt lat="45.62640994879511" lon="8.110946784260328"><ele>575.0</ele><time>2026-05-01T11:50:41.001Z</time></trkpt><trkpt lat="45.62638436002618" lon="8.111121225612743"><ele>575.75</ele><time>2026-05-01T11:50:42.001Z</time></trkpt><trkpt lat="45.62636005002676" lon="8.111289285855651"><ele>576.5</ele><time>2026-05-01T11:50:43Z</time></trkpt><trkpt lat="45.62633845672252" lon="8.111447545144477"><ele>577.25</ele><time>2026-05-01T11:50:44Z</time></trkpt><trkpt lat="45.62633338309437" lon="8.111607631269019"><ele>578.0</ele><time>2026-05-01T11:50:45Z</time></trkpt><trkpt lat="45.6263543719175" lon="8.111759102763532"><ele>578.0</ele><time>2026-05-01T11:50:46Z</time></trkpt><trkpt lat="45.626401165959244" lon="8.11191270476075"><ele>578.0</ele><time>2026-05-01T11:50:47Z</time></trkpt><trkpt lat="45.6264560598113" lon="8.11209896922581"><ele>578.0</ele><time>2026-05-01T11:50:48Z</time></trkpt><trkpt lat="45.62651751292813" lon="8.112286973186444"><ele>578.0</ele><time>2026-05-01T11:50:49Z</time></trkpt><trkpt lat="45.626570032324054" lon="8.112446887554954"><ele>574.5</ele><time>2026-05-01T11:50:50Z</time></trkpt><trkpt lat="45.62662697755901" lon="8.112597419394058"><ele>571.0</ele><time>2026-05-01T11:50:51Z</time></trkpt><trkpt lat="45.626633067169585" lon="8.11277876727692"><ele>567.5</ele><time>2026-05-01T11:50:52Z</time></trkpt><trkpt lat="45.626650883242334" lon="8.11297383833195"><ele>564.0</ele><time>2026-05-01T11:50:53Z</time></trkpt><trkpt lat="45.62665951280239" lon="8.11317813704573"><ele>561.6666666666666</ele><time>2026-05-01T11:50:54Z</time></trkpt><trkpt lat="45.62670136307863" lon="8.113387578041072"><ele>559.3333333333333</ele><time>2026-05-01T11:50:55Z</time></trkpt><trkpt lat="45.6267684999313" lon="8.113597756515786"><ele>557.0</ele><time>2026-05-01T11:50:56Z</time></trkpt><trkpt lat="45.626833839784176" lon="8.113798620202461"><ele>557.0</ele><time>2026-05-01T11:50:57Z</time></trkpt><trkpt lat="45.62689101835573" lon="8.11398521867341"><ele>557.0</ele><time>2026-05-01T11:50:58Z</time></trkpt><trkpt lat="45.62694800300193" lon="8.114179785324867"><ele>557.0</ele><time>2026-05-01T11:50:59Z</time></trkpt><trkpt lat="45.6269912145021" lon="8.114382783817815"><ele>557.0</ele><time>2026-05-01T11:51:00Z</time></trkpt><trkpt lat="45.62698976681049" lon="8.114592697237999"><ele>555.75</ele><time>2026-05-01T11:51:01Z</time></trkpt><trkpt lat="45.62698560350384" lon="8.114788392290574"><ele>554.5</ele><time>2026-05-01T11:51:02Z</time></trkpt><trkpt lat="45.62697658117955" lon="8.114978804577005"><ele>553.25</ele><time>2026-05-01T11:51:03Z</time></trkpt><trkpt lat="45.62698955676341" lon="8.115144283072212"><ele>552.0</ele><time>2026-05-01T11:51:04Z</time></trkpt><trkpt lat="45.626996204957884" lon="8.115278752650266"><ele>556.0</ele><time>2026-05-01T11:51:05Z</time></trkpt><trkpt lat="45.627019084505996" lon="8.11543179635672"><ele>560.0</ele><time>2026-05-01T11:51:06Z</time></trkpt><trkpt lat="45.62705894154183" lon="8.115610279516844"><ele>564.0</ele><time>2026-05-01T11:51:07Z</time></trkpt><trkpt lat="45.62710869285436" lon="8.115796299323328"><ele>568.0</ele><time>2026-05-01T11:51:08Z</time></trkpt><trkpt lat="45.627171839201964" lon="8.115964318953296"><ele>568.0</ele><time>2026-05-01T11:51:09Z</time></trkpt><trkpt lat="45.6272493119576" lon="8.11611080517775"><ele>568.0</ele><time>2026-05-01T11:51:10Z</time></trkpt><trkpt lat="45.62732631586676" lon="8.116240525264326"><ele>568.0</ele><time>2026-05-01T11:51:11Z</time></trkpt><trkpt lat="45.627376090976426" lon="8.116373578098006"><ele>568.0</ele><time>2026-05-01T11:51:12Z</time></trkpt><trkpt lat="45.62740599703086" lon="8.116534570824625"><ele>566.0</ele><time>2026-05-01T11:51:13Z</time></trkpt><trkpt lat="45.62738482685967" lon="8.116697905431197"><ele>564.0</ele><time>2026-05-01T11:51:14Z</time></trkpt><trkpt lat="45.62737725635982" lon="8.116844987360233"><ele>562.0</ele><time>2026-05-01T11:51:15Z</time></trkpt><trkpt lat="45.62739510953656" lon="8.116985292258212"><ele>560.0</ele><time>2026-05-01T11:51:16Z</time></trkpt><trkpt lat="45.62741510011113" lon="8.117128641210558"><ele>558.0</ele><time>2026-05-01T11:51:17Z</time></trkpt><trkpt lat="45.627457913179775" lon="8.11724604127742"><ele>558.0</ele><time>2026-05-01T11:51:18Z</time></trkpt><trkpt lat="45.62752947526247" lon="8.117360478609283"><ele>558.0</ele><time>2026-05-01T11:51:19Z</time></trkpt><trkpt lat="45.62762300576842" lon="8.117468118701611"><ele>558.0</ele><time>2026-05-01T11:51:20Z</time></trkpt><trkpt lat="45.62772458896959" lon="8.117532955252548"><ele>558.0</ele><time>2026-05-01T11:51:21Z</time></trkpt><trkpt lat="45.62783218660476" lon="8.117558151333341"><ele>558.0</ele><time>2026-05-01T11:51:22Z</time></trkpt><trkpt lat="45.62793173450464" lon="8.117515360933679"><ele>559.8</ele><time>2026-05-01T11:51:23Z</time></trkpt><trkpt lat="45.628008367563886" lon="8.117452686081823"><ele>561.5999999999999</ele><time>2026-05-01T11:51:24Z</time></trkpt><trkpt lat="45.628090597391356" lon="8.117378105110788"><ele>563.4000000000001</ele><time>2026-05-01T11:51:25Z</time></trkpt><trkpt lat="45.62818383904017" lon="8.117304853208047"><ele>565.2</ele><time>2026-05-01T11:51:26Z</time></trkpt><trkpt lat="45.62827306817219" lon="8.117263995286624"><ele>567.0</ele><time>2026-05-01T11:51:27Z</time></trkpt><trkpt lat="45.62838842027857" lon="8.11730422617209"><ele>567.0</ele><time>2026-05-01T11:51:28Z</time></trkpt><trkpt lat="45.62852256859775" lon="8.117295967713435"><ele>567.0</ele><time>2026-05-01T11:51:29Z</time></trkpt><trkpt lat="45.62866559710092" lon="8.117274908621125"><ele>567.0</ele><time>2026-05-01T11:51:30Z</time></trkpt><trkpt lat="45.62879865617188" lon="8.117224004173329"><ele>567.0</ele><time>2026-05-01T11:51:31Z</time></trkpt><trkpt lat="45.62890819729435" lon="8.117186544569998"><ele>566.25</ele><time>2026-05-01T11:51:32Z</time></trkpt><trkpt lat="45.62900260312387" lon="8.117212227848931"><ele>565.5</ele><time>2026-05-01T11:51:33Z</time></trkpt><trkpt lat="45.62908831007597" lon="8.117300953193505"><ele>564.75</ele><time>2026-05-01T11:51:34Z</time></trkpt><trkpt lat="45.62917290573818" lon="8.117410520528674"><ele>564.0</ele><time>2026-05-01T11:51:35Z</time></trkpt><trkpt lat="45.62927328245793" lon="8.117560425212815"><ele>565.75</ele><time>2026-05-01T11:51:36Z</time></trkpt><trkpt lat="45.62936502189103" lon="8.117735001270667"><ele>567.5</ele><time>2026-05-01T11:51:37Z</time></trkpt><trkpt lat="45.629442918417155" lon="8.117912632222303"><ele>569.25</ele><time>2026-05-01T11:51:38Z</time></trkpt><trkpt lat="45.62951482275279" lon="8.118086653197349"><ele>571.0</ele><time>2026-05-01T11:51:39Z</time></trkpt><trkpt lat="45.629540942612756" lon="8.118251668212865"><ele>565.8</ele><time>2026-05-01T11:51:40Z</time></trkpt><trkpt lat="45.629565798324855" lon="8.118402477503677"><ele>560.6</ele><time>2026-05-01T11:51:41Z</time></trkpt><trkpt lat="45.6296074921769" lon="8.118528229615608"><ele>555.4</ele><time>2026-05-01T11:51:42Z</time></trkpt><trkpt lat="45.62965613282788" lon="8.11864031589373"><ele>550.2</ele><time>2026-05-01T11:51:43Z</time></trkpt><trkpt lat="45.62973218611527" lon="8.118728856184118"><ele>545.0</ele><time>2026-05-01T11:51:44Z</time></trkpt><trkpt lat="45.62984314103047" lon="8.118738100905373"><ele>545.0</ele><time>2026-05-01T11:51:45Z</time></trkpt><trkpt lat="45.62995781142617" lon="8.118747331945928"><ele>545.0</ele><time>2026-05-01T11:51:46Z</time></trkpt><trkpt lat="45.63009742120547" lon="8.118768991115596"><ele>545.0</ele><time>2026-05-01T11:51:47Z</time></trkpt><trkpt lat="45.63024937620071" lon="8.118783866771764"><ele>545.0</ele><time>2026-05-01T11:51:48Z</time></trkpt><trkpt lat="45.63040212906497" lon="8.118844027680097"><ele>548.25</ele><time>2026-05-01T11:51:49Z</time></trkpt><trkpt lat="45.63054219784895" lon="8.118910161468765"><ele>551.5</ele><time>2026-05-01T11:51:50Z</time></trkpt><trkpt lat="45.630658590788805" lon="8.118987675497362"><ele>554.75</ele><time>2026-05-01T11:51:51Z</time></trkpt><trkpt lat="45.630751986895554" lon="8.119059145564995"><ele>558.0</ele><time>2026-05-01T11:51:52Z</time></trkpt><trkpt lat="45.63083731446345" lon="8.119145170764998"><ele>550.25</ele><time>2026-05-01T11:51:53Z</time></trkpt><trkpt lat="45.6308965630387" lon="8.119261729298703"><ele>542.5</ele><time>2026-05-01T11:51:54Z</time></trkpt><trkpt lat="45.63095504655692" lon="8.119398563200708"><ele>534.75</ele><time>2026-05-01T11:51:55Z</time></trkpt><trkpt lat="45.63101605971696" lon="8.119570676644194"><ele>527.0</ele><time>2026-05-01T11:51:56Z</time></trkpt><trkpt lat="45.63107737203013" lon="8.11973419396147"><ele>526.4</ele><time>2026-05-01T11:51:57Z</time></trkpt><trkpt lat="45.63114641330895" lon="8.119869493834287"><ele>525.8000000000001</ele><time>2026-05-01T11:51:58Z</time></trkpt><trkpt lat="45.63122709045658" lon="8.1199683381039"><ele>525.2</ele><time>2026-05-01T11:51:59Z</time></trkpt><trkpt lat="45.63131347317113" lon="8.120046284728652"><ele>524.6</ele><time>2026-05-01T11:52:00Z</time></trkpt><trkpt lat="45.63139370192197" lon="8.120142828156183"><ele>524.0</ele><time>2026-05-01T11:52:01Z</time></trkpt><trkpt lat="45.63148618415911" lon="8.120224722668151"><ele>524.0</ele><time>2026-05-01T11:52:02Z</time></trkpt><trkpt lat="45.63158188021834" lon="8.120305916510711"><ele>524.0</ele><time>2026-05-01T11:52:03Z</time></trkpt><trkpt lat="45.631671007417985" lon="8.120383244587948"><ele>524.0</ele><time>2026-05-01T11:52:04Z</time></trkpt><trkpt lat="45.63175166431672" lon="8.120460661442214"><ele>524.0</ele><time>2026-05-01T11:52:05.001Z</time></trkpt><trkpt lat="45.63182404785769" lon="8.120546249698004"><ele>524.0</ele><time>2026-05-01T11:52:06.001Z</time></trkpt><trkpt lat="45.6318892437515" lon="8.120661823120505"><ele>523.2</ele><time>2026-05-01T11:52:07.001Z</time></trkpt><trkpt lat="45.63195775775511" lon="8.120793012357456"><ele>522.4</ele><time>2026-05-01T11:52:08.001Z</time></trkpt><trkpt lat="45.63204046700909" lon="8.12089644971215"><ele>521.6</ele><time>2026-05-01T11:52:09.001Z</time></trkpt><trkpt lat="45.632115872884874" lon="8.12101279343262"><ele>520.8</ele><time>2026-05-01T11:52:10.001Z</time></trkpt><trkpt lat="45.63219767906583" lon="8.121098303377986"><ele>520.0</ele><time>2026-05-01T11:52:11.001Z</time></trkpt><trkpt lat="45.632272457473015" lon="8.121176431245775"><ele>520.0</ele><time>2026-05-01T11:52:12.001Z</time></trkpt><trkpt lat="45.63231158608841" lon="8.121273877419393"><ele>520.0</ele><time>2026-05-01T11:52:13.001Z</time></trkpt><trkpt lat="45.63232919365162" lon="8.12136116276064"><ele>520.0</ele><time>2026-05-01T11:52:14.001Z</time></trkpt><trkpt lat="45.63234785388251" lon="8.121471463300445"><ele>520.0</ele><time>2026-05-01T11:52:15.001Z</time></trkpt><trkpt lat="45.63235971688008" lon="8.121611244531234"><ele>520.0</ele><time>2026-05-01T11:52:16.001Z</time></trkpt><trkpt lat="45.632393741444666" lon="8.121771640739773"><ele>520.0</ele><time>2026-05-01T11:52:17.001Z</time></trkpt><trkpt lat="45.632447909589395" lon="8.121936305721652"><ele>518.5</ele><time>2026-05-01T11:52:18.001Z</time></trkpt><trkpt lat="45.6325188655687" lon="8.122116260501778"><ele>517.0</ele><time>2026-05-01T11:52:19.001Z</time></trkpt><trkpt lat="45.632592392010544" lon="8.122293222388326"><ele>515.5</ele><time>2026-05-01T11:52:20.001Z</time></trkpt><trkpt lat="45.632660280121485" lon="8.122457316984596"><ele>514.0</ele><time>2026-05-01T11:52:21.001Z</time></trkpt><trkpt lat="45.6327009259449" lon="8.122626640103796"><ele>513.5</ele><time>2026-05-01T11:52:22.001Z</time></trkpt><trkpt lat="45.63274274494971" lon="8.122801124983548"><ele>513.0</ele><time>2026-05-01T11:52:23.001Z</time></trkpt><trkpt lat="45.63278917379291" lon="8.122963166443"><ele>512.5</ele><time>2026-05-01T11:52:24.001Z</time></trkpt><trkpt lat="45.63284263311887" lon="8.123108842233908"><ele>512.0</ele><time>2026-05-01T11:52:25.001Z</time></trkpt><trkpt lat="45.632886210013936" lon="8.12325502608089"><ele>515.6</ele><time>2026-05-01T11:52:26.001Z</time></trkpt><trkpt lat="45.632912607020664" lon="8.123413397547186"><ele>519.2</ele><time>2026-05-01T11:52:27.001Z</time></trkpt><trkpt lat="45.632955608642064" lon="8.123551132058608"><ele>522.8</ele><time>2026-05-01T11:52:28.001Z</time></trkpt><trkpt lat="45.63297533443972" lon="8.12367883027156"><ele>526.4</ele><time>2026-05-01T11:52:29.001Z</time></trkpt><trkpt lat="45.633010727767676" lon="8.123778717764496"><ele>530.0</ele><time>2026-05-01T11:52:30.001Z</time></trkpt><trkpt lat="45.633082358982065" lon="8.123866666054152"><ele>530.0</ele><time>2026-05-01T11:52:31.001Z</time></trkpt><trkpt lat="45.6331780263833" lon="8.123938737886048"><ele>530.0</ele><time>2026-05-01T11:52:32.001Z</time></trkpt><trkpt lat="45.633294977451115" lon="8.12399911890793"><ele>530.0</ele><time>2026-05-01T11:52:33Z</time></trkpt><trkpt lat="45.63343496422595" lon="8.12405217792233"><ele>530.0</ele><time>2026-05-01T11:52:34Z</time></trkpt><trkpt lat="45.63358503747003" lon="8.124121554649467"><ele>527.3333333333333</ele><time>2026-05-01T11:52:35Z</time></trkpt><trkpt lat="45.63375442874171" lon="8.124190163418499"><ele>524.6666666666666</ele><time>2026-05-01T11:52:36Z</time></trkpt><trkpt lat="45.633921234247374" lon="8.12424882632976"><ele>522.0</ele><time>2026-05-01T11:52:37Z</time></trkpt><trkpt lat="45.63409380714111" lon="8.124310944757317"><ele>522.0</ele><time>2026-05-01T11:52:38Z</time></trkpt><trkpt lat="45.63425467428344" lon="8.124376736681148"><ele>522.0</ele><time>2026-05-01T11:52:39Z</time></trkpt><trkpt lat="45.63440458732844" lon="8.12442586220762"><ele>522.0</ele><time>2026-05-01T11:52:40Z</time></trkpt><trkpt lat="45.63453469060717" lon="8.124477309734717"><ele>524.8000000000001</ele><time>2026-05-01T11:52:41Z</time></trkpt><trkpt lat="45.63465575344992" lon="8.124515513263887"><ele>527.6</ele><time>2026-05-01T11:52:42Z</time></trkpt><trkpt lat="45.634768201070315" lon="8.124551316830445"><ele>530.4000000000001</ele><time>2026-05-01T11:52:43Z</time></trkpt><trkpt lat="45.634850593594955" lon="8.124624984277483"><ele>533.2</ele><time>2026-05-01T11:52:44Z</time></trkpt><trkpt lat="45.63493255264801" lon="8.124697686785266"><ele>536.0</ele><time>2026-05-01T11:52:45Z</time></trkpt><trkpt lat="45.63502287580187" lon="8.124804831921749"><ele>536.0</ele><time>2026-05-01T11:52:46Z</time></trkpt><trkpt lat="45.63514426913119" lon="8.124869761861195"><ele>536.0</ele><time>2026-05-01T11:52:47Z</time></trkpt><trkpt lat="45.635277019848786" lon="8.124947455937644"><ele>536.0</ele><time>2026-05-01T11:52:48Z</time></trkpt><trkpt lat="45.63542697246173" lon="8.124998927399295"><ele>536.0</ele><time>2026-05-01T11:52:49Z</time></trkpt><trkpt lat="45.63555483276907" lon="8.125030095946112"><ele>528.8</ele><time>2026-05-01T11:52:50Z</time></trkpt><trkpt lat="45.635670019796436" lon="8.125053795104797"><ele>521.6</ele><time>2026-05-01T11:52:51Z</time></trkpt><trkpt lat="45.63576083934081" lon="8.12506287951832"><ele>514.4</ele><time>2026-05-01T11:52:52Z</time></trkpt><trkpt lat="45.63583512477231" lon="8.125052954976395"><ele>507.2</ele><time>2026-05-01T11:52:53Z</time></trkpt><trkpt lat="45.63595010322912" lon="8.124964577881318"><ele>500.0</ele><time>2026-05-01T11:52:55Z</time></trkpt><trkpt lat="45.6359980997759" lon="8.12490237267418"><ele>501.2</ele><time>2026-05-01T11:52:56Z</time></trkpt><trkpt lat="45.63605272582876" lon="8.124853273976363"><ele>502.4</ele><time>2026-05-01T11:52:57Z</time></trkpt><trkpt lat="45.636146890043605" lon="8.124809405573215"><ele>503.6</ele><time>2026-05-01T11:52:59Z</time></trkpt><trkpt lat="45.63624058431015" lon="8.12483394493915"><ele>504.8</ele><time>2026-05-01T11:53:05Z</time></trkpt><trkpt lat="45.63635747965758" lon="8.12486818481457"><ele>506.0</ele><time>2026-05-01T11:53:07Z</time></trkpt><trkpt lat="45.636429365719586" lon="8.124908999937988"><ele>506.0</ele><time>2026-05-01T11:53:08Z</time></trkpt><trkpt lat="45.636512529989815" lon="8.124985270091447"><ele>506.0</ele><time>2026-05-01T11:53:09Z</time></trkpt><trkpt lat="45.63660381785721" lon="8.125080951258637"><ele>506.0</ele><time>2026-05-01T11:53:10Z</time></trkpt><trkpt lat="45.63670611886822" lon="8.125159818678345"><ele>506.0</ele><time>2026-05-01T11:53:11Z</time></trkpt><trkpt lat="45.636827117414065" lon="8.125225274170546"><ele>506.0</ele><time>2026-05-01T11:53:12Z</time></trkpt><trkpt lat="45.63695229143523" lon="8.125282513107479"><ele>506.0</ele><time>2026-05-01T11:53:13Z</time></trkpt><trkpt lat="45.63706215902659" lon="8.125322398266933"><ele>506.0</ele><time>2026-05-01T11:53:14Z</time></trkpt><trkpt lat="45.637152797762106" lon="8.125351128238949"><ele>506.0</ele><time>2026-05-01T11:53:15Z</time></trkpt><trkpt lat="45.63722490029765" lon="8.125369453608782"><ele>506.0</ele><time>2026-05-01T11:53:16Z</time></trkpt><trkpt lat="45.63729066771558" lon="8.125396926637576"><ele>507.4</ele><time>2026-05-01T11:53:17Z</time></trkpt><trkpt lat="45.63733596675738" lon="8.125488831595636"><ele>508.8</ele><time>2026-05-01T11:53:18Z</time></trkpt><trkpt lat="45.63737751338179" lon="8.125592419439148"><ele>510.19999999999993</ele><time>2026-05-01T11:53:19Z</time></trkpt><trkpt lat="45.637398003479476" lon="8.12573353312196"><ele>511.59999999999997</ele><time>2026-05-01T11:53:20Z</time></trkpt><trkpt lat="45.637408710956265" lon="8.125906492790076"><ele>513.0</ele><time>2026-05-01T11:53:21Z</time></trkpt><trkpt lat="45.637444475091336" lon="8.126117507299362"><ele>513.0</ele><time>2026-05-01T11:53:22Z</time></trkpt><trkpt lat="45.63747168877723" lon="8.126318568956892"><ele>513.0</ele><time>2026-05-01T11:53:23Z</time></trkpt><trkpt lat="45.63749506811501" lon="8.12648405146453"><ele>513.0</ele><time>2026-05-01T11:53:24Z</time></trkpt><trkpt lat="45.63753705304653" lon="8.126635056268874"><ele>513.0</ele><time>2026-05-01T11:53:25Z</time></trkpt><trkpt lat="45.63756372211279" lon="8.126785539782668"><ele>511.2</ele><time>2026-05-01T11:53:26Z</time></trkpt><trkpt lat="45.63755354752465" lon="8.126924534527301"><ele>509.4</ele><time>2026-05-01T11:53:27Z</time></trkpt><trkpt lat="45.63752787769901" lon="8.127054195096385"><ele>507.59999999999997</ele><time>2026-05-01T11:53:28Z</time></trkpt><trkpt lat="45.63748779275297" lon="8.127180926293617"><ele>505.79999999999995</ele><time>2026-05-01T11:53:29Z</time></trkpt><trkpt lat="45.63743403199807" lon="8.127286573591553"><ele>504.0</ele><time>2026-05-01T11:53:30Z</time></trkpt><trkpt lat="45.63737122526406" lon="8.127375230705999"><ele>503.6666666666667</ele><time>2026-05-01T11:53:31Z</time></trkpt><trkpt lat="45.637322723820844" lon="8.127469407338253"><ele>503.33333333333337</ele><time>2026-05-01T11:53:32Z</time></trkpt><trkpt lat="45.63730454171188" lon="8.12757791543892"><ele>503.0</ele><time>2026-05-01T11:53:33Z</time></trkpt><trkpt lat="45.63729144035843" lon="8.127689286438722"><ele>502.6666666666667</ele><time>2026-05-01T11:53:34Z</time></trkpt><trkpt lat="45.63734516688995" lon="8.12779297113558"><ele>502.33333333333337</ele><time>2026-05-01T11:53:35Z</time></trkpt><trkpt lat="45.63739974431712" lon="8.127888121216271"><ele>502.0</ele><time>2026-05-01T11:53:36Z</time></trkpt><trkpt lat="45.637482087443615" lon="8.127953917947305"><ele>502.0</ele><time>2026-05-01T11:53:37Z</time></trkpt><trkpt lat="45.637588441227415" lon="8.127984539689663"><ele>502.0</ele><time>2026-05-01T11:53:38Z</time></trkpt><trkpt lat="45.637703905219816" lon="8.12799021426581"><ele>502.0</ele><time>2026-05-01T11:53:39Z</time></trkpt><trkpt lat="45.63783474988704" lon="8.127953031151444"><ele>502.0</ele><time>2026-05-01T11:53:40Z</time></trkpt><trkpt lat="45.63796720902111" lon="8.127891743800124"><ele>509.33333333333337</ele><time>2026-05-01T11:53:41Z</time></trkpt><trkpt lat="45.63811067395726" lon="8.127787729405712"><ele>516.6666666666666</ele><time>2026-05-01T11:53:42Z</time></trkpt><trkpt lat="45.63825416985816" lon="8.127663116749106"><ele>524.0</ele><time>2026-05-01T11:53:43Z</time></trkpt><trkpt lat="45.63837230372972" lon="8.127566310589451"><ele>524.0</ele><time>2026-05-01T11:53:44Z</time></trkpt><trkpt lat="45.638460829799314" lon="8.127499756486"><ele>524.0</ele><time>2026-05-01T11:53:45Z</time></trkpt><trkpt lat="45.638530869905864" lon="8.127483775491923"><ele>524.0</ele><time>2026-05-01T11:53:46Z</time></trkpt><trkpt lat="45.6386043144555" lon="8.127498095055907"><ele>524.0</ele><time>2026-05-01T11:53:47Z</time></trkpt><trkpt lat="45.63868929676125" lon="8.127559091061446"><ele>524.0</ele><time>2026-05-01T11:53:48Z</time></trkpt><trkpt lat="45.63879022936145" lon="8.127657418398185"><ele>525.4</ele><time>2026-05-01T11:53:49Z</time></trkpt><trkpt lat="45.63889353673164" lon="8.127780499644189"><ele>526.8</ele><time>2026-05-01T11:53:50Z</time></trkpt><trkpt lat="45.638970358850266" lon="8.127865986592496"><ele>528.2</ele><time>2026-05-01T11:53:51Z</time></trkpt><trkpt lat="45.63904134846599" lon="8.12793159322336"><ele>529.6</ele><time>2026-05-01T11:53:52Z</time></trkpt><trkpt lat="45.63911662893967" lon="8.127959579422525"><ele>531.0</ele><time>2026-05-01T11:53:53Z</time></trkpt><trkpt lat="45.63920210218457" lon="8.127945223844907"><ele>531.0</ele><time>2026-05-01T11:53:54Z</time></trkpt><trkpt lat="45.63927978118624" lon="8.127888810538854"><ele>531.0</ele><time>2026-05-01T11:53:55Z</time></trkpt><trkpt lat="45.63935255556042" lon="8.127770445505593"><ele>531.0</ele><time>2026-05-01T11:53:56Z</time></trkpt><trkpt lat="45.63944155739542" lon="8.127626338926639"><ele>531.0</ele><time>2026-05-01T11:53:57Z</time></trkpt><trkpt lat="45.639558614530074" lon="8.127467580676946"><ele>535.6666666666666</ele><time>2026-05-01T11:53:58Z</time></trkpt><trkpt lat="45.63969843609003" lon="8.127335371364312"><ele>540.3333333333333</ele><time>2026-05-01T11:53:59Z</time></trkpt><trkpt lat="45.639849478190065" lon="8.127203799273603"><ele>545.0</ele><time>2026-05-01T11:54:00Z</time></trkpt><trkpt lat="45.63998632168213" lon="8.127069976178399"><ele>545.0</ele><time>2026-05-01T11:54:01Z</time></trkpt><trkpt lat="45.640115470265314" lon="8.126927655291654"><ele>545.0</ele><time>2026-05-01T11:54:02Z</time></trkpt><trkpt lat="45.64022742192415" lon="8.126773025152747"><ele>545.0</ele><time>2026-05-01T11:54:03Z</time></trkpt><trkpt lat="45.640339774623484" lon="8.126634992675932"><ele>544.5</ele><time>2026-05-01T11:54:04Z</time></trkpt><trkpt lat="45.64045910438392" lon="8.126533210576177"><ele>544.0</ele><time>2026-05-01T11:54:05Z</time></trkpt><trkpt lat="45.640574047132425" lon="8.12643549063384"><ele>543.5</ele><time>2026-05-01T11:54:06Z</time></trkpt><trkpt lat="45.640678851861495" lon="8.126303714689358"><ele>543.0</ele><time>2026-05-01T11:54:07Z</time></trkpt><trkpt lat="45.64078650450988" lon="8.12610567226514"><ele>543.0</ele><time>2026-05-01T11:54:08Z</time></trkpt><trkpt lat="45.640910287528655" lon="8.125860968468325"><ele>543.0</ele><time>2026-05-01T11:54:09Z</time></trkpt><trkpt lat="45.64103540767331" lon="8.125627249867232"><ele>543.0</ele><time>2026-05-01T11:54:10.001Z</time></trkpt><trkpt lat="45.64116084373253" lon="8.125422526418328"><ele>539.6666666666666</ele><time>2026-05-01T11:54:11.001Z</time></trkpt><trkpt lat="45.641272738821705" lon="8.125263893683814"><ele>536.3333333333333</ele><time>2026-05-01T11:54:12.001Z</time></trkpt><trkpt lat="45.64138469236017" lon="8.125125801619864"><ele>533.0</ele><time>2026-05-01T11:54:13.001Z</time></trkpt><trkpt lat="45.64150512584078" lon="8.125002038475703"><ele>538.5</ele><time>2026-05-01T11:54:14.001Z</time></trkpt><trkpt lat="45.641612692341944" lon="8.124883567644014"><ele>544.0</ele><time>2026-05-01T11:54:15Z</time></trkpt><trkpt lat="45.6416991252828" lon="8.124777392433232"><ele>549.5</ele><time>2026-05-01T11:54:16Z</time></trkpt><trkpt lat="45.64176865756712" lon="8.124663258356218"><ele>555.0</ele><time>2026-05-01T11:54:17Z</time></trkpt><trkpt lat="45.64182651478249" lon="8.124522297185452"><ele>555.0</ele><time>2026-05-01T11:54:18Z</time></trkpt><trkpt lat="45.641884219914274" lon="8.124353503820778"><ele>555.0</ele><time>2026-05-01T11:54:19Z</time></trkpt><trkpt lat="45.64193523328513" lon="8.124157223072913"><ele>555.0</ele><time>2026-05-01T11:54:20Z</time></trkpt><trkpt lat="45.641990062349024" lon="8.12396412888501"><ele>555.0</ele><time>2026-05-01T11:54:21Z</time></trkpt><trkpt lat="45.642038397011376" lon="8.123807084583548"><ele>553.75</ele><time>2026-05-01T11:54:22Z</time></trkpt><trkpt lat="45.64208688808665" lon="8.123683195215287"><ele>552.5</ele><time>2026-05-01T11:54:23Z</time></trkpt><trkpt lat="45.64224730389261" lon="8.12351237117"><ele>551.25</ele><time>2026-05-01T11:54:25Z</time></trkpt><trkpt lat="45.64234102935321" lon="8.123484668157573"><ele>550.0</ele><time>2026-05-01T11:54:26Z</time></trkpt><trkpt lat="45.642434850261196" lon="8.12351748335742"><ele>550.0</ele><time>2026-05-01T11:54:27Z</time></trkpt><trkpt lat="45.64251690772455" lon="8.123591911288797"><ele>550.0</ele><time>2026-05-01T11:54:28Z</time></trkpt><trkpt lat="45.642577548956" lon="8.123681365365353"><ele>550.0</ele><time>2026-05-01T11:54:29Z</time></trkpt><trkpt lat="45.64261427008898" lon="8.123794877032541"><ele>550.0</ele><time>2026-05-01T11:54:30Z</time></trkpt><trkpt lat="45.64262334753586" lon="8.12392640183438"><ele>550.0</ele><time>2026-05-01T11:54:31Z</time></trkpt><trkpt lat="45.64259850029815" lon="8.124103523759905"><ele>548.3333333333334</ele><time>2026-05-01T11:54:32Z</time></trkpt><trkpt lat="45.64255014453588" lon="8.124313592064505"><ele>546.6666666666666</ele><time>2026-05-01T11:54:33Z</time></trkpt><trkpt lat="45.64249077201402" lon="8.12456380366674"><ele>545.0</ele><time>2026-05-01T11:54:34Z</time></trkpt><trkpt lat="45.6424393512829" lon="8.124824962557316"><ele>547.0</ele><time>2026-05-01T11:54:35Z</time></trkpt><trkpt lat="45.64238852440767" lon="8.125069831389549"><ele>549.0</ele><time>2026-05-01T11:54:36Z</time></trkpt><trkpt lat="45.642342347234475" lon="8.12527377075323"><ele>551.0</ele><time>2026-05-01T11:54:37Z</time></trkpt><trkpt lat="45.64228709350968" lon="8.125445389726826"><ele>551.0</ele><time>2026-05-01T11:54:38Z</time></trkpt><trkpt lat="45.642193147957066" lon="8.125560748372285"><ele>551.0</ele><time>2026-05-01T11:54:39Z</time></trkpt><trkpt lat="45.64211508004581" lon="8.125693934979829"><ele>551.0</ele><time>2026-05-01T11:54:40Z</time></trkpt><trkpt lat="45.64202846142836" lon="8.125804856180203"><ele>551.0</ele><time>2026-05-01T11:54:41Z</time></trkpt><trkpt lat="45.641962315759166" lon="8.12594065161786"><ele>549.25</ele><time>2026-05-01T11:54:42Z</time></trkpt><trkpt lat="45.641914141584905" lon="8.126109863905253"><ele>547.5</ele><time>2026-05-01T11:54:43Z</time></trkpt><trkpt lat="45.64187028545085" lon="8.126310770703611"><ele>545.75</ele><time>2026-05-01T11:54:44Z</time></trkpt><trkpt lat="45.64182341042435" lon="8.126541050571184"><ele>544.0</ele><time>2026-05-01T11:54:45Z</time></trkpt><trkpt lat="45.64179876437367" lon="8.126754657848075"><ele>544.0</ele><time>2026-05-01T11:54:46Z</time></trkpt><trkpt lat="45.6417953228627" lon="8.126937811523948"><ele>544.0</ele><time>2026-05-01T11:54:47Z</time></trkpt><trkpt lat="45.64179920374096" lon="8.127087196949686"><ele>544.0</ele><time>2026-05-01T11:54:48Z</time></trkpt><trkpt lat="45.64177956413159" lon="8.127209486091322"><ele>544.0</ele><time>2026-05-01T11:54:49Z</time></trkpt><trkpt lat="45.64171573930308" lon="8.1273169422574"><ele>544.0</ele><time>2026-05-01T11:54:50Z</time></trkpt><trkpt lat="45.64162373279556" lon="8.127447379307231"><ele>550.6666666666667</ele><time>2026-05-01T11:54:51Z</time></trkpt><trkpt lat="45.64152273372324" lon="8.127589449616455"><ele>557.3333333333334</ele><time>2026-05-01T11:54:52Z</time></trkpt><trkpt lat="45.6414118226418" lon="8.127745262014386"><ele>564.0</ele><time>2026-05-01T11:54:53Z</time></trkpt><trkpt lat="45.64129429690259" lon="8.127894953439275"><ele>564.0</ele><time>2026-05-01T11:54:54Z</time></trkpt><trkpt lat="45.64118101661419" lon="8.128015083683131"><ele>564.0</ele><time>2026-05-01T11:54:55Z</time></trkpt><trkpt lat="45.64106084312826" lon="8.12810055341502"><ele>564.0</ele><time>2026-05-01T11:54:56Z</time></trkpt><trkpt lat="45.64093583737492" lon="8.128195304504017"><ele>564.0</ele><time>2026-05-01T11:54:57Z</time></trkpt><trkpt lat="45.640801806043726" lon="8.1283238873428"><ele>564.0</ele><time>2026-05-01T11:54:58Z</time></trkpt><trkpt lat="45.640684594965975" lon="8.128459335054375"><ele>564.0</ele><time>2026-05-01T11:54:59Z</time></trkpt><trkpt lat="45.64060670655024" lon="8.128585468690988"><ele>564.0</ele><time>2026-05-01T11:55:00Z</time></trkpt><trkpt lat="45.64054024760495" lon="8.128694560236772"><ele>564.0</ele><time>2026-05-01T11:55:01Z</time></trkpt><trkpt lat="45.64049589136886" lon="8.12880596832377"><ele>564.0</ele><time>2026-05-01T11:55:02Z</time></trkpt><trkpt lat="45.640462742082114" lon="8.128969624923696"><ele>564.0</ele><time>2026-05-01T11:55:03Z</time></trkpt><trkpt lat="45.64044412348401" lon="8.129154364500154"><ele>564.0</ele><time>2026-05-01T11:55:04Z</time></trkpt><trkpt lat="45.640416798402" lon="8.129311920018019"><ele>564.0</ele><time>2026-05-01T11:55:05Z</time></trkpt><trkpt lat="45.640367600950626" lon="8.12943832059508"><ele>561.8</ele><time>2026-05-01T11:55:06Z</time></trkpt><trkpt lat="45.6402948195596" lon="8.129557191525947"><ele>559.5999999999999</ele><time>2026-05-01T11:55:07Z</time></trkpt><trkpt lat="45.64019746974938" lon="8.12963211049753"><ele>557.4</ele><time>2026-05-01T11:55:08Z</time></trkpt><trkpt lat="45.640145902263676" lon="8.129750068484219"><ele>555.1999999999999</ele><time>2026-05-01T11:55:09Z</time></trkpt><trkpt lat="45.64011037658698" lon="8.129838315461464"><ele>553.0</ele><time>2026-05-01T11:55:10Z</time></trkpt><trkpt lat="45.640114706332355" lon="8.129948755228934"><ele>553.0</ele><time>2026-05-01T11:55:11Z</time></trkpt><trkpt lat="45.64017766718502" lon="8.130040205855693"><ele>553.0</ele><time>2026-05-01T11:55:12Z</time></trkpt><trkpt lat="45.640245551960206" lon="8.13010049638845"><ele>553.0</ele><time>2026-05-01T11:55:13Z</time></trkpt><trkpt lat="45.640325765111236" lon="8.130135602857019"><ele>553.0</ele><time>2026-05-01T11:55:14Z</time></trkpt><trkpt lat="45.64042611151863" lon="8.130145531544803"><ele>553.0</ele><time>2026-05-01T11:55:15Z</time></trkpt><trkpt lat="45.640523247715386" lon="8.130166518832295"><ele>557.1999999999999</ele><time>2026-05-01T11:55:16Z</time></trkpt><trkpt lat="45.64063428236351" lon="8.130216033348107"><ele>561.4</ele><time>2026-05-01T11:55:17Z</time></trkpt><trkpt lat="45.640749241237565" lon="8.130275653075769"><ele>565.5999999999999</ele><time>2026-05-01T11:55:18Z</time></trkpt><trkpt lat="45.64085383620916" lon="8.130298966619803"><ele>569.8</ele><time>2026-05-01T11:55:19Z</time></trkpt><trkpt lat="45.64094474993933" lon="8.130272292804744"><ele>574.0</ele><time>2026-05-01T11:55:20Z</time></trkpt><trkpt lat="45.641038404801165" lon="8.130208851689883"><ele>574.0</ele><time>2026-05-01T11:55:21Z</time></trkpt><trkpt lat="45.64112949525888" lon="8.130100960281808"><ele>574.0</ele><time>2026-05-01T11:55:22Z</time></trkpt><trkpt lat="45.641217385503936" lon="8.129953302823683"><ele>574.0</ele><time>2026-05-01T11:55:23Z</time></trkpt><trkpt lat="45.641308861288806" lon="8.129789664624624"><ele>574.0</ele><time>2026-05-01T11:55:24Z</time></trkpt><trkpt lat="45.64139205699756" lon="8.129621618538806"><ele>577.75</ele><time>2026-05-01T11:55:25Z</time></trkpt><trkpt lat="45.64146621106337" lon="8.129492820109757"><ele>581.5</ele><time>2026-05-01T11:55:26Z</time></trkpt><trkpt lat="45.64155200845423" lon="8.129403747711454"><ele>585.25</ele><time>2026-05-01T11:55:27Z</time></trkpt><trkpt lat="45.641671703271975" lon="8.129337565003759"><ele>589.0</ele><time>2026-05-01T11:55:28Z</time></trkpt><trkpt lat="45.641824617363085" lon="8.12926696321415"><ele>586.6666666666667</ele><time>2026-05-01T11:55:29Z</time></trkpt><trkpt lat="45.64199537232829" lon="8.129201621786411"><ele>584.3333333333334</ele><time>2026-05-01T11:55:30Z</time></trkpt><trkpt lat="45.64218027782603" lon="8.129143049546153"><ele>582.0</ele><time>2026-05-01T11:55:31Z</time></trkpt><trkpt lat="45.64236994774261" lon="8.129080618487508"><ele>590.6666666666666</ele><time>2026-05-01T11:55:32Z</time></trkpt><trkpt lat="45.642551045450375" lon="8.129016286098231"><ele>599.3333333333333</ele><time>2026-05-01T11:55:33Z</time></trkpt><trkpt lat="45.64271258165554" lon="8.128936598314668"><ele>608.0</ele><time>2026-05-01T11:55:34Z</time></trkpt><trkpt lat="45.64284570603249" lon="8.128863181718106"><ele>609.25</ele><time>2026-05-01T11:55:35Z</time></trkpt><trkpt lat="45.64295960561949" lon="8.128815693890981"><ele>610.5</ele><time>2026-05-01T11:55:36Z</time></trkpt><trkpt lat="45.64307483842424" lon="8.128796616435041"><ele>611.75</ele><time>2026-05-01T11:55:37Z</time></trkpt><trkpt lat="45.64321462966567" lon="8.128811863725385"><ele>613.0</ele><time>2026-05-01T11:55:38Z</time></trkpt><trkpt lat="45.64337031083439" lon="8.128836284772696"><ele>613.0</ele><time>2026-05-01T11:55:39Z</time></trkpt><trkpt lat="45.64351694548868" lon="8.128849696048285"><ele>613.0</ele><time>2026-05-01T11:55:40Z</time></trkpt><trkpt lat="45.64363955043242" lon="8.128833758200296"><ele>613.0</ele><time>2026-05-01T11:55:41Z</time></trkpt><trkpt lat="45.64375999183718" lon="8.128785781907375"><ele>613.0</ele><time>2026-05-01T11:55:42Z</time></trkpt><trkpt lat="45.64390524228122" lon="8.128699016496489"><ele>611.3333333333334</ele><time>2026-05-01T11:55:43Z</time></trkpt><trkpt lat="45.64406718280247" lon="8.128594780599464"><ele>609.6666666666666</ele><time>2026-05-01T11:55:44Z</time></trkpt><trkpt lat="45.64424612252285" lon="8.128525195991713"><ele>608.0</ele><time>2026-05-01T11:55:45Z</time></trkpt><trkpt lat="45.64442424871001" lon="8.128456748495037"><ele>607.0</ele><time>2026-05-01T11:55:46Z</time></trkpt><trkpt lat="45.64460333445151" lon="8.128417951301726"><ele>606.0</ele><time>2026-05-01T11:55:47Z</time></trkpt><trkpt lat="45.64476091459225" lon="8.128420358405807"><ele>605.0</ele><time>2026-05-01T11:55:48Z</time></trkpt><trkpt lat="45.64488110795846" lon="8.128406846408524"><ele>605.0</ele><time>2026-05-01T11:55:49Z</time></trkpt><trkpt lat="45.64496505988152" lon="8.12842653978985"><ele>605.0</ele><time>2026-05-01T11:55:50Z</time></trkpt><trkpt lat="45.64503415785888" lon="8.128452939738013"><ele>605.0</ele><time>2026-05-01T11:55:51Z</time></trkpt><trkpt lat="45.64509741210663" lon="8.12850105474216"><ele>605.0</ele><time>2026-05-01T11:55:52Z</time></trkpt><trkpt lat="45.645146677974466" lon="8.12859382082155"><ele>605.0</ele><time>2026-05-01T11:55:53Z</time></trkpt><trkpt lat="45.645170807247645" lon="8.128700102576992"><ele>605.0</ele><time>2026-05-01T11:55:54Z</time></trkpt><trkpt lat="45.64517222322069" lon="8.1288243549751"><ele>605.0</ele><time>2026-05-01T11:55:55Z</time></trkpt><trkpt lat="45.645135159475835" lon="8.128943895279011"><ele>605.0</ele><time>2026-05-01T11:55:56Z</time></trkpt><trkpt lat="45.64507445891344" lon="8.129052065471434"><ele>605.0</ele><time>2026-05-01T11:55:57Z</time></trkpt><trkpt lat="45.64497127688521" lon="8.129147742751574"><ele>605.0</ele><time>2026-05-01T11:55:58Z</time></trkpt><trkpt lat="45.64484096798975" lon="8.129232898366501"><ele>605.25</ele><time>2026-05-01T11:55:59Z</time></trkpt><trkpt lat="45.64469292748717" lon="8.129317027772046"><ele>605.5</ele><time>2026-05-01T11:56:00Z</time></trkpt><trkpt lat="45.6445660113194" lon="8.129406545964732"><ele>605.75</ele><time>2026-05-01T11:56:01Z</time></trkpt><trkpt lat="45.644462553887784" lon="8.129479702744892"><ele>606.0</ele><time>2026-05-01T11:56:02Z</time></trkpt><trkpt lat="45.64437412587115" lon="8.129555536190146"><ele>605.2</ele><time>2026-05-01T11:56:03Z</time></trkpt><trkpt lat="45.64429913988297" lon="8.129640238694593"><ele>604.4000000000001</ele><time>2026-05-01T11:56:04Z</time></trkpt><trkpt lat="45.64422710983915" lon="8.12975433648685"><ele>603.6</ele><time>2026-05-01T11:56:05Z</time></trkpt><trkpt lat="45.644181063799884" lon="8.12990303883535"><ele>602.8000000000001</ele><time>2026-05-01T11:56:05.999Z</time></trkpt><trkpt lat="45.644136590142914" lon="8.130050023915597"><ele>602.0</ele><time>2026-05-01T11:56:06.999Z</time></trkpt><trkpt lat="45.64407395762833" lon="8.130163079095274"><ele>602.0</ele><time>2026-05-01T11:56:07.999Z</time></trkpt><trkpt lat="45.64399315789605" lon="8.130232669591104"><ele>602.0</ele><time>2026-05-01T11:56:08.999Z</time></trkpt><trkpt lat="45.64392216074301" lon="8.130277437765933"><ele>602.0</ele><time>2026-05-01T11:56:09.999Z</time></trkpt><trkpt lat="45.643873232017974" lon="8.130361751214497"><ele>602.0</ele><time>2026-05-01T11:56:10.999Z</time></trkpt><trkpt lat="45.64385641596278" lon="8.130474904590503"><ele>602.0</ele><time>2026-05-01T11:56:11.999Z</time></trkpt><trkpt lat="45.643878216571466" lon="8.13059671695824"><ele>602.0</ele><time>2026-05-01T11:56:12.999Z</time></trkpt><trkpt lat="45.64393512853761" lon="8.130713680074674"><ele>604.5</ele><time>2026-05-01T11:56:13.999Z</time></trkpt><trkpt lat="45.6439991964296" lon="8.130832304067662"><ele>607.0</ele><time>2026-05-01T11:56:14.999Z</time></trkpt><trkpt lat="45.64403846853095" lon="8.13096459183753"><ele>609.5</ele><time>2026-05-01T11:56:16Z</time></trkpt><trkpt lat="45.64401610735275" lon="8.131127468662354"><ele>612.0</ele><time>2026-05-01T11:56:17Z</time></trkpt><trkpt lat="45.644008993491745" lon="8.131315458753479"><ele>612.0</ele><time>2026-05-01T11:56:18Z</time></trkpt><trkpt lat="45.64397847660339" lon="8.131487312382673"><ele>612.0</ele><time>2026-05-01T11:56:19Z</time></trkpt><trkpt lat="45.6439579938433" lon="8.131622055450126"><ele>612.0</ele><time>2026-05-01T11:56:20Z</time></trkpt><trkpt lat="45.64395998277042" lon="8.131745768624409"><ele>612.0</ele><time>2026-05-01T11:56:21Z</time></trkpt><trkpt lat="45.643979823734064" lon="8.131857147057627"><ele>612.0</ele><time>2026-05-01T11:56:22Z</time></trkpt><trkpt lat="45.644024182926486" lon="8.131955055680422"><ele>611.2</ele><time>2026-05-01T11:56:23Z</time></trkpt><trkpt lat="45.6440913572231" lon="8.132032650948469"><ele>610.4000000000001</ele><time>2026-05-01T11:56:24Z</time></trkpt><trkpt lat="45.64418291182912" lon="8.132079797416905"><ele>609.5999999999999</ele><time>2026-05-01T11:56:25Z</time></trkpt><trkpt lat="45.64428818203211" lon="8.132088374531712"><ele>608.8</ele><time>2026-05-01T11:56:26Z</time></trkpt><trkpt lat="45.64439899231292" lon="8.132071107250697"><ele>608.0</ele><time>2026-05-01T11:56:27Z</time></trkpt><trkpt lat="45.64450974217715" lon="8.132040286682457"><ele>610.6</ele><time>2026-05-01T11:56:28Z</time></trkpt><trkpt lat="45.6446050339524" lon="8.132042335522398"><ele>613.1999999999999</ele><time>2026-05-01T11:56:29Z</time></trkpt><trkpt lat="45.64468994383111" lon="8.132109821548015"><ele>615.8</ele><time>2026-05-01T11:56:30Z</time></trkpt><trkpt lat="45.644757641511454" lon="8.132213930739706"><ele>618.4</ele><time>2026-05-01T11:56:31Z</time></trkpt><trkpt lat="45.64476954740481" lon="8.132364277066968"><ele>621.0</ele><time>2026-05-01T11:56:32Z</time></trkpt><trkpt lat="45.644817546525466" lon="8.132489631492444"><ele>621.0</ele><time>2026-05-01T11:56:33Z</time></trkpt><trkpt lat="45.644852952315404" lon="8.132619172947466"><ele>621.0</ele><time>2026-05-01T11:56:34Z</time></trkpt><trkpt lat="45.64492239174219" lon="8.13272468759933"><ele>621.0</ele><time>2026-05-01T11:56:35Z</time></trkpt><trkpt lat="45.64503005338666" lon="8.132819620675788"><ele>621.0</ele><time>2026-05-01T11:56:36Z</time></trkpt><trkpt lat="45.645152383794475" lon="8.132901950233556"><ele>621.0</ele><time>2026-05-01T11:56:37Z</time></trkpt><trkpt lat="45.64526739543325" lon="8.132945164555252"><ele>621.0</ele><time>2026-05-01T11:56:38Z</time></trkpt><trkpt lat="45.64537881424899" lon="8.132954349261153"><ele>621.0</ele><time>2026-05-01T11:56:39Z</time></trkpt><trkpt lat="45.64549863189191" lon="8.1329231171009"><ele>621.0</ele><time>2026-05-01T11:56:40Z</time></trkpt><trkpt lat="45.64563826592785" lon="8.132862685429544"><ele>623.4</ele><time>2026-05-01T11:56:41Z</time></trkpt><trkpt lat="45.645768910575796" lon="8.13278080359653"><ele>625.8</ele><time>2026-05-01T11:56:42Z</time></trkpt><trkpt lat="45.64587871777755" lon="8.13270228664377"><ele>628.1999999999999</ele><time>2026-05-01T11:56:43Z</time></trkpt><trkpt lat="45.64596141175209" lon="8.132647484021634"><ele>630.6</ele><time>2026-05-01T11:56:44Z</time></trkpt><trkpt lat="45.646044565075655" lon="8.132643747917607"><ele>633.0</ele><time>2026-05-01T11:56:45Z</time></trkpt><trkpt lat="45.646123166614736" lon="8.132704428576309"><ele>635.4</ele><time>2026-05-01T11:56:46Z</time></trkpt><trkpt lat="45.64618459786612" lon="8.132823174034348"><ele>637.8</ele><time>2026-05-01T11:56:47Z</time></trkpt><trkpt lat="45.64626482138096" lon="8.132926710089597"><ele>640.2</ele><time>2026-05-01T11:56:48Z</time></trkpt><trkpt lat="45.646349244189864" lon="8.13299631947671"><ele>642.6</ele><time>2026-05-01T11:56:49Z</time></trkpt><trkpt lat="45.64646187033904" lon="8.133026877900344"><ele>645.0</ele><time>2026-05-01T11:56:50Z</time></trkpt><trkpt lat="45.646601686251365" lon="8.13302982739674"><ele>645.0</ele><time>2026-05-01T11:56:51Z</time></trkpt><trkpt lat="45.64673448964872" lon="8.133011532686304"><ele>645.0</ele><time>2026-05-01T11:56:52Z</time></trkpt><trkpt lat="45.646852457016195" lon="8.132944848455086"><ele>645.0</ele><time>2026-05-01T11:56:53Z</time></trkpt><trkpt lat="45.646968835305266" lon="8.132853434021406"><ele>645.0</ele><time>2026-05-01T11:56:54Z</time></trkpt><trkpt lat="45.64708246663519" lon="8.13278808220887"><ele>646.75</ele><time>2026-05-01T11:56:55Z</time></trkpt><trkpt lat="45.64719170664449" lon="8.132771734508237"><ele>648.5</ele><time>2026-05-01T11:56:56Z</time></trkpt><trkpt lat="45.64730081745441" lon="8.132812293968914"><ele>650.25</ele><time>2026-05-01T11:56:57Z</time></trkpt><trkpt lat="45.647407271174856" lon="8.132942385108292"><ele>652.0</ele><time>2026-05-01T11:56:58Z</time></trkpt><trkpt lat="45.6475567549918" lon="8.133049019326595"><ele>652.0</ele><time>2026-05-01T11:56:59Z</time></trkpt><trkpt lat="45.64771083845124" lon="8.133184101281657"><ele>652.0</ele><time>2026-05-01T11:57:00Z</time></trkpt><trkpt lat="45.64785095443586" lon="8.13329099714484"><ele>652.0</ele><time>2026-05-01T11:57:01Z</time></trkpt><trkpt lat="45.647986067113706" lon="8.133389225771497"><ele>650.4000000000001</ele><time>2026-05-01T11:57:02Z</time></trkpt><trkpt lat="45.648102910466854" lon="8.133481233837676"><ele>648.8000000000001</ele><time>2026-05-01T11:57:03Z</time></trkpt><trkpt lat="45.648198638014" lon="8.133556806969072"><ele>647.2</ele><time>2026-05-01T11:57:04Z</time></trkpt><trkpt lat="45.64827691482253" lon="8.133634351409166"><ele>645.6</ele><time>2026-05-01T11:57:05Z</time></trkpt><trkpt lat="45.64833152148101" lon="8.13373548840071"><ele>644.0</ele><time>2026-05-01T11:57:06Z</time></trkpt><trkpt lat="45.648341844647234" lon="8.133868251627595"><ele>644.0</ele><time>2026-05-01T11:57:07Z</time></trkpt><trkpt lat="45.64833336657163" lon="8.134007963703448"><ele>644.0</ele><time>2026-05-01T11:57:08Z</time></trkpt><trkpt lat="45.64831077938283" lon="8.134148686263096"><ele>644.0</ele><time>2026-05-01T11:57:09Z</time></trkpt><trkpt lat="45.648270380140374" lon="8.134281092631095"><ele>644.0</ele><time>2026-05-01T11:57:10Z</time></trkpt><trkpt lat="45.64817345375957" lon="8.134333540878231"><ele>644.0</ele><time>2026-05-01T11:57:11Z</time></trkpt><trkpt lat="45.648079982066086" lon="8.134376018584055"><ele>639.3333333333333</ele><time>2026-05-01T11:57:12Z</time></trkpt><trkpt lat="45.647961200315656" lon="8.134433166713489"><ele>634.6666666666666</ele><time>2026-05-01T11:57:13Z</time></trkpt><trkpt lat="45.64781724223636" lon="8.134509516739788"><ele>630.0</ele><time>2026-05-01T11:57:14Z</time></trkpt><trkpt lat="45.647653122302366" lon="8.134577185641383"><ele>627.25</ele><time>2026-05-01T11:57:15Z</time></trkpt><trkpt lat="45.64750051368482" lon="8.134636086216554"><ele>624.5</ele><time>2026-05-01T11:57:16Z</time></trkpt><trkpt lat="45.647375847505884" lon="8.134685407054853"><ele>621.75</ele><time>2026-05-01T11:57:17Z</time></trkpt><trkpt lat="45.64725982046408" lon="8.134741845270216"><ele>619.0</ele><time>2026-05-01T11:57:18Z</time></trkpt><trkpt lat="45.647162739112105" lon="8.134794000364963"><ele>619.0</ele><time>2026-05-01T11:57:19Z</time></trkpt><trkpt lat="45.64705838222592" lon="8.134841666895353"><ele>619.0</ele><time>2026-05-01T11:57:20Z</time></trkpt><trkpt lat="45.64695149025826" lon="8.13493763339757"><ele>619.0</ele><time>2026-05-01T11:57:21Z</time></trkpt><trkpt lat="45.646864298990394" lon="8.135068778825678"><ele>619.0</ele><time>2026-05-01T11:57:22Z</time></trkpt><trkpt lat="45.64681044820849" lon="8.135207030629374"><ele>621.2</ele><time>2026-05-01T11:57:23Z</time></trkpt><trkpt lat="45.64673625311645" lon="8.135282249662273"><ele>623.4</ele><time>2026-05-01T11:57:24Z</time></trkpt><trkpt lat="45.64666558247149" lon="8.135340397754796"><ele>625.6</ele><time>2026-05-01T11:57:25Z</time></trkpt><trkpt lat="45.646572078315536" lon="8.135373666390826"><ele>627.8</ele><time>2026-05-01T11:57:26Z</time></trkpt><trkpt lat="45.64646863189048" lon="8.135422744611258"><ele>630.0</ele><time>2026-05-01T11:57:27Z</time></trkpt><trkpt lat="45.64638434799493" lon="8.135479221934526"><ele>630.0</ele><time>2026-05-01T11:57:28Z</time></trkpt><trkpt lat="45.64631883640726" lon="8.135514708637997"><ele>630.0</ele><time>2026-05-01T11:57:29Z</time></trkpt><trkpt lat="45.646212227618214" lon="8.13556414558711"><ele>630.0</ele><time>2026-05-01T11:57:31Z</time></trkpt><trkpt lat="45.64614448758162" lon="8.135608104669478"><ele>630.0</ele><time>2026-05-01T11:57:33Z</time></trkpt><trkpt lat="45.64615298932204" lon="8.135785310749005"><ele>630.0</ele><time>2026-05-01T11:57:42Z</time></trkpt><trkpt lat="45.64619147036418" lon="8.135942711941185"><ele>631.6666666666666</ele><time>2026-05-01T11:57:43.999Z</time></trkpt><trkpt lat="45.64620722690658" lon="8.136053915315392"><ele>633.3333333333334</ele><time>2026-05-01T11:57:44.999Z</time></trkpt><trkpt lat="45.646225807762406" lon="8.13619916614938"><ele>635.0</ele><time>2026-05-01T11:57:45.999Z</time></trkpt><trkpt lat="45.64624143194426" lon="8.136312212506043"><ele>636.6666666666667</ele><time>2026-05-01T11:57:46.999Z</time></trkpt><trkpt lat="45.64625506584746" lon="8.136408344379086"><ele>638.3333333333334</ele><time>2026-05-01T11:57:47.999Z</time></trkpt><trkpt lat="45.64626885431895" lon="8.136503836860207"><ele>640.0</ele><time>2026-05-01T11:57:48.999Z</time></trkpt><trkpt lat="45.64628885301271" lon="8.136602366479842"><ele>640.8333333333334</ele><time>2026-05-01T11:57:49.999Z</time></trkpt><trkpt lat="45.6463044917705" lon="8.136691583278212"><ele>641.6666666666667</ele><time>2026-05-01T11:57:50.999Z</time></trkpt><trkpt lat="45.646330218577916" lon="8.136779712101466"><ele>642.5</ele><time>2026-05-01T11:57:51.999Z</time></trkpt><trkpt lat="45.64640240663836" lon="8.136905693476207"><ele>643.3333333333334</ele><time>2026-05-01T11:57:53.999Z</time></trkpt><trkpt lat="45.64644807892325" lon="8.136968404520632"><ele>644.1666666666666</ele><time>2026-05-01T11:57:54.999Z</time></trkpt><trkpt lat="45.64652347561703" lon="8.137033522223067"><ele>645.0</ele><time>2026-05-01T11:57:55.999Z</time></trkpt><trkpt lat="45.64658464239967" lon="8.137112270488206"><ele>645.0</ele><time>2026-05-01T11:57:56.999Z</time></trkpt><trkpt lat="45.64664666029502" lon="8.137168439612436"><ele>645.0</ele><time>2026-05-01T11:57:57.999Z</time></trkpt><trkpt lat="45.646719645433116" lon="8.137200439192341"><ele>645.0</ele><time>2026-05-01T11:57:58.999Z</time></trkpt><trkpt lat="45.64680571755455" lon="8.137222842145231"><ele>645.0</ele><time>2026-05-01T11:57:59.999Z</time></trkpt><trkpt lat="45.64689063047447" lon="8.137235947380674"><ele>645.0</ele><time>2026-05-01T11:58:00.999Z</time></trkpt><trkpt lat="45.646960381078735" lon="8.137241992787253"><ele>645.0</ele><time>2026-05-01T11:58:01.999Z</time></trkpt><trkpt lat="45.64703177811713" lon="8.137263105995569"><ele>644.8</ele><time>2026-05-01T11:58:02.999Z</time></trkpt><trkpt lat="45.64709652813205" lon="8.137285530094712"><ele>644.6</ele><time>2026-05-01T11:58:03.999Z</time></trkpt><trkpt lat="45.64721405645727" lon="8.13732373685441"><ele>644.4000000000001</ele><time>2026-05-01T11:58:05.999Z</time></trkpt><trkpt lat="45.64732729453121" lon="8.137405777440332"><ele>644.2</ele><time>2026-05-01T11:58:07.999Z</time></trkpt><trkpt lat="45.647425568165445" lon="8.137491782355914"><ele>644.0</ele><time>2026-05-01T11:58:09.999Z</time></trkpt><trkpt lat="45.647495917990355" lon="8.137578894060933"><ele>644.0</ele><time>2026-05-01T11:58:11.999Z</time></trkpt><trkpt lat="45.647551571964364" lon="8.137676465584374"><ele>644.0</ele><time>2026-05-01T11:58:13.999Z</time></trkpt><trkpt lat="45.64761164321517" lon="8.137822502767458"><ele>644.0</ele><time>2026-05-01T11:58:15.999Z</time></trkpt><trkpt lat="45.647634584743464" lon="8.137919505409974"><ele>644.0</ele><time>2026-05-01T11:58:16.999Z</time></trkpt><trkpt lat="45.64764953341916" lon="8.138009500527842"><ele>644.0</ele><time>2026-05-01T11:58:17.999Z</time></trkpt><trkpt lat="45.647667196334346" lon="8.138173611451544"><ele>645.0</ele><time>2026-05-01T11:58:19.999Z</time></trkpt><trkpt lat="45.64770025173097" lon="8.138350254535231"><ele>646.0</ele><time>2026-05-01T11:58:22Z</time></trkpt><trkpt lat="45.647726340952126" lon="8.13844515318644"><ele>647.0</ele><time>2026-05-01T11:58:23Z</time></trkpt><trkpt lat="45.647750232480526" lon="8.138535057871907"><ele>648.0</ele><time>2026-05-01T11:58:24Z</time></trkpt><trkpt lat="45.647775490916956" lon="8.138630105220802"><ele>649.0</ele><time>2026-05-01T11:58:25Z</time></trkpt><trkpt lat="45.64785917429359" lon="8.138707754579377"><ele>650.0</ele><time>2026-05-01T11:58:26Z</time></trkpt><trkpt lat="45.64792804596675" lon="8.138739226452902"><ele>650.0</ele><time>2026-05-01T11:58:27Z</time></trkpt><trkpt lat="45.648028840008365" lon="8.138857248441589"><ele>650.0</ele><time>2026-05-01T11:58:29Z</time></trkpt><trkpt lat="45.64808547534525" lon="8.138916665151473"><ele>650.0</ele><time>2026-05-01T11:58:30Z</time></trkpt><trkpt lat="45.64819972779431" lon="8.138965614346699"><ele>650.0</ele><time>2026-05-01T11:58:32Z</time></trkpt><trkpt lat="45.64826556684756" lon="8.13894369680252"><ele>650.0</ele><time>2026-05-01T11:58:33Z</time></trkpt><trkpt lat="45.64832391273531" lon="8.138890785150542"><ele>650.0</ele><time>2026-05-01T11:58:34Z</time></trkpt><trkpt lat="45.64837726990236" lon="8.138821127032745"><ele>650.0</ele><time>2026-05-01T11:58:35Z</time></trkpt><trkpt lat="45.648428318488484" lon="8.138763998629079"><ele>650.0</ele><time>2026-05-01T11:58:36Z</time></trkpt><trkpt lat="45.64848718120729" lon="8.138730082324532"><ele>650.0</ele><time>2026-05-01T11:58:37Z</time></trkpt><trkpt lat="45.64861463703302" lon="8.138743619258115"><ele>650.0</ele><time>2026-05-01T11:58:39Z</time></trkpt><trkpt lat="45.648672308489445" lon="8.138803651749303"><ele>650.0</ele><time>2026-05-01T11:58:40Z</time></trkpt><trkpt lat="45.648709603477954" lon="8.138881713533426"><ele>651.5714285714286</ele><time>2026-05-01T11:58:41Z</time></trkpt><trkpt lat="45.64872275423684" lon="8.138973837812426"><ele>653.1428571428572</ele><time>2026-05-01T11:58:42Z</time></trkpt><trkpt lat="45.64871984977229" lon="8.139067685926856"><ele>654.7142857142858</ele><time>2026-05-01T11:58:43Z</time></trkpt><trkpt lat="45.64869136273905" lon="8.139152908611436"><ele>656.2857142857142</ele><time>2026-05-01T11:58:44Z</time></trkpt><trkpt lat="45.64868200910942" lon="8.139243797078564"><ele>657.8571428571429</ele><time>2026-05-01T11:58:45Z</time></trkpt><trkpt lat="45.64868539691765" lon="8.139341044942347"><ele>659.4285714285714</ele><time>2026-05-01T11:58:46Z</time></trkpt><trkpt lat="45.64868543173878" lon="8.139448831601229"><ele>661.0</ele><time>2026-05-01T11:58:47Z</time></trkpt><trkpt lat="45.64868109062958" lon="8.139568160260051"><ele>661.0</ele><time>2026-05-01T11:58:48Z</time></trkpt><trkpt lat="45.64871209927115" lon="8.13968110174997"><ele>661.0</ele><time>2026-05-01T11:58:49Z</time></trkpt><trkpt lat="45.64874480328507" lon="8.139777347610993"><ele>661.0</ele><time>2026-05-01T11:58:50Z</time></trkpt><trkpt lat="45.64877878133314" lon="8.139861885996153"><ele>661.0</ele><time>2026-05-01T11:58:51Z</time></trkpt><trkpt lat="45.648823313308704" lon="8.139938063691977"><ele>661.0</ele><time>2026-05-01T11:58:52Z</time></trkpt><trkpt lat="45.648839015129596" lon="8.140103552368481"><ele>661.0</ele><time>2026-05-01T11:58:54Z</time></trkpt><trkpt lat="45.64879432267747" lon="8.140271161225368"><ele>660.1666666666667</ele><time>2026-05-01T11:58:56Z</time></trkpt><trkpt lat="45.648751850857394" lon="8.140345518886464"><ele>659.3333333333334</ele><time>2026-05-01T11:58:57Z</time></trkpt><trkpt lat="45.648684023619786" lon="8.14038020496334"><ele>658.5</ele><time>2026-05-01T11:58:58Z</time></trkpt><trkpt lat="45.64862471663396" lon="8.140428687405057"><ele>657.6666666666666</ele><time>2026-05-01T11:58:59Z</time></trkpt><trkpt lat="45.648537140711014" lon="8.140553664516162"><ele>656.8333333333333</ele><time>2026-05-01T11:59:01Z</time></trkpt><trkpt lat="45.64848286683498" lon="8.14061055878744"><ele>656.0</ele><time>2026-05-01T11:59:02Z</time></trkpt><trkpt lat="45.64845370230863" lon="8.140698686194781"><ele>653.3333333333333</ele><time>2026-05-01T11:59:03Z</time></trkpt><trkpt lat="45.64843090877539" lon="8.140796540891774"><ele>650.6666666666666</ele><time>2026-05-01T11:59:04Z</time></trkpt><trkpt lat="45.648412346146436" lon="8.140902172800473"><ele>648.0</ele><time>2026-05-01T11:59:05Z</time></trkpt><trkpt lat="45.64839625000383" lon="8.141024389928562"><ele>645.3333333333334</ele><time>2026-05-01T11:59:06Z</time></trkpt><trkpt lat="45.648406999310694" lon="8.14114260508491"><ele>642.6666666666667</ele><time>2026-05-01T11:59:07Z</time></trkpt><trkpt lat="45.648392758795204" lon="8.141257273822905"><ele>640.0</ele><time>2026-05-01T11:59:08Z</time></trkpt><trkpt lat="45.64841371174354" lon="8.14138472612036"><ele>640.0</ele><time>2026-05-01T11:59:09Z</time></trkpt><trkpt lat="45.648456753278936" lon="8.14151007235973"><ele>640.0</ele><time>2026-05-01T11:59:10Z</time></trkpt><trkpt lat="45.64852322576258" lon="8.141616506638647"><ele>640.0</ele><time>2026-05-01T11:59:11Z</time></trkpt><trkpt lat="45.64856870718455" lon="8.14171512686946"><ele>640.0</ele><time>2026-05-01T11:59:12Z</time></trkpt><trkpt lat="45.648605692204086" lon="8.141810565681695"><ele>640.0</ele><time>2026-05-01T11:59:13Z</time></trkpt><trkpt lat="45.64868451021247" lon="8.141851189754055"><ele>640.0</ele><time>2026-05-01T11:59:14Z</time></trkpt><trkpt lat="45.648758567008514" lon="8.141871979011384"><ele>640.6666666666667</ele><time>2026-05-01T11:59:15Z</time></trkpt><trkpt lat="45.64884274907409" lon="8.141854735335917"><ele>641.3333333333334</ele><time>2026-05-01T11:59:16Z</time></trkpt><trkpt lat="45.64893173354509" lon="8.141801790780907"><ele>642.0</ele><time>2026-05-01T11:59:17Z</time></trkpt><trkpt lat="45.64901047266286" lon="8.141738690121162"><ele>642.6666666666666</ele><time>2026-05-01T11:59:18Z</time></trkpt><trkpt lat="45.64908697398997" lon="8.141698014289068"><ele>643.3333333333333</ele><time>2026-05-01T11:59:19Z</time></trkpt><trkpt lat="45.649156820997845" lon="8.141689517045096"><ele>644.0</ele><time>2026-05-01T11:59:20Z</time></trkpt><trkpt lat="45.64924020879869" lon="8.141722947639568"><ele>644.0</ele><time>2026-05-01T11:59:21Z</time></trkpt><trkpt lat="45.649326608934835" lon="8.141801758171328"><ele>644.0</ele><time>2026-05-01T11:59:22Z</time></trkpt><trkpt lat="45.64940136477674" lon="8.141886354079533"><ele>644.0</ele><time>2026-05-01T11:59:23Z</time></trkpt><trkpt lat="45.649466615094816" lon="8.141959455774073"><ele>644.0</ele><time>2026-05-01T11:59:24Z</time></trkpt><trkpt lat="45.6495313467794" lon="8.142004451327573"><ele>644.0</ele><time>2026-05-01T11:59:25Z</time></trkpt><trkpt lat="45.64961823841578" lon="8.142019753420204"><ele>644.0</ele><time>2026-05-01T11:59:26Z</time></trkpt><trkpt lat="45.649724973926276" lon="8.14200914060323"><ele>643.6</ele><time>2026-05-01T11:59:27Z</time></trkpt><trkpt lat="45.64982718241906" lon="8.141979416622839"><ele>643.2</ele><time>2026-05-01T11:59:28Z</time></trkpt><trkpt lat="45.64991278336543" lon="8.141941554353517"><ele>642.8000000000001</ele><time>2026-05-01T11:59:29Z</time></trkpt><trkpt lat="45.64999245332647" lon="8.141898585794472"><ele>642.4000000000001</ele><time>2026-05-01T11:59:30Z</time></trkpt><trkpt lat="45.6500616792563" lon="8.141822060379443"><ele>642.0</ele><time>2026-05-01T11:59:31Z</time></trkpt><trkpt lat="45.65011364630793" lon="8.141716064731018"><ele>642.0</ele><time>2026-05-01T11:59:32Z</time></trkpt><trkpt lat="45.65014951773349" lon="8.141609749956169"><ele>642.0</ele><time>2026-05-01T11:59:33Z</time></trkpt><trkpt lat="45.65020641407527" lon="8.141531427653545"><ele>642.0</ele><time>2026-05-01T11:59:34Z</time></trkpt><trkpt lat="45.65028027493626" lon="8.141470128560794"><ele>642.0</ele><time>2026-05-01T11:59:35Z</time></trkpt><trkpt lat="45.65035966696513" lon="8.141419699510957"><ele>642.0</ele><time>2026-05-01T11:59:36Z</time></trkpt><trkpt lat="45.65043177896038" lon="8.141390335423232"><ele>642.0</ele><time>2026-05-01T11:59:37Z</time></trkpt><trkpt lat="45.65050841387174" lon="8.141383931770832"><ele>640.8000000000001</ele><time>2026-05-01T11:59:38Z</time></trkpt><trkpt lat="45.650588472499315" lon="8.141429936798701"><ele>639.6</ele><time>2026-05-01T11:59:39Z</time></trkpt><trkpt lat="45.650659885541145" lon="8.141514771291437"><ele>638.4000000000001</ele><time>2026-05-01T11:59:40Z</time></trkpt><trkpt lat="45.65072878822049" lon="8.14163630056969"><ele>637.2</ele><time>2026-05-01T11:59:41Z</time></trkpt><trkpt lat="45.65081199176997" lon="8.141777444327953"><ele>636.0</ele><time>2026-05-01T11:59:42Z</time></trkpt><trkpt lat="45.650904581281864" lon="8.141938043064629"><ele>636.0</ele><time>2026-05-01T11:59:43Z</time></trkpt><trkpt lat="45.65100422090272" lon="8.142127021585102"><ele>636.0</ele><time>2026-05-01T11:59:43.999Z</time></trkpt><trkpt lat="45.65107783411348" lon="8.142360895402438"><ele>636.0</ele><time>2026-05-01T11:59:44.999Z</time></trkpt><trkpt lat="45.65118463183891" lon="8.142580328146167"><ele>637.25</ele><time>2026-05-01T11:59:45.999Z</time></trkpt><trkpt lat="45.651295931893934" lon="8.142755384364776"><ele>638.5</ele><time>2026-05-01T11:59:46.999Z</time></trkpt><trkpt lat="45.65136744983541" lon="8.142908370546191"><ele>639.75</ele><time>2026-05-01T11:59:47.999Z</time></trkpt><trkpt lat="45.651423140659716" lon="8.143046183028309"><ele>641.0</ele><time>2026-05-01T11:59:48.999Z</time></trkpt><trkpt lat="45.65145280465863" lon="8.143183486847983"><ele>640.75</ele><time>2026-05-01T11:59:49.999Z</time></trkpt><trkpt lat="45.65142873638403" lon="8.143339777438594"><ele>640.5</ele><time>2026-05-01T11:59:50.999Z</time></trkpt><trkpt lat="45.65139908722852" lon="8.143510950970203"><ele>640.25</ele><time>2026-05-01T11:59:51.999Z</time></trkpt><trkpt lat="45.65135646763473" lon="8.143709473132589"><ele>640.0</ele><time>2026-05-01T11:59:52.999Z</time></trkpt><trkpt lat="45.65132285576826" lon="8.143929019280778"><ele>639.6</ele><time>2026-05-01T11:59:53.999Z</time></trkpt><trkpt lat="45.65128551992352" lon="8.144110482879764"><ele>639.2</ele><time>2026-05-01T11:59:54.999Z</time></trkpt><trkpt lat="45.65122871369149" lon="8.144243786096226"><ele>638.8</ele><time>2026-05-01T11:59:55.999Z</time></trkpt><trkpt lat="45.651170556678174" lon="8.144343013705878"><ele>638.4</ele><time>2026-05-01T11:59:56.999Z</time></trkpt><trkpt lat="45.651079522641965" lon="8.144408797767637"><ele>638.0</ele><time>2026-05-01T11:59:57.999Z</time></trkpt><trkpt lat="45.650966697155035" lon="8.144484280615726"><ele>634.25</ele><time>2026-05-01T11:59:58.999Z</time></trkpt><trkpt lat="45.65084115856963" lon="8.14454893516144"><ele>630.5</ele><time>2026-05-01T11:59:59.999Z</time></trkpt><trkpt lat="45.650716680420466" lon="8.144598937246759"><ele>626.75</ele><time>2026-05-01T12:00:00.999Z</time></trkpt><trkpt lat="45.65059075871667" lon="8.14456801409855"><ele>623.0</ele><time>2026-05-01T12:00:01.999Z</time></trkpt><trkpt lat="45.65045312763404" lon="8.144525016786242"><ele>623.0</ele><time>2026-05-01T12:00:02.999Z</time></trkpt><trkpt lat="45.650294953198966" lon="8.144483412970061"><ele>623.0</ele><time>2026-05-01T12:00:03.999Z</time></trkpt><trkpt lat="45.650141820702395" lon="8.144414518509947"><ele>623.0</ele><time>2026-05-01T12:00:04.999Z</time></trkpt><trkpt lat="45.65001214617965" lon="8.144351592844695"><ele>622.5</ele><time>2026-05-01T12:00:05.999Z</time></trkpt><trkpt lat="45.649891707167214" lon="8.144301797322592"><ele>622.0</ele><time>2026-05-01T12:00:06.999Z</time></trkpt><trkpt lat="45.64975561774016" lon="8.14428561531682"><ele>621.5</ele><time>2026-05-01T12:00:07.999Z</time></trkpt><trkpt lat="45.64960690908971" lon="8.144297966154713"><ele>621.0</ele><time>2026-05-01T12:00:08.999Z</time></trkpt><trkpt lat="45.64944579177268" lon="8.144347331540002"><ele>619.75</ele><time>2026-05-01T12:00:09.999Z</time></trkpt><trkpt lat="45.64930202949277" lon="8.144400090185623"><ele>618.5</ele><time>2026-05-01T12:00:10.999Z</time></trkpt><trkpt lat="45.64918604586508" lon="8.144449769487748"><ele>617.25</ele><time>2026-05-01T12:00:11.999Z</time></trkpt><trkpt lat="45.64909633627178" lon="8.144512141022242"><ele>616.0</ele><time>2026-05-01T12:00:12.999Z</time></trkpt><trkpt lat="45.64900853728796" lon="8.144611337822857"><ele>616.0</ele><time>2026-05-01T12:00:13.999Z</time></trkpt><trkpt lat="45.648917265993234" lon="8.144748414330522"><ele>616.0</ele><time>2026-05-01T12:00:14.999Z</time></trkpt><trkpt lat="45.64883218179216" lon="8.144927336071236"><ele>616.0</ele><time>2026-05-01T12:00:15.999Z</time></trkpt><trkpt lat="45.64874763196532" lon="8.145088555871995"><ele>616.0</ele><time>2026-05-01T12:00:16.999Z</time></trkpt><trkpt lat="45.648684854125776" lon="8.14521595431105"><ele>618.2</ele><time>2026-05-01T12:00:17.999Z</time></trkpt><trkpt lat="45.64864913400431" lon="8.145343160271548"><ele>620.4000000000001</ele><time>2026-05-01T12:00:18.999Z</time></trkpt><trkpt lat="45.64864240308086" lon="8.14548286558042"><ele>622.6</ele><time>2026-05-01T12:00:19.999Z</time></trkpt><trkpt lat="45.6486700303057" lon="8.145614498848364"><ele>624.8000000000001</ele><time>2026-05-01T12:00:20.999Z</time></trkpt><trkpt lat="45.64872447632109" lon="8.145739050862094"><ele>627.0</ele><time>2026-05-01T12:00:21.999Z</time></trkpt><trkpt lat="45.64880714851761" lon="8.145839975498621"><ele>627.0</ele><time>2026-05-01T12:00:22.999Z</time></trkpt><trkpt lat="45.64891117952485" lon="8.145902101950961"><ele>627.0</ele><time>2026-05-01T12:00:23.999Z</time></trkpt><trkpt lat="45.649028030810946" lon="8.14593592474798"><ele>627.0</ele><time>2026-05-01T12:00:24.999Z</time></trkpt><trkpt lat="45.64914508617499" lon="8.145935394389657"><ele>627.0</ele><time>2026-05-01T12:00:25.999Z</time></trkpt><trkpt lat="45.64925293362239" lon="8.145910191627697"><ele>627.0</ele><time>2026-05-01T12:00:26.999Z</time></trkpt><trkpt lat="45.649341712070694" lon="8.145933033158185"><ele>627.0</ele><time>2026-05-01T12:00:28Z</time></trkpt><trkpt lat="45.64941184040074" lon="8.146011103995415"><ele>627.0</ele><time>2026-05-01T12:00:29Z</time></trkpt><trkpt lat="45.64945769531497" lon="8.146129421481541"><ele>627.0</ele><time>2026-05-01T12:00:30Z</time></trkpt><trkpt lat="45.649470648710164" lon="8.146256708325252"><ele>627.0</ele><time>2026-05-01T12:00:31Z</time></trkpt><trkpt lat="45.649413361993815" lon="8.14638579616307"><ele>627.0</ele><time>2026-05-01T12:00:32Z</time></trkpt><trkpt lat="45.64940791619528" lon="8.146536033317549"><ele>627.0</ele><time>2026-05-01T12:00:33Z</time></trkpt><trkpt lat="45.649399824558245" lon="8.146658827372184"><ele>627.0</ele><time>2026-05-01T12:00:34Z</time></trkpt><trkpt lat="45.64941977185435" lon="8.14678655713119"><ele>627.0</ele><time>2026-05-01T12:00:35Z</time></trkpt><trkpt lat="45.64947051183818" lon="8.146895205038444"><ele>627.0</ele><time>2026-05-01T12:00:36Z</time></trkpt><trkpt lat="45.649542473992724" lon="8.146979772902293"><ele>627.5</ele><time>2026-05-01T12:00:37Z</time></trkpt><trkpt lat="45.64963267092851" lon="8.147030309831912"><ele>628.0</ele><time>2026-05-01T12:00:38Z</time></trkpt><trkpt lat="45.64974388560355" lon="8.147043300197089"><ele>628.5</ele><time>2026-05-01T12:00:39Z</time></trkpt><trkpt lat="45.64987134350161" lon="8.147032434693035"><ele>629.0</ele><time>2026-05-01T12:00:40Z</time></trkpt><trkpt lat="45.650001580271784" lon="8.146998350791584"><ele>629.0</ele><time>2026-05-01T12:00:41Z</time></trkpt><trkpt lat="45.6501098030147" lon="8.14694887971784"><ele>629.0</ele><time>2026-05-01T12:00:42Z</time></trkpt><trkpt lat="45.65020982860733" lon="8.14692885128223"><ele>629.0</ele><time>2026-05-01T12:00:43Z</time></trkpt><trkpt lat="45.650298695888324" lon="8.146993486214845"><ele>629.0</ele><time>2026-05-01T12:00:44Z</time></trkpt><trkpt lat="45.650404225329474" lon="8.147065243099554"><ele>629.0</ele><time>2026-05-01T12:00:45Z</time></trkpt><trkpt lat="45.65050861466399" lon="8.147162815403693"><ele>630.0</ele><time>2026-05-01T12:00:46Z</time></trkpt><trkpt lat="45.65062213193164" lon="8.147251057311601"><ele>631.0</ele><time>2026-05-01T12:00:47Z</time></trkpt><trkpt lat="45.650743352648355" lon="8.147324874610604"><ele>632.0</ele><time>2026-05-01T12:00:48Z</time></trkpt><trkpt lat="45.65085495417635" lon="8.147373669753545"><ele>633.0</ele><time>2026-05-01T12:00:49Z</time></trkpt><trkpt lat="45.65095848488013" lon="8.147398019908914"><ele>633.8333333333334</ele><time>2026-05-01T12:00:50Z</time></trkpt><trkpt lat="45.65104526315076" lon="8.147436085177114"><ele>634.6666666666666</ele><time>2026-05-01T12:00:51Z</time></trkpt><trkpt lat="45.65110318798356" lon="8.147513128387047"><ele>635.5</ele><time>2026-05-01T12:00:52Z</time></trkpt><trkpt lat="45.65113610043142" lon="8.147629904191874"><ele>636.3333333333333</ele><time>2026-05-01T12:00:53Z</time></trkpt><trkpt lat="45.651137745986695" lon="8.147753297354921"><ele>637.1666666666666</ele><time>2026-05-01T12:00:54Z</time></trkpt><trkpt lat="45.6510782740426" lon="8.147860631370548"><ele>638.0</ele><time>2026-05-01T12:00:55Z</time></trkpt><trkpt lat="45.65102478732481" lon="8.147992982015927"><ele>634.0</ele><time>2026-05-01T12:00:56Z</time></trkpt><trkpt lat="45.65096159688563" lon="8.148106932040912"><ele>630.0</ele><time>2026-05-01T12:00:57Z</time></trkpt><trkpt lat="45.65093367665451" lon="8.148217671714455"><ele>626.0</ele><time>2026-05-01T12:00:58Z</time></trkpt><trkpt lat="45.650949042440445" lon="8.148335844941457"><ele>622.0</ele><time>2026-05-01T12:00:59Z</time></trkpt><trkpt lat="45.65100153382633" lon="8.14845066876673"><ele>618.0</ele><time>2026-05-01T12:01:00Z</time></trkpt><trkpt lat="45.65108571184637" lon="8.148529570501688"><ele>620.4</ele><time>2026-05-01T12:01:01Z</time></trkpt><trkpt lat="45.65119231893763" lon="8.148578237443104"><ele>622.8</ele><time>2026-05-01T12:01:02Z</time></trkpt><trkpt lat="45.6513091173604" lon="8.148617601060428"><ele>625.2</ele><time>2026-05-01T12:01:03Z</time></trkpt><trkpt lat="45.65140312437795" lon="8.148658083874295"><ele>627.6</ele><time>2026-05-01T12:01:04Z</time></trkpt><trkpt lat="45.65148150478594" lon="8.14871186691618"><ele>630.0</ele><time>2026-05-01T12:01:05Z</time></trkpt><trkpt lat="45.65153715003683" lon="8.148802508634876"><ele>630.0</ele><time>2026-05-01T12:01:06Z</time></trkpt><trkpt lat="45.65159019211033" lon="8.148888604797227"><ele>630.0</ele><time>2026-05-01T12:01:07Z</time></trkpt><trkpt lat="45.65157429873222" lon="8.149035093235055"><ele>630.0</ele><time>2026-05-01T12:01:08Z</time></trkpt><trkpt lat="45.65154172860748" lon="8.149143645891426"><ele>630.0</ele><time>2026-05-01T12:01:09Z</time></trkpt><trkpt lat="45.65147755549516" lon="8.14922704946043"><ele>630.0</ele><time>2026-05-01T12:01:10Z</time></trkpt><trkpt lat="45.65137573912942" lon="8.149280530369197"><ele>628.5</ele><time>2026-05-01T12:01:11Z</time></trkpt><trkpt lat="45.651267426207994" lon="8.149405030718828"><ele>627.0</ele><time>2026-05-01T12:01:12Z</time></trkpt><trkpt lat="45.651133639036956" lon="8.149530342875089"><ele>625.5</ele><time>2026-05-01T12:01:13Z</time></trkpt><trkpt lat="45.65101326143597" lon="8.149636993316156"><ele>624.0</ele><time>2026-05-01T12:01:14Z</time></trkpt><trkpt lat="45.650910710131924" lon="8.14968903460529"><ele>621.2</ele><time>2026-05-01T12:01:15Z</time></trkpt><trkpt lat="45.650810796372454" lon="8.149679947653429"><ele>618.4</ele><time>2026-05-01T12:01:16Z</time></trkpt><trkpt lat="45.650720844407516" lon="8.149605774781504"><ele>615.6</ele><time>2026-05-01T12:01:17Z</time></trkpt><trkpt lat="45.650638286350755" lon="8.149509519613918"><ele>612.8</ele><time>2026-05-01T12:01:18Z</time></trkpt><trkpt lat="45.65053975887767" lon="8.1494171002752"><ele>610.0</ele><time>2026-05-01T12:01:19Z</time></trkpt><trkpt lat="45.65045828654573" lon="8.149320261813687"><ele>610.0</ele><time>2026-05-01T12:01:20Z</time></trkpt><trkpt lat="45.65036717954605" lon="8.14927261386071"><ele>610.0</ele><time>2026-05-01T12:01:21Z</time></trkpt><trkpt lat="45.65026191912511" lon="8.149260987480476"><ele>610.0</ele><time>2026-05-01T12:01:22Z</time></trkpt><trkpt lat="45.65016313417469" lon="8.149291602401151"><ele>610.0</ele><time>2026-05-01T12:01:23Z</time></trkpt><trkpt lat="45.650079462975796" lon="8.14936496950441"><ele>610.0</ele><time>2026-05-01T12:01:24Z</time></trkpt><trkpt lat="45.65000605433341" lon="8.149479379821209"><ele>610.25</ele><time>2026-05-01T12:01:25Z</time></trkpt><trkpt lat="45.64994663702369" lon="8.14962316691065"><ele>610.5</ele><time>2026-05-01T12:01:26Z</time></trkpt><trkpt lat="45.64990824218612" lon="8.149792388840936"><ele>610.75</ele><time>2026-05-01T12:01:27Z</time></trkpt><trkpt lat="45.649889098358635" lon="8.149977946845059"><ele>611.0</ele><time>2026-05-01T12:01:28Z</time></trkpt><trkpt lat="45.64988399552944" lon="8.150155005945674"><ele>611.0</ele><time>2026-05-01T12:01:29Z</time></trkpt><trkpt lat="45.649887596673416" lon="8.15030116134599"><ele>611.0</ele><time>2026-05-01T12:01:30Z</time></trkpt><trkpt lat="45.649885597624376" lon="8.150424208574815"><ele>611.0</ele><time>2026-05-01T12:01:31Z</time></trkpt><trkpt lat="45.649888079185374" lon="8.150516677578404"><ele>611.0</ele><time>2026-05-01T12:01:32Z</time></trkpt><trkpt lat="45.64991753124066" lon="8.150637583104878"><ele>611.0</ele><time>2026-05-01T12:01:33.999Z</time></trkpt><trkpt lat="45.650049412204154" lon="8.150686667539984"><ele>611.0</ele><time>2026-05-01T12:01:36.999Z</time></trkpt><trkpt lat="45.650127883453884" lon="8.150665436873684"><ele>611.0</ele><time>2026-05-01T12:01:37.999Z</time></trkpt><trkpt lat="45.650235946559455" lon="8.150633358421286"><ele>611.0</ele><time>2026-05-01T12:01:38.999Z</time></trkpt><trkpt lat="45.650352141217034" lon="8.150612840957505"><ele>611.0</ele><time>2026-05-01T12:01:39.999Z</time></trkpt><trkpt lat="45.650480550643174" lon="8.150619309170335"><ele>611.0</ele><time>2026-05-01T12:01:40.999Z</time></trkpt><trkpt lat="45.650604961250366" lon="8.150655071904229"><ele>612.5</ele><time>2026-05-01T12:01:41.999Z</time></trkpt><trkpt lat="45.65072693407129" lon="8.150727062303186"><ele>614.0</ele><time>2026-05-01T12:01:42.999Z</time></trkpt><trkpt lat="45.650843037882204" lon="8.150808635389087"><ele>615.5</ele><time>2026-05-01T12:01:43.999Z</time></trkpt><trkpt lat="45.650944425803786" lon="8.15087536897473"><ele>617.0</ele><time>2026-05-01T12:01:44.999Z</time></trkpt><trkpt lat="45.651041443008786" lon="8.150940204854841"><ele>620.0</ele><time>2026-05-01T12:01:45.999Z</time></trkpt><trkpt lat="45.65112872841901" lon="8.151013191197697"><ele>623.0</ele><time>2026-05-01T12:01:46.999Z</time></trkpt><trkpt lat="45.651193741332854" lon="8.151097100608904"><ele>626.0</ele><time>2026-05-01T12:01:47.999Z</time></trkpt><trkpt lat="45.6512221208238" lon="8.151205568096369"><ele>629.0</ele><time>2026-05-01T12:01:48.999Z</time></trkpt><trkpt lat="45.651197411958506" lon="8.151337697902916"><ele>632.0</ele><time>2026-05-01T12:01:49.999Z</time></trkpt><trkpt lat="45.651196925465264" lon="8.151503917448812"><ele>631.75</ele><time>2026-05-01T12:01:50.999Z</time></trkpt><trkpt lat="45.651160768413654" lon="8.151672458046018"><ele>631.5</ele><time>2026-05-01T12:01:51.999Z</time></trkpt><trkpt lat="45.65107053949727" lon="8.151802048581349"><ele>631.25</ele><time>2026-05-01T12:01:52.999Z</time></trkpt><trkpt lat="45.65097907443544" lon="8.151944291460813"><ele>631.0</ele><time>2026-05-01T12:01:53.999Z</time></trkpt><trkpt lat="45.65088318520168" lon="8.152111450154056"><ele>629.0</ele><time>2026-05-01T12:01:54.999Z</time></trkpt><trkpt lat="45.650777189845776" lon="8.15226789318912"><ele>627.0</ele><time>2026-05-01T12:01:55.999Z</time></trkpt><trkpt lat="45.650688413448194" lon="8.152403468084149"><ele>625.0</ele><time>2026-05-01T12:01:56.999Z</time></trkpt><trkpt lat="45.65061201940677" lon="8.152531679858411"><ele>623.0</ele><time>2026-05-01T12:01:57.999Z</time></trkpt><trkpt lat="45.650554973157085" lon="8.152660302593612"><ele>623.0</ele><time>2026-05-01T12:01:58.999Z</time></trkpt><trkpt lat="45.65050701432432" lon="8.152801745581172"><ele>623.0</ele><time>2026-05-01T12:01:59.999Z</time></trkpt><trkpt lat="45.650488050631104" lon="8.152946677068078"><ele>623.0</ele><time>2026-05-01T12:02:00.999Z</time></trkpt><trkpt lat="45.650501677651704" lon="8.15308796289869"><ele>623.0</ele><time>2026-05-01T12:02:01.999Z</time></trkpt><trkpt lat="45.65053822143796" lon="8.153227653783102"><ele>623.0</ele><time>2026-05-01T12:02:02.999Z</time></trkpt><trkpt lat="45.650608614366455" lon="8.153348235497006"><ele>623.5</ele><time>2026-05-01T12:02:03.999Z</time></trkpt><trkpt lat="45.65070319072325" lon="8.153449074529188"><ele>624.0</ele><time>2026-05-01T12:02:04.999Z</time></trkpt><trkpt lat="45.65082243267604" lon="8.153524704473984"><ele>624.5</ele><time>2026-05-01T12:02:05.999Z</time></trkpt><trkpt lat="45.65096909008215" lon="8.153579807430976"><ele>625.0</ele><time>2026-05-01T12:02:06.999Z</time></trkpt><trkpt lat="45.651141738874536" lon="8.153620359887015"><ele>630.6666666666667</ele><time>2026-05-01T12:02:07.999Z</time></trkpt><trkpt lat="45.65133746644097" lon="8.153652755341628"><ele>636.3333333333334</ele><time>2026-05-01T12:02:08.999Z</time></trkpt><trkpt lat="45.65153050641361" lon="8.153685196881604"><ele>642.0</ele><time>2026-05-01T12:02:09.999Z</time></trkpt><trkpt lat="45.6516833581171" lon="8.153709820583183"><ele>642.0</ele><time>2026-05-01T12:02:10.999Z</time></trkpt><trkpt lat="45.65180897807235" lon="8.15374470051104"><ele>642.0</ele><time>2026-05-01T12:02:11.999Z</time></trkpt><trkpt lat="45.65193022012552" lon="8.153808733475518"><ele>642.0</ele><time>2026-05-01T12:02:12.999Z</time></trkpt><trkpt lat="45.65205411404385" lon="8.153915633894504"><ele>642.0</ele><time>2026-05-01T12:02:13.999Z</time></trkpt><trkpt lat="45.65216959949779" lon="8.154057979658342"><ele>642.25</ele><time>2026-05-01T12:02:14.999Z</time></trkpt><trkpt lat="45.65226849190081" lon="8.154185256862995"><ele>642.5</ele><time>2026-05-01T12:02:15.999Z</time></trkpt><trkpt lat="45.65236365062556" lon="8.154279923646456"><ele>642.75</ele><time>2026-05-01T12:02:16.999Z</time></trkpt><trkpt lat="45.652482529686296" lon="8.15435253552902"><ele>643.0</ele><time>2026-05-01T12:02:17.999Z</time></trkpt><trkpt lat="45.65262073630271" lon="8.154396492047326"><ele>643.0</ele><time>2026-05-01T12:02:18.999Z</time></trkpt><trkpt lat="45.65277619202042" lon="8.154400345144374"><ele>643.0</ele><time>2026-05-01T12:02:19.999Z</time></trkpt><trkpt lat="45.652957484700806" lon="8.154378291540462"><ele>643.0</ele><time>2026-05-01T12:02:20.999Z</time></trkpt><trkpt lat="45.65317269747488" lon="8.154353971154814"><ele>643.0</ele><time>2026-05-01T12:02:21.999Z</time></trkpt><trkpt lat="45.65340758541284" lon="8.15434284280537"><ele>643.0</ele><time>2026-05-01T12:02:22.999Z</time></trkpt><trkpt lat="45.65365149229939" lon="8.154346123092076"><ele>642.6666666666667</ele><time>2026-05-01T12:02:23.999Z</time></trkpt><trkpt lat="45.65388701658213" lon="8.15435597184191"><ele>642.3333333333334</ele><time>2026-05-01T12:02:24.999Z</time></trkpt><trkpt lat="45.65409922962513" lon="8.154380774777033"><ele>642.0</ele><time>2026-05-01T12:02:25.999Z</time></trkpt><trkpt lat="45.654299593112455" lon="8.154397486447701"><ele>644.5</ele><time>2026-05-01T12:02:26.999Z</time></trkpt><trkpt lat="45.654468748772445" lon="8.154408724878738"><ele>647.0</ele><time>2026-05-01T12:02:27.999Z</time></trkpt><trkpt lat="45.65461060103251" lon="8.154417905674455"><ele>649.5</ele><time>2026-05-01T12:02:28.999Z</time></trkpt><trkpt lat="45.65473679188595" lon="8.154426913366995"><ele>652.0</ele><time>2026-05-01T12:02:29.999Z</time></trkpt><trkpt lat="45.65486240060155" lon="8.154464128184161"><ele>652.0</ele><time>2026-05-01T12:02:30.999Z</time></trkpt><trkpt lat="45.654985371887825" lon="8.15448232798451"><ele>652.0</ele><time>2026-05-01T12:02:31.999Z</time></trkpt><trkpt lat="45.65509770188297" lon="8.154565734678155"><ele>652.0</ele><time>2026-05-01T12:02:32.999Z</time></trkpt><trkpt lat="45.65519019036582" lon="8.154712055156288"><ele>652.0</ele><time>2026-05-01T12:02:34Z</time></trkpt><trkpt lat="45.65529994955415" lon="8.15487798195766"><ele>652.75</ele><time>2026-05-01T12:02:35Z</time></trkpt><trkpt lat="45.65540874755061" lon="8.155023371899617"><ele>653.5</ele><time>2026-05-01T12:02:36Z</time></trkpt><trkpt lat="45.65548789916309" lon="8.1551550489034"><ele>654.25</ele><time>2026-05-01T12:02:37Z</time></trkpt><trkpt lat="45.65556827199235" lon="8.155270244025221"><ele>655.0</ele><time>2026-05-01T12:02:38Z</time></trkpt><trkpt lat="45.65566025557119" lon="8.155363236011276"><ele>655.0</ele><time>2026-05-01T12:02:39Z</time></trkpt><trkpt lat="45.65576335335634" lon="8.155433850035767"><ele>655.0</ele><time>2026-05-01T12:02:40Z</time></trkpt><trkpt lat="45.65587596916351" lon="8.155465089947887"><ele>655.0</ele><time>2026-05-01T12:02:41Z</time></trkpt><trkpt lat="45.65600831481243" lon="8.155475862774807"><ele>655.0</ele><time>2026-05-01T12:02:42Z</time></trkpt><trkpt lat="45.65614531102781" lon="8.155454285557816"><ele>657.8333333333334</ele><time>2026-05-01T12:02:43Z</time></trkpt><trkpt lat="45.656262761764566" lon="8.155426473882951"><ele>660.6666666666667</ele><time>2026-05-01T12:02:44Z</time></trkpt><trkpt lat="45.65636432292655" lon="8.155413276565874"><ele>663.5</ele><time>2026-05-01T12:02:45Z</time></trkpt><trkpt lat="45.65645375891158" lon="8.155410856027762"><ele>666.3333333333334</ele><time>2026-05-01T12:02:46Z</time></trkpt><trkpt lat="45.65652209661778" lon="8.155421287696102"><ele>669.1666666666666</ele><time>2026-05-01T12:02:47Z</time></trkpt><trkpt lat="45.65658405623982" lon="8.155456705981175"><ele>672.0</ele><time>2026-05-01T12:02:48Z</time></trkpt><trkpt lat="45.65664257512197" lon="8.155537131223586"><ele>672.0</ele><time>2026-05-01T12:02:49Z</time></trkpt><trkpt lat="45.65668690136533" lon="8.155659665851715"><ele>672.0</ele><time>2026-05-01T12:02:50Z</time></trkpt><trkpt lat="45.65667425075983" lon="8.155791733098578"><ele>672.0</ele><time>2026-05-01T12:02:51Z</time></trkpt><trkpt lat="45.656660384714634" lon="8.155919381005152"><ele>672.0</ele><time>2026-05-01T12:02:52Z</time></trkpt><trkpt lat="45.6565805969282" lon="8.156059834509946"><ele>672.0</ele><time>2026-05-01T12:02:53Z</time></trkpt><trkpt lat="45.6565068241591" lon="8.156244786680078"><ele>671.25</ele><time>2026-05-01T12:02:54Z</time></trkpt><trkpt lat="45.65644442343862" lon="8.156444880013778"><ele>670.5</ele><time>2026-05-01T12:02:55Z</time></trkpt><trkpt lat="45.656376670923684" lon="8.156614747924703"><ele>669.75</ele><time>2026-05-01T12:02:56Z</time></trkpt><trkpt lat="45.65631830705841" lon="8.156761238685192"><ele>669.0</ele><time>2026-05-01T12:02:57Z</time></trkpt><trkpt lat="45.65625976124137" lon="8.156914494341338"><ele>669.0</ele><time>2026-05-01T12:02:58Z</time></trkpt><trkpt lat="45.65621173681686" lon="8.15706236088577"><ele>669.0</ele><time>2026-05-01T12:02:59Z</time></trkpt><trkpt lat="45.65618083918809" lon="8.157217213789117"><ele>669.0</ele><time>2026-05-01T12:03:00Z</time></trkpt><trkpt lat="45.65617456078024" lon="8.157379381515897"><ele>669.0</ele><time>2026-05-01T12:03:01Z</time></trkpt><trkpt lat="45.656201796702994" lon="8.157543946305726"><ele>669.75</ele><time>2026-05-01T12:03:02Z</time></trkpt><trkpt lat="45.6562518981563" lon="8.157689937173778"><ele>670.5</ele><time>2026-05-01T12:03:03Z</time></trkpt><trkpt lat="45.65633907594468" lon="8.15782417314797"><ele>671.25</ele><time>2026-05-01T12:03:04Z</time></trkpt><trkpt lat="45.65645392568916" lon="8.1579666371771"><ele>672.0</ele><time>2026-05-01T12:03:05Z</time></trkpt><trkpt lat="45.65655749015129" lon="8.158107374399123"><ele>670.6</ele><time>2026-05-01T12:03:06Z</time></trkpt><trkpt lat="45.65663898794973" lon="8.158232302348303"><ele>669.2</ele><time>2026-05-01T12:03:07Z</time></trkpt><trkpt lat="45.65670496982616" lon="8.158338815678384"><ele>667.8</ele><time>2026-05-01T12:03:08Z</time></trkpt><trkpt lat="45.656765697998765" lon="8.158436782879928"><ele>666.4</ele><time>2026-05-01T12:03:09Z</time></trkpt><trkpt lat="45.65682521889333" lon="8.15853109969607"><ele>665.0</ele><time>2026-05-01T12:03:10Z</time></trkpt><trkpt lat="45.656885946144484" lon="8.158611319428427"><ele>665.0</ele><time>2026-05-01T12:03:11Z</time></trkpt><trkpt lat="45.65694490801234" lon="8.158656336817451"><ele>665.0</ele><time>2026-05-01T12:03:12Z</time></trkpt><trkpt lat="45.65701845300074" lon="8.158668346191297"><ele>665.0</ele><time>2026-05-01T12:03:13Z</time></trkpt><trkpt lat="45.65710104927851" lon="8.15863180276092"><ele>665.0</ele><time>2026-05-01T12:03:14Z</time></trkpt><trkpt lat="45.65717431798509" lon="8.15854635009117"><ele>665.0</ele><time>2026-05-01T12:03:15Z</time></trkpt><trkpt lat="45.65722195219406" lon="8.15842897221991"><ele>665.0</ele><time>2026-05-01T12:03:16Z</time></trkpt><trkpt lat="45.657221221539444" lon="8.15831691339726"><ele>673.0</ele><time>2026-05-01T12:03:17Z</time></trkpt><trkpt lat="45.65718964150358" lon="8.158180997178745"><ele>681.0</ele><time>2026-05-01T12:03:18Z</time></trkpt><trkpt lat="45.65714440577164" lon="8.157988428345465"><ele>689.0</ele><time>2026-05-01T12:03:19Z</time></trkpt><trkpt lat="45.657101450095766" lon="8.157741029006154"><ele>697.0</ele><time>2026-05-01T12:03:20Z</time></trkpt><trkpt lat="45.65707565834715" lon="8.157506699425532"><ele>696.25</ele><time>2026-05-01T12:03:21Z</time></trkpt><trkpt lat="45.657059397014045" lon="8.157316909394392"><ele>695.5</ele><time>2026-05-01T12:03:22Z</time></trkpt><trkpt lat="45.65705266466562" lon="8.157135026326326"><ele>694.75</ele><time>2026-05-01T12:03:23Z</time></trkpt><trkpt lat="45.65706893020445" lon="8.156965594221488"><ele>694.0</ele><time>2026-05-01T12:03:24Z</time></trkpt><trkpt lat="45.65712479782865" lon="8.156781983342142"><ele>694.0</ele><time>2026-05-01T12:03:25Z</time></trkpt><trkpt lat="45.65720103077469" lon="8.156605144424143"><ele>694.0</ele><time>2026-05-01T12:03:26Z</time></trkpt><trkpt lat="45.65729645098776" lon="8.156467417818904"><ele>694.0</ele><time>2026-05-01T12:03:27Z</time></trkpt><trkpt lat="45.65741765418524" lon="8.156362018783048"><ele>694.0</ele><time>2026-05-01T12:03:27.999Z</time></trkpt><trkpt lat="45.65755508782696" lon="8.156260022478989"><ele>691.0</ele><time>2026-05-01T12:03:28.999Z</time></trkpt><trkpt lat="45.65768918763385" lon="8.156162465109333"><ele>688.0</ele><time>2026-05-01T12:03:29.999Z</time></trkpt><trkpt lat="45.65780076706619" lon="8.156049384306428"><ele>685.0</ele><time>2026-05-01T12:03:30.999Z</time></trkpt><trkpt lat="45.65789735420024" lon="8.155911793114063"><ele>682.0</ele><time>2026-05-01T12:03:31.999Z</time></trkpt><trkpt lat="45.65797598809927" lon="8.155736684179747"><ele>686.0</ele><time>2026-05-01T12:03:32.999Z</time></trkpt><trkpt lat="45.658050132587334" lon="8.155531406294847"><ele>690.0</ele><time>2026-05-01T12:03:33.999Z</time></trkpt><trkpt lat="45.65811962577447" lon="8.155353887609337"><ele>694.0</ele><time>2026-05-01T12:03:34.999Z</time></trkpt><trkpt lat="45.65820451858764" lon="8.155185510388192"><ele>698.0</ele><time>2026-05-01T12:03:35.999Z</time></trkpt><trkpt lat="45.658305075855864" lon="8.15503630606903"><ele>698.0</ele><time>2026-05-01T12:03:36.999Z</time></trkpt><trkpt lat="45.65841889008662" lon="8.154898283437714"><ele>698.0</ele><time>2026-05-01T12:03:37.999Z</time></trkpt><trkpt lat="45.65855097005213" lon="8.154767022048894"><ele>698.0</ele><time>2026-05-01T12:03:38.999Z</time></trkpt><trkpt lat="45.658686114737584" lon="8.154653522444198"><ele>699.75</ele><time>2026-05-01T12:03:39.999Z</time></trkpt><trkpt lat="45.658813026023324" lon="8.154548547553764"><ele>701.5</ele><time>2026-05-01T12:03:40.999Z</time></trkpt><trkpt lat="45.658919484853165" lon="8.154454945825854"><ele>703.25</ele><time>2026-05-01T12:03:41.999Z</time></trkpt><trkpt lat="45.65900512009576" lon="8.154362746068788"><ele>705.0</ele><time>2026-05-01T12:03:42.999Z</time></trkpt><trkpt lat="45.65908724874017" lon="8.154260232177773"><ele>705.0</ele><time>2026-05-01T12:03:43.999Z</time></trkpt><trkpt lat="45.659150408172" lon="8.154136233737727"><ele>705.0</ele><time>2026-05-01T12:03:44.999Z</time></trkpt><trkpt lat="45.65919819218873" lon="8.153997718955784"><ele>705.0</ele><time>2026-05-01T12:03:45.999Z</time></trkpt><trkpt lat="45.659238530151875" lon="8.153886487809446"><ele>705.0</ele><time>2026-05-01T12:03:46.999Z</time></trkpt><trkpt lat="45.65928183892907" lon="8.153797444490776"><ele>705.0</ele><time>2026-05-01T12:03:47.999Z</time></trkpt><trkpt lat="45.65933131077678" lon="8.153727029238656"><ele>705.0</ele><time>2026-05-01T12:03:48.999Z</time></trkpt><trkpt lat="45.659390027902674" lon="8.153670888409367"><ele>705.0</ele><time>2026-05-01T12:03:49.999Z</time></trkpt><trkpt lat="45.65945623972708" lon="8.153654809792194"><ele>705.0</ele><time>2026-05-01T12:03:50.999Z</time></trkpt><trkpt lat="45.659555146439956" lon="8.153757651313816"><ele>705.0</ele><time>2026-05-01T12:03:52.999Z</time></trkpt><trkpt lat="45.65955897426655" lon="8.15384835029968"><ele>705.0</ele><time>2026-05-01T12:03:53.999Z</time></trkpt><trkpt lat="45.65949982574755" lon="8.153930735629784"><ele>705.0</ele><time>2026-05-01T12:03:54.999Z</time></trkpt><trkpt lat="45.65944476794828" lon="8.154031499644672"><ele>705.0</ele><time>2026-05-01T12:03:55.999Z</time></trkpt><trkpt lat="45.6593775294163" lon="8.154179191114093"><ele>705.0</ele><time>2026-05-01T12:03:56.999Z</time></trkpt><trkpt lat="45.659298481654645" lon="8.15431338830453"><ele>705.0</ele><time>2026-05-01T12:03:57.999Z</time></trkpt><trkpt lat="45.65923341895355" lon="8.154438940333018"><ele>705.0</ele><time>2026-05-01T12:03:58.999Z</time></trkpt><trkpt lat="45.65919187882617" lon="8.154573087995125"><ele>705.0</ele><time>2026-05-01T12:03:59.999Z</time></trkpt><trkpt lat="45.6591757250408" lon="8.154699400565445"><ele>705.0</ele><time>2026-05-01T12:04:00.999Z</time></trkpt><trkpt lat="45.6591786618866" lon="8.154833922802185"><ele>706.6</ele><time>2026-05-01T12:04:01.999Z</time></trkpt><trkpt lat="45.659216846891624" lon="8.154962490543651"><ele>708.2</ele><time>2026-05-01T12:04:02.999Z</time></trkpt><trkpt lat="45.65928448301919" lon="8.155068981507094"><ele>709.8</ele><time>2026-05-01T12:04:03.999Z</time></trkpt><trkpt lat="45.65937481968027" lon="8.155138104278912"><ele>711.4</ele><time>2026-05-01T12:04:04.999Z</time></trkpt><trkpt lat="45.65950385758008" lon="8.155197285242995"><ele>713.0</ele><time>2026-05-01T12:04:05.999Z</time></trkpt><trkpt lat="45.659664612471786" lon="8.155271764352353"><ele>715.0</ele><time>2026-05-01T12:04:06.999Z</time></trkpt><trkpt lat="45.659838431902315" lon="8.155373215801161"><ele>717.0</ele><time>2026-05-01T12:04:07.999Z</time></trkpt><trkpt lat="45.66000942724671" lon="8.155475303523676"><ele>719.0</ele><time>2026-05-01T12:04:08.999Z</time></trkpt><trkpt lat="45.660160080617125" lon="8.155563819972587"><ele>717.75</ele><time>2026-05-01T12:04:09.999Z</time></trkpt><trkpt lat="45.66029682532418" lon="8.155642859292605"><ele>716.5</ele><time>2026-05-01T12:04:10.999Z</time></trkpt><trkpt lat="45.660416772372734" lon="8.155714730046249"><ele>715.25</ele><time>2026-05-01T12:04:11.999Z</time></trkpt><trkpt lat="45.66052637886288" lon="8.155787121541048"><ele>714.0</ele><time>2026-05-01T12:04:12.999Z</time></trkpt><trkpt lat="45.66063061372829" lon="8.155847756444542"><ele>714.0</ele><time>2026-05-01T12:04:13.999Z</time></trkpt><trkpt lat="45.66073707395016" lon="8.155909089453232"><ele>714.0</ele><time>2026-05-01T12:04:14.999Z</time></trkpt><trkpt lat="45.66085033799669" lon="8.155943239675558"><ele>714.0</ele><time>2026-05-01T12:04:15.999Z</time></trkpt><trkpt lat="45.660960948859675" lon="8.155949389663148"><ele>714.0</ele><time>2026-05-01T12:04:16.999Z</time></trkpt><trkpt lat="45.66106813156537" lon="8.155913149310678"><ele>714.4000000000001</ele><time>2026-05-01T12:04:17.999Z</time></trkpt><trkpt lat="45.66115301314486" lon="8.155853387047372"><ele>714.8</ele><time>2026-05-01T12:04:18.999Z</time></trkpt><trkpt lat="45.66123164706203" lon="8.155756069774698"><ele>715.2</ele><time>2026-05-01T12:04:19.999Z</time></trkpt><trkpt lat="45.66130165240551" lon="8.15563847909679"><ele>715.5999999999999</ele><time>2026-05-01T12:04:20.999Z</time></trkpt><trkpt lat="45.6613748597634" lon="8.155489661788321"><ele>716.0</ele><time>2026-05-01T12:04:21.999Z</time></trkpt><trkpt lat="45.661458330719825" lon="8.155321366936029"><ele>716.0</ele><time>2026-05-01T12:04:22.999Z</time></trkpt><trkpt lat="45.6615335818153" lon="8.155172607392338"><ele>716.0</ele><time>2026-05-01T12:04:23.999Z</time></trkpt><trkpt lat="45.66159923799518" lon="8.155050236013983"><ele>716.0</ele><time>2026-05-01T12:04:24.999Z</time></trkpt><trkpt lat="45.66165923448417" lon="8.154943323798145"><ele>716.0</ele><time>2026-05-01T12:04:25.999Z</time></trkpt><trkpt lat="45.66172295850073" lon="8.154866423587883"><ele>716.0</ele><time>2026-05-01T12:04:26.999Z</time></trkpt><trkpt lat="45.661796984507134" lon="8.154818130184255"><ele>718.8</ele><time>2026-05-01T12:04:27.999Z</time></trkpt><trkpt lat="45.66187825869832" lon="8.15481029184177"><ele>721.5999999999999</ele><time>2026-05-01T12:04:28.999Z</time></trkpt><trkpt lat="45.66195020805828" lon="8.154862296720067"><ele>724.4</ele><time>2026-05-01T12:04:29.999Z</time></trkpt><trkpt lat="45.661994016336756" lon="8.154968027149142"><ele>727.2</ele><time>2026-05-01T12:04:30.999Z</time></trkpt><trkpt lat="45.66204295953417" lon="8.155087205963289"><ele>730.0</ele><time>2026-05-01T12:04:31.999Z</time></trkpt><trkpt lat="45.66206227113505" lon="8.155235125121203"><ele>730.0</ele><time>2026-05-01T12:04:32.999Z</time></trkpt><trkpt lat="45.66209427854234" lon="8.15537713815023"><ele>730.0</ele><time>2026-05-01T12:04:33.999Z</time></trkpt><trkpt lat="45.66216091240354" lon="8.155514873546661"><ele>730.0</ele><time>2026-05-01T12:04:34.999Z</time></trkpt><trkpt lat="45.66226034420096" lon="8.155662472328183"><ele>730.0</ele><time>2026-05-01T12:04:35.999Z</time></trkpt><trkpt lat="45.662364678797005" lon="8.155774849760355"><ele>731.75</ele><time>2026-05-01T12:04:36.999Z</time></trkpt><trkpt lat="45.66247562967529" lon="8.155863158475473"><ele>733.5</ele><time>2026-05-01T12:04:37.999Z</time></trkpt><trkpt lat="45.6626050150719" lon="8.155930168015791"><ele>735.25</ele><time>2026-05-01T12:04:38.999Z</time></trkpt><trkpt lat="45.662759488089414" lon="8.155983459247073"><ele>737.0</ele><time>2026-05-01T12:04:40Z</time></trkpt><trkpt lat="45.662942670694996" lon="8.156035165477753"><ele>737.0</ele><time>2026-05-01T12:04:41Z</time></trkpt><trkpt lat="45.66315296691527" lon="8.156088657264428"><ele>737.0</ele><time>2026-05-01T12:04:42Z</time></trkpt><trkpt lat="45.66333979406078" lon="8.156144987072164"><ele>737.0</ele><time>2026-05-01T12:04:43Z</time></trkpt><trkpt lat="45.663502454199005" lon="8.156190846624177"><ele>740.0</ele><time>2026-05-01T12:04:44Z</time></trkpt><trkpt lat="45.66364320858456" lon="8.156228079426262"><ele>743.0</ele><time>2026-05-01T12:04:45Z</time></trkpt><trkpt lat="45.66376783420059" lon="8.156268717946006"><ele>746.0</ele><time>2026-05-01T12:04:46Z</time></trkpt><trkpt lat="45.66390121817079" lon="8.156310882681424"><ele>749.0</ele><time>2026-05-01T12:04:47Z</time></trkpt><trkpt lat="45.664042198003244" lon="8.156353912733064"><ele>749.0</ele><time>2026-05-01T12:04:48Z</time></trkpt><trkpt lat="45.66417922611122" lon="8.156394361356895"><ele>749.0</ele><time>2026-05-01T12:04:49Z</time></trkpt><trkpt lat="45.66430927945252" lon="8.156452979198754"><ele>749.0</ele><time>2026-05-01T12:04:50Z</time></trkpt><trkpt lat="45.66454355395749" lon="8.156676208001294"><ele>748.6666666666666</ele><time>2026-05-01T12:04:52Z</time></trkpt><trkpt lat="45.664648289755256" lon="8.156838834990236"><ele>748.3333333333334</ele><time>2026-05-01T12:04:53Z</time></trkpt><trkpt lat="45.664754722553155" lon="8.156997346203436"><ele>748.0</ele><time>2026-05-01T12:04:54Z</time></trkpt><trkpt lat="45.66486448789216" lon="8.157130607703929"><ele>748.0</ele><time>2026-05-01T12:04:55Z</time></trkpt><trkpt lat="45.664975790066286" lon="8.157233245532742"><ele>748.0</ele><time>2026-05-01T12:04:56Z</time></trkpt><trkpt lat="45.66508361386611" lon="8.157311034778889"><ele>748.0</ele><time>2026-05-01T12:04:57Z</time></trkpt><trkpt lat="45.66520279812437" lon="8.15736681769791"><ele>748.0</ele><time>2026-05-01T12:04:58Z</time></trkpt><trkpt lat="45.665331687949845" lon="8.15739605126651"><ele>745.75</ele><time>2026-05-01T12:04:59Z</time></trkpt><trkpt lat="45.66546854105393" lon="8.157388525156291"><ele>743.5</ele><time>2026-05-01T12:05:00Z</time></trkpt><trkpt lat="45.6656069800748" lon="8.157371817946235"><ele>741.25</ele><time>2026-05-01T12:05:01Z</time></trkpt><trkpt lat="45.66573981785608" lon="8.157340599053438"><ele>739.0</ele><time>2026-05-01T12:05:02Z</time></trkpt><trkpt lat="45.66586382434591" lon="8.157294352080333"><ele>743.0</ele><time>2026-05-01T12:05:03Z</time></trkpt><trkpt lat="45.665979591573" lon="8.157211790571614"><ele>747.0</ele><time>2026-05-01T12:05:04Z</time></trkpt><trkpt lat="45.666089704891434" lon="8.157100998951178"><ele>751.0</ele><time>2026-05-01T12:05:05Z</time></trkpt><trkpt lat="45.66618916535503" lon="8.156962799570536"><ele>755.0</ele><time>2026-05-01T12:05:06Z</time></trkpt><trkpt lat="45.666276373388925" lon="8.156825137987974"><ele>755.0</ele><time>2026-05-01T12:05:07Z</time></trkpt><trkpt lat="45.666352527596885" lon="8.156732614524337"><ele>755.0</ele><time>2026-05-01T12:05:08Z</time></trkpt><trkpt lat="45.66643188205158" lon="8.156676426191135"><ele>755.0</ele><time>2026-05-01T12:05:09Z</time></trkpt><trkpt lat="45.6665113663757" lon="8.156667615388033"><ele>755.0</ele><time>2026-05-01T12:05:10Z</time></trkpt><trkpt lat="45.666590591802034" lon="8.156708077605614"><ele>755.0</ele><time>2026-05-01T12:05:11Z</time></trkpt><trkpt lat="45.666649519635776" lon="8.15681684289596"><ele>755.0</ele><time>2026-05-01T12:05:12Z</time></trkpt><trkpt lat="45.66672267337876" lon="8.156939829769215"><ele>755.0</ele><time>2026-05-01T12:05:13Z</time></trkpt><trkpt lat="45.66677003499159" lon="8.157091092462503"><ele>755.0</ele><time>2026-05-01T12:05:14Z</time></trkpt><trkpt lat="45.66677988394657" lon="8.157236665574768"><ele>755.0</ele><time>2026-05-01T12:05:15Z</time></trkpt><trkpt lat="45.66675707373149" lon="8.157382016549544"><ele>755.0</ele><time>2026-05-01T12:05:16Z</time></trkpt><trkpt lat="45.66670350125517" lon="8.157533680325376"><ele>755.0</ele><time>2026-05-01T12:05:17Z</time></trkpt><trkpt lat="45.66665057243927" lon="8.157719544098878"><ele>755.2</ele><time>2026-05-01T12:05:18Z</time></trkpt><trkpt lat="45.66657510276536" lon="8.157885802451123"><ele>755.4</ele><time>2026-05-01T12:05:19Z</time></trkpt><trkpt lat="45.66651551482505" lon="8.158020633539682"><ele>755.5999999999999</ele><time>2026-05-01T12:05:20Z</time></trkpt><trkpt lat="45.66646742729213" lon="8.158139672074308"><ele>755.8</ele><time>2026-05-01T12:05:21Z</time></trkpt><trkpt lat="45.666440706549714" lon="8.158248306454341"><ele>756.0</ele><time>2026-05-01T12:05:22Z</time></trkpt><trkpt lat="45.66642937073369" lon="8.15836945288379"><ele>756.0</ele><time>2026-05-01T12:05:23Z</time></trkpt><trkpt lat="45.66644338210518" lon="8.158504791735272"><ele>756.0</ele><time>2026-05-01T12:05:23.999Z</time></trkpt><trkpt lat="45.66647766698541" lon="8.158640437184527"><ele>756.0</ele><time>2026-05-01T12:05:24.999Z</time></trkpt><trkpt lat="45.666524862724096" lon="8.15876985473804"><ele>756.0</ele><time>2026-05-01T12:05:25.999Z</time></trkpt><trkpt lat="45.666578513044996" lon="8.158874062924804"><ele>756.0</ele><time>2026-05-01T12:05:26.999Z</time></trkpt><trkpt lat="45.66663869889511" lon="8.158960846508249"><ele>756.0</ele><time>2026-05-01T12:05:27.999Z</time></trkpt><trkpt lat="45.66670882976087" lon="8.159025971380782"><ele>756.0</ele><time>2026-05-01T12:05:28.999Z</time></trkpt><trkpt lat="45.6667857479851" lon="8.159060792817398"><ele>756.0</ele><time>2026-05-01T12:05:29.999Z</time></trkpt><trkpt lat="45.66687808648784" lon="8.159064651312717"><ele>756.0</ele><time>2026-05-01T12:05:30.999Z</time></trkpt><trkpt lat="45.66700111988036" lon="8.15905106510023"><ele>756.0</ele><time>2026-05-01T12:05:31.999Z</time></trkpt><trkpt lat="45.66714241531519" lon="8.159036427176042"><ele>757.75</ele><time>2026-05-01T12:05:32.999Z</time></trkpt><trkpt lat="45.66731355924577" lon="8.15902251533793"><ele>759.5</ele><time>2026-05-01T12:05:33.999Z</time></trkpt><trkpt lat="45.667454644281065" lon="8.159007644040654"><ele>761.25</ele><time>2026-05-01T12:05:34.999Z</time></trkpt><trkpt lat="45.667570963015486" lon="8.158990730720083"><ele>763.0</ele><time>2026-05-01T12:05:35.999Z</time></trkpt><trkpt lat="45.667676061145734" lon="8.158975640624849"><ele>763.0</ele><time>2026-05-01T12:05:36.999Z</time></trkpt><trkpt lat="45.66776356986202" lon="8.158960476667065"><ele>763.0</ele><time>2026-05-01T12:05:37.999Z</time></trkpt><trkpt lat="45.66784133928219" lon="8.1589430400321"><ele>763.0</ele><time>2026-05-01T12:05:38.999Z</time></trkpt><trkpt lat="45.667919216320385" lon="8.15890248764663"><ele>763.0</ele><time>2026-05-01T12:05:39.999Z</time></trkpt><trkpt lat="45.66799402308896" lon="8.158824823262384"><ele>763.0</ele><time>2026-05-01T12:05:40.999Z</time></trkpt><trkpt lat="45.668066578972336" lon="8.15870646293725"><ele>762.0</ele><time>2026-05-01T12:05:41.999Z</time></trkpt><trkpt lat="45.66814070205333" lon="8.158560750122552"><ele>761.0</ele><time>2026-05-01T12:05:42.999Z</time></trkpt><trkpt lat="45.66821191604425" lon="8.158437421290706"><ele>760.0</ele><time>2026-05-01T12:05:43.999Z</time></trkpt><trkpt lat="45.66828491202582" lon="8.158342984454327"><ele>759.0</ele><time>2026-05-01T12:05:44.999Z</time></trkpt><trkpt lat="45.66836688259524" lon="8.158282580249333"><ele>758.0</ele><time>2026-05-01T12:05:45.999Z</time></trkpt><trkpt lat="45.668432431045865" lon="8.158209360838319"><ele>758.1666666666666</ele><time>2026-05-01T12:05:46.999Z</time></trkpt><trkpt lat="45.66849320697889" lon="8.158102732934568"><ele>758.3333333333333</ele><time>2026-05-01T12:05:47.999Z</time></trkpt><trkpt lat="45.668561544565506" lon="8.158010305626846"><ele>758.5</ele><time>2026-05-01T12:05:48.999Z</time></trkpt><trkpt lat="45.66861454827824" lon="8.157920582616347"><ele>758.6666666666666</ele><time>2026-05-01T12:05:49.999Z</time></trkpt><trkpt lat="45.66867185173946" lon="8.15783532135745"><ele>758.8333333333334</ele><time>2026-05-01T12:05:50.999Z</time></trkpt><trkpt lat="45.66872785375208" lon="8.157753468978752"><ele>759.0</ele><time>2026-05-01T12:05:51.999Z</time></trkpt><trkpt lat="45.66879674567417" lon="8.157683814321986"><ele>759.0</ele><time>2026-05-01T12:05:52.999Z</time></trkpt><trkpt lat="45.668864245160044" lon="8.15763713287608"><ele>759.0</ele><time>2026-05-01T12:05:53.999Z</time></trkpt><trkpt lat="45.668940689683055" lon="8.1576168208919"><ele>759.0</ele><time>2026-05-01T12:05:54.999Z</time></trkpt><trkpt lat="45.669019213642294" lon="8.157617779664413"><ele>759.0</ele><time>2026-05-01T12:05:55.999Z</time></trkpt><trkpt lat="45.66909645110883" lon="8.157651922962334"><ele>759.0</ele><time>2026-05-01T12:05:56.999Z</time></trkpt><trkpt lat="45.669152942395016" lon="8.157704261550657"><ele>759.0</ele><time>2026-05-01T12:05:57.999Z</time></trkpt><trkpt lat="45.66919683700699" lon="8.157773969425671"><ele>759.0</ele><time>2026-05-01T12:05:58.999Z</time></trkpt><trkpt lat="45.66928453247341" lon="8.157896490671678"><ele>759.0</ele><time>2026-05-01T12:06:00.999Z</time></trkpt><trkpt lat="45.669371062823075" lon="8.157998392715701"><ele>759.0</ele><time>2026-05-01T12:06:02.999Z</time></trkpt><trkpt lat="45.66946340682882" lon="8.158088075269317"><ele>759.0</ele><time>2026-05-01T12:06:04.999Z</time></trkpt><trkpt lat="45.66955830251986" lon="8.158184265417658"><ele>759.0</ele><time>2026-05-01T12:06:06.999Z</time></trkpt><trkpt lat="45.669661097020544" lon="8.158262618413298"><ele>761.5</ele><time>2026-05-01T12:06:08.999Z</time></trkpt><trkpt lat="45.66974262141204" lon="8.15828649309148"><ele>764.0</ele><time>2026-05-01T12:06:09.999Z</time></trkpt><trkpt lat="45.66986389527512" lon="8.158295448459365"><ele>766.5</ele><time>2026-05-01T12:06:10.999Z</time></trkpt><trkpt lat="45.67000352654717" lon="8.158290400944715"><ele>769.0</ele><time>2026-05-01T12:06:11.999Z</time></trkpt><trkpt lat="45.67010996529823" lon="8.15827971580017"><ele>768.9999999999999</ele><time>2026-05-01T12:06:12.999Z</time></trkpt><trkpt lat="45.67020208619386" lon="8.15828148745669"><ele>769.0</ele><time>2026-05-01T12:06:13.999Z</time></trkpt><trkpt lat="45.67027833533253" lon="8.158281909935694"><ele>769.0</ele><time>2026-05-01T12:06:14.999Z</time></trkpt><trkpt lat="45.67034358311159" lon="8.15826979545668"><ele>769.0</ele><time>2026-05-01T12:06:15.999Z</time></trkpt><trkpt lat="45.670411402335404" lon="8.158257342876814"><ele>768.9999999999999</ele><time>2026-05-01T12:06:16.999Z</time></trkpt><trkpt lat="45.67049822498741" lon="8.158258750866013"><ele>769.0</ele><time>2026-05-01T12:06:19.999Z</time></trkpt><trkpt lat="45.67058082470981" lon="8.15823052730133"><ele>770.4000000000001</ele><time>2026-05-01T12:06:21.999Z</time></trkpt><trkpt lat="45.67059669977042" lon="8.158090877083064"><ele>771.8</ele><time>2026-05-01T12:06:23.999Z</time></trkpt><trkpt lat="45.67049404464971" lon="8.158004398263246"><ele>773.2</ele><time>2026-05-01T12:06:25.999Z</time></trkpt><trkpt lat="45.670422882805205" lon="8.157994577063212"><ele>774.5999999999999</ele><time>2026-05-01T12:06:26.999Z</time></trkpt><trkpt lat="45.67034823829094" lon="8.157966756172577"><ele>776.0</ele><time>2026-05-01T12:06:27.999Z</time></trkpt><trkpt lat="45.670268622873806" lon="8.157908202627937"><ele>776.0</ele><time>2026-05-01T12:06:28.999Z</time></trkpt><trkpt lat="45.67019780921301" lon="8.15781424139059"><ele>776.0</ele><time>2026-05-01T12:06:29.999Z</time></trkpt><trkpt lat="45.67010430103478" lon="8.157741997785735"><ele>776.0</ele><time>2026-05-01T12:06:30.999Z</time></trkpt><trkpt lat="45.67001781316926" lon="8.157655117959813"><ele>776.0</ele><time>2026-05-01T12:06:31.999Z</time></trkpt><trkpt lat="45.66994703830848" lon="8.157576721775639"><ele>776.0</ele><time>2026-05-01T12:06:32.999Z</time></trkpt><trkpt lat="45.669907817276766" lon="8.157505285985788"><ele>778.5999999999999</ele><time>2026-05-01T12:06:33.999Z</time></trkpt><trkpt lat="45.66989883691659" lon="8.157368155431891"><ele>781.2</ele><time>2026-05-01T12:06:35.999Z</time></trkpt><trkpt lat="45.669982740711966" lon="8.157261616565929"><ele>783.8</ele><time>2026-05-01T12:06:37.999Z</time></trkpt><trkpt lat="45.670123702894095" lon="8.157271409490304"><ele>786.4000000000001</ele><time>2026-05-01T12:06:39.999Z</time></trkpt><trkpt lat="45.67021633896971" lon="8.157307053617739"><ele>789.0</ele><time>2026-05-01T12:06:40.999Z</time></trkpt><trkpt lat="45.670338640592874" lon="8.157358099350871"><ele>787.5</ele><time>2026-05-01T12:06:41.999Z</time></trkpt><trkpt lat="45.67047126547079" lon="8.15740047886518"><ele>786.0</ele><time>2026-05-01T12:06:42.999Z</time></trkpt><trkpt lat="45.67058489523777" lon="8.157439597776426"><ele>784.5</ele><time>2026-05-01T12:06:43.999Z</time></trkpt><trkpt lat="45.670684124383016" lon="8.157467125790223"><ele>783.0</ele><time>2026-05-01T12:06:44.999Z</time></trkpt><trkpt lat="45.67078798054566" lon="8.157464984788316"><ele>783.0</ele><time>2026-05-01T12:06:46Z</time></trkpt><trkpt lat="45.67089193277704" lon="8.157434410567568"><ele>783.0</ele><time>2026-05-01T12:06:47Z</time></trkpt><trkpt lat="45.67100428436671" lon="8.157376081913975"><ele>783.0</ele><time>2026-05-01T12:06:48Z</time></trkpt><trkpt lat="45.67112894154003" lon="8.157287551511061"><ele>783.0</ele><time>2026-05-01T12:06:49Z</time></trkpt><trkpt lat="45.67125992264031" lon="8.157197254120927"><ele>790.6666666666667</ele><time>2026-05-01T12:06:50Z</time></trkpt><trkpt lat="45.671400485405975" lon="8.157130428649936"><ele>798.3333333333334</ele><time>2026-05-01T12:06:51Z</time></trkpt><trkpt lat="45.67154735869798" lon="8.15708942256412"><ele>806.0</ele><time>2026-05-01T12:06:52Z</time></trkpt><trkpt lat="45.671700042456536" lon="8.157066953900948"><ele>806.0</ele><time>2026-05-01T12:06:53Z</time></trkpt><trkpt lat="45.67185381969064" lon="8.157052977029611"><ele>806.0</ele><time>2026-05-01T12:06:54Z</time></trkpt><trkpt lat="45.671974408906465" lon="8.157047271973159"><ele>806.0</ele><time>2026-05-01T12:06:55Z</time></trkpt><trkpt lat="45.672094214990906" lon="8.157050340609208"><ele>806.0</ele><time>2026-05-01T12:06:56Z</time></trkpt><trkpt lat="45.67220676330492" lon="8.157076190107919"><ele>808.0</ele><time>2026-05-01T12:06:57Z</time></trkpt><trkpt lat="45.672315510023935" lon="8.157123704784588"><ele>810.0</ele><time>2026-05-01T12:06:58Z</time></trkpt><trkpt lat="45.67241124804806" lon="8.157202119464491"><ele>812.0</ele><time>2026-05-01T12:06:59Z</time></trkpt><trkpt lat="45.672496732178445" lon="8.157313680883805"><ele>814.0</ele><time>2026-05-01T12:07:00Z</time></trkpt><trkpt lat="45.67256909742724" lon="8.157457601529801"><ele>809.5</ele><time>2026-05-01T12:07:01Z</time></trkpt><trkpt lat="45.67262788416952" lon="8.157628918319137"><ele>805.0</ele><time>2026-05-01T12:07:02Z</time></trkpt><trkpt lat="45.67268631149704" lon="8.157815123691995"><ele>800.5</ele><time>2026-05-01T12:07:03Z</time></trkpt><trkpt lat="45.672754514829016" lon="8.157992718096715"><ele>796.0</ele><time>2026-05-01T12:07:04Z</time></trkpt><trkpt lat="45.67283715208947" lon="8.158167345189103"><ele>804.5</ele><time>2026-05-01T12:07:05Z</time></trkpt><trkpt lat="45.672929960214866" lon="8.158325011383903"><ele>813.0</ele><time>2026-05-01T12:07:06Z</time></trkpt><trkpt lat="45.67302715189982" lon="8.158475250094934"><ele>821.5</ele><time>2026-05-01T12:07:07Z</time></trkpt><trkpt lat="45.67309817108045" lon="8.15860135974564"><ele>830.0</ele><time>2026-05-01T12:07:08Z</time></trkpt><trkpt lat="45.67315286483359" lon="8.158722017211891"><ele>830.0</ele><time>2026-05-01T12:07:09Z</time></trkpt><trkpt lat="45.67318596056724" lon="8.158816318270642"><ele>830.0</ele><time>2026-05-01T12:07:10Z</time></trkpt><trkpt lat="45.67321444290686" lon="8.158928143859692"><ele>830.0</ele><time>2026-05-01T12:07:11Z</time></trkpt><trkpt lat="45.67324970457044" lon="8.159044615763232"><ele>830.0</ele><time>2026-05-01T12:07:12Z</time></trkpt><trkpt lat="45.67329376824548" lon="8.159121777304875"><ele>830.0</ele><time>2026-05-01T12:07:13Z</time></trkpt><trkpt lat="45.67335032280939" lon="8.159162137440907"><ele>830.0</ele><time>2026-05-01T12:07:14Z</time></trkpt><trkpt lat="45.67341874849584" lon="8.159164902225363"><ele>830.0</ele><time>2026-05-01T12:07:15Z</time></trkpt><trkpt lat="45.67352556450697" lon="8.159042956347095"><ele>830.0</ele><time>2026-05-01T12:07:17Z</time></trkpt><trkpt lat="45.673539659496726" lon="8.158938578490476"><ele>830.0</ele><time>2026-05-01T12:07:18Z</time></trkpt><trkpt lat="45.67351814392779" lon="8.158831056264308"><ele>830.0</ele><time>2026-05-01T12:07:19Z</time></trkpt><trkpt lat="45.673471526928786" lon="8.158729350341918"><ele>830.0</ele><time>2026-05-01T12:07:20Z</time></trkpt><trkpt lat="45.67340880685343" lon="8.158610613728976"><ele>830.0</ele><time>2026-05-01T12:07:21Z</time></trkpt><trkpt lat="45.67332385887192" lon="8.158477506085882"><ele>830.0</ele><time>2026-05-01T12:07:22Z</time></trkpt><trkpt lat="45.67323690114278" lon="8.158330566729711"><ele>830.0</ele><time>2026-05-01T12:07:23Z</time></trkpt><trkpt lat="45.67316263933182" lon="8.158167228559813"><ele>830.0</ele><time>2026-05-01T12:07:24Z</time></trkpt><trkpt lat="45.6730959376768" lon="8.15799868735048"><ele>830.0</ele><time>2026-05-01T12:07:25Z</time></trkpt><trkpt lat="45.673066153373696" lon="8.157813130785643"><ele>834.5</ele><time>2026-05-01T12:07:26Z</time></trkpt><trkpt lat="45.67302702607146" lon="8.157657064979364"><ele>839.0</ele><time>2026-05-01T12:07:27Z</time></trkpt><trkpt lat="45.67302474057937" lon="8.157485825475606"><ele>843.5</ele><time>2026-05-01T12:07:28Z</time></trkpt><trkpt lat="45.67302704561265" lon="8.157307600812262"><ele>848.0</ele><time>2026-05-01T12:07:29Z</time></trkpt><trkpt lat="45.6730434956791" lon="8.157153120236854"><ele>848.0</ele><time>2026-05-01T12:07:30Z</time></trkpt><trkpt lat="45.67307595814077" lon="8.157001869681528"><ele>848.0</ele><time>2026-05-01T12:07:31Z</time></trkpt><trkpt lat="45.67312144564391" lon="8.15684807431545"><ele>848.0</ele><time>2026-05-01T12:07:32Z</time></trkpt><trkpt lat="45.67317698646347" lon="8.156687090495632"><ele>848.0</ele><time>2026-05-01T12:07:32.999Z</time></trkpt><trkpt lat="45.67325153072257" lon="8.156520973864518"><ele>848.0</ele><time>2026-05-01T12:07:33.999Z</time></trkpt><trkpt lat="45.673333477707935" lon="8.156347029296466"><ele>848.0</ele><time>2026-05-01T12:07:34.999Z</time></trkpt><trkpt lat="45.67341551657339" lon="8.15616576545327"><ele>848.0</ele><time>2026-05-01T12:07:35.999Z</time></trkpt><trkpt lat="45.67348959888191" lon="8.155993312433308"><ele>848.0</ele><time>2026-05-01T12:07:36.999Z</time></trkpt><trkpt lat="45.67354639690734" lon="8.155842894046604"><ele>852.2</ele><time>2026-05-01T12:07:37.999Z</time></trkpt><trkpt lat="45.673588647125555" lon="8.155691901647494"><ele>856.4</ele><time>2026-05-01T12:07:38.999Z</time></trkpt><trkpt lat="45.673609461182835" lon="8.155532819552345"><ele>860.6000000000001</ele><time>2026-05-01T12:07:39.999Z</time></trkpt><trkpt lat="45.673610151943876" lon="8.155380203891955"><ele>864.8000000000001</ele><time>2026-05-01T12:07:40.999Z</time></trkpt><trkpt lat="45.673605042759384" lon="8.155259621170924"><ele>869.0</ele><time>2026-05-01T12:07:41.999Z</time></trkpt><trkpt lat="45.67363379114988" lon="8.155162987202326"><ele>870.4000000000001</ele><time>2026-05-01T12:07:42.999Z</time></trkpt><trkpt lat="45.67369138340649" lon="8.155032563955729"><ele>871.8000000000001</ele><time>2026-05-01T12:07:44.999Z</time></trkpt><trkpt lat="45.67381334462651" lon="8.15502321030974"><ele>873.1999999999999</ele><time>2026-05-01T12:07:46.999Z</time></trkpt><trkpt lat="45.67390879782941" lon="8.155125172337723"><ele>874.5999999999999</ele><time>2026-05-01T12:07:48.999Z</time></trkpt><trkpt lat="45.673913952838504" lon="8.155234896973127"><ele>876.0</ele><time>2026-05-01T12:07:49.999Z</time></trkpt><trkpt lat="45.673863121938105" lon="8.155330667168142"><ele>876.0</ele><time>2026-05-01T12:07:50.999Z</time></trkpt><trkpt lat="45.67380138346723" lon="8.155438135817132"><ele>876.0</ele><time>2026-05-01T12:07:51.999Z</time></trkpt><trkpt lat="45.67375825670904" lon="8.155597461982277"><ele>876.0</ele><time>2026-05-01T12:07:52.999Z</time></trkpt><trkpt lat="45.67369911995256" lon="8.15577032811334"><ele>876.0</ele><time>2026-05-01T12:07:53.999Z</time></trkpt><trkpt lat="45.67365265359497" lon="8.155987278665718"><ele>878.3333333333333</ele><time>2026-05-01T12:07:54.999Z</time></trkpt><trkpt lat="45.67360969740597" lon="8.156217797087232"><ele>880.6666666666666</ele><time>2026-05-01T12:07:55.999Z</time></trkpt><trkpt lat="45.67356511815491" lon="8.156454987735978"><ele>883.0</ele><time>2026-05-01T12:07:56.999Z</time></trkpt><trkpt lat="45.673526177781646" lon="8.156656702780259"><ele>874.5</ele><time>2026-05-01T12:07:57.999Z</time></trkpt><trkpt lat="45.673494446868645" lon="8.156825319407925"><ele>866.0</ele><time>2026-05-01T12:07:58.999Z</time></trkpt><trkpt lat="45.673474844431276" lon="8.156990491217648"><ele>857.5</ele><time>2026-05-01T12:07:59.999Z</time></trkpt><trkpt lat="45.673474779165744" lon="8.15715919931397"><ele>849.0</ele><time>2026-05-01T12:08:00.999Z</time></trkpt><trkpt lat="45.673492645148315" lon="8.157314303084155"><ele>848.75</ele><time>2026-05-01T12:08:01.999Z</time></trkpt><trkpt lat="45.67352913188111" lon="8.157472223832361"><ele>848.5</ele><time>2026-05-01T12:08:02.999Z</time></trkpt><trkpt lat="45.67358754525842" lon="8.1576301874648"><ele>848.25</ele><time>2026-05-01T12:08:03.999Z</time></trkpt><trkpt lat="45.67365428498887" lon="8.15777880175393"><ele>848.0</ele><time>2026-05-01T12:08:04.999Z</time></trkpt><trkpt lat="45.673729140334274" lon="8.157920698465972"><ele>851.5999999999999</ele><time>2026-05-01T12:08:05.999Z</time></trkpt><trkpt lat="45.67380198219778" lon="8.158043370134298"><ele>855.1999999999999</ele><time>2026-05-01T12:08:06.999Z</time></trkpt><trkpt lat="45.673863512342166" lon="8.158153840873133"><ele>858.8</ele><time>2026-05-01T12:08:07.999Z</time></trkpt><trkpt lat="45.673916401603314" lon="8.158241631382701"><ele>862.4</ele><time>2026-05-01T12:08:08.999Z</time></trkpt><trkpt lat="45.674012967939845" lon="8.158331765593353"><ele>866.0</ele><time>2026-05-01T12:08:10.999Z</time></trkpt><trkpt lat="45.67408327459975" lon="8.158336235960094"><ele>865.9999999999999</ele><time>2026-05-01T12:08:11.999Z</time></trkpt><trkpt lat="45.67414862015256" lon="8.158292047226773"><ele>866.0</ele><time>2026-05-01T12:08:12.999Z</time></trkpt><trkpt lat="45.67420541735372" lon="8.158207112188558"><ele>866.0</ele><time>2026-05-01T12:08:13.999Z</time></trkpt><trkpt lat="45.67423922769418" lon="8.158118121520905"><ele>866.0</ele><time>2026-05-01T12:08:14.999Z</time></trkpt><trkpt lat="45.6742395949384" lon="8.158026487362637"><ele>866.0</ele><time>2026-05-01T12:08:15.999Z</time></trkpt><trkpt lat="45.674202839124696" lon="8.157936841281733"><ele>865.9999999999999</ele><time>2026-05-01T12:08:16.999Z</time></trkpt><trkpt lat="45.67413444983057" lon="8.157869497886626"><ele>866.0</ele><time>2026-05-01T12:08:17.999Z</time></trkpt><trkpt lat="45.67405416468687" lon="8.157803972236232"><ele>873.25</ele><time>2026-05-01T12:08:18.999Z</time></trkpt><trkpt lat="45.673977750276535" lon="8.157709390508131"><ele>880.5</ele><time>2026-05-01T12:08:19.999Z</time></trkpt><trkpt lat="45.67394227297772" lon="8.157556464861973"><ele>887.75</ele><time>2026-05-01T12:08:20.999Z</time></trkpt><trkpt lat="45.673898895210286" lon="8.157390253978763"><ele>895.0</ele><time>2026-05-01T12:08:21.999Z</time></trkpt><trkpt lat="45.67387090952252" lon="8.157220631673754"><ele>895.4</ele><time>2026-05-01T12:08:22.999Z</time></trkpt><trkpt lat="45.67387184263451" lon="8.15708962739577"><ele>895.8</ele><time>2026-05-01T12:08:23.999Z</time></trkpt><trkpt lat="45.67390136433712" lon="8.156978641613518"><ele>896.2</ele><time>2026-05-01T12:08:24.999Z</time></trkpt><trkpt lat="45.67393736878017" lon="8.156817871400307"><ele>896.6</ele><time>2026-05-01T12:08:25.999Z</time></trkpt><trkpt lat="45.67399499325521" lon="8.156644537056764"><ele>897.0</ele><time>2026-05-01T12:08:26.999Z</time></trkpt><trkpt lat="45.67404524986181" lon="8.156478494398618"><ele>893.5</ele><time>2026-05-01T12:08:27.999Z</time></trkpt><trkpt lat="45.67409888082601" lon="8.156331753818625"><ele>890.0</ele><time>2026-05-01T12:08:28.999Z</time></trkpt><trkpt lat="45.67416356889192" lon="8.156193060725773"><ele>886.5</ele><time>2026-05-01T12:08:29.999Z</time></trkpt><trkpt lat="45.67425169214523" lon="8.156049311098396"><ele>883.0</ele><time>2026-05-01T12:08:30.999Z</time></trkpt><trkpt lat="45.674368442383546" lon="8.155911779349188"><ele>889.3333333333333</ele><time>2026-05-01T12:08:31.999Z</time></trkpt><trkpt lat="45.674460178965504" lon="8.155712732445865"><ele>895.6666666666667</ele><time>2026-05-01T12:08:32.999Z</time></trkpt><trkpt lat="45.67457021035438" lon="8.155544803275715"><ele>902.0</ele><time>2026-05-01T12:08:33.999Z</time></trkpt><trkpt lat="45.67464801274162" lon="8.155403767872864"><ele>902.0000000000001</ele><time>2026-05-01T12:08:34.999Z</time></trkpt><trkpt lat="45.67470231694566" lon="8.155283546650647"><ele>902.0</ele><time>2026-05-01T12:08:35.999Z</time></trkpt><trkpt lat="45.67476211214891" lon="8.155206033415967"><ele>902.0</ele><time>2026-05-01T12:08:36.999Z</time></trkpt><trkpt lat="45.67482115993291" lon="8.155133086007353"><ele>902.0</ele><time>2026-05-01T12:08:37.999Z</time></trkpt><trkpt lat="45.67488730148245" lon="8.155081648472462"><ele>902.0000000000001</ele><time>2026-05-01T12:08:38.999Z</time></trkpt><trkpt lat="45.6749572414695" lon="8.15506184322707"><ele>902.0</ele><time>2026-05-01T12:08:39.999Z</time></trkpt><trkpt lat="45.67504207130058" lon="8.155055630270839"><ele>902.0</ele><time>2026-05-01T12:08:40.999Z</time></trkpt><trkpt lat="45.675139096228186" lon="8.15508485887575"><ele>902.0</ele><time>2026-05-01T12:08:41.999Z</time></trkpt><trkpt lat="45.67523264745474" lon="8.155096288963627"><ele>902.0</ele><time>2026-05-01T12:08:42.999Z</time></trkpt><trkpt lat="45.675327314922136" lon="8.155075348631314"><ele>902.0</ele><time>2026-05-01T12:08:43.999Z</time></trkpt><trkpt lat="45.67542812446003" lon="8.155018736834071"><ele>902.0</ele><time>2026-05-01T12:08:44.999Z</time></trkpt><trkpt lat="45.67551753091159" lon="8.15494467410396"><ele>906.2</ele><time>2026-05-01T12:08:45.999Z</time></trkpt><trkpt lat="45.67559030195844" lon="8.15488974954655"><ele>910.4000000000001</ele><time>2026-05-01T12:08:46.999Z</time></trkpt><trkpt lat="45.67565903065181" lon="8.154839196061616"><ele>914.5999999999999</ele><time>2026-05-01T12:08:47.999Z</time></trkpt><trkpt lat="45.675745160830566" lon="8.154721250211747"><ele>918.8</ele><time>2026-05-01T12:08:49.999Z</time></trkpt><trkpt lat="45.67575858372837" lon="8.154591848343944"><ele>923.0</ele><time>2026-05-01T12:08:50.999Z</time></trkpt><trkpt lat="45.67571104055492" lon="8.154459982870115"><ele>923.0</ele><time>2026-05-01T12:08:52Z</time></trkpt><trkpt lat="45.67565691953839" lon="8.154368011666286"><ele>923.0</ele><time>2026-05-01T12:08:53Z</time></trkpt><trkpt lat="45.67558546779816" lon="8.154293276242147"><ele>923.0</ele><time>2026-05-01T12:08:54Z</time></trkpt><trkpt lat="45.67555999489677" lon="8.154191183450127"><ele>923.0</ele><time>2026-05-01T12:08:55Z</time></trkpt><trkpt lat="45.675569948696065" lon="8.154023143820393"><ele>923.0</ele><time>2026-05-01T12:08:57Z</time></trkpt><trkpt lat="45.67559760178789" lon="8.153894542327786"><ele>924.8</ele><time>2026-05-01T12:08:58Z</time></trkpt><trkpt lat="45.675622746197135" lon="8.15373228238621"><ele>926.5999999999999</ele><time>2026-05-01T12:08:59Z</time></trkpt><trkpt lat="45.67563669573862" lon="8.153550665702598"><ele>928.4000000000001</ele><time>2026-05-01T12:09:00Z</time></trkpt><trkpt lat="45.67561861571294" lon="8.15340334493713"><ele>930.2</ele><time>2026-05-01T12:09:01Z</time></trkpt><trkpt lat="45.67559952252875" lon="8.153278220599079"><ele>932.0</ele><time>2026-05-01T12:09:02Z</time></trkpt><trkpt lat="45.67555363210184" lon="8.153169218103926"><ele>935.4000000000001</ele><time>2026-05-01T12:09:03Z</time></trkpt><trkpt lat="45.67550305814896" lon="8.153083366435382"><ele>938.8000000000001</ele><time>2026-05-01T12:09:04Z</time></trkpt><trkpt lat="45.675448227716494" lon="8.152942397489353"><ele>942.2</ele><time>2026-05-01T12:09:06Z</time></trkpt><trkpt lat="45.67550426866562" lon="8.15278908811283"><ele>945.6</ele><time>2026-05-01T12:09:08Z</time></trkpt><trkpt lat="45.675569780135305" lon="8.152749022770298"><ele>949.0</ele><time>2026-05-01T12:09:09Z</time></trkpt><trkpt lat="45.675639057801355" lon="8.152804699608392"><ele>949.0</ele><time>2026-05-01T12:09:10Z</time></trkpt><trkpt lat="45.6756956653575" lon="8.152884579021578"><ele>949.0000000000001</ele><time>2026-05-01T12:09:11Z</time></trkpt><trkpt lat="45.67573739195826" lon="8.15300874569126"><ele>949.0000000000001</ele><time>2026-05-01T12:09:12Z</time></trkpt><trkpt lat="45.675767153331854" lon="8.153153158224221"><ele>949.0</ele><time>2026-05-01T12:09:13Z</time></trkpt><trkpt lat="45.67576095352546" lon="8.153314063821675"><ele>949.0</ele><time>2026-05-01T12:09:14Z</time></trkpt><trkpt lat="45.67574153881562" lon="8.153492960218088"><ele>944.75</ele><time>2026-05-01T12:09:15Z</time></trkpt><trkpt lat="45.67574147641712" lon="8.153672798744097"><ele>940.5</ele><time>2026-05-01T12:09:16Z</time></trkpt><trkpt lat="45.675759978717416" lon="8.153876959329278"><ele>936.25</ele><time>2026-05-01T12:09:17Z</time></trkpt><trkpt lat="45.67577623418639" lon="8.154020300095418"><ele>932.0</ele><time>2026-05-01T12:09:18Z</time></trkpt><trkpt lat="45.67581832976322" lon="8.154121478040183"><ele>930.2</ele><time>2026-05-01T12:09:19Z</time></trkpt><trkpt lat="45.67585865736563" lon="8.154229765729523"><ele>928.4000000000001</ele><time>2026-05-01T12:09:20Z</time></trkpt><trkpt lat="45.675920076426074" lon="8.154335516080764"><ele>926.5999999999999</ele><time>2026-05-01T12:09:21Z</time></trkpt><trkpt lat="45.67600068742879" lon="8.154444042920714"><ele>924.8</ele><time>2026-05-01T12:09:22Z</time></trkpt><trkpt lat="45.6760897045082" lon="8.15455571641928"><ele>923.0</ele><time>2026-05-01T12:09:23Z</time></trkpt><trkpt lat="45.67616720987459" lon="8.154675123338919"><ele>931.25</ele><time>2026-05-01T12:09:24Z</time></trkpt><trkpt lat="45.67623858760532" lon="8.154815224365406"><ele>939.5</ele><time>2026-05-01T12:09:25Z</time></trkpt><trkpt lat="45.67628240957287" lon="8.154999229120634"><ele>947.75</ele><time>2026-05-01T12:09:26Z</time></trkpt><trkpt lat="45.67633132525712" lon="8.155178611839228"><ele>956.0</ele><time>2026-05-01T12:09:27Z</time></trkpt><trkpt lat="45.67638287134078" lon="8.1553159531621"><ele>956.0000000000001</ele><time>2026-05-01T12:09:28Z</time></trkpt><trkpt lat="45.67640814271071" lon="8.155435203315477"><ele>956.0</ele><time>2026-05-01T12:09:29Z</time></trkpt><trkpt lat="45.67641410764551" lon="8.155534634272007"><ele>956.0</ele><time>2026-05-01T12:09:30Z</time></trkpt><trkpt lat="45.67639995369215" lon="8.155633186476337"><ele>956.0</ele><time>2026-05-01T12:09:31Z</time></trkpt><trkpt lat="45.67633507949137" lon="8.155732053386586"><ele>956.0000000000001</ele><time>2026-05-01T12:09:32Z</time></trkpt><trkpt lat="45.67624962811675" lon="8.155854757566603"><ele>956.0</ele><time>2026-05-01T12:09:32.999Z</time></trkpt><trkpt lat="45.67615702194557" lon="8.155987253504387"><ele>954.8333333333334</ele><time>2026-05-01T12:09:33.999Z</time></trkpt><trkpt lat="45.6760906702034" lon="8.156111992369011"><ele>953.6666666666667</ele><time>2026-05-01T12:09:34.999Z</time></trkpt><trkpt lat="45.67604684095467" lon="8.156187144450096"><ele>952.5</ele><time>2026-05-01T12:09:35.999Z</time></trkpt><trkpt lat="45.67606314748743" lon="8.156334141191557"><ele>951.3333333333333</ele><time>2026-05-01T12:09:37.999Z</time></trkpt><trkpt lat="45.67610629928099" lon="8.156402922762041"><ele>950.1666666666666</ele><time>2026-05-01T12:09:38.999Z</time></trkpt><trkpt lat="45.67620893739988" lon="8.15641515799678"><ele>949.0</ele><time>2026-05-01T12:09:40.999Z</time></trkpt><trkpt lat="45.67625612439829" lon="8.156354820426717"><ele>949.0</ele><time>2026-05-01T12:09:41.999Z</time></trkpt><trkpt lat="45.67628870025716" lon="8.15626874463653"><ele>949.0000000000001</ele><time>2026-05-01T12:09:42.999Z</time></trkpt><trkpt lat="45.67633370119545" lon="8.156159039849326"><ele>949.0000000000001</ele><time>2026-05-01T12:09:43.999Z</time></trkpt><trkpt lat="45.676404836642625" lon="8.156036349971693"><ele>949.0</ele><time>2026-05-01T12:09:44.999Z</time></trkpt><trkpt lat="45.67649862053417" lon="8.155893311284872"><ele>949.0</ele><time>2026-05-01T12:09:45.999Z</time></trkpt><trkpt lat="45.676589704208226" lon="8.155760253286788"><ele>950.1666666666666</ele><time>2026-05-01T12:09:46.999Z</time></trkpt><trkpt lat="45.67665367286236" lon="8.155656958098051"><ele>951.3333333333333</ele><time>2026-05-01T12:09:47.999Z</time></trkpt><trkpt lat="45.67670639629858" lon="8.155570236549067"><ele>952.5</ele><time>2026-05-01T12:09:48.999Z</time></trkpt><trkpt lat="45.67673454438762" lon="8.155485847333797"><ele>953.6666666666667</ele><time>2026-05-01T12:09:49.999Z</time></trkpt><trkpt lat="45.67674651416354" lon="8.15538071734332"><ele>954.8333333333334</ele><time>2026-05-01T12:09:50.999Z</time></trkpt><trkpt lat="45.67674230091252" lon="8.155254385961843"><ele>956.0</ele><time>2026-05-01T12:09:51.999Z</time></trkpt><trkpt lat="45.67670200922664" lon="8.155095514601472"><ele>956.0</ele><time>2026-05-01T12:09:52.999Z</time></trkpt><trkpt lat="45.67664806899086" lon="8.154891352643084"><ele>956.0</ele><time>2026-05-01T12:09:53.999Z</time></trkpt><trkpt lat="45.676600150206596" lon="8.154669361307265"><ele>956.0</ele><time>2026-05-01T12:09:54.999Z</time></trkpt><trkpt lat="45.67655672930577" lon="8.154438329974843"><ele>959.25</ele><time>2026-05-01T12:09:55.999Z</time></trkpt><trkpt lat="45.67651830294352" lon="8.154247128192088"><ele>962.5</ele><time>2026-05-01T12:09:56.999Z</time></trkpt><trkpt lat="45.67648127596409" lon="8.154081974609197"><ele>965.75</ele><time>2026-05-01T12:09:57.999Z</time></trkpt><trkpt lat="45.6764531680501" lon="8.153936746735381"><ele>969.0</ele><time>2026-05-01T12:09:58.999Z</time></trkpt><trkpt lat="45.67643613667577" lon="8.153803938134951"><ele>970.2</ele><time>2026-05-01T12:09:59.999Z</time></trkpt><trkpt lat="45.67643091525673" lon="8.153673847204123"><ele>971.4000000000001</ele><time>2026-05-01T12:10:00.999Z</time></trkpt><trkpt lat="45.67645644501348" lon="8.153524240386925"><ele>972.6</ele><time>2026-05-01T12:10:01.999Z</time></trkpt><trkpt lat="45.67648247056093" lon="8.153370154126003"><ele>973.8</ele><time>2026-05-01T12:10:02.999Z</time></trkpt><trkpt lat="45.67653045587723" lon="8.153226803293867"><ele>975.0</ele><time>2026-05-01T12:10:03.999Z</time></trkpt><trkpt lat="45.67659143842845" lon="8.153052458975193"><ele>975.0</ele><time>2026-05-01T12:10:04.999Z</time></trkpt><trkpt lat="45.67664592581595" lon="8.152862241754807"><ele>975.0</ele><time>2026-05-01T12:10:05.999Z</time></trkpt><trkpt lat="45.676704047955084" lon="8.15269408231469"><ele>975.0</ele><time>2026-05-01T12:10:06.999Z</time></trkpt><trkpt lat="45.67676183733992" lon="8.152543610174368"><ele>975.0</ele><time>2026-05-01T12:10:07.999Z</time></trkpt><trkpt lat="45.6768053343716" lon="8.152420126897622"><ele>977.8333333333334</ele><time>2026-05-01T12:10:08.999Z</time></trkpt><trkpt lat="45.676837946409414" lon="8.152320738835211"><ele>980.6666666666667</ele><time>2026-05-01T12:10:09.999Z</time></trkpt><trkpt lat="45.676859157490746" lon="8.15222965319019"><ele>983.5</ele><time>2026-05-01T12:10:10.999Z</time></trkpt><trkpt lat="45.676879591499" lon="8.152123196912877"><ele>986.3333333333334</ele><time>2026-05-01T12:10:11.999Z</time></trkpt><trkpt lat="45.676843366479694" lon="8.151992130167987"><ele>989.1666666666667</ele><time>2026-05-01T12:10:12.999Z</time></trkpt><trkpt lat="45.67678017404001" lon="8.15187208100264"><ele>992.0</ele><time>2026-05-01T12:10:13.999Z</time></trkpt><trkpt lat="45.67670243971671" lon="8.151779177392472"><ele>992.0</ele><time>2026-05-01T12:10:14.999Z</time></trkpt><trkpt lat="45.676588013279066" lon="8.151724404516774"><ele>992.0</ele><time>2026-05-01T12:10:15.999Z</time></trkpt><trkpt lat="45.67649006429971" lon="8.151668680741551"><ele>992.0</ele><time>2026-05-01T12:10:16.999Z</time></trkpt><trkpt lat="45.67641327604808" lon="8.15162156758499"><ele>992.0</ele><time>2026-05-01T12:10:17.999Z</time></trkpt><trkpt lat="45.67633241502391" lon="8.151568904600186"><ele>992.0</ele><time>2026-05-01T12:10:18.999Z</time></trkpt><trkpt lat="45.67627583006163" lon="8.151469298301175"><ele>993.8</ele><time>2026-05-01T12:10:19.999Z</time></trkpt><trkpt lat="45.67624747093194" lon="8.151326404438263"><ele>995.6</ele><time>2026-05-01T12:10:20.999Z</time></trkpt><trkpt lat="45.676200929100105" lon="8.151169081708623"><ele>997.3999999999999</ele><time>2026-05-01T12:10:21.999Z</time></trkpt><trkpt lat="45.67615169529875" lon="8.151026106145963"><ele>999.1999999999999</ele><time>2026-05-01T12:10:22.999Z</time></trkpt><trkpt lat="45.67611165279137" lon="8.150922261635305"><ele>1001.0</ele><time>2026-05-01T12:10:23.999Z</time></trkpt><trkpt lat="45.67604746562727" lon="8.15082548634883"><ele>1001.0</ele><time>2026-05-01T12:10:24.999Z</time></trkpt><trkpt lat="45.67595148600975" lon="8.150761400467607"><ele>1001.0</ele><time>2026-05-01T12:10:25.999Z</time></trkpt><trkpt lat="45.67584343928887" lon="8.150747617641809"><ele>1001.0</ele><time>2026-05-01T12:10:26.999Z</time></trkpt><trkpt lat="45.67572387308951" lon="8.15077708175939"><ele>1001.0</ele><time>2026-05-01T12:10:27.999Z</time></trkpt><trkpt lat="45.67559516412466" lon="8.150816243901657"><ele>1001.0</ele><time>2026-05-01T12:10:28.999Z</time></trkpt><trkpt lat="45.675475051873136" lon="8.150848679998612"><ele>1000.9999999999999</ele><time>2026-05-01T12:10:29.999Z</time></trkpt><trkpt lat="45.675392848502625" lon="8.150850105614351"><ele>1000.9999999999999</ele><time>2026-05-01T12:10:30.999Z</time></trkpt><trkpt lat="45.67530243861398" lon="8.15083876569894"><ele>1001.0</ele><time>2026-05-01T12:10:31.999Z</time></trkpt><trkpt lat="45.67520480397572" lon="8.150786730720966"><ele>1001.0</ele><time>2026-05-01T12:10:32.999Z</time></trkpt><trkpt lat="45.675090219161326" lon="8.150709299296105"><ele>1000.4</ele><time>2026-05-01T12:10:33.999Z</time></trkpt><trkpt lat="45.67497590123878" lon="8.150655550586858"><ele>999.8</ele><time>2026-05-01T12:10:34.999Z</time></trkpt><trkpt lat="45.67490097315714" lon="8.150608225301543"><ele>999.1999999999999</ele><time>2026-05-01T12:10:35.999Z</time></trkpt><trkpt lat="45.67483583497883" lon="8.150570745792105"><ele>998.5999999999999</ele><time>2026-05-01T12:10:36.999Z</time></trkpt><trkpt lat="45.6747355775376" lon="8.150618870651433"><ele>998.0</ele><time>2026-05-01T12:10:37.999Z</time></trkpt><trkpt lat="45.67464813720303" lon="8.150726870481673"><ele>998.0</ele><time>2026-05-01T12:10:38.999Z</time></trkpt><trkpt lat="45.67455045565837" lon="8.15080546757503"><ele>998.0</ele><time>2026-05-01T12:10:39.999Z</time></trkpt><trkpt lat="45.67446390793655" lon="8.150841831909407"><ele>998.0</ele><time>2026-05-01T12:10:40.999Z</time></trkpt><trkpt lat="45.67436457565214" lon="8.150876867344016"><ele>998.0</ele><time>2026-05-01T12:10:41.999Z</time></trkpt><trkpt lat="45.67426494322316" lon="8.15082208508375"><ele>998.0</ele><time>2026-05-01T12:10:42.999Z</time></trkpt><trkpt lat="45.67416918884146" lon="8.150787044552741"><ele>1004.0</ele><time>2026-05-01T12:10:43.999Z</time></trkpt><trkpt lat="45.674085981664476" lon="8.150695478138232"><ele>1010.0</ele><time>2026-05-01T12:10:44.999Z</time></trkpt><trkpt lat="45.673999903643804" lon="8.150564777401136"><ele>1016.0</ele><time>2026-05-01T12:10:45.999Z</time></trkpt><trkpt lat="45.67390880547522" lon="8.150405633009933"><ele>1022.0</ele><time>2026-05-01T12:10:46.999Z</time></trkpt><trkpt lat="45.67379658670435" lon="8.150236622904174"><ele>1022.0</ele><time>2026-05-01T12:10:47.999Z</time></trkpt><trkpt lat="45.67368734513342" lon="8.150084814449272"><ele>1022.0</ele><time>2026-05-01T12:10:48.999Z</time></trkpt><trkpt lat="45.67360487785192" lon="8.149959083397235"><ele>1022.0</ele><time>2026-05-01T12:10:49.999Z</time></trkpt><trkpt lat="45.673534516331394" lon="8.149854108994735"><ele>1022.0</ele><time>2026-05-01T12:10:50.999Z</time></trkpt><trkpt lat="45.673475743001916" lon="8.149749469230741"><ele>1021.75</ele><time>2026-05-01T12:10:51.999Z</time></trkpt><trkpt lat="45.67341732719799" lon="8.149621231318653"><ele>1021.5</ele><time>2026-05-01T12:10:52.999Z</time></trkpt><trkpt lat="45.67337901240508" lon="8.149458791114254"><ele>1021.25</ele><time>2026-05-01T12:10:53.999Z</time></trkpt><trkpt lat="45.67334430844236" lon="8.149274726509924"><ele>1021.0</ele><time>2026-05-01T12:10:54.999Z</time></trkpt><trkpt lat="45.67330538795448" lon="8.149078128683895"><ele>1022.25</ele><time>2026-05-01T12:10:55.999Z</time></trkpt><trkpt lat="45.6732511420014" lon="8.14889912993109"><ele>1023.5</ele><time>2026-05-01T12:10:56.999Z</time></trkpt><trkpt lat="45.67317927304404" lon="8.148752334920912"><ele>1024.75</ele><time>2026-05-01T12:10:58Z</time></trkpt><trkpt lat="45.67309239233182" lon="8.148622351372872"><ele>1026.0</ele><time>2026-05-01T12:10:59Z</time></trkpt><trkpt lat="45.673002849760906" lon="8.148501488148318"><ele>1026.0</ele><time>2026-05-01T12:11:00Z</time></trkpt><trkpt lat="45.67293240183335" lon="8.14838982120182"><ele>1026.0</ele><time>2026-05-01T12:11:01Z</time></trkpt><trkpt lat="45.672897286522264" lon="8.14826832147973"><ele>1026.0</ele><time>2026-05-01T12:11:02Z</time></trkpt><trkpt lat="45.672857831034555" lon="8.148154963967977"><ele>1026.0</ele><time>2026-05-01T12:11:03Z</time></trkpt><trkpt lat="45.67285146520031" lon="8.148018290634411"><ele>1026.0</ele><time>2026-05-01T12:11:04Z</time></trkpt><trkpt lat="45.67286302530079" lon="8.147875415635031"><ele>1028.0</ele><time>2026-05-01T12:11:05Z</time></trkpt><trkpt lat="45.67288911958631" lon="8.147726449395705"><ele>1030.0</ele><time>2026-05-01T12:11:06Z</time></trkpt><trkpt lat="45.67291326970869" lon="8.14757574732133"><ele>1032.0</ele><time>2026-05-01T12:11:07Z</time></trkpt><trkpt lat="45.6729279048766" lon="8.147435612964053"><ele>1034.0</ele><time>2026-05-01T12:11:08Z</time></trkpt><trkpt lat="45.67295823503809" lon="8.147298818053143"><ele>1036.0</ele><time>2026-05-01T12:11:09Z</time></trkpt><trkpt lat="45.6729795318366" lon="8.147173186297877"><ele>1037.25</ele><time>2026-05-01T12:11:10Z</time></trkpt><trkpt lat="45.672985172927454" lon="8.147080118016504"><ele>1038.5</ele><time>2026-05-01T12:11:11Z</time></trkpt><trkpt lat="45.67304375032166" lon="8.146953953821647"><ele>1039.75</ele><time>2026-05-01T12:11:13Z</time></trkpt><trkpt lat="45.673147775096275" lon="8.146950678739698"><ele>1041.0</ele><time>2026-05-01T12:11:15Z</time></trkpt><trkpt lat="45.67318494264799" lon="8.147213898380114"><ele>1041.0</ele><time>2026-05-01T12:11:18Z</time></trkpt><trkpt lat="45.67316671890299" lon="8.147351498897248"><ele>1041.0</ele><time>2026-05-01T12:11:19Z</time></trkpt><trkpt lat="45.67315545700919" lon="8.147508484861838"><ele>1041.0</ele><time>2026-05-01T12:11:20Z</time></trkpt><trkpt lat="45.67315388998187" lon="8.147660157810305"><ele>1041.0</ele><time>2026-05-01T12:11:21Z</time></trkpt><trkpt lat="45.67315697342104" lon="8.147791234312905"><ele>1041.0</ele><time>2026-05-01T12:11:22Z</time></trkpt><trkpt lat="45.67317670166648" lon="8.147926576646462"><ele>1039.75</ele><time>2026-05-01T12:11:23Z</time></trkpt><trkpt lat="45.673216461403214" lon="8.148063038452777"><ele>1038.5</ele><time>2026-05-01T12:11:24Z</time></trkpt><trkpt lat="45.67329503950557" lon="8.148187619305974"><ele>1037.25</ele><time>2026-05-01T12:11:25Z</time></trkpt><trkpt lat="45.67342030604738" lon="8.1483281304961"><ele>1036.0</ele><time>2026-05-01T12:11:26Z</time></trkpt><trkpt lat="45.673529071701445" lon="8.148484427768302"><ele>1044.6666666666665</ele><time>2026-05-01T12:11:27Z</time></trkpt><trkpt lat="45.67361025902294" lon="8.148668673370016"><ele>1053.3333333333333</ele><time>2026-05-01T12:11:28Z</time></trkpt><trkpt lat="45.673705173854806" lon="8.148844437528771"><ele>1062.0</ele><time>2026-05-01T12:11:29Z</time></trkpt><trkpt lat="45.67377853899618" lon="8.14902531404727"><ele>1057.5</ele><time>2026-05-01T12:11:30Z</time></trkpt><trkpt lat="45.673848100864426" lon="8.14916928834461"><ele>1053.0</ele><time>2026-05-01T12:11:31Z</time></trkpt><trkpt lat="45.673929840952326" lon="8.149292363470865"><ele>1048.5</ele><time>2026-05-01T12:11:32Z</time></trkpt><trkpt lat="45.67401888887963" lon="8.149397709014067"><ele>1044.0</ele><time>2026-05-01T12:11:33Z</time></trkpt><trkpt lat="45.67412086003105" lon="8.149477311862178"><ele>1044.0</ele><time>2026-05-01T12:11:34Z</time></trkpt><trkpt lat="45.6742240288144" lon="8.149523386688383"><ele>1044.0</ele><time>2026-05-01T12:11:35Z</time></trkpt><trkpt lat="45.67432076186289" lon="8.14954085056077"><ele>1044.0</ele><time>2026-05-01T12:11:36Z</time></trkpt><trkpt lat="45.67440743771585" lon="8.14952425207047"><ele>1044.0</ele><time>2026-05-01T12:11:36.999Z</time></trkpt><trkpt lat="45.67449387888512" lon="8.149465874953092"><ele>1044.0</ele><time>2026-05-01T12:11:37.999Z</time></trkpt><trkpt lat="45.674593669222816" lon="8.149376037550695"><ele>1046.25</ele><time>2026-05-01T12:11:38.999Z</time></trkpt><trkpt lat="45.67472457359396" lon="8.149290062856863"><ele>1048.5</ele><time>2026-05-01T12:11:39.999Z</time></trkpt><trkpt lat="45.67484048543188" lon="8.149206352068063"><ele>1050.75</ele><time>2026-05-01T12:11:40.999Z</time></trkpt><trkpt lat="45.674944618117" lon="8.149166574037716"><ele>1053.0</ele><time>2026-05-01T12:11:41.999Z</time></trkpt><trkpt lat="45.67505016256635" lon="8.149171805095081"><ele>1053.0</ele><time>2026-05-01T12:11:42.999Z</time></trkpt><trkpt lat="45.675172810881655" lon="8.149177404768734"><ele>1053.0</ele><time>2026-05-01T12:11:43.999Z</time></trkpt><trkpt lat="45.67529636139793" lon="8.14917714382544"><ele>1053.0</ele><time>2026-05-01T12:11:44.999Z</time></trkpt><trkpt lat="45.67539745495965" lon="8.149154961263543"><ele>1053.0</ele><time>2026-05-01T12:11:45.999Z</time></trkpt><trkpt lat="45.675507708275994" lon="8.149096480088327"><ele>1066.6666666666667</ele><time>2026-05-01T12:11:46.999Z</time></trkpt><trkpt lat="45.675639068149735" lon="8.149026441019725"><ele>1080.3333333333335</ele><time>2026-05-01T12:11:47.999Z</time></trkpt><trkpt lat="45.67579067352323" lon="8.148973372311989"><ele>1094.0</ele><time>2026-05-01T12:11:48.999Z</time></trkpt><trkpt lat="45.67593280697224" lon="8.148887729686534"><ele>1094.0</ele><time>2026-05-01T12:11:49.999Z</time></trkpt><trkpt lat="45.67605746664116" lon="8.148820916106569"><ele>1094.0</ele><time>2026-05-01T12:11:50.999Z</time></trkpt><trkpt lat="45.67616615113345" lon="8.148785221244939"><ele>1094.0</ele><time>2026-05-01T12:11:51.999Z</time></trkpt><trkpt lat="45.676251053779495" lon="8.148732245436095"><ele>1094.0</ele><time>2026-05-01T12:11:52.999Z</time></trkpt><trkpt lat="45.67634521148066" lon="8.148756105722512"><ele>1094.0</ele><time>2026-05-01T12:11:53.999Z</time></trkpt><trkpt lat="45.67646225473547" lon="8.148779706010783"><ele>1095.0</ele><time>2026-05-01T12:11:54.999Z</time></trkpt><trkpt lat="45.67660494105164" lon="8.148795175952127"><ele>1096.0</ele><time>2026-05-01T12:11:55.999Z</time></trkpt><trkpt lat="45.67671925348836" lon="8.148848356518743"><ele>1097.0</ele><time>2026-05-01T12:11:56.999Z</time></trkpt><trkpt lat="45.67682370174066" lon="8.148873194758323"><ele>1098.0</ele><time>2026-05-01T12:11:57.999Z</time></trkpt><trkpt lat="45.676935224095615" lon="8.148960416186918"><ele>1094.5</ele><time>2026-05-01T12:11:58.999Z</time></trkpt><trkpt lat="45.677055127497006" lon="8.149094845063972"><ele>1091.0</ele><time>2026-05-01T12:11:59.999Z</time></trkpt><trkpt lat="45.67716565733158" lon="8.149224932346812"><ele>1087.5</ele><time>2026-05-01T12:12:00.999Z</time></trkpt><trkpt lat="45.67726438942505" lon="8.149328940491207"><ele>1084.0</ele><time>2026-05-01T12:12:01.999Z</time></trkpt><trkpt lat="45.677356103893175" lon="8.149402643454547"><ele>1084.0</ele><time>2026-05-01T12:12:02.999Z</time></trkpt><trkpt lat="45.67746101394856" lon="8.149452946506221"><ele>1084.0</ele><time>2026-05-01T12:12:03.999Z</time></trkpt><trkpt lat="45.677594234948394" lon="8.14946622829783"><ele>1084.0</ele><time>2026-05-01T12:12:04.999Z</time></trkpt><trkpt lat="45.6777427104489" lon="8.149465395461736"><ele>1084.0</ele><time>2026-05-01T12:12:05.999Z</time></trkpt><trkpt lat="45.67789273750709" lon="8.149468486876815"><ele>1084.8</ele><time>2026-05-01T12:12:06.999Z</time></trkpt><trkpt lat="45.67801663158651" lon="8.149476003148383"><ele>1085.6000000000001</ele><time>2026-05-01T12:12:07.999Z</time></trkpt><trkpt lat="45.67812123938639" lon="8.14948636251391"><ele>1086.4</ele><time>2026-05-01T12:12:08.999Z</time></trkpt><trkpt lat="45.67821668106261" lon="8.149492226767043"><ele>1087.2</ele><time>2026-05-01T12:12:09.999Z</time></trkpt><trkpt lat="45.67830867594791" lon="8.14947971552651"><ele>1088.0</ele><time>2026-05-01T12:12:10.999Z</time></trkpt><trkpt lat="45.6784063995674" lon="8.14947434864693"><ele>1088.0</ele><time>2026-05-01T12:12:11.999Z</time></trkpt><trkpt lat="45.67849890042106" lon="8.14935627781184"><ele>1088.0</ele><time>2026-05-01T12:12:12.999Z</time></trkpt><trkpt lat="45.67858501245559" lon="8.149252230730614"><ele>1088.0</ele><time>2026-05-01T12:12:13.999Z</time></trkpt><trkpt lat="45.67867198517065" lon="8.149161559355655"><ele>1088.0</ele><time>2026-05-01T12:12:14.999Z</time></trkpt><trkpt lat="45.678728779514515" lon="8.149048907608716"><ele>1088.0</ele><time>2026-05-01T12:12:15.999Z</time></trkpt><trkpt lat="45.6787450065646" lon="8.148902807129584"><ele>1086.75</ele><time>2026-05-01T12:12:16.999Z</time></trkpt><trkpt lat="45.678791681409244" lon="8.14875150996103"><ele>1085.5</ele><time>2026-05-01T12:12:17.999Z</time></trkpt><trkpt lat="45.67879970268517" lon="8.148572131570857"><ele>1084.25</ele><time>2026-05-01T12:12:18.999Z</time></trkpt><trkpt lat="45.67883013285904" lon="8.148375743229211"><ele>1083.0</ele><time>2026-05-01T12:12:19.999Z</time></trkpt><trkpt lat="45.67887738117518" lon="8.148192624829383"><ele>1087.25</ele><time>2026-05-01T12:12:20.999Z</time></trkpt><trkpt lat="45.67890495963169" lon="8.148016783565266"><ele>1091.5</ele><time>2026-05-01T12:12:21.999Z</time></trkpt><trkpt lat="45.67894358676374" lon="8.147847446549239"><ele>1095.75</ele><time>2026-05-01T12:12:22.999Z</time></trkpt><trkpt lat="45.678999893386674" lon="8.147657093108878"><ele>1100.0</ele><time>2026-05-01T12:12:23.999Z</time></trkpt><trkpt lat="45.679073392046874" lon="8.14744629540798"><ele>1107.6666666666667</ele><time>2026-05-01T12:12:24.999Z</time></trkpt><trkpt lat="45.67918319092062" lon="8.14723535915228"><ele>1115.3333333333333</ele><time>2026-05-01T12:12:25.999Z</time></trkpt><trkpt lat="45.67928079087506" lon="8.147023794570886"><ele>1123.0</ele><time>2026-05-01T12:12:26.999Z</time></trkpt><trkpt lat="45.67935966787379" lon="8.146831085010833"><ele>1123.0</ele><time>2026-05-01T12:12:27.999Z</time></trkpt><trkpt lat="45.67943231411221" lon="8.146623014439673"><ele>1123.0</ele><time>2026-05-01T12:12:28.999Z</time></trkpt><trkpt lat="45.679494036621364" lon="8.146401192808133"><ele>1123.0</ele><time>2026-05-01T12:12:29.999Z</time></trkpt><trkpt lat="45.679553565408774" lon="8.14619932876431"><ele>1123.0</ele><time>2026-05-01T12:12:30.999Z</time></trkpt><trkpt lat="45.67961372092" lon="8.146009239144016"><ele>1123.0</ele><time>2026-05-01T12:12:31.999Z</time></trkpt><trkpt lat="45.67966920848216" lon="8.145843970301499"><ele>1123.0</ele><time>2026-05-01T12:12:32.999Z</time></trkpt><trkpt lat="45.679738615247814" lon="8.145683842618462"><ele>1123.0</ele><time>2026-05-01T12:12:33.999Z</time></trkpt><trkpt lat="45.67982576263586" lon="8.14556749472974"><ele>1127.6</ele><time>2026-05-01T12:12:34.999Z</time></trkpt><trkpt lat="45.679900613461754" lon="8.145454857744655"><ele>1132.1999999999998</ele><time>2026-05-01T12:12:35.999Z</time></trkpt><trkpt lat="45.6799840918845" lon="8.14537166404069"><ele>1136.8</ele><time>2026-05-01T12:12:36.999Z</time></trkpt><trkpt lat="45.680070300909016" lon="8.145309601832011"><ele>1141.3999999999999</ele><time>2026-05-01T12:12:37.999Z</time></trkpt><trkpt lat="45.68016370862781" lon="8.145248830099643"><ele>1146.0</ele><time>2026-05-01T12:12:38.999Z</time></trkpt><trkpt lat="45.680272102922096" lon="8.145272642558245"><ele>1147.5</ele><time>2026-05-01T12:12:39.999Z</time></trkpt><trkpt lat="45.680378716366825" lon="8.145311750732262"><ele>1149.0</ele><time>2026-05-01T12:12:40.999Z</time></trkpt><trkpt lat="45.68050469071918" lon="8.145353986012402"><ele>1150.5</ele><time>2026-05-01T12:12:41.999Z</time></trkpt><trkpt lat="45.680643689375636" lon="8.145424377873859"><ele>1152.0</ele><time>2026-05-01T12:12:42.999Z</time></trkpt><trkpt lat="45.680759957803176" lon="8.145477616177896"><ele>1152.0</ele><time>2026-05-01T12:12:43.999Z</time></trkpt><trkpt lat="45.68085109875585" lon="8.145509120594989"><ele>1152.0</ele><time>2026-05-01T12:12:44.999Z</time></trkpt><trkpt lat="45.68093320664472" lon="8.145526238614437"><ele>1152.0</ele><time>2026-05-01T12:12:45.999Z</time></trkpt><trkpt lat="45.68101101972827" lon="8.145515210211743"><ele>1152.0</ele><time>2026-05-01T12:12:46.999Z</time></trkpt><trkpt lat="45.68108092323657" lon="8.145472076505767"><ele>1152.0</ele><time>2026-05-01T12:12:47.999Z</time></trkpt><trkpt lat="45.68114496236633" lon="8.14538287085567"><ele>1152.0</ele><time>2026-05-01T12:12:48.999Z</time></trkpt><trkpt lat="45.68120935790453" lon="8.145250468897679"><ele>1154.3333333333333</ele><time>2026-05-01T12:12:49.999Z</time></trkpt><trkpt lat="45.68127875761998" lon="8.145081256855741"><ele>1156.6666666666665</ele><time>2026-05-01T12:12:50.999Z</time></trkpt><trkpt lat="45.681368854591206" lon="8.144871839989946"><ele>1159.0</ele><time>2026-05-01T12:12:51.999Z</time></trkpt><trkpt lat="45.68144835455727" lon="8.14465454847959"><ele>1159.0</ele><time>2026-05-01T12:12:52.999Z</time></trkpt><trkpt lat="45.681512502363205" lon="8.144498868514146"><ele>1159.0</ele><time>2026-05-01T12:12:53.999Z</time></trkpt><trkpt lat="45.68156249314979" lon="8.144382396981939"><ele>1159.0</ele><time>2026-05-01T12:12:54.999Z</time></trkpt><trkpt lat="45.68162481490153" lon="8.144289319112245"><ele>1159.0</ele><time>2026-05-01T12:12:55.999Z</time></trkpt><trkpt lat="45.681707127756916" lon="8.144209104003496"><ele>1159.0</ele><time>2026-05-01T12:12:56.999Z</time></trkpt><trkpt lat="45.68181384318617" lon="8.144148328631683"><ele>1160.0</ele><time>2026-05-01T12:12:57.999Z</time></trkpt><trkpt lat="45.68194183100549" lon="8.14415700099708"><ele>1161.0</ele><time>2026-05-01T12:12:58.999Z</time></trkpt><trkpt lat="45.68208493940804" lon="8.144129199950633"><ele>1162.0</ele><time>2026-05-01T12:12:59.999Z</time></trkpt><trkpt lat="45.68223331242905" lon="8.144118950111347"><ele>1163.0</ele><time>2026-05-01T12:13:00.999Z</time></trkpt><trkpt lat="45.6823614809971" lon="8.14411184005688"><ele>1163.0</ele><time>2026-05-01T12:13:01.999Z</time></trkpt><trkpt lat="45.68246460364602" lon="8.144112111526969"><ele>1163.0</ele><time>2026-05-01T12:13:02.999Z</time></trkpt><trkpt lat="45.682560201664415" lon="8.144160753442806"><ele>1163.0</ele><time>2026-05-01T12:13:04Z</time></trkpt><trkpt lat="45.68266402862162" lon="8.144202177405527"><ele>1163.0</ele><time>2026-05-01T12:13:05Z</time></trkpt><trkpt lat="45.682763742899006" lon="8.144339697918898"><ele>1167.8</ele><time>2026-05-01T12:13:06Z</time></trkpt><trkpt lat="45.68288042054571" lon="8.144414089817372"><ele>1172.6</ele><time>2026-05-01T12:13:07Z</time></trkpt><trkpt lat="45.6829732933215" lon="8.144455082084228"><ele>1177.4</ele><time>2026-05-01T12:13:08Z</time></trkpt><trkpt lat="45.683074680989556" lon="8.144504734565059"><ele>1182.2</ele><time>2026-05-01T12:13:09Z</time></trkpt><trkpt lat="45.683167497352606" lon="8.144566025669473"><ele>1187.0</ele><time>2026-05-01T12:13:10Z</time></trkpt><trkpt lat="45.68327088057162" lon="8.144609993153752"><ele>1187.0</ele><time>2026-05-01T12:13:11Z</time></trkpt><trkpt lat="45.683350158708215" lon="8.144713359150439"><ele>1187.0</ele><time>2026-05-01T12:13:12Z</time></trkpt><trkpt lat="45.68341951817393" lon="8.14482848112425"><ele>1187.0</ele><time>2026-05-01T12:13:13Z</time></trkpt><trkpt lat="45.68347844345297" lon="8.144955306966677"><ele>1187.0</ele><time>2026-05-01T12:13:14Z</time></trkpt><trkpt lat="45.683534494842505" lon="8.14508870866481"><ele>1187.0</ele><time>2026-05-01T12:13:15Z</time></trkpt><trkpt lat="45.68360519015788" lon="8.145218408677096"><ele>1190.3333333333335</ele><time>2026-05-01T12:13:16Z</time></trkpt><trkpt lat="45.683710691466636" lon="8.145343972278528"><ele>1193.6666666666667</ele><time>2026-05-01T12:13:17Z</time></trkpt><trkpt lat="45.683849971010794" lon="8.145463466115725"><ele>1197.0</ele><time>2026-05-01T12:13:18Z</time></trkpt><trkpt lat="45.68397983047849" lon="8.145586816948503"><ele>1197.0</ele><time>2026-05-01T12:13:19Z</time></trkpt><trkpt lat="45.684089532848205" lon="8.145701163456573"><ele>1197.0</ele><time>2026-05-01T12:13:20.001Z</time></trkpt><trkpt lat="45.684171888664366" lon="8.145818554884876"><ele>1197.0</ele><time>2026-05-01T12:13:21.001Z</time></trkpt><trkpt lat="45.68423283065896" lon="8.14592738871741"><ele>1197.0</ele><time>2026-05-01T12:13:22.001Z</time></trkpt><trkpt lat="45.68427867733979" lon="8.146051186050018"><ele>1197.0</ele><time>2026-05-01T12:13:23.001Z</time></trkpt><trkpt lat="45.68431110160057" lon="8.146167763441905"><ele>1196.2</ele><time>2026-05-01T12:13:24.001Z</time></trkpt><trkpt lat="45.68432861007139" lon="8.146282536103051"><ele>1195.4</ele><time>2026-05-01T12:13:25.001Z</time></trkpt><trkpt lat="45.6843337462115" lon="8.14642132699884"><ele>1194.6</ele><time>2026-05-01T12:13:26.001Z</time></trkpt><trkpt lat="45.684336868555185" lon="8.146527492184568"><ele>1193.8</ele><time>2026-05-01T12:13:27.001Z</time></trkpt><trkpt lat="45.684417935639054" lon="8.146639303795038"><ele>1193.0</ele><time>2026-05-01T12:13:29.001Z</time></trkpt><trkpt lat="45.6845283110149" lon="8.146579651884048"><ele>1189.8</ele><time>2026-05-01T12:13:31.001Z</time></trkpt><trkpt lat="45.684549355618664" lon="8.146481977224928"><ele>1186.6</ele><time>2026-05-01T12:13:32.001Z</time></trkpt><trkpt lat="45.68453923160275" lon="8.146357607110291"><ele>1183.4</ele><time>2026-05-01T12:13:33.001Z</time></trkpt><trkpt lat="45.68450398176496" lon="8.146211696549322"><ele>1180.2</ele><time>2026-05-01T12:13:34.001Z</time></trkpt><trkpt lat="45.68445148941125" lon="8.146014571120201"><ele>1177.0</ele><time>2026-05-01T12:13:35.001Z</time></trkpt><trkpt lat="45.684395552479856" lon="8.145801634089631"><ele>1183.6666666666665</ele><time>2026-05-01T12:13:36.001Z</time></trkpt><trkpt lat="45.68433131915541" lon="8.145588622679917"><ele>1190.3333333333333</ele><time>2026-05-01T12:13:37.001Z</time></trkpt><trkpt lat="45.6842503166334" lon="8.14538209815905"><ele>1197.0</ele><time>2026-05-01T12:13:38.001Z</time></trkpt><trkpt lat="45.684173415590735" lon="8.145208972059775"><ele>1197.0</ele><time>2026-05-01T12:13:39.001Z</time></trkpt><trkpt lat="45.68409774489972" lon="8.145048056227548"><ele>1197.0</ele><time>2026-05-01T12:13:40.001Z</time></trkpt><trkpt lat="45.68401438337322" lon="8.144922376299073"><ele>1197.0</ele><time>2026-05-01T12:13:41.001Z</time></trkpt><trkpt lat="45.68393762405439" lon="8.144821221926358"><ele>1197.0</ele><time>2026-05-01T12:13:42Z</time></trkpt><trkpt lat="45.68387693160846" lon="8.144722593142381"><ele>1202.75</ele><time>2026-05-01T12:13:43Z</time></trkpt><trkpt lat="45.68382818339465" lon="8.144604065679186"><ele>1208.5</ele><time>2026-05-01T12:13:44Z</time></trkpt><trkpt lat="45.68378951867115" lon="8.144458371398237"><ele>1214.25</ele><time>2026-05-01T12:13:45Z</time></trkpt><trkpt lat="45.683733725293756" lon="8.144287835380588"><ele>1220.0</ele><time>2026-05-01T12:13:46Z</time></trkpt><trkpt lat="45.68366469302195" lon="8.144135432144619"><ele>1213.3333333333335</ele><time>2026-05-01T12:13:47Z</time></trkpt><trkpt lat="45.683556094801446" lon="8.143991502965125"><ele>1206.6666666666667</ele><time>2026-05-01T12:13:48Z</time></trkpt><trkpt lat="45.68344267932722" lon="8.143838578899057"><ele>1200.0</ele><time>2026-05-01T12:13:49Z</time></trkpt><trkpt lat="45.683333571410365" lon="8.143695201439314"><ele>1200.0</ele><time>2026-05-01T12:13:50Z</time></trkpt><trkpt lat="45.68320171280223" lon="8.143553984001645"><ele>1200.0</ele><time>2026-05-01T12:13:51Z</time></trkpt><trkpt lat="45.68305507084735" lon="8.143396469098468"><ele>1200.0</ele><time>2026-05-01T12:13:52Z</time></trkpt><trkpt lat="45.682923969284474" lon="8.143259838867593"><ele>1200.25</ele><time>2026-05-01T12:13:53Z</time></trkpt><trkpt lat="45.68279549509211" lon="8.143133383718961"><ele>1200.5</ele><time>2026-05-01T12:13:54Z</time></trkpt><trkpt lat="45.68266817095364" lon="8.143013696264465"><ele>1200.75</ele><time>2026-05-01T12:13:55Z</time></trkpt><trkpt lat="45.68256055842943" lon="8.142906703605243"><ele>1201.0</ele><time>2026-05-01T12:13:56Z</time></trkpt><trkpt lat="45.682466860221744" lon="8.142808158364886"><ele>1201.5</ele><time>2026-05-01T12:13:57Z</time></trkpt><trkpt lat="45.68236781685476" lon="8.142736278908059"><ele>1202.0</ele><time>2026-05-01T12:13:58Z</time></trkpt><trkpt lat="45.68225113859535" lon="8.142685788740064"><ele>1202.5</ele><time>2026-05-01T12:13:59Z</time></trkpt><trkpt lat="45.68212400394818" lon="8.142661558153712"><ele>1203.0</ele><time>2026-05-01T12:14:00Z</time></trkpt><trkpt lat="45.68197949601202" lon="8.142662158487349"><ele>1204.6666666666667</ele><time>2026-05-01T12:14:01Z</time></trkpt><trkpt lat="45.681812795589636" lon="8.142695295235884"><ele>1206.3333333333335</ele><time>2026-05-01T12:14:02Z</time></trkpt><trkpt lat="45.681633505569216" lon="8.142743694822766"><ele>1208.0</ele><time>2026-05-01T12:14:03Z</time></trkpt><trkpt lat="45.68146001041555" lon="8.142798405412403"><ele>1208.0</ele><time>2026-05-01T12:14:04Z</time></trkpt><trkpt lat="45.681304900423086" lon="8.142865720393747"><ele>1208.0</ele><time>2026-05-01T12:14:05Z</time></trkpt><trkpt lat="45.68115233782463" lon="8.14295322706615"><ele>1208.0</ele><time>2026-05-01T12:14:06Z</time></trkpt><trkpt lat="45.68101273388043" lon="8.143048742427208"><ele>1208.0</ele><time>2026-05-01T12:14:07Z</time></trkpt><trkpt lat="45.68088435324018" lon="8.143148338405554"><ele>1208.0</ele><time>2026-05-01T12:14:08Z</time></trkpt><trkpt lat="45.680763659658275" lon="8.143228804187702"><ele>1208.0</ele><time>2026-05-01T12:14:09Z</time></trkpt><trkpt lat="45.68065025380445" lon="8.143294817480507"><ele>1208.0</ele><time>2026-05-01T12:14:10Z</time></trkpt><trkpt lat="45.680545632361216" lon="8.143339946537587"><ele>1208.0</ele><time>2026-05-01T12:14:11Z</time></trkpt><trkpt lat="45.68044473674706" lon="8.143364463260422"><ele>1208.0</ele><time>2026-05-01T12:14:12Z</time></trkpt><trkpt lat="45.680318865823516" lon="8.143353737192724"><ele>1208.0</ele><time>2026-05-01T12:14:13Z</time></trkpt><trkpt lat="45.68018123532545" lon="8.143312170463714"><ele>1208.0</ele><time>2026-05-01T12:14:14Z</time></trkpt><trkpt lat="45.680055267659434" lon="8.143271404040336"><ele>1211.25</ele><time>2026-05-01T12:14:15Z</time></trkpt><trkpt lat="45.67994471075398" lon="8.14325747071755"><ele>1214.5</ele><time>2026-05-01T12:14:16Z</time></trkpt><trkpt lat="45.67983385444036" lon="8.143240962844116"><ele>1217.75</ele><time>2026-05-01T12:14:17Z</time></trkpt><trkpt lat="45.67971635838674" lon="8.143325456757275"><ele>1221.0</ele><time>2026-05-01T12:14:18Z</time></trkpt><trkpt lat="45.67958619963224" lon="8.143415807840517"><ele>1221.0</ele><time>2026-05-01T12:14:19Z</time></trkpt><trkpt lat="45.67945098871956" lon="8.14347864686652"><ele>1221.0</ele><time>2026-05-01T12:14:20Z</time></trkpt><trkpt lat="45.67934669618901" lon="8.143540792123172"><ele>1221.0</ele><time>2026-05-01T12:14:21Z</time></trkpt><trkpt lat="45.6792392590303" lon="8.143562581235136"><ele>1221.0</ele><time>2026-05-01T12:14:22Z</time></trkpt><trkpt lat="45.67911590429795" lon="8.14355572435534"><ele>1224.0</ele><time>2026-05-01T12:14:23Z</time></trkpt><trkpt lat="45.678999841802025" lon="8.143565575899643"><ele>1227.0</ele><time>2026-05-01T12:14:24Z</time></trkpt><trkpt lat="45.67890766397263" lon="8.143585951469506"><ele>1230.0</ele><time>2026-05-01T12:14:25Z</time></trkpt><trkpt lat="45.67881439372715" lon="8.143627664542752"><ele>1233.0</ele><time>2026-05-01T12:14:26Z</time></trkpt><trkpt lat="45.67873696321904" lon="8.143738507278043"><ele>1236.0</ele><time>2026-05-01T12:14:27Z</time></trkpt><trkpt lat="45.678662336909404" lon="8.143885910310658"><ele>1236.5</ele><time>2026-05-01T12:14:28Z</time></trkpt><trkpt lat="45.678593402451725" lon="8.14403296153186"><ele>1237.0</ele><time>2026-05-01T12:14:29Z</time></trkpt><trkpt lat="45.67851855924789" lon="8.144190229107682"><ele>1237.5</ele><time>2026-05-01T12:14:30Z</time></trkpt><trkpt lat="45.67842821825172" lon="8.144336520330617"><ele>1238.0</ele><time>2026-05-01T12:14:31Z</time></trkpt><trkpt lat="45.67831605691076" lon="8.144478965127703"><ele>1238.0</ele><time>2026-05-01T12:14:32Z</time></trkpt><trkpt lat="45.67822080540021" lon="8.144649262203437"><ele>1238.0</ele><time>2026-05-01T12:14:33Z</time></trkpt><trkpt lat="45.67810828012566" lon="8.144794457053855"><ele>1238.0</ele><time>2026-05-01T12:14:34Z</time></trkpt><trkpt lat="45.67801656109106" lon="8.144942203782852"><ele>1238.0</ele><time>2026-05-01T12:14:35Z</time></trkpt><trkpt lat="45.67793861525706" lon="8.145061147293744"><ele>1240.2</ele><time>2026-05-01T12:14:36Z</time></trkpt><trkpt lat="45.67786831002559" lon="8.145148635032628"><ele>1242.4</ele><time>2026-05-01T12:14:37Z</time></trkpt><trkpt lat="45.67779009702598" lon="8.145216194506164"><ele>1244.6000000000001</ele><time>2026-05-01T12:14:38Z</time></trkpt><trkpt lat="45.67769799031569" lon="8.14524641509069"><ele>1246.8</ele><time>2026-05-01T12:14:39Z</time></trkpt><trkpt lat="45.677578898880626" lon="8.145253056203668"><ele>1249.0</ele><time>2026-05-01T12:14:40Z</time></trkpt><trkpt lat="45.67744188049104" lon="8.145271009045196"><ele>1249.0</ele><time>2026-05-01T12:14:41Z</time></trkpt><trkpt lat="45.67730591215205" lon="8.14525761515138"><ele>1249.0</ele><time>2026-05-01T12:14:42Z</time></trkpt><trkpt lat="45.677192494821256" lon="8.14526028141193"><ele>1249.0</ele><time>2026-05-01T12:14:43Z</time></trkpt><trkpt lat="45.6770902106457" lon="8.145249690295135"><ele>1249.0</ele><time>2026-05-01T12:14:44Z</time></trkpt><trkpt lat="45.676974420207486" lon="8.145232934244227"><ele>1248.2</ele><time>2026-05-01T12:14:45Z</time></trkpt><trkpt lat="45.676857961777294" lon="8.145173915193384"><ele>1247.4</ele><time>2026-05-01T12:14:46Z</time></trkpt><trkpt lat="45.67674757752796" lon="8.14509353494646"><ele>1246.6</ele><time>2026-05-01T12:14:47Z</time></trkpt><trkpt lat="45.67666023475571" lon="8.145008771867003"><ele>1245.8</ele><time>2026-05-01T12:14:48Z</time></trkpt><trkpt lat="45.67658837839218" lon="8.144922921875883"><ele>1245.0</ele><time>2026-05-01T12:14:49Z</time></trkpt><trkpt lat="45.67653550291451" lon="8.144802087629547"><ele>1250.25</ele><time>2026-05-01T12:14:50Z</time></trkpt><trkpt lat="45.676477335154175" lon="8.144671402218554"><ele>1255.5</ele><time>2026-05-01T12:14:51Z</time></trkpt><trkpt lat="45.676436577122445" lon="8.14450506698637"><ele>1260.75</ele><time>2026-05-01T12:14:52Z</time></trkpt><trkpt lat="45.67640544446997" lon="8.144303868166357"><ele>1266.0</ele><time>2026-05-01T12:14:53Z</time></trkpt><trkpt lat="45.676362922441314" lon="8.144095154495183"><ele>1271.25</ele><time>2026-05-01T12:14:54Z</time></trkpt><trkpt lat="45.676324783916506" lon="8.143887557449004"><ele>1276.5</ele><time>2026-05-01T12:14:55Z</time></trkpt><trkpt lat="45.676297657955025" lon="8.143727531064371"><ele>1281.75</ele><time>2026-05-01T12:14:56Z</time></trkpt><trkpt lat="45.67626813618709" lon="8.143582654422769"><ele>1287.0</ele><time>2026-05-01T12:14:57Z</time></trkpt><trkpt lat="45.67623153933238" lon="8.143461329311847"><ele>1287.0</ele><time>2026-05-01T12:14:58Z</time></trkpt><trkpt lat="45.676174831693224" lon="8.143347223204378"><ele>1287.0</ele><time>2026-05-01T12:14:59Z</time></trkpt><trkpt lat="45.676085751772426" lon="8.143254808902515"><ele>1287.0</ele><time>2026-05-01T12:15:00Z</time></trkpt><trkpt lat="45.67597651063385" lon="8.143169292275546"><ele>1287.0</ele><time>2026-05-01T12:15:01Z</time></trkpt><trkpt lat="45.67584358449238" lon="8.143093225195617"><ele>1284.5</ele><time>2026-05-01T12:15:02Z</time></trkpt><trkpt lat="45.67570558454962" lon="8.143026969239243"><ele>1282.0</ele><time>2026-05-01T12:15:03Z</time></trkpt><trkpt lat="45.67560166219689" lon="8.142946919136824"><ele>1279.5</ele><time>2026-05-01T12:15:04Z</time></trkpt><trkpt lat="45.675512730325686" lon="8.142837715415306"><ele>1277.0</ele><time>2026-05-01T12:15:05Z</time></trkpt><trkpt lat="45.67543076822836" lon="8.142698183609532"><ele>1277.0</ele><time>2026-05-01T12:15:06Z</time></trkpt><trkpt lat="45.675352443660614" lon="8.142536170065066"><ele>1277.0</ele><time>2026-05-01T12:15:07Z</time></trkpt><trkpt lat="45.67527646618375" lon="8.142366588071589"><ele>1277.0</ele><time>2026-05-01T12:15:08Z</time></trkpt><trkpt lat="45.67520538124327" lon="8.142182691117196"><ele>1277.0</ele><time>2026-05-01T12:15:09Z</time></trkpt><trkpt lat="45.67514610135649" lon="8.141993631457947"><ele>1274.5</ele><time>2026-05-01T12:15:10.001Z</time></trkpt><trkpt lat="45.675086550288746" lon="8.141808564518408"><ele>1272.0</ele><time>2026-05-01T12:15:11.001Z</time></trkpt><trkpt lat="45.67503034401715" lon="8.141642984067092"><ele>1269.5</ele><time>2026-05-01T12:15:12.001Z</time></trkpt><trkpt lat="45.67498058254498" lon="8.141469064136224"><ele>1267.0</ele><time>2026-05-01T12:15:13.001Z</time></trkpt><trkpt lat="45.67494521918957" lon="8.141274712034718"><ele>1267.0</ele><time>2026-05-01T12:15:14.001Z</time></trkpt><trkpt lat="45.67491801363733" lon="8.141055855485757"><ele>1267.0</ele><time>2026-05-01T12:15:15.001Z</time></trkpt><trkpt lat="45.67490180209275" lon="8.140845066122122"><ele>1267.0</ele><time>2026-05-01T12:15:16.001Z</time></trkpt><trkpt lat="45.6748917797259" lon="8.140620431900087"><ele>1270.0</ele><time>2026-05-01T12:15:17.001Z</time></trkpt><trkpt lat="45.67488313394817" lon="8.140376826741042"><ele>1273.0</ele><time>2026-05-01T12:15:18.001Z</time></trkpt><trkpt lat="45.674871786076686" lon="8.140124949685967"><ele>1276.0</ele><time>2026-05-01T12:15:19.001Z</time></trkpt><trkpt lat="45.674859667682995" lon="8.13990228685853"><ele>1278.5</ele><time>2026-05-01T12:15:20.001Z</time></trkpt><trkpt lat="45.6748470178308" lon="8.139708548861657"><ele>1281.0</ele><time>2026-05-01T12:15:21.001Z</time></trkpt><trkpt lat="45.67482653895901" lon="8.13955762193587"><ele>1283.5</ele><time>2026-05-01T12:15:22.001Z</time></trkpt><trkpt lat="45.67479438337594" lon="8.139400848565876"><ele>1286.0</ele><time>2026-05-01T12:15:23.001Z</time></trkpt><trkpt lat="45.674744823330286" lon="8.139236862771863"><ele>1286.0</ele><time>2026-05-01T12:15:24.001Z</time></trkpt><trkpt lat="45.67469157443606" lon="8.139090453987036"><ele>1286.0</ele><time>2026-05-01T12:15:25.001Z</time></trkpt><trkpt lat="45.674618582350604" lon="8.138955108996052"><ele>1286.0</ele><time>2026-05-01T12:15:26.001Z</time></trkpt><trkpt lat="45.67452683115958" lon="8.138822542558108"><ele>1286.0</ele><time>2026-05-01T12:15:27.001Z</time></trkpt><trkpt lat="45.674437380460226" lon="8.138698194440574"><ele>1287.25</ele><time>2026-05-01T12:15:28.001Z</time></trkpt><trkpt lat="45.674368741210415" lon="8.13858882260567"><ele>1288.5</ele><time>2026-05-01T12:15:29.001Z</time></trkpt><trkpt lat="45.67432083892123" lon="8.13845192997745"><ele>1289.75</ele><time>2026-05-01T12:15:30.001Z</time></trkpt><trkpt lat="45.67427649965842" lon="8.138263553980368"><ele>1291.0</ele><time>2026-05-01T12:15:31.001Z</time></trkpt><trkpt lat="45.674235005084476" lon="8.138053935527363"><ele>1291.0</ele><time>2026-05-01T12:15:32.001Z</time></trkpt><trkpt lat="45.67418647560515" lon="8.137847942068493"><ele>1291.0</ele><time>2026-05-01T12:15:33.001Z</time></trkpt><trkpt lat="45.67412296478577" lon="8.137645371109052"><ele>1291.0</ele><time>2026-05-01T12:15:34.001Z</time></trkpt><trkpt lat="45.67405456340116" lon="8.137474671188494"><ele>1291.0</ele><time>2026-05-01T12:15:35.001Z</time></trkpt><trkpt lat="45.67398005359515" lon="8.137343453296559"><ele>1288.25</ele><time>2026-05-01T12:15:36.001Z</time></trkpt><trkpt lat="45.67388973990108" lon="8.13720270480321"><ele>1285.5</ele><time>2026-05-01T12:15:37.001Z</time></trkpt><trkpt lat="45.67377944290153" lon="8.1370521627527"><ele>1282.75</ele><time>2026-05-01T12:15:38.001Z</time></trkpt><trkpt lat="45.673659275882144" lon="8.13692157391118"><ele>1280.0</ele><time>2026-05-01T12:15:39.001Z</time></trkpt><trkpt lat="45.673540838933626" lon="8.136793181925547"><ele>1280.0</ele><time>2026-05-01T12:15:40.001Z</time></trkpt><trkpt lat="45.67342513113931" lon="8.13668556516902"><ele>1280.0</ele><time>2026-05-01T12:15:41Z</time></trkpt><trkpt lat="45.67331605760403" lon="8.13654103832286"><ele>1280.0</ele><time>2026-05-01T12:15:42Z</time></trkpt><trkpt lat="45.67321796978177" lon="8.136358915995665"><ele>1280.0</ele><time>2026-05-01T12:15:43Z</time></trkpt><trkpt lat="45.67312736964749" lon="8.136146978429784"><ele>1288.0</ele><time>2026-05-01T12:15:44Z</time></trkpt><trkpt lat="45.67302984813654" lon="8.135910246171735"><ele>1296.0</ele><time>2026-05-01T12:15:45Z</time></trkpt><trkpt lat="45.672925960790025" lon="8.135667826186957"><ele>1304.0</ele><time>2026-05-01T12:15:46Z</time></trkpt><trkpt lat="45.67282357636888" lon="8.135426894395493"><ele>1305.6666666666667</ele><time>2026-05-01T12:15:47Z</time></trkpt><trkpt lat="45.67272875354251" lon="8.135205555332897"><ele>1307.3333333333333</ele><time>2026-05-01T12:15:48Z</time></trkpt><trkpt lat="45.67263789122233" lon="8.134986665803854"><ele>1309.0</ele><time>2026-05-01T12:15:49Z</time></trkpt><trkpt lat="45.67254410060106" lon="8.134785317914915"><ele>1309.0</ele><time>2026-05-01T12:15:50Z</time></trkpt><trkpt lat="45.67244457364461" lon="8.134598733481438"><ele>1309.0</ele><time>2026-05-01T12:15:51Z</time></trkpt><trkpt lat="45.67232049125065" lon="8.134413284497736"><ele>1309.0</ele><time>2026-05-01T12:15:52Z</time></trkpt><trkpt lat="45.672173236646216" lon="8.134222806734224"><ele>1309.3333333333333</ele><time>2026-05-01T12:15:53Z</time></trkpt><trkpt lat="45.6720091013078" lon="8.134015933895746"><ele>1309.6666666666667</ele><time>2026-05-01T12:15:54Z</time></trkpt><trkpt lat="45.67184746802294" lon="8.133816101151659"><ele>1310.0</ele><time>2026-05-01T12:15:55Z</time></trkpt><trkpt lat="45.671693213128385" lon="8.133621715536547"><ele>1310.0</ele><time>2026-05-01T12:15:56Z</time></trkpt><trkpt lat="45.67155096400905" lon="8.133440488771166"><ele>1310.0</ele><time>2026-05-01T12:15:57Z</time></trkpt><trkpt lat="45.67141722312747" lon="8.133270568211195"><ele>1310.0</ele><time>2026-05-01T12:15:58Z</time></trkpt><trkpt lat="45.67129389605759" lon="8.133113315880365"><ele>1311.5</ele><time>2026-05-01T12:15:59Z</time></trkpt><trkpt lat="45.67118111098432" lon="8.132979375271708"><ele>1313.0</ele><time>2026-05-01T12:16:00Z</time></trkpt><trkpt lat="45.67108670331367" lon="8.132857939517287"><ele>1314.5</ele><time>2026-05-01T12:16:01Z</time></trkpt><trkpt lat="45.67099276324834" lon="8.132741539651258"><ele>1316.0</ele><time>2026-05-01T12:16:02Z</time></trkpt><trkpt lat="45.67088166044349" lon="8.132666022806205"><ele>1316.0</ele><time>2026-05-01T12:16:03Z</time></trkpt><trkpt lat="45.67073707727811" lon="8.132579402661017"><ele>1316.0</ele><time>2026-05-01T12:16:04Z</time></trkpt><trkpt lat="45.67058749539003" lon="8.132515720775714"><ele>1316.0</ele><time>2026-05-01T12:16:05Z</time></trkpt><trkpt lat="45.670451669489715" lon="8.132466026909261"><ele>1316.0</ele><time>2026-05-01T12:16:06Z</time></trkpt><trkpt lat="45.670342417607365" lon="8.13242832549699"><ele>1316.0</ele><time>2026-05-01T12:16:07Z</time></trkpt><trkpt lat="45.67024712034343" lon="8.13240160683141"><ele>1316.0</ele><time>2026-05-01T12:16:08Z</time></trkpt><trkpt lat="45.670150644076806" lon="8.132401880668416"><ele>1316.0</ele><time>2026-05-01T12:16:09Z</time></trkpt><trkpt lat="45.67005324995651" lon="8.132438077744562"><ele>1316.0</ele><time>2026-05-01T12:16:10Z</time></trkpt><trkpt lat="45.669958038501406" lon="8.132508098356935"><ele>1312.25</ele><time>2026-05-01T12:16:11Z</time></trkpt><trkpt lat="45.669871146751866" lon="8.132612726323996"><ele>1308.5</ele><time>2026-05-01T12:16:12Z</time></trkpt><trkpt lat="45.66978276927208" lon="8.132748238661295"><ele>1304.75</ele><time>2026-05-01T12:16:13Z</time></trkpt><trkpt lat="45.66969862743885" lon="8.132902285087846"><ele>1301.0</ele><time>2026-05-01T12:16:14Z</time></trkpt><trkpt lat="45.66961322363575" lon="8.133059402424077"><ele>1301.0</ele><time>2026-05-01T12:16:15Z</time></trkpt><trkpt lat="45.66953477380114" lon="8.1332054162067"><ele>1301.0</ele><time>2026-05-01T12:16:16Z</time></trkpt><trkpt lat="45.669480366807946" lon="8.133343928567252"><ele>1301.0</ele><time>2026-05-01T12:16:17Z</time></trkpt><trkpt lat="45.66944597483653" lon="8.133455612478665"><ele>1301.0</ele><time>2026-05-01T12:16:18Z</time></trkpt><trkpt lat="45.669390037592436" lon="8.133552106303675"><ele>1301.0</ele><time>2026-05-01T12:16:19Z</time></trkpt><trkpt lat="45.66930490986044" lon="8.133656242031993"><ele>1304.0</ele><time>2026-05-01T12:16:20Z</time></trkpt><trkpt lat="45.669203114374675" lon="8.133752480144691"><ele>1307.0</ele><time>2026-05-01T12:16:21Z</time></trkpt><trkpt lat="45.66912032771792" lon="8.133822612121298"><ele>1310.0</ele><time>2026-05-01T12:16:22Z</time></trkpt><trkpt lat="45.66904911772564" lon="8.13385786533259"><ele>1313.0</ele><time>2026-05-01T12:16:23Z</time></trkpt><trkpt lat="45.66896773166766" lon="8.13387240837095"><ele>1316.0</ele><time>2026-05-01T12:16:24Z</time></trkpt><trkpt lat="45.668877742871935" lon="8.133836543496056"><ele>1316.0</ele><time>2026-05-01T12:16:25Z</time></trkpt><trkpt lat="45.668783846625495" lon="8.133769178665522"><ele>1316.0</ele><time>2026-05-01T12:16:26Z</time></trkpt><trkpt lat="45.66868133281644" lon="8.133703638494831"><ele>1316.0</ele><time>2026-05-01T12:16:27Z</time></trkpt><trkpt lat="45.66857613517407" lon="8.133684176590576"><ele>1316.0</ele><time>2026-05-01T12:16:28Z</time></trkpt><trkpt lat="45.668465523910065" lon="8.13370294376872"><ele>1316.0</ele><time>2026-05-01T12:16:29Z</time></trkpt><trkpt lat="45.66836960374849" lon="8.133707363719383"><ele>1315.8</ele><time>2026-05-01T12:16:30Z</time></trkpt><trkpt lat="45.66830193890979" lon="8.133657540549939"><ele>1315.6</ele><time>2026-05-01T12:16:31Z</time></trkpt><trkpt lat="45.66825712085378" lon="8.133561957354653"><ele>1315.4</ele><time>2026-05-01T12:16:32Z</time></trkpt><trkpt lat="45.6682255469751" lon="8.133435617699279"><ele>1315.2</ele><time>2026-05-01T12:16:33Z</time></trkpt><trkpt lat="45.66820346903194" lon="8.13327439081948"><ele>1315.0</ele><time>2026-05-01T12:16:34Z</time></trkpt><trkpt lat="45.66818718668944" lon="8.133093629958116"><ele>1321.0</ele><time>2026-05-01T12:16:35Z</time></trkpt><trkpt lat="45.66816707916437" lon="8.132915137300804"><ele>1327.0</ele><time>2026-05-01T12:16:36Z</time></trkpt><trkpt lat="45.66814011020972" lon="8.132761968382484"><ele>1333.0</ele><time>2026-05-01T12:16:37Z</time></trkpt><trkpt lat="45.66809056832392" lon="8.132611646263069"><ele>1339.0</ele><time>2026-05-01T12:16:38Z</time></trkpt><trkpt lat="45.66800826182857" lon="8.132445859387676"><ele>1335.0</ele><time>2026-05-01T12:16:39Z</time></trkpt><trkpt lat="45.66790380115107" lon="8.132257954662405"><ele>1331.0</ele><time>2026-05-01T12:16:40Z</time></trkpt><trkpt lat="45.66780642467167" lon="8.132075415875144"><ele>1327.0</ele><time>2026-05-01T12:16:41Z</time></trkpt><trkpt lat="45.667719389050895" lon="8.131911048221733"><ele>1327.0</ele><time>2026-05-01T12:16:42Z</time></trkpt><trkpt lat="45.66763013620714" lon="8.131757498796146"><ele>1327.0</ele><time>2026-05-01T12:16:43Z</time></trkpt><trkpt lat="45.667551227308266" lon="8.131640619614748"><ele>1327.0</ele><time>2026-05-01T12:16:44Z</time></trkpt><trkpt lat="45.667488689444724" lon="8.131538285139266"><ele>1327.0</ele><time>2026-05-01T12:16:45Z</time></trkpt><trkpt lat="45.66743203998926" lon="8.131430199128285"><ele>1327.0</ele><time>2026-05-01T12:16:46Z</time></trkpt><trkpt lat="45.66739375054256" lon="8.131280389641367"><ele>1331.5</ele><time>2026-05-01T12:16:47Z</time></trkpt><trkpt lat="45.66735910493186" lon="8.131096842264032"><ele>1336.0</ele><time>2026-05-01T12:16:48Z</time></trkpt><trkpt lat="45.66733190504342" lon="8.13089828127673"><ele>1340.5</ele><time>2026-05-01T12:16:49Z</time></trkpt><trkpt lat="45.66729672367139" lon="8.130716276606938"><ele>1345.0</ele><time>2026-05-01T12:16:50Z</time></trkpt><trkpt lat="45.66727203399092" lon="8.130576231593935"><ele>1345.2</ele><time>2026-05-01T12:16:51Z</time></trkpt><trkpt lat="45.66724718390744" lon="8.13045571228199"><ele>1345.4</ele><time>2026-05-01T12:16:52Z</time></trkpt><trkpt lat="45.66724070855211" lon="8.130318047008497"><ele>1345.6</ele><time>2026-05-01T12:16:53Z</time></trkpt><trkpt lat="45.66726043519295" lon="8.13015293995956"><ele>1345.8</ele><time>2026-05-01T12:16:54Z</time></trkpt><trkpt lat="45.667294786118646" lon="8.129976577426834"><ele>1346.0</ele><time>2026-05-01T12:16:55Z</time></trkpt><trkpt lat="45.66731321748686" lon="8.129792183689018"><ele>1345.0</ele><time>2026-05-01T12:16:56Z</time></trkpt><trkpt lat="45.66730508998411" lon="8.129584138040785"><ele>1344.0</ele><time>2026-05-01T12:16:57Z</time></trkpt><trkpt lat="45.66729852124291" lon="8.129367226547414"><ele>1343.0</ele><time>2026-05-01T12:16:58Z</time></trkpt><trkpt lat="45.66730935536336" lon="8.12914495797411"><ele>1340.6666666666667</ele><time>2026-05-01T12:16:59Z</time></trkpt><trkpt lat="45.667332118827694" lon="8.128895286413789"><ele>1338.3333333333333</ele><time>2026-05-01T12:17:00Z</time></trkpt><trkpt lat="45.667363660701554" lon="8.12863662539016"><ele>1336.0</ele><time>2026-05-01T12:17:01Z</time></trkpt><trkpt lat="45.667385453097786" lon="8.128419685146532"><ele>1336.0</ele><time>2026-05-01T12:17:02Z</time></trkpt><trkpt lat="45.667405505973775" lon="8.128230721590196"><ele>1336.0</ele><time>2026-05-01T12:17:03Z</time></trkpt><trkpt lat="45.667422785754596" lon="8.128066006330013"><ele>1336.0</ele><time>2026-05-01T12:17:04Z</time></trkpt><trkpt lat="45.667426427544555" lon="8.12791671778191"><ele>1336.0</ele><time>2026-05-01T12:17:05Z</time></trkpt><trkpt lat="45.66743284710952" lon="8.127784389227251"><ele>1336.0</ele><time>2026-05-01T12:17:06Z</time></trkpt><trkpt lat="45.66743276528358" lon="8.127662573811934"><ele>1334.0</ele><time>2026-05-01T12:17:07Z</time></trkpt><trkpt lat="45.667428485901695" lon="8.127572293690553"><ele>1334.0</ele><time>2026-05-01T12:17:08Z</time></trkpt><trkpt lat="45.66739291458299" lon="8.127458576276643"><ele>1334.0</ele><time>2026-05-01T12:17:10Z</time></trkpt><trkpt lat="45.66736187796545" lon="8.127375623865708"><ele>1336.0</ele><time>2026-05-01T12:17:13Z</time></trkpt><trkpt lat="45.667427780137956" lon="8.127348397937297"><ele>1336.0</ele><time>2026-05-01T12:17:48Z</time></trkpt></trkseg><trkseg><trkpt lat="45.66743399380998" lon="8.12745575420642"><ele>1334.5</ele><time>2026-05-01T13:09:04.999Z</time></trkpt><trkpt lat="45.66726899593313" lon="8.12732750290265"><ele>1335.0</ele><time>2026-05-01T13:09:05.999Z</time></trkpt><trkpt lat="45.66714617203193" lon="8.127208183694561"><ele>1335.5</ele><time>2026-05-01T13:09:07.999Z</time></trkpt><trkpt lat="45.66706885331578" lon="8.127144120448484"><ele>1336.0</ele><time>2026-05-01T13:09:08.999Z</time></trkpt><trkpt lat="45.66700067029676" lon="8.127099792883387"><ele>1337.142857142857</ele><time>2026-05-01T13:09:09.999Z</time></trkpt><trkpt lat="45.666935990455436" lon="8.127049881882387"><ele>1338.2857142857142</ele><time>2026-05-01T13:09:10.999Z</time></trkpt><trkpt lat="45.666867985971024" lon="8.127004080831933"><ele>1339.4285714285716</ele><time>2026-05-01T13:09:11.999Z</time></trkpt><trkpt lat="45.66680368530804" lon="8.126960753761084"><ele>1340.5714285714284</ele><time>2026-05-01T13:09:12.999Z</time></trkpt><trkpt lat="45.66673770058703" lon="8.126920657367133"><ele>1341.7142857142858</ele><time>2026-05-01T13:09:13.999Z</time></trkpt><trkpt lat="45.66667453800051" lon="8.126874522561204"><ele>1342.857142857143</ele><time>2026-05-01T13:09:15Z</time></trkpt><trkpt lat="45.666599148022975" lon="8.126827901805715"><ele>1344.0</ele><time>2026-05-01T13:09:16Z</time></trkpt><trkpt lat="45.66652810134894" lon="8.126790060987684"><ele>1344.0</ele><time>2026-05-01T13:09:17Z</time></trkpt><trkpt lat="45.666456803821795" lon="8.126754359805043"><ele>1344.0</ele><time>2026-05-01T13:09:18Z</time></trkpt><trkpt lat="45.66639240359116" lon="8.12672775430511"><ele>1344.0</ele><time>2026-05-01T13:09:19Z</time></trkpt><trkpt lat="45.666318590998024" lon="8.126697263801272"><ele>1344.0</ele><time>2026-05-01T13:09:20Z</time></trkpt><trkpt lat="45.66624968421921" lon="8.126651105717517"><ele>1344.0</ele><time>2026-05-01T13:09:21Z</time></trkpt><trkpt lat="45.66618138721818" lon="8.126604911378744"><ele>1344.0</ele><time>2026-05-01T13:09:22Z</time></trkpt><trkpt lat="45.66612346016533" lon="8.126521086322075"><ele>1344.4</ele><time>2026-05-01T13:09:23Z</time></trkpt><trkpt lat="45.66605277772173" lon="8.126411619332282"><ele>1344.8000000000002</ele><time>2026-05-01T13:09:24Z</time></trkpt><trkpt lat="45.665997365020694" lon="8.126294545801116"><ele>1345.1999999999998</ele><time>2026-05-01T13:09:25Z</time></trkpt><trkpt lat="45.66594254589568" lon="8.126171090244625"><ele>1345.6</ele><time>2026-05-01T13:09:26Z</time></trkpt><trkpt lat="45.66587310373557" lon="8.126058214806871"><ele>1346.0</ele><time>2026-05-01T13:09:27Z</time></trkpt><trkpt lat="45.66577166304883" lon="8.125992415092265"><ele>1346.0</ele><time>2026-05-01T13:09:28Z</time></trkpt><trkpt lat="45.665674540849636" lon="8.125920598312996"><ele>1346.0</ele><time>2026-05-01T13:09:29Z</time></trkpt><trkpt lat="45.665604370965085" lon="8.125810568844328"><ele>1346.0</ele><time>2026-05-01T13:09:30Z</time></trkpt><trkpt lat="45.665537871469766" lon="8.125700874785286"><ele>1346.0</ele><time>2026-05-01T13:09:31Z</time></trkpt><trkpt lat="45.66545166762733" lon="8.125600442556728"><ele>1346.0</ele><time>2026-05-01T13:09:32Z</time></trkpt><trkpt lat="45.6653714706935" lon="8.125495124015647"><ele>1346.8</ele><time>2026-05-01T13:09:33Z</time></trkpt><trkpt lat="45.66529005513564" lon="8.125403150070236"><ele>1347.6</ele><time>2026-05-01T13:09:34Z</time></trkpt><trkpt lat="45.66520675410678" lon="8.125326466712629"><ele>1348.4</ele><time>2026-05-01T13:09:35Z</time></trkpt><trkpt lat="45.66513404262435" lon="8.125240902546475"><ele>1349.2</ele><time>2026-05-01T13:09:36Z</time></trkpt><trkpt lat="45.6650373253635" lon="8.125222936072058"><ele>1350.0</ele><time>2026-05-01T13:09:37Z</time></trkpt><trkpt lat="45.66493763557342" lon="8.12522490274716"><ele>1350.0</ele><time>2026-05-01T13:09:38Z</time></trkpt><trkpt lat="45.66483925754899" lon="8.125183495698261"><ele>1350.0</ele><time>2026-05-01T13:09:39Z</time></trkpt><trkpt lat="45.664758994188915" lon="8.125082685776393"><ele>1350.0</ele><time>2026-05-01T13:09:40Z</time></trkpt><trkpt lat="45.6646571847079" lon="8.125001740467274"><ele>1350.0</ele><time>2026-05-01T13:09:41Z</time></trkpt><trkpt lat="45.6645529415058" lon="8.124956107138988"><ele>1350.0</ele><time>2026-05-01T13:09:42Z</time></trkpt><trkpt lat="45.664455200423454" lon="8.124914050567092"><ele>1352.4</ele><time>2026-05-01T13:09:42.999Z</time></trkpt><trkpt lat="45.66436918575676" lon="8.12485866486569"><ele>1354.8</ele><time>2026-05-01T13:09:43.999Z</time></trkpt><trkpt lat="45.66432686696152" lon="8.124737599290164"><ele>1357.1999999999998</ele><time>2026-05-01T13:09:44.999Z</time></trkpt><trkpt lat="45.664260191187935" lon="8.124649789650187"><ele>1359.6</ele><time>2026-05-01T13:09:45.999Z</time></trkpt><trkpt lat="45.664171146100756" lon="8.12459366819116"><ele>1362.0</ele><time>2026-05-01T13:09:46.999Z</time></trkpt><trkpt lat="45.6640746389857" lon="8.124561469130452"><ele>1362.0</ele><time>2026-05-01T13:09:47.999Z</time></trkpt><trkpt lat="45.6639671256012" lon="8.124552532109066"><ele>1362.0</ele><time>2026-05-01T13:09:48.999Z</time></trkpt><trkpt lat="45.663853977003726" lon="8.12453414328831"><ele>1362.0</ele><time>2026-05-01T13:09:49.999Z</time></trkpt><trkpt lat="45.66373820772497" lon="8.124513064287127"><ele>1362.0</ele><time>2026-05-01T13:09:50.999Z</time></trkpt><trkpt lat="45.663623085167806" lon="8.12451871931271"><ele>1356.8</ele><time>2026-05-01T13:09:51.999Z</time></trkpt><trkpt lat="45.66351233880592" lon="8.12454445026568"><ele>1351.6</ele><time>2026-05-01T13:09:52.999Z</time></trkpt><trkpt lat="45.66341387182336" lon="8.124594701498006"><ele>1346.3999999999999</ele><time>2026-05-01T13:09:53.999Z</time></trkpt><trkpt lat="45.663324294392524" lon="8.124640607246384"><ele>1341.1999999999998</ele><time>2026-05-01T13:09:54.999Z</time></trkpt><trkpt lat="45.66323385172075" lon="8.12463549322715"><ele>1336.0</ele><time>2026-05-01T13:09:55.999Z</time></trkpt><trkpt lat="45.66313797445959" lon="8.124637564536478"><ele>1336.0</ele><time>2026-05-01T13:09:56.999Z</time></trkpt><trkpt lat="45.663039003371665" lon="8.124598805128576"><ele>1336.0</ele><time>2026-05-01T13:09:57.999Z</time></trkpt><trkpt lat="45.662929759076775" lon="8.124553302137576"><ele>1336.0</ele><time>2026-05-01T13:09:58.999Z</time></trkpt><trkpt lat="45.6628281861786" lon="8.124509561988775"><ele>1336.0</ele><time>2026-05-01T13:09:59.999Z</time></trkpt><trkpt lat="45.66272721595003" lon="8.124460352949248"><ele>1336.0</ele><time>2026-05-01T13:10:00.999Z</time></trkpt><trkpt lat="45.662633587618835" lon="8.124401886007215"><ele>1333.6</ele><time>2026-05-01T13:10:01.999Z</time></trkpt><trkpt lat="45.66254942572307" lon="8.124321594241499"><ele>1331.1999999999998</ele><time>2026-05-01T13:10:02.999Z</time></trkpt><trkpt lat="45.66247863929465" lon="8.124221165398568"><ele>1328.8000000000002</ele><time>2026-05-01T13:10:03.999Z</time></trkpt><trkpt lat="45.66241434503909" lon="8.124101670671854"><ele>1326.4</ele><time>2026-05-01T13:10:04.999Z</time></trkpt><trkpt lat="45.662366185658875" lon="8.123958495203205"><ele>1324.0</ele><time>2026-05-01T13:10:05.999Z</time></trkpt><trkpt lat="45.662333322374124" lon="8.123803802487526"><ele>1324.0</ele><time>2026-05-01T13:10:06.999Z</time></trkpt><trkpt lat="45.66231766688767" lon="8.123643097638572"><ele>1324.0</ele><time>2026-05-01T13:10:07.999Z</time></trkpt><trkpt lat="45.66229384050304" lon="8.123480522579765"><ele>1324.0</ele><time>2026-05-01T13:10:08.999Z</time></trkpt><trkpt lat="45.662285332316024" lon="8.123312578311223"><ele>1324.0</ele><time>2026-05-01T13:10:09.999Z</time></trkpt><trkpt lat="45.66227252350824" lon="8.123148445177879"><ele>1321.6</ele><time>2026-05-01T13:10:10.999Z</time></trkpt><trkpt lat="45.66226421389967" lon="8.123002503030488"><ele>1319.2</ele><time>2026-05-01T13:10:11.999Z</time></trkpt><trkpt lat="45.66227161546619" lon="8.122868484052146"><ele>1316.8</ele><time>2026-05-01T13:10:12.999Z</time></trkpt><trkpt lat="45.662303565255755" lon="8.122747043372184"><ele>1314.3999999999999</ele><time>2026-05-01T13:10:13.999Z</time></trkpt><trkpt lat="45.66237075620993" lon="8.122659178982628"><ele>1312.0</ele><time>2026-05-01T13:10:14.999Z</time></trkpt><trkpt lat="45.66243574483296" lon="8.12257924312929"><ele>1312.0</ele><time>2026-05-01T13:10:15.999Z</time></trkpt><trkpt lat="45.66252238574728" lon="8.122493512761029"><ele>1312.0</ele><time>2026-05-01T13:10:16.999Z</time></trkpt><trkpt lat="45.66262683658122" lon="8.122403167603856"><ele>1312.0</ele><time>2026-05-01T13:10:17.999Z</time></trkpt><trkpt lat="45.662742889299615" lon="8.122286305187892"><ele>1312.0</ele><time>2026-05-01T13:10:18.999Z</time></trkpt><trkpt lat="45.66286224530033" lon="8.12218432381437"><ele>1308.75</ele><time>2026-05-01T13:10:19.999Z</time></trkpt><trkpt lat="45.662969857867694" lon="8.122093659807007"><ele>1305.5</ele><time>2026-05-01T13:10:20.999Z</time></trkpt><trkpt lat="45.66307650166051" lon="8.1220058526818"><ele>1302.25</ele><time>2026-05-01T13:10:21.999Z</time></trkpt><trkpt lat="45.66317124864132" lon="8.121931056313342"><ele>1299.0</ele><time>2026-05-01T13:10:22.999Z</time></trkpt><trkpt lat="45.66326606345774" lon="8.121876501922845"><ele>1299.0</ele><time>2026-05-01T13:10:23.999Z</time></trkpt><trkpt lat="45.663380701934855" lon="8.121867750718971"><ele>1299.0</ele><time>2026-05-01T13:10:24.999Z</time></trkpt><trkpt lat="45.66351885976865" lon="8.121849536150812"><ele>1299.0</ele><time>2026-05-01T13:10:25.999Z</time></trkpt><trkpt lat="45.66368343781804" lon="8.121834611757857"><ele>1299.0</ele><time>2026-05-01T13:10:26.999Z</time></trkpt><trkpt lat="45.663847899738336" lon="8.121817471729493"><ele>1301.5</ele><time>2026-05-01T13:10:27.999Z</time></trkpt><trkpt lat="45.66399303265425" lon="8.121797729040269"><ele>1304.0</ele><time>2026-05-01T13:10:28.999Z</time></trkpt><trkpt lat="45.66412271117676" lon="8.12177175429927"><ele>1306.5</ele><time>2026-05-01T13:10:29.999Z</time></trkpt><trkpt lat="45.66424621326547" lon="8.121726431248906"><ele>1309.0</ele><time>2026-05-01T13:10:30.999Z</time></trkpt><trkpt lat="45.664357631994896" lon="8.121643526590939"><ele>1309.5</ele><time>2026-05-01T13:10:31.999Z</time></trkpt><trkpt lat="45.66445037531093" lon="8.121521702902985"><ele>1310.0</ele><time>2026-05-01T13:10:32.999Z</time></trkpt><trkpt lat="45.66454546961366" lon="8.121418865762225"><ele>1310.5</ele><time>2026-05-01T13:10:33.999Z</time></trkpt><trkpt lat="45.66460619859713" lon="8.121255518766993"><ele>1311.0</ele><time>2026-05-01T13:10:34.999Z</time></trkpt><trkpt lat="45.66463366919259" lon="8.121094230526872"><ele>1311.0</ele><time>2026-05-01T13:10:35.999Z</time></trkpt><trkpt lat="45.664688414251295" lon="8.120983877403992"><ele>1311.0</ele><time>2026-05-01T13:10:36.999Z</time></trkpt><trkpt lat="45.664737584459274" lon="8.120883065848178"><ele>1311.0</ele><time>2026-05-01T13:10:37.999Z</time></trkpt><trkpt lat="45.66482002471899" lon="8.120819524812438"><ele>1311.0</ele><time>2026-05-01T13:10:38.999Z</time></trkpt><trkpt lat="45.66491696973268" lon="8.120764609782398"><ele>1311.0</ele><time>2026-05-01T13:10:39.999Z</time></trkpt><trkpt lat="45.66500646676255" lon="8.12070279609548"><ele>1305.1666666666667</ele><time>2026-05-01T13:10:41Z</time></trkpt><trkpt lat="45.66506835396681" lon="8.120589741746256"><ele>1299.3333333333333</ele><time>2026-05-01T13:10:41.999Z</time></trkpt><trkpt lat="45.66508522242584" lon="8.120443286789076"><ele>1293.5</ele><time>2026-05-01T13:10:42.999Z</time></trkpt><trkpt lat="45.66512344500079" lon="8.120310997772327"><ele>1287.6666666666665</ele><time>2026-05-01T13:10:43.999Z</time></trkpt><trkpt lat="45.665152166417016" lon="8.120222707850528"><ele>1281.8333333333333</ele><time>2026-05-01T13:10:45Z</time></trkpt><trkpt lat="45.66519752112106" lon="8.120139222739605"><ele>1276.0</ele><time>2026-05-01T13:10:45.999Z</time></trkpt><trkpt lat="45.66527769506564" lon="8.120082424145178"><ele>1276.0</ele><time>2026-05-01T13:10:47.001Z</time></trkpt><trkpt lat="45.66538111877779" lon="8.12004892256236"><ele>1276.0</ele><time>2026-05-01T13:10:48.001Z</time></trkpt><trkpt lat="45.66549054621706" lon="8.12001040339659"><ele>1276.0</ele><time>2026-05-01T13:10:49.001Z</time></trkpt><trkpt lat="45.665581686274976" lon="8.119972413278918"><ele>1276.0</ele><time>2026-05-01T13:10:50.001Z</time></trkpt><trkpt lat="45.66566131996364" lon="8.1198895276"><ele>1276.0</ele><time>2026-05-01T13:10:51.001Z</time></trkpt><trkpt lat="45.66572285253259" lon="8.119810226653014"><ele>1276.0</ele><time>2026-05-01T13:10:52.001Z</time></trkpt><trkpt lat="45.665786401745756" lon="8.11971035500053"><ele>1276.0</ele><time>2026-05-01T13:10:53.001Z</time></trkpt><trkpt lat="45.66584941883649" lon="8.11958546338225"><ele>1276.0</ele><time>2026-05-01T13:10:54.001Z</time></trkpt><trkpt lat="45.66592355046695" lon="8.119473678541867"><ele>1276.0</ele><time>2026-05-01T13:10:55.001Z</time></trkpt><trkpt lat="45.666027162836855" lon="8.119373012329326"><ele>1276.0</ele><time>2026-05-01T13:10:56.001Z</time></trkpt><trkpt lat="45.66613606025475" lon="8.11924497844284"><ele>1278.75</ele><time>2026-05-01T13:10:57.001Z</time></trkpt><trkpt lat="45.666252649732" lon="8.11913336833737"><ele>1281.5</ele><time>2026-05-01T13:10:58.001Z</time></trkpt><trkpt lat="45.666364415788614" lon="8.119007059909338"><ele>1284.25</ele><time>2026-05-01T13:10:59.001Z</time></trkpt><trkpt lat="45.66645625208252" lon="8.118897910682469"><ele>1287.0</ele><time>2026-05-01T13:11:00.001Z</time></trkpt><trkpt lat="45.666532133349904" lon="8.11879782716186"><ele>1287.0</ele><time>2026-05-01T13:11:01.001Z</time></trkpt><trkpt lat="45.66659622181216" lon="8.118673796726716"><ele>1287.0</ele><time>2026-05-01T13:11:02.001Z</time></trkpt><trkpt lat="45.66664816490194" lon="8.118527236126203"><ele>1287.0</ele><time>2026-05-01T13:11:03.001Z</time></trkpt><trkpt lat="45.666697628226764" lon="8.118379520730937"><ele>1287.0</ele><time>2026-05-01T13:11:04.001Z</time></trkpt><trkpt lat="45.66669913994289" lon="8.118203966362556"><ele>1287.3333333333333</ele><time>2026-05-01T13:11:05.001Z</time></trkpt><trkpt lat="45.66672037160415" lon="8.118001657360999"><ele>1287.6666666666665</ele><time>2026-05-01T13:11:06.001Z</time></trkpt><trkpt lat="45.6667199877849" lon="8.11776814152216"><ele>1288.0</ele><time>2026-05-01T13:11:07.001Z</time></trkpt><trkpt lat="45.666718464262765" lon="8.117526755030225"><ele>1292.6666666666665</ele><time>2026-05-01T13:11:08.001Z</time></trkpt><trkpt lat="45.66671386757963" lon="8.117290160009432"><ele>1297.3333333333333</ele><time>2026-05-01T13:11:09.001Z</time></trkpt><trkpt lat="45.66670442846872" lon="8.117084582921725"><ele>1302.0</ele><time>2026-05-01T13:11:10.001Z</time></trkpt><trkpt lat="45.66668322409197" lon="8.116882305386877"><ele>1302.0</ele><time>2026-05-01T13:11:11.001Z</time></trkpt><trkpt lat="45.66666074278176" lon="8.11671458134203"><ele>1302.0</ele><time>2026-05-01T13:11:12.001Z</time></trkpt><trkpt lat="45.66663900936607" lon="8.116573311878986"><ele>1302.0</ele><time>2026-05-01T13:11:13.001Z</time></trkpt><trkpt lat="45.66662597115064" lon="8.116447630932525"><ele>1302.0</ele><time>2026-05-01T13:11:14.001Z</time></trkpt><trkpt lat="45.66664127589947" lon="8.116330344321913"><ele>1302.0</ele><time>2026-05-01T13:11:15.001Z</time></trkpt><trkpt lat="45.6666779828996" lon="8.116212517624318"><ele>1302.8</ele><time>2026-05-01T13:11:16.001Z</time></trkpt><trkpt lat="45.666725450466146" lon="8.116084989473086"><ele>1303.6</ele><time>2026-05-01T13:11:17.001Z</time></trkpt><trkpt lat="45.666764306633326" lon="8.115949590999296"><ele>1304.3999999999999</ele><time>2026-05-01T13:11:18.001Z</time></trkpt><trkpt lat="45.66677896715082" lon="8.115796532380758"><ele>1305.1999999999998</ele><time>2026-05-01T13:11:19.001Z</time></trkpt><trkpt lat="45.66674665642781" lon="8.11563614215572"><ele>1306.0</ele><time>2026-05-01T13:11:20.001Z</time></trkpt><trkpt lat="45.666718006740965" lon="8.115462622054201"><ele>1309.25</ele><time>2026-05-01T13:11:21.001Z</time></trkpt><trkpt lat="45.666698690001425" lon="8.115277657002801"><ele>1312.5</ele><time>2026-05-01T13:11:22.001Z</time></trkpt><trkpt lat="45.66665011619097" lon="8.115104289463636"><ele>1315.75</ele><time>2026-05-01T13:11:23.001Z</time></trkpt><trkpt lat="45.66658804863861" lon="8.11493893695896"><ele>1319.0</ele><time>2026-05-01T13:11:24.001Z</time></trkpt><trkpt lat="45.66653592735874" lon="8.114766317214906"><ele>1319.0</ele><time>2026-05-01T13:11:25.001Z</time></trkpt><trkpt lat="45.66648629106738" lon="8.114597330291508"><ele>1319.0</ele><time>2026-05-01T13:11:26.001Z</time></trkpt><trkpt lat="45.666444364948056" lon="8.114457466007783"><ele>1319.0</ele><time>2026-05-01T13:11:27.001Z</time></trkpt><trkpt lat="45.666410196856084" lon="8.114343740674492"><ele>1319.0</ele><time>2026-05-01T13:11:28.001Z</time></trkpt><trkpt lat="45.666380455544314" lon="8.114235681500702"><ele>1319.0</ele><time>2026-05-01T13:11:29.001Z</time></trkpt><trkpt lat="45.66635369992624" lon="8.114132614961129"><ele>1315.0</ele><time>2026-05-01T13:11:30.001Z</time></trkpt><trkpt lat="45.66638923230916" lon="8.114020639055525"><ele>1311.0</ele><time>2026-05-01T13:11:31.001Z</time></trkpt><trkpt lat="45.666431083077974" lon="8.11392600551969"><ele>1307.0</ele><time>2026-05-01T13:11:32.001Z</time></trkpt><trkpt lat="45.66649018260492" lon="8.113846957521268"><ele>1303.0</ele><time>2026-05-01T13:11:33.001Z</time></trkpt><trkpt lat="45.66657287673092" lon="8.113795299541962"><ele>1299.0</ele><time>2026-05-01T13:11:34.001Z</time></trkpt><trkpt lat="45.66667142425028" lon="8.113701855186097"><ele>1299.0</ele><time>2026-05-01T13:11:35.001Z</time></trkpt><trkpt lat="45.66678832847236" lon="8.1136256509749"><ele>1299.0</ele><time>2026-05-01T13:11:36.001Z</time></trkpt><trkpt lat="45.66689321982345" lon="8.113529403985396"><ele>1299.0</ele><time>2026-05-01T13:11:37.001Z</time></trkpt><trkpt lat="45.66699650536444" lon="8.113404851962207"><ele>1299.0</ele><time>2026-05-01T13:11:38.001Z</time></trkpt><trkpt lat="45.6670937358604" lon="8.113267622792586"><ele>1306.2</ele><time>2026-05-01T13:11:39.001Z</time></trkpt><trkpt lat="45.66716369634527" lon="8.113149044719565"><ele>1313.4</ele><time>2026-05-01T13:11:40.001Z</time></trkpt><trkpt lat="45.6672208135498" lon="8.113033431640055"><ele>1320.6</ele><time>2026-05-01T13:11:41.001Z</time></trkpt><trkpt lat="45.667264372232346" lon="8.11289775298603"><ele>1327.8</ele><time>2026-05-01T13:11:42.001Z</time></trkpt><trkpt lat="45.6672949269547" lon="8.112725992803835"><ele>1335.0</ele><time>2026-05-01T13:11:43.001Z</time></trkpt><trkpt lat="45.667317802176164" lon="8.112524435361394"><ele>1333.75</ele><time>2026-05-01T13:11:44.001Z</time></trkpt><trkpt lat="45.6673461322456" lon="8.112309893833151"><ele>1332.5</ele><time>2026-05-01T13:11:45.001Z</time></trkpt><trkpt lat="45.66736893466885" lon="8.112105537760247"><ele>1331.25</ele><time>2026-05-01T13:11:46.001Z</time></trkpt><trkpt lat="45.66738803114131" lon="8.11192709552046"><ele>1330.0</ele><time>2026-05-01T13:11:47.001Z</time></trkpt><trkpt lat="45.6674074144124" lon="8.11173979264377"><ele>1330.25</ele><time>2026-05-01T13:11:48.001Z</time></trkpt><trkpt lat="45.66741589265932" lon="8.11153426393122"><ele>1330.5</ele><time>2026-05-01T13:11:49Z</time></trkpt><trkpt lat="45.66741807397249" lon="8.111332827065972"><ele>1330.75</ele><time>2026-05-01T13:11:50Z</time></trkpt><trkpt lat="45.66741501881072" lon="8.111136247181008"><ele>1331.0</ele><time>2026-05-01T13:11:51Z</time></trkpt><trkpt lat="45.667400771341136" lon="8.110926528550863"><ele>1332.75</ele><time>2026-05-01T13:11:52Z</time></trkpt><trkpt lat="45.667389196177226" lon="8.110722685404705"><ele>1334.5</ele><time>2026-05-01T13:11:53Z</time></trkpt><trkpt lat="45.66737552937866" lon="8.110519496389706"><ele>1336.25</ele><time>2026-05-01T13:11:54Z</time></trkpt><trkpt lat="45.66735913249296" lon="8.110320310806333"><ele>1338.0</ele><time>2026-05-01T13:11:55Z</time></trkpt><trkpt lat="45.667337570420706" lon="8.110137194649987"><ele>1338.0</ele><time>2026-05-01T13:11:56Z</time></trkpt><trkpt lat="45.66731216158046" lon="8.109985878639115"><ele>1338.0</ele><time>2026-05-01T13:11:57Z</time></trkpt><trkpt lat="45.66729070339575" lon="8.10983333352629"><ele>1338.0</ele><time>2026-05-01T13:11:58Z</time></trkpt><trkpt lat="45.66725726608186" lon="8.109702421295278"><ele>1338.0</ele><time>2026-05-01T13:11:59Z</time></trkpt><trkpt lat="45.66720447744466" lon="8.109580826024953"><ele>1338.0</ele><time>2026-05-01T13:12:00Z</time></trkpt><trkpt lat="45.66712463268357" lon="8.109470723524005"><ele>1338.0</ele><time>2026-05-01T13:12:01Z</time></trkpt><trkpt lat="45.667023183821534" lon="8.109386665498741"><ele>1338.0</ele><time>2026-05-01T13:12:02Z</time></trkpt><trkpt lat="45.66690588836393" lon="8.10933405000167"><ele>1338.0</ele><time>2026-05-01T13:12:03Z</time></trkpt><trkpt lat="45.66677917331122" lon="8.109267528711877"><ele>1338.0</ele><time>2026-05-01T13:12:04Z</time></trkpt><trkpt lat="45.66663926005734" lon="8.10922254433643"><ele>1338.0</ele><time>2026-05-01T13:12:05Z</time></trkpt><trkpt lat="45.66651074298521" lon="8.109190639416113"><ele>1338.0</ele><time>2026-05-01T13:12:06Z</time></trkpt><trkpt lat="45.66637810679214" lon="8.10916458117404"><ele>1338.0</ele><time>2026-05-01T13:12:07Z</time></trkpt><trkpt lat="45.66625482900023" lon="8.10914283707082"><ele>1338.0</ele><time>2026-05-01T13:12:08Z</time></trkpt><trkpt lat="45.66615070666381" lon="8.109117727032604"><ele>1344.0</ele><time>2026-05-01T13:12:09Z</time></trkpt><trkpt lat="45.666034825996945" lon="8.109075674212358"><ele>1350.0</ele><time>2026-05-01T13:12:10Z</time></trkpt><trkpt lat="45.66593112330279" lon="8.109025490791284"><ele>1356.0</ele><time>2026-05-01T13:12:11Z</time></trkpt><trkpt lat="45.66583827415074" lon="8.108960679041443"><ele>1362.0</ele><time>2026-05-01T13:12:12Z</time></trkpt><trkpt lat="45.6657512696116" lon="8.108866928453253"><ele>1368.0</ele><time>2026-05-01T13:12:13Z</time></trkpt><trkpt lat="45.66567357039069" lon="8.108736901461034"><ele>1368.0</ele><time>2026-05-01T13:12:14Z</time></trkpt><trkpt lat="45.665569450234386" lon="8.108584099722552"><ele>1368.0</ele><time>2026-05-01T13:12:15Z</time></trkpt><trkpt lat="45.66547532330349" lon="8.10840740105233"><ele>1368.0</ele><time>2026-05-01T13:12:16Z</time></trkpt><trkpt lat="45.66538904869163" lon="8.108241662855947"><ele>1368.0</ele><time>2026-05-01T13:12:17Z</time></trkpt><trkpt lat="45.6653128518149" lon="8.108102305553272"><ele>1361.0</ele><time>2026-05-01T13:12:18Z</time></trkpt><trkpt lat="45.66525505348508" lon="8.107959790909279"><ele>1354.0</ele><time>2026-05-01T13:12:19Z</time></trkpt><trkpt lat="45.66519976481862" lon="8.107847826968545"><ele>1347.0</ele><time>2026-05-01T13:12:20Z</time></trkpt><trkpt lat="45.66516522472453" lon="8.107701935701245"><ele>1340.0</ele><time>2026-05-01T13:12:21Z</time></trkpt><trkpt lat="45.665135365684584" lon="8.107510120902631"><ele>1344.0</ele><time>2026-05-01T13:12:22Z</time></trkpt><trkpt lat="45.66508785177565" lon="8.10730490575051"><ele>1348.0</ele><time>2026-05-01T13:12:23Z</time></trkpt><trkpt lat="45.665063918851104" lon="8.10712814081858"><ele>1352.0</ele><time>2026-05-01T13:12:24Z</time></trkpt><trkpt lat="45.66504218803139" lon="8.106964239543885"><ele>1356.0</ele><time>2026-05-01T13:12:25Z</time></trkpt><trkpt lat="45.665016720498215" lon="8.10678010974116"><ele>1356.0</ele><time>2026-05-01T13:12:26Z</time></trkpt><trkpt lat="45.66500247983297" lon="8.106602723303508"><ele>1356.0</ele><time>2026-05-01T13:12:27Z</time></trkpt><trkpt lat="45.66499097939122" lon="8.106438073842535"><ele>1356.0</ele><time>2026-05-01T13:12:28Z</time></trkpt><trkpt lat="45.66498216404325" lon="8.106268001016199"><ele>1356.0</ele><time>2026-05-01T13:12:29Z</time></trkpt><trkpt lat="45.66496660497407" lon="8.106090214388425"><ele>1361.5</ele><time>2026-05-01T13:12:30Z</time></trkpt><trkpt lat="45.664954986756705" lon="8.105910110945834"><ele>1367.0</ele><time>2026-05-01T13:12:31Z</time></trkpt><trkpt lat="45.66493696134914" lon="8.105724638699467"><ele>1372.5</ele><time>2026-05-01T13:12:32Z</time></trkpt><trkpt lat="45.66492502796937" lon="8.105533623747775"><ele>1378.0</ele><time>2026-05-01T13:12:33Z</time></trkpt><trkpt lat="45.66493338909433" lon="8.105352860369475"><ele>1381.0</ele><time>2026-05-01T13:12:34.001Z</time></trkpt><trkpt lat="45.66492594813136" lon="8.105175979584352"><ele>1384.0</ele><time>2026-05-01T13:12:35.001Z</time></trkpt><trkpt lat="45.6649214912507" lon="8.105010624651964"><ele>1387.0</ele><time>2026-05-01T13:12:36.001Z</time></trkpt><trkpt lat="45.66491449546446" lon="8.104816732639138"><ele>1390.0</ele><time>2026-05-01T13:12:37.001Z</time></trkpt><trkpt lat="45.66490930684073" lon="8.104625208474662"><ele>1390.25</ele><time>2026-05-01T13:12:38.001Z</time></trkpt><trkpt lat="45.664899380065464" lon="8.104463180028826"><ele>1390.5</ele><time>2026-05-01T13:12:39.001Z</time></trkpt><trkpt lat="45.664895428929434" lon="8.104268979493101"><ele>1390.75</ele><time>2026-05-01T13:12:40.001Z</time></trkpt><trkpt lat="45.66484540614633" lon="8.104086082306354"><ele>1391.0</ele><time>2026-05-01T13:12:41.07Z</time></trkpt><trkpt lat="45.66472732669201" lon="8.103665906072353"><ele>1394.25</ele><time>2026-05-01T13:12:43.001Z</time></trkpt><trkpt lat="45.6646971020323" lon="8.103475928871296"><ele>1397.5</ele><time>2026-05-01T13:12:44.001Z</time></trkpt><trkpt lat="45.66461605011229" lon="8.103299192614207"><ele>1400.75</ele><time>2026-05-01T13:12:45.001Z</time></trkpt><trkpt lat="45.664548466175845" lon="8.103117466543384"><ele>1404.0</ele><time>2026-05-01T13:12:46.001Z</time></trkpt><trkpt lat="45.664493089646975" lon="8.10291688709806"><ele>1409.0</ele><time>2026-05-01T13:12:47.001Z</time></trkpt><trkpt lat="45.664438268505876" lon="8.10275483150069"><ele>1414.0</ele><time>2026-05-01T13:12:48.001Z</time></trkpt><trkpt lat="45.66437780491374" lon="8.10256666615078"><ele>1419.0</ele><time>2026-05-01T13:12:49.001Z</time></trkpt><trkpt lat="45.66432666731133" lon="8.102392497151593"><ele>1424.0</ele><time>2026-05-01T13:12:50.001Z</time></trkpt><trkpt lat="45.664277488143036" lon="8.102217612059372"><ele>1424.0</ele><time>2026-05-01T13:12:51.001Z</time></trkpt><trkpt lat="45.664216317152764" lon="8.101999140221212"><ele>1424.0</ele><time>2026-05-01T13:12:52.001Z</time></trkpt><trkpt lat="45.66415250692041" lon="8.101762151245294"><ele>1424.0</ele><time>2026-05-01T13:12:53.001Z</time></trkpt><trkpt lat="45.66410412812576" lon="8.101531614048065"><ele>1430.3333333333335</ele><time>2026-05-01T13:12:54.001Z</time></trkpt><trkpt lat="45.6640601501086" lon="8.10129576644352"><ele>1436.6666666666667</ele><time>2026-05-01T13:12:55.001Z</time></trkpt><trkpt lat="45.664013933743185" lon="8.101052598807396"><ele>1443.0</ele><time>2026-05-01T13:12:56.001Z</time></trkpt><trkpt lat="45.663965322437946" lon="8.100809441749785"><ele>1447.0</ele><time>2026-05-01T13:12:57.066Z</time></trkpt><trkpt lat="45.663620758638366" lon="8.09966669151861"><ele>1439.0</ele><time>2026-05-01T13:13:03.001Z</time></trkpt><trkpt lat="45.66357097822217" lon="8.099469289863821"><ele>1431.0</ele><time>2026-05-01T13:13:04.001Z</time></trkpt><trkpt lat="45.66347369646096" lon="8.099068084347298"><ele>1423.0</ele><time>2026-05-01T13:13:05.001Z</time></trkpt><trkpt lat="45.66338178857657" lon="8.098907287854598"><ele>1423.0</ele><time>2026-05-01T13:13:06.001Z</time></trkpt><trkpt lat="45.66332105113788" lon="8.098764524860082"><ele>1423.0</ele><time>2026-05-01T13:13:07.001Z</time></trkpt><trkpt lat="45.66321604828249" lon="8.098664699635835"><ele>1423.0</ele><time>2026-05-01T13:13:08.001Z</time></trkpt><trkpt lat="45.66309032506984" lon="8.098587862276517"><ele>1423.0</ele><time>2026-05-01T13:13:09.001Z</time></trkpt><trkpt lat="45.662935420329596" lon="8.09850277993725"><ele>1422.6666666666665</ele><time>2026-05-01T13:13:10.001Z</time></trkpt><trkpt lat="45.662752944610794" lon="8.098395125157506"><ele>1422.3333333333333</ele><time>2026-05-01T13:13:11.001Z</time></trkpt><trkpt lat="45.66260986963055" lon="8.098314260762052"><ele>1422.0</ele><time>2026-05-01T13:13:12.001Z</time></trkpt><trkpt lat="45.662489555220446" lon="8.09824626038511"><ele>1422.0</ele><time>2026-05-01T13:13:13.001Z</time></trkpt><trkpt lat="45.66237758552511" lon="8.098193192818467"><ele>1422.0</ele><time>2026-05-01T13:13:14.001Z</time></trkpt><trkpt lat="45.66229223118478" lon="8.09814475590073"><ele>1422.0</ele><time>2026-05-01T13:13:15.001Z</time></trkpt><trkpt lat="45.66221699330204" lon="8.098097686034365"><ele>1422.0</ele><time>2026-05-01T13:13:16.001Z</time></trkpt><trkpt lat="45.66215182840165" lon="8.098046984350109"><ele>1422.0</ele><time>2026-05-01T13:13:17.001Z</time></trkpt><trkpt lat="45.6620606131177" lon="8.097929402345356"><ele>1422.0</ele><time>2026-05-01T13:13:19.001Z</time></trkpt><trkpt lat="45.66204317225263" lon="8.09783690136778"><ele>1422.0</ele><time>2026-05-01T13:13:20.001Z</time></trkpt><trkpt lat="45.662058430151696" lon="8.09773211209324"><ele>1422.0</ele><time>2026-05-01T13:13:21.001Z</time></trkpt><trkpt lat="45.66211125260847" lon="8.097606006445753"><ele>1422.0</ele><time>2026-05-01T13:13:22.001Z</time></trkpt><trkpt lat="45.662196572667355" lon="8.097459747801818"><ele>1422.0</ele><time>2026-05-01T13:13:23.001Z</time></trkpt><trkpt lat="45.66229020719648" lon="8.097331003733707"><ele>1418.0</ele><time>2026-05-01T13:13:24.001Z</time></trkpt><trkpt lat="45.66241648353557" lon="8.097191753461264"><ele>1414.0</ele><time>2026-05-01T13:13:25.001Z</time></trkpt><trkpt lat="45.662557135706386" lon="8.097047648077053"><ele>1410.0</ele><time>2026-05-01T13:13:26.001Z</time></trkpt><trkpt lat="45.66267879970807" lon="8.096919352342107"><ele>1410.0</ele><time>2026-05-01T13:13:27.001Z</time></trkpt><trkpt lat="45.66277729299018" lon="8.09681778188437"><ele>1410.0</ele><time>2026-05-01T13:13:28.001Z</time></trkpt><trkpt lat="45.66286614908291" lon="8.096719474845491"><ele>1410.0</ele><time>2026-05-01T13:13:29.001Z</time></trkpt><trkpt lat="45.66294373847832" lon="8.096629596710988"><ele>1410.0</ele><time>2026-05-01T13:13:30.001Z</time></trkpt><trkpt lat="45.663010355182045" lon="8.096517984157131"><ele>1410.0</ele><time>2026-05-01T13:13:31.001Z</time></trkpt><trkpt lat="45.663050739595505" lon="8.096385588369861"><ele>1419.0</ele><time>2026-05-01T13:13:32.001Z</time></trkpt><trkpt lat="45.663068659511325" lon="8.096223301687989"><ele>1428.0</ele><time>2026-05-01T13:13:33.001Z</time></trkpt><trkpt lat="45.6630740775601" lon="8.096017940818584"><ele>1437.0</ele><time>2026-05-01T13:13:34.001Z</time></trkpt><trkpt lat="45.663066551952745" lon="8.095745878485927"><ele>1446.0</ele><time>2026-05-01T13:13:35.001Z</time></trkpt><trkpt lat="45.66305970519854" lon="8.0954895699906"><ele>1448.75</ele><time>2026-05-01T13:13:36.001Z</time></trkpt><trkpt lat="45.663057924448594" lon="8.095277205733764"><ele>1451.5</ele><time>2026-05-01T13:13:37.001Z</time></trkpt><trkpt lat="45.66305547144082" lon="8.095096552854725"><ele>1454.25</ele><time>2026-05-01T13:13:38.001Z</time></trkpt><trkpt lat="45.663042201420915" lon="8.094942582985361"><ele>1457.0</ele><time>2026-05-01T13:13:39.001Z</time></trkpt><trkpt lat="45.66300223599862" lon="8.09479439407805"><ele>1461.0</ele><time>2026-05-01T13:13:40.001Z</time></trkpt><trkpt lat="45.662932072729255" lon="8.09464962548435"><ele>1465.0</ele><time>2026-05-01T13:13:41.001Z</time></trkpt><trkpt lat="45.662841402081995" lon="8.094523328663534"><ele>1469.0</ele><time>2026-05-01T13:13:42.001Z</time></trkpt><trkpt lat="45.66275949141046" lon="8.094425268596224"><ele>1473.0</ele><time>2026-05-01T13:13:43.001Z</time></trkpt><trkpt lat="45.66270394937826" lon="8.094312684470097"><ele>1466.75</ele><time>2026-05-01T13:13:44.001Z</time></trkpt><trkpt lat="45.662682726456616" lon="8.094158347396144"><ele>1460.5</ele><time>2026-05-01T13:13:45.001Z</time></trkpt><trkpt lat="45.66267125374998" lon="8.093967694590473"><ele>1454.25</ele><time>2026-05-01T13:13:46.001Z</time></trkpt><trkpt lat="45.662639160427524" lon="8.093763139023945"><ele>1448.0</ele><time>2026-05-01T13:13:47.001Z</time></trkpt><trkpt lat="45.6625963996674" lon="8.093578635834126"><ele>1448.0</ele><time>2026-05-01T13:13:48.001Z</time></trkpt><trkpt lat="45.66253871688513" lon="8.093402976908369"><ele>1448.0</ele><time>2026-05-01T13:13:49.001Z</time></trkpt><trkpt lat="45.662463354443254" lon="8.093227067259209"><ele>1448.0</ele><time>2026-05-01T13:13:50.001Z</time></trkpt><trkpt lat="45.662383273950404" lon="8.0930550995463"><ele>1448.0</ele><time>2026-05-01T13:13:51.001Z</time></trkpt><trkpt lat="45.66230217166446" lon="8.092890972829213"><ele>1454.75</ele><time>2026-05-01T13:13:52.001Z</time></trkpt><trkpt lat="45.66221891929112" lon="8.092741886994432"><ele>1461.5</ele><time>2026-05-01T13:13:53.001Z</time></trkpt><trkpt lat="45.662132850722735" lon="8.092618564275998"><ele>1468.25</ele><time>2026-05-01T13:13:54.001Z</time></trkpt><trkpt lat="45.6620451958721" lon="8.092502244369426"><ele>1475.0</ele><time>2026-05-01T13:13:55.001Z</time></trkpt><trkpt lat="45.661972506772464" lon="8.092386785375012"><ele>1466.8</ele><time>2026-05-01T13:13:56.001Z</time></trkpt><trkpt lat="45.66192995326905" lon="8.09224679323451"><ele>1458.6</ele><time>2026-05-01T13:13:57.001Z</time></trkpt><trkpt lat="45.661908445625265" lon="8.092072997409694"><ele>1450.4</ele><time>2026-05-01T13:13:58.001Z</time></trkpt><trkpt lat="45.661893840597514" lon="8.091910830935838"><ele>1442.2</ele><time>2026-05-01T13:13:59.001Z</time></trkpt><trkpt lat="45.66189694942357" lon="8.09176650803387"><ele>1434.0</ele><time>2026-05-01T13:14:00.001Z</time></trkpt><trkpt lat="45.661916278292836" lon="8.091597901166695"><ele>1447.5</ele><time>2026-05-01T13:14:01.001Z</time></trkpt><trkpt lat="45.661952936084425" lon="8.091408414031916"><ele>1461.0</ele><time>2026-05-01T13:14:02.001Z</time></trkpt><trkpt lat="45.66198164628226" lon="8.09122453749466"><ele>1474.5</ele><time>2026-05-01T13:14:03.001Z</time></trkpt><trkpt lat="45.66198144312221" lon="8.091058758910265"><ele>1488.0</ele><time>2026-05-01T13:14:04.001Z</time></trkpt><trkpt lat="45.6619627923177" lon="8.090899570431171"><ele>1481.8000000000002</ele><time>2026-05-01T13:14:05.001Z</time></trkpt><trkpt lat="45.661924543236" lon="8.09075512234099"><ele>1475.6</ele><time>2026-05-01T13:14:06.001Z</time></trkpt><trkpt lat="45.66187142843618" lon="8.090635921710803"><ele>1469.4</ele><time>2026-05-01T13:14:07.001Z</time></trkpt><trkpt lat="45.66181128780056" lon="8.090538268302284"><ele>1463.1999999999998</ele><time>2026-05-01T13:14:08.001Z</time></trkpt><trkpt lat="45.66177257548259" lon="8.090429465635491"><ele>1457.0</ele><time>2026-05-01T13:14:09.001Z</time></trkpt><trkpt lat="45.6617583321744" lon="8.090277907416196"><ele>1457.0</ele><time>2026-05-01T13:14:10.001Z</time></trkpt><trkpt lat="45.66175986465013" lon="8.09011169751109"><ele>1457.0</ele><time>2026-05-01T13:14:11.001Z</time></trkpt><trkpt lat="45.66178072308" lon="8.0899233506781"><ele>1457.0</ele><time>2026-05-01T13:14:12.001Z</time></trkpt><trkpt lat="45.661826739145134" lon="8.089702228179952"><ele>1457.0</ele><time>2026-05-01T13:14:13.001Z</time></trkpt><trkpt lat="45.66185337951453" lon="8.089459784172101"><ele>1458.3333333333335</ele><time>2026-05-01T13:14:14.001Z</time></trkpt><trkpt lat="45.66186454095496" lon="8.089174228475363"><ele>1459.6666666666667</ele><time>2026-05-01T13:14:15.001Z</time></trkpt><trkpt lat="45.66185586424312" lon="8.088869503133811"><ele>1461.0</ele><time>2026-05-01T13:14:16.001Z</time></trkpt><trkpt lat="45.66182750796861" lon="8.088590394538896"><ele>1464.75</ele><time>2026-05-01T13:14:17.001Z</time></trkpt><trkpt lat="45.661793315315" lon="8.08835827207211"><ele>1468.5</ele><time>2026-05-01T13:14:18.001Z</time></trkpt><trkpt lat="45.66177300989869" lon="8.088171394190713"><ele>1472.25</ele><time>2026-05-01T13:14:19.001Z</time></trkpt><trkpt lat="45.661777444103706" lon="8.087976114291312"><ele>1476.0</ele><time>2026-05-01T13:14:20.001Z</time></trkpt><trkpt lat="45.66178969769185" lon="8.087804508432068"><ele>1476.0</ele><time>2026-05-01T13:14:21.001Z</time></trkpt><trkpt lat="45.6618038513305" lon="8.08766018067196"><ele>1476.0</ele><time>2026-05-01T13:14:22.001Z</time></trkpt><trkpt lat="45.66183143737071" lon="8.087560946022753"><ele>1476.0</ele><time>2026-05-01T13:14:23.001Z</time></trkpt><trkpt lat="45.661877456225746" lon="8.08747129834418"><ele>1476.0</ele><time>2026-05-01T13:14:24.001Z</time></trkpt><trkpt lat="45.66194515248932" lon="8.087360179776143"><ele>1476.0</ele><time>2026-05-01T13:14:25.001Z</time></trkpt><trkpt lat="45.66203901513059" lon="8.08721459137474"><ele>1478.25</ele><time>2026-05-01T13:14:26.001Z</time></trkpt><trkpt lat="45.66213505346973" lon="8.08704465065073"><ele>1480.5</ele><time>2026-05-01T13:14:27.001Z</time></trkpt><trkpt lat="45.66222852929544" lon="8.08688197572396"><ele>1482.75</ele><time>2026-05-01T13:14:28.001Z</time></trkpt><trkpt lat="45.662305984251645" lon="8.086741141135775"><ele>1485.0</ele><time>2026-05-01T13:14:29.001Z</time></trkpt><trkpt lat="45.662379919136114" lon="8.086603852250274"><ele>1484.4</ele><time>2026-05-01T13:14:30.001Z</time></trkpt><trkpt lat="45.66242882323384" lon="8.086485076059448"><ele>1483.8</ele><time>2026-05-01T13:14:31.001Z</time></trkpt><trkpt lat="45.66245878888711" lon="8.086365399746905"><ele>1483.1999999999998</ele><time>2026-05-01T13:14:32.001Z</time></trkpt><trkpt lat="45.66247575323031" lon="8.08621889858632"><ele>1482.6</ele><time>2026-05-01T13:14:33.001Z</time></trkpt><trkpt lat="45.66247557669431" lon="8.086066451107971"><ele>1482.0</ele><time>2026-05-01T13:14:34.001Z</time></trkpt><trkpt lat="45.662459317414545" lon="8.085927706961773"><ele>1482.0</ele><time>2026-05-01T13:14:35.001Z</time></trkpt><trkpt lat="45.66242347530733" lon="8.08578613831336"><ele>1482.0</ele><time>2026-05-01T13:14:36.001Z</time></trkpt><trkpt lat="45.662374110540554" lon="8.085641636914717"><ele>1482.0</ele><time>2026-05-01T13:14:37.001Z</time></trkpt><trkpt lat="45.66232223893125" lon="8.08549220254649"><ele>1482.0</ele><time>2026-05-01T13:14:38.001Z</time></trkpt><trkpt lat="45.66227154338131" lon="8.085346705432404"><ele>1482.0</ele><time>2026-05-01T13:14:39.001Z</time></trkpt><trkpt lat="45.66223253820363" lon="8.08520449895009"><ele>1482.1999999999998</ele><time>2026-05-01T13:14:40.001Z</time></trkpt><trkpt lat="45.66221503675473" lon="8.085061451050604"><ele>1482.4</ele><time>2026-05-01T13:14:41.001Z</time></trkpt><trkpt lat="45.66221599743957" lon="8.08490291044496"><ele>1482.6</ele><time>2026-05-01T13:14:42.001Z</time></trkpt><trkpt lat="45.66223338308522" lon="8.084729406736692"><ele>1482.8000000000002</ele><time>2026-05-01T13:14:43.001Z</time></trkpt><trkpt lat="45.66225164340387" lon="8.08457544164282"><ele>1483.0</ele><time>2026-05-01T13:14:44.001Z</time></trkpt><trkpt lat="45.66227779102035" lon="8.08444909407906"><ele>1483.0</ele><time>2026-05-01T13:14:45.001Z</time></trkpt><trkpt lat="45.662312970233764" lon="8.084342682067513"><ele>1483.0</ele><time>2026-05-01T13:14:46.001Z</time></trkpt><trkpt lat="45.66236136520867" lon="8.084249788751693"><ele>1483.0</ele><time>2026-05-01T13:14:47.001Z</time></trkpt><trkpt lat="45.66242870195306" lon="8.08417985988312"><ele>1483.0</ele><time>2026-05-01T13:14:48.001Z</time></trkpt><trkpt lat="45.66251360949901" lon="8.084129543252134"><ele>1483.0</ele><time>2026-05-01T13:14:49.001Z</time></trkpt><trkpt lat="45.662626528154064" lon="8.08409187522133"><ele>1483.5</ele><time>2026-05-01T13:14:50.001Z</time></trkpt><trkpt lat="45.66275300329206" lon="8.08406012441127"><ele>1484.0</ele><time>2026-05-01T13:14:51.001Z</time></trkpt><trkpt lat="45.66287699683476" lon="8.084033010391146"><ele>1484.5</ele><time>2026-05-01T13:14:52.001Z</time></trkpt><trkpt lat="45.6629822645745" lon="8.084000883799966"><ele>1485.0</ele><time>2026-05-01T13:14:53.001Z</time></trkpt><trkpt lat="45.66306575877358" lon="8.08395333408034"><ele>1485.0</ele><time>2026-05-01T13:14:54.001Z</time></trkpt><trkpt lat="45.66312686553237" lon="8.083901061309204"><ele>1485.0</ele><time>2026-05-01T13:14:55.001Z</time></trkpt><trkpt lat="45.66317663906763" lon="8.083838193173614"><ele>1485.0</ele><time>2026-05-01T13:14:56.001Z</time></trkpt><trkpt lat="45.663245151252276" lon="8.08371707280817"><ele>1485.0</ele><time>2026-05-01T13:14:58.001Z</time></trkpt><trkpt lat="45.66328165248716" lon="8.083624719228233"><ele>1485.0</ele><time>2026-05-01T13:17:03.001Z</time></trkpt><trkpt lat="45.66335367193832" lon="8.083526247213586"><ele>1485.0</ele><time>2026-05-01T13:17:05.001Z</time></trkpt><trkpt lat="45.663387618026334" lon="8.083400107148137"><ele>1485.0</ele><time>2026-05-01T13:17:06.001Z</time></trkpt><trkpt lat="45.66341403351381" lon="8.083272989351723"><ele>1485.0</ele><time>2026-05-01T13:17:07.001Z</time></trkpt><trkpt lat="45.66343618687988" lon="8.083123056262117"><ele>1485.0</ele><time>2026-05-01T13:17:08.001Z</time></trkpt><trkpt lat="45.663447017839616" lon="8.082960806538821"><ele>1485.0</ele><time>2026-05-01T13:17:09.001Z</time></trkpt><trkpt lat="45.66343637263749" lon="8.082813921398353"><ele>1485.0</ele><time>2026-05-01T13:17:10.001Z</time></trkpt><trkpt lat="45.66339874755648" lon="8.082674560160422"><ele>1485.8</ele><time>2026-05-01T13:17:11.001Z</time></trkpt><trkpt lat="45.663378366191665" lon="8.082530342650106"><ele>1486.6</ele><time>2026-05-01T13:17:12.001Z</time></trkpt><trkpt lat="45.66335885934972" lon="8.082385001734991"><ele>1487.4</ele><time>2026-05-01T13:17:13.001Z</time></trkpt><trkpt lat="45.663334422375726" lon="8.082238504644245"><ele>1488.2</ele><time>2026-05-01T13:17:14.001Z</time></trkpt><trkpt lat="45.66331134725379" lon="8.08208857694905"><ele>1489.0</ele><time>2026-05-01T13:17:15.001Z</time></trkpt><trkpt lat="45.66330196835071" lon="8.081927039766635"><ele>1490.25</ele><time>2026-05-01T13:17:16.001Z</time></trkpt><trkpt lat="45.66329769748059" lon="8.081779801976877"><ele>1491.5</ele><time>2026-05-01T13:17:17.001Z</time></trkpt><trkpt lat="45.663317458615026" lon="8.081607425727219"><ele>1492.75</ele><time>2026-05-01T13:17:18.001Z</time></trkpt><trkpt lat="45.66334395086304" lon="8.081433782129219"><ele>1494.0</ele><time>2026-05-01T13:17:19.001Z</time></trkpt><trkpt lat="45.66336260820104" lon="8.081278931280535"><ele>1495.4</ele><time>2026-05-01T13:17:20.001Z</time></trkpt><trkpt lat="45.66336009886937" lon="8.081145974118046"><ele>1496.8000000000002</ele><time>2026-05-01T13:17:21.001Z</time></trkpt><trkpt lat="45.66331769715346" lon="8.08100886093021"><ele>1498.1999999999998</ele><time>2026-05-01T13:17:22.001Z</time></trkpt><trkpt lat="45.663249114190144" lon="8.080885277453872"><ele>1499.6</ele><time>2026-05-01T13:17:23.001Z</time></trkpt><trkpt lat="45.66315072266948" lon="8.080772574776097"><ele>1501.0</ele><time>2026-05-01T13:17:24.001Z</time></trkpt><trkpt lat="45.66302434762379" lon="8.080682542737891"><ele>1507.0</ele><time>2026-05-01T13:17:25.001Z</time></trkpt><trkpt lat="45.66291889539036" lon="8.080532514327444"><ele>1513.0</ele><time>2026-05-01T13:17:26.001Z</time></trkpt><trkpt lat="45.66281129811673" lon="8.08035635819549"><ele>1519.0</ele><time>2026-05-01T13:17:27.001Z</time></trkpt><trkpt lat="45.66269858692707" lon="8.080148838054473"><ele>1508.3333333333333</ele><time>2026-05-01T13:17:28.001Z</time></trkpt><trkpt lat="45.662589882775485" lon="8.079949353169438"><ele>1497.6666666666667</ele><time>2026-05-01T13:17:29.001Z</time></trkpt><trkpt lat="45.662500273642166" lon="8.079783072970258"><ele>1487.0</ele><time>2026-05-01T13:17:30.001Z</time></trkpt><trkpt lat="45.66243021045506" lon="8.079610864220598"><ele>1487.0</ele><time>2026-05-01T13:17:31.001Z</time></trkpt><trkpt lat="45.66237206102879" lon="8.07941900655461"><ele>1487.0</ele><time>2026-05-01T13:17:32.001Z</time></trkpt><trkpt lat="45.662325635239604" lon="8.079238583069326"><ele>1487.0</ele><time>2026-05-01T13:17:33.001Z</time></trkpt><trkpt lat="45.66229390580568" lon="8.079095097244751"><ele>1487.0</ele><time>2026-05-01T13:17:34.001Z</time></trkpt><trkpt lat="45.662281929403065" lon="8.078947733887077"><ele>1487.0</ele><time>2026-05-01T13:17:35.001Z</time></trkpt><trkpt lat="45.66228970362551" lon="8.078809377526705"><ele>1487.0</ele><time>2026-05-01T13:17:36.001Z</time></trkpt><trkpt lat="45.66233006584927" lon="8.078665644706263"><ele>1487.0</ele><time>2026-05-01T13:17:37.001Z</time></trkpt><trkpt lat="45.66235030426996" lon="8.07849641648176"><ele>1487.0</ele><time>2026-05-01T13:17:38.001Z</time></trkpt><trkpt lat="45.6623837735901" lon="8.078346426215958"><ele>1487.0</ele><time>2026-05-01T13:17:39.001Z</time></trkpt><trkpt lat="45.66239228414638" lon="8.078225223918645"><ele>1489.0</ele><time>2026-05-01T13:17:40.001Z</time></trkpt><trkpt lat="45.66236945117558" lon="8.078097823274291"><ele>1491.0</ele><time>2026-05-01T13:17:41.001Z</time></trkpt><trkpt lat="45.662318219251475" lon="8.077950851248058"><ele>1493.0</ele><time>2026-05-01T13:17:42.001Z</time></trkpt><trkpt lat="45.66224802709192" lon="8.077771913826156"><ele>1495.0</ele><time>2026-05-01T13:17:43.001Z</time></trkpt><trkpt lat="45.66218251358737" lon="8.077548019098616"><ele>1489.0</ele><time>2026-05-01T13:17:44.001Z</time></trkpt><trkpt lat="45.66208606434487" lon="8.077352855202982"><ele>1483.0</ele><time>2026-05-01T13:17:45.001Z</time></trkpt><trkpt lat="45.66198177198478" lon="8.077157938294102"><ele>1477.0</ele><time>2026-05-01T13:17:46.001Z</time></trkpt><trkpt lat="45.66185708445267" lon="8.076935216162974"><ele>1477.0</ele><time>2026-05-01T13:17:47.001Z</time></trkpt><trkpt lat="45.66172925221576" lon="8.076737949204537"><ele>1477.0</ele><time>2026-05-01T13:17:48.001Z</time></trkpt><trkpt lat="45.66161268547551" lon="8.076592639335786"><ele>1477.0</ele><time>2026-05-01T13:17:49.001Z</time></trkpt><trkpt lat="45.66152492921993" lon="8.07642916448381"><ele>1483.0</ele><time>2026-05-01T13:17:50.001Z</time></trkpt><trkpt lat="45.661415855351706" lon="8.076295053189476"><ele>1489.0</ele><time>2026-05-01T13:17:51.002Z</time></trkpt><trkpt lat="45.66128332557747" lon="8.07618556032222"><ele>1495.0</ele><time>2026-05-01T13:17:52.002Z</time></trkpt><trkpt lat="45.66112820523831" lon="8.076095309772432"><ele>1488.75</ele><time>2026-05-01T13:17:53.002Z</time></trkpt><trkpt lat="45.66098671185946" lon="8.075980541430303"><ele>1482.5</ele><time>2026-05-01T13:17:54.002Z</time></trkpt><trkpt lat="45.660876200672575" lon="8.075872017497751"><ele>1476.25</ele><time>2026-05-01T13:17:55.002Z</time></trkpt><trkpt lat="45.66077758324421" lon="8.075778190678383"><ele>1470.0</ele><time>2026-05-01T13:17:56.002Z</time></trkpt><trkpt lat="45.66070791312876" lon="8.07569417294562"><ele>1470.0</ele><time>2026-05-01T13:17:57.002Z</time></trkpt><trkpt lat="45.66066577023776" lon="8.075591245397858"><ele>1470.0</ele><time>2026-05-01T13:17:58.002Z</time></trkpt><trkpt lat="45.66062571073497" lon="8.075515205498123"><ele>1470.0</ele><time>2026-05-01T13:17:59.002Z</time></trkpt><trkpt lat="45.66063997942269" lon="8.075409234873211"><ele>1470.0</ele><time>2026-05-01T13:18:00.002Z</time></trkpt><trkpt lat="45.660674553703295" lon="8.075294152329203"><ele>1470.0</ele><time>2026-05-01T13:18:01.002Z</time></trkpt><trkpt lat="45.660701579772045" lon="8.075146923174621"><ele>1470.0</ele><time>2026-05-01T13:18:02.002Z</time></trkpt><trkpt lat="45.660727838658396" lon="8.074958622390291"><ele>1465.75</ele><time>2026-05-01T13:18:03.002Z</time></trkpt><trkpt lat="45.66078141162129" lon="8.074768810638187"><ele>1461.5</ele><time>2026-05-01T13:18:04.002Z</time></trkpt><trkpt lat="45.66083583136229" lon="8.074592730868412"><ele>1457.25</ele><time>2026-05-01T13:18:05.002Z</time></trkpt><trkpt lat="45.66090845237759" lon="8.074461507733844"><ele>1453.0</ele><time>2026-05-01T13:18:06.002Z</time></trkpt><trkpt lat="45.66097648922455" lon="8.07431292351022"><ele>1453.0</ele><time>2026-05-01T13:18:07.002Z</time></trkpt><trkpt lat="45.661037883539635" lon="8.074157290494046"><ele>1453.0</ele><time>2026-05-01T13:18:08.003Z</time></trkpt><trkpt lat="45.661116001926594" lon="8.074039944259804"><ele>1453.0</ele><time>2026-05-01T13:18:09.003Z</time></trkpt><trkpt lat="45.6612328312533" lon="8.073941792140433"><ele>1453.0</ele><time>2026-05-01T13:18:10.002Z</time></trkpt><trkpt lat="45.66135907072721" lon="8.073809443850804"><ele>1452.0</ele><time>2026-05-01T13:18:11.002Z</time></trkpt><trkpt lat="45.66150258148255" lon="8.073656312840022"><ele>1451.0</ele><time>2026-05-01T13:18:12.002Z</time></trkpt><trkpt lat="45.66161623648188" lon="8.073495701984276"><ele>1450.0</ele><time>2026-05-01T13:18:13.002Z</time></trkpt><trkpt lat="45.66172030811725" lon="8.073372047940786"><ele>1450.0</ele><time>2026-05-01T13:18:14.002Z</time></trkpt><trkpt lat="45.66180278364102" lon="8.073283933637267"><ele>1450.0</ele><time>2026-05-01T13:18:15.002Z</time></trkpt><trkpt lat="45.66188761808959" lon="8.07320271673901"><ele>1450.0</ele><time>2026-05-01T13:18:16.002Z</time></trkpt><trkpt lat="45.66199045218255" lon="8.073136833993544"><ele>1450.0</ele><time>2026-05-01T13:18:17.002Z</time></trkpt><trkpt lat="45.662104712470615" lon="8.073112612454386"><ele>1450.0</ele><time>2026-05-01T13:18:18.002Z</time></trkpt><trkpt lat="45.662201230484655" lon="8.073029188991649"><ele>1449.8</ele><time>2026-05-01T13:18:19.002Z</time></trkpt><trkpt lat="45.66229063728665" lon="8.072954293932503"><ele>1449.6</ele><time>2026-05-01T13:18:20.002Z</time></trkpt><trkpt lat="45.662372906365384" lon="8.072853440098312"><ele>1449.4</ele><time>2026-05-01T13:18:21.002Z</time></trkpt><trkpt lat="45.662450829914675" lon="8.072727689731577"><ele>1449.2</ele><time>2026-05-01T13:18:22.002Z</time></trkpt><trkpt lat="45.66251540724638" lon="8.072584072644782"><ele>1449.0</ele><time>2026-05-01T13:18:23.002Z</time></trkpt><trkpt lat="45.66256923024932" lon="8.072445139648973"><ele>1445.6</ele><time>2026-05-01T13:18:24.002Z</time></trkpt><trkpt lat="45.66261327096974" lon="8.072317491561558"><ele>1442.2</ele><time>2026-05-01T13:18:25.002Z</time></trkpt><trkpt lat="45.66265763295823" lon="8.072190143677178"><ele>1438.8</ele><time>2026-05-01T13:18:26.002Z</time></trkpt><trkpt lat="45.662648717130985" lon="8.072047077892073"><ele>1435.3999999999999</ele><time>2026-05-01T13:18:27.002Z</time></trkpt><trkpt lat="45.662636707259075" lon="8.07188522780529"><ele>1432.0</ele><time>2026-05-01T13:18:28.002Z</time></trkpt><trkpt lat="45.662651135943776" lon="8.07173237874744"><ele>1428.0</ele><time>2026-05-01T13:18:29.002Z</time></trkpt><trkpt lat="45.662637784954626" lon="8.071580068453551"><ele>1424.0</ele><time>2026-05-01T13:18:30.002Z</time></trkpt><trkpt lat="45.66266945639776" lon="8.07141751619079"><ele>1420.0</ele><time>2026-05-01T13:18:31.002Z</time></trkpt><trkpt lat="45.66273755950744" lon="8.071253956991653"><ele>1416.0</ele><time>2026-05-01T13:18:32.002Z</time></trkpt><trkpt lat="45.66277768566173" lon="8.071065104443877"><ele>1422.0</ele><time>2026-05-01T13:18:33.002Z</time></trkpt><trkpt lat="45.66282872890653" lon="8.07090386646291"><ele>1428.0</ele><time>2026-05-01T13:18:34.002Z</time></trkpt><trkpt lat="45.66287069460361" lon="8.070759720669757"><ele>1434.0</ele><time>2026-05-01T13:18:35.002Z</time></trkpt><trkpt lat="45.662904232481" lon="8.070625050134607"><ele>1440.0</ele><time>2026-05-01T13:18:36.002Z</time></trkpt><trkpt lat="45.662925775255445" lon="8.070500782441782"><ele>1446.0</ele><time>2026-05-01T13:18:37.002Z</time></trkpt><trkpt lat="45.66294830453291" lon="8.0703862430699"><ele>1446.75</ele><time>2026-05-01T13:18:38.002Z</time></trkpt><trkpt lat="45.66292968765653" lon="8.070261492627239"><ele>1447.5</ele><time>2026-05-01T13:18:39.002Z</time></trkpt><trkpt lat="45.66285641070291" lon="8.07014376555909"><ele>1448.25</ele><time>2026-05-01T13:18:40.002Z</time></trkpt><trkpt lat="45.662789118372025" lon="8.070003943234713"><ele>1449.0</ele><time>2026-05-01T13:18:41.001Z</time></trkpt><trkpt lat="45.6626961884031" lon="8.069832563931756"><ele>1441.0</ele><time>2026-05-01T13:18:42.001Z</time></trkpt><trkpt lat="45.66260459141501" lon="8.069659026027976"><ele>1433.0</ele><time>2026-05-01T13:18:43.001Z</time></trkpt><trkpt lat="45.66252710152347" lon="8.069514105380575"><ele>1425.0</ele><time>2026-05-01T13:18:44.001Z</time></trkpt><trkpt lat="45.66244897446069" lon="8.069383443068796"><ele>1417.0</ele><time>2026-05-01T13:18:45.001Z</time></trkpt><trkpt lat="45.662372129417065" lon="8.06924739932722"><ele>1418.25</ele><time>2026-05-01T13:18:46.001Z</time></trkpt><trkpt lat="45.662318924748725" lon="8.069069270288804"><ele>1419.5</ele><time>2026-05-01T13:18:47.001Z</time></trkpt><trkpt lat="45.66226600977301" lon="8.068916765327613"><ele>1420.75</ele><time>2026-05-01T13:18:48.001Z</time></trkpt><trkpt lat="45.66220444651811" lon="8.0687716074989"><ele>1422.0</ele><time>2026-05-01T13:18:49.001Z</time></trkpt><trkpt lat="45.662166687534295" lon="8.068603317676192"><ele>1422.0</ele><time>2026-05-01T13:18:50.001Z</time></trkpt><trkpt lat="45.662134496440586" lon="8.068430596187726"><ele>1422.0</ele><time>2026-05-01T13:18:51.001Z</time></trkpt><trkpt lat="45.6621094938805" lon="8.068251949227665"><ele>1422.0</ele><time>2026-05-01T13:18:52.001Z</time></trkpt><trkpt lat="45.662087461699315" lon="8.068081199834463"><ele>1422.0</ele><time>2026-05-01T13:18:53.001Z</time></trkpt><trkpt lat="45.662073062877795" lon="8.067930056651301"><ele>1421.6</ele><time>2026-05-01T13:18:54.001Z</time></trkpt><trkpt lat="45.662066513616374" lon="8.067785299304223"><ele>1421.1999999999998</ele><time>2026-05-01T13:18:55.001Z</time></trkpt><trkpt lat="45.66207253009005" lon="8.067654714833353"><ele>1420.8</ele><time>2026-05-01T13:18:56.001Z</time></trkpt><trkpt lat="45.662096557254216" lon="8.067528273868161"><ele>1420.4</ele><time>2026-05-01T13:18:57.001Z</time></trkpt><trkpt lat="45.662157132732446" lon="8.06738042819942"><ele>1420.0</ele><time>2026-05-01T13:18:58.001Z</time></trkpt><trkpt lat="45.66218966211914" lon="8.067203845423846"><ele>1419.5</ele><time>2026-05-01T13:18:59.001Z</time></trkpt><trkpt lat="45.662238825659045" lon="8.067047076139453"><ele>1419.0</ele><time>2026-05-01T13:19:00.001Z</time></trkpt><trkpt lat="45.66225193021106" lon="8.066878814438482"><ele>1418.5</ele><time>2026-05-01T13:19:01.001Z</time></trkpt><trkpt lat="45.66222908840791" lon="8.066697528013938"><ele>1418.0</ele><time>2026-05-01T13:19:02.001Z</time></trkpt><trkpt lat="45.662214580531" lon="8.066525980490235"><ele>1416.25</ele><time>2026-05-01T13:19:03.001Z</time></trkpt><trkpt lat="45.66222163131473" lon="8.066367638550853"><ele>1414.5</ele><time>2026-05-01T13:19:04.001Z</time></trkpt><trkpt lat="45.662207677139904" lon="8.06619763953371"><ele>1412.75</ele><time>2026-05-01T13:19:05.001Z</time></trkpt><trkpt lat="45.66225613839452" lon="8.065998416240996"><ele>1411.0</ele><time>2026-05-01T13:19:06.001Z</time></trkpt><trkpt lat="45.66228901739394" lon="8.065755512963458"><ele>1406.0</ele><time>2026-05-01T13:19:07.001Z</time></trkpt><trkpt lat="45.66229135417711" lon="8.065509294253546"><ele>1401.0</ele><time>2026-05-01T13:19:08.001Z</time></trkpt><trkpt lat="45.662308072181446" lon="8.06525734867564"><ele>1396.0</ele><time>2026-05-01T13:19:09.001Z</time></trkpt><trkpt lat="45.66234036646346" lon="8.06502502415082"><ele>1392.6666666666665</ele><time>2026-05-01T13:19:10.001Z</time></trkpt><trkpt lat="45.66235994558694" lon="8.064800255959208"><ele>1389.3333333333333</ele><time>2026-05-01T13:19:11.001Z</time></trkpt><trkpt lat="45.66237919308862" lon="8.064583835102308"><ele>1386.0</ele><time>2026-05-01T13:19:12.001Z</time></trkpt><trkpt lat="45.6623990718499" lon="8.064373866015563"><ele>1386.0</ele><time>2026-05-01T13:19:13.001Z</time></trkpt><trkpt lat="45.66242422749214" lon="8.064164444336113"><ele>1386.0</ele><time>2026-05-01T13:19:14.001Z</time></trkpt><trkpt lat="45.66245783299813" lon="8.063976334555436"><ele>1386.0</ele><time>2026-05-01T13:19:15.001Z</time></trkpt><trkpt lat="45.66249358550291" lon="8.063787402383218"><ele>1386.0</ele><time>2026-05-01T13:19:16.001Z</time></trkpt><trkpt lat="45.66252535454216" lon="8.063634782621262"><ele>1383.1666666666667</ele><time>2026-05-01T13:19:17.001Z</time></trkpt><trkpt lat="45.6625542223155" lon="8.063509550785316"><ele>1380.3333333333333</ele><time>2026-05-01T13:19:18.001Z</time></trkpt><trkpt lat="45.662583009799285" lon="8.06339280136472"><ele>1377.5</ele><time>2026-05-01T13:19:19.001Z</time></trkpt><trkpt lat="45.66261395868146" lon="8.063290241931186"><ele>1374.6666666666665</ele><time>2026-05-01T13:19:20.001Z</time></trkpt><trkpt lat="45.66266088072741" lon="8.063181723457742"><ele>1371.8333333333333</ele><time>2026-05-01T13:19:21.001Z</time></trkpt><trkpt lat="45.66274509678827" lon="8.063101677443196"><ele>1369.0</ele><time>2026-05-01T13:19:22.001Z</time></trkpt><trkpt lat="45.662860878613785" lon="8.063096437173566"><ele>1368.0</ele><time>2026-05-01T13:19:23.001Z</time></trkpt><trkpt lat="45.66298134622817" lon="8.063039471114275"><ele>1367.0</ele><time>2026-05-01T13:19:24.001Z</time></trkpt><trkpt lat="45.663113935325676" lon="8.06295847480827"><ele>1366.0</ele><time>2026-05-01T13:19:25.001Z</time></trkpt><trkpt lat="45.66324614550752" lon="8.062910449006683"><ele>1365.0</ele><time>2026-05-01T13:19:26.001Z</time></trkpt><trkpt lat="45.66334783961098" lon="8.062860677792349"><ele>1365.0</ele><time>2026-05-01T13:19:27.001Z</time></trkpt><trkpt lat="45.66343201448314" lon="8.062816019622177"><ele>1365.0</ele><time>2026-05-01T13:19:28.001Z</time></trkpt><trkpt lat="45.66350027427452" lon="8.062762225526821"><ele>1365.0</ele><time>2026-05-01T13:19:29.001Z</time></trkpt><trkpt lat="45.66355952097222" lon="8.062683312811963"><ele>1365.0</ele><time>2026-05-01T13:19:30.001Z</time></trkpt><trkpt lat="45.663621774298306" lon="8.06258947873363"><ele>1365.0</ele><time>2026-05-01T13:19:31.001Z</time></trkpt><trkpt lat="45.66365574542474" lon="8.062423196187304"><ele>1371.0</ele><time>2026-05-01T13:19:32.001Z</time></trkpt><trkpt lat="45.663661290405685" lon="8.062234393760496"><ele>1377.0</ele><time>2026-05-01T13:19:33.001Z</time></trkpt><trkpt lat="45.66366117451585" lon="8.062025708819606"><ele>1383.0</ele><time>2026-05-01T13:19:34.001Z</time></trkpt><trkpt lat="45.66365485603011" lon="8.06178145754454"><ele>1389.0</ele><time>2026-05-01T13:19:35.001Z</time></trkpt><trkpt lat="45.6636419945623" lon="8.061535403366136"><ele>1382.0</ele><time>2026-05-01T13:19:36.001Z</time></trkpt><trkpt lat="45.6636121534748" lon="8.061273840687093"><ele>1375.0</ele><time>2026-05-01T13:19:37.001Z</time></trkpt><trkpt lat="45.66356686127507" lon="8.06100955308587"><ele>1368.0</ele><time>2026-05-01T13:19:38.001Z</time></trkpt><trkpt lat="45.66351304596509" lon="8.060761425854139"><ele>1368.0</ele><time>2026-05-01T13:19:39.001Z</time></trkpt><trkpt lat="45.66349919817391" lon="8.060535702152807"><ele>1368.0</ele><time>2026-05-01T13:19:40.001Z</time></trkpt><trkpt lat="45.663472911049595" lon="8.060356926792382"><ele>1368.0</ele><time>2026-05-01T13:19:41.001Z</time></trkpt><trkpt lat="45.6634398747924" lon="8.060184010779546"><ele>1368.0</ele><time>2026-05-01T13:19:42.001Z</time></trkpt><trkpt lat="45.66337883162152" lon="8.060025417807974"><ele>1373.5</ele><time>2026-05-01T13:19:43.001Z</time></trkpt><trkpt lat="45.66332004118428" lon="8.059870397557523"><ele>1379.0</ele><time>2026-05-01T13:19:44.001Z</time></trkpt><trkpt lat="45.66326040380888" lon="8.059736325355528"><ele>1384.5</ele><time>2026-05-01T13:19:45.001Z</time></trkpt><trkpt lat="45.66318566695474" lon="8.059618319008631"><ele>1390.0</ele><time>2026-05-01T13:19:46.001Z</time></trkpt><trkpt lat="45.66309069458932" lon="8.059505009568511"><ele>1390.0</ele><time>2026-05-01T13:19:47.001Z</time></trkpt><trkpt lat="45.66297239132046" lon="8.059414312983893"><ele>1390.0</ele><time>2026-05-01T13:19:48.001Z</time></trkpt><trkpt lat="45.662838076042455" lon="8.059339341881778"><ele>1390.0</ele><time>2026-05-01T13:19:49.001Z</time></trkpt><trkpt lat="45.66269281037075" lon="8.059281812404807"><ele>1390.0</ele><time>2026-05-01T13:19:50.001Z</time></trkpt><trkpt lat="45.66256687487366" lon="8.059249203686628"><ele>1389.4</ele><time>2026-05-01T13:19:51.001Z</time></trkpt><trkpt lat="45.66246449803732" lon="8.059224768594468"><ele>1388.8</ele><time>2026-05-01T13:19:52.001Z</time></trkpt><trkpt lat="45.66237550733186" lon="8.059177109625885"><ele>1388.1999999999998</ele><time>2026-05-01T13:19:53.001Z</time></trkpt><trkpt lat="45.66231814131881" lon="8.059071181372504"><ele>1387.6</ele><time>2026-05-01T13:19:54.001Z</time></trkpt><trkpt lat="45.6622810104481" lon="8.058941851387242"><ele>1387.0</ele><time>2026-05-01T13:19:55.001Z</time></trkpt><trkpt lat="45.662234151127755" lon="8.058771615019133"><ele>1387.0</ele><time>2026-05-01T13:19:56.001Z</time></trkpt><trkpt lat="45.66217166394737" lon="8.058615019443081"><ele>1387.0</ele><time>2026-05-01T13:19:57.001Z</time></trkpt><trkpt lat="45.662092038195595" lon="8.058476662428859"><ele>1387.0</ele><time>2026-05-01T13:19:58.001Z</time></trkpt><trkpt lat="45.661975688493" lon="8.058366956218412"><ele>1387.0</ele><time>2026-05-01T13:19:59.001Z</time></trkpt><trkpt lat="45.661816523755725" lon="8.05826219404002"><ele>1384.3333333333333</ele><time>2026-05-01T13:20:00.001Z</time></trkpt><trkpt lat="45.66164750765986" lon="8.058117645157106"><ele>1381.6666666666667</ele><time>2026-05-01T13:20:01.001Z</time></trkpt><trkpt lat="45.66151206096126" lon="8.057941849879702"><ele>1379.0</ele><time>2026-05-01T13:20:02.001Z</time></trkpt><trkpt lat="45.661383421040895" lon="8.057803294414922"><ele>1379.0</ele><time>2026-05-01T13:20:03.001Z</time></trkpt><trkpt lat="45.66127765246859" lon="8.057691409376785"><ele>1379.0</ele><time>2026-05-01T13:20:04.001Z</time></trkpt><trkpt lat="45.66117451959746" lon="8.057620523989478"><ele>1379.0</ele><time>2026-05-01T13:20:05.001Z</time></trkpt><trkpt lat="45.661085684165386" lon="8.057559529396345"><ele>1379.0</ele><time>2026-05-01T13:20:06.001Z</time></trkpt><trkpt lat="45.660987157727305" lon="8.057514880452697"><ele>1379.0</ele><time>2026-05-01T13:20:07.001Z</time></trkpt><trkpt lat="45.660876921071456" lon="8.057558604334215"><ele>1373.5</ele><time>2026-05-01T13:20:08.001Z</time></trkpt><trkpt lat="45.66077531127427" lon="8.057617075367268"><ele>1368.0</ele><time>2026-05-01T13:20:09.001Z</time></trkpt><trkpt lat="45.66066921296689" lon="8.057719126731385"><ele>1362.5</ele><time>2026-05-01T13:20:10.001Z</time></trkpt><trkpt lat="45.66054179902383" lon="8.0578490233205"><ele>1357.0</ele><time>2026-05-01T13:20:11.001Z</time></trkpt><trkpt lat="45.660413041248205" lon="8.057971459935928"><ele>1357.0</ele><time>2026-05-01T13:20:12.002Z</time></trkpt><trkpt lat="45.66030515193071" lon="8.058063912688477"><ele>1357.0</ele><time>2026-05-01T13:20:13.002Z</time></trkpt><trkpt lat="45.660206314244924" lon="8.058100412551807"><ele>1357.0</ele><time>2026-05-01T13:20:14.002Z</time></trkpt><trkpt lat="45.66012742257539" lon="8.058117861219237"><ele>1357.0</ele><time>2026-05-01T13:20:15.002Z</time></trkpt><trkpt lat="45.660047359238774" lon="8.05812784119739"><ele>1357.0</ele><time>2026-05-01T13:20:16.002Z</time></trkpt><trkpt lat="45.6599392690453" lon="8.058083372477478"><ele>1357.25</ele><time>2026-05-01T13:20:17.002Z</time></trkpt><trkpt lat="45.65980494937433" lon="8.057988207105229"><ele>1357.5</ele><time>2026-05-01T13:20:18.002Z</time></trkpt><trkpt lat="45.65967063916385" lon="8.057891301840815"><ele>1357.75</ele><time>2026-05-01T13:20:19.002Z</time></trkpt><trkpt lat="45.65957018488313" lon="8.057786520869758"><ele>1358.0</ele><time>2026-05-01T13:20:20.002Z</time></trkpt><trkpt lat="45.65947189598958" lon="8.057723927703742"><ele>1354.4</ele><time>2026-05-01T13:20:21.002Z</time></trkpt><trkpt lat="45.659385542188474" lon="8.057654846252523"><ele>1350.8000000000002</ele><time>2026-05-01T13:20:22.002Z</time></trkpt><trkpt lat="45.659314560925296" lon="8.057563851058418"><ele>1347.2</ele><time>2026-05-01T13:20:23.002Z</time></trkpt><trkpt lat="45.6592466026774" lon="8.057463424549335"><ele>1343.6</ele><time>2026-05-01T13:20:24.002Z</time></trkpt><trkpt lat="45.659229654114064" lon="8.057298223776932"><ele>1340.0</ele><time>2026-05-01T13:20:25.002Z</time></trkpt><trkpt lat="45.65920608391712" lon="8.057102572355463"><ele>1340.0</ele><time>2026-05-01T13:20:26.002Z</time></trkpt><trkpt lat="45.659167669295925" lon="8.056888353581883"><ele>1340.0</ele><time>2026-05-01T13:20:27.002Z</time></trkpt><trkpt lat="45.65913917594832" lon="8.056671444529824"><ele>1340.0</ele><time>2026-05-01T13:20:28.002Z</time></trkpt><trkpt lat="45.6590976613344" lon="8.056482895944185"><ele>1340.0</ele><time>2026-05-01T13:20:29.002Z</time></trkpt><trkpt lat="45.65904195971049" lon="8.056324713506225"><ele>1344.75</ele><time>2026-05-01T13:20:30.002Z</time></trkpt><trkpt lat="45.658972057606384" lon="8.056181080401497"><ele>1349.5</ele><time>2026-05-01T13:20:31.002Z</time></trkpt><trkpt lat="45.65888178459369" lon="8.056047128068803"><ele>1354.25</ele><time>2026-05-01T13:20:32.002Z</time></trkpt><trkpt lat="45.658767484706004" lon="8.055938815058694"><ele>1359.0</ele><time>2026-05-01T13:20:33.002Z</time></trkpt><trkpt lat="45.65863714654633" lon="8.055848725072138"><ele>1356.5</ele><time>2026-05-01T13:20:34.001Z</time></trkpt><trkpt lat="45.65849714861833" lon="8.05578588085268"><ele>1354.0</ele><time>2026-05-01T13:20:35.001Z</time></trkpt><trkpt lat="45.6583517612422" lon="8.055744783809882"><ele>1351.5</ele><time>2026-05-01T13:20:36.001Z</time></trkpt><trkpt lat="45.65820927230397" lon="8.055679051381599"><ele>1349.0</ele><time>2026-05-01T13:20:37.001Z</time></trkpt><trkpt lat="45.65809051448078" lon="8.055642387709362"><ele>1349.0</ele><time>2026-05-01T13:20:38.001Z</time></trkpt><trkpt lat="45.65799557471716" lon="8.055599600582742"><ele>1349.0</ele><time>2026-05-01T13:20:39.001Z</time></trkpt><trkpt lat="45.65791076039402" lon="8.05555874659582"><ele>1349.0</ele><time>2026-05-01T13:20:40.001Z</time></trkpt><trkpt lat="45.657855295517805" lon="8.055460294433576"><ele>1349.0</ele><time>2026-05-01T13:20:41.001Z</time></trkpt><trkpt lat="45.65780756041846" lon="8.055359394028422"><ele>1349.0</ele><time>2026-05-01T13:20:42.001Z</time></trkpt><trkpt lat="45.65778068383186" lon="8.055214305331369"><ele>1340.0</ele><time>2026-05-01T13:20:43.001Z</time></trkpt><trkpt lat="45.65775124103591" lon="8.05501040810031"><ele>1331.0</ele><time>2026-05-01T13:20:44.001Z</time></trkpt><trkpt lat="45.65768602250969" lon="8.05474987637127"><ele>1322.0</ele><time>2026-05-01T13:20:45.001Z</time></trkpt><trkpt lat="45.657638905231764" lon="8.054477758984625"><ele>1322.0</ele><time>2026-05-01T13:20:46.001Z</time></trkpt><trkpt lat="45.657614330517056" lon="8.054227512960804"><ele>1322.0</ele><time>2026-05-01T13:20:47.001Z</time></trkpt><trkpt lat="45.65757680634708" lon="8.054007039784418"><ele>1322.0</ele><time>2026-05-01T13:20:48.001Z</time></trkpt><trkpt lat="45.65753739626347" lon="8.053794049976359"><ele>1323.25</ele><time>2026-05-01T13:20:49.001Z</time></trkpt><trkpt lat="45.657504126835406" lon="8.05360249884905"><ele>1324.5</ele><time>2026-05-01T13:20:50.001Z</time></trkpt><trkpt lat="45.657475663941604" lon="8.053423503696992"><ele>1325.75</ele><time>2026-05-01T13:20:51.001Z</time></trkpt><trkpt lat="45.65745384678793" lon="8.053230341850792"><ele>1327.0</ele><time>2026-05-01T13:20:52.001Z</time></trkpt><trkpt lat="45.657451826091794" lon="8.053014153522007"><ele>1327.5</ele><time>2026-05-01T13:20:53.001Z</time></trkpt><trkpt lat="45.65745953130508" lon="8.052779095639753"><ele>1328.0</ele><time>2026-05-01T13:20:54.001Z</time></trkpt><trkpt lat="45.657468350105525" lon="8.052580078830456"><ele>1328.5</ele><time>2026-05-01T13:20:55.001Z</time></trkpt><trkpt lat="45.65745964821485" lon="8.052420477774662"><ele>1329.0</ele><time>2026-05-01T13:20:56.001Z</time></trkpt><trkpt lat="45.65745522282025" lon="8.052280945995939"><ele>1331.2</ele><time>2026-05-01T13:20:57.001Z</time></trkpt><trkpt lat="45.657432641712724" lon="8.052160887958893"><ele>1333.4</ele><time>2026-05-01T13:20:58.001Z</time></trkpt><trkpt lat="45.65739169629174" lon="8.052053762748777"><ele>1335.6</ele><time>2026-05-01T13:20:59.001Z</time></trkpt><trkpt lat="45.65732980556153" lon="8.051967495911752"><ele>1337.8</ele><time>2026-05-01T13:21:00.001Z</time></trkpt><trkpt lat="45.657260141998044" lon="8.0518764626965"><ele>1340.0</ele><time>2026-05-01T13:21:01.001Z</time></trkpt><trkpt lat="45.657155508545586" lon="8.05185525396078"><ele>1340.0</ele><time>2026-05-01T13:21:02.001Z</time></trkpt><trkpt lat="45.657044141542926" lon="8.051837393794981"><ele>1340.0</ele><time>2026-05-01T13:21:03.001Z</time></trkpt><trkpt lat="45.656922377927486" lon="8.051838083147697"><ele>1340.0</ele><time>2026-05-01T13:21:04.001Z</time></trkpt><trkpt lat="45.65678660049952" lon="8.051851462774543"><ele>1340.0</ele><time>2026-05-01T13:21:05.001Z</time></trkpt><trkpt lat="45.656668631871554" lon="8.051820829330724"><ele>1340.25</ele><time>2026-05-01T13:21:06.001Z</time></trkpt><trkpt lat="45.656562706681065" lon="8.051783252405125"><ele>1340.5</ele><time>2026-05-01T13:21:07.001Z</time></trkpt><trkpt lat="45.65646607325825" lon="8.051706474087762"><ele>1340.75</ele><time>2026-05-01T13:21:08.001Z</time></trkpt><trkpt lat="45.65637998085005" lon="8.051595991129952"><ele>1341.0</ele><time>2026-05-01T13:21:09.001Z</time></trkpt><trkpt lat="45.65627065675593" lon="8.05144478921261"><ele>1341.0</ele><time>2026-05-01T13:21:10.001Z</time></trkpt><trkpt lat="45.656136857568924" lon="8.051248885015044"><ele>1341.0</ele><time>2026-05-01T13:21:11.001Z</time></trkpt><trkpt lat="45.655993067744824" lon="8.051037724321107"><ele>1341.0</ele><time>2026-05-01T13:21:12.001Z</time></trkpt><trkpt lat="45.65582559258103" lon="8.050790666223222"><ele>1336.3333333333333</ele><time>2026-05-01T13:21:13.001Z</time></trkpt><trkpt lat="45.65566925643899" lon="8.050560041761862"><ele>1331.6666666666665</ele><time>2026-05-01T13:21:14.001Z</time></trkpt><trkpt lat="45.65553813932115" lon="8.050367693904358"><ele>1327.0</ele><time>2026-05-01T13:21:15.001Z</time></trkpt><trkpt lat="45.65542337005721" lon="8.05019921542222"><ele>1327.0</ele><time>2026-05-01T13:21:16.001Z</time></trkpt><trkpt lat="45.655316069684545" lon="8.050039762922681"><ele>1327.0</ele><time>2026-05-01T13:21:17.001Z</time></trkpt><trkpt lat="45.65523075748673" lon="8.04990151187208"><ele>1327.0</ele><time>2026-05-01T13:21:18.001Z</time></trkpt><trkpt lat="45.65515298635895" lon="8.049749804708503"><ele>1327.0</ele><time>2026-05-01T13:21:19.001Z</time></trkpt><trkpt lat="45.655087504188685" lon="8.049576313511432"><ele>1322.6666666666665</ele><time>2026-05-01T13:21:20.001Z</time></trkpt><trkpt lat="45.655046976729025" lon="8.04940786572193"><ele>1318.3333333333333</ele><time>2026-05-01T13:21:21.001Z</time></trkpt><trkpt lat="45.65500379949773" lon="8.04920352541694"><ele>1314.0</ele><time>2026-05-01T13:21:22.001Z</time></trkpt><trkpt lat="45.65495158655562" lon="8.048961511938504"><ele>1314.0</ele><time>2026-05-01T13:21:23.001Z</time></trkpt><trkpt lat="45.654885482978216" lon="8.048730307094779"><ele>1314.0</ele><time>2026-05-01T13:21:24.001Z</time></trkpt><trkpt lat="45.65483930642947" lon="8.048522033730114"><ele>1314.0</ele><time>2026-05-01T13:21:25.001Z</time></trkpt><trkpt lat="45.65479260913173" lon="8.048315909012647"><ele>1315.0</ele><time>2026-05-01T13:21:26.001Z</time></trkpt><trkpt lat="45.65474677318504" lon="8.04810010345481"><ele>1316.0</ele><time>2026-05-01T13:21:27.001Z</time></trkpt><trkpt lat="45.65471080531073" lon="8.04786805663283"><ele>1317.0</ele><time>2026-05-01T13:21:28.001Z</time></trkpt><trkpt lat="45.654665089351724" lon="8.047661463175292"><ele>1318.5</ele><time>2026-05-01T13:21:29.001Z</time></trkpt><trkpt lat="45.654619027545266" lon="8.04745535366048"><ele>1320.0</ele><time>2026-05-01T13:21:30.001Z</time></trkpt><trkpt lat="45.654571771109765" lon="8.04724541796999"><ele>1321.5</ele><time>2026-05-01T13:21:31.001Z</time></trkpt><trkpt lat="45.65452957410667" lon="8.047059431685387"><ele>1323.0</ele><time>2026-05-01T13:21:32.001Z</time></trkpt><trkpt lat="45.65447159707574" lon="8.046886979178714"><ele>1322.5</ele><time>2026-05-01T13:21:33.001Z</time></trkpt><trkpt lat="45.65443471524823" lon="8.04672150004194"><ele>1322.0</ele><time>2026-05-01T13:21:34.001Z</time></trkpt><trkpt lat="45.654397570068774" lon="8.046570559456809"><ele>1321.5</ele><time>2026-05-01T13:21:35.001Z</time></trkpt><trkpt lat="45.65434645681499" lon="8.046425979415725"><ele>1321.0</ele><time>2026-05-01T13:21:36.001Z</time></trkpt><trkpt lat="45.654296473890355" lon="8.046289666235475"><ele>1321.0</ele><time>2026-05-01T13:21:37.001Z</time></trkpt><trkpt lat="45.65421627477219" lon="8.046188051545975"><ele>1321.0</ele><time>2026-05-01T13:21:38.001Z</time></trkpt><trkpt lat="45.65409559352623" lon="8.046140701608017"><ele>1321.0</ele><time>2026-05-01T13:21:39.001Z</time></trkpt><trkpt lat="45.653972658731625" lon="8.04609104821991"><ele>1321.0</ele><time>2026-05-01T13:21:40.001Z</time></trkpt><trkpt lat="45.65382351638125" lon="8.046075808532702"><ele>1321.0</ele><time>2026-05-01T13:21:41.001Z</time></trkpt><trkpt lat="45.653639229540985" lon="8.04607466035469"><ele>1321.0</ele><time>2026-05-01T13:21:42.001Z</time></trkpt><trkpt lat="45.65345067212272" lon="8.046074755502906"><ele>1321.0</ele><time>2026-05-01T13:21:43.001Z</time></trkpt><trkpt lat="45.65329466706186" lon="8.046067367804602"><ele>1318.1999999999998</ele><time>2026-05-01T13:21:44.001Z</time></trkpt><trkpt lat="45.65317886300426" lon="8.04605904411491"><ele>1315.3999999999999</ele><time>2026-05-01T13:21:45.001Z</time></trkpt><trkpt lat="45.65307865583993" lon="8.046043883719145"><ele>1312.6</ele><time>2026-05-01T13:21:46.001Z</time></trkpt><trkpt lat="45.65298600065333" lon="8.04600551140568"><ele>1309.8</ele><time>2026-05-01T13:21:47.001Z</time></trkpt><trkpt lat="45.65291169829359" lon="8.045909572506844"><ele>1307.0</ele><time>2026-05-01T13:21:48.001Z</time></trkpt><trkpt lat="45.65284123722025" lon="8.045807569224085"><ele>1306.0</ele><time>2026-05-01T13:21:49.001Z</time></trkpt><trkpt lat="45.652786872262745" lon="8.045659034395753"><ele>1305.0</ele><time>2026-05-01T13:21:50.001Z</time></trkpt><trkpt lat="45.65271594603926" lon="8.045476868925796"><ele>1304.0</ele><time>2026-05-01T13:21:51.001Z</time></trkpt><trkpt lat="45.6526355596204" lon="8.04531341369411"><ele>1303.0</ele><time>2026-05-01T13:21:52.001Z</time></trkpt><trkpt lat="45.65257586279932" lon="8.045186130265229"><ele>1303.0</ele><time>2026-05-01T13:21:53.001Z</time></trkpt><trkpt lat="45.6525030863547" lon="8.045089500485197"><ele>1303.0</ele><time>2026-05-01T13:21:54.001Z</time></trkpt><trkpt lat="45.65239282604751" lon="8.045013037888678"><ele>1303.0</ele><time>2026-05-01T13:21:55.001Z</time></trkpt><trkpt lat="45.65225015619294" lon="8.044949843020285"><ele>1303.0</ele><time>2026-05-01T13:21:56.001Z</time></trkpt><trkpt lat="45.6520960633361" lon="8.044847889829565"><ele>1301.5</ele><time>2026-05-01T13:21:57.001Z</time></trkpt><trkpt lat="45.65194711363917" lon="8.044764738582705"><ele>1300.0</ele><time>2026-05-01T13:21:58.001Z</time></trkpt><trkpt lat="45.651808628329704" lon="8.04468742912836"><ele>1298.5</ele><time>2026-05-01T13:21:59.001Z</time></trkpt><trkpt lat="45.65168281077973" lon="8.044616560710152"><ele>1297.0</ele><time>2026-05-01T13:22:00.001Z</time></trkpt><trkpt lat="45.651584123915256" lon="8.044553377254076"><ele>1297.0</ele><time>2026-05-01T13:22:01.001Z</time></trkpt><trkpt lat="45.65151089574982" lon="8.044485766957104"><ele>1297.0</ele><time>2026-05-01T13:22:02.001Z</time></trkpt><trkpt lat="45.65145431028135" lon="8.044384079141734"><ele>1297.0</ele><time>2026-05-01T13:22:03.001Z</time></trkpt><trkpt lat="45.651401613507254" lon="8.044259392495212"><ele>1297.0</ele><time>2026-05-01T13:22:04.001Z</time></trkpt><trkpt lat="45.65137266507674" lon="8.044111736025842"><ele>1297.0</ele><time>2026-05-01T13:22:05.001Z</time></trkpt><trkpt lat="45.651379709748" lon="8.043949255165845"><ele>1297.3333333333333</ele><time>2026-05-01T13:22:06.001Z</time></trkpt><trkpt lat="45.65140588107461" lon="8.043767170732442"><ele>1297.6666666666667</ele><time>2026-05-01T13:22:07.001Z</time></trkpt><trkpt lat="45.651435292292355" lon="8.043537485200007"><ele>1298.0</ele><time>2026-05-01T13:22:08.001Z</time></trkpt><trkpt lat="45.65145201179423" lon="8.043282735916756"><ele>1295.5</ele><time>2026-05-01T13:22:09.001Z</time></trkpt><trkpt lat="45.65148215041687" lon="8.043062152818743"><ele>1293.0</ele><time>2026-05-01T13:22:10.001Z</time></trkpt><trkpt lat="45.651528897988335" lon="8.042878032986824"><ele>1290.5</ele><time>2026-05-01T13:22:11.001Z</time></trkpt><trkpt lat="45.651554107480955" lon="8.042707085536435"><ele>1288.0</ele><time>2026-05-01T13:22:12.001Z</time></trkpt><trkpt lat="45.65161466413736" lon="8.042544527960082"><ele>1290.0</ele><time>2026-05-01T13:22:13.001Z</time></trkpt><trkpt lat="45.65171646412099" lon="8.042399988318985"><ele>1292.0</ele><time>2026-05-01T13:22:14.001Z</time></trkpt><trkpt lat="45.6518340731048" lon="8.042218823036727"><ele>1294.0</ele><time>2026-05-01T13:22:15.001Z</time></trkpt><trkpt lat="45.65197109561314" lon="8.042025600127195"><ele>1294.0</ele><time>2026-05-01T13:22:16.001Z</time></trkpt><trkpt lat="45.652101050611996" lon="8.041794354003114"><ele>1294.0</ele><time>2026-05-01T13:22:17.001Z</time></trkpt><trkpt lat="45.652231078429004" lon="8.041587809435306"><ele>1294.0</ele><time>2026-05-01T13:22:18.002Z</time></trkpt><trkpt lat="45.65234720331844" lon="8.041389146472792"><ele>1289.0</ele><time>2026-05-01T13:22:19.002Z</time></trkpt><trkpt lat="45.6524672668032" lon="8.041186205908136"><ele>1284.0</ele><time>2026-05-01T13:22:20.002Z</time></trkpt><trkpt lat="45.652583853505234" lon="8.041006323663263"><ele>1279.0</ele><time>2026-05-01T13:22:21.002Z</time></trkpt><trkpt lat="45.65270471241295" lon="8.040840938594913"><ele>1281.6666666666665</ele><time>2026-05-01T13:22:22.002Z</time></trkpt><trkpt lat="45.65283885314927" lon="8.040692012144744"><ele>1284.3333333333333</ele><time>2026-05-01T13:22:23.002Z</time></trkpt><trkpt lat="45.65296461625388" lon="8.04054949557625"><ele>1287.0</ele><time>2026-05-01T13:22:24.002Z</time></trkpt><trkpt lat="45.653063360607234" lon="8.040406724328951"><ele>1287.0</ele><time>2026-05-01T13:22:25.002Z</time></trkpt><trkpt lat="45.653155418119205" lon="8.040290464039252"><ele>1287.0</ele><time>2026-05-01T13:22:26.002Z</time></trkpt><trkpt lat="45.65322816034243" lon="8.040140248243363"><ele>1287.0</ele><time>2026-05-01T13:22:27.002Z</time></trkpt><trkpt lat="45.65329375023661" lon="8.039949669871394"><ele>1287.0</ele><time>2026-05-01T13:22:28.002Z</time></trkpt><trkpt lat="45.65332620023029" lon="8.03972229743751"><ele>1282.3333333333333</ele><time>2026-05-01T13:22:29.001Z</time></trkpt><trkpt lat="45.653370661988866" lon="8.039460988324215"><ele>1277.6666666666665</ele><time>2026-05-01T13:22:30.001Z</time></trkpt><trkpt lat="45.653431448979845" lon="8.039185902931724"><ele>1273.0</ele><time>2026-05-01T13:22:31.001Z</time></trkpt><trkpt lat="45.65346461581952" lon="8.038872425536768"><ele>1270.0</ele><time>2026-05-01T13:22:32.001Z</time></trkpt><trkpt lat="45.653515633263076" lon="8.038566742830858"><ele>1267.0</ele><time>2026-05-01T13:22:33.001Z</time></trkpt><trkpt lat="45.6535550896828" lon="8.038308061643216"><ele>1264.0</ele><time>2026-05-01T13:22:34.001Z</time></trkpt><trkpt lat="45.65358735723026" lon="8.038100621312248"><ele>1262.2</ele><time>2026-05-01T13:22:35.001Z</time></trkpt><trkpt lat="45.653626699683265" lon="8.037957518570664"><ele>1260.4</ele><time>2026-05-01T13:22:36.001Z</time></trkpt><trkpt lat="45.65364530494056" lon="8.037807194743754"><ele>1258.6</ele><time>2026-05-01T13:22:37.001Z</time></trkpt><trkpt lat="45.65363839780929" lon="8.03765639987665"><ele>1256.8</ele><time>2026-05-01T13:22:38.001Z</time></trkpt><trkpt lat="45.65362331861374" lon="8.037501820884492"><ele>1255.0</ele><time>2026-05-01T13:22:39.001Z</time></trkpt><trkpt lat="45.65358089141411" lon="8.037340453477153"><ele>1255.0</ele><time>2026-05-01T13:22:40.001Z</time></trkpt><trkpt lat="45.653513848726504" lon="8.037161343618811"><ele>1255.0</ele><time>2026-05-01T13:22:41.001Z</time></trkpt><trkpt lat="45.65347406249151" lon="8.036984741622394"><ele>1255.0</ele><time>2026-05-01T13:22:42.001Z</time></trkpt><trkpt lat="45.65344290927239" lon="8.03686518640435"><ele>1255.0</ele><time>2026-05-01T13:22:43.001Z</time></trkpt><trkpt lat="45.6534314204697" lon="8.036755606266041"><ele>1255.0</ele><time>2026-05-01T13:22:44.001Z</time></trkpt><trkpt lat="45.653420931312674" lon="8.03662598149649"><ele>1254.0</ele><time>2026-05-01T13:22:45.001Z</time></trkpt><trkpt lat="45.65349500762661" lon="8.036519104935254"><ele>1253.0</ele><time>2026-05-01T13:22:46.001Z</time></trkpt><trkpt lat="45.65354688045318" lon="8.036393637962433"><ele>1252.0</ele><time>2026-05-01T13:22:47.001Z</time></trkpt><trkpt lat="45.65364440384299" lon="8.036335713224668"><ele>1251.0</ele><time>2026-05-01T13:22:48.001Z</time></trkpt><trkpt lat="45.653756204585946" lon="8.036317000888957"><ele>1250.0</ele><time>2026-05-01T13:22:49.001Z</time></trkpt><trkpt lat="45.65390085944453" lon="8.036323567986148"><ele>1250.0</ele><time>2026-05-01T13:22:50.001Z</time></trkpt><trkpt lat="45.65408987404797" lon="8.03632674794521"><ele>1250.0</ele><time>2026-05-01T13:22:51.001Z</time></trkpt><trkpt lat="45.654303198880235" lon="8.0363243029397"><ele>1250.0</ele><time>2026-05-01T13:22:52.001Z</time></trkpt><trkpt lat="45.65453434842795" lon="8.036321911645807"><ele>1246.5</ele><time>2026-05-01T13:22:53.001Z</time></trkpt><trkpt lat="45.65478402547817" lon="8.036328139679245"><ele>1243.0</ele><time>2026-05-01T13:22:54.001Z</time></trkpt><trkpt lat="45.65502652886531" lon="8.036342252777356"><ele>1243.0</ele><time>2026-05-01T13:22:55.001Z</time></trkpt><trkpt lat="45.6552380130832" lon="8.036350815164663"><ele>1243.0</ele><time>2026-05-01T13:22:56.001Z</time></trkpt><trkpt lat="45.65543257984296" lon="8.036355681133765"><ele>1243.0</ele><time>2026-05-01T13:22:57.001Z</time></trkpt><trkpt lat="45.65561466113202" lon="8.036359672307794"><ele>1242.5</ele><time>2026-05-01T13:22:58.001Z</time></trkpt><trkpt lat="45.65578032103892" lon="8.036364239209133"><ele>1242.0</ele><time>2026-05-01T13:22:59.001Z</time></trkpt><trkpt lat="45.65592962032571" lon="8.036376097425805"><ele>1241.5</ele><time>2026-05-01T13:23:00.001Z</time></trkpt><trkpt lat="45.65605536427275" lon="8.036394046767024"><ele>1241.0</ele><time>2026-05-01T13:23:01.001Z</time></trkpt><trkpt lat="45.6561760280213" lon="8.036403746398392"><ele>1242.8</ele><time>2026-05-01T13:23:02.001Z</time></trkpt><trkpt lat="45.65628213714246" lon="8.036398925620507"><ele>1244.6</ele><time>2026-05-01T13:23:03.001Z</time></trkpt><trkpt lat="45.656378132760096" lon="8.03637265486794"><ele>1246.4</ele><time>2026-05-01T13:23:04.001Z</time></trkpt><trkpt lat="45.6564463936302" lon="8.036313352431916"><ele>1248.2</ele><time>2026-05-01T13:23:05.001Z</time></trkpt><trkpt lat="45.656511431944445" lon="8.036235112697119"><ele>1250.0</ele><time>2026-05-01T13:23:06.001Z</time></trkpt><trkpt lat="45.65655305522846" lon="8.036126063622872"><ele>1250.0</ele><time>2026-05-01T13:23:07.001Z</time></trkpt><trkpt lat="45.65658031940061" lon="8.03597817628706"><ele>1250.0</ele><time>2026-05-01T13:23:08.001Z</time></trkpt><trkpt lat="45.65659114929277" lon="8.035804103371538"><ele>1250.0</ele><time>2026-05-01T13:23:09.001Z</time></trkpt><trkpt lat="45.656592065004915" lon="8.035589031093403"><ele>1250.0</ele><time>2026-05-01T13:23:10.001Z</time></trkpt><trkpt lat="45.65661562419063" lon="8.035335161378383"><ele>1246.0</ele><time>2026-05-01T13:23:11.001Z</time></trkpt><trkpt lat="45.656629040870165" lon="8.035069296797658"><ele>1242.0</ele><time>2026-05-01T13:23:12.001Z</time></trkpt><trkpt lat="45.65664481108323" lon="8.034844729335289"><ele>1238.0</ele><time>2026-05-01T13:23:13.001Z</time></trkpt><trkpt lat="45.656668491191674" lon="8.034677138673281"><ele>1237.0</ele><time>2026-05-01T13:23:14.001Z</time></trkpt><trkpt lat="45.65670369596762" lon="8.034564815050512"><ele>1236.0</ele><time>2026-05-01T13:23:15.001Z</time></trkpt><trkpt lat="45.65675609305634" lon="8.034462144118866"><ele>1235.0</ele><time>2026-05-01T13:23:16.001Z</time></trkpt><trkpt lat="45.656823288277344" lon="8.034355857277152"><ele>1234.0</ele><time>2026-05-01T13:23:17.001Z</time></trkpt><trkpt lat="45.65692836986072" lon="8.034245809659511"><ele>1233.0</ele><time>2026-05-01T13:23:18.001Z</time></trkpt><trkpt lat="45.65706489064917" lon="8.0341051832523"><ele>1233.0</ele><time>2026-05-01T13:23:19.001Z</time></trkpt><trkpt lat="45.657219357585475" lon="8.033936132099834"><ele>1233.0</ele><time>2026-05-01T13:23:20.001Z</time></trkpt><trkpt lat="45.657378984153446" lon="8.033761378167537"><ele>1233.0</ele><time>2026-05-01T13:23:21Z</time></trkpt><trkpt lat="45.65751847743586" lon="8.033608661857407"><ele>1233.0</ele><time>2026-05-01T13:23:22Z</time></trkpt><trkpt lat="45.65764151830123" lon="8.033473957544231"><ele>1233.0</ele><time>2026-05-01T13:23:23Z</time></trkpt><trkpt lat="45.65774718605684" lon="8.033317500584488"><ele>1233.0</ele><time>2026-05-01T13:23:24Z</time></trkpt><trkpt lat="45.65787269055799" lon="8.033183100989246"><ele>1232.0</ele><time>2026-05-01T13:23:25Z</time></trkpt><trkpt lat="45.65800211571984" lon="8.03304285069296"><ele>1231.0</ele><time>2026-05-01T13:23:26Z</time></trkpt><trkpt lat="45.65812384904574" lon="8.032913129381358"><ele>1230.0</ele><time>2026-05-01T13:23:27Z</time></trkpt><trkpt lat="45.65823318763551" lon="8.032795868885158"><ele>1230.0</ele><time>2026-05-01T13:23:28Z</time></trkpt><trkpt lat="45.65833954008888" lon="8.032674383758312"><ele>1230.0</ele><time>2026-05-01T13:23:29Z</time></trkpt><trkpt lat="45.658458422477786" lon="8.032545866468727"><ele>1230.0</ele><time>2026-05-01T13:23:30Z</time></trkpt><trkpt lat="45.65857678967874" lon="8.032420843004878"><ele>1230.0</ele><time>2026-05-01T13:23:31Z</time></trkpt><trkpt lat="45.65868442810137" lon="8.032300608269024"><ele>1226.75</ele><time>2026-05-01T13:23:32Z</time></trkpt><trkpt lat="45.6587856662977" lon="8.032190183665865"><ele>1223.5</ele><time>2026-05-01T13:23:33Z</time></trkpt><trkpt lat="45.65888936080566" lon="8.032100433853296"><ele>1220.25</ele><time>2026-05-01T13:23:34Z</time></trkpt><trkpt lat="45.65899332483244" lon="8.032029622021664"><ele>1217.0</ele><time>2026-05-01T13:23:35Z</time></trkpt><trkpt lat="45.659115816226794" lon="8.031978672981424"><ele>1217.0</ele><time>2026-05-01T13:23:36Z</time></trkpt><trkpt lat="45.65924739949493" lon="8.031956465442057"><ele>1217.0</ele><time>2026-05-01T13:23:37Z</time></trkpt><trkpt lat="45.659393822471976" lon="8.031954223043268"><ele>1217.0</ele><time>2026-05-01T13:23:38Z</time></trkpt><trkpt lat="45.659562930669665" lon="8.03197706283791"><ele>1217.0</ele><time>2026-05-01T13:23:39Z</time></trkpt><trkpt lat="45.65972827618541" lon="8.03199523468571"><ele>1216.5</ele><time>2026-05-01T13:23:40Z</time></trkpt><trkpt lat="45.65987681363941" lon="8.032010106070606"><ele>1216.0</ele><time>2026-05-01T13:23:41Z</time></trkpt><trkpt lat="45.66001916939022" lon="8.032022564415646"><ele>1215.5</ele><time>2026-05-01T13:23:42Z</time></trkpt><trkpt lat="45.66015417769559" lon="8.032022038388332"><ele>1215.0</ele><time>2026-05-01T13:23:43Z</time></trkpt><trkpt lat="45.66028463936845" lon="8.032015704728105"><ele>1216.2</ele><time>2026-05-01T13:23:44Z</time></trkpt><trkpt lat="45.66039579589052" lon="8.031990409279318"><ele>1217.4</ele><time>2026-05-01T13:23:45Z</time></trkpt><trkpt lat="45.66049851675821" lon="8.03193985492636"><ele>1218.6</ele><time>2026-05-01T13:23:46Z</time></trkpt><trkpt lat="45.660589321624336" lon="8.031872159260125"><ele>1219.8</ele><time>2026-05-01T13:23:47Z</time></trkpt><trkpt lat="45.6606725854818" lon="8.03177839675588"><ele>1221.0</ele><time>2026-05-01T13:23:48Z</time></trkpt><trkpt lat="45.66075521587668" lon="8.03165920144607"><ele>1217.75</ele><time>2026-05-01T13:23:49Z</time></trkpt><trkpt lat="45.660837050814514" lon="8.031523132930081"><ele>1214.5</ele><time>2026-05-01T13:23:50Z</time></trkpt><trkpt lat="45.660892487484894" lon="8.031372983176421"><ele>1211.25</ele><time>2026-05-01T13:23:51Z</time></trkpt><trkpt lat="45.66093680667945" lon="8.031208368734267"><ele>1208.0</ele><time>2026-05-01T13:23:52Z</time></trkpt><trkpt lat="45.660968399138646" lon="8.031051332571339"><ele>1208.0</ele><time>2026-05-01T13:23:53Z</time></trkpt><trkpt lat="45.661003143346214" lon="8.030913391483555"><ele>1208.0</ele><time>2026-05-01T13:23:54Z</time></trkpt><trkpt lat="45.661057997647845" lon="8.030795718058053"><ele>1208.0</ele><time>2026-05-01T13:23:55Z</time></trkpt><trkpt lat="45.6611333103364" lon="8.030700746364435"><ele>1208.0</ele><time>2026-05-01T13:23:56Z</time></trkpt><trkpt lat="45.66122819297635" lon="8.030649594365714"><ele>1208.0</ele><time>2026-05-01T13:23:57Z</time></trkpt><trkpt lat="45.66133536890811" lon="8.030648665094127"><ele>1209.0</ele><time>2026-05-01T13:23:58Z</time></trkpt><trkpt lat="45.66145406639221" lon="8.030685675987115"><ele>1210.0</ele><time>2026-05-01T13:23:59Z</time></trkpt><trkpt lat="45.66159292579072" lon="8.030744160638674"><ele>1211.0</ele><time>2026-05-01T13:24:00Z</time></trkpt><trkpt lat="45.661735659246304" lon="8.030804994656776"><ele>1212.0</ele><time>2026-05-01T13:24:01Z</time></trkpt><trkpt lat="45.66186073471933" lon="8.03085061181684"><ele>1211.8</ele><time>2026-05-01T13:24:02Z</time></trkpt><trkpt lat="45.66196760740582" lon="8.030880455960984"><ele>1211.6</ele><time>2026-05-01T13:24:03Z</time></trkpt><trkpt lat="45.66206558526502" lon="8.030893876934144"><ele>1211.3999999999999</ele><time>2026-05-01T13:24:04Z</time></trkpt><trkpt lat="45.662155705905256" lon="8.030879960686082"><ele>1211.2</ele><time>2026-05-01T13:24:05Z</time></trkpt><trkpt lat="45.662230301436956" lon="8.030825848429695"><ele>1211.0</ele><time>2026-05-01T13:24:06Z</time></trkpt><trkpt lat="45.66229782456797" lon="8.030745431917683"><ele>1211.0</ele><time>2026-05-01T13:24:07Z</time></trkpt><trkpt lat="45.66235829882042" lon="8.030624758375883"><ele>1211.0</ele><time>2026-05-01T13:24:08Z</time></trkpt><trkpt lat="45.6624067836944" lon="8.030477080724497"><ele>1211.0</ele><time>2026-05-01T13:24:09Z</time></trkpt><trkpt lat="45.66243334305202" lon="8.030318260444512"><ele>1211.0</ele><time>2026-05-01T13:24:10Z</time></trkpt><trkpt lat="45.662428719793425" lon="8.030159344879932"><ele>1211.0</ele><time>2026-05-01T13:24:11Z</time></trkpt><trkpt lat="45.66240649601831" lon="8.029940940440966"><ele>1212.3333333333335</ele><time>2026-05-01T13:24:12Z</time></trkpt><trkpt lat="45.66238577594875" lon="8.029669764300019"><ele>1213.6666666666667</ele><time>2026-05-01T13:24:13Z</time></trkpt><trkpt lat="45.66237258314904" lon="8.02939411260689"><ele>1215.0</ele><time>2026-05-01T13:24:14Z</time></trkpt><trkpt lat="45.6623651253088" lon="8.029160647819737"><ele>1215.75</ele><time>2026-05-01T13:24:15Z</time></trkpt><trkpt lat="45.66235609226406" lon="8.02894731414429"><ele>1216.5</ele><time>2026-05-01T13:24:16Z</time></trkpt><trkpt lat="45.66233637551497" lon="8.028755874537456"><ele>1217.25</ele><time>2026-05-01T13:24:17Z</time></trkpt><trkpt lat="45.662303490762405" lon="8.028570284606737"><ele>1218.0</ele><time>2026-05-01T13:24:18Z</time></trkpt><trkpt lat="45.6622552052459" lon="8.028391794234064"><ele>1215.0</ele><time>2026-05-01T13:24:19Z</time></trkpt><trkpt lat="45.66221527899293" lon="8.028231149681243"><ele>1212.0</ele><time>2026-05-01T13:24:20Z</time></trkpt><trkpt lat="45.66218795341957" lon="8.028087331892795"><ele>1209.0</ele><time>2026-05-01T13:24:21Z</time></trkpt><trkpt lat="45.66217735638883" lon="8.027954452632963"><ele>1206.0</ele><time>2026-05-01T13:24:22Z</time></trkpt><trkpt lat="45.66218697576963" lon="8.027821256380623"><ele>1203.0</ele><time>2026-05-01T13:24:23Z</time></trkpt><trkpt lat="45.66221828586037" lon="8.027688020577157"><ele>1203.0</ele><time>2026-05-01T13:24:24.001Z</time></trkpt><trkpt lat="45.66226495054111" lon="8.027574082305817"><ele>1203.0</ele><time>2026-05-01T13:24:25.001Z</time></trkpt><trkpt lat="45.66233180961991" lon="8.027485878794414"><ele>1203.0</ele><time>2026-05-01T13:24:26.001Z</time></trkpt><trkpt lat="45.662409549037676" lon="8.027446207134835"><ele>1203.0</ele><time>2026-05-01T13:24:27.001Z</time></trkpt><trkpt lat="45.66250878533843" lon="8.027435593828269"><ele>1203.0</ele><time>2026-05-01T13:24:28.001Z</time></trkpt><trkpt lat="45.66263471522981" lon="8.027410468724554"><ele>1196.75</ele><time>2026-05-01T13:24:29.001Z</time></trkpt><trkpt lat="45.66277950703273" lon="8.027373953637614"><ele>1190.5</ele><time>2026-05-01T13:24:30.001Z</time></trkpt><trkpt lat="45.6629161813727" lon="8.027333375674967"><ele>1184.25</ele><time>2026-05-01T13:24:31.001Z</time></trkpt><trkpt lat="45.66305298406764" lon="8.0272830966644"><ele>1178.0</ele><time>2026-05-01T13:24:32.001Z</time></trkpt><trkpt lat="45.66321129963847" lon="8.027236103356294"><ele>1178.0</ele><time>2026-05-01T13:24:33.001Z</time></trkpt><trkpt lat="45.66336199237322" lon="8.02719208856775"><ele>1178.0</ele><time>2026-05-01T13:24:34.001Z</time></trkpt><trkpt lat="45.66351744078594" lon="8.027147139061798"><ele>1178.0</ele><time>2026-05-01T13:24:35.001Z</time></trkpt><trkpt lat="45.663682957866826" lon="8.027099739072142"><ele>1180.6666666666667</ele><time>2026-05-01T13:24:36.001Z</time></trkpt><trkpt lat="45.663841491402295" lon="8.027050504371646"><ele>1183.3333333333333</ele><time>2026-05-01T13:24:37.001Z</time></trkpt><trkpt lat="45.66399045175867" lon="8.027017028524183"><ele>1186.0</ele><time>2026-05-01T13:24:38.001Z</time></trkpt><trkpt lat="45.664140055619534" lon="8.026981351126722"><ele>1186.0</ele><time>2026-05-01T13:24:39.001Z</time></trkpt><trkpt lat="45.664294068470916" lon="8.02695685772851"><ele>1186.0</ele><time>2026-05-01T13:24:40.001Z</time></trkpt><trkpt lat="45.66445323304643" lon="8.026935046372213"><ele>1186.0</ele><time>2026-05-01T13:24:41.001Z</time></trkpt><trkpt lat="45.66460769512097" lon="8.02690729008467"><ele>1189.0</ele><time>2026-05-01T13:24:42.001Z</time></trkpt><trkpt lat="45.66474740873183" lon="8.02686412217342"><ele>1192.0</ele><time>2026-05-01T13:24:43.001Z</time></trkpt><trkpt lat="45.66489421077126" lon="8.026801414473516"><ele>1195.0</ele><time>2026-05-01T13:24:44.001Z</time></trkpt><trkpt lat="45.66504633406784" lon="8.026716317130642"><ele>1195.0</ele><time>2026-05-01T13:24:45.001Z</time></trkpt><trkpt lat="45.66518526459861" lon="8.026661556013247"><ele>1195.0</ele><time>2026-05-01T13:24:46.001Z</time></trkpt><trkpt lat="45.66530181496225" lon="8.026609821690469"><ele>1195.0</ele><time>2026-05-01T13:24:47.001Z</time></trkpt><trkpt lat="45.66539617992446" lon="8.026562675623076"><ele>1195.0</ele><time>2026-05-01T13:24:48.001Z</time></trkpt><trkpt lat="45.66547432757135" lon="8.02650227504167"><ele>1195.6</ele><time>2026-05-01T13:24:49.001Z</time></trkpt><trkpt lat="45.66553659041915" lon="8.02641292182285"><ele>1196.2</ele><time>2026-05-01T13:24:50.001Z</time></trkpt><trkpt lat="45.66559397468381" lon="8.026292140384157"><ele>1196.8</ele><time>2026-05-01T13:24:51.001Z</time></trkpt><trkpt lat="45.665634960249626" lon="8.026151418344035"><ele>1197.4</ele><time>2026-05-01T13:24:52.001Z</time></trkpt><trkpt lat="45.665663316057014" lon="8.02600220813225"><ele>1198.0</ele><time>2026-05-01T13:24:53.001Z</time></trkpt><trkpt lat="45.665665237276585" lon="8.025847581306952"><ele>1194.6</ele><time>2026-05-01T13:24:54.001Z</time></trkpt><trkpt lat="45.66566359167777" lon="8.025688877427706"><ele>1191.1999999999998</ele><time>2026-05-01T13:24:55.001Z</time></trkpt><trkpt lat="45.66568067886853" lon="8.025543477730405"><ele>1187.8</ele><time>2026-05-01T13:24:56.001Z</time></trkpt><trkpt lat="45.66572154030237" lon="8.025404300989418"><ele>1184.3999999999999</ele><time>2026-05-01T13:24:57.001Z</time></trkpt><trkpt lat="45.66578346851152" lon="8.025272785825031"><ele>1181.0</ele><time>2026-05-01T13:24:58Z</time></trkpt><trkpt lat="45.66587247165934" lon="8.02512719277026"><ele>1181.0</ele><time>2026-05-01T13:24:59Z</time></trkpt><trkpt lat="45.66596758913192" lon="8.024980645623389"><ele>1181.0</ele><time>2026-05-01T13:25:00Z</time></trkpt><trkpt lat="45.666043935913656" lon="8.02485061296751"><ele>1181.0</ele><time>2026-05-01T13:25:01Z</time></trkpt><trkpt lat="45.666101831067195" lon="8.024729107164612"><ele>1181.0</ele><time>2026-05-01T13:25:02Z</time></trkpt><trkpt lat="45.66613704524691" lon="8.024611860119482"><ele>1182.3999999999999</ele><time>2026-05-01T13:25:03Z</time></trkpt><trkpt lat="45.666145826438765" lon="8.024489686838658"><ele>1183.8</ele><time>2026-05-01T13:25:04Z</time></trkpt><trkpt lat="45.66613808227454" lon="8.024351293426177"><ele>1185.1999999999998</ele><time>2026-05-01T13:25:05Z</time></trkpt><trkpt lat="45.66610937729224" lon="8.024230006596863"><ele>1186.6</ele><time>2026-05-01T13:25:06Z</time></trkpt><trkpt lat="45.66605562684018" lon="8.024125351938027"><ele>1188.0</ele><time>2026-05-01T13:25:07Z</time></trkpt><trkpt lat="45.66597866265679" lon="8.024032316650453"><ele>1198.0</ele><time>2026-05-01T13:25:08Z</time></trkpt><trkpt lat="45.66589086911894" lon="8.023963866932775"><ele>1208.0</ele><time>2026-05-01T13:25:09Z</time></trkpt><trkpt lat="45.66578257339308" lon="8.023934337561002"><ele>1218.0</ele><time>2026-05-01T13:25:10Z</time></trkpt><trkpt lat="45.66566266745316" lon="8.023936925712999"><ele>1228.0</ele><time>2026-05-01T13:25:11Z</time></trkpt><trkpt lat="45.66549772638065" lon="8.023945650309559"><ele>1228.0</ele><time>2026-05-01T13:25:12Z</time></trkpt><trkpt lat="45.66530312562068" lon="8.023944823926861"><ele>1228.0</ele><time>2026-05-01T13:25:13Z</time></trkpt><trkpt lat="45.66509471474355" lon="8.02394411448221"><ele>1228.0</ele><time>2026-05-01T13:25:14Z</time></trkpt><trkpt lat="45.6648829406694" lon="8.02393480276256"><ele>1222.6666666666665</ele><time>2026-05-01T13:25:15Z</time></trkpt><trkpt lat="45.66469695944132" lon="8.023940091820538"><ele>1217.3333333333333</ele><time>2026-05-01T13:25:16Z</time></trkpt><trkpt lat="45.66455136339563" lon="8.023928720605063"><ele>1212.0</ele><time>2026-05-01T13:25:17Z</time></trkpt><trkpt lat="45.66441379830794" lon="8.023905159739746"><ele>1205.4</ele><time>2026-05-01T13:25:18Z</time></trkpt><trkpt lat="45.664277685232456" lon="8.023870777780244"><ele>1198.8000000000002</ele><time>2026-05-01T13:25:19Z</time></trkpt><trkpt lat="45.66416348699778" lon="8.023832493470183"><ele>1192.2</ele><time>2026-05-01T13:25:20Z</time></trkpt><trkpt lat="45.66407955646607" lon="8.023788970569338"><ele>1185.6000000000001</ele><time>2026-05-01T13:25:21Z</time></trkpt><trkpt lat="45.664006916586715" lon="8.02373219710176"><ele>1179.0</ele><time>2026-05-01T13:25:22Z</time></trkpt><trkpt lat="45.663959547139726" lon="8.023645681843735"><ele>1179.0</ele><time>2026-05-01T13:25:23Z</time></trkpt><trkpt lat="45.66396007471205" lon="8.023512377466092"><ele>1179.0</ele><time>2026-05-01T13:25:24Z</time></trkpt><trkpt lat="45.66396326831711" lon="8.02338417433313"><ele>1179.0</ele><time>2026-05-01T13:25:25Z</time></trkpt><trkpt lat="45.664008311559186" lon="8.023275240265274"><ele>1179.0</ele><time>2026-05-01T13:25:26Z</time></trkpt><trkpt lat="45.66406640664007" lon="8.023132799036983"><ele>1179.0</ele><time>2026-05-01T13:25:27Z</time></trkpt><trkpt lat="45.66412474736268" lon="8.0229572078352"><ele>1180.2</ele><time>2026-05-01T13:25:28Z</time></trkpt><trkpt lat="45.6641791103987" lon="8.022801751366872"><ele>1181.4</ele><time>2026-05-01T13:25:29Z</time></trkpt><trkpt lat="45.66419947685508" lon="8.022666552117517"><ele>1182.6</ele><time>2026-05-01T13:25:30Z</time></trkpt><trkpt lat="45.66419306865606" lon="8.022542503563276"><ele>1183.8</ele><time>2026-05-01T13:25:31Z</time></trkpt><trkpt lat="45.66417318345218" lon="8.022415292123204"><ele>1185.0</ele><time>2026-05-01T13:25:32Z</time></trkpt><trkpt lat="45.66410493624402" lon="8.022305805369612"><ele>1186.25</ele><time>2026-05-01T13:25:33Z</time></trkpt><trkpt lat="45.664004974937335" lon="8.02223703635035"><ele>1187.5</ele><time>2026-05-01T13:25:34Z</time></trkpt><trkpt lat="45.66388834968003" lon="8.022171680142625"><ele>1188.75</ele><time>2026-05-01T13:25:35Z</time></trkpt><trkpt lat="45.66373826958442" lon="8.022124877758703"><ele>1190.0</ele><time>2026-05-01T13:25:36Z</time></trkpt><trkpt lat="45.66356660645796" lon="8.022075333606113"><ele>1190.0</ele><time>2026-05-01T13:25:37Z</time></trkpt><trkpt lat="45.663411386864595" lon="8.02201241635158"><ele>1190.0</ele><time>2026-05-01T13:25:38Z</time></trkpt><trkpt lat="45.6632583669052" lon="8.022018450828375"><ele>1190.0</ele><time>2026-05-01T13:25:39Z</time></trkpt><trkpt lat="45.663092161344984" lon="8.022024675832869"><ele>1190.0</ele><time>2026-05-01T13:25:40Z</time></trkpt><trkpt lat="45.66294161739767" lon="8.02203407379531"><ele>1190.0</ele><time>2026-05-01T13:25:41Z</time></trkpt><trkpt lat="45.66281325927496" lon="8.02201832229214"><ele>1190.0</ele><time>2026-05-01T13:25:42Z</time></trkpt><trkpt lat="45.66269514555126" lon="8.021983686000253"><ele>1190.0</ele><time>2026-05-01T13:25:43Z</time></trkpt><trkpt lat="45.662584117369924" lon="8.021880091364606"><ele>1187.8</ele><time>2026-05-01T13:25:44Z</time></trkpt><trkpt lat="45.66246601661691" lon="8.021798354555958"><ele>1185.6</ele><time>2026-05-01T13:25:45Z</time></trkpt><trkpt lat="45.66236403545572" lon="8.021764959255476"><ele>1183.4</ele><time>2026-05-01T13:25:46Z</time></trkpt><trkpt lat="45.66226996370681" lon="8.021757798951667"><ele>1181.2</ele><time>2026-05-01T13:25:47Z</time></trkpt><trkpt lat="45.662166789069026" lon="8.021791545270432"><ele>1179.0</ele><time>2026-05-01T13:25:48Z</time></trkpt><trkpt lat="45.662050601559294" lon="8.02185918090182"><ele>1176.5</ele><time>2026-05-01T13:25:49Z</time></trkpt><trkpt lat="45.6619171697032" lon="8.021890100341965"><ele>1174.0</ele><time>2026-05-01T13:25:50Z</time></trkpt><trkpt lat="45.661778016693475" lon="8.021891944647532"><ele>1171.5</ele><time>2026-05-01T13:25:51Z</time></trkpt><trkpt lat="45.66162085220216" lon="8.021885063004248"><ele>1169.0</ele><time>2026-05-01T13:25:52Z</time></trkpt><trkpt lat="45.66148502875572" lon="8.021874603075432"><ele>1169.0</ele><time>2026-05-01T13:25:53Z</time></trkpt><trkpt lat="45.66136708593004" lon="8.021856233950428"><ele>1169.0</ele><time>2026-05-01T13:25:54Z</time></trkpt><trkpt lat="45.66125246701698" lon="8.021815510617795"><ele>1169.0</ele><time>2026-05-01T13:25:55Z</time></trkpt><trkpt lat="45.661132413708444" lon="8.02175515927353"><ele>1169.0</ele><time>2026-05-01T13:25:56Z</time></trkpt><trkpt lat="45.66101906729825" lon="8.021676036156848"><ele>1174.0</ele><time>2026-05-01T13:25:57Z</time></trkpt><trkpt lat="45.66090214217033" lon="8.021580455514378"><ele>1179.0</ele><time>2026-05-01T13:25:58Z</time></trkpt><trkpt lat="45.66078339789894" lon="8.02148317803025"><ele>1184.0</ele><time>2026-05-01T13:25:59Z</time></trkpt><trkpt lat="45.66066707780823" lon="8.021392157939491"><ele>1189.0</ele><time>2026-05-01T13:26:00Z</time></trkpt><trkpt lat="45.66056324656049" lon="8.021330509487235"><ele>1189.0</ele><time>2026-05-01T13:26:01Z</time></trkpt><trkpt lat="45.66046219820834" lon="8.021315515851677"><ele>1189.0</ele><time>2026-05-01T13:26:02Z</time></trkpt><trkpt lat="45.660357945662156" lon="8.021362652322273"><ele>1189.0</ele><time>2026-05-01T13:26:03Z</time></trkpt><trkpt lat="45.660214668084805" lon="8.021403077836121"><ele>1189.0</ele><time>2026-05-01T13:26:04Z</time></trkpt><trkpt lat="45.660074461230764" lon="8.021454678284236"><ele>1186.25</ele><time>2026-05-01T13:26:05Z</time></trkpt><trkpt lat="45.65994339705006" lon="8.021484287057023"><ele>1183.5</ele><time>2026-05-01T13:26:06Z</time></trkpt><trkpt lat="45.65980947091557" lon="8.021501640291714"><ele>1180.75</ele><time>2026-05-01T13:26:07Z</time></trkpt><trkpt lat="45.659682803107025" lon="8.02152439236288"><ele>1178.0</ele><time>2026-05-01T13:26:08Z</time></trkpt><trkpt lat="45.659575561528065" lon="8.021539959637604"><ele>1178.0</ele><time>2026-05-01T13:26:09Z</time></trkpt><trkpt lat="45.659472085742124" lon="8.021540966291223"><ele>1178.0</ele><time>2026-05-01T13:26:10Z</time></trkpt><trkpt lat="45.65936622015779" lon="8.021508343167303"><ele>1178.0</ele><time>2026-05-01T13:26:11Z</time></trkpt><trkpt lat="45.65923271292112" lon="8.021446990753281"><ele>1178.0</ele><time>2026-05-01T13:26:12Z</time></trkpt><trkpt lat="45.65908557255956" lon="8.021377443725044"><ele>1174.25</ele><time>2026-05-01T13:26:13Z</time></trkpt><trkpt lat="45.658957953925054" lon="8.021319006573131"><ele>1170.5</ele><time>2026-05-01T13:26:14Z</time></trkpt><trkpt lat="45.658843205317076" lon="8.021272025749282"><ele>1166.75</ele><time>2026-05-01T13:26:15Z</time></trkpt><trkpt lat="45.65872735403693" lon="8.021247434737212"><ele>1163.0</ele><time>2026-05-01T13:26:16Z</time></trkpt><trkpt lat="45.65860138085096" lon="8.02128348749287"><ele>1158.75</ele><time>2026-05-01T13:26:17Z</time></trkpt><trkpt lat="45.65846517159388" lon="8.021326885806621"><ele>1154.5</ele><time>2026-05-01T13:26:18Z</time></trkpt><trkpt lat="45.658330786147644" lon="8.021339404153489"><ele>1150.25</ele><time>2026-05-01T13:26:19Z</time></trkpt><trkpt lat="45.65819658259656" lon="8.021354250345581"><ele>1146.0</ele><time>2026-05-01T13:26:20Z</time></trkpt><trkpt lat="45.658038650357696" lon="8.02134624909838"><ele>1146.0</ele><time>2026-05-01T13:26:21Z</time></trkpt><trkpt lat="45.65789059643117" lon="8.021334666519033"><ele>1146.0</ele><time>2026-05-01T13:26:22Z</time></trkpt><trkpt lat="45.657757409553206" lon="8.021324247023305"><ele>1146.0</ele><time>2026-05-01T13:26:23Z</time></trkpt><trkpt lat="45.6576349171088" lon="8.021318084032114"><ele>1146.0</ele><time>2026-05-01T13:26:24Z</time></trkpt><trkpt lat="45.65753381059332" lon="8.021320966254516"><ele>1144.5</ele><time>2026-05-01T13:26:25Z</time></trkpt><trkpt lat="45.65745208931329" lon="8.021320966252665"><ele>1143.0</ele><time>2026-05-01T13:26:26Z</time></trkpt><trkpt lat="45.657377439994306" lon="8.02130180210679"><ele>1141.5</ele><time>2026-05-01T13:26:27Z</time></trkpt><trkpt lat="45.65729719666563" lon="8.021261651686393"><ele>1140.0</ele><time>2026-05-01T13:26:28Z</time></trkpt><trkpt lat="45.65724371439788" lon="8.021179714191609"><ele>1138.5</ele><time>2026-05-01T13:26:29Z</time></trkpt><trkpt lat="45.65721830693785" lon="8.021081375030665"><ele>1137.0</ele><time>2026-05-01T13:26:30.001Z</time></trkpt><trkpt lat="45.65719441925674" lon="8.020959227398457"><ele>1130.2</ele><time>2026-05-01T13:26:31.001Z</time></trkpt><trkpt lat="45.65722060181984" lon="8.020814464680734"><ele>1123.4</ele><time>2026-05-01T13:26:32.001Z</time></trkpt><trkpt lat="45.65727536394807" lon="8.02070235781643"><ele>1116.6</ele><time>2026-05-01T13:26:33.001Z</time></trkpt><trkpt lat="45.657366267864134" lon="8.020607117030629"><ele>1109.8</ele><time>2026-05-01T13:26:34.001Z</time></trkpt><trkpt lat="45.657478785985944" lon="8.020506450263792"><ele>1103.0</ele><time>2026-05-01T13:26:35.001Z</time></trkpt><trkpt lat="45.657614801272246" lon="8.020394547809973"><ele>1103.0</ele><time>2026-05-01T13:26:36.001Z</time></trkpt><trkpt lat="45.65776149737018" lon="8.020286123020144"><ele>1103.0</ele><time>2026-05-01T13:26:37.001Z</time></trkpt><trkpt lat="45.65792498084205" lon="8.020180844408268"><ele>1103.0</ele><time>2026-05-01T13:26:38Z</time></trkpt><trkpt lat="45.65807448523049" lon="8.020094533131525"><ele>1099.3333333333335</ele><time>2026-05-01T13:26:39Z</time></trkpt><trkpt lat="45.658221219387" lon="8.020005020684255"><ele>1095.6666666666667</ele><time>2026-05-01T13:26:40Z</time></trkpt><trkpt lat="45.65836259231666" lon="8.019917058858152"><ele>1092.0</ele><time>2026-05-01T13:26:41Z</time></trkpt><trkpt lat="45.65849143090174" lon="8.019838310516453"><ele>1092.0</ele><time>2026-05-01T13:26:42Z</time></trkpt><trkpt lat="45.658601078222254" lon="8.019760867439127"><ele>1092.0</ele><time>2026-05-01T13:26:43Z</time></trkpt><trkpt lat="45.65868027413459" lon="8.01967114083546"><ele>1092.0</ele><time>2026-05-01T13:26:44Z</time></trkpt><trkpt lat="45.65875508830122" lon="8.019541444567873"><ele>1092.0</ele><time>2026-05-01T13:26:45Z</time></trkpt><trkpt lat="45.65882992353073" lon="8.019362020788549"><ele>1101.5</ele><time>2026-05-01T13:26:46Z</time></trkpt><trkpt lat="45.65889578658161" lon="8.019184354836476"><ele>1111.0</ele><time>2026-05-01T13:26:47Z</time></trkpt><trkpt lat="45.65895087610022" lon="8.01902891437703"><ele>1120.5</ele><time>2026-05-01T13:26:48Z</time></trkpt><trkpt lat="45.6589837861424" lon="8.018882024632726"><ele>1130.0</ele><time>2026-05-01T13:26:49Z</time></trkpt><trkpt lat="45.6589933365709" lon="8.018723627202215"><ele>1130.0</ele><time>2026-05-01T13:26:50Z</time></trkpt><trkpt lat="45.65898431960477" lon="8.018548566627421"><ele>1130.0</ele><time>2026-05-01T13:26:51Z</time></trkpt><trkpt lat="45.65896410272556" lon="8.018345396284266"><ele>1130.0</ele><time>2026-05-01T13:26:52Z</time></trkpt><trkpt lat="45.65896413976244" lon="8.018141295842014"><ele>1130.0</ele><time>2026-05-01T13:26:53Z</time></trkpt><trkpt lat="45.65895568771212" lon="8.017980723090938"><ele>1126.25</ele><time>2026-05-01T13:26:54Z</time></trkpt><trkpt lat="45.65896719971174" lon="8.017843397689484"><ele>1122.5</ele><time>2026-05-01T13:26:55Z</time></trkpt><trkpt lat="45.659008044204334" lon="8.017714624585798"><ele>1118.75</ele><time>2026-05-01T13:26:56Z</time></trkpt><trkpt lat="45.65906656597216" lon="8.017554463234458"><ele>1115.0</ele><time>2026-05-01T13:26:57Z</time></trkpt><trkpt lat="45.659123553457256" lon="8.017376925312645"><ele>1107.75</ele><time>2026-05-01T13:26:58Z</time></trkpt><trkpt lat="45.659186348872474" lon="8.017229842913304"><ele>1100.5</ele><time>2026-05-01T13:26:59Z</time></trkpt><trkpt lat="45.65924200080862" lon="8.017076065034733"><ele>1093.25</ele><time>2026-05-01T13:27:00Z</time></trkpt><trkpt lat="45.659301130348624" lon="8.016911408525067"><ele>1086.0</ele><time>2026-05-01T13:27:01Z</time></trkpt><trkpt lat="45.65935963207712" lon="8.01678419643316"><ele>1086.0</ele><time>2026-05-01T13:27:02Z</time></trkpt><trkpt lat="45.65942061780401" lon="8.016686805864996"><ele>1086.0</ele><time>2026-05-01T13:27:03Z</time></trkpt><trkpt lat="45.6594992320274" lon="8.016633651981588"><ele>1086.0</ele><time>2026-05-01T13:27:04Z</time></trkpt><trkpt lat="45.659586915836634" lon="8.016605149344237"><ele>1086.0</ele><time>2026-05-01T13:27:05Z</time></trkpt><trkpt lat="45.65969039544487" lon="8.016628990061493"><ele>1086.0</ele><time>2026-05-01T13:27:06Z</time></trkpt><trkpt lat="45.65981634481022" lon="8.016617463492215"><ele>1086.2</ele><time>2026-05-01T13:27:07Z</time></trkpt><trkpt lat="45.65993309490735" lon="8.016633168126209"><ele>1086.3999999999999</ele><time>2026-05-01T13:27:08Z</time></trkpt><trkpt lat="45.66002847806346" lon="8.016615232570583"><ele>1086.6</ele><time>2026-05-01T13:27:09Z</time></trkpt><trkpt lat="45.6601170340994" lon="8.016549082912816"><ele>1086.8</ele><time>2026-05-01T13:27:10Z</time></trkpt><trkpt lat="45.660215559669496" lon="8.0164440322274"><ele>1087.0</ele><time>2026-05-01T13:27:11Z</time></trkpt><trkpt lat="45.66030732474221" lon="8.01633043284"><ele>1087.0</ele><time>2026-05-01T13:27:12Z</time></trkpt><trkpt lat="45.66039165064751" lon="8.016241363950396"><ele>1087.0</ele><time>2026-05-01T13:27:13Z</time></trkpt><trkpt lat="45.6604741248009" lon="8.016183844434805"><ele>1087.0</ele><time>2026-05-01T13:27:14Z</time></trkpt><trkpt lat="45.66055725334297" lon="8.016151731729822"><ele>1087.0</ele><time>2026-05-01T13:27:15Z</time></trkpt><trkpt lat="45.66065168447093" lon="8.01614692555913"><ele>1087.0</ele><time>2026-05-01T13:27:16Z</time></trkpt><trkpt lat="45.66077186164487" lon="8.016164196611287"><ele>1087.0</ele><time>2026-05-01T13:27:17Z</time></trkpt><trkpt lat="45.66088705950192" lon="8.016183709666896"><ele>1087.0</ele><time>2026-05-01T13:27:18Z</time></trkpt><trkpt lat="45.66098709269493" lon="8.016194799144497"><ele>1087.0</ele><time>2026-05-01T13:27:19Z</time></trkpt><trkpt lat="45.66108604055636" lon="8.016154339694051"><ele>1087.0</ele><time>2026-05-01T13:27:20Z</time></trkpt><trkpt lat="45.66118840158747" lon="8.01602765889213"><ele>1090.25</ele><time>2026-05-01T13:27:21Z</time></trkpt><trkpt lat="45.66130425079291" lon="8.01593416889048"><ele>1093.5</ele><time>2026-05-01T13:27:22Z</time></trkpt><trkpt lat="45.66142330035863" lon="8.01589090968505"><ele>1096.75</ele><time>2026-05-01T13:27:23Z</time></trkpt><trkpt lat="45.66153426879009" lon="8.015825278378275"><ele>1100.0</ele><time>2026-05-01T13:27:24Z</time></trkpt><trkpt lat="45.66165447658401" lon="8.015788092475585"><ele>1102.25</ele><time>2026-05-01T13:27:25Z</time></trkpt><trkpt lat="45.661753969067746" lon="8.015739915411192"><ele>1104.5</ele><time>2026-05-01T13:27:26Z</time></trkpt><trkpt lat="45.66185455009267" lon="8.0156787454469"><ele>1106.75</ele><time>2026-05-01T13:27:27Z</time></trkpt><trkpt lat="45.66193005395416" lon="8.015532987924553"><ele>1109.0</ele><time>2026-05-01T13:27:28Z</time></trkpt><trkpt lat="45.66201829833277" lon="8.015370532586418"><ele>1109.0</ele><time>2026-05-01T13:27:29Z</time></trkpt><trkpt lat="45.6621253142921" lon="8.015187475735733"><ele>1109.0</ele><time>2026-05-01T13:27:30Z</time></trkpt><trkpt lat="45.66221621464046" lon="8.015025009665248"><ele>1109.0</ele><time>2026-05-01T13:27:31Z</time></trkpt><trkpt lat="45.662292304425975" lon="8.014895054419267"><ele>1109.0</ele><time>2026-05-01T13:27:32Z</time></trkpt><trkpt lat="45.66234701762646" lon="8.014785626671044"><ele>1103.25</ele><time>2026-05-01T13:27:33Z</time></trkpt><trkpt lat="45.662373872460996" lon="8.014660793644184"><ele>1097.5</ele><time>2026-05-01T13:27:34Z</time></trkpt><trkpt lat="45.66238151017437" lon="8.014510834715132"><ele>1091.75</ele><time>2026-05-01T13:27:35Z</time></trkpt><trkpt lat="45.66237162047667" lon="8.01433057214948"><ele>1086.0</ele><time>2026-05-01T13:27:36Z</time></trkpt><trkpt lat="45.66234862458137" lon="8.014130911398727"><ele>1081.5</ele><time>2026-05-01T13:27:37Z</time></trkpt><trkpt lat="45.66231619523049" lon="8.01393613587596"><ele>1077.0</ele><time>2026-05-01T13:27:38Z</time></trkpt><trkpt lat="45.66227028314899" lon="8.013773392540154"><ele>1072.5</ele><time>2026-05-01T13:27:39Z</time></trkpt><trkpt lat="45.66222835892954" lon="8.0136339180501"><ele>1068.0</ele><time>2026-05-01T13:27:40Z</time></trkpt><trkpt lat="45.66221275106725" lon="8.013503087475689"><ele>1068.0</ele><time>2026-05-01T13:27:41Z</time></trkpt><trkpt lat="45.66219250469829" lon="8.013392177528575"><ele>1068.0</ele><time>2026-05-01T13:27:42Z</time></trkpt><trkpt lat="45.66222683014728" lon="8.013280169942453"><ele>1068.0</ele><time>2026-05-01T13:27:43Z</time></trkpt><trkpt lat="45.66225814764353" lon="8.013160653188287"><ele>1068.0</ele><time>2026-05-01T13:27:44Z</time></trkpt><trkpt lat="45.66233682133095" lon="8.013075935581659"><ele>1068.0</ele><time>2026-05-01T13:27:45Z</time></trkpt><trkpt lat="45.66243329358845" lon="8.013021068360608"><ele>1071.2</ele><time>2026-05-01T13:27:46Z</time></trkpt><trkpt lat="45.66253305640255" lon="8.013008086357758"><ele>1074.4</ele><time>2026-05-01T13:27:47Z</time></trkpt><trkpt lat="45.66261961285938" lon="8.013053447230767"><ele>1077.6000000000001</ele><time>2026-05-01T13:27:48Z</time></trkpt><trkpt lat="45.662704196229484" lon="8.013127993615468"><ele>1080.8</ele><time>2026-05-01T13:27:49Z</time></trkpt><trkpt lat="45.662794589536915" lon="8.01324902945825"><ele>1084.0</ele><time>2026-05-01T13:27:50Z</time></trkpt><trkpt lat="45.66289003638714" lon="8.013361008119343"><ele>1084.0</ele><time>2026-05-01T13:27:51Z</time></trkpt><trkpt lat="45.662988167934635" lon="8.01343602924049"><ele>1084.0</ele><time>2026-05-01T13:27:51.999Z</time></trkpt><trkpt lat="45.66308566296806" lon="8.01347445743003"><ele>1084.0</ele><time>2026-05-01T13:27:52.999Z</time></trkpt><trkpt lat="45.66318590142035" lon="8.013475803971083"><ele>1084.0</ele><time>2026-05-01T13:27:53.999Z</time></trkpt><trkpt lat="45.66328717719764" lon="8.013471166807687"><ele>1084.0</ele><time>2026-05-01T13:27:54.999Z</time></trkpt><trkpt lat="45.66338944399896" lon="8.01339471920643"><ele>1084.0</ele><time>2026-05-01T13:27:55.999Z</time></trkpt><trkpt lat="45.663459734213234" lon="8.013240125394793"><ele>1084.0</ele><time>2026-05-01T13:27:56.999Z</time></trkpt><trkpt lat="45.66353189650961" lon="8.013087169258716"><ele>1084.0</ele><time>2026-05-01T13:27:57.999Z</time></trkpt><trkpt lat="45.66361782628743" lon="8.012885389204417"><ele>1084.0</ele><time>2026-05-01T13:27:58.999Z</time></trkpt><trkpt lat="45.6637188457118" lon="8.012641437063566"><ele>1071.6666666666665</ele><time>2026-05-01T13:27:59.999Z</time></trkpt><trkpt lat="45.663834587685244" lon="8.01242020431972"><ele>1059.3333333333333</ele><time>2026-05-01T13:28:00.999Z</time></trkpt><trkpt lat="45.663915170054814" lon="8.012230874406322"><ele>1047.0</ele><time>2026-05-01T13:28:01.999Z</time></trkpt><trkpt lat="45.66398379460178" lon="8.012075195404405"><ele>1047.0</ele><time>2026-05-01T13:28:02.999Z</time></trkpt><trkpt lat="45.66403127400213" lon="8.011947016838736"><ele>1047.0</ele><time>2026-05-01T13:28:03.999Z</time></trkpt><trkpt lat="45.66410117877583" lon="8.01185945345435"><ele>1047.0</ele><time>2026-05-01T13:28:04.999Z</time></trkpt><trkpt lat="45.66418436007198" lon="8.011807711156688"><ele>1047.0</ele><time>2026-05-01T13:28:05.999Z</time></trkpt><trkpt lat="45.66427642274082" lon="8.011801396557331"><ele>1047.0</ele><time>2026-05-01T13:28:06.999Z</time></trkpt><trkpt lat="45.664371330692205" lon="8.011815079340252"><ele>1050.2</ele><time>2026-05-01T13:28:07.999Z</time></trkpt><trkpt lat="45.6644726768455" lon="8.011870886266937"><ele>1053.4</ele><time>2026-05-01T13:28:08.999Z</time></trkpt><trkpt lat="45.66458786290469" lon="8.011905023214217"><ele>1056.6</ele><time>2026-05-01T13:28:09.999Z</time></trkpt><trkpt lat="45.66468018012481" lon="8.01193229775542"><ele>1059.8</ele><time>2026-05-01T13:28:10.999Z</time></trkpt><trkpt lat="45.66477275032026" lon="8.011899019183929"><ele>1063.0</ele><time>2026-05-01T13:28:11.999Z</time></trkpt><trkpt lat="45.66486055410064" lon="8.011822210826248"><ele>1063.0</ele><time>2026-05-01T13:28:12.999Z</time></trkpt><trkpt lat="45.66494649100232" lon="8.011705816688005"><ele>1063.0</ele><time>2026-05-01T13:28:13.999Z</time></trkpt><trkpt lat="45.66504268101717" lon="8.011592827294757"><ele>1063.0</ele><time>2026-05-01T13:28:14.999Z</time></trkpt><trkpt lat="45.66512343807648" lon="8.011494329689135"><ele>1063.0</ele><time>2026-05-01T13:28:15.999Z</time></trkpt><trkpt lat="45.6652026688549" lon="8.01143803291338"><ele>1063.0</ele><time>2026-05-01T13:28:16.999Z</time></trkpt><trkpt lat="45.665282980954686" lon="8.011403317743186"><ele>1063.8</ele><time>2026-05-01T13:28:17.999Z</time></trkpt><trkpt lat="45.66537852222459" lon="8.01146422875463"><ele>1064.6</ele><time>2026-05-01T13:28:18.999Z</time></trkpt><trkpt lat="45.665498888826804" lon="8.011487318144875"><ele>1065.4</ele><time>2026-05-01T13:28:19.999Z</time></trkpt><trkpt lat="45.665609463149714" lon="8.011536420215988"><ele>1066.2</ele><time>2026-05-01T13:28:20.999Z</time></trkpt><trkpt lat="45.6656960991702" lon="8.011539242687002"><ele>1067.0</ele><time>2026-05-01T13:28:21.999Z</time></trkpt><trkpt lat="45.66577254763973" lon="8.011489947561596"><ele>1067.0</ele><time>2026-05-01T13:28:22.999Z</time></trkpt><trkpt lat="45.66585217338991" lon="8.011398917342293"><ele>1067.0</ele><time>2026-05-01T13:28:23.999Z</time></trkpt><trkpt lat="45.66593325980784" lon="8.011298818087816"><ele>1067.0</ele><time>2026-05-01T13:28:24.999Z</time></trkpt><trkpt lat="45.66597829210275" lon="8.01117524574208"><ele>1067.0</ele><time>2026-05-01T13:28:25.999Z</time></trkpt><trkpt lat="45.66600151962184" lon="8.011048462587594"><ele>1067.0</ele><time>2026-05-01T13:28:26.999Z</time></trkpt><trkpt lat="45.66598547917351" lon="8.010898776565156"><ele>1070.5</ele><time>2026-05-01T13:28:27.999Z</time></trkpt><trkpt lat="45.66593957317741" lon="8.010756583864534"><ele>1074.0</ele><time>2026-05-01T13:28:28.999Z</time></trkpt><trkpt lat="45.66584355688042" lon="8.010649115351105"><ele>1077.5</ele><time>2026-05-01T13:28:29.999Z</time></trkpt><trkpt lat="45.66574097296759" lon="8.010517154969856"><ele>1081.0</ele><time>2026-05-01T13:28:30.999Z</time></trkpt><trkpt lat="45.6656204647265" lon="8.010348183817593"><ele>1081.0</ele><time>2026-05-01T13:28:31.999Z</time></trkpt><trkpt lat="45.665486745695794" lon="8.010172171180475"><ele>1081.0</ele><time>2026-05-01T13:28:32.999Z</time></trkpt><trkpt lat="45.66538968741826" lon="8.010009057485561"><ele>1081.0</ele><time>2026-05-01T13:28:33.999Z</time></trkpt><trkpt lat="45.665300083455804" lon="8.00988428906413"><ele>1074.3999999999999</ele><time>2026-05-01T13:28:35Z</time></trkpt><trkpt lat="45.665234009798155" lon="8.009770887177796"><ele>1067.8</ele><time>2026-05-01T13:28:36Z</time></trkpt><trkpt lat="45.66518537135178" lon="8.009660189373516"><ele>1061.1999999999998</ele><time>2026-05-01T13:28:37Z</time></trkpt><trkpt lat="45.665154327768875" lon="8.009531176668569"><ele>1054.6</ele><time>2026-05-01T13:28:38Z</time></trkpt><trkpt lat="45.66515198189009" lon="8.009371907865745"><ele>1048.0</ele><time>2026-05-01T13:28:39Z</time></trkpt><trkpt lat="45.66514137044414" lon="8.009184568922294"><ele>1046.25</ele><time>2026-05-01T13:28:40Z</time></trkpt><trkpt lat="45.66512916380539" lon="8.008979251668801"><ele>1044.5</ele><time>2026-05-01T13:28:41Z</time></trkpt><trkpt lat="45.6651167429437" lon="8.008796425164508"><ele>1042.75</ele><time>2026-05-01T13:28:42Z</time></trkpt><trkpt lat="45.6651104892976" lon="8.008643656899817"><ele>1041.0</ele><time>2026-05-01T13:28:43Z</time></trkpt><trkpt lat="45.665113220404386" lon="8.0085075337597"><ele>1041.0</ele><time>2026-05-01T13:28:44Z</time></trkpt><trkpt lat="45.66513293235635" lon="8.008372321772452"><ele>1041.0</ele><time>2026-05-01T13:28:45Z</time></trkpt><trkpt lat="45.66517866779351" lon="8.008236787067906"><ele>1041.0</ele><time>2026-05-01T13:28:46Z</time></trkpt><trkpt lat="45.66524695022165" lon="8.008127090624024"><ele>1041.0</ele><time>2026-05-01T13:28:47Z</time></trkpt><trkpt lat="45.66533449099983" lon="8.008039602055046"><ele>1041.0</ele><time>2026-05-01T13:28:48Z</time></trkpt><trkpt lat="45.66544203954027" lon="8.007969135539451"><ele>1040.25</ele><time>2026-05-01T13:28:49Z</time></trkpt><trkpt lat="45.66557283153887" lon="8.007905708079814"><ele>1039.5</ele><time>2026-05-01T13:28:50Z</time></trkpt><trkpt lat="45.6657045512237" lon="8.007812373708958"><ele>1038.75</ele><time>2026-05-01T13:28:51Z</time></trkpt><trkpt lat="45.665835044264526" lon="8.007749695907316"><ele>1038.0</ele><time>2026-05-01T13:28:52Z</time></trkpt><trkpt lat="45.665937972655975" lon="8.00769187397535"><ele>1038.0</ele><time>2026-05-01T13:28:53Z</time></trkpt><trkpt lat="45.66602438207774" lon="8.007620076737812"><ele>1038.0</ele><time>2026-05-01T13:28:54Z</time></trkpt><trkpt lat="45.666099205764375" lon="8.007510295990587"><ele>1038.0</ele><time>2026-05-01T13:28:55Z</time></trkpt><trkpt lat="45.66615372640263" lon="8.007385714975557"><ele>1038.0</ele><time>2026-05-01T13:28:56Z</time></trkpt><trkpt lat="45.66618026158844" lon="8.007249965944425"><ele>1038.0</ele><time>2026-05-01T13:28:57Z</time></trkpt><trkpt lat="45.66619368737803" lon="8.00709190416439"><ele>1038.6</ele><time>2026-05-01T13:28:58Z</time></trkpt><trkpt lat="45.66618924523133" lon="8.006932908544147"><ele>1039.1999999999998</ele><time>2026-05-01T13:28:59Z</time></trkpt><trkpt lat="45.6661910116162" lon="8.006798770430736"><ele>1039.8</ele><time>2026-05-01T13:29:00Z</time></trkpt><trkpt lat="45.6662183568554" lon="8.006676727697444"><ele>1040.3999999999999</ele><time>2026-05-01T13:29:01Z</time></trkpt><trkpt lat="45.66627030646159" lon="8.006571144098166"><ele>1041.0</ele><time>2026-05-01T13:29:02Z</time></trkpt><trkpt lat="45.666366071329335" lon="8.006500403492671"><ele>1033.0</ele><time>2026-05-01T13:29:03Z</time></trkpt><trkpt lat="45.66645698509955" lon="8.006443095393022"><ele>1025.0</ele><time>2026-05-01T13:29:04Z</time></trkpt><trkpt lat="45.66655797088763" lon="8.006434248982373"><ele>1017.0</ele><time>2026-05-01T13:29:05Z</time></trkpt><trkpt lat="45.66668130046087" lon="8.00641543512705"><ele>1009.0</ele><time>2026-05-01T13:29:06Z</time></trkpt><trkpt lat="45.66681349611865" lon="8.006435301623853"><ele>1009.0</ele><time>2026-05-01T13:29:07Z</time></trkpt><trkpt lat="45.66693461846319" lon="8.006441908441083"><ele>1009.0000000000001</ele><time>2026-05-01T13:29:08Z</time></trkpt><trkpt lat="45.667038948850276" lon="8.006445113106604"><ele>1009.0000000000001</ele><time>2026-05-01T13:29:09Z</time></trkpt><trkpt lat="45.667131091470466" lon="8.006441386866516"><ele>1009.0</ele><time>2026-05-01T13:29:10Z</time></trkpt><trkpt lat="45.667213183661346" lon="8.006417383202177"><ele>1009.0</ele><time>2026-05-01T13:29:11Z</time></trkpt><trkpt lat="45.66728967259919" lon="8.00638002016804"><ele>1010.0</ele><time>2026-05-01T13:29:12Z</time></trkpt><trkpt lat="45.66733804176514" lon="8.006247675341664"><ele>1011.0</ele><time>2026-05-01T13:29:13Z</time></trkpt><trkpt lat="45.667386366779446" lon="8.00610589028221"><ele>1012.0</ele><time>2026-05-01T13:29:14Z</time></trkpt><trkpt lat="45.667454983668726" lon="8.00590965854531"><ele>1013.0</ele><time>2026-05-01T13:29:15Z</time></trkpt><trkpt lat="45.66752017871631" lon="8.005694102313644"><ele>1013.0</ele><time>2026-05-01T13:29:16Z</time></trkpt><trkpt lat="45.66756406579798" lon="8.005508670446014"><ele>1013.0</ele><time>2026-05-01T13:29:17Z</time></trkpt><trkpt lat="45.667604721321915" lon="8.005359764277722"><ele>1013.0</ele><time>2026-05-01T13:29:18Z</time></trkpt><trkpt lat="45.667619251435944" lon="8.00522328612748"><ele>1013.0</ele><time>2026-05-01T13:29:19Z</time></trkpt><trkpt lat="45.66763327681234" lon="8.005060286962305"><ele>1014.6666666666667</ele><time>2026-05-01T13:29:20Z</time></trkpt><trkpt lat="45.66758047106075" lon="8.00487856601476"><ele>1016.3333333333333</ele><time>2026-05-01T13:29:21Z</time></trkpt><trkpt lat="45.66752438712814" lon="8.004675890349604"><ele>1018.0</ele><time>2026-05-01T13:29:22Z</time></trkpt><trkpt lat="45.667476839232826" lon="8.004450371162738"><ele>1018.0</ele><time>2026-05-01T13:29:23Z</time></trkpt><trkpt lat="45.667421908339996" lon="8.0042569197922"><ele>1018.0</ele><time>2026-05-01T13:29:24Z</time></trkpt><trkpt lat="45.66737706437671" lon="8.004093752340914"><ele>1018.0</ele><time>2026-05-01T13:29:25Z</time></trkpt><trkpt lat="45.667349948761775" lon="8.003962121422452"><ele>1018.0</ele><time>2026-05-01T13:29:26Z</time></trkpt><trkpt lat="45.667342719479876" lon="8.003835593789315"><ele>1015.0</ele><time>2026-05-01T13:29:27Z</time></trkpt><trkpt lat="45.66735897853347" lon="8.00370447129909"><ele>1012.0</ele><time>2026-05-01T13:29:28Z</time></trkpt><trkpt lat="45.667401742012295" lon="8.003575139303491"><ele>1009.0</ele><time>2026-05-01T13:29:29Z</time></trkpt><trkpt lat="45.66747799946469" lon="8.003461160708383"><ele>1006.0</ele><time>2026-05-01T13:29:29.999Z</time></trkpt><trkpt lat="45.667584067603435" lon="8.003322059596872"><ele>1003.0</ele><time>2026-05-01T13:29:30.999Z</time></trkpt><trkpt lat="45.66772048790812" lon="8.003142893316049"><ele>1005.6666666666666</ele><time>2026-05-01T13:29:31.999Z</time></trkpt><trkpt lat="45.66786079514519" lon="8.00292936418833"><ele>1008.3333333333333</ele><time>2026-05-01T13:29:32.999Z</time></trkpt><trkpt lat="45.668016600583165" lon="8.002724215312766"><ele>1011.0</ele><time>2026-05-01T13:29:33.999Z</time></trkpt><trkpt lat="45.668159478418616" lon="8.002534611548363"><ele>1002.6666666666667</ele><time>2026-05-01T13:29:34.999Z</time></trkpt><trkpt lat="45.668297495076125" lon="8.002381097950332"><ele>994.3333333333334</ele><time>2026-05-01T13:29:35.999Z</time></trkpt><trkpt lat="45.66842367559652" lon="8.00221523581691"><ele>986.0</ele><time>2026-05-01T13:29:36.999Z</time></trkpt><trkpt lat="45.66854309853384" lon="8.00205931692011"><ele>989.4</ele><time>2026-05-01T13:29:37.999Z</time></trkpt><trkpt lat="45.668633685783085" lon="8.00191190872248"><ele>992.8</ele><time>2026-05-01T13:29:38.999Z</time></trkpt><trkpt lat="45.66871524200492" lon="8.001806717123998"><ele>996.1999999999999</ele><time>2026-05-01T13:29:39.999Z</time></trkpt><trkpt lat="45.66877905629404" lon="8.001716212472783"><ele>999.5999999999999</ele><time>2026-05-01T13:29:40.999Z</time></trkpt><trkpt lat="45.66882610332663" lon="8.00161542324298"><ele>1003.0</ele><time>2026-05-01T13:29:41.999Z</time></trkpt><trkpt lat="45.66886946962482" lon="8.001495709592781"><ele>1003.0</ele><time>2026-05-01T13:29:42.999Z</time></trkpt><trkpt lat="45.66885034387732" lon="8.001342692579982"><ele>1003.0</ele><time>2026-05-01T13:29:43.999Z</time></trkpt><trkpt lat="45.66883622122394" lon="8.001194264658778"><ele>1003.0</ele><time>2026-05-01T13:29:44.999Z</time></trkpt><trkpt lat="45.668849142362504" lon="8.001064636668774"><ele>1003.0</ele><time>2026-05-01T13:29:45.999Z</time></trkpt><trkpt lat="45.66887302161639" lon="8.000958425448587"><ele>1003.0</ele><time>2026-05-01T13:29:46.999Z</time></trkpt><trkpt lat="45.6689277646349" lon="8.00088192957786"><ele>999.4</ele><time>2026-05-01T13:29:47.999Z</time></trkpt><trkpt lat="45.66899876339543" lon="8.000827748691204"><ele>995.8</ele><time>2026-05-01T13:29:48.999Z</time></trkpt><trkpt lat="45.66909114277644" lon="8.000782421985331"><ele>992.2</ele><time>2026-05-01T13:29:49.999Z</time></trkpt><trkpt lat="45.66919850810964" lon="8.000725046733416"><ele>988.6</ele><time>2026-05-01T13:29:50.999Z</time></trkpt><trkpt lat="45.6693100395179" lon="8.000697596804878"><ele>985.0</ele><time>2026-05-01T13:29:51.999Z</time></trkpt><trkpt lat="45.66941257262938" lon="8.000665831918583"><ele>991.9999999999999</ele><time>2026-05-01T13:29:52.999Z</time></trkpt><trkpt lat="45.669502159488665" lon="8.000625390551226"><ele>999.0</ele><time>2026-05-01T13:29:53.999Z</time></trkpt><trkpt lat="45.66957803097443" lon="8.000597452730858"><ele>1006.0</ele><time>2026-05-01T13:29:54.999Z</time></trkpt><trkpt lat="45.66964081338038" lon="8.000528626078935"><ele>1013.0</ele><time>2026-05-01T13:29:55.999Z</time></trkpt><trkpt lat="45.66968167183686" lon="8.000422769663544"><ele>1019.9999999999999</ele><time>2026-05-01T13:29:56.999Z</time></trkpt><trkpt lat="45.66969467749162" lon="8.000286291412966"><ele>1027.0</ele><time>2026-05-01T13:29:57.999Z</time></trkpt><trkpt lat="45.66968607871305" lon="8.000147635456395"><ele>1027.0</ele><time>2026-05-01T13:29:58.999Z</time></trkpt><trkpt lat="45.6696495075491" lon="8.00002065957207"><ele>1027.0</ele><time>2026-05-01T13:29:59.999Z</time></trkpt><trkpt lat="45.6695644134369" lon="7.999918310482838"><ele>1027.0</ele><time>2026-05-01T13:30:00.999Z</time></trkpt><trkpt lat="45.669508073029135" lon="7.9997828376834725"><ele>1027.0</ele><time>2026-05-01T13:30:01.999Z</time></trkpt><trkpt lat="45.66944670723615" lon="7.999643445299931"><ele>1027.0</ele><time>2026-05-01T13:30:02.999Z</time></trkpt><trkpt lat="45.669403277685944" lon="7.999481573776225"><ele>1016.5</ele><time>2026-05-01T13:30:03.999Z</time></trkpt><trkpt lat="45.669366233452024" lon="7.999311899672199"><ele>1006.0</ele><time>2026-05-01T13:30:04.999Z</time></trkpt><trkpt lat="45.6693256116003" lon="7.99913848547729"><ele>995.5</ele><time>2026-05-01T13:30:05.999Z</time></trkpt><trkpt lat="45.669285382345045" lon="7.998971497377065"><ele>985.0</ele><time>2026-05-01T13:30:06.999Z</time></trkpt><trkpt lat="45.6692469086302" lon="7.998819375986076"><ele>985.0</ele><time>2026-05-01T13:30:07.999Z</time></trkpt><trkpt lat="45.66920043720801" lon="7.99868109200607"><ele>985.0</ele><time>2026-05-01T13:30:08.999Z</time></trkpt><trkpt lat="45.66912991181535" lon="7.99855856066473"><ele>985.0</ele><time>2026-05-01T13:30:09.999Z</time></trkpt><trkpt lat="45.66903020036388" lon="7.998470869409269"><ele>985.0</ele><time>2026-05-01T13:30:10.999Z</time></trkpt><trkpt lat="45.668939275690896" lon="7.998373440065653"><ele>985.0</ele><time>2026-05-01T13:30:11.999Z</time></trkpt><trkpt lat="45.66884836663657" lon="7.998286886709708"><ele>986.0</ele><time>2026-05-01T13:30:12.999Z</time></trkpt><trkpt lat="45.668764139090484" lon="7.998210627676378"><ele>987.0</ele><time>2026-05-01T13:30:13.999Z</time></trkpt><trkpt lat="45.66868106883193" lon="7.998132917649729"><ele>988.0</ele><time>2026-05-01T13:30:14.999Z</time></trkpt><trkpt lat="45.668602287521466" lon="7.998054386133254"><ele>989.0</ele><time>2026-05-01T13:30:15.999Z</time></trkpt><trkpt lat="45.66852782292697" lon="7.997963176970023"><ele>990.0</ele><time>2026-05-01T13:30:16.999Z</time></trkpt><trkpt lat="45.66845347089568" lon="7.997864655407882"><ele>987.8333333333334</ele><time>2026-05-01T13:30:17.999Z</time></trkpt><trkpt lat="45.66838683659829" lon="7.997769440520275"><ele>985.6666666666667</ele><time>2026-05-01T13:30:18.999Z</time></trkpt><trkpt lat="45.66833655010874" lon="7.997677065113692"><ele>983.5</ele><time>2026-05-01T13:30:19.999Z</time></trkpt><trkpt lat="45.66830429282279" lon="7.997570957650229"><ele>981.3333333333334</ele><time>2026-05-01T13:30:20.999Z</time></trkpt><trkpt lat="45.66832182637729" lon="7.997446564822721"><ele>979.1666666666667</ele><time>2026-05-01T13:30:21.999Z</time></trkpt><trkpt lat="45.66834796878537" lon="7.997329239197736"><ele>977.0</ele><time>2026-05-01T13:30:22.999Z</time></trkpt><trkpt lat="45.66838526782049" lon="7.997220175216497"><ele>977.0</ele><time>2026-05-01T13:30:23.999Z</time></trkpt><trkpt lat="45.66846727225773" lon="7.99714088154881"><ele>977.0</ele><time>2026-05-01T13:30:24.999Z</time></trkpt><trkpt lat="45.668575786464125" lon="7.997123843680448"><ele>977.0</ele><time>2026-05-01T13:30:25.999Z</time></trkpt><trkpt lat="45.66869568881701" lon="7.997056562632054"><ele>977.0</ele><time>2026-05-01T13:30:26.999Z</time></trkpt><trkpt lat="45.66884012864689" lon="7.997012629451252"><ele>981.6666666666667</ele><time>2026-05-01T13:30:27.999Z</time></trkpt><trkpt lat="45.668989600950034" lon="7.996957082741763"><ele>986.3333333333333</ele><time>2026-05-01T13:30:28.999Z</time></trkpt><trkpt lat="45.66914043534538" lon="7.99689525435016"><ele>991.0</ele><time>2026-05-01T13:30:29.999Z</time></trkpt><trkpt lat="45.66928277649741" lon="7.996835190076805"><ele>991.0</ele><time>2026-05-01T13:30:30.999Z</time></trkpt><trkpt lat="45.669404944863224" lon="7.996789436921731"><ele>991.0</ele><time>2026-05-01T13:30:31.999Z</time></trkpt><trkpt lat="45.66951143139927" lon="7.996735598364403"><ele>991.0</ele><time>2026-05-01T13:30:32.999Z</time></trkpt><trkpt lat="45.66959696621957" lon="7.996648341678885"><ele>991.0</ele><time>2026-05-01T13:30:33.999Z</time></trkpt><trkpt lat="45.66967352241639" lon="7.996518860693382"><ele>990.5</ele><time>2026-05-01T13:30:34.999Z</time></trkpt><trkpt lat="45.669737524108626" lon="7.99634995888957"><ele>990.0</ele><time>2026-05-01T13:30:35.999Z</time></trkpt><trkpt lat="45.66978781225011" lon="7.996148079791762"><ele>989.5</ele><time>2026-05-01T13:30:36.999Z</time></trkpt><trkpt lat="45.669837501744375" lon="7.99593963541994"><ele>989.0</ele><time>2026-05-01T13:30:37.999Z</time></trkpt><trkpt lat="45.66988463699114" lon="7.995755639714202"><ele>987.8000000000001</ele><time>2026-05-01T13:30:38.999Z</time></trkpt><trkpt lat="45.6699258590139" lon="7.995588025195486"><ele>986.6000000000001</ele><time>2026-05-01T13:30:39.999Z</time></trkpt><trkpt lat="45.66994791144075" lon="7.995431778585774"><ele>985.4</ele><time>2026-05-01T13:30:41Z</time></trkpt><trkpt lat="45.66994812686349" lon="7.995275558988748"><ele>984.2</ele><time>2026-05-01T13:30:42Z</time></trkpt><trkpt lat="45.669928658126544" lon="7.99513017422433"><ele>983.0</ele><time>2026-05-01T13:30:43Z</time></trkpt><trkpt lat="45.66992729935309" lon="7.994996622814819"><ele>982.0</ele><time>2026-05-01T13:30:44Z</time></trkpt><trkpt lat="45.66993171892212" lon="7.994871045950311"><ele>981.0</ele><time>2026-05-01T13:30:45Z</time></trkpt><trkpt lat="45.6699487535925" lon="7.9947370033059695"><ele>980.0</ele><time>2026-05-01T13:30:46Z</time></trkpt><trkpt lat="45.67000757463738" lon="7.994622645065423"><ele>979.0</ele><time>2026-05-01T13:30:47Z</time></trkpt><trkpt lat="45.67008684045251" lon="7.99453003482436"><ele>978.0</ele><time>2026-05-01T13:30:48Z</time></trkpt><trkpt lat="45.67018564679266" lon="7.994499910044973"><ele>979.5</ele><time>2026-05-01T13:30:49Z</time></trkpt><trkpt lat="45.67029004268577" lon="7.994463004412648"><ele>981.0</ele><time>2026-05-01T13:30:50Z</time></trkpt><trkpt lat="45.67040676462745" lon="7.994472310704143"><ele>982.5</ele><time>2026-05-01T13:30:51Z</time></trkpt><trkpt lat="45.67053208972232" lon="7.9944771181620355"><ele>984.0</ele><time>2026-05-01T13:30:52Z</time></trkpt><trkpt lat="45.670644620598814" lon="7.994480443754924"><ele>984.0</ele><time>2026-05-01T13:30:53Z</time></trkpt><trkpt lat="45.6707406985765" lon="7.994483829203746"><ele>984.0000000000001</ele><time>2026-05-01T13:30:54Z</time></trkpt><trkpt lat="45.6708248317949" lon="7.99451479464774"><ele>984.0000000000001</ele><time>2026-05-01T13:30:55Z</time></trkpt><trkpt lat="45.67090359099491" lon="7.994586636128996"><ele>984.0</ele><time>2026-05-01T13:30:56Z</time></trkpt><trkpt lat="45.670974428076036" lon="7.994690323541703"><ele>984.0</ele><time>2026-05-01T13:30:57Z</time></trkpt><trkpt lat="45.6710197612147" lon="7.99481420442034"><ele>984.0</ele><time>2026-05-01T13:30:58Z</time></trkpt><trkpt lat="45.67102656425772" lon="7.994949939070413"><ele>984.0000000000001</ele><time>2026-05-01T13:30:59Z</time></trkpt><trkpt lat="45.671043329555566" lon="7.995102413033515"><ele>984.0000000000001</ele><time>2026-05-01T13:31:00Z</time></trkpt><trkpt lat="45.67103895013495" lon="7.995273564080423"><ele>984.0</ele><time>2026-05-01T13:31:01Z</time></trkpt><trkpt lat="45.67104127401303" lon="7.995432647494335"><ele>984.0</ele><time>2026-05-01T13:31:02Z</time></trkpt><trkpt lat="45.67106346020928" lon="7.995564221972891"><ele>986.5</ele><time>2026-05-01T13:31:03Z</time></trkpt><trkpt lat="45.671106199635716" lon="7.9956809499616766"><ele>989.0</ele><time>2026-05-01T13:31:04Z</time></trkpt><trkpt lat="45.67117692357001" lon="7.995792688004175"><ele>991.5</ele><time>2026-05-01T13:31:05Z</time></trkpt><trkpt lat="45.671276687607715" lon="7.995908700313501"><ele>994.0</ele><time>2026-05-01T13:31:06Z</time></trkpt><trkpt lat="45.67140465276282" lon="7.9960281228724135"><ele>994.25</ele><time>2026-05-01T13:31:07Z</time></trkpt><trkpt lat="45.6715141054798" lon="7.996123323033781"><ele>994.5</ele><time>2026-05-01T13:31:08Z</time></trkpt><trkpt lat="45.67161161890817" lon="7.996199031426491"><ele>994.75</ele><time>2026-05-01T13:31:09Z</time></trkpt><trkpt lat="45.67171530727381" lon="7.996244790392916"><ele>995.0</ele><time>2026-05-01T13:31:10Z</time></trkpt><trkpt lat="45.67183218322444" lon="7.996259526696511"><ele>994.0</ele><time>2026-05-01T13:31:11Z</time></trkpt><trkpt lat="45.67195496138639" lon="7.996242729157022"><ele>993.0</ele><time>2026-05-01T13:31:12Z</time></trkpt><trkpt lat="45.6720989965073" lon="7.996197106269253"><ele>992.0</ele><time>2026-05-01T13:31:13Z</time></trkpt><trkpt lat="45.67226200035081" lon="7.996136681590107"><ele>991.0</ele><time>2026-05-01T13:31:14Z</time></trkpt><trkpt lat="45.672411680666826" lon="7.996079351077825"><ele>991.0</ele><time>2026-05-01T13:31:15Z</time></trkpt><trkpt lat="45.67254398140533" lon="7.996032824289984"><ele>990.9999999999999</ele><time>2026-05-01T13:31:16Z</time></trkpt><trkpt lat="45.672659930231575" lon="7.995996430706255"><ele>990.9999999999999</ele><time>2026-05-01T13:31:17Z</time></trkpt><trkpt lat="45.672754437021965" lon="7.995955157865125"><ele>991.0</ele><time>2026-05-01T13:31:17.999Z</time></trkpt><trkpt lat="45.6728416966998" lon="7.995932474523943"><ele>991.0</ele><time>2026-05-01T13:31:18.999Z</time></trkpt><trkpt lat="45.672913166259754" lon="7.9958600267771"><ele>987.8333333333333</ele><time>2026-05-01T13:31:19.999Z</time></trkpt><trkpt lat="45.67294847071424" lon="7.995744490640356"><ele>984.6666666666666</ele><time>2026-05-01T13:31:20.999Z</time></trkpt><trkpt lat="45.67297239839843" lon="7.99562780106364"><ele>981.5</ele><time>2026-05-01T13:31:21.999Z</time></trkpt><trkpt lat="45.672970706367614" lon="7.995508273309163"><ele>978.3333333333333</ele><time>2026-05-01T13:31:22.999Z</time></trkpt><trkpt lat="45.67294397479016" lon="7.995398733352644"><ele>975.1666666666666</ele><time>2026-05-01T13:31:23.999Z</time></trkpt><trkpt lat="45.672888777827445" lon="7.99529296147364"><ele>972.0</ele><time>2026-05-01T13:31:24.999Z</time></trkpt><trkpt lat="45.672797757954385" lon="7.9952010581609985"><ele>968.6</ele><time>2026-05-01T13:31:25.999Z</time></trkpt><trkpt lat="45.67270098507899" lon="7.995132812377662"><ele>965.2</ele><time>2026-05-01T13:31:26.999Z</time></trkpt><trkpt lat="45.672615318077455" lon="7.995061625139206"><ele>961.8</ele><time>2026-05-01T13:31:27.999Z</time></trkpt><trkpt lat="45.672559151712534" lon="7.994949922731686"><ele>958.4</ele><time>2026-05-01T13:31:28.999Z</time></trkpt><trkpt lat="45.672552716901315" lon="7.994803552983992"><ele>955.0</ele><time>2026-05-01T13:31:29.999Z</time></trkpt><trkpt lat="45.67253799682487" lon="7.994669424152603"><ele>952.8</ele><time>2026-05-01T13:31:30.999Z</time></trkpt><trkpt lat="45.672592513084716" lon="7.994542596182014"><ele>950.6</ele><time>2026-05-01T13:31:31.999Z</time></trkpt><trkpt lat="45.672653499328916" lon="7.994401055553266"><ele>948.4000000000001</ele><time>2026-05-01T13:31:32.999Z</time></trkpt><trkpt lat="45.67269600416849" lon="7.994244136355717"><ele>946.2</ele><time>2026-05-01T13:31:33.999Z</time></trkpt><trkpt lat="45.67272277842216" lon="7.994107326603945"><ele>944.0</ele><time>2026-05-01T13:31:34.999Z</time></trkpt><trkpt lat="45.672706571993956" lon="7.99396192824409"><ele>943.0</ele><time>2026-05-01T13:31:35.999Z</time></trkpt><trkpt lat="45.672655747229" lon="7.9937956297423005"><ele>942.0</ele><time>2026-05-01T13:31:36.999Z</time></trkpt><trkpt lat="45.67259240900411" lon="7.993606734641927"><ele>941.0</ele><time>2026-05-01T13:31:37.999Z</time></trkpt><trkpt lat="45.67254674257878" lon="7.993412274310873"><ele>940.0</ele><time>2026-05-01T13:31:38.999Z</time></trkpt><trkpt lat="45.672545865173824" lon="7.993225961226714"><ele>940.0</ele><time>2026-05-01T13:31:39.999Z</time></trkpt><trkpt lat="45.672514660801035" lon="7.993056261738003"><ele>940.0</ele><time>2026-05-01T13:31:40.999Z</time></trkpt><trkpt lat="45.6724887498258" lon="7.99289041249193"><ele>940.0</ele><time>2026-05-01T13:31:41.999Z</time></trkpt><trkpt lat="45.67243281420543" lon="7.99272934636915"><ele>940.0</ele><time>2026-05-01T13:31:42.999Z</time></trkpt><trkpt lat="45.672342914381936" lon="7.992571893764923"><ele>941.75</ele><time>2026-05-01T13:31:43.999Z</time></trkpt><trkpt lat="45.672243054696054" lon="7.992413220464124"><ele>943.5</ele><time>2026-05-01T13:31:44.999Z</time></trkpt><trkpt lat="45.67214765002673" lon="7.992274653402886"><ele>945.25</ele><time>2026-05-01T13:31:45.999Z</time></trkpt><trkpt lat="45.67205719642567" lon="7.992179811404841"><ele>947.0</ele><time>2026-05-01T13:31:46.999Z</time></trkpt><trkpt lat="45.67202581667344" lon="7.99205183407988"><ele>947.0</ele><time>2026-05-01T13:31:47.999Z</time></trkpt><trkpt lat="45.67200694227264" lon="7.991930163274209"><ele>947.0</ele><time>2026-05-01T13:31:48.999Z</time></trkpt><trkpt lat="45.67200394251406" lon="7.991798007145413"><ele>947.0</ele><time>2026-05-01T13:31:49.999Z</time></trkpt><trkpt lat="45.67203951642027" lon="7.991673329560936"><ele>947.0</ele><time>2026-05-01T13:31:50.999Z</time></trkpt><trkpt lat="45.67209180373774" lon="7.99156019231403"><ele>947.0</ele><time>2026-05-01T13:31:51.999Z</time></trkpt><trkpt lat="45.67217664867942" lon="7.991468686421875"><ele>946.8</ele><time>2026-05-01T13:31:52.999Z</time></trkpt><trkpt lat="45.672232892942574" lon="7.991343865705907"><ele>946.6</ele><time>2026-05-01T13:31:53.999Z</time></trkpt><trkpt lat="45.67227579560137" lon="7.991220562165134"><ele>946.3999999999999</ele><time>2026-05-01T13:31:54.999Z</time></trkpt><trkpt lat="45.67230284596667" lon="7.991083198868214"><ele>946.1999999999999</ele><time>2026-05-01T13:31:55.999Z</time></trkpt><trkpt lat="45.67227503871855" lon="7.990941559398027"><ele>946.0</ele><time>2026-05-01T13:31:56.999Z</time></trkpt><trkpt lat="45.67224030862736" lon="7.990829388417471"><ele>944.1666666666666</ele><time>2026-05-01T13:31:57.999Z</time></trkpt><trkpt lat="45.672176925318624" lon="7.99073979583262"><ele>942.3333333333333</ele><time>2026-05-01T13:31:58.999Z</time></trkpt><trkpt lat="45.672093598589946" lon="7.9906641082664365"><ele>940.5</ele><time>2026-05-01T13:31:59.999Z</time></trkpt><trkpt lat="45.6720164057174" lon="7.99060370190743"><ele>938.6666666666667</ele><time>2026-05-01T13:32:00.999Z</time></trkpt><trkpt lat="45.671954534442314" lon="7.990535342397574"><ele>936.8333333333334</ele><time>2026-05-01T13:32:01.999Z</time></trkpt><trkpt lat="45.67192664446888" lon="7.990422234144795"><ele>935.0</ele><time>2026-05-01T13:32:02.999Z</time></trkpt><trkpt lat="45.67188188997351" lon="7.9903231559149885"><ele>935.1666666666667</ele><time>2026-05-01T13:32:03.999Z</time></trkpt><trkpt lat="45.6718632031778" lon="7.990221230437058"><ele>935.3333333333334</ele><time>2026-05-01T13:32:04.999Z</time></trkpt><trkpt lat="45.67187086324395" lon="7.990102684952053"><ele>935.5</ele><time>2026-05-01T13:32:05.999Z</time></trkpt><trkpt lat="45.67191014587432" lon="7.989979005684081"><ele>935.6666666666667</ele><time>2026-05-01T13:32:06.999Z</time></trkpt><trkpt lat="45.671968669864015" lon="7.989876262208677"><ele>935.8333333333334</ele><time>2026-05-01T13:32:07.999Z</time></trkpt><trkpt lat="45.67204986377687" lon="7.989822148672125"><ele>936.0</ele><time>2026-05-01T13:32:08.999Z</time></trkpt><trkpt lat="45.6721568776134" lon="7.98981289692327"><ele>936.0</ele><time>2026-05-01T13:32:09.999Z</time></trkpt><trkpt lat="45.67225838360119" lon="7.98976049265917"><ele>936.0</ele><time>2026-05-01T13:32:10.999Z</time></trkpt><trkpt lat="45.672336459417515" lon="7.989649084346023"><ele>936.0</ele><time>2026-05-01T13:32:11.999Z</time></trkpt><trkpt lat="45.67241231287239" lon="7.989527036288446"><ele>936.0</ele><time>2026-05-01T13:32:12.999Z</time></trkpt><trkpt lat="45.672477504090786" lon="7.989356536620839"><ele>932.25</ele><time>2026-05-01T13:32:13.999Z</time></trkpt><trkpt lat="45.672541571957446" lon="7.98916309747995"><ele>928.5</ele><time>2026-05-01T13:32:14.999Z</time></trkpt><trkpt lat="45.67261985093207" lon="7.988992688091262"><ele>924.75</ele><time>2026-05-01T13:32:15.999Z</time></trkpt><trkpt lat="45.67267249765823" lon="7.988820598620561"><ele>921.0</ele><time>2026-05-01T13:32:16.999Z</time></trkpt><trkpt lat="45.67275585343711" lon="7.988668800228973"><ele>925.25</ele><time>2026-05-01T13:32:17.999Z</time></trkpt><trkpt lat="45.67282833815289" lon="7.988502537225375"><ele>929.5</ele><time>2026-05-01T13:32:18.999Z</time></trkpt><trkpt lat="45.672923864844485" lon="7.988359468175446"><ele>933.75</ele><time>2026-05-01T13:32:19.999Z</time></trkpt><trkpt lat="45.67301783660588" lon="7.988227318223712"><ele>938.0</ele><time>2026-05-01T13:32:20.999Z</time></trkpt><trkpt lat="45.673101382207584" lon="7.988105975936603"><ele>938.0</ele><time>2026-05-01T13:32:21.999Z</time></trkpt><trkpt lat="45.67316750655159" lon="7.987977953831595"><ele>938.0</ele><time>2026-05-01T13:32:22.999Z</time></trkpt><trkpt lat="45.67321312389831" lon="7.987830315613133"><ele>938.0</ele><time>2026-05-01T13:32:23.999Z</time></trkpt><trkpt lat="45.67324619670746" lon="7.9876570929083455"><ele>938.0</ele><time>2026-05-01T13:32:24.999Z</time></trkpt><trkpt lat="45.67326569240426" lon="7.987445551978711"><ele>932.0</ele><time>2026-05-01T13:32:25.999Z</time></trkpt><trkpt lat="45.67330716898258" lon="7.987179149357108"><ele>926.0</ele><time>2026-05-01T13:32:26.999Z</time></trkpt><trkpt lat="45.67334234298981" lon="7.986877157172795"><ele>920.0</ele><time>2026-05-01T13:32:27.999Z</time></trkpt><trkpt lat="45.67338045349998" lon="7.986549593755585"><ele>914.0</ele><time>2026-05-01T13:32:28.999Z</time></trkpt><trkpt lat="45.67341628580137" lon="7.986214800587117"><ele>908.0</ele><time>2026-05-01T13:32:29.999Z</time></trkpt><trkpt lat="45.67343928992353" lon="7.98590994842776"><ele>904.3333333333334</ele><time>2026-05-01T13:32:30.999Z</time></trkpt><trkpt lat="45.67346902529676" lon="7.985627107534908"><ele>900.6666666666667</ele><time>2026-05-01T13:32:31.999Z</time></trkpt><trkpt lat="45.67350672414797" lon="7.985360749676059"><ele>897.0</ele><time>2026-05-01T13:32:32.999Z</time></trkpt><trkpt lat="45.67352795968516" lon="7.9850873379984435"><ele>895.3333333333333</ele><time>2026-05-01T13:32:33.999Z</time></trkpt><trkpt lat="45.673536734397075" lon="7.984827373645891"><ele>893.6666666666666</ele><time>2026-05-01T13:32:34.999Z</time></trkpt><trkpt lat="45.67354050224517" lon="7.984577718617165"><ele>892.0</ele><time>2026-05-01T13:32:35.999Z</time></trkpt><trkpt lat="45.67353099159969" lon="7.984362358229405"><ele>892.0</ele><time>2026-05-01T13:32:36.999Z</time></trkpt><trkpt lat="45.673537221776265" lon="7.9841819323282905"><ele>892.0</ele><time>2026-05-01T13:32:37.999Z</time></trkpt><trkpt lat="45.67353837524336" lon="7.9840129676860485"><ele>892.0</ele><time>2026-05-01T13:32:38.999Z</time></trkpt><trkpt lat="45.67353639281682" lon="7.9838513219828915"><ele>892.0</ele><time>2026-05-01T13:32:39.999Z</time></trkpt><trkpt lat="45.67355217362249" lon="7.983690327072135"><ele>893.5</ele><time>2026-05-01T13:32:40.998Z</time></trkpt><trkpt lat="45.67360752080495" lon="7.983538467400794"><ele>895.0</ele><time>2026-05-01T13:32:41.998Z</time></trkpt><trkpt lat="45.673665547211066" lon="7.983391908594186"><ele>896.5</ele><time>2026-05-01T13:32:42.998Z</time></trkpt><trkpt lat="45.67373303262745" lon="7.983244937110035"><ele>898.0</ele><time>2026-05-01T13:32:43.998Z</time></trkpt><trkpt lat="45.67383433150668" lon="7.983136287490184"><ele>898.0</ele><time>2026-05-01T13:32:44.998Z</time></trkpt><trkpt lat="45.67394376859086" lon="7.983063602383622"><ele>898.0</ele><time>2026-05-01T13:32:45.998Z</time></trkpt><trkpt lat="45.6740520403637" lon="7.983030430625173"><ele>898.0</ele><time>2026-05-01T13:32:47Z</time></trkpt><trkpt lat="45.674150396908885" lon="7.983030491815796"><ele>898.0</ele><time>2026-05-01T13:32:48Z</time></trkpt><trkpt lat="45.67422742523413" lon="7.9830403339722045"><ele>898.0</ele><time>2026-05-01T13:32:49Z</time></trkpt><trkpt lat="45.6743391971012" lon="7.982991564158174"><ele>897.9999999999999</ele><time>2026-05-01T13:32:51Z</time></trkpt><trkpt lat="45.674367397604" lon="7.98287855042808"><ele>898.0</ele><time>2026-05-01T13:32:52Z</time></trkpt><trkpt lat="45.67433083307906" lon="7.982765064539807"><ele>898.0</ele><time>2026-05-01T13:32:53Z</time></trkpt><trkpt lat="45.67429123105743" lon="7.982683272221675"><ele>898.0</ele><time>2026-05-01T13:32:54Z</time></trkpt><trkpt lat="45.674196684451914" lon="7.982695851170384"><ele>897.9999999999999</ele><time>2026-05-01T13:32:55Z</time></trkpt><trkpt lat="45.67411926695012" lon="7.9827319054072605"><ele>898.0</ele><time>2026-05-01T13:32:56Z</time></trkpt><trkpt lat="45.67402449696816" lon="7.98281336138964"><ele>898.0</ele><time>2026-05-01T13:32:57Z</time></trkpt><trkpt lat="45.673926217524894" lon="7.98289500056371"><ele>898.0</ele><time>2026-05-01T13:32:58Z</time></trkpt><trkpt lat="45.67384170725412" lon="7.982953392397084"><ele>898.0</ele><time>2026-05-01T13:32:59Z</time></trkpt><trkpt lat="45.67376990812578" lon="7.983000204194004"><ele>898.0</ele><time>2026-05-01T13:33:00Z</time></trkpt><trkpt lat="45.673713087308116" lon="7.9830394694940425"><ele>898.0</ele><time>2026-05-01T13:33:00.999Z</time></trkpt><trkpt lat="45.67361436885132" lon="7.9831166748412175"><ele>893.2</ele><time>2026-05-01T13:33:02.999Z</time></trkpt><trkpt lat="45.67351026108313" lon="7.983187361360226"><ele>888.4</ele><time>2026-05-01T13:33:04.999Z</time></trkpt><trkpt lat="45.67342340554035" lon="7.983151114284389"><ele>883.6000000000001</ele><time>2026-05-01T13:33:06.999Z</time></trkpt><trkpt lat="45.673364851474005" lon="7.983086205933977"><ele>878.8000000000001</ele><time>2026-05-01T13:33:09.999Z</time></trkpt><trkpt lat="45.67329603918529" lon="7.983067418344309"><ele>874.0</ele><time>2026-05-01T13:33:11.999Z</time></trkpt><trkpt lat="45.67322131087598" lon="7.983167862406022"><ele>873.9999999999999</ele><time>2026-05-01T13:33:12.999Z</time></trkpt><trkpt lat="45.67313886669155" lon="7.98330886996974"><ele>874.0</ele><time>2026-05-01T13:33:14.999Z</time></trkpt><trkpt lat="45.673096030708" lon="7.98339231683285"><ele>874.0</ele><time>2026-05-01T13:33:15.999Z</time></trkpt><trkpt lat="45.67305578226449" lon="7.983481869223666"><ele>874.0</ele><time>2026-05-01T13:33:16.999Z</time></trkpt><trkpt lat="45.67302807913267" lon="7.9835903221777675"><ele>873.9999999999999</ele><time>2026-05-01T13:33:17.999Z</time></trkpt><trkpt lat="45.67300813343806" lon="7.983705688158484"><ele>874.0</ele><time>2026-05-01T13:33:18.999Z</time></trkpt><trkpt lat="45.67298410037835" lon="7.983847282250067"><ele>875.9999999999999</ele><time>2026-05-01T13:33:19.999Z</time></trkpt><trkpt lat="45.67295501089122" lon="7.983978420561803"><ele>878.0</ele><time>2026-05-01T13:33:20.999Z</time></trkpt><trkpt lat="45.672930932446846" lon="7.98410001654737"><ele>880.0</ele><time>2026-05-01T13:33:21.999Z</time></trkpt><trkpt lat="45.67288892158464" lon="7.984202576521841"><ele>882.0</ele><time>2026-05-01T13:33:22.999Z</time></trkpt><trkpt lat="45.672872828364866" lon="7.9843159707888764"><ele>883.9999999999999</ele><time>2026-05-01T13:33:23.999Z</time></trkpt><trkpt lat="45.672836544414366" lon="7.984432047206916"><ele>886.0</ele><time>2026-05-01T13:33:24.999Z</time></trkpt><trkpt lat="45.672802980474074" lon="7.984567141378524"><ele>877.75</ele><time>2026-05-01T13:33:25.999Z</time></trkpt><trkpt lat="45.67276358135089" lon="7.9847016609247055"><ele>869.5</ele><time>2026-05-01T13:33:26.999Z</time></trkpt><trkpt lat="45.67272555880059" lon="7.984851869343661"><ele>861.25</ele><time>2026-05-01T13:33:27.999Z</time></trkpt><trkpt lat="45.672698283608185" lon="7.98502456029073"><ele>853.0</ele><time>2026-05-01T13:33:28.999Z</time></trkpt><trkpt lat="45.67268174179681" lon="7.985205343090263"><ele>853.0</ele><time>2026-05-01T13:33:29.999Z</time></trkpt><trkpt lat="45.6726746017052" lon="7.985376889244954"><ele>853.0</ele><time>2026-05-01T13:33:30.999Z</time></trkpt><trkpt lat="45.67267622071739" lon="7.9855319710438"><ele>853.0</ele><time>2026-05-01T13:33:31.999Z</time></trkpt><trkpt lat="45.672687088647876" lon="7.985675144628978"><ele>853.0</ele><time>2026-05-01T13:33:32.999Z</time></trkpt><trkpt lat="45.67269809909454" lon="7.985810519401334"><ele>853.0</ele><time>2026-05-01T13:33:33.999Z</time></trkpt><trkpt lat="45.67269354230898" lon="7.985934851751942"><ele>854.2</ele><time>2026-05-01T13:33:34.999Z</time></trkpt><trkpt lat="45.672646652090705" lon="7.9860487277359535"><ele>855.4</ele><time>2026-05-01T13:33:35.999Z</time></trkpt><trkpt lat="45.67259031454596" lon="7.986159524097746"><ele>856.6000000000001</ele><time>2026-05-01T13:33:36.999Z</time></trkpt><trkpt lat="45.67255899731111" lon="7.986298691917914"><ele>857.8000000000001</ele><time>2026-05-01T13:33:37.999Z</time></trkpt><trkpt lat="45.67252737212382" lon="7.986435389163588"><ele>859.0</ele><time>2026-05-01T13:33:38.999Z</time></trkpt><trkpt lat="45.67251200141535" lon="7.986599404052459"><ele>862.0</ele><time>2026-05-01T13:33:39.999Z</time></trkpt><trkpt lat="45.67248754404053" lon="7.986757763086132"><ele>865.0</ele><time>2026-05-01T13:33:40.999Z</time></trkpt><trkpt lat="45.67241591690728" lon="7.986886431115335"><ele>868.0</ele><time>2026-05-01T13:33:41.999Z</time></trkpt><trkpt lat="45.67229928149058" lon="7.986999748156763"><ele>871.0</ele><time>2026-05-01T13:33:42.999Z</time></trkpt><trkpt lat="45.672224807202866" lon="7.987189448010996"><ele>871.0</ele><time>2026-05-01T13:33:43.999Z</time></trkpt><trkpt lat="45.67212745200599" lon="7.987351420666643"><ele>871.0</ele><time>2026-05-01T13:33:44.999Z</time></trkpt><trkpt lat="45.67203195921563" lon="7.987553466640077"><ele>871.0</ele><time>2026-05-01T13:33:45.999Z</time></trkpt><trkpt lat="45.67190084188669" lon="7.987759170501662"><ele>865.0</ele><time>2026-05-01T13:33:46.999Z</time></trkpt><trkpt lat="45.67175872637547" lon="7.987966982536851"><ele>859.0</ele><time>2026-05-01T13:33:47.999Z</time></trkpt><trkpt lat="45.6716229636016" lon="7.9881555575766185"><ele>853.0</ele><time>2026-05-01T13:33:48.999Z</time></trkpt><trkpt lat="45.67148094856066" lon="7.988323704774863"><ele>850.6666666666666</ele><time>2026-05-01T13:33:49.999Z</time></trkpt><trkpt lat="45.67131572368836" lon="7.988474879599788"><ele>848.3333333333333</ele><time>2026-05-01T13:33:50.999Z</time></trkpt><trkpt lat="45.67116360727352" lon="7.988634668817622"><ele>846.0</ele><time>2026-05-01T13:33:51.999Z</time></trkpt><trkpt lat="45.67103806239276" lon="7.988812821034899"><ele>846.0</ele><time>2026-05-01T13:33:52.999Z</time></trkpt><trkpt lat="45.67092163235147" lon="7.9890240755074045"><ele>846.0</ele><time>2026-05-01T13:33:53.999Z</time></trkpt><trkpt lat="45.67078421552925" lon="7.989235617295412"><ele>846.0</ele><time>2026-05-01T13:33:54.999Z</time></trkpt><trkpt lat="45.67063167980167" lon="7.989450571553529"><ele>846.6666666666667</ele><time>2026-05-01T13:33:55.999Z</time></trkpt><trkpt lat="45.67047368073822" lon="7.989622566443501"><ele>847.3333333333334</ele><time>2026-05-01T13:33:56.999Z</time></trkpt><trkpt lat="45.67032778305941" lon="7.98981139734648"><ele>848.0</ele><time>2026-05-01T13:33:57.999Z</time></trkpt><trkpt lat="45.67017465105748" lon="7.990009591196866"><ele>848.0</ele><time>2026-05-01T13:33:58.999Z</time></trkpt><trkpt lat="45.67002000990449" lon="7.990226322322019"><ele>848.0</ele><time>2026-05-01T13:33:59.999Z</time></trkpt><trkpt lat="45.66983521636682" lon="7.990439487488731"><ele>848.0</ele><time>2026-05-01T13:34:00.999Z</time></trkpt><trkpt lat="45.669624250689246" lon="7.990637365355997"><ele>848.0</ele><time>2026-05-01T13:34:01.999Z</time></trkpt><trkpt lat="45.669434662704475" lon="7.990834531192871"><ele>853.0</ele><time>2026-05-01T13:34:02.999Z</time></trkpt><trkpt lat="45.66925473524475" lon="7.99102125152409"><ele>858.0</ele><time>2026-05-01T13:34:03.999Z</time></trkpt><trkpt lat="45.669091987892486" lon="7.991187638329577"><ele>863.0</ele><time>2026-05-01T13:34:04.999Z</time></trkpt><trkpt lat="45.66890864784255" lon="7.991371287377557"><ele>863.0</ele><time>2026-05-01T13:34:05.999Z</time></trkpt><trkpt lat="45.66873580158793" lon="7.9915471016414275"><ele>863.0</ele><time>2026-05-01T13:34:06.999Z</time></trkpt><trkpt lat="45.66859839713413" lon="7.99168853612749"><ele>863.0</ele><time>2026-05-01T13:34:07.999Z</time></trkpt><trkpt lat="45.668478375207876" lon="7.991802283516013"><ele>862.75</ele><time>2026-05-01T13:34:08.999Z</time></trkpt><trkpt lat="45.66835629532617" lon="7.991900482917995"><ele>862.5</ele><time>2026-05-01T13:34:09.999Z</time></trkpt><trkpt lat="45.6682220267618" lon="7.991968906723425"><ele>862.25</ele><time>2026-05-01T13:34:10.999Z</time></trkpt><trkpt lat="45.668079146448086" lon="7.992018074778394"><ele>862.0</ele><time>2026-05-01T13:34:11.999Z</time></trkpt><trkpt lat="45.66793271956798" lon="7.992071720372317"><ele>862.0</ele><time>2026-05-01T13:34:12.999Z</time></trkpt><trkpt lat="45.66779118614958" lon="7.992149440836404"><ele>862.0</ele><time>2026-05-01T13:34:13.999Z</time></trkpt><trkpt lat="45.66764884764857" lon="7.992259131079773"><ele>862.0</ele><time>2026-05-01T13:34:14.999Z</time></trkpt><trkpt lat="45.66750435124823" lon="7.992414413851015"><ele>855.6666666666666</ele><time>2026-05-01T13:34:15.999Z</time></trkpt><trkpt lat="45.66735690726002" lon="7.992562128834067"><ele>849.3333333333333</ele><time>2026-05-01T13:34:16.999Z</time></trkpt><trkpt lat="45.66719969441665" lon="7.992732711890503"><ele>843.0</ele><time>2026-05-01T13:34:17.999Z</time></trkpt><trkpt lat="45.6670421138333" lon="7.99291696829472"><ele>839.6666666666667</ele><time>2026-05-01T13:34:18.999Z</time></trkpt><trkpt lat="45.666862797480256" lon="7.993082546825592"><ele>836.3333333333334</ele><time>2026-05-01T13:34:19.999Z</time></trkpt><trkpt lat="45.66670047443189" lon="7.993256974990424"><ele>833.0</ele><time>2026-05-01T13:34:20.999Z</time></trkpt><trkpt lat="45.666539937022826" lon="7.993421902717584"><ele>833.0</ele><time>2026-05-01T13:34:21.999Z</time></trkpt><trkpt lat="45.66637500004729" lon="7.993624565468832"><ele>833.0</ele><time>2026-05-01T13:34:22.999Z</time></trkpt><trkpt lat="45.66622160918223" lon="7.993847029830088"><ele>833.0</ele><time>2026-05-01T13:34:23.999Z</time></trkpt><trkpt lat="45.66609728499257" lon="7.994067089533177"><ele>828.3333333333334</ele><time>2026-05-01T13:34:24.999Z</time></trkpt><trkpt lat="45.6659788987224" lon="7.994235103953533"><ele>823.6666666666667</ele><time>2026-05-01T13:34:25.999Z</time></trkpt><trkpt lat="45.665882148560456" lon="7.9943929809809475"><ele>819.0</ele><time>2026-05-01T13:34:26.999Z</time></trkpt><trkpt lat="45.665784458041216" lon="7.99458732118516"><ele>819.0</ele><time>2026-05-01T13:34:27.999Z</time></trkpt><trkpt lat="45.665682027967286" lon="7.994826595535006"><ele>819.0</ele><time>2026-05-01T13:34:28.998Z</time></trkpt><trkpt lat="45.66557795717143" lon="7.995097265955231"><ele>819.0</ele><time>2026-05-01T13:34:29.998Z</time></trkpt><trkpt lat="45.66547781048563" lon="7.99534723904829"><ele>819.6666666666667</ele><time>2026-05-01T13:34:30.998Z</time></trkpt><trkpt lat="45.6653863608978" lon="7.995565967861959"><ele>820.3333333333334</ele><time>2026-05-01T13:34:31.998Z</time></trkpt><trkpt lat="45.66530635360263" lon="7.99575520244517"><ele>821.0</ele><time>2026-05-01T13:34:32.998Z</time></trkpt><trkpt lat="45.665215555579806" lon="7.99588848296129"><ele>821.0</ele><time>2026-05-01T13:34:33.998Z</time></trkpt><trkpt lat="45.66512573604098" lon="7.995996358134772"><ele>821.0</ele><time>2026-05-01T13:34:34.998Z</time></trkpt><trkpt lat="45.66501301220228" lon="7.996116406452434"><ele>821.0</ele><time>2026-05-01T13:34:35.998Z</time></trkpt><trkpt lat="45.66488405852746" lon="7.996247079544784"><ele>821.0</ele><time>2026-05-01T13:34:36.998Z</time></trkpt><trkpt lat="45.664765516672475" lon="7.9963649294038275"><ele>821.0</ele><time>2026-05-01T13:34:37.998Z</time></trkpt><trkpt lat="45.66465691617548" lon="7.996472793273477"><ele>821.0</ele><time>2026-05-01T13:34:38.998Z</time></trkpt><trkpt lat="45.664558216834116" lon="7.996571492601283"><ele>821.0</ele><time>2026-05-01T13:34:39.998Z</time></trkpt><trkpt lat="45.66447033231332" lon="7.996659377094623"><ele>821.0</ele><time>2026-05-01T13:34:40.998Z</time></trkpt><trkpt lat="45.66438916570964" lon="7.996744257241189"><ele>819.1666666666667</ele><time>2026-05-01T13:34:41.998Z</time></trkpt><trkpt lat="45.66432000574354" lon="7.996815729235056"><ele>817.3333333333334</ele><time>2026-05-01T13:34:42.998Z</time></trkpt><trkpt lat="45.664251020964855" lon="7.996880600830968"><ele>815.5</ele><time>2026-05-01T13:34:43.998Z</time></trkpt><trkpt lat="45.66418662141778" lon="7.996936007658027"><ele>813.6666666666667</ele><time>2026-05-01T13:34:44.998Z</time></trkpt><trkpt lat="45.664108926805646" lon="7.996986699210893"><ele>811.8333333333334</ele><time>2026-05-01T13:34:45.998Z</time></trkpt><trkpt lat="45.66402674107444" lon="7.997021232571077"><ele>810.0</ele><time>2026-05-01T13:34:46.998Z</time></trkpt><trkpt lat="45.663938908194595" lon="7.997046951500902"><ele>810.0</ele><time>2026-05-01T13:34:47.998Z</time></trkpt><trkpt lat="45.66384894270769" lon="7.997071861468649"><ele>810.0</ele><time>2026-05-01T13:34:48.998Z</time></trkpt><trkpt lat="45.663768087390366" lon="7.99712706385012"><ele>810.0</ele><time>2026-05-01T13:34:49.998Z</time></trkpt><trkpt lat="45.66370265363775" lon="7.997196171669975"><ele>810.0</ele><time>2026-05-01T13:34:50.998Z</time></trkpt><trkpt lat="45.663670957570325" lon="7.997321957683558"><ele>810.0</ele><time>2026-05-01T13:34:51.998Z</time></trkpt><trkpt lat="45.66363759992955" lon="7.997442590001004"><ele>810.0</ele><time>2026-05-01T13:34:52.999Z</time></trkpt><trkpt lat="45.66358295900119" lon="7.997553488957629"><ele>806.8333333333334</ele><time>2026-05-01T13:34:53.999Z</time></trkpt><trkpt lat="45.663536532115636" lon="7.997661648967882"><ele>803.6666666666667</ele><time>2026-05-01T13:34:54.999Z</time></trkpt><trkpt lat="45.66349461522493" lon="7.997757515855703"><ele>800.5</ele><time>2026-05-01T13:34:55.999Z</time></trkpt><trkpt lat="45.663467233739546" lon="7.997856187617456"><ele>797.3333333333334</ele><time>2026-05-01T13:34:56.999Z</time></trkpt><trkpt lat="45.66342865708396" lon="7.997947552208674"><ele>794.1666666666667</ele><time>2026-05-01T13:34:57.999Z</time></trkpt><trkpt lat="45.66339027676521" lon="7.9980373030795215"><ele>791.0</ele><time>2026-05-01T13:34:58.999Z</time></trkpt><trkpt lat="45.66335349292981" lon="7.998128555625991"><ele>791.0000000000001</ele><time>2026-05-01T13:34:59.999Z</time></trkpt><trkpt lat="45.66331551941521" lon="7.998228693754335"><ele>791.0</ele><time>2026-05-01T13:35:01Z</time></trkpt><trkpt lat="45.66328727781246" lon="7.998322460177419"><ele>791.0</ele><time>2026-05-01T13:35:02Z</time></trkpt><trkpt lat="45.663269495030114" lon="7.99842114704798"><ele>791.0</ele><time>2026-05-01T13:35:03Z</time></trkpt><trkpt lat="45.663251853219194" lon="7.998599974378044"><ele>791.0000000000001</ele><time>2026-05-01T13:35:05Z</time></trkpt><trkpt lat="45.663250551609146" lon="7.998700173730558"><ele>791.0</ele><time>2026-05-01T13:35:06Z</time></trkpt><trkpt lat="45.66325661945429" lon="7.998807958050657"><ele>791.8333333333334</ele><time>2026-05-01T13:35:07Z</time></trkpt><trkpt lat="45.66326732887312" lon="7.998903051781764"><ele>792.6666666666667</ele><time>2026-05-01T13:35:08Z</time></trkpt><trkpt lat="45.66328245026294" lon="7.999010402165834"><ele>793.5</ele><time>2026-05-01T13:35:09Z</time></trkpt><trkpt lat="45.663291788986875" lon="7.999129802147901"><ele>794.3333333333333</ele><time>2026-05-01T13:35:10Z</time></trkpt><trkpt lat="45.66330275795762" lon="7.999255293632323"><ele>795.1666666666666</ele><time>2026-05-01T13:35:11Z</time></trkpt><trkpt lat="45.66328714425617" lon="7.999438389047816"><ele>796.0</ele><time>2026-05-01T13:35:13Z</time></trkpt><trkpt lat="45.66326860893983" lon="7.999551248648837"><ele>798.4</ele><time>2026-05-01T13:35:14Z</time></trkpt><trkpt lat="45.66324808373932" lon="7.999661408529503"><ele>800.8</ele><time>2026-05-01T13:35:15Z</time></trkpt><trkpt lat="45.66321866871242" lon="7.999790788336264"><ele>803.1999999999999</ele><time>2026-05-01T13:35:16Z</time></trkpt><trkpt lat="45.66318370190294" lon="7.999927279008542"><ele>805.5999999999999</ele><time>2026-05-01T13:35:17Z</time></trkpt><trkpt lat="45.663149064368646" lon="8.000063541605513"><ele>808.0</ele><time>2026-05-01T13:35:18Z</time></trkpt><trkpt lat="45.663108691796246" lon="8.000190285641079"><ele>807.9999999999999</ele><time>2026-05-01T13:35:19Z</time></trkpt><trkpt lat="45.66307124778987" lon="8.000309637114706"><ele>808.0</ele><time>2026-05-01T13:35:20Z</time></trkpt><trkpt lat="45.66302923267697" lon="8.000420928818029"><ele>808.0</ele><time>2026-05-01T13:35:21Z</time></trkpt><trkpt lat="45.66298617597596" lon="8.000532959861598"><ele>808.0</ele><time>2026-05-01T13:35:22Z</time></trkpt><trkpt lat="45.662952833318855" lon="8.000644509442461"><ele>807.9999999999999</ele><time>2026-05-01T13:35:23Z</time></trkpt><trkpt lat="45.66291668399556" lon="8.00074039891906"><ele>808.0</ele><time>2026-05-01T13:35:24Z</time></trkpt><trkpt lat="45.66286721956948" lon="8.00083612919074"><ele>810.8333333333333</ele><time>2026-05-01T13:35:25Z</time></trkpt><trkpt lat="45.66281591345524" lon="8.000938520536677"><ele>813.6666666666666</ele><time>2026-05-01T13:35:26Z</time></trkpt><trkpt lat="45.66276106963894" lon="8.001041096467699"><ele>816.5</ele><time>2026-05-01T13:35:27Z</time></trkpt><trkpt lat="45.66270752106064" lon="8.00113366537957"><ele>819.3333333333333</ele><time>2026-05-01T13:35:28Z</time></trkpt><trkpt lat="45.66265773150228" lon="8.001223560511527"><ele>822.1666666666666</ele><time>2026-05-01T13:35:29Z</time></trkpt><trkpt lat="45.662607860914065" lon="8.001322828220385"><ele>825.0</ele><time>2026-05-01T13:35:30Z</time></trkpt><trkpt lat="45.662556485814015" lon="8.001422936871096"><ele>819.8</ele><time>2026-05-01T13:35:31Z</time></trkpt><trkpt lat="45.66250391513095" lon="8.001518861102287"><ele>814.6</ele><time>2026-05-01T13:35:32Z</time></trkpt><trkpt lat="45.662446338450735" lon="8.001623045201153"><ele>809.4000000000001</ele><time>2026-05-01T13:35:33Z</time></trkpt><trkpt lat="45.66237777738705" lon="8.001713522810036"><ele>804.2</ele><time>2026-05-01T13:35:34Z</time></trkpt><trkpt lat="45.66229138875968" lon="8.001800397701942"><ele>799.0</ele><time>2026-05-01T13:35:35Z</time></trkpt><trkpt lat="45.662190279700006" lon="8.001873430960696"><ele>799.0</ele><time>2026-05-01T13:35:36Z</time></trkpt><trkpt lat="45.662090892599444" lon="8.001946031962385"><ele>799.0</ele><time>2026-05-01T13:35:37Z</time></trkpt><trkpt lat="45.662007508855815" lon="8.002027130567521"><ele>799.0</ele><time>2026-05-01T13:35:38Z</time></trkpt><trkpt lat="45.661922849991576" lon="8.002135041001589"><ele>799.0</ele><time>2026-05-01T13:35:39Z</time></trkpt><trkpt lat="45.661843625973816" lon="8.002262383963211"><ele>799.0</ele><time>2026-05-01T13:35:40Z</time></trkpt><trkpt lat="45.661755595308094" lon="8.00239923333141"><ele>796.4000000000001</ele><time>2026-05-01T13:35:41Z</time></trkpt><trkpt lat="45.66168546184972" lon="8.00254748217359"><ele>793.8</ele><time>2026-05-01T13:35:42Z</time></trkpt><trkpt lat="45.661622355368955" lon="8.00267600816626"><ele>791.2</ele><time>2026-05-01T13:35:43Z</time></trkpt><trkpt lat="45.66154937146236" lon="8.002784336628533"><ele>788.5999999999999</ele><time>2026-05-01T13:35:44Z</time></trkpt><trkpt lat="45.66146787580475" lon="8.002861515094839"><ele>786.0</ele><time>2026-05-01T13:35:45Z</time></trkpt><trkpt lat="45.661370318197164" lon="8.002926144144679"><ele>786.0</ele><time>2026-05-01T13:35:46Z</time></trkpt><trkpt lat="45.66126403765436" lon="8.002997648945668"><ele>786.0</ele><time>2026-05-01T13:35:47Z</time></trkpt><trkpt lat="45.661152485462104" lon="8.003054401411173"><ele>786.0</ele><time>2026-05-01T13:35:48Z</time></trkpt><trkpt lat="45.66105776817972" lon="8.003156985287438"><ele>786.0</ele><time>2026-05-01T13:35:49Z</time></trkpt><trkpt lat="45.66097799209493" lon="8.003285985205919"><ele>781.6666666666667</ele><time>2026-05-01T13:35:50Z</time></trkpt><trkpt lat="45.66089372766522" lon="8.003458029844667"><ele>777.3333333333334</ele><time>2026-05-01T13:35:51Z</time></trkpt><trkpt lat="45.66078196522341" lon="8.003670512425872"><ele>773.0</ele><time>2026-05-01T13:35:52Z</time></trkpt><trkpt lat="45.660655660368064" lon="8.003903448062754"><ele>773.0</ele><time>2026-05-01T13:35:53Z</time></trkpt><trkpt lat="45.66052326258578" lon="8.004113664412666"><ele>773.0</ele><time>2026-05-01T13:35:54Z</time></trkpt><trkpt lat="45.66040988697114" lon="8.004322451854645"><ele>773.0</ele><time>2026-05-01T13:35:55Z</time></trkpt><trkpt lat="45.66029892621925" lon="8.004528099155474"><ele>773.0</ele><time>2026-05-01T13:35:56Z</time></trkpt><trkpt lat="45.660190321617996" lon="8.004734283226519"><ele>773.0</ele><time>2026-05-01T13:35:57Z</time></trkpt><trkpt lat="45.660072932202" lon="8.00492018119587"><ele>773.0</ele><time>2026-05-01T13:35:58Z</time></trkpt><trkpt lat="45.65995888559212" lon="8.005092536410016"><ele>773.0</ele><time>2026-05-01T13:35:59Z</time></trkpt><trkpt lat="45.65985258962241" lon="8.005250224411977"><ele>773.0</ele><time>2026-05-01T13:36:00Z</time></trkpt><trkpt lat="45.65974961411577" lon="8.005402082489965"><ele>773.0</ele><time>2026-05-01T13:36:01Z</time></trkpt><trkpt lat="45.65965424775449" lon="8.005546147917931"><ele>773.0</ele><time>2026-05-01T13:36:02Z</time></trkpt><trkpt lat="45.65956430103596" lon="8.005683792127027"><ele>773.0</ele><time>2026-05-01T13:36:03Z</time></trkpt><trkpt lat="45.6594734824721" lon="8.005822770546297"><ele>773.0</ele><time>2026-05-01T13:36:04Z</time></trkpt><trkpt lat="45.65938213584858" lon="8.005979018213317"><ele>773.0</ele><time>2026-05-01T13:36:05Z</time></trkpt><trkpt lat="45.65925065380278" lon="8.006052478628602"><ele>773.0</ele><time>2026-05-01T13:36:06Z</time></trkpt><trkpt lat="45.659112589647975" lon="8.006137739543083"><ele>767.6666666666667</ele><time>2026-05-01T13:36:07Z</time></trkpt><trkpt lat="45.658979422047345" lon="8.006258375801945"><ele>762.3333333333334</ele><time>2026-05-01T13:36:08Z</time></trkpt><trkpt lat="45.658836075841734" lon="8.006371685375008"><ele>757.0</ele><time>2026-05-01T13:36:09Z</time></trkpt><trkpt lat="45.65868484731149" lon="8.006502367654484"><ele>757.3333333333334</ele><time>2026-05-01T13:36:10Z</time></trkpt><trkpt lat="45.658521955077596" lon="8.00659226568778"><ele>757.6666666666666</ele><time>2026-05-01T13:36:11Z</time></trkpt><trkpt lat="45.658354435745565" lon="8.006683170789719"><ele>758.0</ele><time>2026-05-01T13:36:12Z</time></trkpt><trkpt lat="45.65817500692026" lon="8.006772534230521"><ele>758.0</ele><time>2026-05-01T13:36:13Z</time></trkpt><trkpt lat="45.65798602503212" lon="8.006867050457414"><ele>758.0</ele><time>2026-05-01T13:36:14Z</time></trkpt><trkpt lat="45.657813152946545" lon="8.00695716546132"><ele>758.0</ele><time>2026-05-01T13:36:15Z</time></trkpt><trkpt lat="45.65765713621135" lon="8.007042429028738"><ele>756.25</ele><time>2026-05-01T13:36:16Z</time></trkpt><trkpt lat="45.65752251314704" lon="8.007133151593287"><ele>754.5</ele><time>2026-05-01T13:36:17Z</time></trkpt><trkpt lat="45.65738558098312" lon="8.007202914433863"><ele>752.75</ele><time>2026-05-01T13:36:18Z</time></trkpt><trkpt lat="45.65724797075443" lon="8.00729031225239"><ele>751.0</ele><time>2026-05-01T13:36:19Z</time></trkpt><trkpt lat="45.65711889983617" lon="8.007390486534677"><ele>750.0</ele><time>2026-05-01T13:36:20Z</time></trkpt><trkpt lat="45.65699312924261" lon="8.007496995054268"><ele>749.0</ele><time>2026-05-01T13:36:21Z</time></trkpt><trkpt lat="45.65687254672647" lon="8.007617311670755"><ele>748.0</ele><time>2026-05-01T13:36:22Z</time></trkpt><trkpt lat="45.65675551266392" lon="8.007748192317479"><ele>747.0</ele><time>2026-05-01T13:36:23Z</time></trkpt><trkpt lat="45.65663356615984" lon="8.007892778220596"><ele>747.0</ele><time>2026-05-01T13:36:23.999Z</time></trkpt><trkpt lat="45.65650428903619" lon="8.00805830432675"><ele>747.0</ele><time>2026-05-01T13:36:24.999Z</time></trkpt><trkpt lat="45.656371480720054" lon="8.008230954000998"><ele>747.0</ele><time>2026-05-01T13:36:25.999Z</time></trkpt><trkpt lat="45.65623056018923" lon="8.00841649352156"><ele>743.6666666666666</ele><time>2026-05-01T13:36:26.999Z</time></trkpt><trkpt lat="45.65608848208292" lon="8.008598886331715"><ele>740.3333333333333</ele><time>2026-05-01T13:36:27.999Z</time></trkpt><trkpt lat="45.655958995920905" lon="8.008759264109926"><ele>737.0</ele><time>2026-05-01T13:36:28.999Z</time></trkpt><trkpt lat="45.655842693643834" lon="8.008907609390755"><ele>737.0</ele><time>2026-05-01T13:36:29.999Z</time></trkpt><trkpt lat="45.65573519863249" lon="8.00905182087316"><ele>737.0</ele><time>2026-05-01T13:36:30.999Z</time></trkpt><trkpt lat="45.65563062749012" lon="8.009201656399135"><ele>737.0</ele><time>2026-05-01T13:36:31.999Z</time></trkpt><trkpt lat="45.6555231965215" lon="8.00937353702577"><ele>736.3333333333333</ele><time>2026-05-01T13:36:32.999Z</time></trkpt><trkpt lat="45.6554215847003" lon="8.009560197847033"><ele>735.6666666666666</ele><time>2026-05-01T13:36:33.999Z</time></trkpt><trkpt lat="45.65533080278114" lon="8.009745172936837"><ele>735.0</ele><time>2026-05-01T13:36:34.999Z</time></trkpt><trkpt lat="45.655251069456014" lon="8.009924626994488"><ele>734.5</ele><time>2026-05-01T13:36:35.999Z</time></trkpt><trkpt lat="45.65518012229377" lon="8.010094401435179"><ele>734.0</ele><time>2026-05-01T13:36:36.999Z</time></trkpt><trkpt lat="45.6551079649177" lon="8.010270976437656"><ele>733.5</ele><time>2026-05-01T13:36:37.999Z</time></trkpt><trkpt lat="45.65503639184388" lon="8.010433703774051"><ele>733.0</ele><time>2026-05-01T13:36:38.999Z</time></trkpt><trkpt lat="45.65494278490246" lon="8.01056913943323"><ele>733.0</ele><time>2026-05-01T13:36:39.999Z</time></trkpt><trkpt lat="45.65485556855926" lon="8.010711610347244"><ele>733.0</ele><time>2026-05-01T13:36:40.999Z</time></trkpt><trkpt lat="45.654796803485745" lon="8.010874102646607"><ele>733.0</ele><time>2026-05-01T13:36:41.999Z</time></trkpt><trkpt lat="45.65472847379718" lon="8.01104347444814"><ele>733.0</ele><time>2026-05-01T13:36:42.999Z</time></trkpt><trkpt lat="45.65467045790974" lon="8.01123112354833"><ele>735.25</ele><time>2026-05-01T13:36:43.999Z</time></trkpt><trkpt lat="45.654624091719334" lon="8.011407918487688"><ele>737.5</ele><time>2026-05-01T13:36:44.999Z</time></trkpt><trkpt lat="45.654591291256594" lon="8.011576642144723"><ele>739.75</ele><time>2026-05-01T13:36:45.999Z</time></trkpt><trkpt lat="45.65455743376171" lon="8.01172636590362"><ele>742.0</ele><time>2026-05-01T13:36:46.999Z</time></trkpt><trkpt lat="45.65450724836691" lon="8.011850012006953"><ele>739.6</ele><time>2026-05-01T13:36:47.999Z</time></trkpt><trkpt lat="45.65444504514308" lon="8.011966075606447"><ele>737.2</ele><time>2026-05-01T13:36:48.999Z</time></trkpt><trkpt lat="45.65436121716473" lon="8.012065522976435"><ele>734.8</ele><time>2026-05-01T13:36:49.999Z</time></trkpt><trkpt lat="45.654264697101404" lon="8.012140152881996"><ele>732.4</ele><time>2026-05-01T13:36:50.999Z</time></trkpt><trkpt lat="45.65414747761996" lon="8.012168621192714"><ele>730.0</ele><time>2026-05-01T13:36:51.999Z</time></trkpt><trkpt lat="45.654020149028895" lon="8.012236821299645"><ele>730.0</ele><time>2026-05-01T13:36:52.999Z</time></trkpt><trkpt lat="45.65387168803621" lon="8.012281574959182"><ele>730.0</ele><time>2026-05-01T13:36:53.999Z</time></trkpt><trkpt lat="45.65371082114481" lon="8.012353043559068"><ele>730.0</ele><time>2026-05-01T13:36:54.999Z</time></trkpt><trkpt lat="45.65355231034858" lon="8.01245055101178"><ele>729.6666666666667</ele><time>2026-05-01T13:36:55.999Z</time></trkpt><trkpt lat="45.65340323140373" lon="8.012561752486013"><ele>729.3333333333334</ele><time>2026-05-01T13:36:56.999Z</time></trkpt><trkpt lat="45.65325836335079" lon="8.01267300775422"><ele>729.0</ele><time>2026-05-01T13:36:58Z</time></trkpt><trkpt lat="45.65312692706729" lon="8.012769438599932"><ele>729.0</ele><time>2026-05-01T13:36:59Z</time></trkpt><trkpt lat="45.65300881189306" lon="8.012852801569423"><ele>729.0</ele><time>2026-05-01T13:37:00Z</time></trkpt><trkpt lat="45.652905386605084" lon="8.012901798654452"><ele>729.0</ele><time>2026-05-01T13:37:01Z</time></trkpt><trkpt lat="45.6527901821064" lon="8.012921135389615"><ele>729.0</ele><time>2026-05-01T13:37:02Z</time></trkpt><trkpt lat="45.652662822806036" lon="8.012917342264238"><ele>727.0</ele><time>2026-05-01T13:37:03Z</time></trkpt><trkpt lat="45.65252110026949" lon="8.012882334638276"><ele>725.0</ele><time>2026-05-01T13:37:04Z</time></trkpt><trkpt lat="45.652371719384284" lon="8.01283267002593"><ele>723.0</ele><time>2026-05-01T13:37:05Z</time></trkpt><trkpt lat="45.65223411845084" lon="8.012794688760993"><ele>721.0</ele><time>2026-05-01T13:37:06Z</time></trkpt><trkpt lat="45.65211084211835" lon="8.012772592088401"><ele>721.0</ele><time>2026-05-01T13:37:07Z</time></trkpt><trkpt lat="45.65198622367242" lon="8.012776124454547"><ele>721.0</ele><time>2026-05-01T13:37:08Z</time></trkpt><trkpt lat="45.6518424358481" lon="8.01280547075473"><ele>721.0</ele><time>2026-05-01T13:37:09Z</time></trkpt><trkpt lat="45.65169653036749" lon="8.012853786035143"><ele>721.0</ele><time>2026-05-01T13:37:10Z</time></trkpt><trkpt lat="45.65156792603822" lon="8.012900065939354"><ele>720.4</ele><time>2026-05-01T13:37:11Z</time></trkpt><trkpt lat="45.651456130121694" lon="8.01294624010555"><ele>719.8</ele><time>2026-05-01T13:37:12Z</time></trkpt><trkpt lat="45.65136178153792" lon="8.013007423800875"><ele>719.1999999999999</ele><time>2026-05-01T13:37:13Z</time></trkpt><trkpt lat="45.65128283554144" lon="8.013086562983844"><ele>718.5999999999999</ele><time>2026-05-01T13:37:14Z</time></trkpt><trkpt lat="45.651210844771626" lon="8.013194200293395"><ele>718.0</ele><time>2026-05-01T13:37:15Z</time></trkpt><trkpt lat="45.65113782776679" lon="8.01334168072031"><ele>715.5</ele><time>2026-05-01T13:37:16Z</time></trkpt><trkpt lat="45.65106845373291" lon="8.013519295180876"><ele>713.0</ele><time>2026-05-01T13:37:17Z</time></trkpt><trkpt lat="45.65100634478771" lon="8.013688516934804"><ele>710.5</ele><time>2026-05-01T13:37:18Z</time></trkpt><trkpt lat="45.650931348292566" lon="8.01382973153139"><ele>708.0</ele><time>2026-05-01T13:37:19Z</time></trkpt><trkpt lat="45.65080324243736" lon="8.013941404686788"><ele>708.0</ele><time>2026-05-01T13:37:20Z</time></trkpt><trkpt lat="45.65067335061979" lon="8.014093281740285"><ele>708.0</ele><time>2026-05-01T13:37:21Z</time></trkpt><trkpt lat="45.65055920418462" lon="8.014278002141767"><ele>708.0</ele><time>2026-05-01T13:37:22Z</time></trkpt><trkpt lat="45.65044550208202" lon="8.014449064218974"><ele>708.0</ele><time>2026-05-01T13:37:23Z</time></trkpt><trkpt lat="45.65034769420734" lon="8.01460548819858"><ele>708.0</ele><time>2026-05-01T13:37:24Z</time></trkpt><trkpt lat="45.65024253304874" lon="8.014726511715281"><ele>708.0</ele><time>2026-05-01T13:37:25Z</time></trkpt><trkpt lat="45.65014173174954" lon="8.014857325436711"><ele>708.0</ele><time>2026-05-01T13:37:26Z</time></trkpt><trkpt lat="45.65002647261738" lon="8.014965909992902"><ele>710.0</ele><time>2026-05-01T13:37:27Z</time></trkpt><trkpt lat="45.649888186478314" lon="8.015065471680721"><ele>712.0</ele><time>2026-05-01T13:37:28Z</time></trkpt><trkpt lat="45.64972976413492" lon="8.015169006609844"><ele>714.0</ele><time>2026-05-01T13:37:29Z</time></trkpt><trkpt lat="45.64955114953082" lon="8.015305464247058"><ele>710.6666666666666</ele><time>2026-05-01T13:37:30Z</time></trkpt><trkpt lat="45.64935522372387" lon="8.015427592190504"><ele>707.3333333333333</ele><time>2026-05-01T13:37:31Z</time></trkpt><trkpt lat="45.64914997680551" lon="8.015529552722807"><ele>704.0</ele><time>2026-05-01T13:37:32Z</time></trkpt><trkpt lat="45.64897139415013" lon="8.015664083137198"><ele>704.0</ele><time>2026-05-01T13:37:33Z</time></trkpt><trkpt lat="45.64880890346102" lon="8.015758364555632"><ele>704.0</ele><time>2026-05-01T13:37:34Z</time></trkpt><trkpt lat="45.64866714931342" lon="8.015835669929828"><ele>704.0</ele><time>2026-05-01T13:37:35Z</time></trkpt><trkpt lat="45.64853568902256" lon="8.015911580802538"><ele>702.6</ele><time>2026-05-01T13:37:36Z</time></trkpt><trkpt lat="45.64841407382602" lon="8.01597894296786"><ele>701.2</ele><time>2026-05-01T13:37:37Z</time></trkpt><trkpt lat="45.648306716835705" lon="8.016035645073433"><ele>699.8000000000001</ele><time>2026-05-01T13:37:38Z</time></trkpt><trkpt lat="45.64821217192323" lon="8.01609226597695"><ele>698.4000000000001</ele><time>2026-05-01T13:37:39Z</time></trkpt><trkpt lat="45.648134064256375" lon="8.016151227483443"><ele>697.0</ele><time>2026-05-01T13:37:40Z</time></trkpt><trkpt lat="45.648056931400475" lon="8.016244384353563"><ele>697.0</ele><time>2026-05-01T13:37:41Z</time></trkpt><trkpt lat="45.64797879263696" lon="8.016382307818425"><ele>697.0</ele><time>2026-05-01T13:37:42Z</time></trkpt><trkpt lat="45.647908283057525" lon="8.016552752884985"><ele>697.0</ele><time>2026-05-01T13:37:43Z</time></trkpt><trkpt lat="45.64786337451907" lon="8.016740529140923"><ele>697.0</ele><time>2026-05-01T13:37:44Z</time></trkpt><trkpt lat="45.64780505802818" lon="8.016874771801087"><ele>693.75</ele><time>2026-05-01T13:37:45Z</time></trkpt><trkpt lat="45.647748574991674" lon="8.016999148668397"><ele>690.5</ele><time>2026-05-01T13:37:46Z</time></trkpt><trkpt lat="45.64766604642384" lon="8.017128834919228"><ele>687.25</ele><time>2026-05-01T13:37:47Z</time></trkpt><trkpt lat="45.647556218659595" lon="8.017284231239186"><ele>684.0</ele><time>2026-05-01T13:37:48Z</time></trkpt><trkpt lat="45.64742779093579" lon="8.017453220599"><ele>687.6666666666666</ele><time>2026-05-01T13:37:49Z</time></trkpt><trkpt lat="45.647289993989325" lon="8.017626191129473"><ele>691.3333333333333</ele><time>2026-05-01T13:37:50Z</time></trkpt><trkpt lat="45.647146345897696" lon="8.017800504613652"><ele>695.0</ele><time>2026-05-01T13:37:51Z</time></trkpt><trkpt lat="45.6470005528174" lon="8.017968472368487"><ele>694.0</ele><time>2026-05-01T13:37:52Z</time></trkpt><trkpt lat="45.64687047860182" lon="8.018140588747457"><ele>693.0</ele><time>2026-05-01T13:37:53Z</time></trkpt><trkpt lat="45.646761834860946" lon="8.018338626153044"><ele>692.0</ele><time>2026-05-01T13:37:54Z</time></trkpt><trkpt lat="45.646630265164504" lon="8.018502726190768"><ele>692.0</ele><time>2026-05-01T13:37:55Z</time></trkpt><trkpt lat="45.64651950132751" lon="8.018666573811519"><ele>692.0</ele><time>2026-05-01T13:37:56Z</time></trkpt><trkpt lat="45.64641039640556" lon="8.018819070962746"><ele>692.0</ele><time>2026-05-01T13:37:57Z</time></trkpt><trkpt lat="45.6462955065372" lon="8.018951403883527"><ele>692.0</ele><time>2026-05-01T13:37:58Z</time></trkpt><trkpt lat="45.646167403595136" lon="8.019065359351512"><ele>692.0</ele><time>2026-05-01T13:37:59Z</time></trkpt><trkpt lat="45.646036561589746" lon="8.019160745655155"><ele>692.0</ele><time>2026-05-01T13:38:00Z</time></trkpt><trkpt lat="45.64589451692877" lon="8.019241464236785"><ele>692.25</ele><time>2026-05-01T13:38:01Z</time></trkpt><trkpt lat="45.64575248521254" lon="8.019315304938848"><ele>692.5</ele><time>2026-05-01T13:38:02Z</time></trkpt><trkpt lat="45.645628543296205" lon="8.019402190049359"><ele>692.75</ele><time>2026-05-01T13:38:03Z</time></trkpt><trkpt lat="45.6455231188821" lon="8.019464141059471"><ele>693.0</ele><time>2026-05-01T13:38:04Z</time></trkpt><trkpt lat="45.64544425957552" lon="8.019528092748104"><ele>693.0</ele><time>2026-05-01T13:38:05Z</time></trkpt><trkpt lat="45.645384413490916" lon="8.019592592990973"><ele>693.0</ele><time>2026-05-01T13:38:06Z</time></trkpt><trkpt lat="45.64533713338522" lon="8.019678359301443"><ele>693.0</ele><time>2026-05-01T13:38:07Z</time></trkpt><trkpt lat="45.645286955559" lon="8.019792213750753"><ele>693.0</ele><time>2026-05-01T13:38:08Z</time></trkpt><trkpt lat="45.64524075076503" lon="8.019948741884876"><ele>693.0</ele><time>2026-05-01T13:38:09Z</time></trkpt><trkpt lat="45.64519974527071" lon="8.020137432479254"><ele>689.0</ele><time>2026-05-01T13:38:10Z</time></trkpt><trkpt lat="45.64515493611945" lon="8.020346081463355"><ele>685.0</ele><time>2026-05-01T13:38:11Z</time></trkpt><trkpt lat="45.64510657348097" lon="8.020592210123372"><ele>681.0</ele><time>2026-05-01T13:38:12Z</time></trkpt><trkpt lat="45.6450679118961" lon="8.020821731231731"><ele>681.0</ele><time>2026-05-01T13:38:13Z</time></trkpt><trkpt lat="45.6450317289389" lon="8.021023680196139"><ele>681.0</ele><time>2026-05-01T13:38:14Z</time></trkpt><trkpt lat="45.64499841810306" lon="8.02120511861558"><ele>681.0</ele><time>2026-05-01T13:38:15Z</time></trkpt><trkpt lat="45.64496749721693" lon="8.021374324971166"><ele>681.0</ele><time>2026-05-01T13:38:16Z</time></trkpt><trkpt lat="45.64494345650724" lon="8.021528305727628"><ele>679.75</ele><time>2026-05-01T13:38:17Z</time></trkpt><trkpt lat="45.64493045191703" lon="8.021682665299904"><ele>678.5</ele><time>2026-05-01T13:38:18Z</time></trkpt><trkpt lat="45.644933711582006" lon="8.021859432896987"><ele>677.25</ele><time>2026-05-01T13:38:19Z</time></trkpt><trkpt lat="45.64494942243978" lon="8.02203572707643"><ele>676.0</ele><time>2026-05-01T13:38:20Z</time></trkpt><trkpt lat="45.64496433307066" lon="8.02217182373113"><ele>676.0</ele><time>2026-05-01T13:38:21Z</time></trkpt><trkpt lat="45.644965433908844" lon="8.02228337909973"><ele>676.0</ele><time>2026-05-01T13:38:22Z</time></trkpt><trkpt lat="45.64495183608753" lon="8.022387749855616"><ele>676.0</ele><time>2026-05-01T13:38:23Z</time></trkpt><trkpt lat="45.64492047255189" lon="8.022506380388297"><ele>676.0</ele><time>2026-05-01T13:38:23.999Z</time></trkpt><trkpt lat="45.64486869544751" lon="8.02265778010374"><ele>676.0</ele><time>2026-05-01T13:38:24.999Z</time></trkpt><trkpt lat="45.64481101456069" lon="8.022825525996529"><ele>676.25</ele><time>2026-05-01T13:38:25.999Z</time></trkpt><trkpt lat="45.64475237147344" lon="8.02299012977597"><ele>676.5</ele><time>2026-05-01T13:38:26.999Z</time></trkpt><trkpt lat="45.644683141693775" lon="8.023157469418761"><ele>676.75</ele><time>2026-05-01T13:38:27.999Z</time></trkpt><trkpt lat="45.64460529607782" lon="8.02331217327294"><ele>677.0</ele><time>2026-05-01T13:38:28.999Z</time></trkpt><trkpt lat="45.64452382173267" lon="8.023446461659782"><ele>674.0</ele><time>2026-05-01T13:38:29.999Z</time></trkpt><trkpt lat="45.64443755658144" lon="8.023570495317923"><ele>671.0</ele><time>2026-05-01T13:38:30.999Z</time></trkpt><trkpt lat="45.64433816941872" lon="8.023695188116962"><ele>668.0</ele><time>2026-05-01T13:38:31.999Z</time></trkpt><trkpt lat="45.64422235317098" lon="8.023815167461498"><ele>665.0</ele><time>2026-05-01T13:38:32.999Z</time></trkpt><trkpt lat="45.644106381493565" lon="8.023919807813071"><ele>665.0</ele><time>2026-05-01T13:38:33.999Z</time></trkpt><trkpt lat="45.643992415753964" lon="8.02401106096115"><ele>665.0</ele><time>2026-05-01T13:38:34.999Z</time></trkpt><trkpt lat="45.64387119466315" lon="8.024082023941984"><ele>665.0</ele><time>2026-05-01T13:38:35.999Z</time></trkpt><trkpt lat="45.64374616126213" lon="8.024132182312814"><ele>665.0</ele><time>2026-05-01T13:38:36.999Z</time></trkpt><trkpt lat="45.64361599489766" lon="8.024158434557538"><ele>667.3333333333333</ele><time>2026-05-01T13:38:37.999Z</time></trkpt><trkpt lat="45.643467734114395" lon="8.024168827130975"><ele>669.6666666666666</ele><time>2026-05-01T13:38:38.999Z</time></trkpt><trkpt lat="45.643298294258855" lon="8.024177810039495"><ele>672.0</ele><time>2026-05-01T13:38:39.999Z</time></trkpt><trkpt lat="45.64311287935156" lon="8.024184153760997"><ele>672.0</ele><time>2026-05-01T13:38:40.999Z</time></trkpt><trkpt lat="45.6429242368333" lon="8.024189914836343"><ele>672.0</ele><time>2026-05-01T13:38:41.999Z</time></trkpt><trkpt lat="45.64273397771037" lon="8.024207582708952"><ele>672.0</ele><time>2026-05-01T13:38:42.999Z</time></trkpt><trkpt lat="45.642554048453995" lon="8.0242297915183"><ele>668.0</ele><time>2026-05-01T13:38:43.999Z</time></trkpt><trkpt lat="45.64237944408363" lon="8.024272125869523"><ele>664.0</ele><time>2026-05-01T13:38:44.999Z</time></trkpt><trkpt lat="45.64221225264949" lon="8.024311579639344"><ele>660.0</ele><time>2026-05-01T13:38:45.999Z</time></trkpt><trkpt lat="45.64205784231153" lon="8.024349399815547"><ele>658.3333333333334</ele><time>2026-05-01T13:38:46.999Z</time></trkpt><trkpt lat="45.64191509243717" lon="8.024390749308159"><ele>656.6666666666667</ele><time>2026-05-01T13:38:47.999Z</time></trkpt><trkpt lat="45.64177094946457" lon="8.024446531881686"><ele>655.0</ele><time>2026-05-01T13:38:48.999Z</time></trkpt><trkpt lat="45.6416100399364" lon="8.02452214263986"><ele>655.0</ele><time>2026-05-01T13:38:49.999Z</time></trkpt><trkpt lat="45.64143991225535" lon="8.024622869327166"><ele>655.0</ele><time>2026-05-01T13:38:50.999Z</time></trkpt><trkpt lat="45.64127064048834" lon="8.024733914770717"><ele>655.0</ele><time>2026-05-01T13:38:51.999Z</time></trkpt><trkpt lat="45.64111834690417" lon="8.02483921007084"><ele>655.5</ele><time>2026-05-01T13:38:52.999Z</time></trkpt><trkpt lat="45.64099246583997" lon="8.024930175960684"><ele>656.0</ele><time>2026-05-01T13:38:53.999Z</time></trkpt><trkpt lat="45.64087918559424" lon="8.025017506812738"><ele>656.5</ele><time>2026-05-01T13:38:54.999Z</time></trkpt><trkpt lat="45.640757515617175" lon="8.02512329620271"><ele>657.0</ele><time>2026-05-01T13:38:55.999Z</time></trkpt><trkpt lat="45.64063489894132" lon="8.025260045071427"><ele>657.0</ele><time>2026-05-01T13:38:56.999Z</time></trkpt><trkpt lat="45.640509688283636" lon="8.02544147220315"><ele>657.0</ele><time>2026-05-01T13:38:57.999Z</time></trkpt><trkpt lat="45.64038659563649" lon="8.025628406982479"><ele>657.0</ele><time>2026-05-01T13:38:58.999Z</time></trkpt><trkpt lat="45.640287359890834" lon="8.025795608028707"><ele>652.3333333333334</ele><time>2026-05-01T13:38:59.999Z</time></trkpt><trkpt lat="45.64018326905233" lon="8.025956368064048"><ele>647.6666666666667</ele><time>2026-05-01T13:39:00.999Z</time></trkpt><trkpt lat="45.64009671831486" lon="8.026141861409236"><ele>643.0</ele><time>2026-05-01T13:39:01.999Z</time></trkpt><trkpt lat="45.640014690538926" lon="8.026321624228354"><ele>643.0</ele><time>2026-05-01T13:39:02.999Z</time></trkpt><trkpt lat="45.63994203059776" lon="8.026505727685386"><ele>643.0</ele><time>2026-05-01T13:39:04Z</time></trkpt><trkpt lat="45.639868894310574" lon="8.026691718985148"><ele>643.0</ele><time>2026-05-01T13:39:05Z</time></trkpt><trkpt lat="45.63978622074781" lon="8.02689133328079"><ele>650.6666666666667</ele><time>2026-05-01T13:39:06Z</time></trkpt><trkpt lat="45.63969994011585" lon="8.027111786225216"><ele>658.3333333333334</ele><time>2026-05-01T13:39:07Z</time></trkpt><trkpt lat="45.639624449094335" lon="8.027328279675089"><ele>666.0</ele><time>2026-05-01T13:39:08Z</time></trkpt><trkpt lat="45.639556497268615" lon="8.027534460326615"><ele>667.75</ele><time>2026-05-01T13:39:09Z</time></trkpt><trkpt lat="45.63950311912924" lon="8.027730033218829"><ele>669.5</ele><time>2026-05-01T13:39:10Z</time></trkpt><trkpt lat="45.63945410101721" lon="8.027909905394875"><ele>671.25</ele><time>2026-05-01T13:39:11Z</time></trkpt><trkpt lat="45.63940520198555" lon="8.028094095267345"><ele>673.0</ele><time>2026-05-01T13:39:12Z</time></trkpt><trkpt lat="45.63935944994925" lon="8.028280282628497"><ele>663.25</ele><time>2026-05-01T13:39:13Z</time></trkpt><trkpt lat="45.6393205685316" lon="8.028452726242381"><ele>653.5</ele><time>2026-05-01T13:39:14Z</time></trkpt><trkpt lat="45.639279911627284" lon="8.028613066726692"><ele>643.75</ele><time>2026-05-01T13:39:15Z</time></trkpt><trkpt lat="45.639228768700235" lon="8.028776076181058"><ele>634.0</ele><time>2026-05-01T13:39:16Z</time></trkpt><trkpt lat="45.639158447387196" lon="8.028940060020608"><ele>634.0</ele><time>2026-05-01T13:39:17Z</time></trkpt><trkpt lat="45.639081626213745" lon="8.029097867659365"><ele>634.0</ele><time>2026-05-01T13:39:18Z</time></trkpt><trkpt lat="45.6389961305912" lon="8.029238323901382"><ele>634.0</ele><time>2026-05-01T13:39:19Z</time></trkpt><trkpt lat="45.63889237674623" lon="8.029393396997554"><ele>634.0</ele><time>2026-05-01T13:39:20Z</time></trkpt><trkpt lat="45.638788945282904" lon="8.029537621735786"><ele>633.5</ele><time>2026-05-01T13:39:21Z</time></trkpt><trkpt lat="45.63869593963739" lon="8.029670891207118"><ele>633.0</ele><time>2026-05-01T13:39:22Z</time></trkpt><trkpt lat="45.63858313508942" lon="8.029777489185928"><ele>632.5</ele><time>2026-05-01T13:39:23Z</time></trkpt><trkpt lat="45.63847426152068" lon="8.029897390032572"><ele>632.0</ele><time>2026-05-01T13:39:24Z</time></trkpt><trkpt lat="45.638378734582" lon="8.030018732902407"><ele>632.0</ele><time>2026-05-01T13:39:25Z</time></trkpt><trkpt lat="45.63825642382853" lon="8.030083645758848"><ele>632.0</ele><time>2026-05-01T13:39:26Z</time></trkpt><trkpt lat="45.63812035878581" lon="8.030154022798458"><ele>632.0</ele><time>2026-05-01T13:39:27Z</time></trkpt><trkpt lat="45.63795926801173" lon="8.030227790282295"><ele>632.0</ele><time>2026-05-01T13:39:28Z</time></trkpt><trkpt lat="45.63778616790734" lon="8.030324861201676"><ele>632.0</ele><time>2026-05-01T13:39:29Z</time></trkpt><trkpt lat="45.63761883307235" lon="8.030380193199045"><ele>632.0</ele><time>2026-05-01T13:39:30Z</time></trkpt><trkpt lat="45.63747612655785" lon="8.030469525961411"><ele>632.0</ele><time>2026-05-01T13:39:31Z</time></trkpt><trkpt lat="45.63733423975074" lon="8.030511198666028"><ele>632.0</ele><time>2026-05-01T13:39:32Z</time></trkpt><trkpt lat="45.63720366673327" lon="8.030593667355296"><ele>632.0</ele><time>2026-05-01T13:39:33Z</time></trkpt><trkpt lat="45.637084722476395" lon="8.030647966909624"><ele>632.0</ele><time>2026-05-01T13:39:34Z</time></trkpt><trkpt lat="45.63697775941923" lon="8.030701613835676"><ele>632.0</ele><time>2026-05-01T13:39:35Z</time></trkpt><trkpt lat="45.63686462772981" lon="8.030767523360458"><ele>633.3333333333333</ele><time>2026-05-01T13:39:36Z</time></trkpt><trkpt lat="45.63674847445697" lon="8.030868474354106"><ele>634.6666666666666</ele><time>2026-05-01T13:39:37Z</time></trkpt><trkpt lat="45.63662520889756" lon="8.031003404639726"><ele>636.0</ele><time>2026-05-01T13:39:38Z</time></trkpt><trkpt lat="45.63650021720871" lon="8.03118533179168"><ele>636.0</ele><time>2026-05-01T13:39:39Z</time></trkpt><trkpt lat="45.636384880770976" lon="8.031361026275752"><ele>636.0</ele><time>2026-05-01T13:39:40Z</time></trkpt><trkpt lat="45.636280579111286" lon="8.031503285807116"><ele>636.0</ele><time>2026-05-01T13:39:41Z</time></trkpt><trkpt lat="45.636179271326675" lon="8.031642905875364"><ele>633.0</ele><time>2026-05-01T13:39:42Z</time></trkpt><trkpt lat="45.63608981485895" lon="8.031766145361786"><ele>630.0</ele><time>2026-05-01T13:39:43Z</time></trkpt><trkpt lat="45.63600923849697" lon="8.031886380637763"><ele>627.0</ele><time>2026-05-01T13:39:44Z</time></trkpt><trkpt lat="45.63592974491801" lon="8.032039194259696"><ele>624.0</ele><time>2026-05-01T13:39:45Z</time></trkpt><trkpt lat="45.63585324208662" lon="8.032219027175202"><ele>624.0</ele><time>2026-05-01T13:39:46Z</time></trkpt><trkpt lat="45.6357688644219" lon="8.032405512178302"><ele>624.0</ele><time>2026-05-01T13:39:47Z</time></trkpt><trkpt lat="45.63569490020563" lon="8.032605091429758"><ele>624.0</ele><time>2026-05-01T13:39:48Z</time></trkpt><trkpt lat="45.635588065322054" lon="8.03279133355575"><ele>623.75</ele><time>2026-05-01T13:39:49Z</time></trkpt><trkpt lat="45.63549758422432" lon="8.032974214838571"><ele>623.5</ele><time>2026-05-01T13:39:50Z</time></trkpt><trkpt lat="45.635406814472766" lon="8.03311915542785"><ele>623.25</ele><time>2026-05-01T13:39:51Z</time></trkpt><trkpt lat="45.63532057909454" lon="8.033282284489449"><ele>623.0</ele><time>2026-05-01T13:39:52Z</time></trkpt><trkpt lat="45.635244778253345" lon="8.033435650318921"><ele>623.0</ele><time>2026-05-01T13:39:53Z</time></trkpt><trkpt lat="45.635167215723705" lon="8.033579492701186"><ele>623.0</ele><time>2026-05-01T13:39:54Z</time></trkpt><trkpt lat="45.63509259779556" lon="8.033707349738107"><ele>623.0</ele><time>2026-05-01T13:39:55Z</time></trkpt><trkpt lat="45.63502079456638" lon="8.033826871056858"><ele>623.0</ele><time>2026-05-01T13:39:56Z</time></trkpt><trkpt lat="45.63494703220916" lon="8.033942503617526"><ele>623.0</ele><time>2026-05-01T13:39:57Z</time></trkpt><trkpt lat="45.63486073318119" lon="8.034062651441003"><ele>623.0</ele><time>2026-05-01T13:39:58Z</time></trkpt><trkpt lat="45.63477442005619" lon="8.03418319592336"><ele>623.0</ele><time>2026-05-01T13:39:59Z</time></trkpt><trkpt lat="45.63469850812099" lon="8.034294172178209"><ele>623.0</ele><time>2026-05-01T13:40:00Z</time></trkpt><trkpt lat="45.63461977268823" lon="8.034413028722321"><ele>623.0</ele><time>2026-05-01T13:40:01Z</time></trkpt><trkpt lat="45.63455505956704" lon="8.03454258731845"><ele>623.0</ele><time>2026-05-01T13:40:02Z</time></trkpt><trkpt lat="45.63450241744997" lon="8.034674615756686"><ele>623.0</ele><time>2026-05-01T13:40:03Z</time></trkpt><trkpt lat="45.6344551206559" lon="8.034811087708217"><ele>623.0</ele><time>2026-05-01T13:40:04Z</time></trkpt><trkpt lat="45.63439895461041" lon="8.034941902718051"><ele>623.0</ele><time>2026-05-01T13:40:05Z</time></trkpt><trkpt lat="45.63433572317092" lon="8.035061942676"><ele>623.0</ele><time>2026-05-01T13:40:06Z</time></trkpt><trkpt lat="45.634271338854916" lon="8.035170063366532"><ele>623.0</ele><time>2026-05-01T13:40:07Z</time></trkpt><trkpt lat="45.6341969690031" lon="8.035268226520282"><ele>623.0</ele><time>2026-05-01T13:40:08Z</time></trkpt><trkpt lat="45.634103936070325" lon="8.035353186337513"><ele>623.0</ele><time>2026-05-01T13:40:09Z</time></trkpt><trkpt lat="45.63399711294145" lon="8.035416475243203"><ele>623.0</ele><time>2026-05-01T13:40:10Z</time></trkpt><trkpt lat="45.63387720664466" lon="8.035450558186437"><ele>623.0</ele><time>2026-05-01T13:40:11Z</time></trkpt><trkpt lat="45.63374121640666" lon="8.03545857424255"><ele>623.0</ele><time>2026-05-01T13:40:12Z</time></trkpt><trkpt lat="45.6336189965538" lon="8.035458324854568"><ele>623.0</ele><time>2026-05-01T13:40:13Z</time></trkpt><trkpt lat="45.633512780203915" lon="8.035458704701462"><ele>623.0</ele><time>2026-05-01T13:40:14Z</time></trkpt><trkpt lat="45.633415374611474" lon="8.035469944013263"><ele>623.8</ele><time>2026-05-01T13:40:15Z</time></trkpt><trkpt lat="45.63333103907786" lon="8.035493096608088"><ele>624.5999999999999</ele><time>2026-05-01T13:40:16Z</time></trkpt><trkpt lat="45.633241248008645" lon="8.03554374645739"><ele>625.4000000000001</ele><time>2026-05-01T13:40:17Z</time></trkpt><trkpt lat="45.633155548910864" lon="8.035643844482307"><ele>626.2</ele><time>2026-05-01T13:40:18Z</time></trkpt><trkpt lat="45.63307798597527" lon="8.03578258772568"><ele>627.0</ele><time>2026-05-01T13:40:19Z</time></trkpt><trkpt lat="45.63300512224582" lon="8.035947802917791"><ele>627.0</ele><time>2026-05-01T13:40:20Z</time></trkpt><trkpt lat="45.63294621434197" lon="8.0360836440111"><ele>627.0</ele><time>2026-05-01T13:40:21Z</time></trkpt><trkpt lat="45.63288380200414" lon="8.03620815888149"><ele>627.0</ele><time>2026-05-01T13:40:22Z</time></trkpt><trkpt lat="45.632829521700536" lon="8.036333220306355"><ele>627.0</ele><time>2026-05-01T13:40:23Z</time></trkpt><trkpt lat="45.632793347618495" lon="8.0365041735537"><ele>627.0</ele><time>2026-05-01T13:40:23.999Z</time></trkpt><trkpt lat="45.632770843870524" lon="8.036707569344811"><ele>623.0</ele><time>2026-05-01T13:40:24.999Z</time></trkpt><trkpt lat="45.63275797148845" lon="8.036923004576954"><ele>619.0</ele><time>2026-05-01T13:40:25.999Z</time></trkpt><trkpt lat="45.632738484765014" lon="8.037119953849063"><ele>615.0</ele><time>2026-05-01T13:40:26.999Z</time></trkpt><trkpt lat="45.632723493222535" lon="8.037307102541378"><ele>611.0</ele><time>2026-05-01T13:40:27.999Z</time></trkpt><trkpt lat="45.6326902257319" lon="8.03747574723878"><ele>611.0</ele><time>2026-05-01T13:40:28.999Z</time></trkpt><trkpt lat="45.63267194122394" lon="8.037634275138302"><ele>611.0</ele><time>2026-05-01T13:40:29.999Z</time></trkpt><trkpt lat="45.63265560882902" lon="8.037775877951413"><ele>611.0</ele><time>2026-05-01T13:40:30.999Z</time></trkpt><trkpt lat="45.632638605876586" lon="8.037923294111554"><ele>611.0</ele><time>2026-05-01T13:40:31.999Z</time></trkpt><trkpt lat="45.63261990612294" lon="8.038058747974523"><ele>611.0</ele><time>2026-05-01T13:40:32.999Z</time></trkpt><trkpt lat="45.63259174573027" lon="8.038207059084312"><ele>612.25</ele><time>2026-05-01T13:40:33.999Z</time></trkpt><trkpt lat="45.63254490926177" lon="8.038358884821609"><ele>613.5</ele><time>2026-05-01T13:40:34.999Z</time></trkpt><trkpt lat="45.63248012015173" lon="8.038495195399408"><ele>614.75</ele><time>2026-05-01T13:40:35.999Z</time></trkpt><trkpt lat="45.632395243601025" lon="8.03861758929028"><ele>616.0</ele><time>2026-05-01T13:40:36.999Z</time></trkpt><trkpt lat="45.632301012668336" lon="8.038753219847816"><ele>616.0</ele><time>2026-05-01T13:40:37.999Z</time></trkpt><trkpt lat="45.63218742293746" lon="8.038915678093105"><ele>616.0</ele><time>2026-05-01T13:40:38.999Z</time></trkpt><trkpt lat="45.63205076859769" lon="8.039109976990744"><ele>616.0</ele><time>2026-05-01T13:40:39.999Z</time></trkpt><trkpt lat="45.63191237335138" lon="8.039306402273954"><ele>613.3333333333334</ele><time>2026-05-01T13:40:40.999Z</time></trkpt><trkpt lat="45.63178689984862" lon="8.039493058942005"><ele>610.6666666666666</ele><time>2026-05-01T13:40:41.999Z</time></trkpt><trkpt lat="45.631677686819685" lon="8.03966405688923"><ele>608.0</ele><time>2026-05-01T13:40:42.999Z</time></trkpt><trkpt lat="45.631580824429754" lon="8.039819672305601"><ele>608.0</ele><time>2026-05-01T13:40:43.999Z</time></trkpt><trkpt lat="45.63150044629121" lon="8.039963150606658"><ele>608.0</ele><time>2026-05-01T13:40:44.999Z</time></trkpt><trkpt lat="45.63142449627762" lon="8.040099504101855"><ele>608.0</ele><time>2026-05-01T13:40:45.999Z</time></trkpt><trkpt lat="45.63133436551782" lon="8.040264906209176"><ele>608.0</ele><time>2026-05-01T13:40:46.999Z</time></trkpt><trkpt lat="45.63122548489525" lon="8.04046777343888"><ele>608.0</ele><time>2026-05-01T13:40:47.999Z</time></trkpt><trkpt lat="45.63109801101297" lon="8.040705449290227"><ele>608.0</ele><time>2026-05-01T13:40:48.999Z</time></trkpt><trkpt lat="45.63096696754185" lon="8.040950126756456"><ele>608.0</ele><time>2026-05-01T13:40:49.999Z</time></trkpt><trkpt lat="45.63084931339" lon="8.041207408920013"><ele>608.0</ele><time>2026-05-01T13:40:50.999Z</time></trkpt><trkpt lat="45.63073717122726" lon="8.041410943929591"><ele>608.0</ele><time>2026-05-01T13:40:51.999Z</time></trkpt><trkpt lat="45.63063412373633" lon="8.041602896618377"><ele>608.0</ele><time>2026-05-01T13:40:52.999Z</time></trkpt><trkpt lat="45.63052271183233" lon="8.041810499076995"><ele>606.3333333333333</ele><time>2026-05-01T13:40:53.999Z</time></trkpt><trkpt lat="45.63041019624282" lon="8.042014608130147"><ele>604.6666666666666</ele><time>2026-05-01T13:40:54.999Z</time></trkpt><trkpt lat="45.6303129230109" lon="8.042189728002194"><ele>603.0</ele><time>2026-05-01T13:40:55.999Z</time></trkpt><trkpt lat="45.630209410029025" lon="8.042335749954084"><ele>604.5</ele><time>2026-05-01T13:40:56.999Z</time></trkpt><trkpt lat="45.63010660914611" lon="8.042472590672508"><ele>606.0</ele><time>2026-05-01T13:40:57.999Z</time></trkpt><trkpt lat="45.62998476939861" lon="8.042585990215077"><ele>607.5</ele><time>2026-05-01T13:40:58.999Z</time></trkpt><trkpt lat="45.62983476506126" lon="8.042678588108217"><ele>609.0</ele><time>2026-05-01T13:40:59.999Z</time></trkpt><trkpt lat="45.629651373250454" lon="8.042781599916168"><ele>606.0</ele><time>2026-05-01T13:41:00.999Z</time></trkpt><trkpt lat="45.62945109126405" lon="8.042893242077533"><ele>603.0</ele><time>2026-05-01T13:41:01.999Z</time></trkpt><trkpt lat="45.62923976516546" lon="8.043032542305326"><ele>600.0</ele><time>2026-05-01T13:41:02.999Z</time></trkpt><trkpt lat="45.62902269676046" lon="8.043151811524423"><ele>600.0</ele><time>2026-05-01T13:41:03.999Z</time></trkpt><trkpt lat="45.628823335863785" lon="8.043236137550451"><ele>600.0</ele><time>2026-05-01T13:41:04.999Z</time></trkpt><trkpt lat="45.628640168984596" lon="8.043335989585874"><ele>600.0</ele><time>2026-05-01T13:41:05.999Z</time></trkpt><trkpt lat="45.62847221936167" lon="8.043427546041464"><ele>600.0</ele><time>2026-05-01T13:41:06.999Z</time></trkpt><trkpt lat="45.62830876950577" lon="8.043516649044975"><ele>600.0</ele><time>2026-05-01T13:41:07.999Z</time></trkpt><trkpt lat="45.628142672231476" lon="8.043605402311576"><ele>600.0</ele><time>2026-05-01T13:41:08.999Z</time></trkpt><trkpt lat="45.62798074814715" lon="8.043692048021262"><ele>600.0</ele><time>2026-05-01T13:41:10Z</time></trkpt><trkpt lat="45.62782705539545" lon="8.043795100799283"><ele>600.0</ele><time>2026-05-01T13:41:11Z</time></trkpt><trkpt lat="45.62766823790713" lon="8.04387807256317"><ele>600.0</ele><time>2026-05-01T13:41:12Z</time></trkpt><trkpt lat="45.627510181194424" lon="8.043952242652736"><ele>598.0</ele><time>2026-05-01T13:41:13Z</time></trkpt><trkpt lat="45.62734337297792" lon="8.044025232992743"><ele>596.0</ele><time>2026-05-01T13:41:14Z</time></trkpt><trkpt lat="45.627175498932274" lon="8.04408150524832"><ele>594.0</ele><time>2026-05-01T13:41:15Z</time></trkpt><trkpt lat="45.6269912027135" lon="8.044120368878247"><ele>592.3333333333334</ele><time>2026-05-01T13:41:16Z</time></trkpt><trkpt lat="45.62679900892067" lon="8.044128770112478"><ele>590.6666666666667</ele><time>2026-05-01T13:41:17Z</time></trkpt><trkpt lat="45.626610872587925" lon="8.04418415770395"><ele>589.0</ele><time>2026-05-01T13:41:18Z</time></trkpt><trkpt lat="45.6264421139038" lon="8.04420967273921"><ele>590.5</ele><time>2026-05-01T13:41:19Z</time></trkpt><trkpt lat="45.62629587428572" lon="8.044229484915832"><ele>592.0</ele><time>2026-05-01T13:41:20Z</time></trkpt><trkpt lat="45.62615087013551" lon="8.044243585492485"><ele>593.5</ele><time>2026-05-01T13:41:21Z</time></trkpt><trkpt lat="45.62602841697861" lon="8.044224893583637"><ele>595.0</ele><time>2026-05-01T13:41:22Z</time></trkpt><trkpt lat="45.62592210203172" lon="8.044242873891987"><ele>595.0</ele><time>2026-05-01T13:41:23Z</time></trkpt><trkpt lat="45.62580914441063" lon="8.04423608334588"><ele>595.0</ele><time>2026-05-01T13:41:24Z</time></trkpt><trkpt lat="45.62569138026641" lon="8.044260223670886"><ele>595.0</ele><time>2026-05-01T13:41:25Z</time></trkpt><trkpt lat="45.62557835971533" lon="8.0443273148527"><ele>595.0</ele><time>2026-05-01T13:41:26Z</time></trkpt><trkpt lat="45.62547119316893" lon="8.044437800294743"><ele>595.0</ele><time>2026-05-01T13:41:27Z</time></trkpt><trkpt lat="45.62536706102428" lon="8.044598296784494"><ele>595.0</ele><time>2026-05-01T13:41:28Z</time></trkpt><trkpt lat="45.625258142551864" lon="8.044760230905611"><ele>595.0</ele><time>2026-05-01T13:41:29Z</time></trkpt><trkpt lat="45.62513446687284" lon="8.04488770771198"><ele>596.6666666666667</ele><time>2026-05-01T13:41:30Z</time></trkpt><trkpt lat="45.62498103276772" lon="8.044970832667632"><ele>598.3333333333334</ele><time>2026-05-01T13:41:31Z</time></trkpt><trkpt lat="45.62482830221726" lon="8.045046811312407"><ele>600.0</ele><time>2026-05-01T13:41:32Z</time></trkpt><trkpt lat="45.62466399694873" lon="8.045106672649625"><ele>599.0</ele><time>2026-05-01T13:41:33Z</time></trkpt><trkpt lat="45.6244766850829" lon="8.045167001418434"><ele>598.0</ele><time>2026-05-01T13:41:34Z</time></trkpt><trkpt lat="45.62427596117444" lon="8.045229760967153"><ele>597.0</ele><time>2026-05-01T13:41:35Z</time></trkpt><trkpt lat="45.6240558282717" lon="8.04531860747115"><ele>597.0</ele><time>2026-05-01T13:41:36Z</time></trkpt><trkpt lat="45.623840464545026" lon="8.045380483730254"><ele>597.0</ele><time>2026-05-01T13:41:37Z</time></trkpt><trkpt lat="45.623637023062884" lon="8.045446951740653"><ele>597.0</ele><time>2026-05-01T13:41:38Z</time></trkpt><trkpt lat="45.62343784003361" lon="8.04551802161165"><ele>596.6666666666666</ele><time>2026-05-01T13:41:39Z</time></trkpt><trkpt lat="45.62325093293776" lon="8.045596873664154"><ele>596.3333333333333</ele><time>2026-05-01T13:41:40Z</time></trkpt><trkpt lat="45.6230753659352" lon="8.045662878509122"><ele>596.0</ele><time>2026-05-01T13:41:41Z</time></trkpt><trkpt lat="45.62291503072939" lon="8.045726747927825"><ele>595.3333333333333</ele><time>2026-05-01T13:41:42Z</time></trkpt><trkpt lat="45.62276337337602" lon="8.045795774664144"><ele>594.6666666666666</ele><time>2026-05-01T13:41:43Z</time></trkpt><trkpt lat="45.62261357708736" lon="8.04586211589264"><ele>594.0</ele><time>2026-05-01T13:41:44Z</time></trkpt><trkpt lat="45.6224763823601" lon="8.045922940359288"><ele>594.0</ele><time>2026-05-01T13:41:45Z</time></trkpt><trkpt lat="45.62233211838987" lon="8.045987453266791"><ele>594.0</ele><time>2026-05-01T13:41:46Z</time></trkpt><trkpt lat="45.62216314217399" lon="8.04606257065721"><ele>594.0</ele><time>2026-05-01T13:41:47Z</time></trkpt><trkpt lat="45.62198564407122" lon="8.046133089720513"><ele>593.6666666666666</ele><time>2026-05-01T13:41:48Z</time></trkpt><trkpt lat="45.62180727173127" lon="8.046169905999395"><ele>593.3333333333333</ele><time>2026-05-01T13:41:49Z</time></trkpt><trkpt lat="45.62163932609562" lon="8.046229568770855"><ele>593.0</ele><time>2026-05-01T13:41:50Z</time></trkpt><trkpt lat="45.62146945338606" lon="8.046254134721057"><ele>593.0</ele><time>2026-05-01T13:41:51Z</time></trkpt><trkpt lat="45.621308522260506" lon="8.046253985200687"><ele>593.0</ele><time>2026-05-01T13:41:52Z</time></trkpt><trkpt lat="45.62114482188837" lon="8.046279989430424"><ele>593.0</ele><time>2026-05-01T13:41:53Z</time></trkpt><trkpt lat="45.6209827877788" lon="8.046359939316122"><ele>591.6666666666666</ele><time>2026-05-01T13:41:54Z</time></trkpt><trkpt lat="45.62081722363139" lon="8.04644298623777"><ele>590.3333333333334</ele><time>2026-05-01T13:41:55Z</time></trkpt><trkpt lat="45.62064487196944" lon="8.046553443267388"><ele>589.0</ele><time>2026-05-01T13:41:56Z</time></trkpt><trkpt lat="45.62047432279853" lon="8.046661856918638"><ele>589.6666666666667</ele><time>2026-05-01T13:41:57Z</time></trkpt><trkpt lat="45.62031033732539" lon="8.046746386768726"><ele>590.3333333333334</ele><time>2026-05-01T13:41:58Z</time></trkpt><trkpt lat="45.62014215524398" lon="8.046817880630131"><ele>591.0</ele><time>2026-05-01T13:41:59Z</time></trkpt><trkpt lat="45.61997537910316" lon="8.046874873973229"><ele>591.0</ele><time>2026-05-01T13:42:00Z</time></trkpt><trkpt lat="45.6198101280967" lon="8.046932155681425"><ele>591.0</ele><time>2026-05-01T13:42:01Z</time></trkpt><trkpt lat="45.619638154959546" lon="8.047012244423772"><ele>591.0</ele><time>2026-05-01T13:42:02Z</time></trkpt><trkpt lat="45.61947178231225" lon="8.04711294937399"><ele>588.0</ele><time>2026-05-01T13:42:03Z</time></trkpt><trkpt lat="45.61932013480284" lon="8.047213936301787"><ele>585.0</ele><time>2026-05-01T13:42:04Z</time></trkpt><trkpt lat="45.61917337296664" lon="8.047309629599907"><ele>582.0</ele><time>2026-05-01T13:42:05Z</time></trkpt><trkpt lat="45.61903939285198" lon="8.047399842711389"><ele>580.75</ele><time>2026-05-01T13:42:06Z</time></trkpt><trkpt lat="45.618919460381065" lon="8.047486921048218"><ele>579.5</ele><time>2026-05-01T13:42:07Z</time></trkpt><trkpt lat="45.61881437422847" lon="8.047588627568127"><ele>578.25</ele><time>2026-05-01T13:42:08Z</time></trkpt><trkpt lat="45.61871510280226" lon="8.047720685861412"><ele>577.0</ele><time>2026-05-01T13:42:09Z</time></trkpt><trkpt lat="45.61862136363309" lon="8.047893787812354"><ele>577.0</ele><time>2026-05-01T13:42:10Z</time></trkpt><trkpt lat="45.61853267704824" lon="8.048104925742278"><ele>577.0</ele><time>2026-05-01T13:42:11Z</time></trkpt><trkpt lat="45.618443067653295" lon="8.04833073605313"><ele>577.0</ele><time>2026-05-01T13:42:12Z</time></trkpt><trkpt lat="45.618330395771025" lon="8.048535110533576"><ele>578.6666666666667</ele><time>2026-05-01T13:42:13Z</time></trkpt><trkpt lat="45.61824568456694" lon="8.048733077519199"><ele>580.3333333333334</ele><time>2026-05-01T13:42:14Z</time></trkpt><trkpt lat="45.6181401030512" lon="8.048895492075218"><ele>582.0</ele><time>2026-05-01T13:42:15Z</time></trkpt><trkpt lat="45.61802540543494" lon="8.049042288896976"><ele>583.5</ele><time>2026-05-01T13:42:16Z</time></trkpt><trkpt lat="45.61790113386858" lon="8.049166775480497"><ele>585.0</ele><time>2026-05-01T13:42:17Z</time></trkpt><trkpt lat="45.617768886649856" lon="8.049277269778267"><ele>586.5</ele><time>2026-05-01T13:42:18Z</time></trkpt><trkpt lat="45.617639468883596" lon="8.049365074826852"><ele>588.0</ele><time>2026-05-01T13:42:19Z</time></trkpt><trkpt lat="45.61751459735416" lon="8.049394483999526"><ele>584.5</ele><time>2026-05-01T13:42:20Z</time></trkpt><trkpt lat="45.61740044637558" lon="8.04940915685093"><ele>581.0</ele><time>2026-05-01T13:42:21Z</time></trkpt><trkpt lat="45.617276565798676" lon="8.049432925227235"><ele>577.5</ele><time>2026-05-01T13:42:22Z</time></trkpt><trkpt lat="45.61714617994307" lon="8.049420728120962"><ele>574.0</ele><time>2026-05-01T13:42:22.999Z</time></trkpt><trkpt lat="45.61700717370965" lon="8.049367557969159"><ele>573.25</ele><time>2026-05-01T13:42:23.999Z</time></trkpt><trkpt lat="45.61686093093047" lon="8.049388595137126"><ele>572.5</ele><time>2026-05-01T13:42:24.999Z</time></trkpt><trkpt lat="45.616725403733604" lon="8.049359612635804"><ele>571.75</ele><time>2026-05-01T13:42:25.999Z</time></trkpt><trkpt lat="45.616591744257974" lon="8.049327082113066"><ele>571.0</ele><time>2026-05-01T13:42:26.999Z</time></trkpt><trkpt lat="45.61643661422353" lon="8.04928751612304"><ele>571.0</ele><time>2026-05-01T13:42:27.999Z</time></trkpt><trkpt lat="45.61627553788656" lon="8.049244829962287"><ele>571.0</ele><time>2026-05-01T13:42:28.999Z</time></trkpt><trkpt lat="45.616117070693335" lon="8.049211579815449"><ele>571.0</ele><time>2026-05-01T13:42:29.999Z</time></trkpt><trkpt lat="45.61596052407614" lon="8.04918654850368"><ele>570.25</ele><time>2026-05-01T13:42:30.999Z</time></trkpt><trkpt lat="45.61581871583641" lon="8.049168597061096"><ele>569.5</ele><time>2026-05-01T13:42:31.999Z</time></trkpt><trkpt lat="45.615678813333815" lon="8.049169204499737"><ele>568.75</ele><time>2026-05-01T13:42:32.999Z</time></trkpt><trkpt lat="45.61553150335655" lon="8.049190377882415"><ele>568.0</ele><time>2026-05-01T13:42:33.999Z</time></trkpt><trkpt lat="45.61539101437124" lon="8.049230233528414"><ele>567.0</ele><time>2026-05-01T13:42:34.999Z</time></trkpt><trkpt lat="45.61525699940121" lon="8.049280751607109"><ele>566.0</ele><time>2026-05-01T13:42:35.999Z</time></trkpt><trkpt lat="45.61512700088385" lon="8.049303530648189"><ele>565.0</ele><time>2026-05-01T13:42:36.999Z</time></trkpt><trkpt lat="45.615005184377715" lon="8.049372134471545"><ele>564.0</ele><time>2026-05-01T13:42:37.999Z</time></trkpt><trkpt lat="45.61486912057516" lon="8.049413440269545"><ele>564.0</ele><time>2026-05-01T13:42:38.999Z</time></trkpt><trkpt lat="45.614723708499696" lon="8.049460878699476"><ele>564.0</ele><time>2026-05-01T13:42:39.999Z</time></trkpt><trkpt lat="45.61457611256861" lon="8.04952476971885"><ele>564.0</ele><time>2026-05-01T13:42:40.999Z</time></trkpt><trkpt lat="45.614431463189824" lon="8.049605229159056"><ele>563.0</ele><time>2026-05-01T13:42:41.999Z</time></trkpt><trkpt lat="45.614298854273535" lon="8.049701904525588"><ele>562.0</ele><time>2026-05-01T13:42:42.999Z</time></trkpt><trkpt lat="45.614173434181204" lon="8.049813679200499"><ele>561.0</ele><time>2026-05-01T13:42:43.999Z</time></trkpt><trkpt lat="45.61406118622019" lon="8.049935264879256"><ele>560.0</ele><time>2026-05-01T13:42:44.999Z</time></trkpt><trkpt lat="45.61394852373124" lon="8.05008282636525"><ele>560.0</ele><time>2026-05-01T13:42:45.999Z</time></trkpt><trkpt lat="45.61383632723531" lon="8.05025481133671"><ele>560.0</ele><time>2026-05-01T13:42:46.999Z</time></trkpt><trkpt lat="45.61372769596791" lon="8.050445378825613"><ele>560.0</ele><time>2026-05-01T13:42:47.999Z</time></trkpt><trkpt lat="45.61363052303399" lon="8.050624058135085"><ele>559.5</ele><time>2026-05-01T13:42:48.999Z</time></trkpt><trkpt lat="45.6135431929416" lon="8.050784850153192"><ele>559.0</ele><time>2026-05-01T13:42:49.999Z</time></trkpt><trkpt lat="45.61346025764684" lon="8.050939028803665"><ele>558.5</ele><time>2026-05-01T13:42:50.999Z</time></trkpt><trkpt lat="45.61337264065883" lon="8.051093039666645"><ele>558.0</ele><time>2026-05-01T13:42:51.999Z</time></trkpt><trkpt lat="45.61329205104393" lon="8.05123677370176"><ele>558.0</ele><time>2026-05-01T13:42:52.999Z</time></trkpt><trkpt lat="45.61321540266565" lon="8.05136777360919"><ele>558.0</ele><time>2026-05-01T13:42:53.999Z</time></trkpt><trkpt lat="45.613121851015286" lon="8.051468117270991"><ele>558.0</ele><time>2026-05-01T13:42:54.999Z</time></trkpt><trkpt lat="45.61303460580368" lon="8.05157647839913"><ele>558.0</ele><time>2026-05-01T13:42:55.999Z</time></trkpt><trkpt lat="45.612944971205025" lon="8.051695851538488"><ele>557.75</ele><time>2026-05-01T13:42:56.999Z</time></trkpt><trkpt lat="45.61283761932137" lon="8.051798208706588"><ele>557.5</ele><time>2026-05-01T13:42:57.999Z</time></trkpt><trkpt lat="45.612720671451356" lon="8.051885726369768"><ele>557.25</ele><time>2026-05-01T13:42:58.999Z</time></trkpt><trkpt lat="45.61261491886623" lon="8.051949338780076"><ele>557.0</ele><time>2026-05-01T13:42:59.999Z</time></trkpt><trkpt lat="45.612527948576506" lon="8.052003658474348"><ele>557.0</ele><time>2026-05-01T13:43:00.999Z</time></trkpt><trkpt lat="45.61244467180727" lon="8.052019138531243"><ele>557.0</ele><time>2026-05-01T13:43:01.999Z</time></trkpt><trkpt lat="45.61236747973341" lon="8.052050916843625"><ele>557.0</ele><time>2026-05-01T13:43:02.999Z</time></trkpt><trkpt lat="45.61229517743145" lon="8.052077529283181"><ele>557.0</ele><time>2026-05-01T13:43:03.999Z</time></trkpt><trkpt lat="45.61222647121177" lon="8.05210243258544"><ele>557.0</ele><time>2026-05-01T13:43:04.999Z</time></trkpt><trkpt lat="45.61215851748166" lon="8.052149381016548"><ele>557.0</ele><time>2026-05-01T13:43:05.999Z</time></trkpt><trkpt lat="45.612088605338386" lon="8.052175006782958"><ele>557.0</ele><time>2026-05-01T13:43:06.999Z</time></trkpt><trkpt lat="45.6120170389296" lon="8.05220359595225"><ele>557.0</ele><time>2026-05-01T13:43:07.999Z</time></trkpt><trkpt lat="45.61193384295459" lon="8.052234399195413"><ele>557.0</ele><time>2026-05-01T13:43:08.999Z</time></trkpt><trkpt lat="45.611840883841495" lon="8.05226654548352"><ele>557.0</ele><time>2026-05-01T13:43:09.999Z</time></trkpt><trkpt lat="45.61175011858188" lon="8.052297126831958"><ele>557.0</ele><time>2026-05-01T13:43:10.999Z</time></trkpt><trkpt lat="45.61166619667548" lon="8.052326552702663"><ele>557.0</ele><time>2026-05-01T13:43:11.999Z</time></trkpt><trkpt lat="45.61157808399143" lon="8.052359640729751"><ele>556.4</ele><time>2026-05-01T13:43:12.999Z</time></trkpt><trkpt lat="45.61148793515909" lon="8.052392187670574"><ele>555.8000000000001</ele><time>2026-05-01T13:43:13.999Z</time></trkpt><trkpt lat="45.61139920675423" lon="8.052422256377275"><ele>555.2</ele><time>2026-05-01T13:43:15Z</time></trkpt><trkpt lat="45.611312990078645" lon="8.052451335288714"><ele>554.6</ele><time>2026-05-01T13:43:16Z</time></trkpt><trkpt lat="45.61122232509304" lon="8.052484654056077"><ele>554.0</ele><time>2026-05-01T13:43:17Z</time></trkpt><trkpt lat="45.611126652148656" lon="8.05252372630737"><ele>553.0</ele><time>2026-05-01T13:43:18Z</time></trkpt><trkpt lat="45.6110342030336" lon="8.05256038483523"><ele>552.0</ele><time>2026-05-01T13:43:19Z</time></trkpt><trkpt lat="45.61094083531334" lon="8.052594518939818"><ele>551.0</ele><time>2026-05-01T13:43:20Z</time></trkpt><trkpt lat="45.61085038812601" lon="8.052623516958173"><ele>550.0</ele><time>2026-05-01T13:43:21Z</time></trkpt><trkpt lat="45.61076514248295" lon="8.052652269337552"><ele>549.0</ele><time>2026-05-01T13:43:22Z</time></trkpt><trkpt lat="45.610682210669324" lon="8.052680693674606"><ele>549.0</ele><time>2026-05-01T13:43:23Z</time></trkpt><trkpt lat="45.610586418202004" lon="8.052714044155493"><ele>549.0</ele><time>2026-05-01T13:43:24Z</time></trkpt><trkpt lat="45.61049366190488" lon="8.052749786048246"><ele>549.0</ele><time>2026-05-01T13:43:25Z</time></trkpt><trkpt lat="45.61039895925722" lon="8.05278800391386"><ele>549.0</ele><time>2026-05-01T13:43:26Z</time></trkpt><trkpt lat="45.610295290194486" lon="8.052820368954583"><ele>549.0</ele><time>2026-05-01T13:43:27Z</time></trkpt><trkpt lat="45.6102003972687" lon="8.052857974563059"><ele>548.4</ele><time>2026-05-01T13:43:28Z</time></trkpt><trkpt lat="45.61010032373606" lon="8.05288973776609"><ele>547.8</ele><time>2026-05-01T13:43:29Z</time></trkpt><trkpt lat="45.61000481318267" lon="8.052927249852074"><ele>547.2</ele><time>2026-05-01T13:43:30Z</time></trkpt><trkpt lat="45.609911617026185" lon="8.052957942772363"><ele>546.6</ele><time>2026-05-01T13:43:31Z</time></trkpt><trkpt lat="45.60981666752231" lon="8.05299115034047"><ele>546.0</ele><time>2026-05-01T13:43:32Z</time></trkpt><trkpt lat="45.60972222244765" lon="8.053026196276317"><ele>546.0</ele><time>2026-05-01T13:43:33Z</time></trkpt><trkpt lat="45.6096277601479" lon="8.053056570716436"><ele>546.0</ele><time>2026-05-01T13:43:34Z</time></trkpt><trkpt lat="45.60953564321733" lon="8.053089104369862"><ele>546.0</ele><time>2026-05-01T13:43:35Z</time></trkpt><trkpt lat="45.60943919474516" lon="8.053124911683007"><ele>546.0</ele><time>2026-05-01T13:43:36Z</time></trkpt><trkpt lat="45.60933710627384" lon="8.053159313925644"><ele>546.0</ele><time>2026-05-01T13:43:37Z</time></trkpt><trkpt lat="45.60923234079883" lon="8.053197183152736"><ele>545.5</ele><time>2026-05-01T13:43:38Z</time></trkpt><trkpt lat="45.609123639514145" lon="8.053240234900757"><ele>545.0</ele><time>2026-05-01T13:43:39Z</time></trkpt><trkpt lat="45.60900857719163" lon="8.053281680585213"><ele>544.5</ele><time>2026-05-01T13:43:40Z</time></trkpt><trkpt lat="45.60889119842019" lon="8.0533250582215"><ele>544.0</ele><time>2026-05-01T13:43:41Z</time></trkpt><trkpt lat="45.60877248751859" lon="8.053364103718309"><ele>542.75</ele><time>2026-05-01T13:43:42Z</time></trkpt><trkpt lat="45.60864222840711" lon="8.053382885724723"><ele>541.5</ele><time>2026-05-01T13:43:43Z</time></trkpt><trkpt lat="45.608502557560065" lon="8.0533750664378"><ele>540.25</ele><time>2026-05-01T13:43:44Z</time></trkpt><trkpt lat="45.60836964832221" lon="8.053360922466403"><ele>539.0</ele><time>2026-05-01T13:43:45Z</time></trkpt><trkpt lat="45.60824381673594" lon="8.05333880903542"><ele>539.0</ele><time>2026-05-01T13:43:46Z</time></trkpt><trkpt lat="45.6081083437564" lon="8.0533201398892"><ele>539.0</ele><time>2026-05-01T13:43:47Z</time></trkpt><trkpt lat="45.60797883153943" lon="8.053309600410543"><ele>539.0</ele><time>2026-05-01T13:43:48Z</time></trkpt><trkpt lat="45.60785350005884" lon="8.053324816559918"><ele>539.0</ele><time>2026-05-01T13:43:49Z</time></trkpt><trkpt lat="45.6077215020782" lon="8.053358859133947"><ele>539.5</ele><time>2026-05-01T13:43:50Z</time></trkpt><trkpt lat="45.60758145355742" lon="8.053410547740192"><ele>540.0</ele><time>2026-05-01T13:43:51Z</time></trkpt><trkpt lat="45.60745393237789" lon="8.053456172311234"><ele>540.5</ele><time>2026-05-01T13:43:52Z</time></trkpt><trkpt lat="45.60731090455914" lon="8.053481575205236"><ele>541.0</ele><time>2026-05-01T13:43:53Z</time></trkpt><trkpt lat="45.607132062103226" lon="8.053538516704275"><ele>539.3333333333334</ele><time>2026-05-01T13:43:54Z</time></trkpt><trkpt lat="45.60694882698934" lon="8.053597521370374"><ele>537.6666666666666</ele><time>2026-05-01T13:43:55Z</time></trkpt><trkpt lat="45.606769264028934" lon="8.053657450904408"><ele>536.0</ele><time>2026-05-01T13:43:56Z</time></trkpt><trkpt lat="45.606582884131335" lon="8.053719655545832"><ele>536.0</ele><time>2026-05-01T13:43:57Z</time></trkpt><trkpt lat="45.60639359223298" lon="8.05380557193431"><ele>536.0</ele><time>2026-05-01T13:43:58Z</time></trkpt><trkpt lat="45.60619430433004" lon="8.053868381317645"><ele>536.0</ele><time>2026-05-01T13:43:59Z</time></trkpt><trkpt lat="45.60600190058784" lon="8.053933142302396"><ele>534.0</ele><time>2026-05-01T13:44:00Z</time></trkpt><trkpt lat="45.60580443108485" lon="8.054004245244775"><ele>532.0</ele><time>2026-05-01T13:44:01Z</time></trkpt><trkpt lat="45.605604250625404" lon="8.054051498317776"><ele>530.0</ele><time>2026-05-01T13:44:02Z</time></trkpt><trkpt lat="45.60542437332194" lon="8.054112557204078"><ele>529.3333333333333</ele><time>2026-05-01T13:44:03Z</time></trkpt><trkpt lat="45.60524636099146" lon="8.054172966510652"><ele>528.6666666666666</ele><time>2026-05-01T13:44:04Z</time></trkpt><trkpt lat="45.6050730724914" lon="8.054231774543949"><ele>528.0</ele><time>2026-05-01T13:44:05Z</time></trkpt><trkpt lat="45.604903400160374" lon="8.054281478626809"><ele>528.0</ele><time>2026-05-01T13:44:06Z</time></trkpt><trkpt lat="45.60474453862374" lon="8.054337636272814"><ele>528.0</ele><time>2026-05-01T13:44:07Z</time></trkpt><trkpt lat="45.60459489793726" lon="8.054341081044651"><ele>528.0</ele><time>2026-05-01T13:44:08Z</time></trkpt><trkpt lat="45.60445074813434" lon="8.054294297528743"><ele>527.0</ele><time>2026-05-01T13:44:09Z</time></trkpt><trkpt lat="45.60430451927396" lon="8.054283413393694"><ele>526.0</ele><time>2026-05-01T13:44:10Z</time></trkpt><trkpt lat="45.604169608376" lon="8.054258754632988"><ele>525.0</ele><time>2026-05-01T13:44:11Z</time></trkpt><trkpt lat="45.60403416658023" lon="8.054269448653267"><ele>524.0</ele><time>2026-05-01T13:44:12Z</time></trkpt><trkpt lat="45.60389386667487" lon="8.054321648396192"><ele>524.0</ele><time>2026-05-01T13:44:13Z</time></trkpt><trkpt lat="45.603748931525416" lon="8.054405643894757"><ele>524.0</ele><time>2026-05-01T13:44:14Z</time></trkpt><trkpt lat="45.60360995499024" lon="8.054514451657319"><ele>524.0</ele><time>2026-05-01T13:44:15Z</time></trkpt><trkpt lat="45.60349473922115" lon="8.054645247272402"><ele>523.5</ele><time>2026-05-01T13:44:16Z</time></trkpt><trkpt lat="45.603396087941015" lon="8.054800323227054"><ele>523.0</ele><time>2026-05-01T13:44:17Z</time></trkpt><trkpt lat="45.60331546040947" lon="8.054979010149548"><ele>522.5</ele><time>2026-05-01T13:44:18Z</time></trkpt><trkpt lat="45.60325110309258" lon="8.055153785691827"><ele>522.0</ele><time>2026-05-01T13:44:19Z</time></trkpt><trkpt lat="45.603204009545415" lon="8.055299801141386"><ele>522.0</ele><time>2026-05-01T13:44:20Z</time></trkpt><trkpt lat="45.60315667004011" lon="8.055413296992008"><ele>522.0</ele><time>2026-05-01T13:44:21Z</time></trkpt><trkpt lat="45.60310097272568" lon="8.055508387176998"><ele>522.0</ele><time>2026-05-01T13:44:22Z</time></trkpt><trkpt lat="45.60299219581983" lon="8.055564053131418"><ele>522.0</ele><time>2026-05-01T13:44:23Z</time></trkpt><trkpt lat="45.60293004678014" lon="8.055752773012841"><ele>522.0</ele><time>2026-05-01T13:44:23.999Z</time></trkpt><trkpt lat="45.60283138169573" lon="8.055906270132883"><ele>520.0</ele><time>2026-05-01T13:44:24.999Z</time></trkpt><trkpt lat="45.6027213841665" lon="8.056065450647615"><ele>518.0</ele><time>2026-05-01T13:44:25.999Z</time></trkpt><trkpt lat="45.60261002307392" lon="8.05620271101312"><ele>516.0</ele><time>2026-05-01T13:44:26.999Z</time></trkpt><trkpt lat="45.60249418852967" lon="8.056306060311366"><ele>514.0</ele><time>2026-05-01T13:44:27.999Z</time></trkpt><trkpt lat="45.60240039607388" lon="8.056429664487679"><ele>514.0</ele><time>2026-05-01T13:44:28.999Z</time></trkpt><trkpt lat="45.60231495533644" lon="8.056529240933793"><ele>514.0</ele><time>2026-05-01T13:44:29.999Z</time></trkpt><trkpt lat="45.60222615074231" lon="8.056609236772987"><ele>514.0</ele><time>2026-05-01T13:44:30.999Z</time></trkpt><trkpt lat="45.60211243868792" lon="8.056689553395671"><ele>514.0</ele><time>2026-05-01T13:44:31.999Z</time></trkpt><trkpt lat="45.60197010646347" lon="8.05672424119348"><ele>515.6666666666667</ele><time>2026-05-01T13:44:32.999Z</time></trkpt><trkpt lat="45.601801372572055" lon="8.056749057498202"><ele>517.3333333333334</ele><time>2026-05-01T13:44:33.999Z</time></trkpt><trkpt lat="45.60162926719393" lon="8.056758810161611"><ele>519.0</ele><time>2026-05-01T13:44:34.999Z</time></trkpt><trkpt lat="45.60145479731457" lon="8.056743298676004"><ele>519.0</ele><time>2026-05-01T13:44:35.999Z</time></trkpt><trkpt lat="45.60127486422314" lon="8.056716796044482"><ele>519.0</ele><time>2026-05-01T13:44:36.999Z</time></trkpt><trkpt lat="45.60109356440181" lon="8.056691600960356"><ele>519.0</ele><time>2026-05-01T13:44:37.999Z</time></trkpt><trkpt lat="45.60092739715323" lon="8.056684492360551"><ele>518.0</ele><time>2026-05-01T13:44:38.999Z</time></trkpt><trkpt lat="45.60075679776418" lon="8.056688521006317"><ele>517.0</ele><time>2026-05-01T13:44:39.999Z</time></trkpt><trkpt lat="45.60058094884833" lon="8.05671191008208"><ele>516.0</ele><time>2026-05-01T13:44:40.999Z</time></trkpt><trkpt lat="45.60039572916989" lon="8.05675409195607"><ele>515.3333333333334</ele><time>2026-05-01T13:44:41.999Z</time></trkpt><trkpt lat="45.60019251263727" lon="8.05682561953475"><ele>514.6666666666667</ele><time>2026-05-01T13:44:42.999Z</time></trkpt><trkpt lat="45.599963230337764" lon="8.056909832447364"><ele>514.0</ele><time>2026-05-01T13:44:43.999Z</time></trkpt><trkpt lat="45.59973307711217" lon="8.056980735033118"><ele>514.0</ele><time>2026-05-01T13:44:44.999Z</time></trkpt><trkpt lat="45.59952938163168" lon="8.05704579590413"><ele>514.0</ele><time>2026-05-01T13:44:45.999Z</time></trkpt><trkpt lat="45.59933866177462" lon="8.057107561047415"><ele>514.0</ele><time>2026-05-01T13:44:46.999Z</time></trkpt><trkpt lat="45.59916317386366" lon="8.057162989846965"><ele>511.6666666666667</ele><time>2026-05-01T13:44:47.999Z</time></trkpt><trkpt lat="45.59897964139146" lon="8.057214625793048"><ele>509.33333333333337</ele><time>2026-05-01T13:44:48.999Z</time></trkpt><trkpt lat="45.59879770818882" lon="8.057279643131798"><ele>507.0</ele><time>2026-05-01T13:44:49.999Z</time></trkpt><trkpt lat="45.59862814819257" lon="8.057335823373757"><ele>504.66666666666663</ele><time>2026-05-01T13:44:50.999Z</time></trkpt><trkpt lat="45.59845726399793" lon="8.057387904826848"><ele>502.3333333333333</ele><time>2026-05-01T13:44:51.999Z</time></trkpt><trkpt lat="45.59828360534141" lon="8.057443844221304"><ele>500.0</ele><time>2026-05-01T13:44:52.999Z</time></trkpt><trkpt lat="45.598116230728664" lon="8.057500457412676"><ele>506.0</ele><time>2026-05-01T13:44:53.999Z</time></trkpt><trkpt lat="45.59795775002927" lon="8.057546815846603"><ele>512.0</ele><time>2026-05-01T13:44:54.999Z</time></trkpt><trkpt lat="45.5978105196326" lon="8.057582754775277"><ele>518.0</ele><time>2026-05-01T13:44:55.999Z</time></trkpt><trkpt lat="45.597664117450776" lon="8.05760446242627"><ele>518.0</ele><time>2026-05-01T13:44:56.999Z</time></trkpt><trkpt lat="45.597507390262074" lon="8.057612483181577"><ele>518.0</ele><time>2026-05-01T13:44:57.999Z</time></trkpt><trkpt lat="45.59733186787427" lon="8.057595516753734"><ele>518.0</ele><time>2026-05-01T13:44:58.999Z</time></trkpt><trkpt lat="45.59714073662964" lon="8.057562681663125"><ele>518.0</ele><time>2026-05-01T13:44:59.999Z</time></trkpt><trkpt lat="45.596948509280956" lon="8.057534822331238"><ele>518.0</ele><time>2026-05-01T13:45:00.999Z</time></trkpt><trkpt lat="45.596751111835104" lon="8.057502172999168"><ele>518.0</ele><time>2026-05-01T13:45:01.999Z</time></trkpt><trkpt lat="45.59656315886081" lon="8.057455280287838"><ele>509.0</ele><time>2026-05-01T13:45:02.999Z</time></trkpt><trkpt lat="45.59638024218827" lon="8.05739583043323"><ele>500.0</ele><time>2026-05-01T13:45:03.999Z</time></trkpt><trkpt lat="45.596206913860726" lon="8.057293590302702"><ele>491.0</ele><time>2026-05-01T13:45:04.999Z</time></trkpt><trkpt lat="45.59600577936703" lon="8.057230393780404"><ele>491.0</ele><time>2026-05-01T13:45:05.999Z</time></trkpt><trkpt lat="45.59580592417477" lon="8.057195909477283"><ele>491.0</ele><time>2026-05-01T13:45:06.999Z</time></trkpt><trkpt lat="45.59562915846938" lon="8.057147529710273"><ele>491.0</ele><time>2026-05-01T13:45:07.999Z</time></trkpt><trkpt lat="45.595478845211986" lon="8.057103384373885"><ele>489.3333333333333</ele><time>2026-05-01T13:45:08.999Z</time></trkpt><trkpt lat="45.595330555023" lon="8.057075406179855"><ele>487.66666666666663</ele><time>2026-05-01T13:45:09.999Z</time></trkpt><trkpt lat="45.59517508363968" lon="8.057082377900107"><ele>486.0</ele><time>2026-05-01T13:45:10.999Z</time></trkpt><trkpt lat="45.594996790752106" lon="8.057108608956371"><ele>486.0</ele><time>2026-05-01T13:45:11.999Z</time></trkpt><trkpt lat="45.59482614207555" lon="8.05712785429865"><ele>486.0</ele><time>2026-05-01T13:45:12.999Z</time></trkpt><trkpt lat="45.594675064640214" lon="8.057145333101651"><ele>486.0</ele><time>2026-05-01T13:45:13.999Z</time></trkpt><trkpt lat="45.594534018414734" lon="8.057163195180962"><ele>483.0</ele><time>2026-05-01T13:45:14.999Z</time></trkpt><trkpt lat="45.59440871520072" lon="8.05720340831338"><ele>480.0</ele><time>2026-05-01T13:45:15.999Z</time></trkpt><trkpt lat="45.59429063391914" lon="8.05725510794438"><ele>477.0</ele><time>2026-05-01T13:45:16.999Z</time></trkpt><trkpt lat="45.59417203204898" lon="8.057331471593686"><ele>474.0</ele><time>2026-05-01T13:45:17.999Z</time></trkpt><trkpt lat="45.59405939674021" lon="8.057487110929392"><ele>481.25</ele><time>2026-05-01T13:45:18.999Z</time></trkpt><trkpt lat="45.59395378836139" lon="8.057658225873357"><ele>488.5</ele><time>2026-05-01T13:45:19.999Z</time></trkpt><trkpt lat="45.593902363942604" lon="8.057836858616028"><ele>495.75</ele><time>2026-05-01T13:45:21Z</time></trkpt><trkpt lat="45.59383904585513" lon="8.057959395954441"><ele>503.0</ele><time>2026-05-01T13:45:22Z</time></trkpt><trkpt lat="45.59378477424319" lon="8.058069658134391"><ele>503.0</ele><time>2026-05-01T13:45:23Z</time></trkpt><trkpt lat="45.59372240351836" lon="8.058143844492829"><ele>502.99999999999994</ele><time>2026-05-01T13:45:24Z</time></trkpt><trkpt lat="45.593647353472264" lon="8.058184554331026"><ele>502.99999999999994</ele><time>2026-05-01T13:45:25Z</time></trkpt><trkpt lat="45.593558346845285" lon="8.058164310292339"><ele>503.0</ele><time>2026-05-01T13:45:26Z</time></trkpt><trkpt lat="45.5934332171099" lon="8.058163721789642"><ele>503.0</ele><time>2026-05-01T13:45:27Z</time></trkpt><trkpt lat="45.59328721354741" lon="8.058163062974312"><ele>494.0</ele><time>2026-05-01T13:45:28Z</time></trkpt><trkpt lat="45.593126969029605" lon="8.058157704499187"><ele>485.0</ele><time>2026-05-01T13:45:29Z</time></trkpt><trkpt lat="45.59296977023837" lon="8.058162535489307"><ele>476.0</ele><time>2026-05-01T13:45:30Z</time></trkpt><trkpt lat="45.59284177840409" lon="8.058096491519512"><ele>475.25</ele><time>2026-05-01T13:45:31Z</time></trkpt><trkpt lat="45.59272571484473" lon="8.058032775452563"><ele>474.5</ele><time>2026-05-01T13:45:32Z</time></trkpt><trkpt lat="45.59261115524368" lon="8.058022692184936"><ele>473.75</ele><time>2026-05-01T13:45:33Z</time></trkpt><trkpt lat="45.5924737031189" lon="8.058021002858844"><ele>473.0</ele><time>2026-05-01T13:45:34Z</time></trkpt><trkpt lat="45.59231753487055" lon="8.058059974248449"><ele>473.0</ele><time>2026-05-01T13:45:35Z</time></trkpt><trkpt lat="45.59215818232466" lon="8.058114014183442"><ele>473.0</ele><time>2026-05-01T13:45:36Z</time></trkpt><trkpt lat="45.591995763170786" lon="8.058166196320471"><ele>473.0</ele><time>2026-05-01T13:45:37Z</time></trkpt><trkpt lat="45.59181318463164" lon="8.058192220167488"><ele>471.66666666666663</ele><time>2026-05-01T13:45:38Z</time></trkpt><trkpt lat="45.59162233501435" lon="8.058162580862097"><ele>470.33333333333337</ele><time>2026-05-01T13:45:39Z</time></trkpt><trkpt lat="45.5914261779192" lon="8.058145798827981"><ele>469.0</ele><time>2026-05-01T13:45:40Z</time></trkpt><trkpt lat="45.591250796817604" lon="8.058170779010975"><ele>470.0</ele><time>2026-05-01T13:45:41Z</time></trkpt><trkpt lat="45.59109797298202" lon="8.05817433193004"><ele>471.0</ele><time>2026-05-01T13:45:42Z</time></trkpt><trkpt lat="45.59095980109959" lon="8.058130583712185"><ele>472.0</ele><time>2026-05-01T13:45:43Z</time></trkpt><trkpt lat="45.59081509416377" lon="8.05807184269798"><ele>473.0</ele><time>2026-05-01T13:45:44Z</time></trkpt><trkpt lat="45.590641882482565" lon="8.058002854960842"><ele>473.0</ele><time>2026-05-01T13:45:45Z</time></trkpt><trkpt lat="45.590463313086524" lon="8.057896411099176"><ele>473.0</ele><time>2026-05-01T13:45:46Z</time></trkpt><trkpt lat="45.59026885898649" lon="8.05781224453596"><ele>473.0</ele><time>2026-05-01T13:45:47Z</time></trkpt><trkpt lat="45.590084340331394" lon="8.057751378352624"><ele>474.3333333333333</ele><time>2026-05-01T13:45:48Z</time></trkpt><trkpt lat="45.589916295478304" lon="8.057713099387879"><ele>475.66666666666663</ele><time>2026-05-01T13:45:49Z</time></trkpt><trkpt lat="45.58976635063353" lon="8.057683097941176"><ele>477.0</ele><time>2026-05-01T13:45:50Z</time></trkpt><trkpt lat="45.58962723149525" lon="8.057674858747681"><ele>476.66666666666663</ele><time>2026-05-01T13:45:51Z</time></trkpt><trkpt lat="45.58948922397005" lon="8.057689047620178"><ele>476.3333333333333</ele><time>2026-05-01T13:45:52Z</time></trkpt><trkpt lat="45.58933714175812" lon="8.057732208476148"><ele>476.0</ele><time>2026-05-01T13:45:53Z</time></trkpt><trkpt lat="45.589165294110856" lon="8.05778201509481"><ele>476.0</ele><time>2026-05-01T13:45:54Z</time></trkpt><trkpt lat="45.58899300086832" lon="8.05787263890867"><ele>476.0</ele><time>2026-05-01T13:45:55Z</time></trkpt><trkpt lat="45.58882081888301" lon="8.057971359064558"><ele>476.0</ele><time>2026-05-01T13:45:56Z</time></trkpt><trkpt lat="45.5886385697426" lon="8.058081545331863"><ele>475.5</ele><time>2026-05-01T13:45:57Z</time></trkpt><trkpt lat="45.58847157844917" lon="8.058182507059103"><ele>475.0</ele><time>2026-05-01T13:45:58Z</time></trkpt><trkpt lat="45.58834744773469" lon="8.058257555522474"><ele>474.5</ele><time>2026-05-01T13:45:59Z</time></trkpt><trkpt lat="45.588243527270414" lon="8.058319983274902"><ele>474.0</ele><time>2026-05-01T13:46:00Z</time></trkpt><trkpt lat="45.58814596855134" lon="8.058378830817016"><ele>475.0</ele><time>2026-05-01T13:46:01Z</time></trkpt><trkpt lat="45.58803256702419" lon="8.058449320709903"><ele>476.0</ele><time>2026-05-01T13:46:02Z</time></trkpt><trkpt lat="45.587897109687695" lon="8.05853351829187"><ele>477.0</ele><time>2026-05-01T13:46:03Z</time></trkpt><trkpt lat="45.587768520864316" lon="8.058613446528513"><ele>478.0</ele><time>2026-05-01T13:46:04Z</time></trkpt><trkpt lat="45.58764730945667" lon="8.058688789136232"><ele>478.0</ele><time>2026-05-01T13:46:05Z</time></trkpt><trkpt lat="45.58752627191766" lon="8.05878745350901"><ele>478.0</ele><time>2026-05-01T13:46:06Z</time></trkpt><trkpt lat="45.58738189918649" lon="8.058877926297907"><ele>478.0</ele><time>2026-05-01T13:46:07Z</time></trkpt><trkpt lat="45.58722122444432" lon="8.05895451193178"><ele>478.0</ele><time>2026-05-01T13:46:08Z</time></trkpt><trkpt lat="45.58705399631448" lon="8.059058867263365"><ele>478.0</ele><time>2026-05-01T13:46:09Z</time></trkpt><trkpt lat="45.58690047566007" lon="8.05915466840281"><ele>478.0</ele><time>2026-05-01T13:46:10Z</time></trkpt><trkpt lat="45.586761360132485" lon="8.059241480268385"><ele>476.75</ele><time>2026-05-01T13:46:11Z</time></trkpt><trkpt lat="45.5866348226879" lon="8.059319620836915"><ele>475.5</ele><time>2026-05-01T13:46:12Z</time></trkpt><trkpt lat="45.586513525706714" lon="8.059395215188783"><ele>474.25</ele><time>2026-05-01T13:46:13Z</time></trkpt><trkpt lat="45.58639160545864" lon="8.059467886392735"><ele>473.0</ele><time>2026-05-01T13:46:14Z</time></trkpt><trkpt lat="45.58628641477049" lon="8.059548671343581"><ele>473.0</ele><time>2026-05-01T13:46:15Z</time></trkpt><trkpt lat="45.586185737337665" lon="8.059587398118904"><ele>473.0</ele><time>2026-05-01T13:46:16Z</time></trkpt><trkpt lat="45.586075666993615" lon="8.059580694868508"><ele>473.0</ele><time>2026-05-01T13:46:17Z</time></trkpt><trkpt lat="45.5859651077073" lon="8.059561416399161"><ele>473.0</ele><time>2026-05-01T13:46:18Z</time></trkpt><trkpt lat="45.58582032157733" lon="8.059525818192801"><ele>472.25</ele><time>2026-05-01T13:46:19Z</time></trkpt><trkpt lat="45.585659473895795" lon="8.059486898399207"><ele>471.5</ele><time>2026-05-01T13:46:20Z</time></trkpt><trkpt lat="45.5855144888317" lon="8.059448490819449"><ele>470.75</ele><time>2026-05-01T13:46:21Z</time></trkpt><trkpt lat="45.58539435946311" lon="8.059418600364511"><ele>470.0</ele><time>2026-05-01T13:46:22Z</time></trkpt><trkpt lat="45.58528357000921" lon="8.059390949051485"><ele>469.4</ele><time>2026-05-01T13:46:23Z</time></trkpt><trkpt lat="45.58518041994273" lon="8.059362402328679"><ele>468.8</ele><time>2026-05-01T13:46:23.999Z</time></trkpt><trkpt lat="45.58507773193244" lon="8.059332429067547"><ele>468.20000000000005</ele><time>2026-05-01T13:46:24.999Z</time></trkpt><trkpt lat="45.58498144843564" lon="8.059282265650847"><ele>467.6</ele><time>2026-05-01T13:46:25.999Z</time></trkpt><trkpt lat="45.58487627542918" lon="8.059252286164774"><ele>467.0</ele><time>2026-05-01T13:46:26.999Z</time></trkpt><trkpt lat="45.58476283570139" lon="8.059220368152586"><ele>467.0</ele><time>2026-05-01T13:46:28Z</time></trkpt><trkpt lat="45.58464078953233" lon="8.05918602852827"><ele>467.0</ele><time>2026-05-01T13:46:28.999Z</time></trkpt><trkpt lat="45.58451797964673" lon="8.059151474115845"><ele>467.0</ele><time>2026-05-01T13:46:29.999Z</time></trkpt><trkpt lat="45.58440186084396" lon="8.059119055474815"><ele>467.0</ele><time>2026-05-01T13:46:30.999Z</time></trkpt><trkpt lat="45.5842834895926" lon="8.05908617704398"><ele>462.75</ele><time>2026-05-01T13:46:31.999Z</time></trkpt><trkpt lat="45.584162338388026" lon="8.059072959495984"><ele>458.5</ele><time>2026-05-01T13:46:32.999Z</time></trkpt><trkpt lat="45.584046840733905" lon="8.059019125926321"><ele>454.25</ele><time>2026-05-01T13:46:33.999Z</time></trkpt><trkpt lat="45.583938224484335" lon="8.058987976740891"><ele>450.0</ele><time>2026-05-01T13:46:34.999Z</time></trkpt><trkpt lat="45.58384244518799" lon="8.058960494044499"><ele>450.0</ele><time>2026-05-01T13:46:35.999Z</time></trkpt><trkpt lat="45.583755097475134" lon="8.05893535993862"><ele>450.0</ele><time>2026-05-01T13:46:36.999Z</time></trkpt><trkpt lat="45.58365358998989" lon="8.05890625995279"><ele>450.0</ele><time>2026-05-01T13:46:37.999Z</time></trkpt><trkpt lat="45.58354455552996" lon="8.058875079376346"><ele>450.0</ele><time>2026-05-01T13:46:38.999Z</time></trkpt><trkpt lat="45.583445893236075" lon="8.058846863221092"><ele>450.0</ele><time>2026-05-01T13:46:39.999Z</time></trkpt><trkpt lat="45.58335351466341" lon="8.058820444091515"><ele>450.6666666666667</ele><time>2026-05-01T13:46:40.999Z</time></trkpt><trkpt lat="45.58327901568205" lon="8.058799143952474"><ele>451.33333333333337</ele><time>2026-05-01T13:46:41.999Z</time></trkpt><trkpt lat="45.58317790633793" lon="8.058770261138541"><ele>452.0</ele><time>2026-05-01T13:46:43.999Z</time></trkpt><trkpt lat="45.583097075799486" lon="8.058747171079048"><ele>452.6666666666667</ele><time>2026-05-01T13:46:46.999Z</time></trkpt><trkpt lat="45.58303205635492" lon="8.058728597628274"><ele>453.33333333333337</ele><time>2026-05-01T13:46:48.999Z</time></trkpt><trkpt lat="45.5829367818133" lon="8.058702966609168"><ele>454.0</ele><time>2026-05-01T13:46:50.999Z</time></trkpt><trkpt lat="45.58286825943327" lon="8.058709012379714"><ele>454.4</ele><time>2026-05-01T13:46:51.999Z</time></trkpt><trkpt lat="45.58278324424125" lon="8.058688646903887"><ele>454.79999999999995</ele><time>2026-05-01T13:46:52.999Z</time></trkpt><trkpt lat="45.58270068944579" lon="8.058645261598597"><ele>455.20000000000005</ele><time>2026-05-01T13:46:53.999Z</time></trkpt><trkpt lat="45.58261431708331" lon="8.05861929233413"><ele>455.6</ele><time>2026-05-01T13:46:54.999Z</time></trkpt><trkpt lat="45.58252148025501" lon="8.058590946923331"><ele>456.0</ele><time>2026-05-01T13:46:55.999Z</time></trkpt><trkpt lat="45.582428110487974" lon="8.058560982325405"><ele>456.0</ele><time>2026-05-01T13:46:56.999Z</time></trkpt><trkpt lat="45.58232963975563" lon="8.058529380707064"><ele>456.0</ele><time>2026-05-01T13:46:57.999Z</time></trkpt><trkpt lat="45.582223012773774" lon="8.0584951615381"><ele>456.0</ele><time>2026-05-01T13:46:58.999Z</time></trkpt><trkpt lat="45.58211165032247" lon="8.058456188491805"><ele>456.0</ele><time>2026-05-01T13:46:59.999Z</time></trkpt><trkpt lat="45.58201561363356" lon="8.05841903808879"><ele>456.0</ele><time>2026-05-01T13:47:00.999Z</time></trkpt><trkpt lat="45.58192215739412" lon="8.058378756330704"><ele>456.0</ele><time>2026-05-01T13:47:01.999Z</time></trkpt><trkpt lat="45.581830142685064" lon="8.058336840749215"><ele>456.0</ele><time>2026-05-01T13:47:02.999Z</time></trkpt><trkpt lat="45.581734193034" lon="8.058310789362736"><ele>456.0</ele><time>2026-05-01T13:47:03.999Z</time></trkpt><trkpt lat="45.581649949766856" lon="8.058234839789447"><ele>456.0</ele><time>2026-05-01T13:47:04.999Z</time></trkpt><trkpt lat="45.581554163006516" lon="8.058172557934348"><ele>456.0</ele><time>2026-05-01T13:47:05.999Z</time></trkpt><trkpt lat="45.58145148652461" lon="8.058099943775087"><ele>453.6</ele><time>2026-05-01T13:47:06.999Z</time></trkpt><trkpt lat="45.58135343323014" lon="8.058027469774334"><ele>451.20000000000005</ele><time>2026-05-01T13:47:07.999Z</time></trkpt><trkpt lat="45.58126191459154" lon="8.05795848979594"><ele>448.79999999999995</ele><time>2026-05-01T13:47:08.999Z</time></trkpt><trkpt lat="45.581170044497746" lon="8.057889244925759"><ele>446.4</ele><time>2026-05-01T13:47:09.999Z</time></trkpt><trkpt lat="45.5810686891045" lon="8.057812850707974"><ele>444.0</ele><time>2026-05-01T13:47:10.999Z</time></trkpt><trkpt lat="45.580966461104275" lon="8.05773462977648"><ele>444.0</ele><time>2026-05-01T13:47:11.999Z</time></trkpt><trkpt lat="45.58086505542978" lon="8.057655784120263"><ele>444.0</ele><time>2026-05-01T13:47:12.999Z</time></trkpt><trkpt lat="45.58074899769771" lon="8.0575655461194"><ele>444.0</ele><time>2026-05-01T13:47:13.999Z</time></trkpt><trkpt lat="45.580629222011154" lon="8.057472417326204"><ele>444.0</ele><time>2026-05-01T13:47:14.999Z</time></trkpt><trkpt lat="45.580510377304314" lon="8.057380012413772"><ele>440.33333333333337</ele><time>2026-05-01T13:47:15.999Z</time></trkpt><trkpt lat="45.58038762185349" lon="8.057286000444824"><ele>436.6666666666667</ele><time>2026-05-01T13:47:16.999Z</time></trkpt><trkpt lat="45.580251865521866" lon="8.057182459229344"><ele>433.0</ele><time>2026-05-01T13:47:17.999Z</time></trkpt><trkpt lat="45.580113179153436" lon="8.057074449601126"><ele>433.0</ele><time>2026-05-01T13:47:18.999Z</time></trkpt><trkpt lat="45.579976774428125" lon="8.056982151957907"><ele>433.0</ele><time>2026-05-01T13:47:19.999Z</time></trkpt><trkpt lat="45.57986087589971" lon="8.05685230089723"><ele>433.0</ele><time>2026-05-01T13:47:20.999Z</time></trkpt><trkpt lat="45.579742027038776" lon="8.056747448839173"><ele>433.0</ele><time>2026-05-01T13:47:21.999Z</time></trkpt><trkpt lat="45.57964538686723" lon="8.056619165544193"><ele>431.0</ele><time>2026-05-01T13:47:22.999Z</time></trkpt><trkpt lat="45.57955268172069" lon="8.056478672184946"><ele>429.0</ele><time>2026-05-01T13:47:23.999Z</time></trkpt><trkpt lat="45.579457042116914" lon="8.056317863333819"><ele>427.0</ele><time>2026-05-01T13:47:24.999Z</time></trkpt><trkpt lat="45.57937141298138" lon="8.056129884633147"><ele>425.0</ele><time>2026-05-01T13:47:25.999Z</time></trkpt><trkpt lat="45.57929248929568" lon="8.055952629233735"><ele>427.0</ele><time>2026-05-01T13:47:27Z</time></trkpt><trkpt lat="45.57922016767871" lon="8.05576519894363"><ele>429.0</ele><time>2026-05-01T13:47:28Z</time></trkpt><trkpt lat="45.57915877630953" lon="8.055547182920483"><ele>431.0</ele><time>2026-05-01T13:47:29Z</time></trkpt><trkpt lat="45.57909494870339" lon="8.05532587459618"><ele>431.0</ele><time>2026-05-01T13:47:30Z</time></trkpt><trkpt lat="45.579008977083454" lon="8.05509439506013"><ele>431.0</ele><time>2026-05-01T13:47:31Z</time></trkpt><trkpt lat="45.578904550921074" lon="8.054853439752168"><ele>431.0</ele><time>2026-05-01T13:47:32Z</time></trkpt><trkpt lat="45.57878596755331" lon="8.05459381391708"><ele>429.3333333333333</ele><time>2026-05-01T13:47:33Z</time></trkpt><trkpt lat="45.57867838407926" lon="8.054347000717788"><ele>427.66666666666663</ele><time>2026-05-01T13:47:34Z</time></trkpt><trkpt lat="45.57858225472214" lon="8.054123601992108"><ele>426.0</ele><time>2026-05-01T13:47:35Z</time></trkpt><trkpt lat="45.57849415778057" lon="8.053930176836053"><ele>426.0</ele><time>2026-05-01T13:47:36Z</time></trkpt><trkpt lat="45.57841328122103" lon="8.053748912967782"><ele>426.0</ele><time>2026-05-01T13:47:37Z</time></trkpt><trkpt lat="45.57833759612309" lon="8.053582031862526"><ele>426.0</ele><time>2026-05-01T13:47:38Z</time></trkpt><trkpt lat="45.57825197067831" lon="8.053421863410085"><ele>426.0</ele><time>2026-05-01T13:47:39Z</time></trkpt><trkpt lat="45.57814733779751" lon="8.053257048666884"><ele>423.66666666666663</ele><time>2026-05-01T13:47:40Z</time></trkpt><trkpt lat="45.57801962182772" lon="8.053101184948629"><ele>421.3333333333333</ele><time>2026-05-01T13:47:41Z</time></trkpt><trkpt lat="45.57790300908591" lon="8.052950925191718"><ele>419.0</ele><time>2026-05-01T13:47:42Z</time></trkpt><trkpt lat="45.5777650122246" lon="8.052832848180763"><ele>419.0</ele><time>2026-05-01T13:47:43Z</time></trkpt><trkpt lat="45.57761834255142" lon="8.05273675216605"><ele>419.0</ele><time>2026-05-01T13:47:44Z</time></trkpt><trkpt lat="45.577479146582625" lon="8.052653262855413"><ele>419.0</ele><time>2026-05-01T13:47:45Z</time></trkpt><trkpt lat="45.577343529891536" lon="8.052604257693805"><ele>419.0</ele><time>2026-05-01T13:47:46Z</time></trkpt><trkpt lat="45.57720339780909" lon="8.052574133963148"><ele>419.0</ele><time>2026-05-01T13:47:47Z</time></trkpt><trkpt lat="45.577065397763974" lon="8.052609344696606"><ele>419.0</ele><time>2026-05-01T13:47:48Z</time></trkpt><trkpt lat="45.57693342427379" lon="8.052637659755195"><ele>419.0</ele><time>2026-05-01T13:47:49Z</time></trkpt><trkpt lat="45.5767871326734" lon="8.052691716017074"><ele>418.3333333333333</ele><time>2026-05-01T13:47:50Z</time></trkpt><trkpt lat="45.576611531635855" lon="8.052758319777208"><ele>417.66666666666663</ele><time>2026-05-01T13:47:51Z</time></trkpt><trkpt lat="45.576422948429794" lon="8.052849740521639"><ele>417.0</ele><time>2026-05-01T13:47:52Z</time></trkpt><trkpt lat="45.57626324769096" lon="8.052925142333994"><ele>415.5</ele><time>2026-05-01T13:47:53Z</time></trkpt><trkpt lat="45.57611395051321" lon="8.052970091497015"><ele>414.0</ele><time>2026-05-01T13:47:54Z</time></trkpt><trkpt lat="45.57597516380186" lon="8.05302936546101"><ele>412.5</ele><time>2026-05-01T13:47:55Z</time></trkpt><trkpt lat="45.5758392549403" lon="8.053109701849845"><ele>411.0</ele><time>2026-05-01T13:47:56Z</time></trkpt><trkpt lat="45.575708790136986" lon="8.053163684559841"><ele>411.0</ele><time>2026-05-01T13:47:57Z</time></trkpt><trkpt lat="45.57558275764317" lon="8.053219760503687"><ele>411.0</ele><time>2026-05-01T13:47:58Z</time></trkpt><trkpt lat="45.57545461279506" lon="8.053274246956498"><ele>411.0</ele><time>2026-05-01T13:47:59Z</time></trkpt><trkpt lat="45.575337859231986" lon="8.053322942140099"><ele>411.0</ele><time>2026-05-01T13:48:00Z</time></trkpt><trkpt lat="45.575232534537236" lon="8.053367585499094"><ele>411.3333333333333</ele><time>2026-05-01T13:48:01Z</time></trkpt><trkpt lat="45.57514362435428" lon="8.053405067372543"><ele>411.66666666666663</ele><time>2026-05-01T13:48:02Z</time></trkpt><trkpt lat="45.57506563926505" lon="8.053449265575692"><ele>412.0</ele><time>2026-05-01T13:48:03Z</time></trkpt><trkpt lat="45.574990145486595" lon="8.053498183699006"><ele>412.3333333333333</ele><time>2026-05-01T13:48:04Z</time></trkpt><trkpt lat="45.574920862620736" lon="8.05354846610993"><ele>412.66666666666663</ele><time>2026-05-01T13:48:05Z</time></trkpt><trkpt lat="45.57486496351376" lon="8.053599692695316"><ele>413.0</ele><time>2026-05-01T13:48:06Z</time></trkpt><trkpt lat="45.57476711812928" lon="8.053681449946259"><ele>413.0</ele><time>2026-05-01T13:48:08Z</time></trkpt><trkpt lat="45.57468241883433" lon="8.053719843032232"><ele>413.0</ele><time>2026-05-01T13:48:10Z</time></trkpt><trkpt lat="45.57463070863929" lon="8.05363965642089"><ele>413.0</ele><time>2026-05-01T13:48:12Z</time></trkpt><trkpt lat="45.574530934213854" lon="8.053529082495988"><ele>413.0</ele><time>2026-05-01T13:48:14Z</time></trkpt><trkpt lat="45.57449034405844" lon="8.053389440742947"><ele>413.0</ele><time>2026-05-01T13:48:16Z</time></trkpt><trkpt lat="45.57449868714562" lon="8.053286060639483"><ele>413.0</ele><time>2026-05-01T13:48:17Z</time></trkpt><trkpt lat="45.574506848413336" lon="8.053174900785395"><ele>413.0</ele><time>2026-05-01T13:48:18Z</time></trkpt><trkpt lat="45.57450745355585" lon="8.05300914123746"><ele>413.0</ele><time>2026-05-01T13:48:20Z</time></trkpt><trkpt lat="45.5745091079652" lon="8.052894283909154"><ele>413.0</ele><time>2026-05-01T13:48:22Z</time></trkpt><trkpt lat="45.5745148798616" lon="8.052732875224534"><ele>413.0</ele><time>2026-05-01T13:48:24Z</time></trkpt><trkpt lat="45.57451597675873" lon="8.05261455430791"><ele>413.0</ele><time>2026-05-01T13:48:25Z</time></trkpt><trkpt lat="45.57450771396795" lon="8.05248415817677"><ele>413.0</ele><time>2026-05-01T13:48:26Z</time></trkpt><trkpt lat="45.57447504775002" lon="8.052381124858696"><ele>413.0</ele><time>2026-05-01T13:48:27Z</time></trkpt><trkpt lat="45.57441707619219" lon="8.052302256376917"><ele>413.0</ele><time>2026-05-01T13:48:28Z</time></trkpt><trkpt lat="45.574332666806626" lon="8.052252867688136"><ele>413.0</ele><time>2026-05-01T13:48:29Z</time></trkpt><trkpt lat="45.574224732683966" lon="8.052230163639278"><ele>416.59999999999997</ele><time>2026-05-01T13:48:30Z</time></trkpt><trkpt lat="45.57411424484664" lon="8.05222092270447"><ele>420.2</ele><time>2026-05-01T13:48:31Z</time></trkpt><trkpt lat="45.57402788874884" lon="8.05217665061433"><ele>423.8</ele><time>2026-05-01T13:48:31.999Z</time></trkpt><trkpt lat="45.57395555127425" lon="8.05217800242462"><ele>427.4</ele><time>2026-05-01T13:48:32.999Z</time></trkpt><trkpt lat="45.5738761301065" lon="8.052123893622905"><ele>431.0</ele><time>2026-05-01T13:48:34.999Z</time></trkpt><trkpt lat="45.57381430251164" lon="8.051997145825101"><ele>431.25</ele><time>2026-05-01T13:48:36.999Z</time></trkpt><trkpt lat="45.57368271531133" lon="8.051889626632828"><ele>431.5</ele><time>2026-05-01T13:48:38.999Z</time></trkpt><trkpt lat="45.57356019872316" lon="8.051949049949025"><ele>431.75</ele><time>2026-05-01T13:48:39.999Z</time></trkpt><trkpt lat="45.573440910389486" lon="8.051968762508436"><ele>432.0</ele><time>2026-05-01T13:48:40.999Z</time></trkpt><trkpt lat="45.57332362300822" lon="8.051956187668731"><ele>432.0</ele><time>2026-05-01T13:48:41.999Z</time></trkpt><trkpt lat="45.5732020180688" lon="8.051962130500991"><ele>432.0</ele><time>2026-05-01T13:48:42.999Z</time></trkpt><trkpt lat="45.57306049489596" lon="8.051988404554654"><ele>432.0</ele><time>2026-05-01T13:48:43.999Z</time></trkpt><trkpt lat="45.572901187186424" lon="8.05207630643305"><ele>432.0</ele><time>2026-05-01T13:48:44.999Z</time></trkpt><trkpt lat="45.57271575880287" lon="8.05214075198544"><ele>434.0</ele><time>2026-05-01T13:48:45.999Z</time></trkpt><trkpt lat="45.57253737146365" lon="8.052261627636735"><ele>436.0</ele><time>2026-05-01T13:48:46.999Z</time></trkpt><trkpt lat="45.572363983403164" lon="8.052347230846841"><ele>438.0</ele><time>2026-05-01T13:48:47.999Z</time></trkpt><trkpt lat="45.57222087684056" lon="8.052420931227191"><ele>436.5</ele><time>2026-05-01T13:48:48.999Z</time></trkpt><trkpt lat="45.572096288828384" lon="8.052478235849572"><ele>435.0</ele><time>2026-05-01T13:48:49.999Z</time></trkpt><trkpt lat="45.57198065963951" lon="8.05250449291014"><ele>433.5</ele><time>2026-05-01T13:48:50.999Z</time></trkpt><trkpt lat="45.57187577867402" lon="8.052551544316032"><ele>432.0</ele><time>2026-05-01T13:48:51.999Z</time></trkpt><trkpt lat="45.57176443538098" lon="8.052601582141518"><ele>432.0</ele><time>2026-05-01T13:48:52.999Z</time></trkpt><trkpt lat="45.571661886329885" lon="8.052656250445578"><ele>432.00000000000006</ele><time>2026-05-01T13:48:53.999Z</time></trkpt><trkpt lat="45.571582636994606" lon="8.052735302315707"><ele>432.00000000000006</ele><time>2026-05-01T13:48:54.999Z</time></trkpt><trkpt lat="45.571536809627545" lon="8.052841467752364"><ele>432.0</ele><time>2026-05-01T13:48:55.999Z</time></trkpt><trkpt lat="45.571479030159935" lon="8.052910956201599"><ele>432.0</ele><time>2026-05-01T13:48:56.999Z</time></trkpt><trkpt lat="45.571413123230336" lon="8.053018856337513"><ele>432.0</ele><time>2026-05-01T13:48:58.999Z</time></trkpt><trkpt lat="45.57136559131911" lon="8.053090455712029"><ele>432.0</ele><time>2026-05-01T13:49:00.999Z</time></trkpt><trkpt lat="45.57132107186757" lon="8.053154153041506"><ele>432.0</ele><time>2026-05-01T13:49:03.999Z</time></trkpt><trkpt lat="45.57126010619428" lon="8.053235336603445"><ele>432.0</ele><time>2026-05-01T13:49:32Z</time></trkpt><trkpt lat="45.57117039002639" lon="8.053347432807598"><ele>432.0</ele><time>2026-05-01T13:49:34Z</time></trkpt><trkpt lat="45.5710785782838" lon="8.053436000520168"><ele>432.0</ele><time>2026-05-01T13:49:36Z</time></trkpt><trkpt lat="45.57100176721723" lon="8.053667563360015"><ele>432.40000000000003</ele><time>2026-05-01T13:49:38Z</time></trkpt><trkpt lat="45.57102438593692" lon="8.053802055890646"><ele>432.80000000000007</ele><time>2026-05-01T13:49:39Z</time></trkpt><trkpt lat="45.57101094790838" lon="8.053943446848706"><ele>433.2</ele><time>2026-05-01T13:49:40Z</time></trkpt><trkpt lat="45.57099587746865" lon="8.054091110799359"><ele>433.6</ele><time>2026-05-01T13:49:41Z</time></trkpt><trkpt lat="45.57096791448768" lon="8.054250300114287"><ele>434.0</ele><time>2026-05-01T13:49:42Z</time></trkpt><trkpt lat="45.57092818935009" lon="8.05442894111173"><ele>434.0</ele><time>2026-05-01T13:49:43Z</time></trkpt><trkpt lat="45.57088734011161" lon="8.054609919689579"><ele>434.0</ele><time>2026-05-01T13:49:44Z</time></trkpt><trkpt lat="45.570850813453056" lon="8.054767060341739"><ele>434.0</ele><time>2026-05-01T13:49:45Z</time></trkpt><trkpt lat="45.57078447275946" lon="8.054895060859629"><ele>434.0</ele><time>2026-05-01T13:49:46Z</time></trkpt><trkpt lat="45.57075279095985" lon="8.055027711365605"><ele>432.99999999999994</ele><time>2026-05-01T13:49:47Z</time></trkpt><trkpt lat="45.57072686799984" lon="8.055134899806283"><ele>432.0</ele><time>2026-05-01T13:49:48Z</time></trkpt><trkpt lat="45.570701321073564" lon="8.055238449166886"><ele>431.0</ele><time>2026-05-01T13:49:49Z</time></trkpt><trkpt lat="45.57067312502182" lon="8.055361597373304"><ele>430.0</ele><time>2026-05-01T13:49:50Z</time></trkpt><trkpt lat="45.57064738464754" lon="8.055468444296022"><ele>428.99999999999994</ele><time>2026-05-01T13:49:51Z</time></trkpt><trkpt lat="45.570620242754615" lon="8.055556159712147"><ele>428.0</ele><time>2026-05-01T13:49:52Z</time></trkpt><trkpt lat="45.57052692354885" lon="8.0556394022088"><ele>428.0</ele><time>2026-05-01T13:49:54Z</time></trkpt><trkpt lat="45.570423175776014" lon="8.055690784214413"><ele>428.0</ele><time>2026-05-01T13:49:55Z</time></trkpt><trkpt lat="45.57029541147884" lon="8.055765884628029"><ele>428.0</ele><time>2026-05-01T13:49:56Z</time></trkpt><trkpt lat="45.57015277347609" lon="8.055874209989977"><ele>428.0</ele><time>2026-05-01T13:49:57Z</time></trkpt><trkpt lat="45.57001941586819" lon="8.055935669146901"><ele>430.25</ele><time>2026-05-01T13:49:58Z</time></trkpt><trkpt lat="45.56991538872818" lon="8.056009989117245"><ele>432.5</ele><time>2026-05-01T13:49:59Z</time></trkpt><trkpt lat="45.56981993099362" lon="8.056076916839332"><ele>434.75</ele><time>2026-05-01T13:50:00Z</time></trkpt><trkpt lat="45.56970862486335" lon="8.056143415417395"><ele>437.0</ele><time>2026-05-01T13:50:01Z</time></trkpt><trkpt lat="45.56958050101949" lon="8.056218940738699"><ele>436.5</ele><time>2026-05-01T13:50:02Z</time></trkpt><trkpt lat="45.56946247933042" lon="8.056288511071035"><ele>436.0</ele><time>2026-05-01T13:50:03Z</time></trkpt><trkpt lat="45.569353928767974" lon="8.056352499306387"><ele>435.5</ele><time>2026-05-01T13:50:04Z</time></trkpt><trkpt lat="45.56924551782165" lon="8.056416444934195"><ele>435.0</ele><time>2026-05-01T13:50:05Z</time></trkpt><trkpt lat="45.56914093408102" lon="8.05647812821298"><ele>435.0</ele><time>2026-05-01T13:50:06Z</time></trkpt><trkpt lat="45.569028801744466" lon="8.056544263905348"><ele>435.0</ele><time>2026-05-01T13:50:07Z</time></trkpt><trkpt lat="45.56891476078829" lon="8.056611525028151"><ele>435.0</ele><time>2026-05-01T13:50:08Z</time></trkpt><trkpt lat="45.56881781215067" lon="8.056669638461663"><ele>435.0</ele><time>2026-05-01T13:50:09Z</time></trkpt><trkpt lat="45.568721457071234" lon="8.056728605703174"><ele>434.2</ele><time>2026-05-01T13:50:10Z</time></trkpt><trkpt lat="45.568628033517705" lon="8.056785188597624"><ele>433.4</ele><time>2026-05-01T13:50:11Z</time></trkpt><trkpt lat="45.568538238835494" lon="8.05683976439253"><ele>432.6</ele><time>2026-05-01T13:50:12Z</time></trkpt><trkpt lat="45.56843144095162" lon="8.056903699688723"><ele>431.8</ele><time>2026-05-01T13:50:13Z</time></trkpt><trkpt lat="45.56831074035143" lon="8.056976856039341"><ele>431.0</ele><time>2026-05-01T13:50:14Z</time></trkpt><trkpt lat="45.56819166752695" lon="8.057048369055986"><ele>430.99999999999994</ele><time>2026-05-01T13:50:15Z</time></trkpt><trkpt lat="45.56809139479628" lon="8.057109503492837"><ele>431.0</ele><time>2026-05-01T13:50:16Z</time></trkpt><trkpt lat="45.56800633384369" lon="8.057161506332777"><ele>431.0</ele><time>2026-05-01T13:50:17Z</time></trkpt><trkpt lat="45.56793607929555" lon="8.057204457199893"><ele>431.0</ele><time>2026-05-01T13:50:18Z</time></trkpt><trkpt lat="45.56787714120618" lon="8.057240489293735"><ele>430.99999999999994</ele><time>2026-05-01T13:50:19Z</time></trkpt><trkpt lat="45.56779304924906" lon="8.057293246791536"><ele>431.0</ele><time>2026-05-01T13:50:21Z</time></trkpt><trkpt lat="45.56768717516262" lon="8.057357956198981"><ele>430.8</ele><time>2026-05-01T13:50:50.999Z</time></trkpt><trkpt lat="45.567561899416006" lon="8.057432945936874"><ele>430.6</ele><time>2026-05-01T13:50:52.999Z</time></trkpt><trkpt lat="45.567484343472515" lon="8.05747946892564"><ele>430.4</ele><time>2026-05-01T13:50:53.999Z</time></trkpt><trkpt lat="45.56739783566424" lon="8.057531343033213"><ele>430.2</ele><time>2026-05-01T13:50:54.999Z</time></trkpt><trkpt lat="45.567292138483424" lon="8.057594558650797"><ele>430.0</ele><time>2026-05-01T13:50:55.999Z</time></trkpt><trkpt lat="45.56716909643365" lon="8.057668147455063"><ele>429.6666666666667</ele><time>2026-05-01T13:50:56.999Z</time></trkpt><trkpt lat="45.56703825209815" lon="8.057748465958612"><ele>429.33333333333337</ele><time>2026-05-01T13:50:57.999Z</time></trkpt><trkpt lat="45.56689581385965" lon="8.057835832057311"><ele>429.0</ele><time>2026-05-01T13:50:58.999Z</time></trkpt><trkpt lat="45.56675040678168" lon="8.057924990217812"><ele>428.75</ele><time>2026-05-01T13:50:59.999Z</time></trkpt><trkpt lat="45.56661574783036" lon="8.058007557679174"><ele>428.5</ele><time>2026-05-01T13:51:00.999Z</time></trkpt><trkpt lat="45.56649025525455" lon="8.058082966068314"><ele>428.25</ele><time>2026-05-01T13:51:01.999Z</time></trkpt><trkpt lat="45.56636960385089" lon="8.058155799315896"><ele>428.0</ele><time>2026-05-01T13:51:02.999Z</time></trkpt><trkpt lat="45.56624812372438" lon="8.058229132795097"><ele>427.5</ele><time>2026-05-01T13:51:03.999Z</time></trkpt><trkpt lat="45.56613720684453" lon="8.058296089639285"><ele>427.0</ele><time>2026-05-01T13:51:04.999Z</time></trkpt><trkpt lat="45.56602326187527" lon="8.058365791768985"><ele>426.5</ele><time>2026-05-01T13:51:05.999Z</time></trkpt><trkpt lat="45.56590799967777" lon="8.058439018088306"><ele>426.0</ele><time>2026-05-01T13:51:06.999Z</time></trkpt><trkpt lat="45.56579007933796" lon="8.058518713699558"><ele>426.0</ele><time>2026-05-01T13:51:07.999Z</time></trkpt><trkpt lat="45.56567696189626" lon="8.058597675819096"><ele>426.0</ele><time>2026-05-01T13:51:08.999Z</time></trkpt><trkpt lat="45.56556791162517" lon="8.058669248387126"><ele>426.0</ele><time>2026-05-01T13:51:09.999Z</time></trkpt><trkpt lat="45.56544892975391" lon="8.058742531973744"><ele>426.0</ele><time>2026-05-01T13:51:10.999Z</time></trkpt><trkpt lat="45.565321974011006" lon="8.05881837694548"><ele>425.6</ele><time>2026-05-01T13:51:11.999Z</time></trkpt><trkpt lat="45.56521870058607" lon="8.058890755592776"><ele>425.20000000000005</ele><time>2026-05-01T13:51:12.999Z</time></trkpt><trkpt lat="45.565130067198666" lon="8.05894898323779"><ele>424.79999999999995</ele><time>2026-05-01T13:51:13.999Z</time></trkpt><trkpt lat="45.565048273282535" lon="8.058972191650891"><ele>424.4</ele><time>2026-05-01T13:51:14.999Z</time></trkpt><trkpt lat="45.56499465918631" lon="8.059024083892934"><ele>424.0</ele><time>2026-05-01T13:51:15.999Z</time></trkpt><trkpt lat="45.56490771719056" lon="8.05906490866016"><ele>423.6</ele><time>2026-05-01T13:51:17.999Z</time></trkpt><trkpt lat="45.564800547445174" lon="8.059123659148286"><ele>423.2</ele><time>2026-05-01T13:51:19.999Z</time></trkpt><trkpt lat="45.56472590238793" lon="8.059175234191622"><ele>422.8</ele><time>2026-05-01T13:51:20.999Z</time></trkpt><trkpt lat="45.56463355163139" lon="8.059240319212783"><ele>422.40000000000003</ele><time>2026-05-01T13:51:21.999Z</time></trkpt><trkpt lat="45.5645309395069" lon="8.059305549639236"><ele>422.0</ele><time>2026-05-01T13:51:22.999Z</time></trkpt><trkpt lat="45.56441780515717" lon="8.059373723595515"><ele>421.8</ele><time>2026-05-01T13:51:23.999Z</time></trkpt><trkpt lat="45.5643041193355" lon="8.059439824461212"><ele>421.6</ele><time>2026-05-01T13:51:24.999Z</time></trkpt><trkpt lat="45.564205311297755" lon="8.059494059175332"><ele>421.40000000000003</ele><time>2026-05-01T13:51:25.999Z</time></trkpt><trkpt lat="45.56411544131023" lon="8.059557720933206"><ele>421.20000000000005</ele><time>2026-05-01T13:51:26.999Z</time></trkpt><trkpt lat="45.564034187577725" lon="8.059612880934784"><ele>421.0</ele><time>2026-05-01T13:51:27.999Z</time></trkpt><trkpt lat="45.56395692692991" lon="8.05966425291213"><ele>421.00000000000006</ele><time>2026-05-01T13:51:28.999Z</time></trkpt><trkpt lat="45.563874592501406" lon="8.059690169543096"><ele>421.0</ele><time>2026-05-01T13:51:29.999Z</time></trkpt><trkpt lat="45.563801399213915" lon="8.059757646558113"><ele>421.0</ele><time>2026-05-01T13:51:30.999Z</time></trkpt><trkpt lat="45.5637288100015" lon="8.059802687074166"><ele>421.0</ele><time>2026-05-01T13:51:31.999Z</time></trkpt><trkpt lat="45.563660411920274" lon="8.05982169007571"><ele>421.00000000000006</ele><time>2026-05-01T13:51:32.999Z</time></trkpt><trkpt lat="45.56360925780357" lon="8.05987709186707"><ele>421.0</ele><time>2026-05-01T13:51:33.999Z</time></trkpt><trkpt lat="45.56352073716394" lon="8.059930545513874"><ele>420.1666666666667</ele><time>2026-05-01T13:51:35.999Z</time></trkpt><trkpt lat="45.56342791159129" lon="8.059958439166259"><ele>419.33333333333337</ele><time>2026-05-01T13:51:38Z</time></trkpt><trkpt lat="45.56336664199223" lon="8.05993095089017"><ele>418.5</ele><time>2026-05-01T13:51:40Z</time></trkpt><trkpt lat="45.56332030213742" lon="8.059802153581666"><ele>417.66666666666663</ele><time>2026-05-01T13:51:41Z</time></trkpt><trkpt lat="45.56329244451114" lon="8.059687097617454"><ele>416.8333333333333</ele><time>2026-05-01T13:51:42Z</time></trkpt><trkpt lat="45.563262975746795" lon="8.059564741484365"><ele>416.0</ele><time>2026-05-01T13:51:43Z</time></trkpt><trkpt lat="45.56323944133411" lon="8.059464313174857"><ele>416.0</ele><time>2026-05-01T13:51:44Z</time></trkpt><trkpt lat="45.56319819913927" lon="8.05929991969305"><ele>416.0</ele><time>2026-05-01T13:51:46Z</time></trkpt><trkpt lat="45.56317027846342" lon="8.05921537443398"><ele>416.0</ele><time>2026-05-01T13:51:47Z</time></trkpt><trkpt lat="45.563120941220745" lon="8.059051223968323"><ele>416.0</ele><time>2026-05-01T13:51:49Z</time></trkpt><trkpt lat="45.56309442920725" lon="8.058952726391162"><ele>416.0</ele><time>2026-05-01T13:51:50Z</time></trkpt><trkpt lat="45.56306683728944" lon="8.05885853796162"><ele>416.8</ele><time>2026-05-01T13:51:51Z</time></trkpt><trkpt lat="45.56303529066868" lon="8.058758306873312"><ele>417.6</ele><time>2026-05-01T13:51:52Z</time></trkpt><trkpt lat="45.563004960495654" lon="8.058663757318572"><ele>418.4</ele><time>2026-05-01T13:51:53Z</time></trkpt><trkpt lat="45.56295107048984" lon="8.058516763542181"><ele>419.2</ele><time>2026-05-01T13:51:55Z</time></trkpt><trkpt lat="45.562908987976876" lon="8.058367823155125"><ele>420.0</ele><time>2026-05-01T13:51:57Z</time></trkpt><trkpt lat="45.562887946933294" lon="8.058223994548813"><ele>419.2</ele><time>2026-05-01T13:51:59Z</time></trkpt><trkpt lat="45.562856798591795" lon="8.058042736386305"><ele>418.4</ele><time>2026-05-01T13:52:01Z</time></trkpt><trkpt lat="45.56279308631026" lon="8.05794471462965"><ele>417.6</ele><time>2026-05-01T13:52:02Z</time></trkpt><trkpt lat="45.56276809766419" lon="8.057813028421329"><ele>416.8</ele><time>2026-05-01T13:52:03Z</time></trkpt><trkpt lat="45.562738352567614" lon="8.057700156273995"><ele>416.0</ele><time>2026-05-01T13:52:04Z</time></trkpt><trkpt lat="45.56271063869763" lon="8.05759499185602"><ele>415.99999999999994</ele><time>2026-05-01T13:52:05Z</time></trkpt><trkpt lat="45.56268438485321" lon="8.057495367767737"><ele>416.0</ele><time>2026-05-01T13:52:06Z</time></trkpt><trkpt lat="45.56265877650342" lon="8.057398193100973"><ele>416.0</ele><time>2026-05-01T13:52:07Z</time></trkpt><trkpt lat="45.56263173842466" lon="8.057295067126734"><ele>416.0</ele><time>2026-05-01T13:52:08Z</time></trkpt><trkpt lat="45.562577694279554" lon="8.057132766621605"><ele>415.99999999999994</ele><time>2026-05-01T13:52:10Z</time></trkpt><trkpt lat="45.56255903548982" lon="8.057029581553328"><ele>416.0</ele><time>2026-05-01T13:52:10.999Z</time></trkpt><trkpt lat="45.562534874256926" lon="8.0569290632811"><ele>416.0</ele><time>2026-05-01T13:52:11.999Z</time></trkpt><trkpt lat="45.56250769681428" lon="8.05681523147923"><ele>416.0</ele><time>2026-05-01T13:52:12.999Z</time></trkpt><trkpt lat="45.56247845863633" lon="8.05668628858376"><ele>416.0</ele><time>2026-05-01T13:52:13.999Z</time></trkpt><trkpt lat="45.56243657286157" lon="8.056535588414707"><ele>416.0</ele><time>2026-05-01T13:52:14.999Z</time></trkpt><trkpt lat="45.56239062617147" lon="8.056371526413775"><ele>416.0</ele><time>2026-05-01T13:52:15.999Z</time></trkpt><trkpt lat="45.56235277205395" lon="8.056231535239776"><ele>416.0</ele><time>2026-05-01T13:52:16.999Z</time></trkpt><trkpt lat="45.5623159806213" lon="8.056082227321003"><ele>416.0</ele><time>2026-05-01T13:52:17.999Z</time></trkpt><trkpt lat="45.56228016368188" lon="8.055944247581555"><ele>416.0</ele><time>2026-05-01T13:52:18.999Z</time></trkpt><trkpt lat="45.56224860866817" lon="8.055808169046788"><ele>416.0</ele><time>2026-05-01T13:52:19.999Z</time></trkpt><trkpt lat="45.562219171452675" lon="8.055668114565545"><ele>416.0</ele><time>2026-05-01T13:52:20.999Z</time></trkpt><trkpt lat="45.56218773893775" lon="8.055536641141734"><ele>415.8333333333333</ele><time>2026-05-01T13:52:21.999Z</time></trkpt><trkpt lat="45.562157128681754" lon="8.05540922712833"><ele>415.66666666666663</ele><time>2026-05-01T13:52:22.999Z</time></trkpt><trkpt lat="45.562128558131114" lon="8.055285795705492"><ele>415.5</ele><time>2026-05-01T13:52:23.999Z</time></trkpt><trkpt lat="45.56209922545509" lon="8.05517055525271"><ele>415.33333333333337</ele><time>2026-05-01T13:52:24.999Z</time></trkpt><trkpt lat="45.5620753292204" lon="8.055044499557871"><ele>415.1666666666667</ele><time>2026-05-01T13:52:25.999Z</time></trkpt><trkpt lat="45.56205216037805" lon="8.054929861651473"><ele>415.0</ele><time>2026-05-01T13:52:26.999Z</time></trkpt><trkpt lat="45.56202619717719" lon="8.054819298982224"><ele>415.0</ele><time>2026-05-01T13:52:27.999Z</time></trkpt><trkpt lat="45.56201040307034" lon="8.054691733202928"><ele>415.0</ele><time>2026-05-01T13:52:28.999Z</time></trkpt><trkpt lat="45.56196016651649" lon="8.054563599279964"><ele>415.0</ele><time>2026-05-01T13:52:29.999Z</time></trkpt><trkpt lat="45.561914940494646" lon="8.054431353995582"><ele>415.0</ele><time>2026-05-01T13:52:30.999Z</time></trkpt><trkpt lat="45.56188511122536" lon="8.054312127408856"><ele>415.0</ele><time>2026-05-01T13:52:31.999Z</time></trkpt><trkpt lat="45.56185678924309" lon="8.054192984360618"><ele>415.50000000000006</ele><time>2026-05-01T13:52:32.999Z</time></trkpt><trkpt lat="45.56182994914769" lon="8.054084147059411"><ele>416.0</ele><time>2026-05-01T13:52:33.999Z</time></trkpt><trkpt lat="45.56179646400144" lon="8.053961378830138"><ele>416.5</ele><time>2026-05-01T13:52:34.999Z</time></trkpt><trkpt lat="45.56176869792615" lon="8.053846471396348"><ele>417.0</ele><time>2026-05-01T13:52:35.999Z</time></trkpt><trkpt lat="45.56174134394607" lon="8.053720089956071"><ele>417.50000000000006</ele><time>2026-05-01T13:52:36.999Z</time></trkpt><trkpt lat="45.561713763616005" lon="8.05359717339685"><ele>418.0</ele><time>2026-05-01T13:52:37.999Z</time></trkpt><trkpt lat="45.56168870686804" lon="8.053493907381675"><ele>418.0</ele><time>2026-05-01T13:52:38.999Z</time></trkpt><trkpt lat="45.561658472650315" lon="8.053385070493752"><ele>418.0</ele><time>2026-05-01T13:52:39.999Z</time></trkpt><trkpt lat="45.56163425576786" lon="8.05327863851769"><ele>418.0</ele><time>2026-05-01T13:52:40.999Z</time></trkpt><trkpt lat="45.56159496829635" lon="8.053140553575338"><ele>418.0</ele><time>2026-05-01T13:52:41.999Z</time></trkpt><trkpt lat="45.5615620071096" lon="8.052994644845585"><ele>418.0</ele><time>2026-05-01T13:52:42.999Z</time></trkpt><trkpt lat="45.56152995968772" lon="8.052858417865648"><ele>418.50000000000006</ele><time>2026-05-01T13:52:43.999Z</time></trkpt><trkpt lat="45.56149869853558" lon="8.052742668474975"><ele>419.0</ele><time>2026-05-01T13:52:44.999Z</time></trkpt><trkpt lat="45.56146956376477" lon="8.052627883768517"><ele>419.5</ele><time>2026-05-01T13:52:45.999Z</time></trkpt><trkpt lat="45.56144439537067" lon="8.052520291547529"><ele>420.0</ele><time>2026-05-01T13:52:46.999Z</time></trkpt><trkpt lat="45.56141628432009" lon="8.05241087510445"><ele>420.50000000000006</ele><time>2026-05-01T13:52:47.999Z</time></trkpt><trkpt lat="45.56139765694972" lon="8.052320961786126"><ele>421.0</ele><time>2026-05-01T13:52:48.999Z</time></trkpt><trkpt lat="45.56137349705205" lon="8.052234990562122"><ele>421.4</ele><time>2026-05-01T13:52:49.999Z</time></trkpt><trkpt lat="45.5613408170092" lon="8.052091277545976"><ele>421.8</ele><time>2026-05-01T13:52:51.999Z</time></trkpt><trkpt lat="45.56131656415562" lon="8.05198057555913"><ele>422.2</ele><time>2026-05-01T13:52:53.999Z</time></trkpt><trkpt lat="45.561298090524424" lon="8.051883536812147"><ele>422.59999999999997</ele><time>2026-05-01T13:52:55.999Z</time></trkpt><trkpt lat="45.561283034008106" lon="8.051795767394642"><ele>423.0</ele><time>2026-05-01T13:52:57.999Z</time></trkpt><trkpt lat="45.56125216652237" lon="8.05161104511435"><ele>423.0</ele><time>2026-05-01T13:52:59.999Z</time></trkpt><trkpt lat="45.561225555217284" lon="8.051496647232353"><ele>423.0</ele><time>2026-05-01T13:53:00.999Z</time></trkpt><trkpt lat="45.561173612781865" lon="8.051403425623564"><ele>423.0</ele><time>2026-05-01T13:53:01.999Z</time></trkpt><trkpt lat="45.56114619509774" lon="8.051305001122545"><ele>423.0</ele><time>2026-05-01T13:53:02.999Z</time></trkpt><trkpt lat="45.56112486617077" lon="8.051206333765053"><ele>423.0</ele><time>2026-05-01T13:53:03.999Z</time></trkpt><trkpt lat="45.56109993400211" lon="8.0511145131017"><ele>423.0</ele><time>2026-05-01T13:53:04.999Z</time></trkpt><trkpt lat="45.56107520928749" lon="8.051009814188731"><ele>422.1666666666667</ele><time>2026-05-01T13:53:05.999Z</time></trkpt><trkpt lat="45.56104948627861" lon="8.050897312279917"><ele>421.33333333333337</ele><time>2026-05-01T13:53:06.999Z</time></trkpt><trkpt lat="45.561021663194495" lon="8.05077325974163"><ele>420.5</ele><time>2026-05-01T13:53:07.999Z</time></trkpt><trkpt lat="45.5609964492143" lon="8.050682648513776"><ele>419.6666666666667</ele><time>2026-05-01T13:53:08.999Z</time></trkpt><trkpt lat="45.5609766160927" lon="8.050593184751456"><ele>418.83333333333337</ele><time>2026-05-01T13:53:09.999Z</time></trkpt><trkpt lat="45.56093849911259" lon="8.050426096180038"><ele>418.0</ele><time>2026-05-01T13:53:11.999Z</time></trkpt><trkpt lat="45.56089749834435" lon="8.050275674693731"><ele>417.4</ele><time>2026-05-01T13:53:13.999Z</time></trkpt><trkpt lat="45.56085537859738" lon="8.05015644792666"><ele>416.79999999999995</ele><time>2026-05-01T13:53:15.999Z</time></trkpt><trkpt lat="45.560824493225766" lon="8.050004463371002"><ele>416.2</ele><time>2026-05-01T13:53:17.999Z</time></trkpt><trkpt lat="45.56078087092723" lon="8.04990147028335"><ele>415.6</ele><time>2026-05-01T13:53:19.999Z</time></trkpt><trkpt lat="45.56069953549331" lon="8.049877247542096"><ele>415.0</ele><time>2026-05-01T13:53:21.999Z</time></trkpt><trkpt lat="45.56062124386374" lon="8.049998589365671"><ele>415.0</ele><time>2026-05-01T13:53:23.999Z</time></trkpt><trkpt lat="45.56061305523354" lon="8.050103045329783"><ele>415.0</ele><time>2026-05-01T13:53:24.999Z</time></trkpt><trkpt lat="45.56051530732631" lon="8.050229060624789"><ele>415.0</ele><time>2026-05-01T13:53:26.999Z</time></trkpt><trkpt lat="45.56044349331099" lon="8.05027581553787"><ele>415.0</ele><time>2026-05-01T13:53:27.999Z</time></trkpt><trkpt lat="45.560363920409884" lon="8.050334715185805"><ele>415.0</ele><time>2026-05-01T13:53:28.999Z</time></trkpt><trkpt lat="45.56028637888825" lon="8.05038235305303"><ele>414.4</ele><time>2026-05-01T13:53:29.999Z</time></trkpt><trkpt lat="45.560212763406014" lon="8.05042916151656"><ele>413.8</ele><time>2026-05-01T13:53:30.999Z</time></trkpt><trkpt lat="45.56012534551129" lon="8.05048803643073"><ele>413.20000000000005</ele><time>2026-05-01T13:53:31.999Z</time></trkpt><trkpt lat="45.560017156618585" lon="8.050562850157906"><ele>412.6</ele><time>2026-05-01T13:53:32.999Z</time></trkpt><trkpt lat="45.55991463884987" lon="8.050630062819064"><ele>412.0</ele><time>2026-05-01T13:53:33.999Z</time></trkpt><trkpt lat="45.559827656345206" lon="8.050693842032224"><ele>412.00000000000006</ele><time>2026-05-01T13:53:34.999Z</time></trkpt><trkpt lat="45.559737299709525" lon="8.050726446367438"><ele>412.0</ele><time>2026-05-01T13:53:35.999Z</time></trkpt><trkpt lat="45.55966226237534" lon="8.050799252531174"><ele>412.0</ele><time>2026-05-01T13:53:36.999Z</time></trkpt><trkpt lat="45.55958382470092" lon="8.05084579108273"><ele>412.0</ele><time>2026-05-01T13:53:37.999Z</time></trkpt><trkpt lat="45.55950812006198" lon="8.05089325484027"><ele>412.00000000000006</ele><time>2026-05-01T13:53:38.999Z</time></trkpt><trkpt lat="45.55942083945971" lon="8.050950526204447"><ele>412.0</ele><time>2026-05-01T13:53:39.999Z</time></trkpt><trkpt lat="45.55932135838361" lon="8.050989876354603"><ele>412.40000000000003</ele><time>2026-05-01T13:53:40.999Z</time></trkpt><trkpt lat="45.55924191969439" lon="8.051076569131824"><ele>412.8</ele><time>2026-05-01T13:53:41.999Z</time></trkpt><trkpt lat="45.55916278881497" lon="8.051122684346483"><ele>413.2</ele><time>2026-05-01T13:53:42.999Z</time></trkpt><trkpt lat="45.55908112514759" lon="8.051173506402158"><ele>413.6</ele><time>2026-05-01T13:53:44Z</time></trkpt><trkpt lat="45.558991201312956" lon="8.05123403010535"><ele>414.0</ele><time>2026-05-01T13:53:45Z</time></trkpt><trkpt lat="45.55888990417981" lon="8.05129622674728"><ele>414.0</ele><time>2026-05-01T13:53:46Z</time></trkpt><trkpt lat="45.55879268270669" lon="8.05135652149436"><ele>414.0</ele><time>2026-05-01T13:53:47Z</time></trkpt><trkpt lat="45.55870467473934" lon="8.051415504779035"><ele>414.0</ele><time>2026-05-01T13:53:48Z</time></trkpt><trkpt lat="45.55861037133469" lon="8.051471314905863"><ele>414.0</ele><time>2026-05-01T13:53:49Z</time></trkpt><trkpt lat="45.558522306421445" lon="8.05153356686095"><ele>414.0</ele><time>2026-05-01T13:53:50Z</time></trkpt><trkpt lat="45.55843554090387" lon="8.051592983964374"><ele>413.0</ele><time>2026-05-01T13:53:51Z</time></trkpt><trkpt lat="45.55835734532465" lon="8.051644860019172"><ele>412.0</ele><time>2026-05-01T13:53:52Z</time></trkpt><trkpt lat="45.55828112464187" lon="8.051693718809918"><ele>411.0</ele><time>2026-05-01T13:53:53Z</time></trkpt><trkpt lat="45.5581999334929" lon="8.051749439053136"><ele>410.0</ele><time>2026-05-01T13:53:55Z</time></trkpt><trkpt lat="45.55813735886466" lon="8.05179030196645"><ele>409.0</ele><time>2026-05-01T13:54:01Z</time></trkpt><trkpt lat="45.558055957776254" lon="8.051797799192556"><ele>408.0</ele><time>2026-05-01T13:54:02Z</time></trkpt><trkpt lat="45.5579855247904" lon="8.051845233637115"><ele>408.0</ele><time>2026-05-01T13:54:03Z</time></trkpt><trkpt lat="45.557919449261355" lon="8.05188690803912"><ele>408.0</ele><time>2026-05-01T13:54:04Z</time></trkpt><trkpt lat="45.55783805695219" lon="8.051937781700277"><ele>408.0</ele><time>2026-05-01T13:54:05Z</time></trkpt><trkpt lat="45.55775334510652" lon="8.05199073019807"><ele>408.0</ele><time>2026-05-01T13:54:06Z</time></trkpt><trkpt lat="45.55766706399815" lon="8.052045016044177"><ele>408.0</ele><time>2026-05-01T13:54:07Z</time></trkpt><trkpt lat="45.557590098745145" lon="8.052094741248732"><ele>408.0</ele><time>2026-05-01T13:54:08Z</time></trkpt><trkpt lat="45.557512150247746" lon="8.052145101682397"><ele>407.8333333333333</ele><time>2026-05-01T13:54:09Z</time></trkpt><trkpt lat="45.55743230268667" lon="8.0521966890629"><ele>407.66666666666663</ele><time>2026-05-01T13:54:10Z</time></trkpt><trkpt lat="45.557350158638506" lon="8.052249759965424"><ele>407.5</ele><time>2026-05-01T13:54:11Z</time></trkpt><trkpt lat="45.557267907492715" lon="8.052304742758457"><ele>407.3333333333333</ele><time>2026-05-01T13:54:11.999Z</time></trkpt><trkpt lat="45.557185939867914" lon="8.052358866420555"><ele>407.16666666666663</ele><time>2026-05-01T13:54:12.999Z</time></trkpt><trkpt lat="45.55710837951432" lon="8.052409905560738"><ele>407.0</ele><time>2026-05-01T13:54:13.999Z</time></trkpt><trkpt lat="45.55702589885947" lon="8.052463834238733"><ele>406.40000000000003</ele><time>2026-05-01T13:54:14.999Z</time></trkpt><trkpt lat="45.55695468567762" lon="8.052510395858068"><ele>405.8</ele><time>2026-05-01T13:54:15.999Z</time></trkpt><trkpt lat="45.55686797687706" lon="8.052567089041196"><ele>405.2</ele><time>2026-05-01T13:54:17.999Z</time></trkpt><trkpt lat="45.5567966919085" lon="8.052631663826865"><ele>404.6</ele><time>2026-05-01T13:54:20.999Z</time></trkpt><trkpt lat="45.556862653171414" lon="8.052849315769476"><ele>404.0</ele><time>2026-05-01T13:54:21.999Z</time></trkpt><trkpt lat="45.5569078143961" lon="8.052982949741061"><ele>404.0</ele><time>2026-05-01T13:54:22.999Z</time></trkpt><trkpt lat="45.55696179415062" lon="8.053134436371169"><ele>404.0</ele><time>2026-05-01T13:54:23.999Z</time></trkpt><trkpt lat="45.55702273315558" lon="8.053265902803236"><ele>404.0</ele><time>2026-05-01T13:54:24.999Z</time></trkpt><trkpt lat="45.55705532303804" lon="8.053376532671587"><ele>404.0</ele><time>2026-05-01T13:54:25.999Z</time></trkpt><trkpt lat="45.55708996237636" lon="8.053480836594183"><ele>404.0</ele><time>2026-05-01T13:54:26.999Z</time></trkpt><trkpt lat="45.557116952360666" lon="8.05357038744054"><ele>404.2</ele><time>2026-05-01T13:54:27.999Z</time></trkpt><trkpt lat="45.557157027276766" lon="8.0537061600796"><ele>404.4</ele><time>2026-05-01T13:54:29.999Z</time></trkpt><trkpt lat="45.557175399741304" lon="8.05380077843436"><ele>404.6</ele><time>2026-05-01T13:54:31.999Z</time></trkpt><trkpt lat="45.55708467285734" lon="8.053896065944935"><ele>404.8</ele><time>2026-05-01T13:54:34.999Z</time></trkpt><trkpt lat="45.55700401038955" lon="8.053947416189612"><ele>405.0</ele><time>2026-05-01T13:54:35.999Z</time></trkpt><trkpt lat="45.556899040662614" lon="8.05403939030471"><ele>404.0</ele><time>2026-05-01T13:54:36.999Z</time></trkpt><trkpt lat="45.556761533052736" lon="8.054123003997091"><ele>403.0</ele><time>2026-05-01T13:54:37.999Z</time></trkpt><trkpt lat="45.556607175130715" lon="8.054223716894398"><ele>402.0</ele><time>2026-05-01T13:54:38.999Z</time></trkpt><trkpt lat="45.55646089720492" lon="8.054318947547905"><ele>402.0</ele><time>2026-05-01T13:54:39.999Z</time></trkpt><trkpt lat="45.55634304901312" lon="8.054391028715864"><ele>402.0</ele><time>2026-05-01T13:54:40.999Z</time></trkpt><trkpt lat="45.556241819524125" lon="8.054450845866002"><ele>402.0</ele><time>2026-05-01T13:54:41.999Z</time></trkpt><trkpt lat="45.556154760931676" lon="8.054501374003943"><ele>402.0</ele><time>2026-05-01T13:54:42.999Z</time></trkpt><trkpt lat="45.55607467633319" lon="8.054546560363914"><ele>402.0</ele><time>2026-05-01T13:54:43.999Z</time></trkpt><trkpt lat="45.556010731909815" lon="8.054587520260528"><ele>401.5</ele><time>2026-05-01T13:54:44.999Z</time></trkpt><trkpt lat="45.55591623360492" lon="8.05464506230653"><ele>401.0</ele><time>2026-05-01T13:54:46.999Z</time></trkpt><trkpt lat="45.5558386565524" lon="8.054626069215928"><ele>400.5</ele><time>2026-05-01T13:54:48.999Z</time></trkpt><trkpt lat="45.55577293604581" lon="8.05464381225447"><ele>400.0</ele><time>2026-05-01T13:54:49.999Z</time></trkpt><trkpt lat="45.555702499443704" lon="8.0546687454304"><ele>399.5</ele><time>2026-05-01T13:54:50.999Z</time></trkpt><trkpt lat="45.555651433310615" lon="8.054796348829765"><ele>399.0</ele><time>2026-05-01T13:54:51.999Z</time></trkpt><trkpt lat="45.555579212363384" lon="8.054848095089104"><ele>399.0</ele><time>2026-05-01T13:54:52.999Z</time></trkpt><trkpt lat="45.55550013549018" lon="8.054901214335462"><ele>399.0</ele><time>2026-05-01T13:54:53.999Z</time></trkpt><trkpt lat="45.55541532889607" lon="8.054956088611934"><ele>399.0</ele><time>2026-05-01T13:54:54.999Z</time></trkpt><trkpt lat="45.555319672248395" lon="8.055017013166188"><ele>399.0</ele><time>2026-05-01T13:54:55.999Z</time></trkpt><trkpt lat="45.55519164107885" lon="8.05509711197424"><ele>399.0</ele><time>2026-05-01T13:54:56.999Z</time></trkpt><trkpt lat="45.555076713086045" lon="8.055169942374333"><ele>398.2</ele><time>2026-05-01T13:54:57.999Z</time></trkpt><trkpt lat="45.554969736901825" lon="8.055238041465651"><ele>397.4</ele><time>2026-05-01T13:54:58.999Z</time></trkpt><trkpt lat="45.55486317539874" lon="8.055304479937485"><ele>396.6</ele><time>2026-05-01T13:54:59.999Z</time></trkpt><trkpt lat="45.554761846194005" lon="8.055370078069185"><ele>395.8</ele><time>2026-05-01T13:55:00.999Z</time></trkpt><trkpt lat="45.554669362946655" lon="8.055428901898262"><ele>395.0</ele><time>2026-05-01T13:55:01.999Z</time></trkpt><trkpt lat="45.55459153511265" lon="8.055481293154566"><ele>395.0</ele><time>2026-05-01T13:55:02.999Z</time></trkpt><trkpt lat="45.55452118474863" lon="8.05551281225289"><ele>395.0</ele><time>2026-05-01T13:55:04.999Z</time></trkpt><trkpt lat="45.55444723413176" lon="8.055557998723014"><ele>395.0</ele><time>2026-05-01T13:55:09.999Z</time></trkpt><trkpt lat="45.55428807563645" lon="8.055573840408977"><ele>395.0</ele><time>2026-05-01T14:04:47Z</time></trkpt><trkpt lat="45.554244209575835" lon="8.055681723574208"><ele>395.0</ele><time>2026-05-01T14:04:53Z</time></trkpt><trkpt lat="45.55415673764797" lon="8.055788054529918"><ele>394.99999999999994</ele><time>2026-05-01T14:04:55Z</time></trkpt><trkpt lat="45.55408990391991" lon="8.055832834870628"><ele>395.0</ele><time>2026-05-01T14:04:56Z</time></trkpt><trkpt lat="45.554009549447834" lon="8.055873053237908"><ele>395.0</ele><time>2026-05-01T14:04:57Z</time></trkpt><trkpt lat="45.55393670112169" lon="8.055914488741404"><ele>395.0</ele><time>2026-05-01T14:04:58Z</time></trkpt><trkpt lat="45.5538774048014" lon="8.055950876732235"><ele>394.99999999999994</ele><time>2026-05-01T14:04:59Z</time></trkpt><trkpt lat="45.553778249377395" lon="8.05601672451993"><ele>395.0</ele><time>2026-05-01T14:05:01Z</time></trkpt><trkpt lat="45.55370338909" lon="8.056056865255877"><ele>394.8</ele><time>2026-05-01T14:05:03Z</time></trkpt><trkpt lat="45.55363527629831" lon="8.056089187077617"><ele>394.6</ele><time>2026-05-01T14:05:06Z</time></trkpt><trkpt lat="45.553535420295894" lon="8.056139376404486"><ele>394.4</ele><time>2026-05-01T14:05:16Z</time></trkpt><trkpt lat="45.55341594120841" lon="8.056218585932012"><ele>394.2</ele><time>2026-05-01T14:05:18Z</time></trkpt><trkpt lat="45.553340320808914" lon="8.056277076656222"><ele>394.0</ele><time>2026-05-01T14:05:19Z</time></trkpt><trkpt lat="45.553247550758535" lon="8.056345602661189"><ele>394.0</ele><time>2026-05-01T14:05:20Z</time></trkpt><trkpt lat="45.55314417663963" lon="8.056419023721825"><ele>394.0</ele><time>2026-05-01T14:05:21Z</time></trkpt><trkpt lat="45.55302494869976" lon="8.056502205723577"><ele>394.0</ele><time>2026-05-01T14:05:22Z</time></trkpt><trkpt lat="45.55290213344997" lon="8.056590187139106"><ele>394.0</ele><time>2026-05-01T14:05:23Z</time></trkpt><trkpt lat="45.55277620083145" lon="8.056674359309012"><ele>392.6666666666667</ele><time>2026-05-01T14:05:24Z</time></trkpt><trkpt lat="45.5526358607576" lon="8.056763922455639"><ele>391.33333333333337</ele><time>2026-05-01T14:05:25Z</time></trkpt><trkpt lat="45.55248391269928" lon="8.056860332693399"><ele>390.0</ele><time>2026-05-01T14:05:26Z</time></trkpt><trkpt lat="45.552328233163436" lon="8.056956234307462"><ele>390.0</ele><time>2026-05-01T14:05:27Z</time></trkpt><trkpt lat="45.55218424060002" lon="8.0570487231874"><ele>390.0</ele><time>2026-05-01T14:05:28Z</time></trkpt><trkpt lat="45.552048812306516" lon="8.057135141853106"><ele>390.0</ele><time>2026-05-01T14:05:29Z</time></trkpt><trkpt lat="45.55192134768153" lon="8.057220424390904"><ele>390.0</ele><time>2026-05-01T14:05:30Z</time></trkpt><trkpt lat="45.55179416446654" lon="8.057309701373088"><ele>389.5</ele><time>2026-05-01T14:05:31Z</time></trkpt><trkpt lat="45.55167385124478" lon="8.057386813434197"><ele>389.0</ele><time>2026-05-01T14:05:32Z</time></trkpt><trkpt lat="45.5515494993333" lon="8.057461207034377"><ele>388.5</ele><time>2026-05-01T14:05:33Z</time></trkpt><trkpt lat="45.551426672877284" lon="8.057535190824568"><ele>388.0</ele><time>2026-05-01T14:05:34Z</time></trkpt><trkpt lat="45.55130625055741" lon="8.05760584509863"><ele>387.25</ele><time>2026-05-01T14:05:35Z</time></trkpt><trkpt lat="45.55117742041022" lon="8.057681594932651"><ele>386.5</ele><time>2026-05-01T14:05:36Z</time></trkpt><trkpt lat="45.551045541418056" lon="8.057764524955942"><ele>385.75</ele><time>2026-05-01T14:05:37Z</time></trkpt><trkpt lat="45.55091095452841" lon="8.057854912926093"><ele>385.0</ele><time>2026-05-01T14:05:38Z</time></trkpt><trkpt lat="45.55078971867099" lon="8.057934670135177"><ele>385.0</ele><time>2026-05-01T14:05:39Z</time></trkpt><trkpt lat="45.550656519164235" lon="8.058021813415007"><ele>385.0</ele><time>2026-05-01T14:05:40Z</time></trkpt><trkpt lat="45.55051294949669" lon="8.058112241926652"><ele>385.0</ele><time>2026-05-01T14:05:41Z</time></trkpt><trkpt lat="45.55036405066252" lon="8.05820780525691"><ele>385.0</ele><time>2026-05-01T14:05:42Z</time></trkpt><trkpt lat="45.55020779619481" lon="8.058306822847502"><ele>385.0</ele><time>2026-05-01T14:05:43Z</time></trkpt><trkpt lat="45.55005073742367" lon="8.058406318276198"><ele>385.0</ele><time>2026-05-01T14:05:44Z</time></trkpt><trkpt lat="45.549894902697076" lon="8.058504765260183"><ele>385.0</ele><time>2026-05-01T14:05:45Z</time></trkpt><trkpt lat="45.54974067687368" lon="8.058608522040998"><ele>385.0</ele><time>2026-05-01T14:05:46Z</time></trkpt><trkpt lat="45.549590941017236" lon="8.058709546930233"><ele>385.0</ele><time>2026-05-01T14:05:47Z</time></trkpt><trkpt lat="45.54945499405015" lon="8.058794903520125"><ele>384.75</ele><time>2026-05-01T14:05:48Z</time></trkpt><trkpt lat="45.549333249719005" lon="8.058873512672712"><ele>384.5</ele><time>2026-05-01T14:05:49Z</time></trkpt><trkpt lat="45.54922194196124" lon="8.058949125890214"><ele>384.25</ele><time>2026-05-01T14:05:50Z</time></trkpt><trkpt lat="45.549111690785516" lon="8.059022479477054"><ele>384.0</ele><time>2026-05-01T14:05:51Z</time></trkpt><trkpt lat="45.54899716204699" lon="8.059094729517849"><ele>384.25</ele><time>2026-05-01T14:05:52Z</time></trkpt><trkpt lat="45.54888972604446" lon="8.05916486915697"><ele>384.5</ele><time>2026-05-01T14:05:53Z</time></trkpt><trkpt lat="45.5487624554147" lon="8.059246808718608"><ele>384.75</ele><time>2026-05-01T14:05:54Z</time></trkpt><trkpt lat="45.54862210175159" lon="8.059339992522546"><ele>385.0</ele><time>2026-05-01T14:05:55Z</time></trkpt><trkpt lat="45.54847964643141" lon="8.059431276101094"><ele>384.25</ele><time>2026-05-01T14:05:56Z</time></trkpt><trkpt lat="45.54833852862558" lon="8.059520672841876"><ele>383.5</ele><time>2026-05-01T14:05:57Z</time></trkpt><trkpt lat="45.54820910072031" lon="8.059602864817792"><ele>382.75</ele><time>2026-05-01T14:05:58Z</time></trkpt><trkpt lat="45.54809283815719" lon="8.059679523287967"><ele>382.0</ele><time>2026-05-01T14:05:59Z</time></trkpt><trkpt lat="45.5479784135606" lon="8.059752322393914"><ele>381.20000000000005</ele><time>2026-05-01T14:06:00Z</time></trkpt><trkpt lat="45.54786476922204" lon="8.059828877279646"><ele>380.4</ele><time>2026-05-01T14:06:01Z</time></trkpt><trkpt lat="45.54776563496325" lon="8.059893059542862"><ele>379.6</ele><time>2026-05-01T14:06:02Z</time></trkpt><trkpt lat="45.5476822398669" lon="8.059944358798173"><ele>378.79999999999995</ele><time>2026-05-01T14:06:03Z</time></trkpt><trkpt lat="45.54760317866447" lon="8.059977632821616"><ele>378.0</ele><time>2026-05-01T14:06:04Z</time></trkpt><trkpt lat="45.54752043599668" lon="8.059977352272732"><ele>378.0</ele><time>2026-05-01T14:06:05Z</time></trkpt><trkpt lat="45.54743773878566" lon="8.059946866076364"><ele>378.0</ele><time>2026-05-01T14:06:06Z</time></trkpt><trkpt lat="45.54736847263788" lon="8.059882934468014"><ele>378.0</ele><time>2026-05-01T14:06:07Z</time></trkpt><trkpt lat="45.54731844447478" lon="8.059785010396917"><ele>378.0</ele><time>2026-05-01T14:06:08Z</time></trkpt><trkpt lat="45.54728268934557" lon="8.059646631367324"><ele>378.0</ele><time>2026-05-01T14:06:09Z</time></trkpt><trkpt lat="45.54724892922573" lon="8.059473268051418"><ele>378.0</ele><time>2026-05-01T14:06:10Z</time></trkpt><trkpt lat="45.54720896756284" lon="8.059283601566365"><ele>378.0</ele><time>2026-05-01T14:06:11Z</time></trkpt><trkpt lat="45.547165198116744" lon="8.059111092003468"><ele>378.0</ele><time>2026-05-01T14:06:12Z</time></trkpt><trkpt lat="45.54711722878714" lon="8.058964902607853"><ele>378.0</ele><time>2026-05-01T14:06:13Z</time></trkpt><trkpt lat="45.54705696027898" lon="8.058836829897178"><ele>376.25</ele><time>2026-05-01T14:06:14Z</time></trkpt><trkpt lat="45.54698004621476" lon="8.058728718753102"><ele>374.5</ele><time>2026-05-01T14:06:15Z</time></trkpt><trkpt lat="45.546886358680496" lon="8.058623597233973"><ele>372.75</ele><time>2026-05-01T14:06:16Z</time></trkpt><trkpt lat="45.54678022019124" lon="8.058501672405633"><ele>371.0</ele><time>2026-05-01T14:06:17Z</time></trkpt><trkpt lat="45.54667249550169" lon="8.058388664363385"><ele>371.0</ele><time>2026-05-01T14:06:18Z</time></trkpt><trkpt lat="45.546581558582844" lon="8.058287793554237"><ele>371.0</ele><time>2026-05-01T14:06:19Z</time></trkpt><trkpt lat="45.54649887041368" lon="8.058177383833435"><ele>371.0</ele><time>2026-05-01T14:06:20Z</time></trkpt><trkpt lat="45.54643278306572" lon="8.058043251550945"><ele>371.0</ele><time>2026-05-01T14:06:21Z</time></trkpt><trkpt lat="45.54637212911596" lon="8.057850818511998"><ele>371.33333333333337</ele><time>2026-05-01T14:06:22Z</time></trkpt><trkpt lat="45.546304089672766" lon="8.057606191131175"><ele>371.6666666666667</ele><time>2026-05-01T14:06:23Z</time></trkpt><trkpt lat="45.54622232433034" lon="8.057330152411556"><ele>372.0</ele><time>2026-05-01T14:06:24Z</time></trkpt><trkpt lat="45.54613101468604" lon="8.057038257307969"><ele>372.0</ele><time>2026-05-01T14:06:25Z</time></trkpt><trkpt lat="45.54604092852842" lon="8.056735571999345"><ele>372.0</ele><time>2026-05-01T14:06:26Z</time></trkpt><trkpt lat="45.545959123347906" lon="8.056444901485841"><ele>371.6666666666667</ele><time>2026-05-01T14:06:27Z</time></trkpt><trkpt lat="45.54588715618159" lon="8.056177281439338"><ele>371.33333333333337</ele><time>2026-05-01T14:06:28Z</time></trkpt><trkpt lat="45.545817858893265" lon="8.05592175190749"><ele>371.0</ele><time>2026-05-01T14:06:29Z</time></trkpt><trkpt lat="45.54574739350376" lon="8.05566565976341"><ele>372.33333333333337</ele><time>2026-05-01T14:06:30Z</time></trkpt><trkpt lat="45.545678957358966" lon="8.055415139714022"><ele>373.6666666666667</ele><time>2026-05-01T14:06:31Z</time></trkpt><trkpt lat="45.545614963894785" lon="8.055175595972377"><ele>375.0</ele><time>2026-05-01T14:06:32Z</time></trkpt><trkpt lat="45.5455512020911" lon="8.05494307013481"><ele>375.6666666666667</ele><time>2026-05-01T14:06:33Z</time></trkpt><trkpt lat="45.54548746688031" lon="8.054683069002163"><ele>376.33333333333337</ele><time>2026-05-01T14:06:34Z</time></trkpt><trkpt lat="45.54542170287332" lon="8.054397712703764"><ele>377.0</ele><time>2026-05-01T14:06:35Z</time></trkpt><trkpt lat="45.54536311131134" lon="8.05412088188769"><ele>375.33333333333337</ele><time>2026-05-01T14:06:36Z</time></trkpt><trkpt lat="45.54531170283293" lon="8.053872727770305"><ele>373.6666666666667</ele><time>2026-05-01T14:06:37Z</time></trkpt><trkpt lat="45.545262905666775" lon="8.053639912911468"><ele>372.0</ele><time>2026-05-01T14:06:38Z</time></trkpt><trkpt lat="45.54521857725704" lon="8.053429068122497"><ele>372.5</ele><time>2026-05-01T14:06:39Z</time></trkpt><trkpt lat="45.54518147395357" lon="8.053238286810425"><ele>373.0</ele><time>2026-05-01T14:06:40Z</time></trkpt><trkpt lat="45.54515153608317" lon="8.053074035156717"><ele>373.5</ele><time>2026-05-01T14:06:41Z</time></trkpt><trkpt lat="45.54512208551931" lon="8.052924436761872"><ele>374.0</ele><time>2026-05-01T14:06:42Z</time></trkpt><trkpt lat="45.545098889251676" lon="8.052795703734871"><ele>374.0</ele><time>2026-05-01T14:06:43Z</time></trkpt><trkpt lat="45.54508499321059" lon="8.052690048488145"><ele>374.0</ele><time>2026-05-01T14:06:44Z</time></trkpt><trkpt lat="45.545086985972866" lon="8.052593729199048"><ele>374.0</ele><time>2026-05-01T14:06:45Z</time></trkpt><trkpt lat="45.545099716890185" lon="8.052488465887683"><ele>374.0</ele><time>2026-05-01T14:06:46Z</time></trkpt><trkpt lat="45.54510849790836" lon="8.05237909331954"><ele>374.0</ele><time>2026-05-01T14:06:47Z</time></trkpt><trkpt lat="45.545117720970744" lon="8.052285668877355"><ele>374.0</ele><time>2026-05-01T14:06:48Z</time></trkpt><trkpt lat="45.54506744542332" lon="8.052210019031431"><ele>374.0</ele><time>2026-05-01T14:06:49Z</time></trkpt><trkpt lat="45.54499270246727" lon="8.052163157191822"><ele>374.2</ele><time>2026-05-01T14:06:50Z</time></trkpt><trkpt lat="45.54491097959519" lon="8.052178844594131"><ele>374.4</ele><time>2026-05-01T14:06:51Z</time></trkpt><trkpt lat="45.54484057529074" lon="8.052241763520586"><ele>374.6</ele><time>2026-05-01T14:06:52Z</time></trkpt><trkpt lat="45.544767668674154" lon="8.052329303081313"><ele>374.8</ele><time>2026-05-01T14:06:53Z</time></trkpt><trkpt lat="45.5447191607806" lon="8.052446674490083"><ele>375.0</ele><time>2026-05-01T14:06:54Z</time></trkpt><trkpt lat="45.54461961277131" lon="8.052443969994169"><ele>375.0</ele><time>2026-05-01T14:06:55Z</time></trkpt><trkpt lat="45.54452047012406" lon="8.0524957643684"><ele>375.0</ele><time>2026-05-01T14:06:56Z</time></trkpt><trkpt lat="45.544385643834424" lon="8.052538551496458"><ele>375.0</ele><time>2026-05-01T14:06:57Z</time></trkpt><trkpt lat="45.54423243479232" lon="8.052584099064692"><ele>375.0</ele><time>2026-05-01T14:06:58Z</time></trkpt><trkpt lat="45.54406609157882" lon="8.052639320100399"><ele>375.0</ele><time>2026-05-01T14:06:59Z</time></trkpt><trkpt lat="45.54389812480333" lon="8.052672284600941"><ele>375.0</ele><time>2026-05-01T14:07:00Z</time></trkpt><trkpt lat="45.543727704547486" lon="8.052750037817892"><ele>375.0</ele><time>2026-05-01T14:07:01Z</time></trkpt><trkpt lat="45.543566624403375" lon="8.052791370477813"><ele>375.0</ele><time>2026-05-01T14:07:02Z</time></trkpt><trkpt lat="45.54342378938797" lon="8.052843303353194"><ele>375.0</ele><time>2026-05-01T14:07:03Z</time></trkpt><trkpt lat="45.543285920819905" lon="8.052887868840665"><ele>375.0</ele><time>2026-05-01T14:07:04Z</time></trkpt><trkpt lat="45.543141452656855" lon="8.052935229997514"><ele>375.0</ele><time>2026-05-01T14:07:05Z</time></trkpt><trkpt lat="45.54300470052369" lon="8.052979237992991"><ele>375.0</ele><time>2026-05-01T14:07:06Z</time></trkpt><trkpt lat="45.542896176814516" lon="8.053015269410855"><ele>375.0</ele><time>2026-05-01T14:07:07Z</time></trkpt><trkpt lat="45.542834843607785" lon="8.05303618597782"><ele>375.0</ele><time>2026-05-01T14:07:08Z</time></trkpt><trkpt lat="45.54272429913215" lon="8.053048739638754"><ele>375.0</ele><time>2026-05-01T14:07:45.999Z</time></trkpt><trkpt lat="45.542624436868685" lon="8.053080067879252"><ele>375.0</ele><time>2026-05-01T14:07:46.999Z</time></trkpt><trkpt lat="45.54250575605104" lon="8.053117901496558"><ele>374.6666666666667</ele><time>2026-05-01T14:07:47.999Z</time></trkpt><trkpt lat="45.54236673606388" lon="8.053162221216159"><ele>374.33333333333337</ele><time>2026-05-01T14:07:48.999Z</time></trkpt><trkpt lat="45.54221081315093" lon="8.053213223054568"><ele>374.0</ele><time>2026-05-01T14:07:49.999Z</time></trkpt><trkpt lat="45.54204747253667" lon="8.0532661891463"><ele>372.33333333333337</ele><time>2026-05-01T14:07:50.999Z</time></trkpt><trkpt lat="45.541886721104824" lon="8.053317339087679"><ele>370.6666666666667</ele><time>2026-05-01T14:07:51.999Z</time></trkpt><trkpt lat="45.54172978710574" lon="8.053367598544531"><ele>369.0</ele><time>2026-05-01T14:07:52.999Z</time></trkpt><trkpt lat="45.541566042609816" lon="8.053419910409787"><ele>369.0</ele><time>2026-05-01T14:07:53.999Z</time></trkpt><trkpt lat="45.54140185255278" lon="8.053472364612086"><ele>369.0</ele><time>2026-05-01T14:07:54.999Z</time></trkpt><trkpt lat="45.54122853779369" lon="8.053527733910148"><ele>369.0</ele><time>2026-05-01T14:07:55.999Z</time></trkpt><trkpt lat="45.54106372289857" lon="8.053580495678876"><ele>368.6666666666667</ele><time>2026-05-01T14:07:56.999Z</time></trkpt><trkpt lat="45.5409090362302" lon="8.053630046687463"><ele>368.33333333333337</ele><time>2026-05-01T14:07:57.999Z</time></trkpt><trkpt lat="45.5407506404074" lon="8.053681566719709"><ele>368.0</ele><time>2026-05-01T14:07:58.999Z</time></trkpt><trkpt lat="45.540588469085144" lon="8.053734088632126"><ele>368.0</ele><time>2026-05-01T14:07:59.999Z</time></trkpt><trkpt lat="45.54042766609415" lon="8.053785360247378"><ele>368.0</ele><time>2026-05-01T14:08:00.999Z</time></trkpt><trkpt lat="45.54027694209649" lon="8.053833662926856"><ele>368.0</ele><time>2026-05-01T14:08:01.999Z</time></trkpt><trkpt lat="45.54012955581561" lon="8.053880895974142"><ele>367.5</ele><time>2026-05-01T14:08:02.999Z</time></trkpt><trkpt lat="45.53998987916285" lon="8.053925658310305"><ele>367.0</ele><time>2026-05-01T14:08:03.999Z</time></trkpt><trkpt lat="45.53986685149112" lon="8.053989252599058"><ele>366.5</ele><time>2026-05-01T14:08:04.999Z</time></trkpt><trkpt lat="45.539747123850816" lon="8.054023246399796"><ele>366.0</ele><time>2026-05-01T14:08:05.999Z</time></trkpt><trkpt lat="45.53962034877881" lon="8.054056106877816"><ele>365.6</ele><time>2026-05-01T14:08:06.999Z</time></trkpt><trkpt lat="45.53950466522095" lon="8.054087105522022"><ele>365.20000000000005</ele><time>2026-05-01T14:08:07.999Z</time></trkpt><trkpt lat="45.53940267915014" lon="8.054118818736079"><ele>364.79999999999995</ele><time>2026-05-01T14:08:08.999Z</time></trkpt><trkpt lat="45.53931318861685" lon="8.054138469521982"><ele>364.4</ele><time>2026-05-01T14:08:09.999Z</time></trkpt><trkpt lat="45.53921930482773" lon="8.054156339571888"><ele>364.0</ele><time>2026-05-01T14:08:10.999Z</time></trkpt><trkpt lat="45.53912293898986" lon="8.054184853767774"><ele>364.0</ele><time>2026-05-01T14:08:11.999Z</time></trkpt><trkpt lat="45.53902764647624" lon="8.054233422856733"><ele>364.0</ele><time>2026-05-01T14:08:12.999Z</time></trkpt><trkpt lat="45.53893243315093" lon="8.054275472930096"><ele>364.0</ele><time>2026-05-01T14:08:13.999Z</time></trkpt><trkpt lat="45.5388368699013" lon="8.054326548863187"><ele>364.0</ele><time>2026-05-01T14:08:14.999Z</time></trkpt><trkpt lat="45.538742963900155" lon="8.054382601134254"><ele>364.0</ele><time>2026-05-01T14:08:15.999Z</time></trkpt><trkpt lat="45.538640143025475" lon="8.05444881224809"><ele>363.79999999999995</ele><time>2026-05-01T14:08:16.999Z</time></trkpt><trkpt lat="45.53853870264675" lon="8.054520731421684"><ele>363.59999999999997</ele><time>2026-05-01T14:08:17.999Z</time></trkpt><trkpt lat="45.538451709359386" lon="8.054588291066723"><ele>363.4</ele><time>2026-05-01T14:08:18.999Z</time></trkpt><trkpt lat="45.53836896111504" lon="8.05465139150562"><ele>363.2</ele><time>2026-05-01T14:08:19.999Z</time></trkpt><trkpt lat="45.53829210264471" lon="8.054701474232111"><ele>363.0</ele><time>2026-05-01T14:08:20.999Z</time></trkpt><trkpt lat="45.53822956746851" lon="8.054733971815754"><ele>363.0</ele><time>2026-05-01T14:08:21.999Z</time></trkpt><trkpt lat="45.53812165498668" lon="8.05477017495033"><ele>363.0</ele><time>2026-05-01T14:08:23.999Z</time></trkpt><trkpt lat="45.5380138337626" lon="8.054774043652912"><ele>363.0</ele><time>2026-05-01T14:08:26Z</time></trkpt><trkpt lat="45.5379463927959" lon="8.054760596009277"><ele>363.0</ele><time>2026-05-01T14:08:27Z</time></trkpt><trkpt lat="45.537902510668246" lon="8.054686355023874"><ele>363.0</ele><time>2026-05-01T14:08:28Z</time></trkpt><trkpt lat="45.537839495585295" lon="8.054659967061125"><ele>363.0</ele><time>2026-05-01T14:08:29Z</time></trkpt><trkpt lat="45.537762243196134" lon="8.054656993404471"><ele>363.0</ele><time>2026-05-01T14:08:30Z</time></trkpt><trkpt lat="45.53769640736115" lon="8.054666856584847"><ele>363.0</ele><time>2026-05-01T14:08:31Z</time></trkpt><trkpt lat="45.53763451856133" lon="8.054684130795842"><ele>363.0</ele><time>2026-05-01T14:08:32Z</time></trkpt><trkpt lat="45.537532099043545" lon="8.054736808358133"><ele>363.0</ele><time>2026-05-01T14:08:34Z</time></trkpt><trkpt lat="45.53743448052734" lon="8.054835853364752"><ele>363.0</ele><time>2026-05-01T14:08:36Z</time></trkpt><trkpt lat="45.53737034361769" lon="8.054959949801223"><ele>363.0</ele><time>2026-05-01T14:08:38Z</time></trkpt><trkpt lat="45.53728706669672" lon="8.055061641117456"><ele>363.0</ele><time>2026-05-01T14:08:40Z</time></trkpt><trkpt lat="45.53718898649932" lon="8.055148690706853"><ele>363.0</ele><time>2026-05-01T14:08:42Z</time></trkpt><trkpt lat="45.537102460837076" lon="8.055136821818648"><ele>363.0</ele><time>2026-05-01T14:09:38.999Z</time></trkpt><trkpt lat="45.53697231274093" lon="8.055166410670735"><ele>363.0</ele><time>2026-05-01T14:09:40.999Z</time></trkpt><trkpt lat="45.5368443336232" lon="8.055190130674724"><ele>362.75</ele><time>2026-05-01T14:09:41.999Z</time></trkpt><trkpt lat="45.53669149167617" lon="8.055217990175988"><ele>362.5</ele><time>2026-05-01T14:09:42.999Z</time></trkpt><trkpt lat="45.53655107102494" lon="8.055275786005618"><ele>362.25</ele><time>2026-05-01T14:09:43.999Z</time></trkpt><trkpt lat="45.53643047465442" lon="8.055345062834222"><ele>362.0</ele><time>2026-05-01T14:09:44.999Z</time></trkpt><trkpt lat="45.53629139717269" lon="8.055402759747764"><ele>361.25</ele><time>2026-05-01T14:09:45.999Z</time></trkpt><trkpt lat="45.53615139550009" lon="8.05546908262557"><ele>360.5</ele><time>2026-05-01T14:09:46.999Z</time></trkpt><trkpt lat="45.53602020248275" lon="8.055534800416696"><ele>359.75</ele><time>2026-05-01T14:09:47.999Z</time></trkpt><trkpt lat="45.535866890088805" lon="8.055559084902272"><ele>359.0</ele><time>2026-05-01T14:09:48.999Z</time></trkpt><trkpt lat="45.535715325868125" lon="8.055611854329927"><ele>359.0</ele><time>2026-05-01T14:09:49.999Z</time></trkpt><trkpt lat="45.53556320712005" lon="8.055670298746707"><ele>359.0</ele><time>2026-05-01T14:09:50.999Z</time></trkpt><trkpt lat="45.53542126710923" lon="8.055726541524445"><ele>359.0</ele><time>2026-05-01T14:09:51.999Z</time></trkpt><trkpt lat="45.53527633809653" lon="8.055785600911369"><ele>358.0</ele><time>2026-05-01T14:09:52.999Z</time></trkpt><trkpt lat="45.53512364044992" lon="8.055844898517309"><ele>357.0</ele><time>2026-05-01T14:09:53.999Z</time></trkpt><trkpt lat="45.53492879461126" lon="8.05593625011025"><ele>356.0</ele><time>2026-05-01T14:09:54.999Z</time></trkpt><trkpt lat="45.53469990762273" lon="8.05601512190919"><ele>355.33333333333337</ele><time>2026-05-01T14:09:55.999Z</time></trkpt><trkpt lat="45.53450714812251" lon="8.056057949410702"><ele>354.6666666666667</ele><time>2026-05-01T14:09:56.999Z</time></trkpt><trkpt lat="45.534313007315966" lon="8.056118838886661"><ele>354.0</ele><time>2026-05-01T14:09:57.999Z</time></trkpt><trkpt lat="45.53411822914669" lon="8.056179865008698"><ele>354.0</ele><time>2026-05-01T14:09:58.999Z</time></trkpt><trkpt lat="45.53392884407156" lon="8.056257005146486"><ele>354.0</ele><time>2026-05-01T14:09:59.999Z</time></trkpt><trkpt lat="45.533761482754386" lon="8.05629724939776"><ele>354.0</ele><time>2026-05-01T14:10:00.999Z</time></trkpt><trkpt lat="45.53361826426605" lon="8.05633616852475"><ele>352.6666666666667</ele><time>2026-05-01T14:10:01.999Z</time></trkpt><trkpt lat="45.533483359221705" lon="8.056354152956962"><ele>351.33333333333337</ele><time>2026-05-01T14:10:02.999Z</time></trkpt><trkpt lat="45.533336611694835" lon="8.056394896295885"><ele>350.0</ele><time>2026-05-01T14:10:03.999Z</time></trkpt><trkpt lat="45.5331517584059" lon="8.056467421973679"><ele>350.0</ele><time>2026-05-01T14:10:04.999Z</time></trkpt><trkpt lat="45.532949582082345" lon="8.05652276978175"><ele>350.0</ele><time>2026-05-01T14:10:05.999Z</time></trkpt><trkpt lat="45.5327502815891" lon="8.056579440625864"><ele>350.0</ele><time>2026-05-01T14:10:06.999Z</time></trkpt><trkpt lat="45.5325517751988" lon="8.056610169117866"><ele>349.6666666666667</ele><time>2026-05-01T14:10:07.999Z</time></trkpt><trkpt lat="45.532358681777815" lon="8.056663238079098"><ele>349.3333333333333</ele><time>2026-05-01T14:10:08.999Z</time></trkpt><trkpt lat="45.53216750331721" lon="8.056729654159449"><ele>349.0</ele><time>2026-05-01T14:10:09.999Z</time></trkpt><trkpt lat="45.5319723828425" lon="8.056763731892003"><ele>347.66666666666663</ele><time>2026-05-01T14:10:10.999Z</time></trkpt><trkpt lat="45.53177819061441" lon="8.056835382656985"><ele>346.3333333333333</ele><time>2026-05-01T14:10:11.999Z</time></trkpt><trkpt lat="45.5315933779657" lon="8.056892226950389"><ele>345.0</ele><time>2026-05-01T14:10:12.999Z</time></trkpt><trkpt lat="45.53142154043412" lon="8.056938568385732"><ele>345.0</ele><time>2026-05-01T14:10:13.999Z</time></trkpt><trkpt lat="45.531259608778605" lon="8.056982346345132"><ele>345.0</ele><time>2026-05-01T14:10:14.999Z</time></trkpt><trkpt lat="45.53111983877432" lon="8.057021469605033"><ele>345.0</ele><time>2026-05-01T14:10:15.999Z</time></trkpt><trkpt lat="45.53097965016521" lon="8.0570494578452"><ele>345.0</ele><time>2026-05-01T14:10:16.999Z</time></trkpt><trkpt lat="45.5308585282773" lon="8.057062575424672"><ele>344.75</ele><time>2026-05-01T14:10:17.999Z</time></trkpt><trkpt lat="45.530748385457066" lon="8.05705585535346"><ele>344.5</ele><time>2026-05-01T14:10:18.999Z</time></trkpt><trkpt lat="45.53063653812047" lon="8.057019677720275"><ele>344.25</ele><time>2026-05-01T14:10:19.999Z</time></trkpt><trkpt lat="45.53051587092271" lon="8.056913415839158"><ele>344.0</ele><time>2026-05-01T14:10:20.999Z</time></trkpt><trkpt lat="45.530352718953296" lon="8.056797281302273"><ele>343.6666666666667</ele><time>2026-05-01T14:10:21.999Z</time></trkpt><trkpt lat="45.53016321679329" lon="8.056671970139668"><ele>343.3333333333333</ele><time>2026-05-01T14:10:22.999Z</time></trkpt><trkpt lat="45.52998956921576" lon="8.05653001262269"><ele>343.0</ele><time>2026-05-01T14:10:23.999Z</time></trkpt><trkpt lat="45.529821837897536" lon="8.056371173002837"><ele>343.0</ele><time>2026-05-01T14:10:24.999Z</time></trkpt><trkpt lat="45.529632916901946" lon="8.056228360401843"><ele>343.0</ele><time>2026-05-01T14:10:25.999Z</time></trkpt><trkpt lat="45.529444805127355" lon="8.056111108658213"><ele>343.0</ele><time>2026-05-01T14:10:26.999Z</time></trkpt><trkpt lat="45.529269327734994" lon="8.055976360688966"><ele>342.66666666666663</ele><time>2026-05-01T14:10:27.999Z</time></trkpt><trkpt lat="45.52910054175837" lon="8.055844199406739"><ele>342.3333333333333</ele><time>2026-05-01T14:10:28.999Z</time></trkpt><trkpt lat="45.52894164580281" lon="8.055721056183108"><ele>342.0</ele><time>2026-05-01T14:10:29.999Z</time></trkpt><trkpt lat="45.52879089900561" lon="8.055601721516968"><ele>342.0</ele><time>2026-05-01T14:10:30.999Z</time></trkpt><trkpt lat="45.52865989001375" lon="8.055500771089305"><ele>342.0</ele><time>2026-05-01T14:10:32Z</time></trkpt><trkpt lat="45.52853342850827" lon="8.055397075682794"><ele>342.0</ele><time>2026-05-01T14:10:33Z</time></trkpt><trkpt lat="45.52841176706975" lon="8.055247286667713"><ele>342.0</ele><time>2026-05-01T14:10:34Z</time></trkpt><trkpt lat="45.528260124567076" lon="8.05508791971238"><ele>342.0</ele><time>2026-05-01T14:10:35Z</time></trkpt><trkpt lat="45.528107645165335" lon="8.054870194939543"><ele>342.0</ele><time>2026-05-01T14:10:36Z</time></trkpt><trkpt lat="45.52793418936069" lon="8.054628432408323"><ele>340.5</ele><time>2026-05-01T14:10:37Z</time></trkpt><trkpt lat="45.52775560693711" lon="8.05438190647164"><ele>339.0</ele><time>2026-05-01T14:10:38Z</time></trkpt><trkpt lat="45.52755662519035" lon="8.054108830295009"><ele>339.0</ele><time>2026-05-01T14:10:39Z</time></trkpt><trkpt lat="45.52734604339979" lon="8.05382138407848"><ele>339.0</ele><time>2026-05-01T14:10:40Z</time></trkpt><trkpt lat="45.527156807904326" lon="8.053560890232431"><ele>338.3333333333333</ele><time>2026-05-01T14:10:41Z</time></trkpt><trkpt lat="45.526997844494765" lon="8.053340535528697"><ele>337.66666666666663</ele><time>2026-05-01T14:10:42Z</time></trkpt><trkpt lat="45.526851285802366" lon="8.053133396574912"><ele>337.0</ele><time>2026-05-01T14:10:43Z</time></trkpt><trkpt lat="45.52672525968217" lon="8.052957155585016"><ele>337.0</ele><time>2026-05-01T14:10:44Z</time></trkpt><trkpt lat="45.52659955447158" lon="8.052779563470777"><ele>337.0</ele><time>2026-05-01T14:10:45Z</time></trkpt><trkpt lat="45.52647553418092" lon="8.052617678953718"><ele>337.0</ele><time>2026-05-01T14:10:46Z</time></trkpt><trkpt lat="45.5263534020479" lon="8.052476113566371"><ele>337.0</ele><time>2026-05-01T14:10:47Z</time></trkpt><trkpt lat="45.52621580246198" lon="8.052347076673868"><ele>337.0</ele><time>2026-05-01T14:10:48Z</time></trkpt><trkpt lat="45.526065848910655" lon="8.05222755452497"><ele>337.0</ele><time>2026-05-01T14:10:49Z</time></trkpt><trkpt lat="45.52592985202502" lon="8.052134166911332"><ele>337.0</ele><time>2026-05-01T14:10:50Z</time></trkpt><trkpt lat="45.52579922844376" lon="8.052062676971126"><ele>337.0</ele><time>2026-05-01T14:10:51Z</time></trkpt><trkpt lat="45.52565560029537" lon="8.052010626270107"><ele>337.0</ele><time>2026-05-01T14:10:52Z</time></trkpt><trkpt lat="45.52550257244773" lon="8.051973278157764"><ele>337.0</ele><time>2026-05-01T14:10:53Z</time></trkpt><trkpt lat="45.52534527671611" lon="8.051949770948163"><ele>336.0</ele><time>2026-05-01T14:10:54Z</time></trkpt><trkpt lat="45.52518478825732" lon="8.05194356715891"><ele>335.0</ele><time>2026-05-01T14:10:55Z</time></trkpt><trkpt lat="45.525026646262624" lon="8.051963473525664"><ele>334.0</ele><time>2026-05-01T14:10:56Z</time></trkpt><trkpt lat="45.524853751153024" lon="8.052003853925392"><ele>334.0</ele><time>2026-05-01T14:10:57Z</time></trkpt><trkpt lat="45.524650818327935" lon="8.052060869843132"><ele>334.0</ele><time>2026-05-01T14:10:58Z</time></trkpt><trkpt lat="45.52441060874682" lon="8.05213896870183"><ele>334.5</ele><time>2026-05-01T14:10:59Z</time></trkpt><trkpt lat="45.5241494370882" lon="8.052230457570216"><ele>335.0</ele><time>2026-05-01T14:11:00Z</time></trkpt><trkpt lat="45.52388586746078" lon="8.05232761261863"><ele>333.5</ele><time>2026-05-01T14:11:01Z</time></trkpt><trkpt lat="45.52360454040254" lon="8.05243077658291"><ele>332.0</ele><time>2026-05-01T14:11:02Z</time></trkpt><trkpt lat="45.52330397843304" lon="8.052538683766617"><ele>332.0</ele><time>2026-05-01T14:11:03Z</time></trkpt><trkpt lat="45.52298321740483" lon="8.052652406720373"><ele>332.0</ele><time>2026-05-01T14:11:04Z</time></trkpt><trkpt lat="45.52265929255068" lon="8.052766749622698"><ele>330.5</ele><time>2026-05-01T14:11:05Z</time></trkpt><trkpt lat="45.52236815862358" lon="8.052868262478453"><ele>329.0</ele><time>2026-05-01T14:11:06Z</time></trkpt><trkpt lat="45.5221046853617" lon="8.052961826117855"><ele>329.0</ele><time>2026-05-01T14:11:07Z</time></trkpt><trkpt lat="45.52186043673941" lon="8.05304979876239"><ele>329.0</ele><time>2026-05-01T14:11:08Z</time></trkpt><trkpt lat="45.5216250598171" lon="8.0531335197518"><ele>329.0</ele><time>2026-05-01T14:11:09Z</time></trkpt><trkpt lat="45.521390514386795" lon="8.053218295853062"><ele>329.0</ele><time>2026-05-01T14:11:10Z</time></trkpt><trkpt lat="45.5211469620948" lon="8.053301557532425"><ele>328.5</ele><time>2026-05-01T14:11:11Z</time></trkpt><trkpt lat="45.52088118377534" lon="8.053393176311014"><ele>328.0</ele><time>2026-05-01T14:11:12Z</time></trkpt><trkpt lat="45.52061357352753" lon="8.053487551428114"><ele>326.5</ele><time>2026-05-01T14:11:13Z</time></trkpt><trkpt lat="45.52035367241107" lon="8.053580132069127"><ele>325.0</ele><time>2026-05-01T14:11:14Z</time></trkpt><trkpt lat="45.520090833800566" lon="8.053673940666387"><ele>325.0</ele><time>2026-05-01T14:11:15Z</time></trkpt><trkpt lat="45.51983454275736" lon="8.053765482355908"><ele>325.0</ele><time>2026-05-01T14:11:16Z</time></trkpt><trkpt lat="45.51957235928144" lon="8.053849574852562"><ele>325.0</ele><time>2026-05-01T14:11:17Z</time></trkpt><trkpt lat="45.519314442190925" lon="8.053943873158065"><ele>325.0</ele><time>2026-05-01T14:11:18Z</time></trkpt><trkpt lat="45.519077606558284" lon="8.054027004799487"><ele>325.0</ele><time>2026-05-01T14:11:19Z</time></trkpt><trkpt lat="45.51883964256317" lon="8.054110224850021"><ele>325.0</ele><time>2026-05-01T14:11:20Z</time></trkpt><trkpt lat="45.518600468130906" lon="8.054195327754456"><ele>324.5</ele><time>2026-05-01T14:11:21Z</time></trkpt><trkpt lat="45.51836312168974" lon="8.054278385193196"><ele>324.0</ele><time>2026-05-01T14:11:22Z</time></trkpt><trkpt lat="45.518123834854556" lon="8.054359574562332"><ele>323.0</ele><time>2026-05-01T14:11:23Z</time></trkpt><trkpt lat="45.51789345092784" lon="8.054439801191835"><ele>322.0</ele><time>2026-05-01T14:11:24Z</time></trkpt><trkpt lat="45.51766349314601" lon="8.054521151167393"><ele>322.0</ele><time>2026-05-01T14:11:25Z</time></trkpt><trkpt lat="45.517440256560064" lon="8.054596528773635"><ele>322.0</ele><time>2026-05-01T14:11:26Z</time></trkpt><trkpt lat="45.51722339453689" lon="8.054670568023049"><ele>322.3333333333333</ele><time>2026-05-01T14:11:27Z</time></trkpt><trkpt lat="45.51700698707167" lon="8.054744662624458"><ele>322.6666666666667</ele><time>2026-05-01T14:11:28Z</time></trkpt><trkpt lat="45.516794446562294" lon="8.05481973380501"><ele>323.0</ele><time>2026-05-01T14:11:29Z</time></trkpt><trkpt lat="45.516581066559844" lon="8.054899973730684"><ele>323.0</ele><time>2026-05-01T14:11:30Z</time></trkpt><trkpt lat="45.51636872800099" lon="8.054965539857442"><ele>323.0</ele><time>2026-05-01T14:11:31Z</time></trkpt><trkpt lat="45.51615162486816" lon="8.055040211441412"><ele>323.0</ele><time>2026-05-01T14:11:32Z</time></trkpt><trkpt lat="45.51593002876517" lon="8.055119871982438"><ele>322.5</ele><time>2026-05-01T14:11:33Z</time></trkpt><trkpt lat="45.51570416832073" lon="8.05519928176784"><ele>322.0</ele><time>2026-05-01T14:11:34Z</time></trkpt><trkpt lat="45.515478200329255" lon="8.055253856268099"><ele>320.5</ele><time>2026-05-01T14:11:35Z</time></trkpt><trkpt lat="45.51525854011658" lon="8.0553308995618"><ele>319.0</ele><time>2026-05-01T14:11:36Z</time></trkpt><trkpt lat="45.51503214029796" lon="8.055431994047922"><ele>319.0</ele><time>2026-05-01T14:11:37Z</time></trkpt><trkpt lat="45.5148106411798" lon="8.055504002238271"><ele>319.0</ele><time>2026-05-01T14:11:38Z</time></trkpt><trkpt lat="45.51459182392253" lon="8.055586385073752"><ele>317.5</ele><time>2026-05-01T14:11:39Z</time></trkpt><trkpt lat="45.51437070093012" lon="8.055657648109683"><ele>316.0</ele><time>2026-05-01T14:11:40Z</time></trkpt><trkpt lat="45.514141784903714" lon="8.05573506215811"><ele>316.0</ele><time>2026-05-01T14:11:41Z</time></trkpt><trkpt lat="45.51391971937813" lon="8.055811819038269"><ele>316.0</ele><time>2026-05-01T14:11:42Z</time></trkpt><trkpt lat="45.51370240852066" lon="8.055884431367486"><ele>315.66666666666663</ele><time>2026-05-01T14:11:43Z</time></trkpt><trkpt lat="45.51348718950268" lon="8.055964326751878"><ele>315.3333333333333</ele><time>2026-05-01T14:11:44Z</time></trkpt><trkpt lat="45.51328039630796" lon="8.056039762157907"><ele>315.0</ele><time>2026-05-01T14:11:45Z</time></trkpt><trkpt lat="45.51307951442101" lon="8.056104135077591"><ele>314.3333333333333</ele><time>2026-05-01T14:11:46Z</time></trkpt><trkpt lat="45.51289706207011" lon="8.056167438411507"><ele>313.66666666666663</ele><time>2026-05-01T14:11:47Z</time></trkpt><trkpt lat="45.51274185011184" lon="8.056214692538768"><ele>313.0</ele><time>2026-05-01T14:11:48Z</time></trkpt><trkpt lat="45.51260704737516" lon="8.05625774212497"><ele>313.0</ele><time>2026-05-01T14:11:48.999Z</time></trkpt><trkpt lat="45.512488060410625" lon="8.056295680695648"><ele>313.0</ele><time>2026-05-01T14:11:49.999Z</time></trkpt><trkpt lat="45.512382769720254" lon="8.05633775073649"><ele>313.0</ele><time>2026-05-01T14:11:50.999Z</time></trkpt><trkpt lat="45.51229760330598" lon="8.056391205109126"><ele>313.0</ele><time>2026-05-01T14:11:51.999Z</time></trkpt><trkpt lat="45.51223441946061" lon="8.056464277249411"><ele>313.0</ele><time>2026-05-01T14:11:52.999Z</time></trkpt><trkpt lat="45.51217952679553" lon="8.056569724093176"><ele>313.0</ele><time>2026-05-01T14:11:53.999Z</time></trkpt><trkpt lat="45.512131085997765" lon="8.05670892716655"><ele>313.0</ele><time>2026-05-01T14:11:54.999Z</time></trkpt><trkpt lat="45.51207785290521" lon="8.056872660866954"><ele>313.0</ele><time>2026-05-01T14:11:55.999Z</time></trkpt><trkpt lat="45.51200992537398" lon="8.057021907049968"><ele>313.0</ele><time>2026-05-01T14:11:56.999Z</time></trkpt><trkpt lat="45.51193891322779" lon="8.057127662141838"><ele>313.0</ele><time>2026-05-01T14:11:57.999Z</time></trkpt><trkpt lat="45.51187634796872" lon="8.05719826818745"><ele>313.0</ele><time>2026-05-01T14:11:58.999Z</time></trkpt><trkpt lat="45.51178530289026" lon="8.057262196274882"><ele>313.0</ele><time>2026-05-01T14:12:00.999Z</time></trkpt><trkpt lat="45.5116751572418" lon="8.057226033468478"><ele>313.0</ele><time>2026-05-01T14:12:02.999Z</time></trkpt><trkpt lat="45.51162633161022" lon="8.057150424348835"><ele>313.0</ele><time>2026-05-01T14:12:03.999Z</time></trkpt><trkpt lat="45.511592040737035" lon="8.057043050322918"><ele>313.0</ele><time>2026-05-01T14:12:04.999Z</time></trkpt><trkpt lat="45.51158145070323" lon="8.0569300846815"><ele>313.0</ele><time>2026-05-01T14:12:05.999Z</time></trkpt><trkpt lat="45.51159260614513" lon="8.05681466062597"><ele>313.0</ele><time>2026-05-01T14:12:06.999Z</time></trkpt><trkpt lat="45.511628571688924" lon="8.056689054457145"><ele>313.0</ele><time>2026-05-01T14:12:07.999Z</time></trkpt><trkpt lat="45.51167578750675" lon="8.056558491782495"><ele>313.0</ele><time>2026-05-01T14:12:08.999Z</time></trkpt><trkpt lat="45.511702657352615" lon="8.05644198518252"><ele>313.0</ele><time>2026-05-01T14:12:09.999Z</time></trkpt><trkpt lat="45.511688335725005" lon="8.056338479143461"><ele>313.0</ele><time>2026-05-01T14:12:10.999Z</time></trkpt><trkpt lat="45.51164889223587" lon="8.056239039464902"><ele>313.0</ele><time>2026-05-01T14:12:11.999Z</time></trkpt><trkpt lat="45.51159588812136" lon="8.056160738263735"><ele>313.0</ele><time>2026-05-01T14:12:12.999Z</time></trkpt><trkpt lat="45.51152759697553" lon="8.056115211081542"><ele>313.0</ele><time>2026-05-01T14:12:13.999Z</time></trkpt><trkpt lat="45.511432128766764" lon="8.056091636533354"><ele>313.0</ele><time>2026-05-01T14:12:14.999Z</time></trkpt><trkpt lat="45.511317381384984" lon="8.056091217233565"><ele>313.0</ele><time>2026-05-01T14:12:15.999Z</time></trkpt><trkpt lat="45.5112066085407" lon="8.05611036906921"><ele>312.8</ele><time>2026-05-01T14:12:16.999Z</time></trkpt><trkpt lat="45.51110735063997" lon="8.056153829455589"><ele>312.6</ele><time>2026-05-01T14:12:17.999Z</time></trkpt><trkpt lat="45.51101784620032" lon="8.056221618874813"><ele>312.4</ele><time>2026-05-01T14:12:18.999Z</time></trkpt><trkpt lat="45.51093848826653" lon="8.056313229609401"><ele>312.2</ele><time>2026-05-01T14:12:19.999Z</time></trkpt><trkpt lat="45.510875734189256" lon="8.05643247764329"><ele>312.0</ele><time>2026-05-01T14:12:20.999Z</time></trkpt><trkpt lat="45.51083299593437" lon="8.056562719372106"><ele>312.0</ele><time>2026-05-01T14:12:21.999Z</time></trkpt><trkpt lat="45.510801852266596" lon="8.056679351235115"><ele>312.0</ele><time>2026-05-01T14:12:22.999Z</time></trkpt><trkpt lat="45.51075725254038" lon="8.056768248440797"><ele>312.0</ele><time>2026-05-01T14:12:23.999Z</time></trkpt><trkpt lat="45.510689493580614" lon="8.056823777826795"><ele>312.0</ele><time>2026-05-01T14:12:24.999Z</time></trkpt><trkpt lat="45.51059122146513" lon="8.056863172645453"><ele>312.0</ele><time>2026-05-01T14:12:25.999Z</time></trkpt><trkpt lat="45.51046604179056" lon="8.056891766141149"><ele>312.0</ele><time>2026-05-01T14:12:26.999Z</time></trkpt><trkpt lat="45.51030651912646" lon="8.056920997210387"><ele>312.0</ele><time>2026-05-01T14:12:27.999Z</time></trkpt><trkpt lat="45.51012259764735" lon="8.056966951273507"><ele>312.0</ele><time>2026-05-01T14:12:28.999Z</time></trkpt><trkpt lat="45.5099024826695" lon="8.057022882448265"><ele>312.0</ele><time>2026-05-01T14:12:29.999Z</time></trkpt><trkpt lat="45.50966022532194" lon="8.0570866552433"><ele>312.0</ele><time>2026-05-01T14:12:30.999Z</time></trkpt><trkpt lat="45.50938376457322" lon="8.057159632656479"><ele>311.0</ele><time>2026-05-01T14:12:31.999Z</time></trkpt><trkpt lat="45.50909734341635" lon="8.05723708262471"><ele>310.0</ele><time>2026-05-01T14:12:32.999Z</time></trkpt><trkpt lat="45.50879812342642" lon="8.057316322471875"><ele>309.5</ele><time>2026-05-01T14:12:33.999Z</time></trkpt><trkpt lat="45.5084874416682" lon="8.057398580969176"><ele>309.0</ele><time>2026-05-01T14:12:34.999Z</time></trkpt><trkpt lat="45.50818156154773" lon="8.057476067148484"><ele>308.5</ele><time>2026-05-01T14:12:35.999Z</time></trkpt><trkpt lat="45.50786948761607" lon="8.057559801079064"><ele>308.0</ele><time>2026-05-01T14:12:36.999Z</time></trkpt><trkpt lat="45.50754670367718" lon="8.057647147503115"><ele>308.0</ele><time>2026-05-01T14:12:38Z</time></trkpt><trkpt lat="45.50724519666812" lon="8.057728543842504"><ele>308.0</ele><time>2026-05-01T14:12:39Z</time></trkpt><trkpt lat="45.50697281844894" lon="8.05779981816076"><ele>307.0</ele><time>2026-05-01T14:12:40Z</time></trkpt><trkpt lat="45.50670643215614" lon="8.057865686857419"><ele>306.0</ele><time>2026-05-01T14:12:41Z</time></trkpt><trkpt lat="45.50645996145238" lon="8.057924726272166"><ele>305.6666666666667</ele><time>2026-05-01T14:12:42Z</time></trkpt><trkpt lat="45.50623948963529" lon="8.05797558999387"><ele>305.33333333333337</ele><time>2026-05-01T14:12:43Z</time></trkpt><trkpt lat="45.5060432335739" lon="8.058013246084888"><ele>305.0</ele><time>2026-05-01T14:12:44Z</time></trkpt><trkpt lat="45.505871564816715" lon="8.058043282945"><ele>305.0</ele><time>2026-05-01T14:12:45Z</time></trkpt><trkpt lat="45.50571438742331" lon="8.058045839399187"><ele>305.0</ele><time>2026-05-01T14:12:46Z</time></trkpt><trkpt lat="45.505541403510726" lon="8.058016503744593"><ele>305.0</ele><time>2026-05-01T14:12:47Z</time></trkpt><trkpt lat="45.505343216415284" lon="8.057967039116269"><ele>304.6666666666667</ele><time>2026-05-01T14:12:48Z</time></trkpt><trkpt lat="45.50513730889855" lon="8.057903875189313"><ele>304.3333333333333</ele><time>2026-05-01T14:12:49Z</time></trkpt><trkpt lat="45.50493218607554" lon="8.05783301190724"><ele>304.0</ele><time>2026-05-01T14:12:50Z</time></trkpt><trkpt lat="45.50475855812561" lon="8.057770267234588"><ele>304.0</ele><time>2026-05-01T14:12:51Z</time></trkpt><trkpt lat="45.50459843288641" lon="8.057720162394123"><ele>304.0</ele><time>2026-05-01T14:12:52Z</time></trkpt><trkpt lat="45.50444339147298" lon="8.057679679530827"><ele>304.0</ele><time>2026-05-01T14:12:53Z</time></trkpt><trkpt lat="45.504294265393" lon="8.057662760496193"><ele>303.66666666666663</ele><time>2026-05-01T14:12:54Z</time></trkpt><trkpt lat="45.50413908253184" lon="8.057673371070509"><ele>303.3333333333333</ele><time>2026-05-01T14:12:55Z</time></trkpt><trkpt lat="45.50397145442877" lon="8.057709457886238"><ele>303.0</ele><time>2026-05-01T14:12:56Z</time></trkpt><trkpt lat="45.503792409512855" lon="8.05776829661404"><ele>301.6666666666667</ele><time>2026-05-01T14:12:57Z</time></trkpt><trkpt lat="45.50359500190296" lon="8.057854112410178"><ele>300.33333333333337</ele><time>2026-05-01T14:12:58Z</time></trkpt><trkpt lat="45.50338273425201" lon="8.057969618419898"><ele>299.0</ele><time>2026-05-01T14:12:59Z</time></trkpt><trkpt lat="45.50314757975451" lon="8.05807151638458"><ele>299.5</ele><time>2026-05-01T14:13:00Z</time></trkpt><trkpt lat="45.502909079615044" lon="8.058202284158481"><ele>300.0</ele><time>2026-05-01T14:13:01Z</time></trkpt><trkpt lat="45.502667620775625" lon="8.058334674191228"><ele>300.0</ele><time>2026-05-01T14:13:02Z</time></trkpt><trkpt lat="45.50243776107253" lon="8.058480694245395"><ele>300.0</ele><time>2026-05-01T14:13:03Z</time></trkpt><trkpt lat="45.50221600632911" lon="8.058598505102918"><ele>299.5</ele><time>2026-05-01T14:13:04Z</time></trkpt><trkpt lat="45.501987628022704" lon="8.058720735408022"><ele>299.0</ele><time>2026-05-01T14:13:05Z</time></trkpt><trkpt lat="45.50175735411942" lon="8.058837981747311"><ele>299.0</ele><time>2026-05-01T14:13:06Z</time></trkpt><trkpt lat="45.50151382160744" lon="8.058956674037338"><ele>299.0</ele><time>2026-05-01T14:13:07Z</time></trkpt><trkpt lat="45.50125174787491" lon="8.059087427124545"><ele>298.0</ele><time>2026-05-01T14:13:08Z</time></trkpt><trkpt lat="45.500982330423525" lon="8.059222601429044"><ele>297.0</ele><time>2026-05-01T14:13:09Z</time></trkpt><trkpt lat="45.500717294924215" lon="8.0593558417596"><ele>297.0</ele><time>2026-05-01T14:13:10Z</time></trkpt><trkpt lat="45.50045965120141" lon="8.059481950144212"><ele>297.0</ele><time>2026-05-01T14:13:11Z</time></trkpt><trkpt lat="45.5002225966494" lon="8.059598733554797"><ele>293.5</ele><time>2026-05-01T14:13:12Z</time></trkpt><trkpt lat="45.499983084016904" lon="8.05971344958676"><ele>290.0</ele><time>2026-05-01T14:13:13Z</time></trkpt><trkpt lat="45.499761166846845" lon="8.059822853615781"><ele>290.0</ele><time>2026-05-01T14:13:14Z</time></trkpt><trkpt lat="45.499547477153186" lon="8.059927295835726"><ele>290.0</ele><time>2026-05-01T14:13:15Z</time></trkpt><trkpt lat="45.499345604894614" lon="8.060025436130868"><ele>290.0</ele><time>2026-05-01T14:13:16Z</time></trkpt><trkpt lat="45.499132978776615" lon="8.06013813486579"><ele>290.0</ele><time>2026-05-01T14:13:17Z</time></trkpt><trkpt lat="45.498919315788825" lon="8.060260331465642"><ele>290.0</ele><time>2026-05-01T14:13:18Z</time></trkpt><trkpt lat="45.498706670593876" lon="8.0604054663229"><ele>289.0</ele><time>2026-05-01T14:13:19Z</time></trkpt><trkpt lat="45.49848422387927" lon="8.060572415237498"><ele>288.0</ele><time>2026-05-01T14:13:20Z</time></trkpt><trkpt lat="45.49824545238974" lon="8.060750795805802"><ele>288.0</ele><time>2026-05-01T14:13:21Z</time></trkpt><trkpt lat="45.49798734296571" lon="8.060938783773315"><ele>288.0</ele><time>2026-05-01T14:13:22Z</time></trkpt><trkpt lat="45.49771231767998" lon="8.061138254871498"><ele>287.0</ele><time>2026-05-01T14:13:23Z</time></trkpt><trkpt lat="45.49742795462406" lon="8.06134219360227"><ele>286.0</ele><time>2026-05-01T14:13:24Z</time></trkpt><trkpt lat="45.49713357802267" lon="8.061556414408626"><ele>284.5</ele><time>2026-05-01T14:13:25Z</time></trkpt><trkpt lat="45.49685546868848" lon="8.061761781734322"><ele>283.0</ele><time>2026-05-01T14:13:26Z</time></trkpt><trkpt lat="45.496582680468364" lon="8.061963098417838"><ele>283.0</ele><time>2026-05-01T14:13:27Z</time></trkpt><trkpt lat="45.49632064601706" lon="8.06215534025634"><ele>283.0</ele><time>2026-05-01T14:13:28Z</time></trkpt><trkpt lat="45.49606462167686" lon="8.062339963462275"><ele>284.0</ele><time>2026-05-01T14:13:29Z</time></trkpt><trkpt lat="45.495820023135266" lon="8.062521040880435"><ele>285.0</ele><time>2026-05-01T14:13:30Z</time></trkpt><trkpt lat="45.49558704120096" lon="8.06269906239876"><ele>283.5</ele><time>2026-05-01T14:13:31Z</time></trkpt><trkpt lat="45.49535250856487" lon="8.062874630421655"><ele>282.0</ele><time>2026-05-01T14:13:32Z</time></trkpt><trkpt lat="45.49511848303222" lon="8.063047889699586"><ele>282.0</ele><time>2026-05-01T14:13:33Z</time></trkpt><trkpt lat="45.49489180772792" lon="8.063213024138294"><ele>282.0</ele><time>2026-05-01T14:13:34Z</time></trkpt><trkpt lat="45.49466483490796" lon="8.063375916322242"><ele>282.0</ele><time>2026-05-01T14:13:35Z</time></trkpt><trkpt lat="45.49443869167266" lon="8.063539965140725"><ele>282.0</ele><time>2026-05-01T14:13:36Z</time></trkpt><trkpt lat="45.49419548087508" lon="8.063716515956319"><ele>282.0</ele><time>2026-05-01T14:13:37Z</time></trkpt><trkpt lat="45.49394008535795" lon="8.063904836095938"><ele>282.0</ele><time>2026-05-01T14:13:38Z</time></trkpt><trkpt lat="45.493708451109555" lon="8.064075424959908"><ele>281.0</ele><time>2026-05-01T14:13:39Z</time></trkpt><trkpt lat="45.4934866800067" lon="8.06423525814907"><ele>280.0</ele><time>2026-05-01T14:13:40Z</time></trkpt><trkpt lat="45.49326215188565" lon="8.06439963030838"><ele>280.0</ele><time>2026-05-01T14:13:41Z</time></trkpt><trkpt lat="45.49303696914833" lon="8.064563602577488"><ele>280.0</ele><time>2026-05-01T14:13:42Z</time></trkpt><trkpt lat="45.49281555618999" lon="8.064726397765893"><ele>279.0</ele><time>2026-05-01T14:13:43Z</time></trkpt><trkpt lat="45.49259716182649" lon="8.064887204613369"><ele>278.0</ele><time>2026-05-01T14:13:44Z</time></trkpt><trkpt lat="45.49238454471921" lon="8.06504279010444"><ele>278.0</ele><time>2026-05-01T14:13:45Z</time></trkpt><trkpt lat="45.49216683513807" lon="8.065204230385227"><ele>278.0</ele><time>2026-05-01T14:13:46Z</time></trkpt><trkpt lat="45.491962006554125" lon="8.065356378444674"><ele>277.6666666666667</ele><time>2026-05-01T14:13:47Z</time></trkpt><trkpt lat="45.49176654499891" lon="8.065499152202747"><ele>277.3333333333333</ele><time>2026-05-01T14:13:48Z</time></trkpt><trkpt lat="45.49156485535248" lon="8.065646621363443"><ele>277.0</ele><time>2026-05-01T14:13:49Z</time></trkpt><trkpt lat="45.491352589390964" lon="8.06579912028651"><ele>275.66666666666663</ele><time>2026-05-01T14:13:50Z</time></trkpt><trkpt lat="45.4911480904328" lon="8.06594812588595"><ele>274.3333333333333</ele><time>2026-05-01T14:13:51Z</time></trkpt><trkpt lat="45.49095449830127" lon="8.066087759133142"><ele>273.0</ele><time>2026-05-01T14:13:52Z</time></trkpt><trkpt lat="45.49076921505884" lon="8.06622280323901"><ele>273.0</ele><time>2026-05-01T14:13:53Z</time></trkpt><trkpt lat="45.49058173077441" lon="8.066361487322187"><ele>273.0</ele><time>2026-05-01T14:13:54Z</time></trkpt><trkpt lat="45.490390250306696" lon="8.066498726968927"><ele>273.0</ele><time>2026-05-01T14:13:55Z</time></trkpt><trkpt lat="45.490206701910644" lon="8.066630836724785"><ele>273.3333333333333</ele><time>2026-05-01T14:13:56Z</time></trkpt><trkpt lat="45.49002141795426" lon="8.06676670547289"><ele>273.66666666666663</ele><time>2026-05-01T14:13:57Z</time></trkpt><trkpt lat="45.48983817027401" lon="8.066899455746832"><ele>274.0</ele><time>2026-05-01T14:13:58Z</time></trkpt><trkpt lat="45.48965666005779" lon="8.067035366436311"><ele>274.0</ele><time>2026-05-01T14:13:59Z</time></trkpt><trkpt lat="45.489475758377466" lon="8.067173226410898"><ele>274.0</ele><time>2026-05-01T14:14:00Z</time></trkpt><trkpt lat="45.489306630928695" lon="8.06730104783258"><ele>274.0</ele><time>2026-05-01T14:14:01Z</time></trkpt><trkpt lat="45.48913342179816" lon="8.067423903167418"><ele>273.66666666666663</ele><time>2026-05-01T14:14:02Z</time></trkpt><trkpt lat="45.48896098739129" lon="8.06754902399956"><ele>273.3333333333333</ele><time>2026-05-01T14:14:03Z</time></trkpt><trkpt lat="45.48879401063744" lon="8.067666820965133"><ele>273.0</ele><time>2026-05-01T14:14:04Z</time></trkpt><trkpt lat="45.488628916615134" lon="8.067783539182017"><ele>272.3333333333333</ele><time>2026-05-01T14:14:05Z</time></trkpt><trkpt lat="45.488457127247855" lon="8.067913196442433"><ele>271.66666666666663</ele><time>2026-05-01T14:14:06Z</time></trkpt><trkpt lat="45.4882714829179" lon="8.068055336515295"><ele>271.0</ele><time>2026-05-01T14:14:07Z</time></trkpt><trkpt lat="45.48809324885574" lon="8.06818541798031"><ele>271.3333333333333</ele><time>2026-05-01T14:14:08Z</time></trkpt><trkpt lat="45.48792722826098" lon="8.068301090616007"><ele>271.6666666666667</ele><time>2026-05-01T14:14:09Z</time></trkpt><trkpt lat="45.48776452096838" lon="8.068416580999607"><ele>272.0</ele><time>2026-05-01T14:14:10Z</time></trkpt><trkpt lat="45.487595495399525" lon="8.068538181524714"><ele>272.0</ele><time>2026-05-01T14:14:11Z</time></trkpt><trkpt lat="45.48741331724576" lon="8.068671149582219"><ele>272.0</ele><time>2026-05-01T14:14:12Z</time></trkpt><trkpt lat="45.48722768090809" lon="8.068809495999153"><ele>272.0</ele><time>2026-05-01T14:14:13Z</time></trkpt><trkpt lat="45.487028784795825" lon="8.068965335538199"><ele>271.0</ele><time>2026-05-01T14:14:14Z</time></trkpt><trkpt lat="45.486795419054936" lon="8.06914654388136"><ele>270.0</ele><time>2026-05-01T14:14:15Z</time></trkpt><trkpt lat="45.48653896121192" lon="8.069329924629836"><ele>270.0</ele><time>2026-05-01T14:14:15.999Z</time></trkpt><trkpt lat="45.48627207146705" lon="8.069512933266394"><ele>270.0</ele><time>2026-05-01T14:14:16.999Z</time></trkpt><trkpt lat="45.48601187446816" lon="8.069696160890137"><ele>268.5</ele><time>2026-05-01T14:14:17.999Z</time></trkpt><trkpt lat="45.48574466497574" lon="8.0698910394509"><ele>267.0</ele><time>2026-05-01T14:14:18.999Z</time></trkpt><trkpt lat="45.48546753244408" lon="8.07009295741142"><ele>266.0</ele><time>2026-05-01T14:14:19.999Z</time></trkpt><trkpt lat="45.48521646925625" lon="8.070275064404873"><ele>265.0</ele><time>2026-05-01T14:14:20.999Z</time></trkpt><trkpt lat="45.48498199426807" lon="8.070437149206304"><ele>265.0</ele><time>2026-05-01T14:14:21.999Z</time></trkpt><trkpt lat="45.48477739088047" lon="8.070584166228462"><ele>265.0</ele><time>2026-05-01T14:14:22.999Z</time></trkpt><trkpt lat="45.484571446333" lon="8.0707392506683"><ele>264.0</ele><time>2026-05-01T14:14:23.999Z</time></trkpt><trkpt lat="45.4843640213996" lon="8.0708906243803"><ele>263.0</ele><time>2026-05-01T14:14:24.999Z</time></trkpt><trkpt lat="45.48414869234115" lon="8.071044280848998"><ele>263.0</ele><time>2026-05-01T14:14:25.999Z</time></trkpt><trkpt lat="45.48392625947939" lon="8.071205710187941"><ele>263.0</ele><time>2026-05-01T14:14:26.999Z</time></trkpt><trkpt lat="45.48370225456734" lon="8.071370880807663"><ele>263.0</ele><time>2026-05-01T14:14:27.999Z</time></trkpt><trkpt lat="45.48347760096864" lon="8.07153691717031"><ele>263.0</ele><time>2026-05-01T14:14:28.999Z</time></trkpt><trkpt lat="45.483253771413004" lon="8.07170010532369"><ele>263.0</ele><time>2026-05-01T14:14:29.999Z</time></trkpt><trkpt lat="45.48303887002746" lon="8.071854900325867"><ele>263.0</ele><time>2026-05-01T14:14:30.999Z</time></trkpt><trkpt lat="45.48282957747703" lon="8.072006850694176"><ele>263.0</ele><time>2026-05-01T14:14:31.999Z</time></trkpt><trkpt lat="45.48261839533655" lon="8.072159421920098"><ele>263.0</ele><time>2026-05-01T14:14:32.999Z</time></trkpt><trkpt lat="45.4824009687372" lon="8.07231677201659"><ele>263.0</ele><time>2026-05-01T14:14:33.999Z</time></trkpt><trkpt lat="45.482164385663395" lon="8.07248674427346"><ele>263.0</ele><time>2026-05-01T14:14:34.999Z</time></trkpt><trkpt lat="45.48194673249011" lon="8.0726472000995"><ele>263.0</ele><time>2026-05-01T14:14:35.999Z</time></trkpt><trkpt lat="45.481757674604516" lon="8.072782088090452"><ele>263.0</ele><time>2026-05-01T14:14:36.999Z</time></trkpt><trkpt lat="45.481593249272336" lon="8.072896517381587"><ele>263.0</ele><time>2026-05-01T14:14:37.999Z</time></trkpt><trkpt lat="45.48144201710395" lon="8.072999286831754"><ele>263.0</ele><time>2026-05-01T14:14:38.999Z</time></trkpt><trkpt lat="45.48130459376869" lon="8.073097835332701"><ele>263.0</ele><time>2026-05-01T14:14:39.999Z</time></trkpt><trkpt lat="45.481178169735976" lon="8.073186085044517"><ele>263.0</ele><time>2026-05-01T14:14:40.999Z</time></trkpt><trkpt lat="45.4810744974269" lon="8.073263092044252"><ele>263.0</ele><time>2026-05-01T14:14:41.999Z</time></trkpt><trkpt lat="45.48098594879344" lon="8.07332509110122"><ele>262.8</ele><time>2026-05-01T14:14:42.999Z</time></trkpt><trkpt lat="45.480926040367244" lon="8.073375003285038"><ele>262.6</ele><time>2026-05-01T14:14:44Z</time></trkpt><trkpt lat="45.48086390430157" lon="8.073473698268291"><ele>262.4</ele><time>2026-05-01T14:14:46Z</time></trkpt><trkpt lat="45.480865063798774" lon="8.073635237006373"><ele>262.2</ele><time>2026-05-01T14:14:49Z</time></trkpt><trkpt lat="45.48095149513704" lon="8.073757877560627"><ele>262.0</ele><time>2026-05-01T14:14:51Z</time></trkpt><trkpt lat="45.48104159708088" lon="8.073809702588026"><ele>262.0</ele><time>2026-05-01T14:14:52Z</time></trkpt><trkpt lat="45.48115604045684" lon="8.073884054316956"><ele>262.0</ele><time>2026-05-01T14:14:53Z</time></trkpt><trkpt lat="45.48130228702073" lon="8.073984397876488"><ele>262.0</ele><time>2026-05-01T14:14:54Z</time></trkpt><trkpt lat="45.48145561624241" lon="8.074094505263696"><ele>262.3333333333333</ele><time>2026-05-01T14:14:55Z</time></trkpt><trkpt lat="45.48160414943544" lon="8.07420316003777"><ele>262.6666666666667</ele><time>2026-05-01T14:14:56Z</time></trkpt><trkpt lat="45.481743443708645" lon="8.07430212335037"><ele>263.0</ele><time>2026-05-01T14:14:57Z</time></trkpt><trkpt lat="45.48187620330132" lon="8.074400583720857"><ele>263.0</ele><time>2026-05-01T14:14:58Z</time></trkpt><trkpt lat="45.482004526296656" lon="8.074493756400885"><ele>263.0</ele><time>2026-05-01T14:14:59Z</time></trkpt><trkpt lat="45.482142459395206" lon="8.074588291716154"><ele>263.0</ele><time>2026-05-01T14:15:00Z</time></trkpt><trkpt lat="45.482299392247334" lon="8.074706634177291"><ele>263.0</ele><time>2026-05-01T14:15:01Z</time></trkpt><trkpt lat="45.48244789478491" lon="8.0748316117045"><ele>263.0</ele><time>2026-05-01T14:15:02Z</time></trkpt><trkpt lat="45.482576347248354" lon="8.074964236550843"><ele>263.0</ele><time>2026-05-01T14:15:03Z</time></trkpt><trkpt lat="45.48267127778987" lon="8.07513264127783"><ele>263.0</ele><time>2026-05-01T14:15:04Z</time></trkpt><trkpt lat="45.482765045562644" lon="8.075311897453007"><ele>263.0</ele><time>2026-05-01T14:15:05Z</time></trkpt><trkpt lat="45.482875884235916" lon="8.075517103150467"><ele>263.0</ele><time>2026-05-01T14:15:06Z</time></trkpt><trkpt lat="45.48297530208838" lon="8.075764295278212"><ele>264.0</ele><time>2026-05-01T14:15:07Z</time></trkpt><trkpt lat="45.48308338130527" lon="8.076013157593088"><ele>265.0</ele><time>2026-05-01T14:15:08Z</time></trkpt><trkpt lat="45.483194387712274" lon="8.07625477735247"><ele>266.0</ele><time>2026-05-01T14:15:09Z</time></trkpt><trkpt lat="45.48329328476036" lon="8.076480440607893"><ele>266.0</ele><time>2026-05-01T14:15:10Z</time></trkpt><trkpt lat="45.483384148218086" lon="8.076686303405118"><ele>266.0</ele><time>2026-05-01T14:15:11Z</time></trkpt><trkpt lat="45.48347647421509" lon="8.076897605852833"><ele>266.0</ele><time>2026-05-01T14:15:12Z</time></trkpt><trkpt lat="45.483567185421464" lon="8.077104641162519"><ele>266.0</ele><time>2026-05-01T14:15:13Z</time></trkpt><trkpt lat="45.48365838656467" lon="8.077307410188281"><ele>266.0</ele><time>2026-05-01T14:15:14Z</time></trkpt><trkpt lat="45.4837500307394" lon="8.077510415630368"><ele>266.0</ele><time>2026-05-01T14:15:15Z</time></trkpt><trkpt lat="45.48384495927947" lon="8.0777251283223"><ele>266.0</ele><time>2026-05-01T14:15:16Z</time></trkpt><trkpt lat="45.4839395033314" lon="8.077949241444488"><ele>266.0</ele><time>2026-05-01T14:15:17Z</time></trkpt><trkpt lat="45.484033647051675" lon="8.07816505343103"><ele>266.0</ele><time>2026-05-01T14:15:18Z</time></trkpt><trkpt lat="45.48413132827674" lon="8.078381776724436"><ele>266.0</ele><time>2026-05-01T14:15:19Z</time></trkpt><trkpt lat="45.48422363879259" lon="8.078592887999685"><ele>266.0</ele><time>2026-05-01T14:15:20Z</time></trkpt><trkpt lat="45.48431800407315" lon="8.078799250235662"><ele>266.0</ele><time>2026-05-01T14:15:21Z</time></trkpt><trkpt lat="45.48441308635509" lon="8.079011607178014"><ele>266.0</ele><time>2026-05-01T14:15:22Z</time></trkpt><trkpt lat="45.48450918567141" lon="8.079229806856846"><ele>266.0</ele><time>2026-05-01T14:15:23Z</time></trkpt><trkpt lat="45.48460321296209" lon="8.079440909275919"><ele>266.0</ele><time>2026-05-01T14:15:24Z</time></trkpt><trkpt lat="45.484695855006656" lon="8.079654512246474"><ele>267.0</ele><time>2026-05-01T14:15:25Z</time></trkpt><trkpt lat="45.4847886143523" lon="8.079863948111702"><ele>268.0</ele><time>2026-05-01T14:15:26Z</time></trkpt><trkpt lat="45.48489080015393" lon="8.08009275120165"><ele>269.0</ele><time>2026-05-01T14:15:27Z</time></trkpt><trkpt lat="45.48498815610423" lon="8.080313734983873"><ele>269.0</ele><time>2026-05-01T14:15:28Z</time></trkpt><trkpt lat="45.48508306755664" lon="8.080519602793535"><ele>269.0</ele><time>2026-05-01T14:15:29Z</time></trkpt><trkpt lat="45.485160079971045" lon="8.0807335233324"><ele>269.0</ele><time>2026-05-01T14:15:30Z</time></trkpt><trkpt lat="45.48524377657362" lon="8.080939032874257"><ele>269.0</ele><time>2026-05-01T14:15:31Z</time></trkpt><trkpt lat="45.485338931677376" lon="8.081121884840286"><ele>269.0</ele><time>2026-05-01T14:15:32Z</time></trkpt><trkpt lat="45.485412004488055" lon="8.081305971375103"><ele>269.0</ele><time>2026-05-01T14:15:33Z</time></trkpt><trkpt lat="45.48548772274277" lon="8.081499021644108"><ele>269.0</ele><time>2026-05-01T14:15:34Z</time></trkpt><trkpt lat="45.485565492347696" lon="8.081695076749455"><ele>269.0</ele><time>2026-05-01T14:15:35Z</time></trkpt><trkpt lat="45.48562995399523" lon="8.08190874033865"><ele>269.0</ele><time>2026-05-01T14:15:36Z</time></trkpt><trkpt lat="45.485727304624284" lon="8.082110587702795"><ele>269.0</ele><time>2026-05-01T14:15:37Z</time></trkpt><trkpt lat="45.48581080525032" lon="8.082328457656253"><ele>269.0</ele><time>2026-05-01T14:15:38Z</time></trkpt><trkpt lat="45.48589945944975" lon="8.082550112898826"><ele>269.0</ele><time>2026-05-01T14:15:39Z</time></trkpt><trkpt lat="45.48597521264283" lon="8.082785258623904"><ele>268.6666666666667</ele><time>2026-05-01T14:15:40Z</time></trkpt><trkpt lat="45.48605603758359" lon="8.082989903180728"><ele>268.3333333333333</ele><time>2026-05-01T14:15:41Z</time></trkpt><trkpt lat="45.4861443161568" lon="8.083167078039557"><ele>268.0</ele><time>2026-05-01T14:15:42Z</time></trkpt><trkpt lat="45.48620929440044" lon="8.083332373014168"><ele>268.5</ele><time>2026-05-01T14:15:43Z</time></trkpt><trkpt lat="45.48627224408696" lon="8.083495150908314"><ele>269.0</ele><time>2026-05-01T14:15:44Z</time></trkpt><trkpt lat="45.48634165930829" lon="8.083672410014215"><ele>269.5</ele><time>2026-05-01T14:15:45Z</time></trkpt><trkpt lat="45.486411907165326" lon="8.083849955279987"><ele>270.0</ele><time>2026-05-01T14:15:46Z</time></trkpt><trkpt lat="45.48648704959735" lon="8.08403906117529"><ele>270.0</ele><time>2026-05-01T14:15:47Z</time></trkpt><trkpt lat="45.486565156835425" lon="8.084234244824795"><ele>270.0</ele><time>2026-05-01T14:15:48Z</time></trkpt><trkpt lat="45.486643212305864" lon="8.084433232806676"><ele>270.0</ele><time>2026-05-01T14:15:49Z</time></trkpt><trkpt lat="45.4867211226011" lon="8.084631357578047"><ele>270.0</ele><time>2026-05-01T14:15:50Z</time></trkpt><trkpt lat="45.486792804883436" lon="8.084811453578125"><ele>270.0</ele><time>2026-05-01T14:15:51Z</time></trkpt><trkpt lat="45.48686369285537" lon="8.084991692462896"><ele>270.0</ele><time>2026-05-01T14:15:52Z</time></trkpt><trkpt lat="45.48693813924059" lon="8.085178301693151"><ele>270.0</ele><time>2026-05-01T14:15:53Z</time></trkpt><trkpt lat="45.487012984244004" lon="8.085369642921782"><ele>269.75</ele><time>2026-05-01T14:15:54Z</time></trkpt><trkpt lat="45.48707344005253" lon="8.08556807284378"><ele>269.5</ele><time>2026-05-01T14:15:55Z</time></trkpt><trkpt lat="45.48714175739576" lon="8.08574241103668"><ele>269.25</ele><time>2026-05-01T14:15:56Z</time></trkpt><trkpt lat="45.487212735626386" lon="8.085923673254706"><ele>269.0</ele><time>2026-05-01T14:15:57Z</time></trkpt><trkpt lat="45.487285719429295" lon="8.086109461610242"><ele>269.0</ele><time>2026-05-01T14:15:58Z</time></trkpt><trkpt lat="45.48735279024814" lon="8.086280111315062"><ele>269.0</ele><time>2026-05-01T14:15:59Z</time></trkpt><trkpt lat="45.48742707890478" lon="8.086421235095635"><ele>269.0</ele><time>2026-05-01T14:16:00Z</time></trkpt><trkpt lat="45.48748253454565" lon="8.086565156354675"><ele>269.0</ele><time>2026-05-01T14:16:01Z</time></trkpt><trkpt lat="45.487526621548746" lon="8.08672082435419"><ele>268.25</ele><time>2026-05-01T14:16:01.999Z</time></trkpt><trkpt lat="45.48758451137846" lon="8.086868364150954"><ele>267.5</ele><time>2026-05-01T14:16:02.999Z</time></trkpt><trkpt lat="45.48765785006162" lon="8.087007460383123"><ele>266.75</ele><time>2026-05-01T14:16:03.999Z</time></trkpt><trkpt lat="45.4877229603616" lon="8.087173278339513"><ele>266.0</ele><time>2026-05-01T14:16:04.999Z</time></trkpt><trkpt lat="45.487774857061694" lon="8.087353881006818"><ele>266.40000000000003</ele><time>2026-05-01T14:16:05.999Z</time></trkpt><trkpt lat="45.48783234903899" lon="8.087500526487279"><ele>266.8</ele><time>2026-05-01T14:16:06.999Z</time></trkpt><trkpt lat="45.487899415724584" lon="8.087614930177063"><ele>267.20000000000005</ele><time>2026-05-01T14:16:07.999Z</time></trkpt><trkpt lat="45.48794857449152" lon="8.087742168555355"><ele>267.6</ele><time>2026-05-01T14:16:08.999Z</time></trkpt><trkpt lat="45.48799909827256" lon="8.08787215220671"><ele>268.0</ele><time>2026-05-01T14:16:09.999Z</time></trkpt><trkpt lat="45.48804686534375" lon="8.087993384219631"><ele>268.5</ele><time>2026-05-01T14:16:10.999Z</time></trkpt><trkpt lat="45.48809201839211" lon="8.088105520109268"><ele>269.0</ele><time>2026-05-01T14:16:11.999Z</time></trkpt><trkpt lat="45.48811647403994" lon="8.088228882028037"><ele>269.5</ele><time>2026-05-01T14:16:12.999Z</time></trkpt><trkpt lat="45.4881525354669" lon="8.088324832491514"><ele>270.0</ele><time>2026-05-01T14:16:13.999Z</time></trkpt><trkpt lat="45.48818633916753" lon="8.088413190198354"><ele>270.5</ele><time>2026-05-01T14:16:14.999Z</time></trkpt><trkpt lat="45.48822508309461" lon="8.088485120683059"><ele>271.0</ele><time>2026-05-01T14:16:15.999Z</time></trkpt><trkpt lat="45.48826896744948" lon="8.088650040008744"><ele>271.2</ele><time>2026-05-01T14:16:17.999Z</time></trkpt><trkpt lat="45.488291397169" lon="8.088804655952702"><ele>271.40000000000003</ele><time>2026-05-01T14:16:19.999Z</time></trkpt><trkpt lat="45.48824960703463" lon="8.088961761901594"><ele>271.6</ele><time>2026-05-01T14:16:21.999Z</time></trkpt><trkpt lat="45.488191082498375" lon="8.089025258972741"><ele>271.8</ele><time>2026-05-01T14:16:22.999Z</time></trkpt><trkpt lat="45.48813688217205" lon="8.089093995538086"><ele>272.0</ele><time>2026-05-01T14:16:23.999Z</time></trkpt><trkpt lat="45.48804669517871" lon="8.089136034811398"><ele>271.75</ele><time>2026-05-01T14:16:24.999Z</time></trkpt><trkpt lat="45.487924239928184" lon="8.089162568449701"><ele>271.5</ele><time>2026-05-01T14:16:25.999Z</time></trkpt><trkpt lat="45.48777775031415" lon="8.08920045456462"><ele>271.25</ele><time>2026-05-01T14:16:26.999Z</time></trkpt><trkpt lat="45.48761785666439" lon="8.089252003451229"><ele>271.0</ele><time>2026-05-01T14:16:27.999Z</time></trkpt><trkpt lat="45.48746094540682" lon="8.089303587246103"><ele>271.0</ele><time>2026-05-01T14:16:28.999Z</time></trkpt><trkpt lat="45.4873231849448" lon="8.089347670455759"><ele>271.0</ele><time>2026-05-01T14:16:29.999Z</time></trkpt><trkpt lat="45.48717331064443" lon="8.089396622009517"><ele>271.0</ele><time>2026-05-01T14:16:30.999Z</time></trkpt><trkpt lat="45.48701846608673" lon="8.089442078215887"><ele>270.66666666666663</ele><time>2026-05-01T14:16:31.999Z</time></trkpt><trkpt lat="45.486874948624056" lon="8.089487879538837"><ele>270.3333333333333</ele><time>2026-05-01T14:16:32.999Z</time></trkpt><trkpt lat="45.48673266245753" lon="8.08953573648415"><ele>270.0</ele><time>2026-05-01T14:16:33.999Z</time></trkpt><trkpt lat="45.48657465664551" lon="8.089591172822317"><ele>270.0</ele><time>2026-05-01T14:16:34.999Z</time></trkpt><trkpt lat="45.48640653932161" lon="8.089646573498461"><ele>270.0</ele><time>2026-05-01T14:16:35.999Z</time></trkpt><trkpt lat="45.48623790629416" lon="8.08970279167164"><ele>270.0</ele><time>2026-05-01T14:16:36.999Z</time></trkpt><trkpt lat="45.48607606502106" lon="8.0897544751084"><ele>269.3333333333333</ele><time>2026-05-01T14:16:37.999Z</time></trkpt><trkpt lat="45.485914502202434" lon="8.089808768913375"><ele>268.66666666666663</ele><time>2026-05-01T14:16:38.999Z</time></trkpt><trkpt lat="45.48573785659714" lon="8.089868344560562"><ele>268.0</ele><time>2026-05-01T14:16:39.999Z</time></trkpt><trkpt lat="45.485540803909345" lon="8.08993510157064"><ele>267.66666666666663</ele><time>2026-05-01T14:16:40.999Z</time></trkpt><trkpt lat="45.485339370392495" lon="8.09000343609397"><ele>267.3333333333333</ele><time>2026-05-01T14:16:41.999Z</time></trkpt><trkpt lat="45.48514895719457" lon="8.090066650390998"><ele>267.0</ele><time>2026-05-01T14:16:42.999Z</time></trkpt><trkpt lat="45.48495831419411" lon="8.090127484950697"><ele>267.0</ele><time>2026-05-01T14:16:43.999Z</time></trkpt><trkpt lat="45.484761178597154" lon="8.090189079473818"><ele>267.0</ele><time>2026-05-01T14:16:44.999Z</time></trkpt><trkpt lat="45.484573697774444" lon="8.090248025675752"><ele>267.0</ele><time>2026-05-01T14:16:45.999Z</time></trkpt><trkpt lat="45.484403676011866" lon="8.09030478157839"><ele>266.0</ele><time>2026-05-01T14:16:46.999Z</time></trkpt><trkpt lat="45.48424456633032" lon="8.090349647761228"><ele>265.0</ele><time>2026-05-01T14:16:47.999Z</time></trkpt><trkpt lat="45.484084715440005" lon="8.090407772629337"><ele>264.0</ele><time>2026-05-01T14:16:48.999Z</time></trkpt><trkpt lat="45.4839112874974" lon="8.090470841887646"><ele>263.6666666666667</ele><time>2026-05-01T14:16:50Z</time></trkpt><trkpt lat="45.483727686933875" lon="8.090532532679934"><ele>263.33333333333337</ele><time>2026-05-01T14:16:51Z</time></trkpt><trkpt lat="45.48353421564085" lon="8.09059506191076"><ele>263.0</ele><time>2026-05-01T14:16:52Z</time></trkpt><trkpt lat="45.48333913250753" lon="8.090660127863032"><ele>263.0</ele><time>2026-05-01T14:16:53Z</time></trkpt><trkpt lat="45.48314795771438" lon="8.090722307235824"><ele>263.0</ele><time>2026-05-01T14:16:54Z</time></trkpt><trkpt lat="45.48296749563869" lon="8.090782356256343"><ele>263.0</ele><time>2026-05-01T14:16:55Z</time></trkpt><trkpt lat="45.48277409943134" lon="8.090844388585804"><ele>263.0</ele><time>2026-05-01T14:16:56Z</time></trkpt><trkpt lat="45.482579479413346" lon="8.090908821423495"><ele>263.0</ele><time>2026-05-01T14:16:57Z</time></trkpt><trkpt lat="45.48239115273125" lon="8.09097341524619"><ele>263.0</ele><time>2026-05-01T14:16:58Z</time></trkpt><trkpt lat="45.48221118118681" lon="8.091033244732763"><ele>263.33333333333337</ele><time>2026-05-01T14:16:59Z</time></trkpt><trkpt lat="45.48202249269738" lon="8.09109433102351"><ele>263.6666666666667</ele><time>2026-05-01T14:17:00Z</time></trkpt><trkpt lat="45.4818233852049" lon="8.09115761974944"><ele>264.0</ele><time>2026-05-01T14:17:01Z</time></trkpt><trkpt lat="45.481630542356854" lon="8.091222149464555"><ele>264.0</ele><time>2026-05-01T14:17:02Z</time></trkpt><trkpt lat="45.48142468081362" lon="8.0912900981913"><ele>264.0</ele><time>2026-05-01T14:17:03Z</time></trkpt><trkpt lat="45.4812278017938" lon="8.091357964937592"><ele>264.0</ele><time>2026-05-01T14:17:04Z</time></trkpt><trkpt lat="45.481049331909475" lon="8.091414057980232"><ele>263.3333333333333</ele><time>2026-05-01T14:17:05Z</time></trkpt><trkpt lat="45.48087011377772" lon="8.091469449079241"><ele>262.66666666666663</ele><time>2026-05-01T14:17:06Z</time></trkpt><trkpt lat="45.4806816541279" lon="8.091529349261073"><ele>262.0</ele><time>2026-05-01T14:17:07Z</time></trkpt><trkpt lat="45.48048888820699" lon="8.091593335996071"><ele>260.66666666666663</ele><time>2026-05-01T14:17:08Z</time></trkpt><trkpt lat="45.48029297624543" lon="8.091660760772305"><ele>259.3333333333333</ele><time>2026-05-01T14:17:09Z</time></trkpt><trkpt lat="45.48010154015026" lon="8.091723475498055"><ele>258.0</ele><time>2026-05-01T14:17:10Z</time></trkpt><trkpt lat="45.479903895661764" lon="8.091787829000365"><ele>258.0</ele><time>2026-05-01T14:17:11Z</time></trkpt><trkpt lat="45.47970005508595" lon="8.091851200022148"><ele>258.0</ele><time>2026-05-01T14:17:12Z</time></trkpt><trkpt lat="45.47950470310787" lon="8.091913685112328"><ele>258.0</ele><time>2026-05-01T14:17:13Z</time></trkpt><trkpt lat="45.47930295160519" lon="8.091980546086484"><ele>258.0</ele><time>2026-05-01T14:17:14Z</time></trkpt><trkpt lat="45.47910032850201" lon="8.092045653397996"><ele>258.0</ele><time>2026-05-01T14:17:15Z</time></trkpt><trkpt lat="45.47890928871856" lon="8.092108622028928"><ele>258.0</ele><time>2026-05-01T14:17:16Z</time></trkpt><trkpt lat="45.47870363863357" lon="8.092175541353031"><ele>258.0</ele><time>2026-05-01T14:17:17Z</time></trkpt><trkpt lat="45.47850637746509" lon="8.092235505331068"><ele>258.0</ele><time>2026-05-01T14:17:18Z</time></trkpt><trkpt lat="45.478308815695705" lon="8.092296440618544"><ele>258.0</ele><time>2026-05-01T14:17:19Z</time></trkpt><trkpt lat="45.478104252195564" lon="8.092360222155902"><ele>258.0</ele><time>2026-05-01T14:17:20Z</time></trkpt><trkpt lat="45.47787594792594" lon="8.092436640704959"><ele>258.0</ele><time>2026-05-01T14:17:21Z</time></trkpt><trkpt lat="45.4776673543726" lon="8.092506893903819"><ele>258.0</ele><time>2026-05-01T14:17:22Z</time></trkpt><trkpt lat="45.47747772832024" lon="8.092568632310686"><ele>258.0</ele><time>2026-05-01T14:17:23Z</time></trkpt><trkpt lat="45.477278964283265" lon="8.09262774657629"><ele>258.0</ele><time>2026-05-01T14:17:24Z</time></trkpt><trkpt lat="45.47707952664525" lon="8.09269387919857"><ele>258.0</ele><time>2026-05-01T14:17:25Z</time></trkpt><trkpt lat="45.476878899500406" lon="8.092762561993231"><ele>257.3333333333333</ele><time>2026-05-01T14:17:26Z</time></trkpt><trkpt lat="45.47668126276267" lon="8.092827994527669"><ele>256.66666666666663</ele><time>2026-05-01T14:17:27Z</time></trkpt><trkpt lat="45.47647350693127" lon="8.09289525753643"><ele>256.0</ele><time>2026-05-01T14:17:28Z</time></trkpt><trkpt lat="45.47626800989117" lon="8.092961325500243"><ele>255.33333333333331</ele><time>2026-05-01T14:17:29Z</time></trkpt><trkpt lat="45.4760748452387" lon="8.093023933225167"><ele>254.66666666666669</ele><time>2026-05-01T14:17:30Z</time></trkpt><trkpt lat="45.475885883358686" lon="8.093092928229366"><ele>254.0</ele><time>2026-05-01T14:17:31Z</time></trkpt><trkpt lat="45.47569983009369" lon="8.093172459274253"><ele>254.33333333333334</ele><time>2026-05-01T14:17:32Z</time></trkpt><trkpt lat="45.47550879618711" lon="8.093270218457974"><ele>254.66666666666669</ele><time>2026-05-01T14:17:33Z</time></trkpt><trkpt lat="45.47531576719401" lon="8.093388165791827"><ele>255.0</ele><time>2026-05-01T14:17:34Z</time></trkpt><trkpt lat="45.475113468240046" lon="8.093531269812683"><ele>253.5</ele><time>2026-05-01T14:17:35Z</time></trkpt><trkpt lat="45.47489980887781" lon="8.093694249858276"><ele>252.0</ele><time>2026-05-01T14:17:36Z</time></trkpt><trkpt lat="45.47468491892709" lon="8.093864864285162"><ele>251.5</ele><time>2026-05-01T14:17:37Z</time></trkpt><trkpt lat="45.47447324633176" lon="8.094040885450482"><ele>251.0</ele><time>2026-05-01T14:17:38Z</time></trkpt><trkpt lat="45.47426844903815" lon="8.094212874861114"><ele>251.0</ele><time>2026-05-01T14:17:39Z</time></trkpt><trkpt lat="45.4740708917905" lon="8.09437285506636"><ele>251.0</ele><time>2026-05-01T14:17:40Z</time></trkpt><trkpt lat="45.47387941294621" lon="8.094527798735832"><ele>251.0</ele><time>2026-05-01T14:17:41Z</time></trkpt><trkpt lat="45.47368636154799" lon="8.094680254265075"><ele>251.0</ele><time>2026-05-01T14:17:42Z</time></trkpt><trkpt lat="45.473495361138056" lon="8.09483781012553"><ele>251.0</ele><time>2026-05-01T14:17:43Z</time></trkpt><trkpt lat="45.473312363687945" lon="8.094988687600626"><ele>251.0</ele><time>2026-05-01T14:17:44Z</time></trkpt><trkpt lat="45.47313913188808" lon="8.09513482288914"><ele>251.0</ele><time>2026-05-01T14:17:45Z</time></trkpt><trkpt lat="45.47297787853076" lon="8.095277023830876"><ele>251.0</ele><time>2026-05-01T14:17:46Z</time></trkpt><trkpt lat="45.47280867115467" lon="8.095421589708797"><ele>251.0</ele><time>2026-05-01T14:17:47Z</time></trkpt><trkpt lat="45.472621795924034" lon="8.09557596737982"><ele>251.0</ele><time>2026-05-01T14:17:48Z</time></trkpt><trkpt lat="45.47242897110168" lon="8.095733845344208"><ele>251.0</ele><time>2026-05-01T14:17:49Z</time></trkpt><trkpt lat="45.472245172396775" lon="8.095889635130305"><ele>251.0</ele><time>2026-05-01T14:17:50Z</time></trkpt><trkpt lat="45.47206076602944" lon="8.096048482119642"><ele>250.66666666666669</ele><time>2026-05-01T14:17:51Z</time></trkpt><trkpt lat="45.471874665030576" lon="8.096205278774963"><ele>250.33333333333331</ele><time>2026-05-01T14:17:52Z</time></trkpt><trkpt lat="45.4716958819782" lon="8.096352739622647"><ele>250.0</ele><time>2026-05-01T14:17:53Z</time></trkpt><trkpt lat="45.47152418169081" lon="8.096491438409235"><ele>249.66666666666666</ele><time>2026-05-01T14:17:54Z</time></trkpt><trkpt lat="45.47135644192404" lon="8.096625623147425"><ele>249.33333333333331</ele><time>2026-05-01T14:17:55Z</time></trkpt><trkpt lat="45.47117602299141" lon="8.096765562713731"><ele>249.0</ele><time>2026-05-01T14:17:56Z</time></trkpt><trkpt lat="45.47099207156635" lon="8.096899863486799"><ele>249.33333333333331</ele><time>2026-05-01T14:17:56.999Z</time></trkpt><trkpt lat="45.470809933653776" lon="8.097021547555743"><ele>249.66666666666666</ele><time>2026-05-01T14:17:57.999Z</time></trkpt><trkpt lat="45.470624302924904" lon="8.097130169261836"><ele>250.0</ele><time>2026-05-01T14:17:58.999Z</time></trkpt><trkpt lat="45.47042041252197" lon="8.097234504360856"><ele>250.0</ele><time>2026-05-01T14:17:59.999Z</time></trkpt><trkpt lat="45.47021198560213" lon="8.09733026243839"><ele>250.0</ele><time>2026-05-01T14:18:00.999Z</time></trkpt><trkpt lat="45.46999808824183" lon="8.09742906686801"><ele>250.0</ele><time>2026-05-01T14:18:01.999Z</time></trkpt><trkpt lat="45.46979184159932" lon="8.097530844140254"><ele>249.0</ele><time>2026-05-01T14:18:02.999Z</time></trkpt><trkpt lat="45.469589124407015" lon="8.097631994712456"><ele>248.0</ele><time>2026-05-01T14:18:03.999Z</time></trkpt><trkpt lat="45.469389514474315" lon="8.097733068953028"><ele>247.0</ele><time>2026-05-01T14:18:04.999Z</time></trkpt><trkpt lat="45.46919837772571" lon="8.097828176124327"><ele>247.0</ele><time>2026-05-01T14:18:05.999Z</time></trkpt><trkpt lat="45.469019823423295" lon="8.097913968077513"><ele>247.0</ele><time>2026-05-01T14:18:06.999Z</time></trkpt><trkpt lat="45.46883154489265" lon="8.09799901619383"><ele>247.0</ele><time>2026-05-01T14:18:07.999Z</time></trkpt><trkpt lat="45.468628833329824" lon="8.098092784083232"><ele>247.0</ele><time>2026-05-01T14:18:08.999Z</time></trkpt><trkpt lat="45.46840085947299" lon="8.098201822262844"><ele>247.0</ele><time>2026-05-01T14:18:09.999Z</time></trkpt><trkpt lat="45.4681831908614" lon="8.098314570604966"><ele>246.0</ele><time>2026-05-01T14:18:10.999Z</time></trkpt><trkpt lat="45.46797353323823" lon="8.098396692729665"><ele>245.0</ele><time>2026-05-01T14:18:11.999Z</time></trkpt><trkpt lat="45.46778903281248" lon="8.098510679044967"><ele>244.0</ele><time>2026-05-01T14:18:12.999Z</time></trkpt><trkpt lat="45.4676090800829" lon="8.098594269185654"><ele>243.33333333333331</ele><time>2026-05-01T14:18:13.999Z</time></trkpt><trkpt lat="45.467441776861286" lon="8.098671691522624"><ele>242.66666666666669</ele><time>2026-05-01T14:18:14.999Z</time></trkpt><trkpt lat="45.4672718216348" lon="8.09876118088881"><ele>242.0</ele><time>2026-05-01T14:18:15.999Z</time></trkpt><trkpt lat="45.46709313968244" lon="8.098865188538385"><ele>242.0</ele><time>2026-05-01T14:18:16.999Z</time></trkpt><trkpt lat="45.46690982882246" lon="8.098998550102438"><ele>242.0</ele><time>2026-05-01T14:18:17.999Z</time></trkpt><trkpt lat="45.46672606292518" lon="8.099151103172973"><ele>242.0</ele><time>2026-05-01T14:18:18.999Z</time></trkpt><trkpt lat="45.46655605316428" lon="8.099297178000581"><ele>242.0</ele><time>2026-05-01T14:18:19.999Z</time></trkpt><trkpt lat="45.466393847565804" lon="8.099438849123246"><ele>242.0</ele><time>2026-05-01T14:18:20.999Z</time></trkpt><trkpt lat="45.466222257232694" lon="8.099585151691903"><ele>242.0</ele><time>2026-05-01T14:18:21.999Z</time></trkpt><trkpt lat="45.46604072920943" lon="8.099738276932742"><ele>241.33333333333334</ele><time>2026-05-01T14:18:22.999Z</time></trkpt><trkpt lat="45.46585903878969" lon="8.099892262326556"><ele>240.66666666666669</ele><time>2026-05-01T14:18:23.999Z</time></trkpt><trkpt lat="45.46567787762551" lon="8.100042642695257"><ele>240.0</ele><time>2026-05-01T14:18:24.999Z</time></trkpt><trkpt lat="45.465503781670535" lon="8.100184685501924"><ele>240.0</ele><time>2026-05-01T14:18:25.999Z</time></trkpt><trkpt lat="45.465342335781116" lon="8.100319093262371"><ele>240.0</ele><time>2026-05-01T14:18:26.999Z</time></trkpt><trkpt lat="45.4651754285436" lon="8.100461036437839"><ele>240.0</ele><time>2026-05-01T14:18:27.999Z</time></trkpt><trkpt lat="45.464981880025775" lon="8.100627494828625"><ele>239.5</ele><time>2026-05-01T14:18:28.999Z</time></trkpt><trkpt lat="45.46477224676675" lon="8.100811452146209"><ele>239.0</ele><time>2026-05-01T14:18:29.999Z</time></trkpt><trkpt lat="45.464562868545485" lon="8.100993567338278"><ele>239.0</ele><time>2026-05-01T14:18:30.999Z</time></trkpt><trkpt lat="45.46436982555154" lon="8.101156717332172"><ele>239.0</ele><time>2026-05-01T14:18:31.999Z</time></trkpt><trkpt lat="45.46417431254424" lon="8.101315861374543"><ele>239.0</ele><time>2026-05-01T14:18:32.999Z</time></trkpt><trkpt lat="45.463979062587356" lon="8.101474107594424"><ele>239.0</ele><time>2026-05-01T14:18:33.999Z</time></trkpt><trkpt lat="45.4637907979605" lon="8.101631411311446"><ele>239.0</ele><time>2026-05-01T14:18:34.999Z</time></trkpt><trkpt lat="45.46361593626464" lon="8.101779943739123"><ele>238.33333333333334</ele><time>2026-05-01T14:18:35.999Z</time></trkpt><trkpt lat="45.46344706459761" lon="8.101920916680834"><ele>237.66666666666669</ele><time>2026-05-01T14:18:36.999Z</time></trkpt><trkpt lat="45.463274165021986" lon="8.1020646993367"><ele>237.0</ele><time>2026-05-01T14:18:37.999Z</time></trkpt><trkpt lat="45.46309825544794" lon="8.102212031955004"><ele>237.0</ele><time>2026-05-01T14:18:38.999Z</time></trkpt><trkpt lat="45.462917865710345" lon="8.102368507073898"><ele>237.0</ele><time>2026-05-01T14:18:39.999Z</time></trkpt><trkpt lat="45.462745864375506" lon="8.10251848674901"><ele>237.0</ele><time>2026-05-01T14:18:40.999Z</time></trkpt><trkpt lat="45.4625810523922" lon="8.10265863387911"><ele>237.0</ele><time>2026-05-01T14:18:41.999Z</time></trkpt><trkpt lat="45.4624120584014" lon="8.102797331368238"><ele>237.0</ele><time>2026-05-01T14:18:42.999Z</time></trkpt><trkpt lat="45.4622532138214" lon="8.102929782980084"><ele>237.0</ele><time>2026-05-01T14:18:43.999Z</time></trkpt><trkpt lat="45.4620994360626" lon="8.103058840869497"><ele>237.0</ele><time>2026-05-01T14:18:44.999Z</time></trkpt><trkpt lat="45.46194282662997" lon="8.103190657446548"><ele>237.0</ele><time>2026-05-01T14:18:45.999Z</time></trkpt><trkpt lat="45.46178404505957" lon="8.103330089918707"><ele>237.0</ele><time>2026-05-01T14:18:46.999Z</time></trkpt><trkpt lat="45.46162481815412" lon="8.103456318889332"><ele>237.0</ele><time>2026-05-01T14:18:47.999Z</time></trkpt><trkpt lat="45.461467086243594" lon="8.103594746507339"><ele>237.0</ele><time>2026-05-01T14:18:48.999Z</time></trkpt><trkpt lat="45.46131837553313" lon="8.103714356152263"><ele>237.0</ele><time>2026-05-01T14:18:49.999Z</time></trkpt><trkpt lat="45.46116714748704" lon="8.103844900511344"><ele>237.33333333333331</ele><time>2026-05-01T14:18:50.999Z</time></trkpt><trkpt lat="45.461015600756326" lon="8.103974208380873"><ele>237.66666666666666</ele><time>2026-05-01T14:18:51.999Z</time></trkpt><trkpt lat="45.46085855589591" lon="8.104106066712328"><ele>238.0</ele><time>2026-05-01T14:18:52.999Z</time></trkpt><trkpt lat="45.46069641121285" lon="8.104244115841066"><ele>238.0</ele><time>2026-05-01T14:18:53.999Z</time></trkpt><trkpt lat="45.4605433934947" lon="8.104375873348479"><ele>238.0</ele><time>2026-05-01T14:18:54.999Z</time></trkpt><trkpt lat="45.46040047316211" lon="8.104496331948114"><ele>238.0</ele><time>2026-05-01T14:18:56Z</time></trkpt><trkpt lat="45.46025987038542" lon="8.104614538850509"><ele>238.0</ele><time>2026-05-01T14:18:57Z</time></trkpt><trkpt lat="45.460123415357" lon="8.104727979086283"><ele>238.0</ele><time>2026-05-01T14:18:58Z</time></trkpt><trkpt lat="45.45998254158028" lon="8.104854277605892"><ele>238.0</ele><time>2026-05-01T14:18:59Z</time></trkpt><trkpt lat="45.45981646736507" lon="8.10500378085856"><ele>238.0</ele><time>2026-05-01T14:19:00Z</time></trkpt><trkpt lat="45.45962859888016" lon="8.105161967306422"><ele>238.0</ele><time>2026-05-01T14:19:01Z</time></trkpt><trkpt lat="45.45943781025283" lon="8.105316680639156"><ele>238.0</ele><time>2026-05-01T14:19:02Z</time></trkpt><trkpt lat="45.459250833788374" lon="8.105469551555029"><ele>237.0</ele><time>2026-05-01T14:19:03Z</time></trkpt><trkpt lat="45.459065717093225" lon="8.105627638547064"><ele>236.0</ele><time>2026-05-01T14:19:04Z</time></trkpt><trkpt lat="45.45886670133769" lon="8.105795571949805"><ele>235.0</ele><time>2026-05-01T14:19:05Z</time></trkpt><trkpt lat="45.45867381968632" lon="8.105958416120561"><ele>235.0</ele><time>2026-05-01T14:19:06Z</time></trkpt><trkpt lat="45.45848672105581" lon="8.106115999905144"><ele>235.0</ele><time>2026-05-01T14:19:07Z</time></trkpt><trkpt lat="45.45830939591567" lon="8.106264875653377"><ele>235.0</ele><time>2026-05-01T14:19:08Z</time></trkpt><trkpt lat="45.458122333816625" lon="8.106427108379874"><ele>233.0</ele><time>2026-05-01T14:19:09Z</time></trkpt><trkpt lat="45.457914176428474" lon="8.106608239708317"><ele>231.0</ele><time>2026-05-01T14:19:10Z</time></trkpt><trkpt lat="45.4576923498598" lon="8.10679246482191"><ele>231.0</ele><time>2026-05-01T14:19:11Z</time></trkpt><trkpt lat="45.45746991271327" lon="8.106976861819899"><ele>231.0</ele><time>2026-05-01T14:19:12Z</time></trkpt><trkpt lat="45.45726877157063" lon="8.107148301772469"><ele>230.5</ele><time>2026-05-01T14:19:13Z</time></trkpt><trkpt lat="45.45707510808432" lon="8.107315399003634"><ele>230.0</ele><time>2026-05-01T14:19:14Z</time></trkpt><trkpt lat="45.45687615189113" lon="8.107488383035165"><ele>230.0</ele><time>2026-05-01T14:19:15Z</time></trkpt><trkpt lat="45.45667198570558" lon="8.10766654278727"><ele>230.0</ele><time>2026-05-01T14:19:16Z</time></trkpt><trkpt lat="45.45645918741101" lon="8.107801636893537"><ele>230.5</ele><time>2026-05-01T14:19:17Z</time></trkpt><trkpt lat="45.45624566559587" lon="8.107981710048836"><ele>231.0</ele><time>2026-05-01T14:19:18Z</time></trkpt><trkpt lat="45.45603843947454" lon="8.108156680091732"><ele>230.5</ele><time>2026-05-01T14:19:19Z</time></trkpt><trkpt lat="45.455840911626396" lon="8.108323136914722"><ele>230.0</ele><time>2026-05-01T14:19:20Z</time></trkpt><trkpt lat="45.45565080492951" lon="8.108519317809076"><ele>229.0</ele><time>2026-05-01T14:19:21Z</time></trkpt><trkpt lat="45.455448168752355" lon="8.108689109919984"><ele>228.0</ele><time>2026-05-01T14:19:22Z</time></trkpt><trkpt lat="45.45524149935291" lon="8.108861575627115"><ele>228.0</ele><time>2026-05-01T14:19:23Z</time></trkpt><trkpt lat="45.455044084180926" lon="8.109030064477047"><ele>228.0</ele><time>2026-05-01T14:19:24Z</time></trkpt><trkpt lat="45.4548498453782" lon="8.109160627465572"><ele>228.0</ele><time>2026-05-01T14:19:25Z</time></trkpt><trkpt lat="45.45466072970512" lon="8.109320714167245"><ele>226.0</ele><time>2026-05-01T14:19:26Z</time></trkpt><trkpt lat="45.45446499112066" lon="8.109486260454428"><ele>224.0</ele><time>2026-05-01T14:19:27Z</time></trkpt><trkpt lat="45.454271429510015" lon="8.109650109917359"><ele>224.0</ele><time>2026-05-01T14:19:28Z</time></trkpt><trkpt lat="45.454119647631245" lon="8.109805836639955"><ele>224.0</ele><time>2026-05-01T14:19:29Z</time></trkpt><trkpt lat="45.45396979478257" lon="8.109905784219546"><ele>224.0</ele><time>2026-05-01T14:19:30Z</time></trkpt><trkpt lat="45.45382627573662" lon="8.110027435104984"><ele>224.33333333333334</ele><time>2026-05-01T14:19:31Z</time></trkpt><trkpt lat="45.4536745404213" lon="8.110156050337807"><ele>224.66666666666669</ele><time>2026-05-01T14:19:32Z</time></trkpt><trkpt lat="45.45352901578139" lon="8.11027940122263"><ele>225.0</ele><time>2026-05-01T14:19:33Z</time></trkpt><trkpt lat="45.45338729868192" lon="8.11039952472533"><ele>225.0</ele><time>2026-05-01T14:19:34Z</time></trkpt><trkpt lat="45.45323829875958" lon="8.110526039535374"><ele>225.0</ele><time>2026-05-01T14:19:35Z</time></trkpt><trkpt lat="45.45308519894601" lon="8.11065594717732"><ele>225.0</ele><time>2026-05-01T14:19:36Z</time></trkpt><trkpt lat="45.452948567642515" lon="8.11079816655027"><ele>225.0</ele><time>2026-05-01T14:19:37Z</time></trkpt><trkpt lat="45.452811034806636" lon="8.110913165841382"><ele>225.0</ele><time>2026-05-01T14:19:38Z</time></trkpt><trkpt lat="45.45267976836426" lon="8.111025284296995"><ele>225.0</ele><time>2026-05-01T14:19:39Z</time></trkpt><trkpt lat="45.452524029945536" lon="8.111132196333472"><ele>225.0</ele><time>2026-05-01T14:19:39.999Z</time></trkpt><trkpt lat="45.452385096858364" lon="8.111250117079704"><ele>225.0</ele><time>2026-05-01T14:19:40.999Z</time></trkpt><trkpt lat="45.45225700419908" lon="8.111389578825824"><ele>225.0</ele><time>2026-05-01T14:19:41.999Z</time></trkpt><trkpt lat="45.45213892038568" lon="8.111488646435138"><ele>225.0</ele><time>2026-05-01T14:19:42.999Z</time></trkpt><trkpt lat="45.452039432086956" lon="8.111569380962264"><ele>225.0</ele><time>2026-05-01T14:19:43.999Z</time></trkpt><trkpt lat="45.45195101956605" lon="8.11164261068557"><ele>225.0</ele><time>2026-05-01T14:19:44.999Z</time></trkpt><trkpt lat="45.45186408571684" lon="8.111714903994935"><ele>225.0</ele><time>2026-05-01T14:19:45.999Z</time></trkpt><trkpt lat="45.451775720706394" lon="8.11179002369633"><ele>225.0</ele><time>2026-05-01T14:19:46.999Z</time></trkpt><trkpt lat="45.45169208512381" lon="8.11186153527673"><ele>225.4</ele><time>2026-05-01T14:19:47.999Z</time></trkpt><trkpt lat="45.45161540398695" lon="8.111928714008082"><ele>225.8</ele><time>2026-05-01T14:19:48.999Z</time></trkpt><trkpt lat="45.451547499794835" lon="8.11198373876313"><ele>226.2</ele><time>2026-05-01T14:19:49.999Z</time></trkpt><trkpt lat="45.45148881662559" lon="8.112027656536815"><ele>226.6</ele><time>2026-05-01T14:19:50.999Z</time></trkpt><trkpt lat="45.45137909830587" lon="8.112118911653164"><ele>227.0</ele><time>2026-05-01T14:19:52.999Z</time></trkpt><trkpt lat="45.45127398587045" lon="8.112200688286112"><ele>226.6</ele><time>2026-05-01T14:19:54.999Z</time></trkpt><trkpt lat="45.451212387660085" lon="8.112245732724599"><ele>226.2</ele><time>2026-05-01T14:19:55.999Z</time></trkpt><trkpt lat="45.451143320473264" lon="8.112298025051627"><ele>225.8</ele><time>2026-05-01T14:19:56.999Z</time></trkpt><trkpt lat="45.45105819115786" lon="8.112354419831627"><ele>225.4</ele><time>2026-05-01T14:19:57.999Z</time></trkpt><trkpt lat="45.45095540966962" lon="8.11241166921362"><ele>225.0</ele><time>2026-05-01T14:19:58.999Z</time></trkpt><trkpt lat="45.45084117024163" lon="8.112464831771998"><ele>225.0</ele><time>2026-05-01T14:19:59.999Z</time></trkpt><trkpt lat="45.450716645860574" lon="8.112508366220915"><ele>225.0</ele><time>2026-05-01T14:20:00.999Z</time></trkpt><trkpt lat="45.45057277611778" lon="8.11255177553307"><ele>225.0</ele><time>2026-05-01T14:20:01.999Z</time></trkpt><trkpt lat="45.45041857921419" lon="8.112593664229196"><ele>225.0</ele><time>2026-05-01T14:20:02.999Z</time></trkpt><trkpt lat="45.45025738649475" lon="8.112629716304848"><ele>225.0</ele><time>2026-05-01T14:20:03.999Z</time></trkpt><trkpt lat="45.450092921107505" lon="8.112659512141084"><ele>225.0</ele><time>2026-05-01T14:20:04.999Z</time></trkpt><trkpt lat="45.44993841374121" lon="8.112692132192638"><ele>225.0</ele><time>2026-05-01T14:20:05.999Z</time></trkpt><trkpt lat="45.4497928943414" lon="8.112726681255099"><ele>225.0</ele><time>2026-05-01T14:20:06.999Z</time></trkpt><trkpt lat="45.44965528993272" lon="8.112751585439335"><ele>225.0</ele><time>2026-05-01T14:20:07.999Z</time></trkpt><trkpt lat="45.44951553019588" lon="8.112777817354921"><ele>225.0</ele><time>2026-05-01T14:20:08.999Z</time></trkpt><trkpt lat="45.44937026308506" lon="8.112803207136198"><ele>225.0</ele><time>2026-05-01T14:20:09.999Z</time></trkpt><trkpt lat="45.44921826270944" lon="8.112829562432408"><ele>228.66666666666669</ele><time>2026-05-01T14:20:10.999Z</time></trkpt><trkpt lat="45.44905537719275" lon="8.112860563034964"><ele>232.33333333333334</ele><time>2026-05-01T14:20:11.999Z</time></trkpt><trkpt lat="45.448894084699525" lon="8.11288987473152"><ele>236.0</ele><time>2026-05-01T14:20:12.999Z</time></trkpt><trkpt lat="45.44874949362784" lon="8.11291251840683"><ele>240.75</ele><time>2026-05-01T14:20:13.999Z</time></trkpt><trkpt lat="45.44861870938863" lon="8.11293247976557"><ele>245.5</ele><time>2026-05-01T14:20:14.999Z</time></trkpt><trkpt lat="45.44848690928569" lon="8.112947534613278"><ele>250.25</ele><time>2026-05-01T14:20:15.999Z</time></trkpt><trkpt lat="45.448349409088706" lon="8.112952763625687"><ele>255.0</ele><time>2026-05-01T14:20:16.999Z</time></trkpt><trkpt lat="45.448205293215764" lon="8.112950879759987"><ele>255.0</ele><time>2026-05-01T14:20:17.999Z</time></trkpt><trkpt lat="45.448062282466445" lon="8.112933922060465"><ele>255.0</ele><time>2026-05-01T14:20:18.999Z</time></trkpt><trkpt lat="45.44792138647846" lon="8.11290984033632"><ele>255.0</ele><time>2026-05-01T14:20:19.999Z</time></trkpt><trkpt lat="45.44778605527022" lon="8.112871949146383"><ele>255.0</ele><time>2026-05-01T14:20:20.999Z</time></trkpt><trkpt lat="45.44766985461237" lon="8.1128309997636"><ele>253.8</ele><time>2026-05-01T14:20:21.999Z</time></trkpt><trkpt lat="45.44756164446202" lon="8.112784792577605"><ele>252.6</ele><time>2026-05-01T14:20:22.999Z</time></trkpt><trkpt lat="45.44745906298614" lon="8.112740319536465"><ele>251.39999999999998</ele><time>2026-05-01T14:20:23.999Z</time></trkpt><trkpt lat="45.447363616082036" lon="8.112694878864017"><ele>250.2</ele><time>2026-05-01T14:20:24.999Z</time></trkpt><trkpt lat="45.44727229548827" lon="8.112645394690302"><ele>249.0</ele><time>2026-05-01T14:20:25.999Z</time></trkpt><trkpt lat="45.447177182187204" lon="8.112595843741415"><ele>246.79999999999998</ele><time>2026-05-01T14:20:26.999Z</time></trkpt><trkpt lat="45.447076712191496" lon="8.11254665237782"><ele>244.59999999999997</ele><time>2026-05-01T14:20:27.999Z</time></trkpt><trkpt lat="45.44697210492323" lon="8.112502606567196"><ele>242.4</ele><time>2026-05-01T14:20:28.999Z</time></trkpt><trkpt lat="45.44686890502677" lon="8.112446984727638"><ele>240.2</ele><time>2026-05-01T14:20:29.999Z</time></trkpt><trkpt lat="45.44675240025966" lon="8.11242325591339"><ele>238.0</ele><time>2026-05-01T14:20:30.999Z</time></trkpt><trkpt lat="45.446644341918336" lon="8.1124316055878"><ele>238.0</ele><time>2026-05-01T14:20:31.999Z</time></trkpt><trkpt lat="45.44653448091986" lon="8.11242223415181"><ele>238.0</ele><time>2026-05-01T14:20:32.999Z</time></trkpt><trkpt lat="45.44641756572532" lon="8.11241474633243"><ele>238.0</ele><time>2026-05-01T14:20:33.999Z</time></trkpt><trkpt lat="45.44629316358561" lon="8.112412566392766"><ele>238.0</ele><time>2026-05-01T14:20:34.999Z</time></trkpt><trkpt lat="45.446155804390614" lon="8.112410772819295"><ele>237.75</ele><time>2026-05-01T14:20:35.999Z</time></trkpt><trkpt lat="45.44601580805476" lon="8.112410362097695"><ele>237.5</ele><time>2026-05-01T14:20:36.999Z</time></trkpt><trkpt lat="45.44588036118271" lon="8.112385826326047"><ele>237.25</ele><time>2026-05-01T14:20:37.999Z</time></trkpt><trkpt lat="45.44575478130703" lon="8.11238322187118"><ele>237.0</ele><time>2026-05-01T14:20:38.999Z</time></trkpt><trkpt lat="45.4456402730958" lon="8.112380963904902"><ele>238.0</ele><time>2026-05-01T14:20:39.999Z</time></trkpt><trkpt lat="45.4455230254553" lon="8.1123786519208"><ele>239.0</ele><time>2026-05-01T14:20:40.999Z</time></trkpt><trkpt lat="45.44540147300571" lon="8.112376255051158"><ele>240.0</ele><time>2026-05-01T14:20:41.999Z</time></trkpt><trkpt lat="45.44529155281796" lon="8.112373962089473"><ele>241.0</ele><time>2026-05-01T14:20:42.999Z</time></trkpt><trkpt lat="45.44518930202469" lon="8.112371004727986"><ele>242.33333333333331</ele><time>2026-05-01T14:20:43.999Z</time></trkpt><trkpt lat="45.44509766594795" lon="8.112368354349638"><ele>243.66666666666666</ele><time>2026-05-01T14:20:44.999Z</time></trkpt><trkpt lat="45.44502587565205" lon="8.112387161701307"><ele>245.0</ele><time>2026-05-01T14:20:45.999Z</time></trkpt><trkpt lat="45.44495207138092" lon="8.11235674345133"><ele>246.33333333333331</ele><time>2026-05-01T14:20:47.999Z</time></trkpt><trkpt lat="45.44488525064914" lon="8.112347043724279"><ele>247.66666666666666</ele><time>2026-05-01T14:20:49.999Z</time></trkpt><trkpt lat="45.44481668412531" lon="8.112358874087246"><ele>249.0</ele><time>2026-05-01T14:20:51.999Z</time></trkpt><trkpt lat="45.44474179473977" lon="8.112376333457163"><ele>249.0</ele><time>2026-05-01T14:21:28Z</time></trkpt><trkpt lat="45.44464115893375" lon="8.112378404230336"><ele>249.0</ele><time>2026-05-01T14:21:29Z</time></trkpt><trkpt lat="45.444522552046706" lon="8.112374599279827"><ele>249.0</ele><time>2026-05-01T14:21:29.999Z</time></trkpt><trkpt lat="45.44437103601509" lon="8.1123722212474"><ele>249.0</ele><time>2026-05-01T14:21:30.999Z</time></trkpt><trkpt lat="45.444206543675904" lon="8.112365688659022"><ele>249.33333333333331</ele><time>2026-05-01T14:21:31.999Z</time></trkpt><trkpt lat="45.44401451462814" lon="8.112362211713826"><ele>249.66666666666666</ele><time>2026-05-01T14:21:32.999Z</time></trkpt><trkpt lat="45.443793756540614" lon="8.112358619052792"><ele>250.0</ele><time>2026-05-01T14:21:33.999Z</time></trkpt><trkpt lat="45.44355665582759" lon="8.112356383279248"><ele>250.0</ele><time>2026-05-01T14:21:34.999Z</time></trkpt><trkpt lat="45.44331491964358" lon="8.112326099073368"><ele>250.0</ele><time>2026-05-01T14:21:35.999Z</time></trkpt><trkpt lat="45.44305751274277" lon="8.11234071798744"><ele>253.0</ele><time>2026-05-01T14:21:36.999Z</time></trkpt><trkpt lat="45.44278297475748" lon="8.112329997022698"><ele>256.0</ele><time>2026-05-01T14:21:37.999Z</time></trkpt><trkpt lat="45.442496827070315" lon="8.11232054521146"><ele>256.0</ele><time>2026-05-01T14:21:38.999Z</time></trkpt><trkpt lat="45.44220534519988" lon="8.112313105151344"><ele>256.0</ele><time>2026-05-01T14:21:39.999Z</time></trkpt><trkpt lat="45.44191390481692" lon="8.112306220333936"><ele>257.0</ele><time>2026-05-01T14:21:40.999Z</time></trkpt><trkpt lat="45.44163946368466" lon="8.112295985716937"><ele>258.0</ele><time>2026-05-01T14:21:41.999Z</time></trkpt><trkpt lat="45.44139451138855" lon="8.112284465188573"><ele>259.0</ele><time>2026-05-01T14:21:42.999Z</time></trkpt><trkpt lat="45.441181085317645" lon="8.112267630640632"><ele>260.0</ele><time>2026-05-01T14:21:43.999Z</time></trkpt><trkpt lat="45.44098709622304" lon="8.112262333814499"><ele>261.0</ele><time>2026-05-01T14:21:44.999Z</time></trkpt><trkpt lat="45.4408046447331" lon="8.11225776588835"><ele>261.0</ele><time>2026-05-01T14:21:45.999Z</time></trkpt><trkpt lat="45.440604377655426" lon="8.11225240656739"><ele>261.0</ele><time>2026-05-01T14:21:46.999Z</time></trkpt><trkpt lat="45.4403730100952" lon="8.112248518559529"><ele>261.0</ele><time>2026-05-01T14:21:47.999Z</time></trkpt><trkpt lat="45.44013803383311" lon="8.112241757379518"><ele>260.6666666666667</ele><time>2026-05-01T14:21:48.999Z</time></trkpt><trkpt lat="45.43990734950195" lon="8.11223342105422"><ele>260.33333333333337</ele><time>2026-05-01T14:21:49.999Z</time></trkpt><trkpt lat="45.43968990644289" lon="8.112225764786963"><ele>260.0</ele><time>2026-05-01T14:21:50.999Z</time></trkpt><trkpt lat="45.4394560074526" lon="8.112216945836021"><ele>261.0</ele><time>2026-05-01T14:21:51.999Z</time></trkpt><trkpt lat="45.439205254617086" lon="8.112209144964035"><ele>262.0</ele><time>2026-05-01T14:21:52.999Z</time></trkpt><trkpt lat="45.43895998802133" lon="8.112201046051105"><ele>262.0</ele><time>2026-05-01T14:21:53.999Z</time></trkpt><trkpt lat="45.43873444832153" lon="8.112196237113038"><ele>262.0</ele><time>2026-05-01T14:21:54.999Z</time></trkpt><trkpt lat="45.43851898303596" lon="8.112191529427003"><ele>262.0</ele><time>2026-05-01T14:21:55.999Z</time></trkpt><trkpt lat="45.43829317035846" lon="8.112187703188342"><ele>262.0</ele><time>2026-05-01T14:21:56.999Z</time></trkpt><trkpt lat="45.43806561007605" lon="8.11218183589286"><ele>262.0</ele><time>2026-05-01T14:21:57.999Z</time></trkpt><trkpt lat="45.43783477835065" lon="8.112173465483998"><ele>261.0</ele><time>2026-05-01T14:21:58.999Z</time></trkpt><trkpt lat="45.437601072017394" lon="8.11216524891285"><ele>260.0</ele><time>2026-05-01T14:21:59.999Z</time></trkpt><trkpt lat="45.43735790371755" lon="8.112159141987558"><ele>258.0</ele><time>2026-05-01T14:22:00.999Z</time></trkpt><trkpt lat="45.437119221125094" lon="8.112153504620013"><ele>256.0</ele><time>2026-05-01T14:22:01.999Z</time></trkpt><trkpt lat="45.4368885439143" lon="8.112144685465884"><ele>256.0</ele><time>2026-05-01T14:22:02.999Z</time></trkpt><trkpt lat="45.43665841388618" lon="8.112135514915932"><ele>256.0</ele><time>2026-05-01T14:22:03.999Z</time></trkpt><trkpt lat="45.436440270997984" lon="8.112130008108233"><ele>256.0</ele><time>2026-05-01T14:22:04.999Z</time></trkpt><trkpt lat="45.4362263582864" lon="8.112123128963628"><ele>255.33333333333331</ele><time>2026-05-01T14:22:05.999Z</time></trkpt><trkpt lat="45.43601252523817" lon="8.112114756122342"><ele>254.66666666666669</ele><time>2026-05-01T14:22:06.999Z</time></trkpt><trkpt lat="45.435805368337554" lon="8.112114177521024"><ele>254.0</ele><time>2026-05-01T14:22:07.999Z</time></trkpt><trkpt lat="45.435608950614" lon="8.112103798888818"><ele>254.0</ele><time>2026-05-01T14:22:08.999Z</time></trkpt><trkpt lat="45.435427612465276" lon="8.11209717949041"><ele>254.0</ele><time>2026-05-01T14:22:09.999Z</time></trkpt><trkpt lat="45.43525210314234" lon="8.112091281267992"><ele>254.0</ele><time>2026-05-01T14:22:10.999Z</time></trkpt><trkpt lat="45.435084153467514" lon="8.11208956716308"><ele>254.0</ele><time>2026-05-01T14:22:11.999Z</time></trkpt><trkpt lat="45.43491333868638" lon="8.112089664167039"><ele>254.0</ele><time>2026-05-01T14:22:12.999Z</time></trkpt><trkpt lat="45.434736449062086" lon="8.112088044057629"><ele>254.0</ele><time>2026-05-01T14:22:13.999Z</time></trkpt><trkpt lat="45.43454995462902" lon="8.112061142752157"><ele>255.0</ele><time>2026-05-01T14:22:14.999Z</time></trkpt><trkpt lat="45.434357424587766" lon="8.112054259595993"><ele>256.0</ele><time>2026-05-01T14:22:15.999Z</time></trkpt><trkpt lat="45.434166907106736" lon="8.112047468931882"><ele>257.0</ele><time>2026-05-01T14:22:16.999Z</time></trkpt><trkpt lat="45.43398392071048" lon="8.112040976004167"><ele>257.0</ele><time>2026-05-01T14:22:17.999Z</time></trkpt><trkpt lat="45.43380247925335" lon="8.112034815831173"><ele>257.0</ele><time>2026-05-01T14:22:18.999Z</time></trkpt><trkpt lat="45.43363148504226" lon="8.112029123931459"><ele>257.0</ele><time>2026-05-01T14:22:19.999Z</time></trkpt><trkpt lat="45.433466238776155" lon="8.112024490826903"><ele>257.0</ele><time>2026-05-01T14:22:20.999Z</time></trkpt><trkpt lat="45.43329467068222" lon="8.112020220532905"><ele>257.0</ele><time>2026-05-01T14:22:21.999Z</time></trkpt><trkpt lat="45.43310142234798" lon="8.112015410622796"><ele>257.0</ele><time>2026-05-01T14:22:22.999Z</time></trkpt><trkpt lat="45.43288109243332" lon="8.112009928750522"><ele>258.0</ele><time>2026-05-01T14:22:23.999Z</time></trkpt><trkpt lat="45.43263657981663" lon="8.112004177910546"><ele>259.0</ele><time>2026-05-01T14:22:24.999Z</time></trkpt><trkpt lat="45.43236800533575" lon="8.111997884734247"><ele>260.0</ele><time>2026-05-01T14:22:25.999Z</time></trkpt><trkpt lat="45.43208320930188" lon="8.111991148444186"><ele>261.0</ele><time>2026-05-01T14:22:26.999Z</time></trkpt><trkpt lat="45.431787557806764" lon="8.112002265797997"><ele>261.0</ele><time>2026-05-01T14:22:27.999Z</time></trkpt><trkpt lat="45.43148432030336" lon="8.111992218304492"><ele>261.0</ele><time>2026-05-01T14:22:28.999Z</time></trkpt><trkpt lat="45.4311928158994" lon="8.111984797533305"><ele>262.0</ele><time>2026-05-01T14:22:29.999Z</time></trkpt><trkpt lat="45.4309252891459" lon="8.11197910745367"><ele>263.0</ele><time>2026-05-01T14:22:30.999Z</time></trkpt><trkpt lat="45.430681318909805" lon="8.111969733083857"><ele>267.5</ele><time>2026-05-01T14:22:31.999Z</time></trkpt><trkpt lat="45.43044332706881" lon="8.111957371300914"><ele>272.0</ele><time>2026-05-01T14:22:32.999Z</time></trkpt><trkpt lat="45.430224871399446" lon="8.111943402967235"><ele>272.0</ele><time>2026-05-01T14:22:33.999Z</time></trkpt><trkpt lat="45.430009797787676" lon="8.111925060689012"><ele>272.0</ele><time>2026-05-01T14:22:34.999Z</time></trkpt><trkpt lat="45.429810549861486" lon="8.11189701805161"><ele>272.0</ele><time>2026-05-01T14:22:35.999Z</time></trkpt><trkpt lat="45.429620952814616" lon="8.111857675581913"><ele>273.0</ele><time>2026-05-01T14:22:36.999Z</time></trkpt><trkpt lat="45.429438828629955" lon="8.111809812019647"><ele>274.0</ele><time>2026-05-01T14:22:37.999Z</time></trkpt><trkpt lat="45.42927001208041" lon="8.111750436113004"><ele>275.0</ele><time>2026-05-01T14:22:38.999Z</time></trkpt><trkpt lat="45.429109553849" lon="8.111675386142032"><ele>275.0</ele><time>2026-05-01T14:22:39.999Z</time></trkpt><trkpt lat="45.42895269239643" lon="8.11158047346592"><ele>275.0</ele><time>2026-05-01T14:22:40.999Z</time></trkpt><trkpt lat="45.42878752285532" lon="8.1114595221415"><ele>275.0</ele><time>2026-05-01T14:22:41.999Z</time></trkpt><trkpt lat="45.42861507230369" lon="8.11130209820347"><ele>278.33333333333337</ele><time>2026-05-01T14:22:42.999Z</time></trkpt><trkpt lat="45.428440246498106" lon="8.111132078812153"><ele>281.6666666666667</ele><time>2026-05-01T14:22:43.999Z</time></trkpt><trkpt lat="45.42828019294315" lon="8.110944110999089"><ele>285.0</ele><time>2026-05-01T14:22:44.999Z</time></trkpt><trkpt lat="45.42813204411834" lon="8.110743959825706"><ele>286.3333333333333</ele><time>2026-05-01T14:22:45.999Z</time></trkpt><trkpt lat="45.42798422207783" lon="8.110541290089298"><ele>287.66666666666663</ele><time>2026-05-01T14:22:46.999Z</time></trkpt><trkpt lat="45.42783821736169" lon="8.110351669866395"><ele>289.0</ele><time>2026-05-01T14:22:47.999Z</time></trkpt><trkpt lat="45.42769818060659" lon="8.11016617445734"><ele>289.0</ele><time>2026-05-01T14:22:48.999Z</time></trkpt><trkpt lat="45.42754806423754" lon="8.109969009701457"><ele>289.0</ele><time>2026-05-01T14:22:49.999Z</time></trkpt><trkpt lat="45.42740469610098" lon="8.109779606277678"><ele>289.0</ele><time>2026-05-01T14:22:50.999Z</time></trkpt><trkpt lat="45.427272942848006" lon="8.109603272501474"><ele>287.3333333333333</ele><time>2026-05-01T14:22:51.999Z</time></trkpt><trkpt lat="45.427144066558434" lon="8.109430535310295"><ele>285.6666666666667</ele><time>2026-05-01T14:22:52.999Z</time></trkpt><trkpt lat="45.42701768746477" lon="8.109262010675257"><ele>284.0</ele><time>2026-05-01T14:22:53.999Z</time></trkpt><trkpt lat="45.42688665683658" lon="8.109079517131796"><ele>284.6666666666667</ele><time>2026-05-01T14:22:54.999Z</time></trkpt><trkpt lat="45.42676386884933" lon="8.108897319000608"><ele>285.3333333333333</ele><time>2026-05-01T14:22:55.999Z</time></trkpt><trkpt lat="45.426646839614335" lon="8.108704886217422"><ele>286.0</ele><time>2026-05-01T14:22:56.999Z</time></trkpt><trkpt lat="45.42652947159237" lon="8.108496705293172"><ele>286.0</ele><time>2026-05-01T14:22:57.999Z</time></trkpt><trkpt lat="45.42642214015638" lon="8.10827375198597"><ele>286.0</ele><time>2026-05-01T14:22:58.999Z</time></trkpt><trkpt lat="45.426320175865484" lon="8.108025875007355"><ele>286.0</ele><time>2026-05-01T14:22:59.999Z</time></trkpt><trkpt lat="45.426226704210876" lon="8.107763753786042"><ele>287.0</ele><time>2026-05-01T14:23:00.999Z</time></trkpt><trkpt lat="45.42614024657749" lon="8.107483384083775"><ele>288.0</ele><time>2026-05-01T14:23:01.999Z</time></trkpt><trkpt lat="45.42605960758585" lon="8.107202388343698"><ele>289.0</ele><time>2026-05-01T14:23:02.999Z</time></trkpt><trkpt lat="45.42598299268864" lon="8.106935328467623"><ele>289.3333333333333</ele><time>2026-05-01T14:23:03.999Z</time></trkpt><trkpt lat="45.42590441182847" lon="8.106676967614911"><ele>289.6666666666667</ele><time>2026-05-01T14:23:04.999Z</time></trkpt><trkpt lat="45.42581846958217" lon="8.106395933734852"><ele>290.0</ele><time>2026-05-01T14:23:05.999Z</time></trkpt><trkpt lat="45.42571849792184" lon="8.106101607772375"><ele>288.0</ele><time>2026-05-01T14:23:06.999Z</time></trkpt><trkpt lat="45.42560185128022" lon="8.105802469141707"><ele>286.0</ele><time>2026-05-01T14:23:08Z</time></trkpt><trkpt lat="45.42547582336277" lon="8.105509370903166"><ele>285.0</ele><time>2026-05-01T14:23:09Z</time></trkpt><trkpt lat="45.42534301116193" lon="8.105215829822344"><ele>284.0</ele><time>2026-05-01T14:23:10Z</time></trkpt><trkpt lat="45.42519627252232" lon="8.104892744458674"><ele>287.5</ele><time>2026-05-01T14:23:11Z</time></trkpt><trkpt lat="45.42504199868605" lon="8.104559984489361"><ele>291.0</ele><time>2026-05-01T14:23:12Z</time></trkpt><trkpt lat="45.42487960162106" lon="8.104211861750276"><ele>290.5</ele><time>2026-05-01T14:23:13Z</time></trkpt><trkpt lat="45.42471243244777" lon="8.103858600173316"><ele>290.0</ele><time>2026-05-01T14:23:14Z</time></trkpt><trkpt lat="45.42455181263466" lon="8.103521992093272"><ele>284.5</ele><time>2026-05-01T14:23:15Z</time></trkpt><trkpt lat="45.42439875455515" lon="8.103199389780253"><ele>279.0</ele><time>2026-05-01T14:23:16Z</time></trkpt><trkpt lat="45.424253551125815" lon="8.102890505033491"><ele>279.0</ele><time>2026-05-01T14:23:17Z</time></trkpt><trkpt lat="45.42411799778726" lon="8.102596296523126"><ele>279.0</ele><time>2026-05-01T14:23:18Z</time></trkpt><trkpt lat="45.423983322625006" lon="8.10231090813691"><ele>278.3333333333333</ele><time>2026-05-01T14:23:19Z</time></trkpt><trkpt lat="45.42386185805622" lon="8.102048002556208"><ele>277.66666666666663</ele><time>2026-05-01T14:23:20Z</time></trkpt><trkpt lat="45.42374766096614" lon="8.101803495338222"><ele>277.0</ele><time>2026-05-01T14:23:21Z</time></trkpt><trkpt lat="45.423634313558516" lon="8.101565539293762"><ele>278.3333333333333</ele><time>2026-05-01T14:23:22Z</time></trkpt><trkpt lat="45.42351076576841" lon="8.101317430452603"><ele>279.6666666666667</ele><time>2026-05-01T14:23:23Z</time></trkpt><trkpt lat="45.42338158532845" lon="8.101082098445158"><ele>281.0</ele><time>2026-05-01T14:23:24Z</time></trkpt><trkpt lat="45.423248080236874" lon="8.10086566446434"><ele>280.6666666666667</ele><time>2026-05-01T14:23:25Z</time></trkpt><trkpt lat="45.42310548550251" lon="8.100668067477875"><ele>280.3333333333333</ele><time>2026-05-01T14:23:26Z</time></trkpt><trkpt lat="45.422952157656965" lon="8.100486889392526"><ele>280.0</ele><time>2026-05-01T14:23:27Z</time></trkpt><trkpt lat="45.42279852412734" lon="8.100335489767135"><ele>281.0</ele><time>2026-05-01T14:23:28Z</time></trkpt><trkpt lat="45.42263395284724" lon="8.100191959799764"><ele>282.0</ele><time>2026-05-01T14:23:29Z</time></trkpt><trkpt lat="45.42245342608561" lon="8.100067435103224"><ele>283.0</ele><time>2026-05-01T14:23:30Z</time></trkpt><trkpt lat="45.42227321099102" lon="8.099963129808929"><ele>283.3333333333333</ele><time>2026-05-01T14:23:31Z</time></trkpt><trkpt lat="45.422091696953075" lon="8.09987873318176"><ele>283.6666666666667</ele><time>2026-05-01T14:23:32Z</time></trkpt><trkpt lat="45.42191139944437" lon="8.099813622242944"><ele>284.0</ele><time>2026-05-01T14:23:33Z</time></trkpt><trkpt lat="45.42173709333483" lon="8.099756922626252"><ele>284.0</ele><time>2026-05-01T14:23:34Z</time></trkpt><trkpt lat="45.42159178616372" lon="8.099711366244138"><ele>284.0</ele><time>2026-05-01T14:23:35Z</time></trkpt><trkpt lat="45.42146509652414" lon="8.099672631800418"><ele>284.0</ele><time>2026-05-01T14:23:36Z</time></trkpt><trkpt lat="45.421359641240585" lon="8.099640303326051"><ele>284.0</ele><time>2026-05-01T14:23:37Z</time></trkpt><trkpt lat="45.421269449162125" lon="8.099606844167752"><ele>283.8</ele><time>2026-05-01T14:23:38Z</time></trkpt><trkpt lat="45.42120252292129" lon="8.099577265669037"><ele>283.59999999999997</ele><time>2026-05-01T14:23:39Z</time></trkpt><trkpt lat="45.42109301217819" lon="8.099474979522261"><ele>283.4</ele><time>2026-05-01T14:23:41Z</time></trkpt><trkpt lat="45.42104586995422" lon="8.099394127104894"><ele>283.2</ele><time>2026-05-01T14:23:41.999Z</time></trkpt><trkpt lat="45.42092781164343" lon="8.099346846370077"><ele>283.0</ele><time>2026-05-01T14:23:43.999Z</time></trkpt><trkpt lat="45.42085000166921" lon="8.099387070291513"><ele>283.0</ele><time>2026-05-01T14:23:44.999Z</time></trkpt><trkpt lat="45.420765929872424" lon="8.099435040369265"><ele>283.0</ele><time>2026-05-01T14:23:45.999Z</time></trkpt><trkpt lat="45.42067413579568" lon="8.099451310468885"><ele>283.0</ele><time>2026-05-01T14:23:46.999Z</time></trkpt><trkpt lat="45.42056812083334" lon="8.099426599880774"><ele>283.0</ele><time>2026-05-01T14:23:47.999Z</time></trkpt><trkpt lat="45.420435295289145" lon="8.099377253692804"><ele>283.0</ele><time>2026-05-01T14:23:48.999Z</time></trkpt><trkpt lat="45.42027423120103" lon="8.0993209243246"><ele>282.66666666666663</ele><time>2026-05-01T14:23:49.999Z</time></trkpt><trkpt lat="45.420094032661666" lon="8.099267546990564"><ele>282.3333333333333</ele><time>2026-05-01T14:23:50.999Z</time></trkpt><trkpt lat="45.41988785856756" lon="8.099209756356665"><ele>282.0</ele><time>2026-05-01T14:23:51.999Z</time></trkpt><trkpt lat="45.41966723649833" lon="8.099135125930168"><ele>283.0</ele><time>2026-05-01T14:23:52.999Z</time></trkpt><trkpt lat="45.41944803158063" lon="8.099056814757727"><ele>284.0</ele><time>2026-05-01T14:23:53.999Z</time></trkpt><trkpt lat="45.41922613240703" lon="8.098983440970251"><ele>284.0</ele><time>2026-05-01T14:23:54.999Z</time></trkpt><trkpt lat="45.41898378281794" lon="8.09890909807775"><ele>284.0</ele><time>2026-05-01T14:23:55.999Z</time></trkpt><trkpt lat="45.418735137903774" lon="8.098832855191656"><ele>284.0</ele><time>2026-05-01T14:23:56.999Z</time></trkpt><trkpt lat="45.41849109344016" lon="8.098756603411537"><ele>284.0</ele><time>2026-05-01T14:23:57.999Z</time></trkpt><trkpt lat="45.418243021739194" lon="8.098679629795283"><ele>284.0</ele><time>2026-05-01T14:23:58.999Z</time></trkpt><trkpt lat="45.41799484330205" lon="8.098604676161914"><ele>284.0</ele><time>2026-05-01T14:23:59.999Z</time></trkpt><trkpt lat="45.41775176805901" lon="8.098532231165924"><ele>284.0</ele><time>2026-05-01T14:24:00.999Z</time></trkpt><trkpt lat="45.41750439493159" lon="8.098456301160331"><ele>284.0</ele><time>2026-05-01T14:24:01.999Z</time></trkpt><trkpt lat="45.417255348519355" lon="8.098379050261327"><ele>283.5</ele><time>2026-05-01T14:24:02.999Z</time></trkpt><trkpt lat="45.41700755477512" lon="8.0983044800006"><ele>283.0</ele><time>2026-05-01T14:24:03.999Z</time></trkpt><trkpt lat="45.41676654019568" lon="8.098229808446176"><ele>283.0</ele><time>2026-05-01T14:24:04.999Z</time></trkpt><trkpt lat="45.4165300498764" lon="8.098154172207362"><ele>283.0</ele><time>2026-05-01T14:24:05.999Z</time></trkpt><trkpt lat="45.416287513169515" lon="8.098081063883734"><ele>281.5</ele><time>2026-05-01T14:24:06.999Z</time></trkpt><trkpt lat="45.416043295276474" lon="8.098006398297894"><ele>280.0</ele><time>2026-05-01T14:24:07.999Z</time></trkpt><trkpt lat="45.41581245383204" lon="8.097934883819349"><ele>280.0</ele><time>2026-05-01T14:24:08.999Z</time></trkpt><trkpt lat="45.41558235099238" lon="8.097865086292925"><ele>280.0</ele><time>2026-05-01T14:24:09.999Z</time></trkpt><trkpt lat="45.415348497943555" lon="8.097792527152222"><ele>279.5</ele><time>2026-05-01T14:24:10.999Z</time></trkpt><trkpt lat="45.415099982673865" lon="8.097716724632242"><ele>279.0</ele><time>2026-05-01T14:24:11.999Z</time></trkpt><trkpt lat="45.414853942457135" lon="8.097640302361302"><ele>277.0</ele><time>2026-05-01T14:24:12.999Z</time></trkpt><trkpt lat="45.41460559366011" lon="8.09756279844953"><ele>275.0</ele><time>2026-05-01T14:24:13.999Z</time></trkpt><trkpt lat="45.414365621378806" lon="8.097488121801723"><ele>276.0</ele><time>2026-05-01T14:24:14.999Z</time></trkpt><trkpt lat="45.41412809683382" lon="8.097414419098786"><ele>277.0</ele><time>2026-05-01T14:24:15.999Z</time></trkpt><trkpt lat="45.41388175389063" lon="8.097338168332882"><ele>277.5</ele><time>2026-05-01T14:24:16.999Z</time></trkpt><trkpt lat="45.413640852992955" lon="8.097263933168017"><ele>278.0</ele><time>2026-05-01T14:24:17.999Z</time></trkpt><trkpt lat="45.41340755475878" lon="8.09719098077343"><ele>278.0</ele><time>2026-05-01T14:24:18.999Z</time></trkpt><trkpt lat="45.41318209063999" lon="8.09711869994411"><ele>278.0</ele><time>2026-05-01T14:24:19.999Z</time></trkpt><trkpt lat="45.41295910304433" lon="8.097042998057276"><ele>277.5</ele><time>2026-05-01T14:24:20.999Z</time></trkpt><trkpt lat="45.41273452595653" lon="8.096971246405543"><ele>277.0</ele><time>2026-05-01T14:24:21.999Z</time></trkpt><trkpt lat="45.412510327918014" lon="8.096900758778972"><ele>277.0</ele><time>2026-05-01T14:24:22.999Z</time></trkpt><trkpt lat="45.41229219007875" lon="8.096833412038587"><ele>277.0</ele><time>2026-05-01T14:24:23.999Z</time></trkpt><trkpt lat="45.412087129727105" lon="8.096772692497069"><ele>277.0</ele><time>2026-05-01T14:24:24.999Z</time></trkpt><trkpt lat="45.411902667203066" lon="8.096709560949497"><ele>276.3333333333333</ele><time>2026-05-01T14:24:25.999Z</time></trkpt><trkpt lat="45.41173155000172" lon="8.096657549111294"><ele>275.6666666666667</ele><time>2026-05-01T14:24:26.999Z</time></trkpt><trkpt lat="45.411564153410524" lon="8.096603399219347"><ele>275.0</ele><time>2026-05-01T14:24:27.999Z</time></trkpt><trkpt lat="45.4113859062387" lon="8.096547878221777"><ele>274.6666666666667</ele><time>2026-05-01T14:24:29Z</time></trkpt><trkpt lat="45.41122546606651" lon="8.096497380946563"><ele>274.3333333333333</ele><time>2026-05-01T14:24:30Z</time></trkpt><trkpt lat="45.41108111465921" lon="8.096450071502419"><ele>274.0</ele><time>2026-05-01T14:24:31Z</time></trkpt><trkpt lat="45.410928216235284" lon="8.096401751152175"><ele>274.0</ele><time>2026-05-01T14:24:32Z</time></trkpt><trkpt lat="45.41077821429357" lon="8.096357577376564"><ele>274.0</ele><time>2026-05-01T14:24:33Z</time></trkpt><trkpt lat="45.410639860588475" lon="8.096317720988546"><ele>274.0</ele><time>2026-05-01T14:24:34Z</time></trkpt><trkpt lat="45.410514972564144" lon="8.09627548237809"><ele>274.0</ele><time>2026-05-01T14:24:35Z</time></trkpt><trkpt lat="45.410382843485195" lon="8.096233710343546"><ele>274.0</ele><time>2026-05-01T14:24:36Z</time></trkpt><trkpt lat="45.41023402227102" lon="8.096188240483418"><ele>274.0</ele><time>2026-05-01T14:24:37Z</time></trkpt><trkpt lat="45.410058890558446" lon="8.096137917060128"><ele>274.0</ele><time>2026-05-01T14:24:38Z</time></trkpt><trkpt lat="45.40989674261023" lon="8.096089741428242"><ele>274.0</ele><time>2026-05-01T14:24:39Z</time></trkpt><trkpt lat="45.409744693124885" lon="8.096044685421132"><ele>274.0</ele><time>2026-05-01T14:24:40Z</time></trkpt><trkpt lat="45.409605656568466" lon="8.09599986847062"><ele>274.0</ele><time>2026-05-01T14:24:41Z</time></trkpt><trkpt lat="45.4094760519931" lon="8.095957934667858"><ele>274.0</ele><time>2026-05-01T14:24:42Z</time></trkpt><trkpt lat="45.40937358988521" lon="8.095922433687035"><ele>274.0</ele><time>2026-05-01T14:24:43Z</time></trkpt><trkpt lat="45.4092903498817" lon="8.095894565571855"><ele>274.0</ele><time>2026-05-01T14:24:44Z</time></trkpt><trkpt lat="45.40921352046812" lon="8.095859343928629"><ele>274.0</ele><time>2026-05-01T14:24:45Z</time></trkpt><trkpt lat="45.409141553996086" lon="8.095809494206938"><ele>274.0</ele><time>2026-05-01T14:24:46Z</time></trkpt><trkpt lat="45.409079528518916" lon="8.095745847704784"><ele>274.0</ele><time>2026-05-01T14:24:47Z</time></trkpt><trkpt lat="45.409029569549645" lon="8.095670573001485"><ele>274.0</ele><time>2026-05-01T14:24:48Z</time></trkpt><trkpt lat="45.408974105442766" lon="8.095575864473389"><ele>274.0</ele><time>2026-05-01T14:24:49Z</time></trkpt><trkpt lat="45.40893022361954" lon="8.095465694087048"><ele>274.0</ele><time>2026-05-01T14:24:50Z</time></trkpt><trkpt lat="45.40888737595973" lon="8.095328167754595"><ele>274.0</ele><time>2026-05-01T14:24:51Z</time></trkpt><trkpt lat="45.408843247807226" lon="8.09517585702577"><ele>274.0</ele><time>2026-05-01T14:24:52Z</time></trkpt><trkpt lat="45.40878563135192" lon="8.095001673864314"><ele>274.0</ele><time>2026-05-01T14:24:53Z</time></trkpt><trkpt lat="45.40873467027079" lon="8.094814689308116"><ele>273.8</ele><time>2026-05-01T14:24:54Z</time></trkpt><trkpt lat="45.408685738658" lon="8.094657554738545"><ele>273.59999999999997</ele><time>2026-05-01T14:24:55Z</time></trkpt><trkpt lat="45.408646304525284" lon="8.094512364879778"><ele>273.4</ele><time>2026-05-01T14:24:56Z</time></trkpt><trkpt lat="45.40860824763738" lon="8.094367004980008"><ele>273.2</ele><time>2026-05-01T14:24:57Z</time></trkpt><trkpt lat="45.408573377278834" lon="8.094219168426196"><ele>273.0</ele><time>2026-05-01T14:24:58Z</time></trkpt><trkpt lat="45.40854427875065" lon="8.094066264581164"><ele>273.5</ele><time>2026-05-01T14:24:59Z</time></trkpt><trkpt lat="45.40852943533606" lon="8.093901268899899"><ele>274.0</ele><time>2026-05-01T14:25:00Z</time></trkpt><trkpt lat="45.408525447441306" lon="8.093691287608667"><ele>274.5</ele><time>2026-05-01T14:25:01Z</time></trkpt><trkpt lat="45.40852324652711" lon="8.093471850181057"><ele>275.0</ele><time>2026-05-01T14:25:02Z</time></trkpt><trkpt lat="45.40851723689957" lon="8.093265335357513"><ele>275.0</ele><time>2026-05-01T14:25:03Z</time></trkpt><trkpt lat="45.40851004760357" lon="8.09306791027634"><ele>275.0</ele><time>2026-05-01T14:25:04Z</time></trkpt><trkpt lat="45.40850732656037" lon="8.092895769182844"><ele>275.0</ele><time>2026-05-01T14:25:05Z</time></trkpt><trkpt lat="45.40850612780914" lon="8.092731190023452"><ele>275.0</ele><time>2026-05-01T14:25:06Z</time></trkpt><trkpt lat="45.408512239567976" lon="8.092557558757573"><ele>275.0</ele><time>2026-05-01T14:25:07Z</time></trkpt><trkpt lat="45.4085377259332" lon="8.092399044467815"><ele>275.0</ele><time>2026-05-01T14:25:08Z</time></trkpt><trkpt lat="45.40857197818908" lon="8.092261973420689"><ele>275.0</ele><time>2026-05-01T14:25:09Z</time></trkpt><trkpt lat="45.40859383327361" lon="8.092159547602634"><ele>275.0</ele><time>2026-05-01T14:25:10Z</time></trkpt><trkpt lat="45.40857325799067" lon="8.091980714460647"><ele>275.0</ele><time>2026-05-01T14:25:12Z</time></trkpt><trkpt lat="45.40855843292119" lon="8.091892081073514"><ele>275.0</ele><time>2026-05-01T14:25:13Z</time></trkpt><trkpt lat="45.40846294286666" lon="8.091834446671912"><ele>275.0</ele><time>2026-05-01T14:25:14.001Z</time></trkpt><trkpt lat="45.40835915142091" lon="8.09177596351727"><ele>275.0</ele><time>2026-05-01T14:25:15.001Z</time></trkpt><trkpt lat="45.408217911581005" lon="8.091703587573754"><ele>275.0</ele><time>2026-05-01T14:25:16.001Z</time></trkpt><trkpt lat="45.40805585536733" lon="8.091615538456201"><ele>275.33333333333337</ele><time>2026-05-01T14:25:17.001Z</time></trkpt><trkpt lat="45.40787512260569" lon="8.091522039139829"><ele>275.6666666666667</ele><time>2026-05-01T14:25:18.001Z</time></trkpt><trkpt lat="45.40772067921175" lon="8.091441467354503"><ele>276.0</ele><time>2026-05-01T14:25:19.001Z</time></trkpt><trkpt lat="45.40759684385374" lon="8.091386622272221"><ele>276.0</ele><time>2026-05-01T14:25:20.001Z</time></trkpt><trkpt lat="45.40749471442497" lon="8.091341690128694"><ele>276.0</ele><time>2026-05-01T14:25:21.001Z</time></trkpt><trkpt lat="45.40738305123406" lon="8.091294245318878"><ele>276.0</ele><time>2026-05-01T14:25:22.001Z</time></trkpt><trkpt lat="45.407257096971016" lon="8.091237113511696"><ele>276.0</ele><time>2026-05-01T14:25:23.001Z</time></trkpt><trkpt lat="45.40714142137604" lon="8.09118570145915"><ele>276.0</ele><time>2026-05-01T14:25:24.001Z</time></trkpt><trkpt lat="45.40703420453345" lon="8.091142977954798"><ele>276.0</ele><time>2026-05-01T14:25:25.001Z</time></trkpt><trkpt lat="45.40693132222608" lon="8.091110498168764"><ele>276.0</ele><time>2026-05-01T14:25:26.001Z</time></trkpt><trkpt lat="45.40682803180507" lon="8.091074058785725"><ele>276.0</ele><time>2026-05-01T14:25:27.001Z</time></trkpt><trkpt lat="45.40672655669818" lon="8.09103664400649"><ele>276.0</ele><time>2026-05-01T14:25:28.001Z</time></trkpt><trkpt lat="45.40660834916732" lon="8.09100376938497"><ele>276.0</ele><time>2026-05-01T14:25:29.001Z</time></trkpt><trkpt lat="45.40648512408904" lon="8.090961019409372"><ele>276.0</ele><time>2026-05-01T14:25:30.001Z</time></trkpt><trkpt lat="45.40636459928538" lon="8.090912516753091"><ele>276.0</ele><time>2026-05-01T14:25:31.001Z</time></trkpt><trkpt lat="45.40624545202567" lon="8.090857709958323"><ele>276.0</ele><time>2026-05-01T14:25:32.001Z</time></trkpt><trkpt lat="45.40611809723554" lon="8.090794822946963"><ele>275.8</ele><time>2026-05-01T14:25:33.001Z</time></trkpt><trkpt lat="45.40600198471541" lon="8.090741732867635"><ele>275.6</ele><time>2026-05-01T14:25:34.001Z</time></trkpt><trkpt lat="45.40589155398832" lon="8.090692229981734"><ele>275.4</ele><time>2026-05-01T14:25:35.001Z</time></trkpt><trkpt lat="45.4057973518532" lon="8.09065362966636"><ele>275.2</ele><time>2026-05-01T14:25:36.001Z</time></trkpt><trkpt lat="45.40571590990794" lon="8.090620999459821"><ele>275.0</ele><time>2026-05-01T14:25:38.001Z</time></trkpt><trkpt lat="45.40565909857472" lon="8.090508707375573"><ele>275.0</ele><time>2026-05-01T14:25:41.001Z</time></trkpt><trkpt lat="45.40567332073115" lon="8.09033108508604"><ele>275.0</ele><time>2026-05-01T14:25:43.001Z</time></trkpt><trkpt lat="45.40569171818149" lon="8.090200526236242"><ele>275.0</ele><time>2026-05-01T14:25:44.001Z</time></trkpt><trkpt lat="45.40570785123524" lon="8.090070868809565"><ele>275.0</ele><time>2026-05-01T14:25:45Z</time></trkpt><trkpt lat="45.40573555592855" lon="8.089949047352068"><ele>275.0</ele><time>2026-05-01T14:25:46Z</time></trkpt><trkpt lat="45.4057895363013" lon="8.089843409534046"><ele>275.6</ele><time>2026-05-01T14:25:47Z</time></trkpt><trkpt lat="45.405862212870666" lon="8.089720137159894"><ele>276.2</ele><time>2026-05-01T14:25:48Z</time></trkpt><trkpt lat="45.40593885528321" lon="8.089590030745427"><ele>276.8</ele><time>2026-05-01T14:25:49Z</time></trkpt><trkpt lat="45.40598735342123" lon="8.089457016136251"><ele>277.4</ele><time>2026-05-01T14:25:50Z</time></trkpt><trkpt lat="45.40601596318865" lon="8.089321137973121"><ele>278.0</ele><time>2026-05-01T14:25:51Z</time></trkpt><trkpt lat="45.406026426790135" lon="8.089196765779413"><ele>279.25</ele><time>2026-05-01T14:25:52Z</time></trkpt><trkpt lat="45.40603096557891" lon="8.089086685718133"><ele>280.5</ele><time>2026-05-01T14:25:53Z</time></trkpt><trkpt lat="45.40604500331018" lon="8.088964772757029"><ele>281.75</ele><time>2026-05-01T14:25:55Z</time></trkpt><trkpt lat="45.405823816640265" lon="8.088888689791613"><ele>283.0</ele><time>2026-05-01T14:26:04Z</time></trkpt><trkpt lat="45.40572686961863" lon="8.08890593754838"><ele>283.0</ele><time>2026-05-01T14:26:05Z</time></trkpt><trkpt lat="45.40562308212405" lon="8.088935631425162"><ele>283.0</ele><time>2026-05-01T14:26:06Z</time></trkpt><trkpt lat="45.405522386698166" lon="8.08895659728039"><ele>283.0</ele><time>2026-05-01T14:26:07Z</time></trkpt><trkpt lat="45.40543472379552" lon="8.08898620256792"><ele>283.0</ele><time>2026-05-01T14:26:08Z</time></trkpt><trkpt lat="45.405353645727686" lon="8.08900563420733"><ele>283.0</ele><time>2026-05-01T14:26:09Z</time></trkpt><trkpt lat="45.40527435316076" lon="8.08902613209911"><ele>282.75</ele><time>2026-05-01T14:26:10Z</time></trkpt><trkpt lat="45.405186331504524" lon="8.089043618884778"><ele>282.5</ele><time>2026-05-01T14:26:11Z</time></trkpt><trkpt lat="45.40505941086367" lon="8.089069082034197"><ele>282.25</ele><time>2026-05-01T14:26:12Z</time></trkpt><trkpt lat="45.404913898328324" lon="8.089108695515769"><ele>282.0</ele><time>2026-05-01T14:26:13Z</time></trkpt><trkpt lat="45.40475672230396" lon="8.089149211230952"><ele>278.3333333333333</ele><time>2026-05-01T14:26:14Z</time></trkpt><trkpt lat="45.40458767785515" lon="8.089187630976054"><ele>274.66666666666663</ele><time>2026-05-01T14:26:15Z</time></trkpt><trkpt lat="45.404414730033615" lon="8.089230134858951"><ele>271.0</ele><time>2026-05-01T14:26:16Z</time></trkpt><trkpt lat="45.40425097352643" lon="8.089265423301105"><ele>271.0</ele><time>2026-05-01T14:26:17Z</time></trkpt><trkpt lat="45.40409222889122" lon="8.089302031954773"><ele>271.0</ele><time>2026-05-01T14:26:18Z</time></trkpt><trkpt lat="45.40393935597503" lon="8.089334573727676"><ele>271.0</ele><time>2026-05-01T14:26:19Z</time></trkpt><trkpt lat="45.40378972073056" lon="8.089368516410378"><ele>270.5</ele><time>2026-05-01T14:26:20Z</time></trkpt><trkpt lat="45.40365241720867" lon="8.08939944132108"><ele>270.0</ele><time>2026-05-01T14:26:21Z</time></trkpt><trkpt lat="45.40351906442173" lon="8.089428375224236"><ele>269.5</ele><time>2026-05-01T14:26:22Z</time></trkpt><trkpt lat="45.40337997455766" lon="8.089458335972521"><ele>269.0</ele><time>2026-05-01T14:26:23Z</time></trkpt><trkpt lat="45.40325770251218" lon="8.089483309649019"><ele>269.0</ele><time>2026-05-01T14:26:24Z</time></trkpt><trkpt lat="45.403141149124956" lon="8.089518961062273"><ele>269.0</ele><time>2026-05-01T14:26:25Z</time></trkpt><trkpt lat="45.403035937190715" lon="8.089568881818199"><ele>269.0</ele><time>2026-05-01T14:26:26Z</time></trkpt><trkpt lat="45.40293778447826" lon="8.089641707534515"><ele>269.0</ele><time>2026-05-01T14:26:27Z</time></trkpt><trkpt lat="45.40284533210464" lon="8.08973356619931"><ele>269.25</ele><time>2026-05-01T14:26:28Z</time></trkpt><trkpt lat="45.40277350763977" lon="8.0898492233684"><ele>269.5</ele><time>2026-05-01T14:26:29Z</time></trkpt><trkpt lat="45.40268370007586" lon="8.089939435787793"><ele>269.75</ele><time>2026-05-01T14:26:30Z</time></trkpt><trkpt lat="45.40265853145921" lon="8.090114659380362"><ele>270.0</ele><time>2026-05-01T14:26:31Z</time></trkpt><trkpt lat="45.40261840817074" lon="8.090275313508005"><ele>269.5</ele><time>2026-05-01T14:26:32Z</time></trkpt><trkpt lat="45.40257159686475" lon="8.090469760889327"><ele>269.0</ele><time>2026-05-01T14:26:33Z</time></trkpt><trkpt lat="45.402528423486494" lon="8.09065868138089"><ele>268.5</ele><time>2026-05-01T14:26:34Z</time></trkpt><trkpt lat="45.402485339889445" lon="8.09083437639057"><ele>268.0</ele><time>2026-05-01T14:26:35Z</time></trkpt><trkpt lat="45.40244662804871" lon="8.091007502429205"><ele>267.75</ele><time>2026-05-01T14:26:36Z</time></trkpt><trkpt lat="45.402402738229604" lon="8.091185094284732"><ele>267.5</ele><time>2026-05-01T14:26:37Z</time></trkpt><trkpt lat="45.40236340678993" lon="8.091347462213477"><ele>267.25</ele><time>2026-05-01T14:26:38Z</time></trkpt><trkpt lat="45.40232137975104" lon="8.091514462209487"><ele>267.0</ele><time>2026-05-01T14:26:39Z</time></trkpt><trkpt lat="45.4022841333082" lon="8.091667879199408"><ele>267.0</ele><time>2026-05-01T14:26:40Z</time></trkpt><trkpt lat="45.40225058142281" lon="8.091811621525999"><ele>267.0</ele><time>2026-05-01T14:26:41Z</time></trkpt><trkpt lat="45.40222240777952" lon="8.091940336785937"><ele>267.0</ele><time>2026-05-01T14:26:42Z</time></trkpt><trkpt lat="45.402189300309274" lon="8.092059433449801"><ele>267.0</ele><time>2026-05-01T14:26:43Z</time></trkpt><trkpt lat="45.40216163021893" lon="8.092169604209138"><ele>267.0</ele><time>2026-05-01T14:26:44Z</time></trkpt><trkpt lat="45.402128964158884" lon="8.092309174885676"><ele>266.8333333333333</ele><time>2026-05-01T14:26:46Z</time></trkpt><trkpt lat="45.40208708358821" lon="8.092430173049243"><ele>266.6666666666667</ele><time>2026-05-01T14:26:52Z</time></trkpt><trkpt lat="45.40200568731127" lon="8.092495715844331"><ele>266.5</ele><time>2026-05-01T14:26:54Z</time></trkpt><trkpt lat="45.40194195407741" lon="8.092495025949058"><ele>266.33333333333337</ele><time>2026-05-01T14:26:55Z</time></trkpt><trkpt lat="45.4018567621745" lon="8.092464617478127"><ele>266.1666666666667</ele><time>2026-05-01T14:26:56Z</time></trkpt><trkpt lat="45.401753418954726" lon="8.092419719281729"><ele>266.0</ele><time>2026-05-01T14:26:57Z</time></trkpt><trkpt lat="45.401638983234896" lon="8.092366548630386"><ele>266.5</ele><time>2026-05-01T14:26:58Z</time></trkpt><trkpt lat="45.40149856536103" lon="8.092300127142465"><ele>267.0</ele><time>2026-05-01T14:26:59Z</time></trkpt><trkpt lat="45.40136170565537" lon="8.092243475591518"><ele>267.5</ele><time>2026-05-01T14:27:00Z</time></trkpt><trkpt lat="45.40124996093552" lon="8.092195750688402"><ele>268.0</ele><time>2026-05-01T14:27:01Z</time></trkpt><trkpt lat="45.40114636598296" lon="8.092147288383128"><ele>268.0</ele><time>2026-05-01T14:27:02Z</time></trkpt><trkpt lat="45.40102617734226" lon="8.092089990274177"><ele>268.0</ele><time>2026-05-01T14:27:03Z</time></trkpt><trkpt lat="45.4008842578986" lon="8.092027039785624"><ele>268.0</ele><time>2026-05-01T14:27:04Z</time></trkpt><trkpt lat="45.40074007782975" lon="8.09196576415012"><ele>268.0</ele><time>2026-05-01T14:27:05Z</time></trkpt><trkpt lat="45.40061037978411" lon="8.091911591810607"><ele>267.75</ele><time>2026-05-01T14:27:06Z</time></trkpt><trkpt lat="45.40047936962304" lon="8.091853615439627"><ele>267.5</ele><time>2026-05-01T14:27:07Z</time></trkpt><trkpt lat="45.40034749566318" lon="8.091792980917333"><ele>267.25</ele><time>2026-05-01T14:27:08Z</time></trkpt><trkpt lat="45.400226416302644" lon="8.091738581710848"><ele>267.0</ele><time>2026-05-01T14:27:09Z</time></trkpt><trkpt lat="45.40011015333844" lon="8.091686188351122"><ele>267.0</ele><time>2026-05-01T14:27:10Z</time></trkpt><trkpt lat="45.39997322294384" lon="8.091629808408088"><ele>267.0</ele><time>2026-05-01T14:27:11Z</time></trkpt><trkpt lat="45.39982814041133" lon="8.091566460442214"><ele>267.0</ele><time>2026-05-01T14:27:12Z</time></trkpt><trkpt lat="45.39969258008943" lon="8.09150801665065"><ele>267.0</ele><time>2026-05-01T14:27:13Z</time></trkpt><trkpt lat="45.39957637497235" lon="8.091459543922618"><ele>266.25</ele><time>2026-05-01T14:27:14Z</time></trkpt><trkpt lat="45.39946122559518" lon="8.091407450797709"><ele>265.5</ele><time>2026-05-01T14:27:15Z</time></trkpt><trkpt lat="45.399342406325864" lon="8.091352306210682"><ele>264.75</ele><time>2026-05-01T14:27:16Z</time></trkpt><trkpt lat="45.39921510523653" lon="8.091293946301025"><ele>264.0</ele><time>2026-05-01T14:27:17Z</time></trkpt><trkpt lat="45.39908558566588" lon="8.091238680726597"><ele>264.0</ele><time>2026-05-01T14:27:18Z</time></trkpt><trkpt lat="45.398969114219994" lon="8.091185931890275"><ele>264.0</ele><time>2026-05-01T14:27:19Z</time></trkpt><trkpt lat="45.3988449342209" lon="8.091132260864848"><ele>264.0</ele><time>2026-05-01T14:27:20.001Z</time></trkpt><trkpt lat="45.398728670981406" lon="8.091081894107004"><ele>264.0</ele><time>2026-05-01T14:27:21.001Z</time></trkpt><trkpt lat="45.39863080373329" lon="8.091034368990163"><ele>263.75</ele><time>2026-05-01T14:27:22.001Z</time></trkpt><trkpt lat="45.39853506538783" lon="8.090981849161793"><ele>263.5</ele><time>2026-05-01T14:27:23.001Z</time></trkpt><trkpt lat="45.39841476388235" lon="8.090930895931857"><ele>263.25</ele><time>2026-05-01T14:27:24.001Z</time></trkpt><trkpt lat="45.39826777288008" lon="8.090871835732194"><ele>263.0</ele><time>2026-05-01T14:27:25.001Z</time></trkpt><trkpt lat="45.398134802330475" lon="8.090814582286198"><ele>263.0</ele><time>2026-05-01T14:27:26.001Z</time></trkpt><trkpt lat="45.39801051283719" lon="8.090758239988148"><ele>263.0</ele><time>2026-05-01T14:27:27.001Z</time></trkpt><trkpt lat="45.397872561671406" lon="8.090693812521504"><ele>263.0</ele><time>2026-05-01T14:27:28.001Z</time></trkpt><trkpt lat="45.39770690281745" lon="8.090619715127806"><ele>263.0</ele><time>2026-05-01T14:27:29.001Z</time></trkpt><trkpt lat="45.39753564556044" lon="8.090545193745758"><ele>263.0</ele><time>2026-05-01T14:27:30.001Z</time></trkpt><trkpt lat="45.39737348872072" lon="8.090468679103955"><ele>263.0</ele><time>2026-05-01T14:27:31.001Z</time></trkpt><trkpt lat="45.39722171003473" lon="8.09040098556457"><ele>263.0</ele><time>2026-05-01T14:27:32.001Z</time></trkpt><trkpt lat="45.397080697397335" lon="8.090340521447411"><ele>262.6666666666667</ele><time>2026-05-01T14:27:33.001Z</time></trkpt><trkpt lat="45.39694159329536" lon="8.090277922381192"><ele>262.3333333333333</ele><time>2026-05-01T14:27:34.001Z</time></trkpt><trkpt lat="45.39678888400317" lon="8.090209387825553"><ele>262.0</ele><time>2026-05-01T14:27:35.001Z</time></trkpt><trkpt lat="45.396629532296686" lon="8.090139716319165"><ele>262.0</ele><time>2026-05-01T14:27:36.001Z</time></trkpt><trkpt lat="45.39647200071686" lon="8.090069395083345"><ele>262.0</ele><time>2026-05-01T14:27:37.001Z</time></trkpt><trkpt lat="45.396321039377256" lon="8.089999543909828"><ele>262.0</ele><time>2026-05-01T14:27:38.001Z</time></trkpt><trkpt lat="45.39616556160635" lon="8.089932952684824"><ele>261.66666666666663</ele><time>2026-05-01T14:27:39.001Z</time></trkpt><trkpt lat="45.39601014906177" lon="8.089865728544662"><ele>261.3333333333333</ele><time>2026-05-01T14:27:40.001Z</time></trkpt><trkpt lat="45.39585553816547" lon="8.089799630207127"><ele>261.0</ele><time>2026-05-01T14:27:41.001Z</time></trkpt><trkpt lat="45.395696726185996" lon="8.089729585277349"><ele>261.0</ele><time>2026-05-01T14:27:42.001Z</time></trkpt><trkpt lat="45.39553507524394" lon="8.089659181056186"><ele>261.0</ele><time>2026-05-01T14:27:43Z</time></trkpt><trkpt lat="45.395380306590795" lon="8.089588883148853"><ele>261.0</ele><time>2026-05-01T14:27:44Z</time></trkpt><trkpt lat="45.39522066808594" lon="8.089517542935951"><ele>260.6666666666667</ele><time>2026-05-01T14:27:45Z</time></trkpt><trkpt lat="45.39505865537665" lon="8.089444791899588"><ele>260.33333333333337</ele><time>2026-05-01T14:27:46Z</time></trkpt><trkpt lat="45.39489349032536" lon="8.089372429129984"><ele>260.0</ele><time>2026-05-01T14:27:47Z</time></trkpt><trkpt lat="45.39472830298719" lon="8.089298919048465"><ele>260.33333333333337</ele><time>2026-05-01T14:27:48Z</time></trkpt><trkpt lat="45.394567441302094" lon="8.089228110131165"><ele>260.6666666666667</ele><time>2026-05-01T14:27:49Z</time></trkpt><trkpt lat="45.39440936021646" lon="8.08915875460737"><ele>261.0</ele><time>2026-05-01T14:27:50Z</time></trkpt><trkpt lat="45.39424785596047" lon="8.089088628450554"><ele>261.0</ele><time>2026-05-01T14:27:51Z</time></trkpt><trkpt lat="45.394070013071385" lon="8.089006920388362"><ele>261.0</ele><time>2026-05-01T14:27:52Z</time></trkpt><trkpt lat="45.393905975894754" lon="8.088934257937748"><ele>261.0</ele><time>2026-05-01T14:27:53Z</time></trkpt><trkpt lat="45.39374447628287" lon="8.088859980311268"><ele>260.6666666666667</ele><time>2026-05-01T14:27:54Z</time></trkpt><trkpt lat="45.393576925237895" lon="8.088786457199063"><ele>260.33333333333337</ele><time>2026-05-01T14:27:55Z</time></trkpt><trkpt lat="45.39339783043517" lon="8.088707945860135"><ele>260.0</ele><time>2026-05-01T14:27:56Z</time></trkpt><trkpt lat="45.393214844416995" lon="8.08862602610041"><ele>260.0</ele><time>2026-05-01T14:27:57Z</time></trkpt><trkpt lat="45.393026302357086" lon="8.088542994138008"><ele>260.0</ele><time>2026-05-01T14:27:58Z</time></trkpt><trkpt lat="45.39285151599585" lon="8.088465501365924"><ele>260.0</ele><time>2026-05-01T14:27:59Z</time></trkpt><trkpt lat="45.39267703692595" lon="8.08838684801077"><ele>260.0</ele><time>2026-05-01T14:28:00Z</time></trkpt><trkpt lat="45.39249938515649" lon="8.088303600906556"><ele>260.0</ele><time>2026-05-01T14:28:01Z</time></trkpt><trkpt lat="45.392316398244304" lon="8.088224957673159"><ele>260.0</ele><time>2026-05-01T14:28:02Z</time></trkpt><trkpt lat="45.39214002125979" lon="8.088149921290812"><ele>259.6666666666667</ele><time>2026-05-01T14:28:03Z</time></trkpt><trkpt lat="45.39196047865751" lon="8.08807476038992"><ele>259.3333333333333</ele><time>2026-05-01T14:28:04Z</time></trkpt><trkpt lat="45.39178089345645" lon="8.087994650659489"><ele>259.0</ele><time>2026-05-01T14:28:05Z</time></trkpt><trkpt lat="45.3916090568092" lon="8.08789745349893"><ele>259.0</ele><time>2026-05-01T14:28:06Z</time></trkpt><trkpt lat="45.39142822164856" lon="8.08783753992596"><ele>259.0</ele><time>2026-05-01T14:28:07Z</time></trkpt><trkpt lat="45.391252359608025" lon="8.087758709815104"><ele>259.0</ele><time>2026-05-01T14:28:08Z</time></trkpt><trkpt lat="45.39107073070168" lon="8.087680820782797"><ele>259.0</ele><time>2026-05-01T14:28:09Z</time></trkpt><trkpt lat="45.390895666513664" lon="8.087600117819354"><ele>259.0</ele><time>2026-05-01T14:28:10Z</time></trkpt><trkpt lat="45.390710470900096" lon="8.087519346291296"><ele>259.0</ele><time>2026-05-01T14:28:11Z</time></trkpt><trkpt lat="45.390524136791626" lon="8.087439743647785"><ele>259.66666666666663</ele><time>2026-05-01T14:28:12Z</time></trkpt><trkpt lat="45.390355972541535" lon="8.087362329067153"><ele>260.3333333333333</ele><time>2026-05-01T14:28:13Z</time></trkpt><trkpt lat="45.39019084369651" lon="8.087279540212974"><ele>261.0</ele><time>2026-05-01T14:28:14Z</time></trkpt><trkpt lat="45.390019787117424" lon="8.087207973615108"><ele>261.0</ele><time>2026-05-01T14:28:15Z</time></trkpt><trkpt lat="45.38984412704112" lon="8.08713733750621"><ele>261.0</ele><time>2026-05-01T14:28:16Z</time></trkpt><trkpt lat="45.38966380442729" lon="8.087056934578124"><ele>261.0</ele><time>2026-05-01T14:28:17Z</time></trkpt><trkpt lat="45.38948531503479" lon="8.08694856335956"><ele>260.0</ele><time>2026-05-01T14:28:18Z</time></trkpt><trkpt lat="45.38930394177777" lon="8.086867463675977"><ele>259.0</ele><time>2026-05-01T14:28:19Z</time></trkpt><trkpt lat="45.38912078016768" lon="8.086786674520857"><ele>258.0</ele><time>2026-05-01T14:28:20Z</time></trkpt><trkpt lat="45.388935880921565" lon="8.086704865737083"><ele>257.3333333333333</ele><time>2026-05-01T14:28:21Z</time></trkpt><trkpt lat="45.388730420318026" lon="8.086613959568101"><ele>256.66666666666663</ele><time>2026-05-01T14:28:22Z</time></trkpt><trkpt lat="45.38853231410611" lon="8.08652630735254"><ele>256.0</ele><time>2026-05-01T14:28:23Z</time></trkpt><trkpt lat="45.388358328213684" lon="8.086449327192435"><ele>256.66666666666663</ele><time>2026-05-01T14:28:24Z</time></trkpt><trkpt lat="45.38818126698177" lon="8.086370986346378"><ele>257.3333333333333</ele><time>2026-05-01T14:28:25Z</time></trkpt><trkpt lat="45.38799212211803" lon="8.086287299078041"><ele>258.0</ele><time>2026-05-01T14:28:26Z</time></trkpt><trkpt lat="45.38782252691371" lon="8.086212261590154"><ele>258.0</ele><time>2026-05-01T14:28:27Z</time></trkpt><trkpt lat="45.38765607708168" lon="8.086138619323522"><ele>258.0</ele><time>2026-05-01T14:28:28Z</time></trkpt><trkpt lat="45.38746429415241" lon="8.0860771499149"><ele>258.0</ele><time>2026-05-01T14:28:29Z</time></trkpt><trkpt lat="45.38727543985284" lon="8.085993128390522"><ele>257.3333333333333</ele><time>2026-05-01T14:28:30Z</time></trkpt><trkpt lat="45.387090023617034" lon="8.085911841139152"><ele>256.66666666666663</ele><time>2026-05-01T14:28:31Z</time></trkpt><trkpt lat="45.38690335835259" lon="8.085832525479466"><ele>256.0</ele><time>2026-05-01T14:28:32Z</time></trkpt><trkpt lat="45.386720904410474" lon="8.085752939037361"><ele>256.0</ele><time>2026-05-01T14:28:33Z</time></trkpt><trkpt lat="45.38654057587835" lon="8.085673394366786"><ele>256.0</ele><time>2026-05-01T14:28:34Z</time></trkpt><trkpt lat="45.386359386626616" lon="8.085591393493273"><ele>256.0</ele><time>2026-05-01T14:28:35Z</time></trkpt><trkpt lat="45.386176182442995" lon="8.085510871492003"><ele>256.0</ele><time>2026-05-01T14:28:36Z</time></trkpt><trkpt lat="45.38599296830622" lon="8.08542953361172"><ele>256.0</ele><time>2026-05-01T14:28:37Z</time></trkpt><trkpt lat="45.38579599393282" lon="8.085343239194458"><ele>256.0</ele><time>2026-05-01T14:28:38Z</time></trkpt><trkpt lat="45.38559624621373" lon="8.085252622700851"><ele>256.66666666666663</ele><time>2026-05-01T14:28:39Z</time></trkpt><trkpt lat="45.38538156542329" lon="8.085155077411283"><ele>257.3333333333333</ele><time>2026-05-01T14:28:40Z</time></trkpt><trkpt lat="45.385172014837934" lon="8.085058975358924"><ele>258.0</ele><time>2026-05-01T14:28:41Z</time></trkpt><trkpt lat="45.38497636366924" lon="8.084971944276699"><ele>258.0</ele><time>2026-05-01T14:28:42Z</time></trkpt><trkpt lat="45.38478115516498" lon="8.0848818114103"><ele>258.0</ele><time>2026-05-01T14:28:43Z</time></trkpt><trkpt lat="45.38459512418718" lon="8.084796342538686"><ele>258.0</ele><time>2026-05-01T14:28:44Z</time></trkpt><trkpt lat="45.38441568589357" lon="8.084715056602304"><ele>258.0</ele><time>2026-05-01T14:28:45Z</time></trkpt><trkpt lat="45.384246147126035" lon="8.084628834335227"><ele>258.0</ele><time>2026-05-01T14:28:46Z</time></trkpt><trkpt lat="45.38407000374941" lon="8.084532148125563"><ele>258.0</ele><time>2026-05-01T14:28:47Z</time></trkpt><trkpt lat="45.383878626434594" lon="8.084421914721835"><ele>258.0</ele><time>2026-05-01T14:28:48Z</time></trkpt><trkpt lat="45.383673421041465" lon="8.084304984114858"><ele>258.0</ele><time>2026-05-01T14:28:49Z</time></trkpt><trkpt lat="45.38346860200482" lon="8.084188050629118"><ele>258.0</ele><time>2026-05-01T14:28:50Z</time></trkpt><trkpt lat="45.3832766475296" lon="8.084077213225369"><ele>258.0</ele><time>2026-05-01T14:28:51Z</time></trkpt><trkpt lat="45.3830943071383" lon="8.083972993775266"><ele>258.0</ele><time>2026-05-01T14:28:52Z</time></trkpt><trkpt lat="45.38291475655989" lon="8.083870235301317"><ele>258.0</ele><time>2026-05-01T14:28:53Z</time></trkpt><trkpt lat="45.382736439082834" lon="8.083766370631544"><ele>258.3333333333333</ele><time>2026-05-01T14:28:54Z</time></trkpt><trkpt lat="45.38256367421469" lon="8.08366298475394"><ele>258.66666666666663</ele><time>2026-05-01T14:28:55Z</time></trkpt><trkpt lat="45.38239237082908" lon="8.083558122261895"><ele>259.0</ele><time>2026-05-01T14:28:56Z</time></trkpt><trkpt lat="45.382213260176904" lon="8.083451012742945"><ele>259.0</ele><time>2026-05-01T14:28:57Z</time></trkpt><trkpt lat="45.38202310654499" lon="8.083340751877913"><ele>259.0</ele><time>2026-05-01T14:28:58Z</time></trkpt><trkpt lat="45.38182922206534" lon="8.083233186937223"><ele>259.0</ele><time>2026-05-01T14:28:59Z</time></trkpt><trkpt lat="45.38164658335389" lon="8.083131740356203"><ele>258.66666666666663</ele><time>2026-05-01T14:29:00Z</time></trkpt><trkpt lat="45.38146111868278" lon="8.083025696581185"><ele>258.3333333333333</ele><time>2026-05-01T14:29:01Z</time></trkpt><trkpt lat="45.381281822344114" lon="8.082919478043946"><ele>258.0</ele><time>2026-05-01T14:29:02Z</time></trkpt><trkpt lat="45.38109816520782" lon="8.082809371607272"><ele>257.3333333333333</ele><time>2026-05-01T14:29:03Z</time></trkpt><trkpt lat="45.380911425567945" lon="8.082697183062413"><ele>256.66666666666663</ele><time>2026-05-01T14:29:04Z</time></trkpt><trkpt lat="45.38072568842325" lon="8.082586614380908"><ele>256.0</ele><time>2026-05-01T14:29:05Z</time></trkpt><trkpt lat="45.380545456455785" lon="8.082481827556222"><ele>256.66666666666663</ele><time>2026-05-01T14:29:06Z</time></trkpt><trkpt lat="45.38036758453541" lon="8.08237581613187"><ele>257.3333333333333</ele><time>2026-05-01T14:29:07Z</time></trkpt><trkpt lat="45.38018856357735" lon="8.082270832370472"><ele>258.0</ele><time>2026-05-01T14:29:08Z</time></trkpt><trkpt lat="45.38000724074195" lon="8.08216620157244"><ele>258.0</ele><time>2026-05-01T14:29:09Z</time></trkpt><trkpt lat="45.37982870993758" lon="8.082061547528868"><ele>258.0</ele><time>2026-05-01T14:29:10Z</time></trkpt><trkpt lat="45.37964431627186" lon="8.081955640432199"><ele>258.0</ele><time>2026-05-01T14:29:11Z</time></trkpt><trkpt lat="45.3794561161727" lon="8.08184647077025"><ele>258.0</ele><time>2026-05-01T14:29:12Z</time></trkpt><trkpt lat="45.37926652223524" lon="8.081739180988682"><ele>258.0</ele><time>2026-05-01T14:29:13Z</time></trkpt><trkpt lat="45.37907875342291" lon="8.081634369822293"><ele>258.0</ele><time>2026-05-01T14:29:14Z</time></trkpt><trkpt lat="45.37888910773213" lon="8.081525991574239"><ele>258.0</ele><time>2026-05-01T14:29:15Z</time></trkpt><trkpt lat="45.37869246001108" lon="8.08141183288137"><ele>258.0</ele><time>2026-05-01T14:29:16Z</time></trkpt><trkpt lat="45.37848585456152" lon="8.081295365057045"><ele>258.0</ele><time>2026-05-01T14:29:17Z</time></trkpt><trkpt lat="45.378292830510595" lon="8.081182020599167"><ele>258.0</ele><time>2026-05-01T14:29:18Z</time></trkpt><trkpt lat="45.37809663600393" lon="8.081070300879224"><ele>258.0</ele><time>2026-05-01T14:29:19Z</time></trkpt><trkpt lat="45.37791479051089" lon="8.08096714239871"><ele>258.0</ele><time>2026-05-01T14:29:20Z</time></trkpt><trkpt lat="45.37773394983457" lon="8.080865445877325"><ele>258.3333333333333</ele><time>2026-05-01T14:29:21Z</time></trkpt><trkpt lat="45.37755512586731" lon="8.080763673442537"><ele>258.66666666666663</ele><time>2026-05-01T14:29:22Z</time></trkpt><trkpt lat="45.377375083089326" lon="8.080662124605483"><ele>259.0</ele><time>2026-05-01T14:29:23Z</time></trkpt><trkpt lat="45.3771873708102" lon="8.080558969302723"><ele>258.0</ele><time>2026-05-01T14:29:24Z</time></trkpt><trkpt lat="45.37699460426029" lon="8.080428106752164"><ele>257.0</ele><time>2026-05-01T14:29:25.001Z</time></trkpt><trkpt lat="45.3767850851405" lon="8.08031185109886"><ele>256.0</ele><time>2026-05-01T14:29:26.001Z</time></trkpt><trkpt lat="45.37659986161415" lon="8.080209076082845"><ele>256.0</ele><time>2026-05-01T14:29:27.001Z</time></trkpt><trkpt lat="45.3764313809094" lon="8.080115940148621"><ele>256.0</ele><time>2026-05-01T14:29:28.001Z</time></trkpt><trkpt lat="45.37627134893077" lon="8.080028025519567"><ele>256.0</ele><time>2026-05-01T14:29:29.001Z</time></trkpt><trkpt lat="45.376115733925026" lon="8.079963321736692"><ele>255.66666666666666</ele><time>2026-05-01T14:29:30.001Z</time></trkpt><trkpt lat="45.37595327737434" lon="8.079873303005321"><ele>255.33333333333331</ele><time>2026-05-01T14:29:31.001Z</time></trkpt><trkpt lat="45.375785839946275" lon="8.079781497971165"><ele>255.0</ele><time>2026-05-01T14:29:32.001Z</time></trkpt><trkpt lat="45.375623145572796" lon="8.079691483367712"><ele>255.0</ele><time>2026-05-01T14:29:33.001Z</time></trkpt><trkpt lat="45.3754657173208" lon="8.079604826644097"><ele>255.0</ele><time>2026-05-01T14:29:34.001Z</time></trkpt><trkpt lat="45.37531105830307" lon="8.079521742282703"><ele>255.0</ele><time>2026-05-01T14:29:35.001Z</time></trkpt><trkpt lat="45.37516305744135" lon="8.07944039103556"><ele>255.0</ele><time>2026-05-01T14:29:36.001Z</time></trkpt><trkpt lat="45.375018079813074" lon="8.079360325245979"><ele>255.0</ele><time>2026-05-01T14:29:37.001Z</time></trkpt><trkpt lat="45.374869104725065" lon="8.079282663185074"><ele>255.0</ele><time>2026-05-01T14:29:38.001Z</time></trkpt><trkpt lat="45.37471714558998" lon="8.079179093530533"><ele>254.33333333333331</ele><time>2026-05-01T14:29:39Z</time></trkpt><trkpt lat="45.374560015598014" lon="8.079092364818916"><ele>253.66666666666666</ele><time>2026-05-01T14:29:40Z</time></trkpt><trkpt lat="45.37440652057054" lon="8.07900764245385"><ele>253.0</ele><time>2026-05-01T14:29:41Z</time></trkpt><trkpt lat="45.37424656149558" lon="8.078917698183911"><ele>253.0</ele><time>2026-05-01T14:29:42Z</time></trkpt><trkpt lat="45.37408596374233" lon="8.078827070644104"><ele>253.0</ele><time>2026-05-01T14:29:43Z</time></trkpt><trkpt lat="45.37393480555754" lon="8.078741770012638"><ele>253.0</ele><time>2026-05-01T14:29:44Z</time></trkpt><trkpt lat="45.37378885645873" lon="8.078680316164311"><ele>253.33333333333331</ele><time>2026-05-01T14:29:45Z</time></trkpt><trkpt lat="45.37365141287765" lon="8.078599353024522"><ele>253.66666666666669</ele><time>2026-05-01T14:29:46Z</time></trkpt><trkpt lat="45.373508413085005" lon="8.078516345084067"><ele>254.0</ele><time>2026-05-01T14:29:47Z</time></trkpt><trkpt lat="45.373363268543855" lon="8.078435093432265"><ele>254.0</ele><time>2026-05-01T14:29:48Z</time></trkpt><trkpt lat="45.373219870227786" lon="8.07835359794777"><ele>254.0</ele><time>2026-05-01T14:29:49Z</time></trkpt><trkpt lat="45.37307479256914" lon="8.078269787380128"><ele>254.0</ele><time>2026-05-01T14:29:50Z</time></trkpt><trkpt lat="45.372935658089844" lon="8.078191428708125"><ele>254.0</ele><time>2026-05-01T14:29:51Z</time></trkpt><trkpt lat="45.37279890662791" lon="8.078120760791514"><ele>254.0</ele><time>2026-05-01T14:29:52Z</time></trkpt><trkpt lat="45.37266410569008" lon="8.078037405724363"><ele>254.0</ele><time>2026-05-01T14:29:53Z</time></trkpt><trkpt lat="45.37251568803228" lon="8.078017005338788"><ele>254.0</ele><time>2026-05-01T14:29:54Z</time></trkpt><trkpt lat="45.37238346749974" lon="8.077994228502678"><ele>254.0</ele><time>2026-05-01T14:29:55Z</time></trkpt><trkpt lat="45.37226446319622" lon="8.077980179748764"><ele>253.99999999999997</ele><time>2026-05-01T14:29:56Z</time></trkpt><trkpt lat="45.372171332996054" lon="8.07797082297558"><ele>253.99999999999997</ele><time>2026-05-01T14:29:57Z</time></trkpt><trkpt lat="45.37209828898645" lon="8.077957815372503"><ele>254.0</ele><time>2026-05-01T14:29:58Z</time></trkpt><trkpt lat="45.37199301526884" lon="8.07793380030357"><ele>254.0</ele><time>2026-05-01T14:30:00Z</time></trkpt><trkpt lat="45.37190815341777" lon="8.077895903161746"><ele>253.79999999999998</ele><time>2026-05-01T14:30:02Z</time></trkpt><trkpt lat="45.37179147265212" lon="8.077852691691657"><ele>253.59999999999997</ele><time>2026-05-01T14:30:04Z</time></trkpt><trkpt lat="45.37169241370435" lon="8.077944114120761"><ele>253.4</ele><time>2026-05-01T14:30:06Z</time></trkpt><trkpt lat="45.3716490100364" lon="8.078040812741719"><ele>253.2</ele><time>2026-05-01T14:30:07Z</time></trkpt><trkpt lat="45.371587341820316" lon="8.078147738340196"><ele>253.0</ele><time>2026-05-01T14:30:08Z</time></trkpt><trkpt lat="45.37150289508804" lon="8.078228035773833"><ele>252.8</ele><time>2026-05-01T14:30:09Z</time></trkpt><trkpt lat="45.37140438596809" lon="8.078289743505842"><ele>252.60000000000002</ele><time>2026-05-01T14:30:10Z</time></trkpt><trkpt lat="45.371313180332834" lon="8.0783465048284"><ele>252.39999999999998</ele><time>2026-05-01T14:30:11Z</time></trkpt><trkpt lat="45.371232199876445" lon="8.078414162117637"><ele>252.2</ele><time>2026-05-01T14:30:12Z</time></trkpt><trkpt lat="45.371142631115326" lon="8.078493618996989"><ele>252.0</ele><time>2026-05-01T14:30:13Z</time></trkpt><trkpt lat="45.371052868873164" lon="8.078568945400407"><ele>251.75</ele><time>2026-05-01T14:30:14Z</time></trkpt><trkpt lat="45.370962283232586" lon="8.078645618409908"><ele>251.5</ele><time>2026-05-01T14:30:15Z</time></trkpt><trkpt lat="45.37086712766482" lon="8.078722316178583"><ele>251.25</ele><time>2026-05-01T14:30:16Z</time></trkpt><trkpt lat="45.370768016844934" lon="8.078801268393645"><ele>251.0</ele><time>2026-05-01T14:30:17Z</time></trkpt><trkpt lat="45.370657682140376" lon="8.078890393468003"><ele>251.0</ele><time>2026-05-01T14:30:18Z</time></trkpt><trkpt lat="45.37054362959833" lon="8.078983281549107"><ele>251.0</ele><time>2026-05-01T14:30:19Z</time></trkpt><trkpt lat="45.37042614359283" lon="8.079079742414072"><ele>251.0</ele><time>2026-05-01T14:30:20Z</time></trkpt><trkpt lat="45.37030934882032" lon="8.079178004503817"><ele>251.0</ele><time>2026-05-01T14:30:21Z</time></trkpt><trkpt lat="45.370193012846876" lon="8.079277059451446"><ele>250.5</ele><time>2026-05-01T14:30:22Z</time></trkpt><trkpt lat="45.370074173722806" lon="8.079374758557979"><ele>250.0</ele><time>2026-05-01T14:30:23Z</time></trkpt><trkpt lat="45.36994935679634" lon="8.07947863134005"><ele>249.5</ele><time>2026-05-01T14:30:24Z</time></trkpt><trkpt lat="45.36982764952509" lon="8.079591727958912"><ele>249.0</ele><time>2026-05-01T14:30:25Z</time></trkpt><trkpt lat="45.369712170187405" lon="8.079709133259241"><ele>248.5</ele><time>2026-05-01T14:30:26Z</time></trkpt><trkpt lat="45.36960531409641" lon="8.079824456168563"><ele>248.0</ele><time>2026-05-01T14:30:27Z</time></trkpt><trkpt lat="45.3694972281627" lon="8.079949755165828"><ele>247.5</ele><time>2026-05-01T14:30:28Z</time></trkpt><trkpt lat="45.3693774310376" lon="8.080099701666466"><ele>247.0</ele><time>2026-05-01T14:30:29Z</time></trkpt><trkpt lat="45.3692366611532" lon="8.080273744981966"><ele>247.0</ele><time>2026-05-01T14:30:30Z</time></trkpt><trkpt lat="45.369105426493746" lon="8.080431266522092"><ele>247.0</ele><time>2026-05-01T14:30:31Z</time></trkpt><trkpt lat="45.36899042158709" lon="8.080573046213093"><ele>247.0</ele><time>2026-05-01T14:30:32Z</time></trkpt><trkpt lat="45.36887770944591" lon="8.080712321936044"><ele>245.66666666666666</ele><time>2026-05-01T14:30:33Z</time></trkpt><trkpt lat="45.368763523328965" lon="8.080853986527666"><ele>244.33333333333331</ele><time>2026-05-01T14:30:34Z</time></trkpt><trkpt lat="45.368642978457444" lon="8.081004879010187"><ele>243.0</ele><time>2026-05-01T14:30:35Z</time></trkpt><trkpt lat="45.36851188119484" lon="8.081169484339268"><ele>243.0</ele><time>2026-05-01T14:30:36Z</time></trkpt><trkpt lat="45.3683862332256" lon="8.081321816831183"><ele>243.0</ele><time>2026-05-01T14:30:37Z</time></trkpt><trkpt lat="45.368263701702915" lon="8.081469663154731"><ele>243.0</ele><time>2026-05-01T14:30:38Z</time></trkpt><trkpt lat="45.368132618431275" lon="8.081629887357556"><ele>243.0</ele><time>2026-05-01T14:30:39Z</time></trkpt><trkpt lat="45.36799981168212" lon="8.081799394128831"><ele>243.0</ele><time>2026-05-01T14:30:40Z</time></trkpt><trkpt lat="45.36787894310386" lon="8.081952272919798"><ele>243.0</ele><time>2026-05-01T14:30:41Z</time></trkpt><trkpt lat="45.36776017419835" lon="8.08209825344993"><ele>243.0</ele><time>2026-05-01T14:30:42Z</time></trkpt><trkpt lat="45.367638888517924" lon="8.082243377874331"><ele>243.0</ele><time>2026-05-01T14:30:43Z</time></trkpt><trkpt lat="45.36752738884035" lon="8.082379675260567"><ele>243.0</ele><time>2026-05-01T14:30:44Z</time></trkpt><trkpt lat="45.367414337579646" lon="8.082511358169564"><ele>242.33333333333331</ele><time>2026-05-01T14:30:45Z</time></trkpt><trkpt lat="45.367287265513646" lon="8.082645306438975"><ele>241.66666666666666</ele><time>2026-05-01T14:30:46Z</time></trkpt><trkpt lat="45.36714977999943" lon="8.08276808913055"><ele>241.0</ele><time>2026-05-01T14:30:47Z</time></trkpt><trkpt lat="45.36700922466179" lon="8.08286947529643"><ele>241.0</ele><time>2026-05-01T14:30:48Z</time></trkpt><trkpt lat="45.366864724265824" lon="8.082953200082619"><ele>241.0</ele><time>2026-05-01T14:30:49Z</time></trkpt><trkpt lat="45.36672378438144" lon="8.083015382564593"><ele>241.0</ele><time>2026-05-01T14:30:50Z</time></trkpt><trkpt lat="45.36658135954454" lon="8.083067232133791"><ele>241.0</ele><time>2026-05-01T14:30:51Z</time></trkpt><trkpt lat="45.366449450049366" lon="8.0831093617432"><ele>241.0</ele><time>2026-05-01T14:30:52Z</time></trkpt><trkpt lat="45.366329480099125" lon="8.083144347255159"><ele>241.0</ele><time>2026-05-01T14:30:53Z</time></trkpt><trkpt lat="45.366213335355816" lon="8.083170513523584"><ele>241.0</ele><time>2026-05-01T14:30:54Z</time></trkpt><trkpt lat="45.36610371188423" lon="8.083185424074932"><ele>241.16666666666666</ele><time>2026-05-01T14:30:55Z</time></trkpt><trkpt lat="45.36600325035604" lon="8.083193492722986"><ele>241.33333333333331</ele><time>2026-05-01T14:30:56Z</time></trkpt><trkpt lat="45.36591542350193" lon="8.08319434760062"><ele>241.5</ele><time>2026-05-01T14:30:57Z</time></trkpt><trkpt lat="45.365835872324965" lon="8.083182995505531"><ele>241.66666666666669</ele><time>2026-05-01T14:30:58Z</time></trkpt><trkpt lat="45.365772681007485" lon="8.083167870797956"><ele>241.83333333333334</ele><time>2026-05-01T14:30:59Z</time></trkpt><trkpt lat="45.36568788249693" lon="8.083142127520182"><ele>242.0</ele><time>2026-05-01T14:31:01Z</time></trkpt><trkpt lat="45.365620574476914" lon="8.083095060134411"><ele>242.0</ele><time>2026-05-01T14:31:03Z</time></trkpt><trkpt lat="45.365532529512095" lon="8.08300047221312"><ele>242.0</ele><time>2026-05-01T14:31:05Z</time></trkpt><trkpt lat="45.365471904952045" lon="8.082959804213969"><ele>242.0</ele><time>2026-05-01T14:31:06Z</time></trkpt><trkpt lat="45.365356319126604" lon="8.082951231600415"><ele>242.0</ele><time>2026-05-01T14:31:08Z</time></trkpt><trkpt lat="45.36523090507987" lon="8.082981937046798"><ele>242.0</ele><time>2026-05-01T14:31:10Z</time></trkpt><trkpt lat="45.36515706404871" lon="8.082979771217815"><ele>241.6</ele><time>2026-05-01T14:31:11Z</time></trkpt><trkpt lat="45.36507954357713" lon="8.082950772424565"><ele>241.2</ele><time>2026-05-01T14:31:12Z</time></trkpt><trkpt lat="45.36498873473446" lon="8.082890835661008"><ele>240.8</ele><time>2026-05-01T14:31:13Z</time></trkpt><trkpt lat="45.36488410520997" lon="8.08281247909934"><ele>240.4</ele><time>2026-05-01T14:31:14Z</time></trkpt><trkpt lat="45.36478470238908" lon="8.082729515569001"><ele>240.0</ele><time>2026-05-01T14:31:15Z</time></trkpt><trkpt lat="45.36469823465668" lon="8.082650078170783"><ele>239.75</ele><time>2026-05-01T14:31:16Z</time></trkpt><trkpt lat="45.364601101268484" lon="8.082543877855517"><ele>239.5</ele><time>2026-05-01T14:31:17Z</time></trkpt><trkpt lat="45.36450178330274" lon="8.082423150209793"><ele>239.25</ele><time>2026-05-01T14:31:18Z</time></trkpt><trkpt lat="45.364413563435136" lon="8.08230717837665"><ele>239.0</ele><time>2026-05-01T14:31:19Z</time></trkpt><trkpt lat="45.36432595337187" lon="8.082187320975782"><ele>239.5</ele><time>2026-05-01T14:31:20Z</time></trkpt><trkpt lat="45.36423350728239" lon="8.082059397978922"><ele>240.0</ele><time>2026-05-01T14:31:21Z</time></trkpt><trkpt lat="45.364135763049696" lon="8.081926592691325"><ele>240.5</ele><time>2026-05-01T14:31:22Z</time></trkpt><trkpt lat="45.36403427715125" lon="8.08179113887685"><ele>241.0</ele><time>2026-05-01T14:31:23Z</time></trkpt><trkpt lat="45.36392602040642" lon="8.081650980889515"><ele>240.25</ele><time>2026-05-01T14:31:24Z</time></trkpt><trkpt lat="45.36381823610371" lon="8.081508435887843"><ele>239.5</ele><time>2026-05-01T14:31:25Z</time></trkpt><trkpt lat="45.36371784077867" lon="8.081372379893262"><ele>238.75</ele><time>2026-05-01T14:31:26Z</time></trkpt><trkpt lat="45.36361405982997" lon="8.08122955353672"><ele>238.0</ele><time>2026-05-01T14:31:27Z</time></trkpt><trkpt lat="45.36350558978519" lon="8.081082907540246"><ele>238.0</ele><time>2026-05-01T14:31:28Z</time></trkpt><trkpt lat="45.36338423747158" lon="8.080921855373676"><ele>238.0</ele><time>2026-05-01T14:31:29Z</time></trkpt><trkpt lat="45.36325095007547" lon="8.080748143428085"><ele>238.0</ele><time>2026-05-01T14:31:30Z</time></trkpt><trkpt lat="45.36311723043737" lon="8.080568556348041"><ele>238.33333333333331</ele><time>2026-05-01T14:31:31Z</time></trkpt><trkpt lat="45.36299080549889" lon="8.08039960046075"><ele>238.66666666666669</ele><time>2026-05-01T14:31:32Z</time></trkpt><trkpt lat="45.362870672115776" lon="8.080241816795205"><ele>239.0</ele><time>2026-05-01T14:31:33Z</time></trkpt><trkpt lat="45.362752862797166" lon="8.080081433260757"><ele>239.66666666666669</ele><time>2026-05-01T14:31:34Z</time></trkpt><trkpt lat="45.36262821903276" lon="8.079916811654618"><ele>240.33333333333331</ele><time>2026-05-01T14:31:35Z</time></trkpt><trkpt lat="45.362490862112715" lon="8.079740782210163"><ele>241.0</ele><time>2026-05-01T14:31:36Z</time></trkpt><trkpt lat="45.36236428681847" lon="8.079578580937602"><ele>241.0</ele><time>2026-05-01T14:31:37Z</time></trkpt><trkpt lat="45.362260567886096" lon="8.0794378347236"><ele>241.0</ele><time>2026-05-01T14:31:38Z</time></trkpt><trkpt lat="45.3621653667496" lon="8.079312119059974"><ele>241.0</ele><time>2026-05-01T14:31:39Z</time></trkpt><trkpt lat="45.36207248097711" lon="8.079189186337803"><ele>241.0</ele><time>2026-05-01T14:31:40Z</time></trkpt><trkpt lat="45.36197532980221" lon="8.0790505017042"><ele>240.5</ele><time>2026-05-01T14:31:41Z</time></trkpt><trkpt lat="45.36187373951195" lon="8.078893093440906"><ele>240.0</ele><time>2026-05-01T14:31:42Z</time></trkpt><trkpt lat="45.361780748818035" lon="8.078728083236483"><ele>239.5</ele><time>2026-05-01T14:31:43Z</time></trkpt><trkpt lat="45.36170310927826" lon="8.078565614780095"><ele>239.0</ele><time>2026-05-01T14:31:44Z</time></trkpt><trkpt lat="45.36163168352928" lon="8.078397803017747"><ele>239.0</ele><time>2026-05-01T14:31:45Z</time></trkpt><trkpt lat="45.36156874219861" lon="8.078224751935467"><ele>239.0</ele><time>2026-05-01T14:31:46Z</time></trkpt><trkpt lat="45.361517883688066" lon="8.078056724219872"><ele>239.0</ele><time>2026-05-01T14:31:47Z</time></trkpt><trkpt lat="45.361471968164174" lon="8.077894735219587"><ele>239.0</ele><time>2026-05-01T14:31:48Z</time></trkpt><trkpt lat="45.361431843072715" lon="8.07772067300453"><ele>239.0</ele><time>2026-05-01T14:31:49Z</time></trkpt><trkpt lat="45.36139701587344" lon="8.077539057715637"><ele>239.0</ele><time>2026-05-01T14:31:50Z</time></trkpt><trkpt lat="45.36137376827555" lon="8.077359124149465"><ele>239.0</ele><time>2026-05-01T14:31:51Z</time></trkpt><trkpt lat="45.361360421177494" lon="8.077174428743419"><ele>239.0</ele><time>2026-05-01T14:31:52Z</time></trkpt><trkpt lat="45.36135294379858" lon="8.07698079657917"><ele>239.25</ele><time>2026-05-01T14:31:53Z</time></trkpt><trkpt lat="45.36135192940537" lon="8.07677356362174"><ele>239.5</ele><time>2026-05-01T14:31:54Z</time></trkpt><trkpt lat="45.361353804727436" lon="8.076579187345068"><ele>239.75</ele><time>2026-05-01T14:31:55Z</time></trkpt><trkpt lat="45.36135877357073" lon="8.076393361650439"><ele>240.0</ele><time>2026-05-01T14:31:56Z</time></trkpt><trkpt lat="45.36136328003923" lon="8.076207677648155"><ele>240.25</ele><time>2026-05-01T14:31:57Z</time></trkpt><trkpt lat="45.36136723307793" lon="8.076031878294277"><ele>240.5</ele><time>2026-05-01T14:31:58Z</time></trkpt><trkpt lat="45.361372201678854" lon="8.07585663059198"><ele>240.75</ele><time>2026-05-01T14:31:59Z</time></trkpt><trkpt lat="45.36137566644192" lon="8.075684022478704"><ele>241.0</ele><time>2026-05-01T14:32:00Z</time></trkpt><trkpt lat="45.36137872370613" lon="8.075510856935532"><ele>241.5</ele><time>2026-05-01T14:32:01Z</time></trkpt><trkpt lat="45.36138347823675" lon="8.07533987129509"><ele>242.0</ele><time>2026-05-01T14:32:02Z</time></trkpt><trkpt lat="45.36138836739485" lon="8.075162911324153"><ele>242.5</ele><time>2026-05-01T14:32:03Z</time></trkpt><trkpt lat="45.361391508339786" lon="8.074981969114045"><ele>243.0</ele><time>2026-05-01T14:32:04Z</time></trkpt><trkpt lat="45.36139612712393" lon="8.07477682979569"><ele>243.33333333333331</ele><time>2026-05-01T14:32:05Z</time></trkpt><trkpt lat="45.36140062189942" lon="8.074536494594085"><ele>243.66666666666666</ele><time>2026-05-01T14:32:06Z</time></trkpt><trkpt lat="45.36140481775426" lon="8.074315241429565"><ele>244.0</ele><time>2026-05-01T14:32:07Z</time></trkpt><trkpt lat="45.361409403002895" lon="8.074106293153504"><ele>243.75</ele><time>2026-05-01T14:32:08Z</time></trkpt><trkpt lat="45.36141294667125" lon="8.073906250371493"><ele>243.5</ele><time>2026-05-01T14:32:09Z</time></trkpt><trkpt lat="45.36141782489752" lon="8.073699280679463"><ele>243.25</ele><time>2026-05-01T14:32:10Z</time></trkpt><trkpt lat="45.36142338339479" lon="8.073481813797843"><ele>243.0</ele><time>2026-05-01T14:32:11Z</time></trkpt><trkpt lat="45.36142967534056" lon="8.073258065209727"><ele>242.66666666666669</ele><time>2026-05-01T14:32:12Z</time></trkpt><trkpt lat="45.36143512736793" lon="8.073040696428283"><ele>242.33333333333334</ele><time>2026-05-01T14:32:13Z</time></trkpt><trkpt lat="45.361440087242165" lon="8.072824811509916"><ele>242.0</ele><time>2026-05-01T14:32:14Z</time></trkpt><trkpt lat="45.361443262130464" lon="8.072612446288597"><ele>243.33333333333334</ele><time>2026-05-01T14:32:15Z</time></trkpt><trkpt lat="45.361447614668386" lon="8.07239440203566"><ele>244.66666666666669</ele><time>2026-05-01T14:32:16Z</time></trkpt><trkpt lat="45.361450420708394" lon="8.072179453235101"><ele>246.0</ele><time>2026-05-01T14:32:17Z</time></trkpt><trkpt lat="45.3614539834459" lon="8.071965138225716"><ele>246.0</ele><time>2026-05-01T14:32:18Z</time></trkpt><trkpt lat="45.361458573411284" lon="8.071746283668533"><ele>246.0</ele><time>2026-05-01T14:32:19Z</time></trkpt><trkpt lat="45.361464061189054" lon="8.071530205820329"><ele>246.0</ele><time>2026-05-01T14:32:20Z</time></trkpt><trkpt lat="45.361468563383674" lon="8.071309691686862"><ele>246.0</ele><time>2026-05-01T14:32:21Z</time></trkpt><trkpt lat="45.36147335423745" lon="8.071090411829069"><ele>246.0</ele><time>2026-05-01T14:32:22Z</time></trkpt><trkpt lat="45.36147825721751" lon="8.070876719626114"><ele>246.0</ele><time>2026-05-01T14:32:23Z</time></trkpt><trkpt lat="45.36148396137824" lon="8.070669949593785"><ele>246.0</ele><time>2026-05-01T14:32:24Z</time></trkpt><trkpt lat="45.36148190361771" lon="8.070457695547127"><ele>246.0</ele><time>2026-05-01T14:32:25Z</time></trkpt><trkpt lat="45.36147262923033" lon="8.07025091198216"><ele>246.0</ele><time>2026-05-01T14:32:26Z</time></trkpt><trkpt lat="45.36145717336368" lon="8.070053487792885"><ele>246.0</ele><time>2026-05-01T14:32:27Z</time></trkpt><trkpt lat="45.36143407305849" lon="8.069863692648884"><ele>246.5</ele><time>2026-05-01T14:32:28Z</time></trkpt><trkpt lat="45.36140292041216" lon="8.069677693804472"><ele>247.0</ele><time>2026-05-01T14:32:29Z</time></trkpt><trkpt lat="45.36136685763435" lon="8.069485333762922"><ele>247.5</ele><time>2026-05-01T14:32:30Z</time></trkpt><trkpt lat="45.36132205878708" lon="8.069302476269968"><ele>248.0</ele><time>2026-05-01T14:32:31Z</time></trkpt><trkpt lat="45.36126584709642" lon="8.069123473970945"><ele>247.0</ele><time>2026-05-01T14:32:32Z</time></trkpt><trkpt lat="45.36119833094763" lon="8.06894350543203"><ele>246.0</ele><time>2026-05-01T14:32:33Z</time></trkpt><trkpt lat="45.36111925331707" lon="8.068761467361236"><ele>245.0</ele><time>2026-05-01T14:32:34Z</time></trkpt><trkpt lat="45.361027506829465" lon="8.068572829869682"><ele>245.0</ele><time>2026-05-01T14:32:35Z</time></trkpt><trkpt lat="45.360932795891785" lon="8.068393995529352"><ele>245.0</ele><time>2026-05-01T14:32:36Z</time></trkpt><trkpt lat="45.36083182071064" lon="8.068223959036768"><ele>245.0</ele><time>2026-05-01T14:32:37Z</time></trkpt><trkpt lat="45.36073241055339" lon="8.068053802200197"><ele>245.33333333333334</ele><time>2026-05-01T14:32:38Z</time></trkpt><trkpt lat="45.36063489941453" lon="8.067881446537747"><ele>245.66666666666669</ele><time>2026-05-01T14:32:39Z</time></trkpt><trkpt lat="45.36053159093421" lon="8.067700445581295"><ele>246.0</ele><time>2026-05-01T14:32:40Z</time></trkpt><trkpt lat="45.36042311154073" lon="8.067511088135943"><ele>245.33333333333331</ele><time>2026-05-01T14:32:41Z</time></trkpt><trkpt lat="45.36032397481804" lon="8.067337725097767"><ele>244.66666666666666</ele><time>2026-05-01T14:32:42Z</time></trkpt><trkpt lat="45.36022589309727" lon="8.067164641460785"><ele>244.0</ele><time>2026-05-01T14:32:43Z</time></trkpt><trkpt lat="45.36013016225112" lon="8.066995227525313"><ele>244.0</ele><time>2026-05-01T14:32:44Z</time></trkpt><trkpt lat="45.36003428859542" lon="8.066822275350564"><ele>244.0</ele><time>2026-05-01T14:32:45Z</time></trkpt><trkpt lat="45.35993527672737" lon="8.066648110414102"><ele>244.0</ele><time>2026-05-01T14:32:46Z</time></trkpt><trkpt lat="45.35982343335881" lon="8.06645516988894"><ele>244.0</ele><time>2026-05-01T14:32:47Z</time></trkpt><trkpt lat="45.359706010084054" lon="8.06624988844116"><ele>244.0</ele><time>2026-05-01T14:32:48Z</time></trkpt><trkpt lat="45.359593269814845" lon="8.066052138642522"><ele>244.0</ele><time>2026-05-01T14:32:49Z</time></trkpt><trkpt lat="45.359489122675996" lon="8.065865920416826"><ele>244.33333333333331</ele><time>2026-05-01T14:32:50Z</time></trkpt><trkpt lat="45.35938336803854" lon="8.065679977180002"><ele>244.66666666666669</ele><time>2026-05-01T14:32:51Z</time></trkpt><trkpt lat="45.359276897291934" lon="8.065489210035416"><ele>245.0</ele><time>2026-05-01T14:32:52Z</time></trkpt><trkpt lat="45.35916761165997" lon="8.065292462879173"><ele>245.0</ele><time>2026-05-01T14:32:53Z</time></trkpt><trkpt lat="45.35906272483391" lon="8.06510300408724"><ele>245.0</ele><time>2026-05-01T14:32:54Z</time></trkpt><trkpt lat="45.35896192549623" lon="8.064926680776253"><ele>245.0</ele><time>2026-05-01T14:32:55Z</time></trkpt><trkpt lat="45.35886541268829" lon="8.064765839752559"><ele>245.0</ele><time>2026-05-01T14:32:56Z</time></trkpt><trkpt lat="45.35876761441947" lon="8.064598881120022"><ele>245.0</ele><time>2026-05-01T14:32:57Z</time></trkpt><trkpt lat="45.35867195915559" lon="8.064427437832837"><ele>245.0</ele><time>2026-05-01T14:32:58Z</time></trkpt><trkpt lat="45.35857940848961" lon="8.064264673460265"><ele>245.0</ele><time>2026-05-01T14:32:59Z</time></trkpt><trkpt lat="45.35848282840314" lon="8.06409180882461"><ele>245.0</ele><time>2026-05-01T14:33:00Z</time></trkpt><trkpt lat="45.35838993150506" lon="8.063932838530597"><ele>245.0</ele><time>2026-05-01T14:33:01Z</time></trkpt><trkpt lat="45.35830482627864" lon="8.063779694013993"><ele>245.0</ele><time>2026-05-01T14:33:02Z</time></trkpt><trkpt lat="45.35822763502737" lon="8.063636995309562"><ele>245.0</ele><time>2026-05-01T14:33:03Z</time></trkpt><trkpt lat="45.35814405553973" lon="8.06348514397036"><ele>245.0</ele><time>2026-05-01T14:33:04Z</time></trkpt><trkpt lat="45.3580519197844" lon="8.063327326196871"><ele>245.0</ele><time>2026-05-01T14:33:05Z</time></trkpt><trkpt lat="45.35796040107591" lon="8.063166388889178"><ele>245.0</ele><time>2026-05-01T14:33:06Z</time></trkpt><trkpt lat="45.35787530106089" lon="8.063012603681967"><ele>245.0</ele><time>2026-05-01T14:33:07Z</time></trkpt><trkpt lat="45.357790247317816" lon="8.06286172841899"><ele>245.0</ele><time>2026-05-01T14:33:08Z</time></trkpt><trkpt lat="45.35770873070189" lon="8.062716860478789"><ele>245.0</ele><time>2026-05-01T14:33:09Z</time></trkpt><trkpt lat="45.357619470742684" lon="8.062559461558786"><ele>245.0</ele><time>2026-05-01T14:33:10Z</time></trkpt><trkpt lat="45.35752944626048" lon="8.06240218055028"><ele>245.0</ele><time>2026-05-01T14:33:11Z</time></trkpt><trkpt lat="45.357437829774895" lon="8.062241525100648"><ele>245.0</ele><time>2026-05-01T14:33:12Z</time></trkpt><trkpt lat="45.35734898943904" lon="8.062084059035982"><ele>245.0</ele><time>2026-05-01T14:33:13Z</time></trkpt><trkpt lat="45.3572604755969" lon="8.061928507810276"><ele>245.0</ele><time>2026-05-01T14:33:14Z</time></trkpt><trkpt lat="45.357172604317064" lon="8.061775355168484"><ele>244.75</ele><time>2026-05-01T14:33:14.999Z</time></trkpt><trkpt lat="45.35708429824568" lon="8.061624818749458"><ele>244.5</ele><time>2026-05-01T14:33:15.999Z</time></trkpt><trkpt lat="45.35700509980104" lon="8.061486623910705"><ele>244.25</ele><time>2026-05-01T14:33:16.999Z</time></trkpt><trkpt lat="45.356931177421735" lon="8.061354374977244"><ele>244.0</ele><time>2026-05-01T14:33:17.999Z</time></trkpt><trkpt lat="45.35686903240381" lon="8.06123970619768"><ele>243.99999999999997</ele><time>2026-05-01T14:33:18.999Z</time></trkpt><trkpt lat="45.35682321501141" lon="8.061154991440612"><ele>244.0</ele><time>2026-05-01T14:33:19.999Z</time></trkpt><trkpt lat="45.356780248294825" lon="8.0610791818891"><ele>244.0</ele><time>2026-05-01T14:33:20.999Z</time></trkpt><trkpt lat="45.35673700999085" lon="8.061009611585565"><ele>244.0</ele><time>2026-05-01T14:33:21.999Z</time></trkpt><trkpt lat="45.35669851814299" lon="8.06093836977646"><ele>243.99999999999997</ele><time>2026-05-01T14:33:22.999Z</time></trkpt><trkpt lat="45.35661698378999" lon="8.060788047591226"><ele>244.0</ele><time>2026-05-01T14:33:24.999Z</time></trkpt><trkpt lat="45.356569097069155" lon="8.060699236933843"><ele>244.0</ele><time>2026-05-01T14:33:25.999Z</time></trkpt><trkpt lat="45.356513586437536" lon="8.060602362440036"><ele>243.99999999999997</ele><time>2026-05-01T14:33:26.999Z</time></trkpt><trkpt lat="45.35645429752631" lon="8.060496881346635"><ele>243.99999999999997</ele><time>2026-05-01T14:33:27.999Z</time></trkpt><trkpt lat="45.35638598917075" lon="8.060374085421037"><ele>244.0</ele><time>2026-05-01T14:33:28.999Z</time></trkpt><trkpt lat="45.35631265566668" lon="8.060240242441987"><ele>244.0</ele><time>2026-05-01T14:33:29.999Z</time></trkpt><trkpt lat="45.35623841842808" lon="8.060109424449156"><ele>244.2</ele><time>2026-05-01T14:33:30.999Z</time></trkpt><trkpt lat="45.35616625084758" lon="8.05998675582288"><ele>244.39999999999998</ele><time>2026-05-01T14:33:31.999Z</time></trkpt><trkpt lat="45.356098951473285" lon="8.059869322439479"><ele>244.6</ele><time>2026-05-01T14:33:32.999Z</time></trkpt><trkpt lat="45.356031809652265" lon="8.059749374784484"><ele>244.8</ele><time>2026-05-01T14:33:33.999Z</time></trkpt><trkpt lat="45.35596389753455" lon="8.05962725930313"><ele>245.0</ele><time>2026-05-01T14:33:34.999Z</time></trkpt><trkpt lat="45.35589689088076" lon="8.059508395301881"><ele>244.83333333333334</ele><time>2026-05-01T14:33:35.999Z</time></trkpt><trkpt lat="45.35583052878075" lon="8.059393590009009"><ele>244.66666666666669</ele><time>2026-05-01T14:33:37Z</time></trkpt><trkpt lat="45.35577368128966" lon="8.05929661331645"><ele>244.5</ele><time>2026-05-01T14:33:38Z</time></trkpt><trkpt lat="45.355733251748056" lon="8.059223291184606"><ele>244.33333333333331</ele><time>2026-05-01T14:33:39Z</time></trkpt><trkpt lat="45.35568247454695" lon="8.059136018603002"><ele>244.16666666666666</ele><time>2026-05-01T14:33:41Z</time></trkpt><trkpt lat="45.35561624246389" lon="8.059024800291292"><ele>244.0</ele><time>2026-05-01T14:33:43Z</time></trkpt><trkpt lat="45.355572369882715" lon="8.058951090945104"><ele>244.2</ele><time>2026-05-01T14:33:44Z</time></trkpt><trkpt lat="45.355515173571646" lon="8.05885096921099"><ele>244.39999999999998</ele><time>2026-05-01T14:33:45Z</time></trkpt><trkpt lat="45.35544776608861" lon="8.058725399452015"><ele>244.6</ele><time>2026-05-01T14:33:46Z</time></trkpt><trkpt lat="45.355379480120675" lon="8.058606010606596"><ele>244.8</ele><time>2026-05-01T14:33:47Z</time></trkpt><trkpt lat="45.3553108833727" lon="8.058495088739456"><ele>245.0</ele><time>2026-05-01T14:33:48Z</time></trkpt><trkpt lat="45.35524220072457" lon="8.058383242696614"><ele>245.25</ele><time>2026-05-01T14:33:49Z</time></trkpt><trkpt lat="45.355170325967975" lon="8.058274385178683"><ele>245.5</ele><time>2026-05-01T14:33:50Z</time></trkpt><trkpt lat="45.35508909003349" lon="8.058177056153605"><ele>245.75</ele><time>2026-05-01T14:33:51Z</time></trkpt><trkpt lat="45.35499362966844" lon="8.05808334352849"><ele>246.0</ele><time>2026-05-01T14:33:52Z</time></trkpt><trkpt lat="45.354879012661634" lon="8.057983746882906"><ele>246.0</ele><time>2026-05-01T14:33:53Z</time></trkpt><trkpt lat="45.35475958840002" lon="8.057888497955751"><ele>246.0</ele><time>2026-05-01T14:33:54Z</time></trkpt><trkpt lat="45.3546533358351" lon="8.057813650845075"><ele>246.0</ele><time>2026-05-01T14:33:55Z</time></trkpt><trkpt lat="45.35454675388424" lon="8.057740600232886"><ele>246.0</ele><time>2026-05-01T14:33:56Z</time></trkpt><trkpt lat="45.354440355308334" lon="8.057664940744944"><ele>246.0</ele><time>2026-05-01T14:33:57Z</time></trkpt><trkpt lat="45.35434002672809" lon="8.057589598562203"><ele>246.00000000000003</ele><time>2026-05-01T14:33:58Z</time></trkpt><trkpt lat="45.35425071247671" lon="8.057523420022964"><ele>246.00000000000003</ele><time>2026-05-01T14:33:59Z</time></trkpt><trkpt lat="45.354166119902544" lon="8.057462716027986"><ele>246.0</ele><time>2026-05-01T14:34:00Z</time></trkpt><trkpt lat="45.3540781063025" lon="8.057401211438087"><ele>246.0</ele><time>2026-05-01T14:34:01Z</time></trkpt><trkpt lat="45.353999275560874" lon="8.057343284719837"><ele>246.00000000000003</ele><time>2026-05-01T14:34:02Z</time></trkpt><trkpt lat="45.35392493475692" lon="8.05728991684466"><ele>246.0</ele><time>2026-05-01T14:34:03Z</time></trkpt><trkpt lat="45.35386406127339" lon="8.057242680777046"><ele>246.00000000000003</ele><time>2026-05-01T14:34:04Z</time></trkpt><trkpt lat="45.35380748279606" lon="8.057195922948088"><ele>246.00000000000003</ele><time>2026-05-01T14:34:05Z</time></trkpt><trkpt lat="45.353747889388806" lon="8.057151160420782"><ele>246.0</ele><time>2026-05-01T14:34:06Z</time></trkpt><trkpt lat="45.35369036200044" lon="8.057108144967629"><ele>246.00000000000003</ele><time>2026-05-01T14:34:07Z</time></trkpt><trkpt lat="45.353629923942485" lon="8.057068463914476"><ele>246.00000000000003</ele><time>2026-05-01T14:34:08Z</time></trkpt><trkpt lat="45.35356428436665" lon="8.057021474268492"><ele>246.0</ele><time>2026-05-01T14:34:09Z</time></trkpt><trkpt lat="45.35350450592572" lon="8.056979015982384"><ele>246.0</ele><time>2026-05-01T14:34:10Z</time></trkpt><trkpt lat="45.3534379563563" lon="8.05692844954413"><ele>246.0</ele><time>2026-05-01T14:34:11Z</time></trkpt><trkpt lat="45.35334910205822" lon="8.056861353506449"><ele>246.0</ele><time>2026-05-01T14:34:12Z</time></trkpt><trkpt lat="45.35327025047108" lon="8.05680440315569"><ele>246.0</ele><time>2026-05-01T14:34:13Z</time></trkpt><trkpt lat="45.353200675429036" lon="8.056756938621074"><ele>246.0</ele><time>2026-05-01T14:34:14Z</time></trkpt><trkpt lat="45.353124023092796" lon="8.056701816771302"><ele>245.60000000000002</ele><time>2026-05-01T14:34:15Z</time></trkpt><trkpt lat="45.353035692673934" lon="8.056637683289278"><ele>245.20000000000002</ele><time>2026-05-01T14:34:16Z</time></trkpt><trkpt lat="45.352941577175635" lon="8.056570090961106"><ele>244.79999999999998</ele><time>2026-05-01T14:34:17Z</time></trkpt><trkpt lat="45.352848544609934" lon="8.056503781609784"><ele>244.39999999999998</ele><time>2026-05-01T14:34:18Z</time></trkpt><trkpt lat="45.35275340019079" lon="8.056433553180879"><ele>244.0</ele><time>2026-05-01T14:34:19Z</time></trkpt><trkpt lat="45.35264946841622" lon="8.056355972595405"><ele>244.0</ele><time>2026-05-01T14:34:20Z</time></trkpt><trkpt lat="45.3525510401046" lon="8.05628519697323"><ele>244.0</ele><time>2026-05-01T14:34:21Z</time></trkpt><trkpt lat="45.35245632433997" lon="8.056216569375358"><ele>244.0</ele><time>2026-05-01T14:34:22Z</time></trkpt><trkpt lat="45.35234677957717" lon="8.056135380859732"><ele>244.0</ele><time>2026-05-01T14:34:23Z</time></trkpt><trkpt lat="45.35223608870851" lon="8.056052062365689"><ele>243.79999999999998</ele><time>2026-05-01T14:34:24Z</time></trkpt><trkpt lat="45.352140618383764" lon="8.055983432337078"><ele>243.59999999999997</ele><time>2026-05-01T14:34:25Z</time></trkpt><trkpt lat="45.352051254946005" lon="8.055918448750917"><ele>243.4</ele><time>2026-05-01T14:34:26Z</time></trkpt><trkpt lat="45.351964644481" lon="8.05585317401455"><ele>243.2</ele><time>2026-05-01T14:34:27Z</time></trkpt><trkpt lat="45.35188000169995" lon="8.055786513331707"><ele>243.0</ele><time>2026-05-01T14:34:28Z</time></trkpt><trkpt lat="45.35179475108947" lon="8.055723412081806"><ele>242.83333333333334</ele><time>2026-05-01T14:34:29Z</time></trkpt><trkpt lat="45.35171753452304" lon="8.05566538437194"><ele>242.66666666666669</ele><time>2026-05-01T14:34:30Z</time></trkpt><trkpt lat="45.35164346626522" lon="8.055613754912692"><ele>242.5</ele><time>2026-05-01T14:34:31Z</time></trkpt><trkpt lat="45.35157256089432" lon="8.055563937400793"><ele>242.33333333333334</ele><time>2026-05-01T14:34:32Z</time></trkpt><trkpt lat="45.3515084881946" lon="8.055516905991333"><ele>242.16666666666669</ele><time>2026-05-01T14:34:33Z</time></trkpt><trkpt lat="45.351443576942074" lon="8.055466532890794"><ele>242.0</ele><time>2026-05-01T14:34:34Z</time></trkpt><trkpt lat="45.35138511273261" lon="8.055421407094848"><ele>242.39999999999998</ele><time>2026-05-01T14:34:35Z</time></trkpt><trkpt lat="45.351296279338854" lon="8.055359445707602"><ele>242.79999999999998</ele><time>2026-05-01T14:34:37Z</time></trkpt><trkpt lat="45.35122631722368" lon="8.055296339336325"><ele>243.2</ele><time>2026-05-01T14:34:40Z</time></trkpt><trkpt lat="45.35115307079613" lon="8.055242716943845"><ele>243.6</ele><time>2026-05-01T14:35:15.999Z</time></trkpt><trkpt lat="45.35104678352012" lon="8.05519270544138"><ele>244.0</ele><time>2026-05-01T14:35:17.999Z</time></trkpt><trkpt lat="45.35097283389188" lon="8.055111309758638"><ele>244.0</ele><time>2026-05-01T14:35:19.999Z</time></trkpt><trkpt lat="45.35087818336032" lon="8.055002138778145"><ele>243.99999999999997</ele><time>2026-05-01T14:35:21.999Z</time></trkpt><trkpt lat="45.35080928183193" lon="8.05492520576353"><ele>243.99999999999997</ele><time>2026-05-01T14:35:22.999Z</time></trkpt><trkpt lat="45.350737854629955" lon="8.054847534081917"><ele>244.0</ele><time>2026-05-01T14:35:23.999Z</time></trkpt><trkpt lat="45.35067233294878" lon="8.05477841425349"><ele>244.0</ele><time>2026-05-01T14:35:24.999Z</time></trkpt><trkpt lat="45.350613146223445" lon="8.05471597735577"><ele>243.83333333333331</ele><time>2026-05-01T14:35:25.999Z</time></trkpt><trkpt lat="45.35055597495348" lon="8.05465566655256"><ele>243.66666666666666</ele><time>2026-05-01T14:35:26.999Z</time></trkpt><trkpt lat="45.35048225309118" lon="8.054603523654851"><ele>243.5</ele><time>2026-05-01T14:35:27.999Z</time></trkpt><trkpt lat="45.3504167625441" lon="8.054529152515775"><ele>243.33333333333331</ele><time>2026-05-01T14:35:28.999Z</time></trkpt><trkpt lat="45.350347685085715" lon="8.054453556568692"><ele>243.16666666666666</ele><time>2026-05-01T14:35:29.999Z</time></trkpt><trkpt lat="45.350275045133344" lon="8.054374742591566"><ele>243.0</ele><time>2026-05-01T14:35:30.999Z</time></trkpt><trkpt lat="45.350198603308655" lon="8.054289636156275"><ele>243.0</ele><time>2026-05-01T14:35:31.999Z</time></trkpt><trkpt lat="45.35012040255128" lon="8.054206794133435"><ele>243.0</ele><time>2026-05-01T14:35:32.999Z</time></trkpt><trkpt lat="45.35004559324685" lon="8.05412194591737"><ele>243.0</ele><time>2026-05-01T14:35:33.999Z</time></trkpt><trkpt lat="45.349971960496305" lon="8.054034751991756"><ele>243.0</ele><time>2026-05-01T14:35:34.999Z</time></trkpt><trkpt lat="45.34989594686188" lon="8.05394807973929"><ele>243.0</ele><time>2026-05-01T14:35:35.999Z</time></trkpt><trkpt lat="45.34981806118836" lon="8.05385572313941"><ele>243.0</ele><time>2026-05-01T14:35:36.999Z</time></trkpt><trkpt lat="45.349747069068" lon="8.053768760916983"><ele>243.0</ele><time>2026-05-01T14:35:37.999Z</time></trkpt><trkpt lat="45.34968192929729" lon="8.05369477603251"><ele>243.0</ele><time>2026-05-01T14:35:38.999Z</time></trkpt><trkpt lat="45.34961489154472" lon="8.053624822479424"><ele>243.0</ele><time>2026-05-01T14:35:39.999Z</time></trkpt><trkpt lat="45.34955022570157" lon="8.053553023618644"><ele>243.0</ele><time>2026-05-01T14:35:40.999Z</time></trkpt><trkpt lat="45.34949117775097" lon="8.053450947648782"><ele>243.0</ele><time>2026-05-01T14:35:41.999Z</time></trkpt><trkpt lat="45.349415507055525" lon="8.053361365515526"><ele>243.0</ele><time>2026-05-01T14:35:43Z</time></trkpt><trkpt lat="45.34933463827655" lon="8.053268632263766"><ele>243.0</ele><time>2026-05-01T14:35:44Z</time></trkpt><trkpt lat="45.34925108410862" lon="8.053172819775975"><ele>243.0</ele><time>2026-05-01T14:35:45Z</time></trkpt><trkpt lat="45.349178701353885" lon="8.053089817706052"><ele>243.0</ele><time>2026-05-01T14:35:46Z</time></trkpt><trkpt lat="45.34909822231814" lon="8.052998797138887"><ele>243.0</ele><time>2026-05-01T14:35:47Z</time></trkpt><trkpt lat="45.34900158078143" lon="8.052926705294452"><ele>243.0</ele><time>2026-05-01T14:35:48Z</time></trkpt><trkpt lat="45.34891693979255" lon="8.052828115792071"><ele>243.0</ele><time>2026-05-01T14:35:49Z</time></trkpt><trkpt lat="45.34883649242395" lon="8.052743278156631"><ele>243.0</ele><time>2026-05-01T14:35:50Z</time></trkpt><trkpt lat="45.34875229737789" lon="8.052650290460337"><ele>243.0</ele><time>2026-05-01T14:35:51Z</time></trkpt><trkpt lat="45.34866107486659" lon="8.052544488731167"><ele>243.0</ele><time>2026-05-01T14:35:52Z</time></trkpt><trkpt lat="45.348571262971944" lon="8.052444416196998"><ele>243.0</ele><time>2026-05-01T14:35:53Z</time></trkpt><trkpt lat="45.3484823082081" lon="8.05234647746593"><ele>243.0</ele><time>2026-05-01T14:35:54Z</time></trkpt><trkpt lat="45.34838837004029" lon="8.052246253997149"><ele>243.0</ele><time>2026-05-01T14:35:55Z</time></trkpt><trkpt lat="45.348290237751" lon="8.052138193167359"><ele>243.0</ele><time>2026-05-01T14:35:56Z</time></trkpt><trkpt lat="45.34818678966192" lon="8.05202892490441"><ele>243.0</ele><time>2026-05-01T14:35:57Z</time></trkpt><trkpt lat="45.348094072758244" lon="8.051935427223418"><ele>243.0</ele><time>2026-05-01T14:35:58Z</time></trkpt><trkpt lat="45.348021155713255" lon="8.051827847048788"><ele>243.0</ele><time>2026-05-01T14:35:59Z</time></trkpt><trkpt lat="45.347938180740755" lon="8.051739305938487"><ele>243.0</ele><time>2026-05-01T14:36:00Z</time></trkpt><trkpt lat="45.34785859062743" lon="8.051657521042879"><ele>243.0</ele><time>2026-05-01T14:36:01Z</time></trkpt><trkpt lat="45.3477721278397" lon="8.051597167256345"><ele>243.0</ele><time>2026-05-01T14:36:02Z</time></trkpt><trkpt lat="45.34768904150513" lon="8.05151870587754"><ele>243.0</ele><time>2026-05-01T14:36:03Z</time></trkpt><trkpt lat="45.3476022028979" lon="8.051441541123795"><ele>243.0</ele><time>2026-05-01T14:36:04Z</time></trkpt><trkpt lat="45.347515215883355" lon="8.051368331769105"><ele>243.0</ele><time>2026-05-01T14:36:05Z</time></trkpt><trkpt lat="45.34742918647917" lon="8.051297091700857"><ele>243.0</ele><time>2026-05-01T14:36:06Z</time></trkpt><trkpt lat="45.34735226826475" lon="8.051226912449055"><ele>243.0</ele><time>2026-05-01T14:36:07Z</time></trkpt><trkpt lat="45.34727966103907" lon="8.051160794228936"><ele>243.0</ele><time>2026-05-01T14:36:08Z</time></trkpt><trkpt lat="45.347205207576735" lon="8.051095389485084"><ele>243.0</ele><time>2026-05-01T14:36:09Z</time></trkpt><trkpt lat="45.347104518796925" lon="8.051007370120136"><ele>243.0</ele><time>2026-05-01T14:36:10Z</time></trkpt><trkpt lat="45.34698759281831" lon="8.05091425759517"><ele>243.0</ele><time>2026-05-01T14:36:11Z</time></trkpt><trkpt lat="45.34688795611293" lon="8.05083128918682"><ele>242.8</ele><time>2026-05-01T14:36:12Z</time></trkpt><trkpt lat="45.34679403982306" lon="8.050753262132195"><ele>242.60000000000002</ele><time>2026-05-01T14:36:13Z</time></trkpt><trkpt lat="45.34670610780701" lon="8.050681442525615"><ele>242.39999999999998</ele><time>2026-05-01T14:36:14Z</time></trkpt><trkpt lat="45.34662367006639" lon="8.050609685825956"><ele>242.2</ele><time>2026-05-01T14:36:15Z</time></trkpt><trkpt lat="45.3465346935391" lon="8.050538064975465"><ele>242.0</ele><time>2026-05-01T14:36:16Z</time></trkpt><trkpt lat="45.3464449148957" lon="8.05047758633812"><ele>242.14285714285714</ele><time>2026-05-01T14:36:17Z</time></trkpt><trkpt lat="45.34636396798412" lon="8.050426135433778"><ele>242.28571428571428</ele><time>2026-05-01T14:36:18Z</time></trkpt><trkpt lat="45.34629181794929" lon="8.050379852305436"><ele>242.42857142857142</ele><time>2026-05-01T14:36:19Z</time></trkpt><trkpt lat="45.34622822996556" lon="8.050342379481574"><ele>242.57142857142856</ele><time>2026-05-01T14:36:20Z</time></trkpt><trkpt lat="45.3461724633797" lon="8.050295713898048"><ele>242.71428571428572</ele><time>2026-05-01T14:36:21Z</time></trkpt><trkpt lat="45.34612331211805" lon="8.050236104768345"><ele>242.85714285714283</ele><time>2026-05-01T14:36:22Z</time></trkpt><trkpt lat="45.34607111158895" lon="8.050178935400739"><ele>243.0</ele><time>2026-05-01T14:36:23Z</time></trkpt><trkpt lat="45.34595707805831" lon="8.050147495027197"><ele>243.0</ele><time>2026-05-01T14:36:25Z</time></trkpt><trkpt lat="45.34586276743839" lon="8.050099470703548"><ele>243.0</ele><time>2026-05-01T14:36:27Z</time></trkpt><trkpt lat="45.34581478487639" lon="8.050039093910458"><ele>243.0</ele><time>2026-05-01T14:36:28Z</time></trkpt><trkpt lat="45.345746232684206" lon="8.049963218965102"><ele>243.0</ele><time>2026-05-01T14:36:29Z</time></trkpt><trkpt lat="45.345656472012486" lon="8.0498881956681"><ele>243.0</ele><time>2026-05-01T14:36:30Z</time></trkpt><trkpt lat="45.34555538347159" lon="8.049821234532791"><ele>243.0</ele><time>2026-05-01T14:36:31Z</time></trkpt><trkpt lat="45.345459237728846" lon="8.049755545427226"><ele>243.0</ele><time>2026-05-01T14:36:32Z</time></trkpt><trkpt lat="45.345368079850466" lon="8.049686930166361"><ele>243.0</ele><time>2026-05-01T14:36:33Z</time></trkpt><trkpt lat="45.34526003357111" lon="8.04960780167086"><ele>243.0</ele><time>2026-05-01T14:36:34Z</time></trkpt><trkpt lat="45.34514634351136" lon="8.049530028587471"><ele>243.0</ele><time>2026-05-01T14:36:35Z</time></trkpt><trkpt lat="45.345024406118284" lon="8.049446043223536"><ele>243.0</ele><time>2026-05-01T14:36:36Z</time></trkpt><trkpt lat="45.34489790304376" lon="8.049355245361323"><ele>243.0</ele><time>2026-05-01T14:36:37Z</time></trkpt><trkpt lat="45.344780089943995" lon="8.04926200730528"><ele>243.0</ele><time>2026-05-01T14:36:38Z</time></trkpt><trkpt lat="45.34467035259349" lon="8.049179987454204"><ele>243.0</ele><time>2026-05-01T14:36:39Z</time></trkpt><trkpt lat="45.344553868772635" lon="8.049093012800592"><ele>243.0</ele><time>2026-05-01T14:36:40Z</time></trkpt><trkpt lat="45.34443123885476" lon="8.049008073155084"><ele>243.0</ele><time>2026-05-01T14:36:41Z</time></trkpt><trkpt lat="45.344300251118526" lon="8.04891732141281"><ele>243.0</ele><time>2026-05-01T14:36:42Z</time></trkpt><trkpt lat="45.34414518386312" lon="8.048787710775002"><ele>243.0</ele><time>2026-05-01T14:36:43Z</time></trkpt><trkpt lat="45.34395423565769" lon="8.048650533933085"><ele>243.0</ele><time>2026-05-01T14:36:44Z</time></trkpt><trkpt lat="45.34375278364397" lon="8.048506776643721"><ele>243.0</ele><time>2026-05-01T14:36:45Z</time></trkpt><trkpt lat="45.34357202314468" lon="8.048378905964775"><ele>242.66666666666669</ele><time>2026-05-01T14:36:46Z</time></trkpt><trkpt lat="45.34340779450573" lon="8.048262729852445"><ele>242.33333333333334</ele><time>2026-05-01T14:36:47Z</time></trkpt><trkpt lat="45.34323350130563" lon="8.0481521794391"><ele>242.0</ele><time>2026-05-01T14:36:48Z</time></trkpt><trkpt lat="45.34306745505278" lon="8.04802830441336"><ele>241.33333333333334</ele><time>2026-05-01T14:36:49Z</time></trkpt><trkpt lat="45.34290137862954" lon="8.04791029790843"><ele>240.66666666666669</ele><time>2026-05-01T14:36:50Z</time></trkpt><trkpt lat="45.34274003990343" lon="8.047798763862874"><ele>240.0</ele><time>2026-05-01T14:36:51Z</time></trkpt><trkpt lat="45.34258385271282" lon="8.047685161833263"><ele>240.0</ele><time>2026-05-01T14:36:52Z</time></trkpt><trkpt lat="45.34243853575897" lon="8.04757997675194"><ele>240.0</ele><time>2026-05-01T14:36:53Z</time></trkpt><trkpt lat="45.34229795982317" lon="8.04747643555789"><ele>240.0</ele><time>2026-05-01T14:36:54Z</time></trkpt><trkpt lat="45.34215189328143" lon="8.047369610373352"><ele>240.0</ele><time>2026-05-01T14:36:55Z</time></trkpt><trkpt lat="45.34199402818044" lon="8.047257888556873"><ele>240.0</ele><time>2026-05-01T14:36:56Z</time></trkpt><trkpt lat="45.34185385763951" lon="8.04715768774631"><ele>240.0</ele><time>2026-05-01T14:36:57Z</time></trkpt><trkpt lat="45.34173072672154" lon="8.0470689820239"><ele>240.0</ele><time>2026-05-01T14:36:58Z</time></trkpt><trkpt lat="45.34161352412035" lon="8.046984401655351"><ele>240.0</ele><time>2026-05-01T14:36:59Z</time></trkpt><trkpt lat="45.34149975566075" lon="8.046901144860675"><ele>240.0</ele><time>2026-05-01T14:37:00Z</time></trkpt><trkpt lat="45.341387574570504" lon="8.04681854726898"><ele>240.0</ele><time>2026-05-01T14:37:01Z</time></trkpt><trkpt lat="45.34127662171097" lon="8.046735366747255"><ele>239.75</ele><time>2026-05-01T14:37:02Z</time></trkpt><trkpt lat="45.34116726226649" lon="8.046656428889241"><ele>239.5</ele><time>2026-05-01T14:37:03Z</time></trkpt><trkpt lat="45.34105056132092" lon="8.046574059696011"><ele>239.25</ele><time>2026-05-01T14:37:04Z</time></trkpt><trkpt lat="45.34092156185038" lon="8.046483200565111"><ele>239.0</ele><time>2026-05-01T14:37:05Z</time></trkpt><trkpt lat="45.34077864794619" lon="8.04638126244117"><ele>239.0</ele><time>2026-05-01T14:37:05.999Z</time></trkpt><trkpt lat="45.340606926592706" lon="8.046256735070829"><ele>239.0</ele><time>2026-05-01T14:37:06.999Z</time></trkpt><trkpt lat="45.34039488462789" lon="8.046104174656168"><ele>239.0</ele><time>2026-05-01T14:37:07.999Z</time></trkpt><trkpt lat="45.34018602609368" lon="8.045954525151123"><ele>239.33333333333334</ele><time>2026-05-01T14:37:08.999Z</time></trkpt><trkpt lat="45.33999545444047" lon="8.045814641525219"><ele>239.66666666666669</ele><time>2026-05-01T14:37:09.999Z</time></trkpt><trkpt lat="45.339815886100475" lon="8.0456925116564"><ele>240.0</ele><time>2026-05-01T14:37:10.999Z</time></trkpt><trkpt lat="45.33964379715024" lon="8.045568379658416"><ele>240.66666666666669</ele><time>2026-05-01T14:37:11.999Z</time></trkpt><trkpt lat="45.339482205277086" lon="8.04545231524585"><ele>241.33333333333334</ele><time>2026-05-01T14:37:12.999Z</time></trkpt><trkpt lat="45.33932116143355" lon="8.045337091194925"><ele>242.0</ele><time>2026-05-01T14:37:13.999Z</time></trkpt><trkpt lat="45.3391543615263" lon="8.045218704089864"><ele>242.0</ele><time>2026-05-01T14:37:14.999Z</time></trkpt><trkpt lat="45.33898058832706" lon="8.045098400052053"><ele>242.0</ele><time>2026-05-01T14:37:15.999Z</time></trkpt><trkpt lat="45.33881972118683" lon="8.04496202272968"><ele>242.0</ele><time>2026-05-01T14:37:16.999Z</time></trkpt><trkpt lat="45.338663643699384" lon="8.044849977054726"><ele>241.66666666666669</ele><time>2026-05-01T14:37:17.999Z</time></trkpt><trkpt lat="45.338497479276" lon="8.044730690051765"><ele>241.33333333333331</ele><time>2026-05-01T14:37:18.999Z</time></trkpt><trkpt lat="45.33834230840092" lon="8.044619295094462"><ele>241.0</ele><time>2026-05-01T14:37:19.999Z</time></trkpt><trkpt lat="45.338182458266786" lon="8.04453049435365"><ele>240.33333333333331</ele><time>2026-05-01T14:37:20.999Z</time></trkpt><trkpt lat="45.33803323611401" lon="8.044420183983323"><ele>239.66666666666669</ele><time>2026-05-01T14:37:21.999Z</time></trkpt><trkpt lat="45.33788254833789" lon="8.044310439378924"><ele>239.0</ele><time>2026-05-01T14:37:22.999Z</time></trkpt><trkpt lat="45.337721450961375" lon="8.04419835723465"><ele>239.66666666666669</ele><time>2026-05-01T14:37:23.999Z</time></trkpt><trkpt lat="45.337576431751" lon="8.044069483532619"><ele>240.33333333333331</ele><time>2026-05-01T14:37:24.999Z</time></trkpt><trkpt lat="45.33741660619203" lon="8.043955165094344"><ele>241.0</ele><time>2026-05-01T14:37:25.999Z</time></trkpt><trkpt lat="45.33724626600336" lon="8.043858394014732"><ele>240.66666666666666</ele><time>2026-05-01T14:37:26.999Z</time></trkpt><trkpt lat="45.33709130053333" lon="8.043746240405444"><ele>240.33333333333331</ele><time>2026-05-01T14:37:27.999Z</time></trkpt><trkpt lat="45.33694486551528" lon="8.043636944740184"><ele>240.0</ele><time>2026-05-01T14:37:28.999Z</time></trkpt><trkpt lat="45.33679864025056" lon="8.043531898691231"><ele>240.0</ele><time>2026-05-01T14:37:29.999Z</time></trkpt><trkpt lat="45.33664810884453" lon="8.043420673213323"><ele>240.0</ele><time>2026-05-01T14:37:30.999Z</time></trkpt><trkpt lat="45.33649615312284" lon="8.0433113096412"><ele>240.0</ele><time>2026-05-01T14:37:31.999Z</time></trkpt><trkpt lat="45.33633986288234" lon="8.043198516267575"><ele>239.33333333333331</ele><time>2026-05-01T14:37:32.999Z</time></trkpt><trkpt lat="45.336177531690254" lon="8.043080307342997"><ele>238.66666666666666</ele><time>2026-05-01T14:37:33.999Z</time></trkpt><trkpt lat="45.336018408429034" lon="8.04296254908379"><ele>238.0</ele><time>2026-05-01T14:37:34.999Z</time></trkpt><trkpt lat="45.335858900615186" lon="8.042849636087906"><ele>238.0</ele><time>2026-05-01T14:37:35.999Z</time></trkpt><trkpt lat="45.335696855808536" lon="8.042734012765287"><ele>238.0</ele><time>2026-05-01T14:37:36.999Z</time></trkpt><trkpt lat="45.33552819099549" lon="8.04261255234223"><ele>238.0</ele><time>2026-05-01T14:37:37.999Z</time></trkpt><trkpt lat="45.33535518333773" lon="8.042487459275456"><ele>237.66666666666666</ele><time>2026-05-01T14:37:38.999Z</time></trkpt><trkpt lat="45.33517659050723" lon="8.042357989016025"><ele>237.33333333333331</ele><time>2026-05-01T14:37:39.999Z</time></trkpt><trkpt lat="45.33499715884304" lon="8.042229684158071"><ele>237.0</ele><time>2026-05-01T14:37:40.999Z</time></trkpt><trkpt lat="45.33482005690506" lon="8.042103191860837"><ele>237.0</ele><time>2026-05-01T14:37:41.999Z</time></trkpt><trkpt lat="45.33464324949443" lon="8.041974921690725"><ele>237.0</ele><time>2026-05-01T14:37:42.999Z</time></trkpt><trkpt lat="45.334466868437836" lon="8.041842277360336"><ele>237.0</ele><time>2026-05-01T14:37:43.999Z</time></trkpt><trkpt lat="45.334294418276784" lon="8.041715891232112"><ele>237.0</ele><time>2026-05-01T14:37:44.999Z</time></trkpt><trkpt lat="45.33412118157242" lon="8.041590744880907"><ele>237.0</ele><time>2026-05-01T14:37:45.999Z</time></trkpt><trkpt lat="45.33394108536314" lon="8.041459442091757"><ele>237.0</ele><time>2026-05-01T14:37:46.999Z</time></trkpt><trkpt lat="45.33375768535822" lon="8.041326338121426"><ele>237.0</ele><time>2026-05-01T14:37:47.999Z</time></trkpt><trkpt lat="45.33357442111086" lon="8.041191518187937"><ele>237.0</ele><time>2026-05-01T14:37:49Z</time></trkpt><trkpt lat="45.333401227774864" lon="8.041063494554141"><ele>237.0</ele><time>2026-05-01T14:37:50Z</time></trkpt><trkpt lat="45.33322455170429" lon="8.040936269394479"><ele>237.0</ele><time>2026-05-01T14:37:51Z</time></trkpt><trkpt lat="45.33304050293327" lon="8.040807529702898"><ele>237.0</ele><time>2026-05-01T14:37:52Z</time></trkpt><trkpt lat="45.33286014321235" lon="8.040682431542953"><ele>237.0</ele><time>2026-05-01T14:37:53Z</time></trkpt><trkpt lat="45.3326839773367" lon="8.040554838220146"><ele>237.0</ele><time>2026-05-01T14:37:54Z</time></trkpt><trkpt lat="45.332505692012916" lon="8.040425185238407"><ele>237.0</ele><time>2026-05-01T14:37:55Z</time></trkpt><trkpt lat="45.33231837104931" lon="8.040286069053192"><ele>237.0</ele><time>2026-05-01T14:37:56Z</time></trkpt><trkpt lat="45.332126542992064" lon="8.040143214881326"><ele>237.0</ele><time>2026-05-01T14:37:57Z</time></trkpt><trkpt lat="45.33193980744568" lon="8.040008439503277"><ele>237.0</ele><time>2026-05-01T14:37:58Z</time></trkpt><trkpt lat="45.33175830228111" lon="8.03988021189343"><ele>237.0</ele><time>2026-05-01T14:37:59Z</time></trkpt><trkpt lat="45.33157407458019" lon="8.039747687847322"><ele>237.0</ele><time>2026-05-01T14:38:00Z</time></trkpt><trkpt lat="45.33138803692748" lon="8.039612113836323"><ele>237.0</ele><time>2026-05-01T14:38:01Z</time></trkpt><trkpt lat="45.33120025852811" lon="8.03947525457333"><ele>237.0</ele><time>2026-05-01T14:38:02Z</time></trkpt><trkpt lat="45.33101077267088" lon="8.039337946873458"><ele>237.0</ele><time>2026-05-01T14:38:03Z</time></trkpt><trkpt lat="45.33082067187256" lon="8.039201357962025"><ele>237.0</ele><time>2026-05-01T14:38:04Z</time></trkpt><trkpt lat="45.330631180505605" lon="8.03906547227009"><ele>237.0</ele><time>2026-05-01T14:38:05Z</time></trkpt><trkpt lat="45.330442538046015" lon="8.038932493789515"><ele>237.0</ele><time>2026-05-01T14:38:06Z</time></trkpt><trkpt lat="45.330255204379014" lon="8.038800720842783"><ele>237.0</ele><time>2026-05-01T14:38:07Z</time></trkpt><trkpt lat="45.330073633392615" lon="8.038671782581762"><ele>237.0</ele><time>2026-05-01T14:38:08Z</time></trkpt><trkpt lat="45.329895886412764" lon="8.038542499826026"><ele>237.0</ele><time>2026-05-01T14:38:09Z</time></trkpt><trkpt lat="45.32971993480286" lon="8.038413667214007"><ele>237.0</ele><time>2026-05-01T14:38:10Z</time></trkpt><trkpt lat="45.329545050286875" lon="8.038288209503952"><ele>237.0</ele><time>2026-05-01T14:38:11Z</time></trkpt><trkpt lat="45.329370726102404" lon="8.038161664893115"><ele>237.33333333333331</ele><time>2026-05-01T14:38:12Z</time></trkpt><trkpt lat="45.32919759255437" lon="8.038032421979425"><ele>237.66666666666666</ele><time>2026-05-01T14:38:13Z</time></trkpt><trkpt lat="45.32901557264631" lon="8.037898838466814"><ele>238.0</ele><time>2026-05-01T14:38:14Z</time></trkpt><trkpt lat="45.328838588458034" lon="8.037771716196138"><ele>238.0</ele><time>2026-05-01T14:38:15Z</time></trkpt><trkpt lat="45.32866444698774" lon="8.0376481280332"><ele>238.0</ele><time>2026-05-01T14:38:16Z</time></trkpt><trkpt lat="45.32847933365899" lon="8.037521442815716"><ele>238.0</ele><time>2026-05-01T14:38:17Z</time></trkpt><trkpt lat="45.328295878534995" lon="8.037394157366169"><ele>238.0</ele><time>2026-05-01T14:38:18Z</time></trkpt><trkpt lat="45.328117725320055" lon="8.037268293669905"><ele>238.0</ele><time>2026-05-01T14:38:19Z</time></trkpt><trkpt lat="45.32794138029991" lon="8.03714456562388"><ele>238.0</ele><time>2026-05-01T14:38:20Z</time></trkpt><trkpt lat="45.327765419846926" lon="8.037016971543585"><ele>237.33333333333331</ele><time>2026-05-01T14:38:21Z</time></trkpt><trkpt lat="45.32758897396452" lon="8.036890228636924"><ele>236.66666666666669</ele><time>2026-05-01T14:38:22Z</time></trkpt><trkpt lat="45.32740403802674" lon="8.036757683509046"><ele>236.0</ele><time>2026-05-01T14:38:23Z</time></trkpt><trkpt lat="45.327229939768216" lon="8.036633676220363"><ele>236.33333333333334</ele><time>2026-05-01T14:38:24Z</time></trkpt><trkpt lat="45.32705608299126" lon="8.036513283526181"><ele>236.66666666666669</ele><time>2026-05-01T14:38:25Z</time></trkpt><trkpt lat="45.32689575048093" lon="8.036401286178696"><ele>237.0</ele><time>2026-05-01T14:38:26Z</time></trkpt><trkpt lat="45.326733984753766" lon="8.036289348855842"><ele>237.0</ele><time>2026-05-01T14:38:27Z</time></trkpt><trkpt lat="45.326564499793626" lon="8.036170819027593"><ele>237.0</ele><time>2026-05-01T14:38:28Z</time></trkpt><trkpt lat="45.32638020928351" lon="8.03604173098544"><ele>237.0</ele><time>2026-05-01T14:38:29Z</time></trkpt><trkpt lat="45.326204174744554" lon="8.035918822786154"><ele>236.66666666666669</ele><time>2026-05-01T14:38:30Z</time></trkpt><trkpt lat="45.32603938299199" lon="8.035803760921194"><ele>236.33333333333334</ele><time>2026-05-01T14:38:31Z</time></trkpt><trkpt lat="45.325878992849766" lon="8.035691893159562"><ele>236.0</ele><time>2026-05-01T14:38:32Z</time></trkpt><trkpt lat="45.32571660530407" lon="8.035576248041897"><ele>235.66666666666669</ele><time>2026-05-01T14:38:33Z</time></trkpt><trkpt lat="45.32555543668682" lon="8.035456805927634"><ele>235.33333333333331</ele><time>2026-05-01T14:38:34Z</time></trkpt><trkpt lat="45.3253901568918" lon="8.035335049147232"><ele>235.0</ele><time>2026-05-01T14:38:35Z</time></trkpt><trkpt lat="45.325231026281145" lon="8.035222764766315"><ele>235.0</ele><time>2026-05-01T14:38:36Z</time></trkpt><trkpt lat="45.32506728737749" lon="8.035110660485062"><ele>235.0</ele><time>2026-05-01T14:38:37Z</time></trkpt><trkpt lat="45.324899641000485" lon="8.034993766722058"><ele>235.0</ele><time>2026-05-01T14:38:38Z</time></trkpt><trkpt lat="45.324730737540975" lon="8.034871842736214"><ele>235.33333333333331</ele><time>2026-05-01T14:38:39Z</time></trkpt><trkpt lat="45.32455924728391" lon="8.034747335550831"><ele>235.66666666666669</ele><time>2026-05-01T14:38:40Z</time></trkpt><trkpt lat="45.32438839531632" lon="8.034628856967133"><ele>236.0</ele><time>2026-05-01T14:38:41Z</time></trkpt><trkpt lat="45.32422707483219" lon="8.034517112337024"><ele>236.0</ele><time>2026-05-01T14:38:42Z</time></trkpt><trkpt lat="45.324066590476185" lon="8.034405512799648"><ele>236.0</ele><time>2026-05-01T14:38:43Z</time></trkpt><trkpt lat="45.323910123815" lon="8.03429299187331"><ele>236.0</ele><time>2026-05-01T14:38:44Z</time></trkpt><trkpt lat="45.323752449652375" lon="8.034178404373018"><ele>235.66666666666669</ele><time>2026-05-01T14:38:45Z</time></trkpt><trkpt lat="45.32358926152406" lon="8.034061922812294"><ele>235.33333333333331</ele><time>2026-05-01T14:38:46Z</time></trkpt><trkpt lat="45.32342280636503" lon="8.033943699385295"><ele>235.0</ele><time>2026-05-01T14:38:47Z</time></trkpt><trkpt lat="45.32325090377118" lon="8.033821542258341"><ele>235.0</ele><time>2026-05-01T14:38:48Z</time></trkpt><trkpt lat="45.32308646731964" lon="8.033705504504919"><ele>235.0</ele><time>2026-05-01T14:38:49Z</time></trkpt><trkpt lat="45.322925878090366" lon="8.03359327411202"><ele>235.0</ele><time>2026-05-01T14:38:50Z</time></trkpt><trkpt lat="45.322763911682706" lon="8.03347634963401"><ele>234.66666666666666</ele><time>2026-05-01T14:38:51Z</time></trkpt><trkpt lat="45.3225964242315" lon="8.033350694701964"><ele>234.33333333333331</ele><time>2026-05-01T14:38:52Z</time></trkpt><trkpt lat="45.322427484872094" lon="8.033227209000811"><ele>234.0</ele><time>2026-05-01T14:38:53Z</time></trkpt><trkpt lat="45.32226489693878" lon="8.033112936358158"><ele>233.66666666666669</ele><time>2026-05-01T14:38:54Z</time></trkpt><trkpt lat="45.32210745244477" lon="8.033003153168883"><ele>233.33333333333334</ele><time>2026-05-01T14:38:55Z</time></trkpt><trkpt lat="45.321949930058516" lon="8.032893270653169"><ele>233.0</ele><time>2026-05-01T14:38:56Z</time></trkpt><trkpt lat="45.321791304524474" lon="8.032780325669618"><ele>233.0</ele><time>2026-05-01T14:38:57Z</time></trkpt><trkpt lat="45.321631839957746" lon="8.032665313875412"><ele>233.0</ele><time>2026-05-01T14:38:58Z</time></trkpt><trkpt lat="45.3214884899532" lon="8.032561023421863"><ele>233.0</ele><time>2026-05-01T14:38:59Z</time></trkpt><trkpt lat="45.32134314548018" lon="8.032457948085094"><ele>233.33333333333334</ele><time>2026-05-01T14:38:59.999Z</time></trkpt><trkpt lat="45.32119054101371" lon="8.032351313112343"><ele>233.66666666666669</ele><time>2026-05-01T14:39:00.999Z</time></trkpt><trkpt lat="45.321036820501554" lon="8.032244344840871"><ele>234.0</ele><time>2026-05-01T14:39:01.999Z</time></trkpt><trkpt lat="45.320878713289424" lon="8.032133288374903"><ele>234.0</ele><time>2026-05-01T14:39:02.999Z</time></trkpt><trkpt lat="45.32071631511637" lon="8.032016041047658"><ele>234.0</ele><time>2026-05-01T14:39:03.999Z</time></trkpt><trkpt lat="45.32055505981664" lon="8.031898091516313"><ele>234.0</ele><time>2026-05-01T14:39:04.999Z</time></trkpt><trkpt lat="45.320406910606835" lon="8.031788607640214"><ele>234.33333333333331</ele><time>2026-05-01T14:39:05.999Z</time></trkpt><trkpt lat="45.320267427014024" lon="8.031686270686265"><ele>234.66666666666666</ele><time>2026-05-01T14:39:06.999Z</time></trkpt><trkpt lat="45.32012305482159" lon="8.031583337700146"><ele>235.0</ele><time>2026-05-01T14:39:07.999Z</time></trkpt><trkpt lat="45.3199912333896" lon="8.031487690625497"><ele>235.0</ele><time>2026-05-01T14:39:08.999Z</time></trkpt><trkpt lat="45.319867017078195" lon="8.031397711003383"><ele>235.0</ele><time>2026-05-01T14:39:09.999Z</time></trkpt><trkpt lat="45.319748195049" lon="8.031312012992105"><ele>235.0</ele><time>2026-05-01T14:39:10.999Z</time></trkpt><trkpt lat="45.31962978743863" lon="8.03122877192663"><ele>235.0</ele><time>2026-05-01T14:39:11.999Z</time></trkpt><trkpt lat="45.31952302101996" lon="8.031153013941392"><ele>234.99999999999997</ele><time>2026-05-01T14:39:12.999Z</time></trkpt><trkpt lat="45.319428837409696" lon="8.031083042319414"><ele>235.0</ele><time>2026-05-01T14:39:13.999Z</time></trkpt><trkpt lat="45.3193519113503" lon="8.03102477272109"><ele>235.0</ele><time>2026-05-01T14:39:14.999Z</time></trkpt><trkpt lat="45.31929509767908" lon="8.030980073813312"><ele>235.0</ele><time>2026-05-01T14:39:15.999Z</time></trkpt><trkpt lat="45.31924150696999" lon="8.030926966027637"><ele>234.99999999999997</ele><time>2026-05-01T14:39:16.999Z</time></trkpt><trkpt lat="45.31919671404301" lon="8.030855505379627"><ele>235.0</ele><time>2026-05-01T14:39:17.999Z</time></trkpt><trkpt lat="45.319155589030395" lon="8.030754555863385"><ele>234.99999999999997</ele><time>2026-05-01T14:39:18.999Z</time></trkpt><trkpt lat="45.31911852495676" lon="8.030653789976647"><ele>235.0</ele><time>2026-05-01T14:39:19.999Z</time></trkpt><trkpt lat="45.31906925881197" lon="8.030590832914454"><ele>235.0</ele><time>2026-05-01T14:39:20.999Z</time></trkpt><trkpt lat="45.31894884726903" lon="8.030571688782919"><ele>235.0</ele><time>2026-05-01T14:39:22.999Z</time></trkpt><trkpt lat="45.31888138590782" lon="8.030606083069857"><ele>234.99999999999997</ele><time>2026-05-01T14:39:23.999Z</time></trkpt><trkpt lat="45.31880499770366" lon="8.030618170862397"><ele>235.0</ele><time>2026-05-01T14:39:24.999Z</time></trkpt><trkpt lat="45.31872474445193" lon="8.030580880982914"><ele>235.2</ele><time>2026-05-01T14:39:25.999Z</time></trkpt><trkpt lat="45.318628485636054" lon="8.030511059507504"><ele>235.4</ele><time>2026-05-01T14:39:26.999Z</time></trkpt><trkpt lat="45.318526028702586" lon="8.030437634346468"><ele>235.60000000000002</ele><time>2026-05-01T14:39:27.999Z</time></trkpt><trkpt lat="45.31843614300866" lon="8.030369907837162"><ele>235.8</ele><time>2026-05-01T14:39:28.999Z</time></trkpt><trkpt lat="45.31835358258026" lon="8.030309393352695"><ele>236.0</ele><time>2026-05-01T14:39:29.999Z</time></trkpt><trkpt lat="45.318258888778765" lon="8.030240417136508"><ele>236.0</ele><time>2026-05-01T14:39:30.999Z</time></trkpt><trkpt lat="45.31815798394028" lon="8.030168631958281"><ele>236.00000000000003</ele><time>2026-05-01T14:39:31.999Z</time></trkpt><trkpt lat="45.31806913918885" lon="8.030104212597573"><ele>236.00000000000003</ele><time>2026-05-01T14:39:32.999Z</time></trkpt><trkpt lat="45.317985987216936" lon="8.03003943997505"><ele>236.0</ele><time>2026-05-01T14:39:33.999Z</time></trkpt><trkpt lat="45.31789669471674" lon="8.029971425009121"><ele>236.0</ele><time>2026-05-01T14:39:34.999Z</time></trkpt><trkpt lat="45.31781048926764" lon="8.029910454510926"><ele>235.66666666666669</ele><time>2026-05-01T14:39:35.999Z</time></trkpt><trkpt lat="45.3177253851519" lon="8.029848950681457"><ele>235.33333333333334</ele><time>2026-05-01T14:39:36.999Z</time></trkpt><trkpt lat="45.31764846128143" lon="8.029795991413659"><ele>235.0</ele><time>2026-05-01T14:39:37.999Z</time></trkpt><trkpt lat="45.31757746999503" lon="8.029749713018477"><ele>234.66666666666669</ele><time>2026-05-01T14:39:38.999Z</time></trkpt><trkpt lat="45.317513393019354" lon="8.029705239367347"><ele>234.33333333333334</ele><time>2026-05-01T14:39:39.999Z</time></trkpt><trkpt lat="45.31745980665606" lon="8.029652343132998"><ele>234.0</ele><time>2026-05-01T14:39:40.999Z</time></trkpt><trkpt lat="45.31741441189703" lon="8.029582614537683"><ele>234.0</ele><time>2026-05-01T14:39:41.999Z</time></trkpt><trkpt lat="45.31737808803401" lon="8.029490988964445"><ele>234.0</ele><time>2026-05-01T14:39:42.999Z</time></trkpt><trkpt lat="45.317346573388924" lon="8.029377370137372"><ele>234.0</ele><time>2026-05-01T14:39:43.999Z</time></trkpt><trkpt lat="45.317320116344085" lon="8.029248411225204"><ele>234.0</ele><time>2026-05-01T14:39:44.999Z</time></trkpt><trkpt lat="45.317276602855976" lon="8.029137628355016"><ele>234.0</ele><time>2026-05-01T14:39:45.999Z</time></trkpt><trkpt lat="45.31721630217403" lon="8.029065416331354"><ele>234.0</ele><time>2026-05-01T14:39:46.999Z</time></trkpt><trkpt lat="45.31714429212568" lon="8.02901439775893"><ele>234.16666666666666</ele><time>2026-05-01T14:39:47.999Z</time></trkpt><trkpt lat="45.317071545158555" lon="8.028990228578024"><ele>234.33333333333331</ele><time>2026-05-01T14:39:48.999Z</time></trkpt><trkpt lat="45.316991183791046" lon="8.028986485239214"><ele>234.5</ele><time>2026-05-01T14:39:49.999Z</time></trkpt><trkpt lat="45.31691800868036" lon="8.029009089992112"><ele>234.66666666666666</ele><time>2026-05-01T14:39:50.999Z</time></trkpt><trkpt lat="45.31685700176549" lon="8.02905739904653"><ele>234.83333333333331</ele><time>2026-05-01T14:39:51.999Z</time></trkpt><trkpt lat="45.3168030891012" lon="8.02913815713032"><ele>235.0</ele><time>2026-05-01T14:39:52.999Z</time></trkpt><trkpt lat="45.3167649191748" lon="8.029245488076485"><ele>235.0</ele><time>2026-05-01T14:39:53.999Z</time></trkpt><trkpt lat="45.316747336592826" lon="8.029367628600417"><ele>235.0</ele><time>2026-05-01T14:39:55Z</time></trkpt><trkpt lat="45.31674883718988" lon="8.02949763708568"><ele>235.0</ele><time>2026-05-01T14:39:56Z</time></trkpt><trkpt lat="45.31676758793268" lon="8.029638740795361"><ele>235.0</ele><time>2026-05-01T14:39:57Z</time></trkpt><trkpt lat="45.31680820431824" lon="8.029785355078568"><ele>235.0</ele><time>2026-05-01T14:39:58Z</time></trkpt><trkpt lat="45.316873110176026" lon="8.029870636259966"><ele>234.66666666666666</ele><time>2026-05-01T14:39:59Z</time></trkpt><trkpt lat="45.316764569458805" lon="8.03011354086965"><ele>234.33333333333331</ele><time>2026-05-01T14:40:00Z</time></trkpt><trkpt lat="45.316703920032275" lon="8.030298065924995"><ele>234.0</ele><time>2026-05-01T14:40:01Z</time></trkpt><trkpt lat="45.31662168148865" lon="8.030513762738682"><ele>234.0</ele><time>2026-05-01T14:40:02Z</time></trkpt><trkpt lat="45.316530302230255" lon="8.030753485045253"><ele>234.0</ele><time>2026-05-01T14:40:03Z</time></trkpt><trkpt lat="45.31642721561263" lon="8.031035104345847"><ele>234.0</ele><time>2026-05-01T14:40:04Z</time></trkpt><trkpt lat="45.316311809813314" lon="8.031349619524054"><ele>233.0</ele><time>2026-05-01T14:40:05Z</time></trkpt><trkpt lat="45.31619077472864" lon="8.031669905966428"><ele>232.0</ele><time>2026-05-01T14:40:06Z</time></trkpt><trkpt lat="45.31607019540432" lon="8.031978720828748"><ele>232.0</ele><time>2026-05-01T14:40:07Z</time></trkpt><trkpt lat="45.31595703237003" lon="8.032255206303912"><ele>232.0</ele><time>2026-05-01T14:40:08Z</time></trkpt><trkpt lat="45.31583923491344" lon="8.03254194549462"><ele>232.0</ele><time>2026-05-01T14:40:09Z</time></trkpt><trkpt lat="45.31572255795922" lon="8.03282405745292"><ele>232.0</ele><time>2026-05-01T14:40:10Z</time></trkpt><trkpt lat="45.31561123007341" lon="8.033088858753539"><ele>232.0</ele><time>2026-05-01T14:40:11Z</time></trkpt><trkpt lat="45.315498795104375" lon="8.033358372374636"><ele>231.33333333333331</ele><time>2026-05-01T14:40:12Z</time></trkpt><trkpt lat="45.3153839236567" lon="8.033625218404165"><ele>230.66666666666669</ele><time>2026-05-01T14:40:13Z</time></trkpt><trkpt lat="45.315267716458415" lon="8.03389091920259"><ele>230.0</ele><time>2026-05-01T14:40:14Z</time></trkpt><trkpt lat="45.315157413645466" lon="8.034143214741674"><ele>230.0</ele><time>2026-05-01T14:40:15Z</time></trkpt><trkpt lat="45.31504584345655" lon="8.034395365111672"><ele>230.0</ele><time>2026-05-01T14:40:16Z</time></trkpt><trkpt lat="45.31493316519427" lon="8.034658829560112"><ele>230.0</ele><time>2026-05-01T14:40:17Z</time></trkpt><trkpt lat="45.314821853778135" lon="8.03491650321894"><ele>230.0</ele><time>2026-05-01T14:40:18Z</time></trkpt><trkpt lat="45.314713610511276" lon="8.035171305662539"><ele>230.0</ele><time>2026-05-01T14:40:19Z</time></trkpt><trkpt lat="45.3146045188647" lon="8.035426753241214"><ele>230.0</ele><time>2026-05-01T14:40:20Z</time></trkpt><trkpt lat="45.314499474396435" lon="8.0356802138879"><ele>229.66666666666669</ele><time>2026-05-01T14:40:21Z</time></trkpt><trkpt lat="45.31439105558715" lon="8.03593818599832"><ele>229.33333333333331</ele><time>2026-05-01T14:40:22Z</time></trkpt><trkpt lat="45.314276260421636" lon="8.036201715649106"><ele>229.0</ele><time>2026-05-01T14:40:23Z</time></trkpt><trkpt lat="45.31416187480086" lon="8.036462804356692"><ele>229.0</ele><time>2026-05-01T14:40:24Z</time></trkpt><trkpt lat="45.31404788763176" lon="8.036712077936807"><ele>229.0</ele><time>2026-05-01T14:40:25Z</time></trkpt><trkpt lat="45.31393451098906" lon="8.036948912430432"><ele>229.0</ele><time>2026-05-01T14:40:26Z</time></trkpt><trkpt lat="45.31380892332086" lon="8.037184847577134"><ele>229.0</ele><time>2026-05-01T14:40:27Z</time></trkpt><trkpt lat="45.31367429293863" lon="8.037408514225257"><ele>229.0</ele><time>2026-05-01T14:40:28Z</time></trkpt><trkpt lat="45.313544147146985" lon="8.03761797205147"><ele>229.0</ele><time>2026-05-01T14:40:29Z</time></trkpt><trkpt lat="45.31341333808056" lon="8.03782457046517"><ele>229.0</ele><time>2026-05-01T14:40:30Z</time></trkpt><trkpt lat="45.313295127773586" lon="8.03802575390226"><ele>229.0</ele><time>2026-05-01T14:40:31Z</time></trkpt><trkpt lat="45.31319193320443" lon="8.03823672820106"><ele>229.0</ele><time>2026-05-01T14:40:32Z</time></trkpt><trkpt lat="45.31310014200453" lon="8.038458659562425"><ele>229.33333333333331</ele><time>2026-05-01T14:40:33Z</time></trkpt><trkpt lat="45.31301797303425" lon="8.038701498387804"><ele>229.66666666666669</ele><time>2026-05-01T14:40:34Z</time></trkpt><trkpt lat="45.312946568056326" lon="8.03897333075647"><ele>230.0</ele><time>2026-05-01T14:40:35Z</time></trkpt><trkpt lat="45.3128887602429" lon="8.03926861643698"><ele>229.0</ele><time>2026-05-01T14:40:36Z</time></trkpt><trkpt lat="45.312843108905525" lon="8.0395633975034"><ele>228.0</ele><time>2026-05-01T14:40:37Z</time></trkpt><trkpt lat="45.312803251600464" lon="8.039823526084994"><ele>227.0</ele><time>2026-05-01T14:40:38Z</time></trkpt><trkpt lat="45.312766532614134" lon="8.040030401280573"><ele>226.6</ele><time>2026-05-01T14:40:39Z</time></trkpt><trkpt lat="45.31273393959561" lon="8.040195792724464"><ele>226.2</ele><time>2026-05-01T14:40:40Z</time></trkpt><trkpt lat="45.31270731488125" lon="8.040318529229802"><ele>225.8</ele><time>2026-05-01T14:40:41Z</time></trkpt><trkpt lat="45.31267238750974" lon="8.040419236701167"><ele>225.4</ele><time>2026-05-01T14:40:42Z</time></trkpt><trkpt lat="45.312619869872954" lon="8.040502175873772"><ele>225.0</ele><time>2026-05-01T14:40:43Z</time></trkpt><trkpt lat="45.312539642033286" lon="8.040579244593232"><ele>225.0</ele><time>2026-05-01T14:40:44Z</time></trkpt><trkpt lat="45.31244223770063" lon="8.040646303200301"><ele>225.0</ele><time>2026-05-01T14:40:45Z</time></trkpt><trkpt lat="45.31234767469601" lon="8.040730111724036"><ele>225.0</ele><time>2026-05-01T14:40:46Z</time></trkpt><trkpt lat="45.312259479660575" lon="8.04085231038671"><ele>225.0</ele><time>2026-05-01T14:40:47Z</time></trkpt><trkpt lat="45.312162470983885" lon="8.040965905024768"><ele>224.0</ele><time>2026-05-01T14:40:48Z</time></trkpt><trkpt lat="45.31211468543612" lon="8.041155900377229"><ele>223.0</ele><time>2026-05-01T14:40:49Z</time></trkpt><trkpt lat="45.312049437464424" lon="8.041272362908366"><ele>222.0</ele><time>2026-05-01T14:40:50Z</time></trkpt><trkpt lat="45.31197335741778" lon="8.041353994484313"><ele>221.0</ele><time>2026-05-01T14:40:51Z</time></trkpt><trkpt lat="45.31187384521983" lon="8.04141715445481"><ele>221.0</ele><time>2026-05-01T14:40:52Z</time></trkpt><trkpt lat="45.31175110076084" lon="8.041462718750246"><ele>221.0</ele><time>2026-05-01T14:40:53Z</time></trkpt><trkpt lat="45.31159617393413" lon="8.041494014273761"><ele>221.0</ele><time>2026-05-01T14:40:54Z</time></trkpt><trkpt lat="45.31142477963564" lon="8.041532295078532"><ele>221.0</ele><time>2026-05-01T14:40:55Z</time></trkpt><trkpt lat="45.31122597553278" lon="8.041580490497866"><ele>221.0</ele><time>2026-05-01T14:40:56Z</time></trkpt><trkpt lat="45.311012343545144" lon="8.04163348102527"><ele>221.0</ele><time>2026-05-01T14:40:56.999Z</time></trkpt><trkpt lat="45.31078872562061" lon="8.04167933868311"><ele>221.5</ele><time>2026-05-01T14:40:57.999Z</time></trkpt><trkpt lat="45.31055146093805" lon="8.041712090899123"><ele>222.0</ele><time>2026-05-01T14:40:58.999Z</time></trkpt><trkpt lat="45.31031483218994" lon="8.041729036114262"><ele>222.0</ele><time>2026-05-01T14:40:59.999Z</time></trkpt><trkpt lat="45.31009871011632" lon="8.041725097294998"><ele>222.0</ele><time>2026-05-01T14:41:00.999Z</time></trkpt><trkpt lat="45.309883326806705" lon="8.041702760991443"><ele>222.0</ele><time>2026-05-01T14:41:01.999Z</time></trkpt><trkpt lat="45.309662766917064" lon="8.04165955049185"><ele>222.0</ele><time>2026-05-01T14:41:02.999Z</time></trkpt><trkpt lat="45.30943529919455" lon="8.041596941858987"><ele>222.0</ele><time>2026-05-01T14:41:03.999Z</time></trkpt><trkpt lat="45.309207826854134" lon="8.04152333833448"><ele>222.0</ele><time>2026-05-01T14:41:04.999Z</time></trkpt><trkpt lat="45.30897266884517" lon="8.041429002336095"><ele>222.0</ele><time>2026-05-01T14:41:05.999Z</time></trkpt><trkpt lat="45.30874007711804" lon="8.04132018175387"><ele>222.0</ele><time>2026-05-01T14:41:06.999Z</time></trkpt><trkpt lat="45.30850848801576" lon="8.04120234548792"><ele>222.0</ele><time>2026-05-01T14:41:07.999Z</time></trkpt><trkpt lat="45.30828206866681" lon="8.041083821794146"><ele>221.0</ele><time>2026-05-01T14:41:08.999Z</time></trkpt><trkpt lat="45.30806071865979" lon="8.040971523169771"><ele>220.0</ele><time>2026-05-01T14:41:09.999Z</time></trkpt><trkpt lat="45.307845456294196" lon="8.040855823700925"><ele>220.0</ele><time>2026-05-01T14:41:10.999Z</time></trkpt><trkpt lat="45.30761871050845" lon="8.040746094526375"><ele>220.0</ele><time>2026-05-01T14:41:11.999Z</time></trkpt><trkpt lat="45.307396081133184" lon="8.04065200737496"><ele>220.0</ele><time>2026-05-01T14:41:12.999Z</time></trkpt><trkpt lat="45.30717322308524" lon="8.040572934192816"><ele>220.0</ele><time>2026-05-01T14:41:13.999Z</time></trkpt><trkpt lat="45.30695245085555" lon="8.04050914444639"><ele>220.0</ele><time>2026-05-01T14:41:14.999Z</time></trkpt><trkpt lat="45.30673618135623" lon="8.040461509757554"><ele>220.0</ele><time>2026-05-01T14:41:15.999Z</time></trkpt><trkpt lat="45.30651825618941" lon="8.040430425210028"><ele>220.0</ele><time>2026-05-01T14:41:16.999Z</time></trkpt><trkpt lat="45.30629827686035" lon="8.04041414693497"><ele>221.0</ele><time>2026-05-01T14:41:17.999Z</time></trkpt><trkpt lat="45.30607669782771" lon="8.04041180650298"><ele>222.0</ele><time>2026-05-01T14:41:18.999Z</time></trkpt><trkpt lat="45.30587656726006" lon="8.040420056072005"><ele>223.0</ele><time>2026-05-01T14:41:19.999Z</time></trkpt><trkpt lat="45.30567415716254" lon="8.04045249866564"><ele>222.66666666666666</ele><time>2026-05-01T14:41:20.999Z</time></trkpt><trkpt lat="45.30546043108282" lon="8.040510628554115"><ele>222.33333333333331</ele><time>2026-05-01T14:41:21.999Z</time></trkpt><trkpt lat="45.305234510262096" lon="8.040582441238131"><ele>222.0</ele><time>2026-05-01T14:41:22.999Z</time></trkpt><trkpt lat="45.30501048172629" lon="8.040660622862294"><ele>222.0</ele><time>2026-05-01T14:41:23.999Z</time></trkpt><trkpt lat="45.304798957706886" lon="8.040734407630747"><ele>222.0</ele><time>2026-05-01T14:41:24.999Z</time></trkpt><trkpt lat="45.30460205327349" lon="8.040791066264863"><ele>222.0</ele><time>2026-05-01T14:41:25.999Z</time></trkpt><trkpt lat="45.30441036545407" lon="8.04084451802803"><ele>220.66666666666669</ele><time>2026-05-01T14:41:26.999Z</time></trkpt><trkpt lat="45.30421067522676" lon="8.040886989159599"><ele>219.33333333333334</ele><time>2026-05-01T14:41:27.999Z</time></trkpt><trkpt lat="45.30399543843116" lon="8.04091363783922"><ele>218.0</ele><time>2026-05-01T14:41:28.999Z</time></trkpt><trkpt lat="45.30376668665746" lon="8.040929467686173"><ele>218.0</ele><time>2026-05-01T14:41:29.999Z</time></trkpt><trkpt lat="45.30352370087905" lon="8.040925071492182"><ele>218.0</ele><time>2026-05-01T14:41:30.999Z</time></trkpt><trkpt lat="45.30326995070253" lon="8.040901924433669"><ele>217.5</ele><time>2026-05-01T14:41:31.999Z</time></trkpt><trkpt lat="45.303002186654766" lon="8.040863759076524"><ele>217.0</ele><time>2026-05-01T14:41:32.999Z</time></trkpt><trkpt lat="45.30272633695708" lon="8.040824393374773"><ele>217.0</ele><time>2026-05-01T14:41:33.999Z</time></trkpt><trkpt lat="45.302476876713854" lon="8.040783528072772"><ele>217.0</ele><time>2026-05-01T14:41:34.999Z</time></trkpt><trkpt lat="45.302232058683956" lon="8.04074513205573"><ele>217.0</ele><time>2026-05-01T14:41:35.999Z</time></trkpt><trkpt lat="45.302007101651945" lon="8.040710123978617"><ele>217.0</ele><time>2026-05-01T14:41:36.999Z</time></trkpt><trkpt lat="45.301798959059646" lon="8.040670684316451"><ele>217.0</ele><time>2026-05-01T14:41:37.999Z</time></trkpt><trkpt lat="45.301590951815314" lon="8.04061978953662"><ele>217.0</ele><time>2026-05-01T14:41:38.999Z</time></trkpt><trkpt lat="45.30138303688451" lon="8.040549018021888"><ele>217.0</ele><time>2026-05-01T14:41:39.999Z</time></trkpt><trkpt lat="45.301170336843214" lon="8.04045916463368"><ele>217.0</ele><time>2026-05-01T14:41:40.999Z</time></trkpt><trkpt lat="45.30095995728862" lon="8.040357955844858"><ele>217.0</ele><time>2026-05-01T14:41:41.999Z</time></trkpt><trkpt lat="45.3007637892389" lon="8.040249020676782"><ele>217.0</ele><time>2026-05-01T14:41:42.999Z</time></trkpt><trkpt lat="45.30057327359727" lon="8.040127018234958"><ele>217.0</ele><time>2026-05-01T14:41:43.999Z</time></trkpt><trkpt lat="45.300386115739435" lon="8.039991664401343"><ele>216.66666666666666</ele><time>2026-05-01T14:41:44.999Z</time></trkpt><trkpt lat="45.300204440883086" lon="8.039848536592043"><ele>216.33333333333331</ele><time>2026-05-01T14:41:45.999Z</time></trkpt><trkpt lat="45.30003866379365" lon="8.039709100860634"><ele>216.0</ele><time>2026-05-01T14:41:46.999Z</time></trkpt><trkpt lat="45.299903677523986" lon="8.039596601326238"><ele>216.0</ele><time>2026-05-01T14:41:47.999Z</time></trkpt><trkpt lat="45.29979796196768" lon="8.039503795887446"><ele>216.0</ele><time>2026-05-01T14:41:48.999Z</time></trkpt><trkpt lat="45.2997134606324" lon="8.039426983580361"><ele>216.0</ele><time>2026-05-01T14:41:49.999Z</time></trkpt><trkpt lat="45.299652656098544" lon="8.039356989207377"><ele>216.0</ele><time>2026-05-01T14:41:50.999Z</time></trkpt><trkpt lat="45.2996102309108" lon="8.039284753843823"><ele>216.0</ele><time>2026-05-01T14:41:51.999Z</time></trkpt><trkpt lat="45.29958146582671" lon="8.039193554158826"><ele>216.0</ele><time>2026-05-01T14:41:52.999Z</time></trkpt><trkpt lat="45.29955887357112" lon="8.039060053869324"><ele>215.8</ele><time>2026-05-01T14:41:53.999Z</time></trkpt><trkpt lat="45.299530909035134" lon="8.038902989313252"><ele>215.60000000000002</ele><time>2026-05-01T14:41:54.999Z</time></trkpt><trkpt lat="45.29949058495084" lon="8.038770036280841"><ele>215.4</ele><time>2026-05-01T14:41:55.999Z</time></trkpt><trkpt lat="45.299433595870774" lon="8.038661918814284"><ele>215.2</ele><time>2026-05-01T14:41:56.999Z</time></trkpt><trkpt lat="45.299358036162694" lon="8.038575739079455"><ele>215.0</ele><time>2026-05-01T14:41:57.999Z</time></trkpt><trkpt lat="45.299265889538894" lon="8.038519544057333"><ele>215.0</ele><time>2026-05-01T14:41:58.999Z</time></trkpt><trkpt lat="45.299164092066825" lon="8.038496535368193"><ele>215.0</ele><time>2026-05-01T14:41:59.999Z</time></trkpt><trkpt lat="45.299052184676725" lon="8.03849863373579"><ele>215.0</ele><time>2026-05-01T14:42:01Z</time></trkpt><trkpt lat="45.29893680785692" lon="8.038525619310226"><ele>215.0</ele><time>2026-05-01T14:42:02Z</time></trkpt><trkpt lat="45.29883187812723" lon="8.038538686147145"><ele>215.0</ele><time>2026-05-01T14:42:03Z</time></trkpt><trkpt lat="45.298727125955" lon="8.038511960911721"><ele>215.0</ele><time>2026-05-01T14:42:04Z</time></trkpt><trkpt lat="45.29862303418923" lon="8.03842406550992"><ele>215.0</ele><time>2026-05-01T14:42:05Z</time></trkpt><trkpt lat="45.29849551310738" lon="8.038310886907981"><ele>215.0</ele><time>2026-05-01T14:42:06Z</time></trkpt><trkpt lat="45.298335957014594" lon="8.038191241247803"><ele>215.33333333333334</ele><time>2026-05-01T14:42:07Z</time></trkpt><trkpt lat="45.298173442502225" lon="8.03802883360181"><ele>215.66666666666669</ele><time>2026-05-01T14:42:08Z</time></trkpt><trkpt lat="45.29799982901454" lon="8.03785603474749"><ele>216.0</ele><time>2026-05-01T14:42:09Z</time></trkpt><trkpt lat="45.29781646641128" lon="8.03766278838951"><ele>216.0</ele><time>2026-05-01T14:42:10Z</time></trkpt><trkpt lat="45.297642135418" lon="8.037461764269365"><ele>216.0</ele><time>2026-05-01T14:42:11Z</time></trkpt><trkpt lat="45.29746969081741" lon="8.037237207027056"><ele>216.0</ele><time>2026-05-01T14:42:12Z</time></trkpt><trkpt lat="45.29730766410898" lon="8.036999415216156"><ele>216.0</ele><time>2026-05-01T14:42:13Z</time></trkpt><trkpt lat="45.29715938861168" lon="8.036759373397276"><ele>216.0</ele><time>2026-05-01T14:42:14Z</time></trkpt><trkpt lat="45.29702272084673" lon="8.036514485040726"><ele>216.0</ele><time>2026-05-01T14:42:15Z</time></trkpt><trkpt lat="45.296901431454984" lon="8.036269610242323"><ele>216.0</ele><time>2026-05-01T14:42:16Z</time></trkpt><trkpt lat="45.296790832657265" lon="8.036012419929936"><ele>216.33333333333331</ele><time>2026-05-01T14:42:17Z</time></trkpt><trkpt lat="45.296690832780726" lon="8.035747200646304"><ele>216.66666666666666</ele><time>2026-05-01T14:42:18Z</time></trkpt><trkpt lat="45.29659752550316" lon="8.035479139956031"><ele>217.0</ele><time>2026-05-01T14:42:19Z</time></trkpt><trkpt lat="45.296513946888396" lon="8.035207685836038"><ele>217.0</ele><time>2026-05-01T14:42:20Z</time></trkpt><trkpt lat="45.296441758530946" lon="8.034921958200131"><ele>217.0</ele><time>2026-05-01T14:42:21Z</time></trkpt><trkpt lat="45.29638108847999" lon="8.034641520744522"><ele>217.0</ele><time>2026-05-01T14:42:22Z</time></trkpt><trkpt lat="45.29633246124565" lon="8.034367536325279"><ele>217.0</ele><time>2026-05-01T14:42:23Z</time></trkpt><trkpt lat="45.29629558839076" lon="8.034105003639302"><ele>217.0</ele><time>2026-05-01T14:42:24Z</time></trkpt><trkpt lat="45.29626843611224" lon="8.033846125989093"><ele>217.0</ele><time>2026-05-01T14:42:25Z</time></trkpt><trkpt lat="45.29624897929685" lon="8.03358237278642"><ele>217.66666666666666</ele><time>2026-05-01T14:42:26Z</time></trkpt><trkpt lat="45.296238601747014" lon="8.033303678552603"><ele>218.33333333333331</ele><time>2026-05-01T14:42:27Z</time></trkpt><trkpt lat="45.29623611550867" lon="8.03300742653644"><ele>219.0</ele><time>2026-05-01T14:42:28Z</time></trkpt><trkpt lat="45.296245005086696" lon="8.032714690827147"><ele>219.33333333333331</ele><time>2026-05-01T14:42:29Z</time></trkpt><trkpt lat="45.29626286975685" lon="8.032410189264821"><ele>219.66666666666666</ele><time>2026-05-01T14:42:30Z</time></trkpt><trkpt lat="45.29628840602092" lon="8.032082379957725"><ele>220.0</ele><time>2026-05-01T14:42:31Z</time></trkpt><trkpt lat="45.29632022387104" lon="8.03174130149634"><ele>219.0</ele><time>2026-05-01T14:42:32Z</time></trkpt><trkpt lat="45.29636134107507" lon="8.031365147846545"><ele>218.0</ele><time>2026-05-01T14:42:33Z</time></trkpt><trkpt lat="45.29640617094525" lon="8.030976148999724"><ele>218.0</ele><time>2026-05-01T14:42:34Z</time></trkpt><trkpt lat="45.296459580598416" lon="8.030557271762726"><ele>218.0</ele><time>2026-05-01T14:42:35Z</time></trkpt><trkpt lat="45.29651663090616" lon="8.030138022785309"><ele>220.0</ele><time>2026-05-01T14:42:36Z</time></trkpt><trkpt lat="45.296573223287965" lon="8.029705845824386"><ele>222.0</ele><time>2026-05-01T14:42:37Z</time></trkpt><trkpt lat="45.29662547131494" lon="8.02926985267217"><ele>222.0</ele><time>2026-05-01T14:42:38Z</time></trkpt><trkpt lat="45.296682163896214" lon="8.02882194226508"><ele>222.0</ele><time>2026-05-01T14:42:39Z</time></trkpt><trkpt lat="45.296740931603544" lon="8.028364228400026"><ele>221.5</ele><time>2026-05-01T14:42:40Z</time></trkpt><trkpt lat="45.296796803063216" lon="8.027912458647009"><ele>221.0</ele><time>2026-05-01T14:42:41Z</time></trkpt><trkpt lat="45.29685620285272" lon="8.02744822897402"><ele>221.5</ele><time>2026-05-01T14:42:41.999Z</time></trkpt><trkpt lat="45.296918361929734" lon="8.026958769065107"><ele>222.0</ele><time>2026-05-01T14:42:42.999Z</time></trkpt><trkpt lat="45.29697956250219" lon="8.026485718330285"><ele>222.0</ele><time>2026-05-01T14:42:43.999Z</time></trkpt><trkpt lat="45.29703398748466" lon="8.026062866716222"><ele>222.0</ele><time>2026-05-01T14:42:44.999Z</time></trkpt><trkpt lat="45.297085338866864" lon="8.025662277466934"><ele>222.0</ele><time>2026-05-01T14:42:45.999Z</time></trkpt><trkpt lat="45.29713661803212" lon="8.02526731623603"><ele>222.0</ele><time>2026-05-01T14:42:46.999Z</time></trkpt><trkpt lat="45.29718514366039" lon="8.024878830309646"><ele>222.66666666666669</ele><time>2026-05-01T14:42:47.999Z</time></trkpt><trkpt lat="45.297225703917995" lon="8.024558669558074"><ele>223.33333333333334</ele><time>2026-05-01T14:42:48.999Z</time></trkpt><trkpt lat="45.297261806091676" lon="8.024281178128936"><ele>224.0</ele><time>2026-05-01T14:42:49.999Z</time></trkpt><trkpt lat="45.2972954673068" lon="8.024022390669039"><ele>224.25</ele><time>2026-05-01T14:42:50.999Z</time></trkpt><trkpt lat="45.29732456598717" lon="8.023786823094424"><ele>224.5</ele><time>2026-05-01T14:42:51.999Z</time></trkpt><trkpt lat="45.29735145552037" lon="8.023586600522746"><ele>224.75</ele><time>2026-05-01T14:42:52.999Z</time></trkpt><trkpt lat="45.29737462485306" lon="8.0234031679159"><ele>225.0</ele><time>2026-05-01T14:42:53.999Z</time></trkpt><trkpt lat="45.29739689945649" lon="8.023248077965707"><ele>225.0</ele><time>2026-05-01T14:42:54.999Z</time></trkpt><trkpt lat="45.29742064109998" lon="8.023118159996306"><ele>225.0</ele><time>2026-05-01T14:42:55.999Z</time></trkpt><trkpt lat="45.29745364188968" lon="8.023012822497273"><ele>225.0</ele><time>2026-05-01T14:42:56.999Z</time></trkpt><trkpt lat="45.29750308890495" lon="8.022917668048066"><ele>225.0</ele><time>2026-05-01T14:42:57.999Z</time></trkpt><trkpt lat="45.29757406370975" lon="8.022834399033346"><ele>225.0</ele><time>2026-05-01T14:42:58.999Z</time></trkpt><trkpt lat="45.297659413519064" lon="8.022751411825945"><ele>225.0</ele><time>2026-05-01T14:42:59.999Z</time></trkpt><trkpt lat="45.2977279930074" lon="8.022658111542613"><ele>225.0</ele><time>2026-05-01T14:43:00.999Z</time></trkpt><trkpt lat="45.29777373093989" lon="8.022542405405233"><ele>225.0</ele><time>2026-05-01T14:43:01.999Z</time></trkpt><trkpt lat="45.29779815076013" lon="8.022410680820938"><ele>225.0</ele><time>2026-05-01T14:43:02.999Z</time></trkpt><trkpt lat="45.297799270863855" lon="8.022267659715098"><ele>225.0</ele><time>2026-05-01T14:43:03.999Z</time></trkpt><trkpt lat="45.29777448859672" lon="8.02212095075599"><ele>225.25</ele><time>2026-05-01T14:43:04.999Z</time></trkpt><trkpt lat="45.297724098235356" lon="8.021978352015543"><ele>225.5</ele><time>2026-05-01T14:43:05.999Z</time></trkpt><trkpt lat="45.29765533058938" lon="8.021837235716486"><ele>225.75</ele><time>2026-05-01T14:43:06.999Z</time></trkpt><trkpt lat="45.29758927904638" lon="8.021695555820909"><ele>226.0</ele><time>2026-05-01T14:43:07.999Z</time></trkpt><trkpt lat="45.297547585515645" lon="8.021545020703988"><ele>226.0</ele><time>2026-05-01T14:43:08.999Z</time></trkpt><trkpt lat="45.29753399867907" lon="8.021384140162228"><ele>226.0</ele><time>2026-05-01T14:43:09.999Z</time></trkpt><trkpt lat="45.29756378223657" lon="8.021186524505131"><ele>226.0</ele><time>2026-05-01T14:43:10.999Z</time></trkpt><trkpt lat="45.29756218135574" lon="8.020941163530491"><ele>226.0</ele><time>2026-05-01T14:43:11.999Z</time></trkpt><trkpt lat="45.29757906467899" lon="8.02065858104797"><ele>226.0</ele><time>2026-05-01T14:43:12.999Z</time></trkpt><trkpt lat="45.29759432516205" lon="8.020335501599734"><ele>226.0</ele><time>2026-05-01T14:43:13.999Z</time></trkpt><trkpt lat="45.29760869310402" lon="8.01998780930386"><ele>227.0</ele><time>2026-05-01T14:43:14.999Z</time></trkpt><trkpt lat="45.29762538909645" lon="8.019620481341345"><ele>228.0</ele><time>2026-05-01T14:43:15.999Z</time></trkpt><trkpt lat="45.29764264114464" lon="8.019238697368566"><ele>228.0</ele><time>2026-05-01T14:43:16.999Z</time></trkpt><trkpt lat="45.29766070249181" lon="8.018841544262498"><ele>228.0</ele><time>2026-05-01T14:43:17.999Z</time></trkpt><trkpt lat="45.29768009281123" lon="8.01843326681654"><ele>228.5</ele><time>2026-05-01T14:43:18.999Z</time></trkpt><trkpt lat="45.29769774679119" lon="8.018022048711344"><ele>229.0</ele><time>2026-05-01T14:43:19.999Z</time></trkpt><trkpt lat="45.29771013540869" lon="8.01763414744979"><ele>230.0</ele><time>2026-05-01T14:43:20.999Z</time></trkpt><trkpt lat="45.29772083694271" lon="8.01723637185503"><ele>231.0</ele><time>2026-05-01T14:43:21.999Z</time></trkpt><trkpt lat="45.29773195257865" lon="8.016828587664026"><ele>231.0</ele><time>2026-05-01T14:43:22.999Z</time></trkpt><trkpt lat="45.297743073193985" lon="8.016434858976806"><ele>231.0</ele><time>2026-05-01T14:43:23.999Z</time></trkpt><trkpt lat="45.29775369668286" lon="8.016005401769288"><ele>231.0</ele><time>2026-05-01T14:43:24.999Z</time></trkpt><trkpt lat="45.297761075780194" lon="8.015548496547792"><ele>231.0</ele><time>2026-05-01T14:43:25.999Z</time></trkpt><trkpt lat="45.297768192332775" lon="8.015077383072741"><ele>231.0</ele><time>2026-05-01T14:43:26.999Z</time></trkpt><trkpt lat="45.297773827330786" lon="8.014637993074123"><ele>231.0</ele><time>2026-05-01T14:43:27.999Z</time></trkpt><trkpt lat="45.29777389996993" lon="8.01424277139363"><ele>232.0</ele><time>2026-05-01T14:43:28.999Z</time></trkpt><trkpt lat="45.29777302875461" lon="8.013868818357986"><ele>233.0</ele><time>2026-05-01T14:43:29.999Z</time></trkpt><trkpt lat="45.29777334652456" lon="8.01350494358816"><ele>233.5</ele><time>2026-05-01T14:43:30.999Z</time></trkpt><trkpt lat="45.29777309580117" lon="8.01316759759081"><ele>234.0</ele><time>2026-05-01T14:43:31.999Z</time></trkpt><trkpt lat="45.297771305064366" lon="8.012840582257017"><ele>234.0</ele><time>2026-05-01T14:43:32.999Z</time></trkpt><trkpt lat="45.29777037920143" lon="8.012512140033879"><ele>234.0</ele><time>2026-05-01T14:43:33.999Z</time></trkpt><trkpt lat="45.29776713454775" lon="8.012198071591104"><ele>233.5</ele><time>2026-05-01T14:43:34.999Z</time></trkpt><trkpt lat="45.297765815243736" lon="8.011872562730392"><ele>233.0</ele><time>2026-05-01T14:43:35.999Z</time></trkpt><trkpt lat="45.297764355681736" lon="8.011554492997526"><ele>233.0</ele><time>2026-05-01T14:43:36.999Z</time></trkpt><trkpt lat="45.29776390089244" lon="8.011236890487265"><ele>233.0</ele><time>2026-05-01T14:43:37.999Z</time></trkpt><trkpt lat="45.297760648108195" lon="8.01092744762774"><ele>233.0</ele><time>2026-05-01T14:43:38.999Z</time></trkpt><trkpt lat="45.29775411873283" lon="8.010616492118524"><ele>233.33333333333334</ele><time>2026-05-01T14:43:39.999Z</time></trkpt><trkpt lat="45.29775154011394" lon="8.010311822237858"><ele>233.66666666666669</ele><time>2026-05-01T14:43:40.999Z</time></trkpt><trkpt lat="45.29775051581775" lon="8.009994188669031"><ele>234.0</ele><time>2026-05-01T14:43:41.999Z</time></trkpt><trkpt lat="45.297751109231974" lon="8.00967829896336"><ele>234.33333333333331</ele><time>2026-05-01T14:43:42.999Z</time></trkpt><trkpt lat="45.29775215256491" lon="8.009362428039761"><ele>234.66666666666666</ele><time>2026-05-01T14:43:43.999Z</time></trkpt><trkpt lat="45.29775382027953" lon="8.009053256970668"><ele>235.0</ele><time>2026-05-01T14:43:44.999Z</time></trkpt><trkpt lat="45.297754571390534" lon="8.008748283449025"><ele>235.0</ele><time>2026-05-01T14:43:45.999Z</time></trkpt><trkpt lat="45.297752672246155" lon="8.008453437436732"><ele>235.0</ele><time>2026-05-01T14:43:46.999Z</time></trkpt><trkpt lat="45.297753288254285" lon="8.008178596014728"><ele>235.0</ele><time>2026-05-01T14:43:47.999Z</time></trkpt><trkpt lat="45.29775169987738" lon="8.007935039660358"><ele>235.25</ele><time>2026-05-01T14:43:48.999Z</time></trkpt><trkpt lat="45.29775416073186" lon="8.007723980963705"><ele>235.5</ele><time>2026-05-01T14:43:49.999Z</time></trkpt><trkpt lat="45.29775340047825" lon="8.0075321684169"><ele>235.75</ele><time>2026-05-01T14:43:50.999Z</time></trkpt><trkpt lat="45.29775352029414" lon="8.007380518992225"><ele>236.0</ele><time>2026-05-01T14:43:51.999Z</time></trkpt><trkpt lat="45.297761836443044" lon="8.007261136477135"><ele>236.20000000000002</ele><time>2026-05-01T14:43:52.999Z</time></trkpt><trkpt lat="45.29778020665259" lon="8.007156723394269"><ele>236.40000000000003</ele><time>2026-05-01T14:43:53.999Z</time></trkpt><trkpt lat="45.297821052059135" lon="8.007059674485504"><ele>236.6</ele><time>2026-05-01T14:43:54.999Z</time></trkpt><trkpt lat="45.29788875727499" lon="8.006959801221777"><ele>236.8</ele><time>2026-05-01T14:43:55.999Z</time></trkpt><trkpt lat="45.297978420436735" lon="8.006875775474963"><ele>237.0</ele><time>2026-05-01T14:43:56.999Z</time></trkpt><trkpt lat="45.298071934955125" lon="8.006808620033084"><ele>237.0</ele><time>2026-05-01T14:43:57.999Z</time></trkpt><trkpt lat="45.29815229920484" lon="8.00672954673018"><ele>237.0</ele><time>2026-05-01T14:43:58.999Z</time></trkpt><trkpt lat="45.298209662671226" lon="8.006628680344845"><ele>237.0</ele><time>2026-05-01T14:43:59.999Z</time></trkpt><trkpt lat="45.298252151417145" lon="8.006513492925157"><ele>237.0</ele><time>2026-05-01T14:44:00.999Z</time></trkpt><trkpt lat="45.29828416262981" lon="8.006380887893162"><ele>237.0</ele><time>2026-05-01T14:44:01.999Z</time></trkpt><trkpt lat="45.298297400613954" lon="8.006244574639783"><ele>237.39999999999998</ele><time>2026-05-01T14:44:02.999Z</time></trkpt><trkpt lat="45.29828826648976" lon="8.006114611254075"><ele>237.79999999999998</ele><time>2026-05-01T14:44:03.999Z</time></trkpt><trkpt lat="45.2982569945539" lon="8.005983916357383"><ele>238.2</ele><time>2026-05-01T14:44:04.999Z</time></trkpt><trkpt lat="45.29820607607549" lon="8.005863945450361"><ele>238.6</ele><time>2026-05-01T14:44:05.999Z</time></trkpt><trkpt lat="45.298135457074615" lon="8.005764686765993"><ele>239.0</ele><time>2026-05-01T14:44:07Z</time></trkpt><trkpt lat="45.29804840263714" lon="8.005690028124556"><ele>239.0</ele><time>2026-05-01T14:44:08Z</time></trkpt><trkpt lat="45.29794642832817" lon="8.005632673527286"><ele>239.0</ele><time>2026-05-01T14:44:09Z</time></trkpt><trkpt lat="45.297823979569664" lon="8.005588443882871"><ele>239.0</ele><time>2026-05-01T14:44:10Z</time></trkpt><trkpt lat="45.297685094235135" lon="8.005547767859046"><ele>239.0</ele><time>2026-05-01T14:44:11Z</time></trkpt><trkpt lat="45.297561168743385" lon="8.005490289544277"><ele>239.0</ele><time>2026-05-01T14:44:12Z</time></trkpt><trkpt lat="45.29743470602787" lon="8.00539297663812"><ele>239.0</ele><time>2026-05-01T14:44:13Z</time></trkpt><trkpt lat="45.297297665410625" lon="8.005247092209286"><ele>239.0</ele><time>2026-05-01T14:44:14Z</time></trkpt><trkpt lat="45.297139496928374" lon="8.005067860322095"><ele>239.0</ele><time>2026-05-01T14:44:15Z</time></trkpt><trkpt lat="45.2969682712463" lon="8.004881771321052"><ele>239.0</ele><time>2026-05-01T14:44:16Z</time></trkpt><trkpt lat="45.296801132989074" lon="8.004699237746971"><ele>239.0</ele><time>2026-05-01T14:44:17Z</time></trkpt><trkpt lat="45.29663481613853" lon="8.0045165549913"><ele>239.0</ele><time>2026-05-01T14:44:18Z</time></trkpt><trkpt lat="45.296467140469026" lon="8.004335830299002"><ele>239.0</ele><time>2026-05-01T14:44:19Z</time></trkpt><trkpt lat="45.29631814545658" lon="8.004173612893767"><ele>239.0</ele><time>2026-05-01T14:44:20Z</time></trkpt><trkpt lat="45.29616679153643" lon="8.00401263988406"><ele>238.66666666666669</ele><time>2026-05-01T14:44:21Z</time></trkpt><trkpt lat="45.29600457273141" lon="8.003840682605473"><ele>238.33333333333331</ele><time>2026-05-01T14:44:22Z</time></trkpt><trkpt lat="45.295849397274154" lon="8.003674953433658"><ele>238.0</ele><time>2026-05-01T14:44:23Z</time></trkpt><trkpt lat="45.29568492179159" lon="8.00349948505407"><ele>238.0</ele><time>2026-05-01T14:44:24Z</time></trkpt><trkpt lat="45.29552494279418" lon="8.00333053437732"><ele>238.0</ele><time>2026-05-01T14:44:25Z</time></trkpt><trkpt lat="45.295377590910434" lon="8.00317196751489"><ele>238.0</ele><time>2026-05-01T14:44:26Z</time></trkpt><trkpt lat="45.29523548394607" lon="8.00301666302446"><ele>238.0</ele><time>2026-05-01T14:44:27Z</time></trkpt><trkpt lat="45.29508991594438" lon="8.002862389748186"><ele>238.0</ele><time>2026-05-01T14:44:28Z</time></trkpt><trkpt lat="45.2949471049469" lon="8.002708258776023"><ele>238.0</ele><time>2026-05-01T14:44:29Z</time></trkpt><trkpt lat="45.29480735654404" lon="8.002550438389575"><ele>238.0</ele><time>2026-05-01T14:44:30Z</time></trkpt><trkpt lat="45.29466914462412" lon="8.00239954200657"><ele>238.0</ele><time>2026-05-01T14:44:31Z</time></trkpt><trkpt lat="45.294528853620726" lon="8.002254933419737"><ele>238.0</ele><time>2026-05-01T14:44:32Z</time></trkpt><trkpt lat="45.29439082113368" lon="8.002081855041522"><ele>238.0</ele><time>2026-05-01T14:44:33Z</time></trkpt><trkpt lat="45.29423325911316" lon="8.001911402730581"><ele>238.0</ele><time>2026-05-01T14:44:34Z</time></trkpt><trkpt lat="45.29406422229488" lon="8.001728537326226"><ele>238.0</ele><time>2026-05-01T14:44:35Z</time></trkpt><trkpt lat="45.2938808313408" lon="8.001530404613016"><ele>237.5</ele><time>2026-05-01T14:44:36Z</time></trkpt><trkpt lat="45.293681225988315" lon="8.001312311061314"><ele>237.0</ele><time>2026-05-01T14:44:37Z</time></trkpt><trkpt lat="45.29348658927787" lon="8.001100941794268"><ele>237.0</ele><time>2026-05-01T14:44:38Z</time></trkpt><trkpt lat="45.293289262098234" lon="8.000887936836033"><ele>237.0</ele><time>2026-05-01T14:44:39Z</time></trkpt><trkpt lat="45.293083769278475" lon="8.000666117292806"><ele>236.5</ele><time>2026-05-01T14:44:40Z</time></trkpt><trkpt lat="45.292871164286716" lon="8.00046346710245"><ele>236.0</ele><time>2026-05-01T14:44:41Z</time></trkpt><trkpt lat="45.29268699554588" lon="8.000258698712239"><ele>236.0</ele><time>2026-05-01T14:44:41.999Z</time></trkpt><trkpt lat="45.29251362894694" lon="8.000070844287432"><ele>236.0</ele><time>2026-05-01T14:44:42.999Z</time></trkpt><trkpt lat="45.29233393520328" lon="7.99987600845653"><ele>236.0</ele><time>2026-05-01T14:44:43.999Z</time></trkpt><trkpt lat="45.2921574399305" lon="7.999682513109278"><ele>236.0</ele><time>2026-05-01T14:44:44.999Z</time></trkpt><trkpt lat="45.29199035748791" lon="7.999497864826938"><ele>236.0</ele><time>2026-05-01T14:44:45.999Z</time></trkpt><trkpt lat="45.29182171714785" lon="7.999313650418808"><ele>236.0</ele><time>2026-05-01T14:44:46.999Z</time></trkpt><trkpt lat="45.29164853900123" lon="7.9991274825806755"><ele>236.0</ele><time>2026-05-01T14:44:47.999Z</time></trkpt><trkpt lat="45.291477421589974" lon="7.998946787126507"><ele>236.0</ele><time>2026-05-01T14:44:48.999Z</time></trkpt><trkpt lat="45.29130995396462" lon="7.998769222928593"><ele>236.0</ele><time>2026-05-01T14:44:49.999Z</time></trkpt><trkpt lat="45.29113988158079" lon="7.998585152905565"><ele>236.0</ele><time>2026-05-01T14:44:50.999Z</time></trkpt><trkpt lat="45.29096848483851" lon="7.998397368213934"><ele>236.0</ele><time>2026-05-01T14:44:51.999Z</time></trkpt><trkpt lat="45.29079115390149" lon="7.998204417492057"><ele>236.0</ele><time>2026-05-01T14:44:52.999Z</time></trkpt><trkpt lat="45.29061167326747" lon="7.99801012954853"><ele>235.5</ele><time>2026-05-01T14:44:53.999Z</time></trkpt><trkpt lat="45.29042836741848" lon="7.99781043636555"><ele>235.0</ele><time>2026-05-01T14:44:54.999Z</time></trkpt><trkpt lat="45.29025128417398" lon="7.997617460194879"><ele>235.0</ele><time>2026-05-01T14:44:55.999Z</time></trkpt><trkpt lat="45.29007992643431" lon="7.997431150877594"><ele>235.0</ele><time>2026-05-01T14:44:56.999Z</time></trkpt><trkpt lat="45.289907369490415" lon="7.997246879888194"><ele>235.0</ele><time>2026-05-01T14:44:57.999Z</time></trkpt><trkpt lat="45.289728879735904" lon="7.99705397609597"><ele>235.5</ele><time>2026-05-01T14:44:58.999Z</time></trkpt><trkpt lat="45.28953955132521" lon="7.9968494355662765"><ele>236.0</ele><time>2026-05-01T14:44:59.999Z</time></trkpt><trkpt lat="45.28933261781168" lon="7.996627419408413"><ele>236.0</ele><time>2026-05-01T14:45:00.999Z</time></trkpt><trkpt lat="45.28912156221553" lon="7.996402307609186"><ele>236.0</ele><time>2026-05-01T14:45:01.999Z</time></trkpt><trkpt lat="45.288913178306025" lon="7.9961796305127555"><ele>236.0</ele><time>2026-05-01T14:45:02.999Z</time></trkpt><trkpt lat="45.288705952331306" lon="7.995954691942995"><ele>236.0</ele><time>2026-05-01T14:45:03.999Z</time></trkpt><trkpt lat="45.288500604130554" lon="7.995729402575378"><ele>236.0</ele><time>2026-05-01T14:45:04.999Z</time></trkpt><trkpt lat="45.28829854184971" lon="7.995512828350154"><ele>236.0</ele><time>2026-05-01T14:45:05.999Z</time></trkpt><trkpt lat="45.288092803413136" lon="7.99529296666619"><ele>236.0</ele><time>2026-05-01T14:45:06.999Z</time></trkpt><trkpt lat="45.287890386772" lon="7.995077812076978"><ele>236.0</ele><time>2026-05-01T14:45:07.999Z</time></trkpt><trkpt lat="45.28770007193042" lon="7.994870883540647"><ele>236.0</ele><time>2026-05-01T14:45:08.999Z</time></trkpt><trkpt lat="45.287513362537844" lon="7.994666895505561"><ele>236.0</ele><time>2026-05-01T14:45:09.999Z</time></trkpt><trkpt lat="45.28732455345197" lon="7.9944626691180565"><ele>236.0</ele><time>2026-05-01T14:45:10.999Z</time></trkpt><trkpt lat="45.2871366589315" lon="7.99425903425249"><ele>236.0</ele><time>2026-05-01T14:45:11.999Z</time></trkpt><trkpt lat="45.286947702958024" lon="7.994056214201841"><ele>236.0</ele><time>2026-05-01T14:45:12.999Z</time></trkpt><trkpt lat="45.286743218862924" lon="7.993836615423064"><ele>236.0</ele><time>2026-05-01T14:45:13.999Z</time></trkpt><trkpt lat="45.28652689685343" lon="7.993601223790395"><ele>236.0</ele><time>2026-05-01T14:45:14.999Z</time></trkpt><trkpt lat="45.286323180422215" lon="7.993379381201498"><ele>236.0</ele><time>2026-05-01T14:45:15.999Z</time></trkpt><trkpt lat="45.28612689455923" lon="7.993166692813964"><ele>236.0</ele><time>2026-05-01T14:45:16.999Z</time></trkpt><trkpt lat="45.28593398329537" lon="7.992957547340204"><ele>236.0</ele><time>2026-05-01T14:45:17.999Z</time></trkpt><trkpt lat="45.28573799473156" lon="7.99274725125605"><ele>236.0</ele><time>2026-05-01T14:45:18.999Z</time></trkpt><trkpt lat="45.285536736461054" lon="7.992529297221128"><ele>236.0</ele><time>2026-05-01T14:45:19.999Z</time></trkpt><trkpt lat="45.28532503044841" lon="7.9923016514158025"><ele>236.0</ele><time>2026-05-01T14:45:20.999Z</time></trkpt><trkpt lat="45.285119733068015" lon="7.992080671278361"><ele>236.0</ele><time>2026-05-01T14:45:21.999Z</time></trkpt><trkpt lat="45.28492469466755" lon="7.991868668726492"><ele>236.0</ele><time>2026-05-01T14:45:22.999Z</time></trkpt><trkpt lat="45.28473228456179" lon="7.991663043448487"><ele>236.0</ele><time>2026-05-01T14:45:23.999Z</time></trkpt><trkpt lat="45.28454207276109" lon="7.991462276986884"><ele>236.0</ele><time>2026-05-01T14:45:24.999Z</time></trkpt><trkpt lat="45.28434035703913" lon="7.991255428990617"><ele>236.0</ele><time>2026-05-01T14:45:25.999Z</time></trkpt><trkpt lat="45.2841459151597" lon="7.9910212226036155"><ele>236.0</ele><time>2026-05-01T14:45:26.999Z</time></trkpt><trkpt lat="45.28394514656229" lon="7.990812051140611"><ele>236.0</ele><time>2026-05-01T14:45:27.999Z</time></trkpt><trkpt lat="45.28371730586669" lon="7.990637342264383"><ele>235.5</ele><time>2026-05-01T14:45:28.999Z</time></trkpt><trkpt lat="45.28350840057831" lon="7.990431747659228"><ele>235.0</ele><time>2026-05-01T14:45:29.999Z</time></trkpt><trkpt lat="45.283310512827846" lon="7.990230524858111"><ele>235.0</ele><time>2026-05-01T14:45:30.999Z</time></trkpt><trkpt lat="45.28312433602599" lon="7.990043540409207"><ele>235.0</ele><time>2026-05-01T14:45:31.999Z</time></trkpt><trkpt lat="45.28294660956324" lon="7.989867570994546"><ele>235.0</ele><time>2026-05-01T14:45:32.999Z</time></trkpt><trkpt lat="45.28276742446715" lon="7.9896903315986005"><ele>234.66666666666666</ele><time>2026-05-01T14:45:33.999Z</time></trkpt><trkpt lat="45.28258495704433" lon="7.9895092701030475"><ele>234.33333333333331</ele><time>2026-05-01T14:45:34.999Z</time></trkpt><trkpt lat="45.282409461839535" lon="7.989329736296412"><ele>234.0</ele><time>2026-05-01T14:45:35.999Z</time></trkpt><trkpt lat="45.28223290648622" lon="7.989158483521831"><ele>234.0</ele><time>2026-05-01T14:45:36.999Z</time></trkpt><trkpt lat="45.282058517924185" lon="7.988986305251036"><ele>234.0</ele><time>2026-05-01T14:45:37.999Z</time></trkpt><trkpt lat="45.28188219556793" lon="7.988814121083942"><ele>234.0</ele><time>2026-05-01T14:45:38.999Z</time></trkpt><trkpt lat="45.28170849590806" lon="7.988644146567329"><ele>234.0</ele><time>2026-05-01T14:45:39.999Z</time></trkpt><trkpt lat="45.281534402663425" lon="7.988472635142019"><ele>234.0</ele><time>2026-05-01T14:45:40.999Z</time></trkpt><trkpt lat="45.281358125537594" lon="7.988298551902228"><ele>234.0</ele><time>2026-05-01T14:45:41.999Z</time></trkpt><trkpt lat="45.28117522136439" lon="7.988120275209248"><ele>233.33333333333331</ele><time>2026-05-01T14:45:42.999Z</time></trkpt><trkpt lat="45.280997788612225" lon="7.987950208359038"><ele>232.66666666666666</ele><time>2026-05-01T14:45:43.999Z</time></trkpt><trkpt lat="45.28081427339522" lon="7.987773639702"><ele>232.0</ele><time>2026-05-01T14:45:44.999Z</time></trkpt><trkpt lat="45.28062200898067" lon="7.987586845361455"><ele>231.5</ele><time>2026-05-01T14:45:45.999Z</time></trkpt><trkpt lat="45.2804342032452" lon="7.987400167333746"><ele>231.0</ele><time>2026-05-01T14:45:46.999Z</time></trkpt><trkpt lat="45.28024024690743" lon="7.98721090428606"><ele>231.0</ele><time>2026-05-01T14:45:47.999Z</time></trkpt><trkpt lat="45.280048652865695" lon="7.987025881680362"><ele>231.0</ele><time>2026-05-01T14:45:48.999Z</time></trkpt><trkpt lat="45.27984611620603" lon="7.986828329471549"><ele>232.0</ele><time>2026-05-01T14:45:49.999Z</time></trkpt><trkpt lat="45.27965141136144" lon="7.9866386118647545"><ele>233.0</ele><time>2026-05-01T14:45:50.999Z</time></trkpt><trkpt lat="45.27946688569306" lon="7.986459009108198"><ele>233.0</ele><time>2026-05-01T14:45:51.999Z</time></trkpt><trkpt lat="45.27928862270555" lon="7.986283325274987"><ele>233.0</ele><time>2026-05-01T14:45:52.999Z</time></trkpt><trkpt lat="45.279099943537574" lon="7.986099709237881"><ele>233.0</ele><time>2026-05-01T14:45:53.999Z</time></trkpt><trkpt lat="45.278887603995734" lon="7.9858958675767315"><ele>231.5</ele><time>2026-05-01T14:45:54.999Z</time></trkpt><trkpt lat="45.27865313666309" lon="7.985671012396172"><ele>230.0</ele><time>2026-05-01T14:45:55.999Z</time></trkpt><trkpt lat="45.27842761755828" lon="7.9854504092842715"><ele>230.0</ele><time>2026-05-01T14:45:56.999Z</time></trkpt><trkpt lat="45.27821514819407" lon="7.985238535377821"><ele>230.0</ele><time>2026-05-01T14:45:57.999Z</time></trkpt><trkpt lat="45.27799675447164" lon="7.985019383602276"><ele>230.5</ele><time>2026-05-01T14:45:58.999Z</time></trkpt><trkpt lat="45.27777008839623" lon="7.984790625959328"><ele>231.0</ele><time>2026-05-01T14:45:59.999Z</time></trkpt><trkpt lat="45.27755499699457" lon="7.984573508349042"><ele>231.0</ele><time>2026-05-01T14:46:00.999Z</time></trkpt><trkpt lat="45.27735079035405" lon="7.984365690588482"><ele>231.0</ele><time>2026-05-01T14:46:01.999Z</time></trkpt><trkpt lat="45.27713531186371" lon="7.984144786722329"><ele>230.5</ele><time>2026-05-01T14:46:02.999Z</time></trkpt><trkpt lat="45.27693112116105" lon="7.983940090029319"><ele>230.0</ele><time>2026-05-01T14:46:03.999Z</time></trkpt><trkpt lat="45.276742316473616" lon="7.9837530085546335"><ele>230.0</ele><time>2026-05-01T14:46:04.999Z</time></trkpt><trkpt lat="45.276565810529085" lon="7.983579649097287"><ele>230.0</ele><time>2026-05-01T14:46:05.999Z</time></trkpt><trkpt lat="45.27640348406181" lon="7.983420766266863"><ele>230.0</ele><time>2026-05-01T14:46:06.999Z</time></trkpt><trkpt lat="45.27624241944824" lon="7.983265100277469"><ele>229.66666666666669</ele><time>2026-05-01T14:46:07.999Z</time></trkpt><trkpt lat="45.276081236869764" lon="7.983106524214156"><ele>229.33333333333331</ele><time>2026-05-01T14:46:08.999Z</time></trkpt><trkpt lat="45.27592801020189" lon="7.98295277484939"><ele>229.0</ele><time>2026-05-01T14:46:09.999Z</time></trkpt><trkpt lat="45.27576978389183" lon="7.982796203608473"><ele>229.0</ele><time>2026-05-01T14:46:10.999Z</time></trkpt><trkpt lat="45.275606855236376" lon="7.982636851274987"><ele>229.0</ele><time>2026-05-01T14:46:11.999Z</time></trkpt><trkpt lat="45.27544991036439" lon="7.982480366424606"><ele>229.0</ele><time>2026-05-01T14:46:13Z</time></trkpt><trkpt lat="45.27529802229493" lon="7.982330189632067"><ele>229.66666666666666</ele><time>2026-05-01T14:46:14Z</time></trkpt><trkpt lat="45.27516538394233" lon="7.982193601783869"><ele>230.33333333333331</ele><time>2026-05-01T14:46:15Z</time></trkpt><trkpt lat="45.275048322726455" lon="7.982072593905284"><ele>231.0</ele><time>2026-05-01T14:46:16Z</time></trkpt><trkpt lat="45.274922022179524" lon="7.981941296778016"><ele>231.0</ele><time>2026-05-01T14:46:17Z</time></trkpt><trkpt lat="45.27478023642331" lon="7.981802213844683"><ele>231.0</ele><time>2026-05-01T14:46:18Z</time></trkpt><trkpt lat="45.274639036564444" lon="7.981668328069012"><ele>231.0</ele><time>2026-05-01T14:46:19Z</time></trkpt><trkpt lat="45.2745100120205" lon="7.981541236079288"><ele>230.0</ele><time>2026-05-01T14:46:20Z</time></trkpt><trkpt lat="45.27438614628857" lon="7.9814218843098095"><ele>229.0</ele><time>2026-05-01T14:46:21Z</time></trkpt><trkpt lat="45.27426681756035" lon="7.981303259243836"><ele>228.0</ele><time>2026-05-01T14:46:22Z</time></trkpt><trkpt lat="45.27415421404533" lon="7.981191681183239"><ele>227.0</ele><time>2026-05-01T14:46:23Z</time></trkpt><trkpt lat="45.27404547261654" lon="7.9810954185077305"><ele>226.0</ele><time>2026-05-01T14:46:24Z</time></trkpt><trkpt lat="45.27393200140471" lon="7.981020354340681"><ele>225.0</ele><time>2026-05-01T14:46:25Z</time></trkpt><trkpt lat="45.27380606828555" lon="7.980962862798981"><ele>224.0</ele><time>2026-05-01T14:46:26Z</time></trkpt><trkpt lat="45.27367677699482" lon="7.9809340918358895"><ele>223.0</ele><time>2026-05-01T14:46:27Z</time></trkpt><trkpt lat="45.27354915616573" lon="7.980943017928045"><ele>223.0</ele><time>2026-05-01T14:46:28Z</time></trkpt><trkpt lat="45.27342050574597" lon="7.980987875097993"><ele>223.0</ele><time>2026-05-01T14:46:29Z</time></trkpt><trkpt lat="45.27329436296495" lon="7.98107323373038"><ele>223.0</ele><time>2026-05-01T14:46:30Z</time></trkpt><trkpt lat="45.27316475044819" lon="7.981201480062302"><ele>223.0</ele><time>2026-05-01T14:46:31Z</time></trkpt><trkpt lat="45.273020011638756" lon="7.981361678218145"><ele>222.66666666666666</ele><time>2026-05-01T14:46:32Z</time></trkpt><trkpt lat="45.27287389848303" lon="7.981516431459351"><ele>222.33333333333331</ele><time>2026-05-01T14:46:33Z</time></trkpt><trkpt lat="45.272743747510454" lon="7.981654451713679"><ele>222.0</ele><time>2026-05-01T14:46:34Z</time></trkpt><trkpt lat="45.272622696149135" lon="7.98178569008164"><ele>222.0</ele><time>2026-05-01T14:46:35Z</time></trkpt><trkpt lat="45.27251161445703" lon="7.981903277213844"><ele>222.0</ele><time>2026-05-01T14:46:35.999Z</time></trkpt><trkpt lat="45.2723952283573" lon="7.982023524511072"><ele>222.0</ele><time>2026-05-01T14:46:36.999Z</time></trkpt><trkpt lat="45.27228003835981" lon="7.982142760825982"><ele>222.0</ele><time>2026-05-01T14:46:37.999Z</time></trkpt><trkpt lat="45.27216724018567" lon="7.982259884205848"><ele>221.25</ele><time>2026-05-01T14:46:38.999Z</time></trkpt><trkpt lat="45.27206195724075" lon="7.982373756480108"><ele>220.5</ele><time>2026-05-01T14:46:39.999Z</time></trkpt><trkpt lat="45.27196570790839" lon="7.982483003322131"><ele>219.75</ele><time>2026-05-01T14:46:40.999Z</time></trkpt><trkpt lat="45.271871242540556" lon="7.982587706131188"><ele>219.0</ele><time>2026-05-01T14:46:41.999Z</time></trkpt><trkpt lat="45.271776196321895" lon="7.982685760372884"><ele>219.0</ele><time>2026-05-01T14:46:42.999Z</time></trkpt><trkpt lat="45.27169403441119" lon="7.982762210225521"><ele>219.0</ele><time>2026-05-01T14:46:43.999Z</time></trkpt><trkpt lat="45.271617116818916" lon="7.982818278921291"><ele>219.0</ele><time>2026-05-01T14:46:44.999Z</time></trkpt><trkpt lat="45.27154107240471" lon="7.982841516360264"><ele>219.0</ele><time>2026-05-01T14:46:45.999Z</time></trkpt><trkpt lat="45.27146177741171" lon="7.982832212544527"><ele>219.0</ele><time>2026-05-01T14:46:46.999Z</time></trkpt><trkpt lat="45.27138715255518" lon="7.982787456508613"><ele>219.0</ele><time>2026-05-01T14:46:47.999Z</time></trkpt><trkpt lat="45.271323927460024" lon="7.98270521415932"><ele>218.2</ele><time>2026-05-01T14:46:48.999Z</time></trkpt><trkpt lat="45.27128452439668" lon="7.982587813350126"><ele>217.39999999999998</ele><time>2026-05-01T14:46:49.999Z</time></trkpt><trkpt lat="45.27127679633001" lon="7.982449912453223"><ele>216.6</ele><time>2026-05-01T14:46:50.999Z</time></trkpt><trkpt lat="45.27129630436736" lon="7.9823114938726425"><ele>215.8</ele><time>2026-05-01T14:46:51.999Z</time></trkpt><trkpt lat="45.27134369963626" lon="7.982179980319545"><ele>215.0</ele><time>2026-05-01T14:46:52.999Z</time></trkpt><trkpt lat="45.27140973631918" lon="7.982018733773704"><ele>215.33333333333334</ele><time>2026-05-01T14:46:53.999Z</time></trkpt><trkpt lat="45.27148996829458" lon="7.981800316019484"><ele>215.66666666666669</ele><time>2026-05-01T14:46:54.999Z</time></trkpt><trkpt lat="45.271571245217814" lon="7.98154837774315"><ele>216.0</ele><time>2026-05-01T14:46:55.999Z</time></trkpt><trkpt lat="45.27165142552869" lon="7.981297471630796"><ele>216.0</ele><time>2026-05-01T14:46:56.999Z</time></trkpt><trkpt lat="45.271721648135596" lon="7.981087088942273"><ele>216.0</ele><time>2026-05-01T14:46:57.999Z</time></trkpt><trkpt lat="45.27178950683854" lon="7.980898556535229"><ele>216.0</ele><time>2026-05-01T14:46:58.999Z</time></trkpt><trkpt lat="45.27185205474941" lon="7.980728063826113"><ele>216.0</ele><time>2026-05-01T14:46:59.999Z</time></trkpt><trkpt lat="45.27190426847646" lon="7.980577533262662"><ele>215.4</ele><time>2026-05-01T14:47:00.999Z</time></trkpt><trkpt lat="45.27194997941864" lon="7.980447835656377"><ele>214.8</ele><time>2026-05-01T14:47:01.999Z</time></trkpt><trkpt lat="45.27199353271235" lon="7.980320684593692"><ele>214.20000000000002</ele><time>2026-05-01T14:47:02.999Z</time></trkpt><trkpt lat="45.27202738039649" lon="7.980195125299083"><ele>213.60000000000002</ele><time>2026-05-01T14:47:03.999Z</time></trkpt><trkpt lat="45.27203512121587" lon="7.980070920572546"><ele>213.0</ele><time>2026-05-01T14:47:04.999Z</time></trkpt><trkpt lat="45.27201875425288" lon="7.979934731293974"><ele>211.4</ele><time>2026-05-01T14:47:05.999Z</time></trkpt><trkpt lat="45.271986867544534" lon="7.979797725583822"><ele>209.8</ele><time>2026-05-01T14:47:06.999Z</time></trkpt><trkpt lat="45.271936885877096" lon="7.979686238789305"><ele>208.2</ele><time>2026-05-01T14:47:07.999Z</time></trkpt><trkpt lat="45.27187209989911" lon="7.979596656427892"><ele>206.6</ele><time>2026-05-01T14:47:08.999Z</time></trkpt><trkpt lat="45.27179707584822" lon="7.979527186366321"><ele>205.0</ele><time>2026-05-01T14:47:09.999Z</time></trkpt><trkpt lat="45.2717052213802" lon="7.979484018060007"><ele>205.0</ele><time>2026-05-01T14:47:10.999Z</time></trkpt><trkpt lat="45.271600125110474" lon="7.979481047575106"><ele>205.0</ele><time>2026-05-01T14:47:11.999Z</time></trkpt><trkpt lat="45.27148175429747" lon="7.979511401020253"><ele>205.0</ele><time>2026-05-01T14:47:12.999Z</time></trkpt><trkpt lat="45.27136259469105" lon="7.9795698675622"><ele>205.0</ele><time>2026-05-01T14:47:13.999Z</time></trkpt><trkpt lat="45.271249538492334" lon="7.979646210752951"><ele>204.4</ele><time>2026-05-01T14:47:14.999Z</time></trkpt><trkpt lat="45.2711591065619" lon="7.979712661209494"><ele>203.8</ele><time>2026-05-01T14:47:15.999Z</time></trkpt><trkpt lat="45.27108478046802" lon="7.979763638530691"><ele>203.2</ele><time>2026-05-01T14:47:16.999Z</time></trkpt><trkpt lat="45.271019801466046" lon="7.9797970907825215"><ele>202.6</ele><time>2026-05-01T14:47:17.999Z</time></trkpt><trkpt lat="45.27088329849783" lon="7.979812228282366"><ele>202.0</ele><time>2026-05-01T14:47:19.999Z</time></trkpt><trkpt lat="45.270788153268896" lon="7.97979380668677"><ele>202.0</ele><time>2026-05-01T14:47:20.999Z</time></trkpt><trkpt lat="45.27068124917557" lon="7.979792781452587"><ele>202.0</ele><time>2026-05-01T14:47:21.999Z</time></trkpt><trkpt lat="45.270573542439564" lon="7.979827828570813"><ele>202.0</ele><time>2026-05-01T14:47:22.999Z</time></trkpt><trkpt lat="45.270468861934326" lon="7.979870732992198"><ele>202.0</ele><time>2026-05-01T14:47:23.999Z</time></trkpt><trkpt lat="45.270362462800904" lon="7.979903256044543"><ele>202.0</ele><time>2026-05-01T14:47:24.999Z</time></trkpt><trkpt lat="45.27027394542491" lon="7.979903951849362"><ele>200.5</ele><time>2026-05-01T14:47:25.999Z</time></trkpt><trkpt lat="45.27016495034476" lon="7.979876217710297"><ele>199.0</ele><time>2026-05-01T14:47:26.999Z</time></trkpt><trkpt lat="45.27005157721337" lon="7.979813336385748"><ele>197.5</ele><time>2026-05-01T14:47:27.999Z</time></trkpt><trkpt lat="45.26993005100779" lon="7.979724512009917"><ele>196.0</ele><time>2026-05-01T14:47:28.999Z</time></trkpt><trkpt lat="45.26978985553825" lon="7.979616846863139"><ele>195.33333333333331</ele><time>2026-05-01T14:47:29.999Z</time></trkpt><trkpt lat="45.269640300276066" lon="7.979510527149884"><ele>194.66666666666669</ele><time>2026-05-01T14:47:30.999Z</time></trkpt><trkpt lat="45.26950273834048" lon="7.9794159110917535"><ele>194.0</ele><time>2026-05-01T14:47:31.999Z</time></trkpt><trkpt lat="45.26937663575353" lon="7.979331281058742"><ele>194.0</ele><time>2026-05-01T14:47:32.999Z</time></trkpt><trkpt lat="45.269256583450165" lon="7.979238795721941"><ele>194.0</ele><time>2026-05-01T14:47:33.999Z</time></trkpt><trkpt lat="45.269103232618065" lon="7.97913183698728"><ele>194.0</ele><time>2026-05-01T14:47:34.999Z</time></trkpt><trkpt lat="45.26893809614135" lon="7.979014186149854"><ele>193.66666666666669</ele><time>2026-05-01T14:47:35.999Z</time></trkpt><trkpt lat="45.268789755225114" lon="7.9789148718620675"><ele>193.33333333333331</ele><time>2026-05-01T14:47:36.999Z</time></trkpt><trkpt lat="45.268629602159116" lon="7.978800160006078"><ele>193.0</ele><time>2026-05-01T14:47:37.999Z</time></trkpt><trkpt lat="45.268447722859754" lon="7.978668818964083"><ele>193.0</ele><time>2026-05-01T14:47:38.999Z</time></trkpt><trkpt lat="45.268267987599415" lon="7.978540137109954"><ele>193.0</ele><time>2026-05-01T14:47:39.999Z</time></trkpt><trkpt lat="45.26809181673026" lon="7.978413279202789"><ele>193.0</ele><time>2026-05-01T14:47:40.999Z</time></trkpt><trkpt lat="45.2679244665062" lon="7.9782909577719"><ele>192.66666666666666</ele><time>2026-05-01T14:47:41.999Z</time></trkpt><trkpt lat="45.26776914845039" lon="7.97817758157481"><ele>192.33333333333331</ele><time>2026-05-01T14:47:42.999Z</time></trkpt><trkpt lat="45.26761661621611" lon="7.978069021770567"><ele>192.0</ele><time>2026-05-01T14:47:43.999Z</time></trkpt><trkpt lat="45.26745904059597" lon="7.97795426735079"><ele>192.0</ele><time>2026-05-01T14:47:44.999Z</time></trkpt><trkpt lat="45.26729551140202" lon="7.977836550584604"><ele>192.0</ele><time>2026-05-01T14:47:45.999Z</time></trkpt><trkpt lat="45.26713415781326" lon="7.977723066583245"><ele>192.0</ele><time>2026-05-01T14:47:46.999Z</time></trkpt><trkpt lat="45.26696373872921" lon="7.97760680662353"><ele>192.0</ele><time>2026-05-01T14:47:47.999Z</time></trkpt><trkpt lat="45.26678804802237" lon="7.97748745445622"><ele>192.0</ele><time>2026-05-01T14:47:48.999Z</time></trkpt><trkpt lat="45.266622005268864" lon="7.977346895863357"><ele>192.0</ele><time>2026-05-01T14:47:49.999Z</time></trkpt><trkpt lat="45.26645923725345" lon="7.977230351306176"><ele>191.33333333333334</ele><time>2026-05-01T14:47:50.999Z</time></trkpt><trkpt lat="45.26627395501684" lon="7.9771194363570785"><ele>190.66666666666669</ele><time>2026-05-01T14:47:51.999Z</time></trkpt><trkpt lat="45.26609205957164" lon="7.976984788293654"><ele>190.0</ele><time>2026-05-01T14:47:52.999Z</time></trkpt><trkpt lat="45.26589967763196" lon="7.976849746736437"><ele>190.0</ele><time>2026-05-01T14:47:53.999Z</time></trkpt><trkpt lat="45.265704243972955" lon="7.976687267217414"><ele>190.0</ele><time>2026-05-01T14:47:54.999Z</time></trkpt><trkpt lat="45.265503406991236" lon="7.976544094897178"><ele>189.0</ele><time>2026-05-01T14:47:55.999Z</time></trkpt><trkpt lat="45.26529680808525" lon="7.976396755800833"><ele>188.0</ele><time>2026-05-01T14:47:56.999Z</time></trkpt><trkpt lat="45.265091535100694" lon="7.976250259703994"><ele>188.0</ele><time>2026-05-01T14:47:57.999Z</time></trkpt><trkpt lat="45.26490568243609" lon="7.97611755085748"><ele>188.0</ele><time>2026-05-01T14:47:58.999Z</time></trkpt><trkpt lat="45.264724294811444" lon="7.976013741243271"><ele>188.0</ele><time>2026-05-01T14:47:59.999Z</time></trkpt><trkpt lat="45.26455031227174" lon="7.975882450820615"><ele>188.33333333333331</ele><time>2026-05-01T14:48:00.999Z</time></trkpt><trkpt lat="45.26437856131766" lon="7.975756893258917"><ele>188.66666666666666</ele><time>2026-05-01T14:48:01.999Z</time></trkpt><trkpt lat="45.26420507655252" lon="7.975635756640532"><ele>189.0</ele><time>2026-05-01T14:48:02.999Z</time></trkpt><trkpt lat="45.26403164234347" lon="7.975515167935958"><ele>190.0</ele><time>2026-05-01T14:48:03.999Z</time></trkpt><trkpt lat="45.26386319702727" lon="7.97537344618019"><ele>191.0</ele><time>2026-05-01T14:48:04.999Z</time></trkpt><trkpt lat="45.26368494875823" lon="7.975246004332806"><ele>192.0</ele><time>2026-05-01T14:48:05.999Z</time></trkpt><trkpt lat="45.26350900617406" lon="7.9751201891700365"><ele>192.0</ele><time>2026-05-01T14:48:06.999Z</time></trkpt><trkpt lat="45.2633355450849" lon="7.974996150223194"><ele>192.0</ele><time>2026-05-01T14:48:07.999Z</time></trkpt><trkpt lat="45.26315776127787" lon="7.9748692595471065"><ele>192.0</ele><time>2026-05-01T14:48:08.999Z</time></trkpt><trkpt lat="45.26298218713472" lon="7.9747441196187845"><ele>193.0</ele><time>2026-05-01T14:48:09.999Z</time></trkpt><trkpt lat="45.26279280186329" lon="7.974609135869455"><ele>194.0</ele><time>2026-05-01T14:48:10.999Z</time></trkpt><trkpt lat="45.262564715784386" lon="7.974446568225264"><ele>194.0</ele><time>2026-05-01T14:48:11.999Z</time></trkpt><trkpt lat="45.262312748497344" lon="7.974266979339173"><ele>194.0</ele><time>2026-05-01T14:48:12.999Z</time></trkpt><trkpt lat="45.26206409733652" lon="7.974089753999332"><ele>194.5</ele><time>2026-05-01T14:48:13.999Z</time></trkpt><trkpt lat="45.26181787687668" lon="7.973914261152585"><ele>195.0</ele><time>2026-05-01T14:48:14.999Z</time></trkpt><trkpt lat="45.261580670829645" lon="7.9737451932667875"><ele>193.0</ele><time>2026-05-01T14:48:15.999Z</time></trkpt><trkpt lat="45.2613495321024" lon="7.973580449873561"><ele>191.0</ele><time>2026-05-01T14:48:16.999Z</time></trkpt><trkpt lat="45.26111569263137" lon="7.973439759916722"><ele>190.0</ele><time>2026-05-01T14:48:17.999Z</time></trkpt><trkpt lat="45.26090645021158" lon="7.973289075524879"><ele>189.0</ele><time>2026-05-01T14:48:18.999Z</time></trkpt><trkpt lat="45.26069460491694" lon="7.973138654511618"><ele>190.0</ele><time>2026-05-01T14:48:19.999Z</time></trkpt><trkpt lat="45.26048928009058" lon="7.972966813293394"><ele>191.0</ele><time>2026-05-01T14:48:20.999Z</time></trkpt><trkpt lat="45.26026887853734" lon="7.972809785006209"><ele>191.0</ele><time>2026-05-01T14:48:21.999Z</time></trkpt><trkpt lat="45.26004542502966" lon="7.972650582289829"><ele>191.0</ele><time>2026-05-01T14:48:22.999Z</time></trkpt><trkpt lat="45.2598434689404" lon="7.972506695727898"><ele>190.0</ele><time>2026-05-01T14:48:23.999Z</time></trkpt><trkpt lat="45.25964852760033" lon="7.972367806926476"><ele>189.0</ele><time>2026-05-01T14:48:24.999Z</time></trkpt><trkpt lat="45.259447682649046" lon="7.972224712000129"><ele>188.0</ele><time>2026-05-01T14:48:25.999Z</time></trkpt><trkpt lat="45.259256037702364" lon="7.972088172642358"><ele>188.0</ele><time>2026-05-01T14:48:26.999Z</time></trkpt><trkpt lat="45.25906710685558" lon="7.971953567061033"><ele>188.0</ele><time>2026-05-01T14:48:27.999Z</time></trkpt><trkpt lat="45.258858724267554" lon="7.971842631849001"><ele>188.0</ele><time>2026-05-01T14:48:28.999Z</time></trkpt><trkpt lat="45.25866664901384" lon="7.971706279409692"><ele>188.66666666666666</ele><time>2026-05-01T14:48:29.999Z</time></trkpt><trkpt lat="45.25848565423575" lon="7.971574199049597"><ele>189.33333333333334</ele><time>2026-05-01T14:48:30.999Z</time></trkpt><trkpt lat="45.25829050423005" lon="7.9714342028114755"><ele>190.0</ele><time>2026-05-01T14:48:31.999Z</time></trkpt><trkpt lat="45.25809181325844" lon="7.971292535849943"><ele>190.66666666666669</ele><time>2026-05-01T14:48:32.999Z</time></trkpt><trkpt lat="45.257906841961905" lon="7.971159322557516"><ele>191.33333333333334</ele><time>2026-05-01T14:48:33.999Z</time></trkpt><trkpt lat="45.257729246350635" lon="7.971032735458238"><ele>192.0</ele><time>2026-05-01T14:48:34.999Z</time></trkpt><trkpt lat="45.25755149923837" lon="7.970907192705024"><ele>192.33333333333331</ele><time>2026-05-01T14:48:35.999Z</time></trkpt><trkpt lat="45.25737040757314" lon="7.970779522226701"><ele>192.66666666666666</ele><time>2026-05-01T14:48:36.999Z</time></trkpt><trkpt lat="45.257199609300066" lon="7.970653681840808"><ele>193.0</ele><time>2026-05-01T14:48:37.999Z</time></trkpt><trkpt lat="45.257031011394915" lon="7.970529278756458"><ele>193.33333333333331</ele><time>2026-05-01T14:48:38.999Z</time></trkpt><trkpt lat="45.25686307198517" lon="7.9704113170126645"><ele>193.66666666666669</ele><time>2026-05-01T14:48:39.999Z</time></trkpt><trkpt lat="45.25669389889977" lon="7.970292395684823"><ele>194.0</ele><time>2026-05-01T14:48:40.999Z</time></trkpt><trkpt lat="45.256530757714984" lon="7.970175071906887"><ele>193.33333333333334</ele><time>2026-05-01T14:48:41.999Z</time></trkpt><trkpt lat="45.2563771258172" lon="7.970060856360212"><ele>192.66666666666669</ele><time>2026-05-01T14:48:42.999Z</time></trkpt><trkpt lat="45.25622368520922" lon="7.9699477886772945"><ele>192.0</ele><time>2026-05-01T14:48:43.999Z</time></trkpt><trkpt lat="45.25606657342056" lon="7.969830815190618"><ele>191.66666666666666</ele><time>2026-05-01T14:48:44.999Z</time></trkpt><trkpt lat="45.25590439784707" lon="7.9697113072967785"><ele>191.33333333333331</ele><time>2026-05-01T14:48:45.999Z</time></trkpt><trkpt lat="45.255743359041844" lon="7.969592940480867"><ele>191.0</ele><time>2026-05-01T14:48:46.999Z</time></trkpt><trkpt lat="45.25559011763045" lon="7.96947581088532"><ele>190.66666666666666</ele><time>2026-05-01T14:48:47.999Z</time></trkpt><trkpt lat="45.25544101007164" lon="7.969346859735321"><ele>190.33333333333334</ele><time>2026-05-01T14:48:48.999Z</time></trkpt><trkpt lat="45.25529479307444" lon="7.969200054584158"><ele>190.0</ele><time>2026-05-01T14:48:49.999Z</time></trkpt><trkpt lat="45.2551539311921" lon="7.969031015954512"><ele>190.0</ele><time>2026-05-01T14:48:50.999Z</time></trkpt><trkpt lat="45.255014688436354" lon="7.968839887587131"><ele>190.0</ele><time>2026-05-01T14:48:51.999Z</time></trkpt><trkpt lat="45.25487953953846" lon="7.968632776766231"><ele>190.0</ele><time>2026-05-01T14:48:52.999Z</time></trkpt><trkpt lat="45.25475467041073" lon="7.968409326373411"><ele>190.0</ele><time>2026-05-01T14:48:53.999Z</time></trkpt><trkpt lat="45.25463470683631" lon="7.968174973408786"><ele>190.0</ele><time>2026-05-01T14:48:54.999Z</time></trkpt><trkpt lat="45.25452973643435" lon="7.967934400768516"><ele>190.0</ele><time>2026-05-01T14:48:55.999Z</time></trkpt><trkpt lat="45.25443674919871" lon="7.967676408878918"><ele>190.33333333333334</ele><time>2026-05-01T14:48:56.999Z</time></trkpt><trkpt lat="45.25435190661627" lon="7.967395743577944"><ele>190.66666666666666</ele><time>2026-05-01T14:48:57.999Z</time></trkpt><trkpt lat="45.254268656746575" lon="7.967091584708527"><ele>191.0</ele><time>2026-05-01T14:48:58.999Z</time></trkpt><trkpt lat="45.254186859598114" lon="7.9667856075523265"><ele>191.5</ele><time>2026-05-01T14:48:59.999Z</time></trkpt><trkpt lat="45.25410084399584" lon="7.966473363650762"><ele>192.0</ele><time>2026-05-01T14:49:00.999Z</time></trkpt><trkpt lat="45.25401677831787" lon="7.966178954212407"><ele>192.66666666666669</ele><time>2026-05-01T14:49:01.999Z</time></trkpt><trkpt lat="45.25393617907562" lon="7.9658938330391935"><ele>193.33333333333334</ele><time>2026-05-01T14:49:02.999Z</time></trkpt><trkpt lat="45.25386576648511" lon="7.965611917621699"><ele>194.0</ele><time>2026-05-01T14:49:03.999Z</time></trkpt><trkpt lat="45.25379291010819" lon="7.965325408352153"><ele>195.0</ele><time>2026-05-01T14:49:04.999Z</time></trkpt><trkpt lat="45.25371594954106" lon="7.965029427694127"><ele>196.0</ele><time>2026-05-01T14:49:05.999Z</time></trkpt><trkpt lat="45.25363418451803" lon="7.964715878125697"><ele>196.66666666666666</ele><time>2026-05-01T14:49:06.999Z</time></trkpt><trkpt lat="45.25356238688965" lon="7.964431717851716"><ele>197.33333333333331</ele><time>2026-05-01T14:49:07.999Z</time></trkpt><trkpt lat="45.253493948791295" lon="7.964158129625012"><ele>198.0</ele><time>2026-05-01T14:49:08.999Z</time></trkpt><trkpt lat="45.25342480823554" lon="7.963889777252131"><ele>198.33333333333331</ele><time>2026-05-01T14:49:09.999Z</time></trkpt><trkpt lat="45.2533543592794" lon="7.963616668690295"><ele>198.66666666666666</ele><time>2026-05-01T14:49:10.999Z</time></trkpt><trkpt lat="45.25328433972414" lon="7.963346815563138"><ele>199.0</ele><time>2026-05-01T14:49:11.999Z</time></trkpt><trkpt lat="45.2532117148408" lon="7.963076878771021"><ele>199.33333333333331</ele><time>2026-05-01T14:49:12.999Z</time></trkpt><trkpt lat="45.253141671413495" lon="7.962803342099156"><ele>199.66666666666669</ele><time>2026-05-01T14:49:13.999Z</time></trkpt><trkpt lat="45.25307493870954" lon="7.962540926219588"><ele>200.0</ele><time>2026-05-01T14:49:14.999Z</time></trkpt><trkpt lat="45.25300885079147" lon="7.962283174451209"><ele>201.0</ele><time>2026-05-01T14:49:15.999Z</time></trkpt><trkpt lat="45.25294088121027" lon="7.9620253681335695"><ele>202.0</ele><time>2026-05-01T14:49:16.999Z</time></trkpt><trkpt lat="45.25287261601393" lon="7.961763079850928"><ele>203.0</ele><time>2026-05-01T14:49:17.999Z</time></trkpt><trkpt lat="45.25280671150736" lon="7.961506634571426"><ele>206.33333333333334</ele><time>2026-05-01T14:49:18.999Z</time></trkpt><trkpt lat="45.252745652899385" lon="7.961260760905265"><ele>209.66666666666669</ele><time>2026-05-01T14:49:19.999Z</time></trkpt><trkpt lat="45.25268949940724" lon="7.961023742947869"><ele>213.0</ele><time>2026-05-01T14:49:20.999Z</time></trkpt><trkpt lat="45.2526306641427" lon="7.960791316800657"><ele>213.33333333333331</ele><time>2026-05-01T14:49:21.999Z</time></trkpt><trkpt lat="45.25255377832364" lon="7.960541594644994"><ele>213.66666666666666</ele><time>2026-05-01T14:49:22.999Z</time></trkpt><trkpt lat="45.25246922374324" lon="7.960289174325541"><ele>214.0</ele><time>2026-05-01T14:49:23.999Z</time></trkpt><trkpt lat="45.25237477245662" lon="7.960041317894342"><ele>214.33333333333331</ele><time>2026-05-01T14:49:24.999Z</time></trkpt><trkpt lat="45.25227678078067" lon="7.959805834594866"><ele>214.66666666666669</ele><time>2026-05-01T14:49:25.999Z</time></trkpt><trkpt lat="45.25217761288204" lon="7.9595777228302875"><ele>215.0</ele><time>2026-05-01T14:49:26.999Z</time></trkpt><trkpt lat="45.252075269596595" lon="7.959353797250877"><ele>214.66666666666669</ele><time>2026-05-01T14:49:28Z</time></trkpt><trkpt lat="45.25196410792538" lon="7.959134093242497"><ele>214.33333333333331</ele><time>2026-05-01T14:49:29Z</time></trkpt><trkpt lat="45.251839348482235" lon="7.958919308396771"><ele>214.0</ele><time>2026-05-01T14:49:30Z</time></trkpt><trkpt lat="45.25169919804269" lon="7.958704385606258"><ele>214.0</ele><time>2026-05-01T14:49:31Z</time></trkpt><trkpt lat="45.251553375523805" lon="7.958508593120616"><ele>214.0</ele><time>2026-05-01T14:49:32Z</time></trkpt><trkpt lat="45.251408389716396" lon="7.95832235866491"><ele>214.0</ele><time>2026-05-01T14:49:33Z</time></trkpt><trkpt lat="45.25126238613003" lon="7.958141013199751"><ele>215.0</ele><time>2026-05-01T14:49:34Z</time></trkpt><trkpt lat="45.25111004771044" lon="7.957966924593503"><ele>216.0</ele><time>2026-05-01T14:49:35Z</time></trkpt><trkpt lat="45.25095176119806" lon="7.957803788878248"><ele>217.0</ele><time>2026-05-01T14:49:36Z</time></trkpt><trkpt lat="45.250787254165594" lon="7.95765202666014"><ele>215.66666666666666</ele><time>2026-05-01T14:49:37Z</time></trkpt><trkpt lat="45.250616010534" lon="7.957510873951345"><ele>214.33333333333331</ele><time>2026-05-01T14:49:38Z</time></trkpt><trkpt lat="45.250439007344994" lon="7.957382248585629"><ele>213.0</ele><time>2026-05-01T14:49:39Z</time></trkpt><trkpt lat="45.25025999414881" lon="7.957265748343011"><ele>213.0</ele><time>2026-05-01T14:49:40Z</time></trkpt><trkpt lat="45.25007694056592" lon="7.957157518768727"><ele>213.0</ele><time>2026-05-01T14:49:41Z</time></trkpt><trkpt lat="45.249888020638956" lon="7.957059720385353"><ele>213.0</ele><time>2026-05-01T14:49:42Z</time></trkpt><trkpt lat="45.24969762879401" lon="7.9569704272003765"><ele>213.33333333333331</ele><time>2026-05-01T14:49:43Z</time></trkpt><trkpt lat="45.24950614594324" lon="7.956897475597981"><ele>213.66666666666666</ele><time>2026-05-01T14:49:44Z</time></trkpt><trkpt lat="45.24931366799647" lon="7.956836002439839"><ele>214.0</ele><time>2026-05-01T14:49:45Z</time></trkpt><trkpt lat="45.249117914957615" lon="7.956786991595679"><ele>214.0</ele><time>2026-05-01T14:49:46Z</time></trkpt><trkpt lat="45.24892248254547" lon="7.956748915135193"><ele>214.0</ele><time>2026-05-01T14:49:47Z</time></trkpt><trkpt lat="45.24872046938753" lon="7.956717077389514"><ele>214.0</ele><time>2026-05-01T14:49:48Z</time></trkpt><trkpt lat="45.24852184806827" lon="7.9566995095831565"><ele>214.0</ele><time>2026-05-01T14:49:49Z</time></trkpt><trkpt lat="45.248319755436526" lon="7.956663231579674"><ele>214.0</ele><time>2026-05-01T14:49:50Z</time></trkpt><trkpt lat="45.24811638757667" lon="7.956653016411617"><ele>214.0</ele><time>2026-05-01T14:49:51Z</time></trkpt><trkpt lat="45.24791845184785" lon="7.956644085609972"><ele>213.66666666666666</ele><time>2026-05-01T14:49:52Z</time></trkpt><trkpt lat="45.24771894553768" lon="7.956632473890596"><ele>213.33333333333331</ele><time>2026-05-01T14:49:53Z</time></trkpt><trkpt lat="45.24751527533702" lon="7.95662434924795"><ele>213.0</ele><time>2026-05-01T14:49:54Z</time></trkpt><trkpt lat="45.24732104020396" lon="7.956643310903317"><ele>212.66666666666669</ele><time>2026-05-01T14:49:55Z</time></trkpt><trkpt lat="45.24712349113651" lon="7.95664334247021"><ele>212.33333333333334</ele><time>2026-05-01T14:49:56Z</time></trkpt><trkpt lat="45.246927281957035" lon="7.956655767646108"><ele>212.0</ele><time>2026-05-01T14:49:57Z</time></trkpt><trkpt lat="45.24673274708521" lon="7.9566800411082195"><ele>211.66666666666669</ele><time>2026-05-01T14:49:58Z</time></trkpt><trkpt lat="45.24654184990251" lon="7.956718363825082"><ele>211.33333333333331</ele><time>2026-05-01T14:49:59Z</time></trkpt><trkpt lat="45.24635381096742" lon="7.956764606422417"><ele>211.0</ele><time>2026-05-01T14:50:00Z</time></trkpt><trkpt lat="45.2461664216976" lon="7.95682361448497"><ele>210.66666666666666</ele><time>2026-05-01T14:50:01Z</time></trkpt><trkpt lat="45.245976175876805" lon="7.956900723413762"><ele>210.33333333333331</ele><time>2026-05-01T14:50:02Z</time></trkpt><trkpt lat="45.245785383422984" lon="7.956986954499927"><ele>210.0</ele><time>2026-05-01T14:50:03Z</time></trkpt><trkpt lat="45.24559764241602" lon="7.957081421902078"><ele>210.0</ele><time>2026-05-01T14:50:04Z</time></trkpt><trkpt lat="45.24540760834011" lon="7.957190304746167"><ele>210.0</ele><time>2026-05-01T14:50:05Z</time></trkpt><trkpt lat="45.24521690730883" lon="7.957308856188926"><ele>210.0</ele><time>2026-05-01T14:50:06Z</time></trkpt><trkpt lat="45.245026123165864" lon="7.95742879117129"><ele>210.0</ele><time>2026-05-01T14:50:07Z</time></trkpt><trkpt lat="45.24484237778762" lon="7.957544261178872"><ele>210.0</ele><time>2026-05-01T14:50:08Z</time></trkpt><trkpt lat="45.24466063843974" lon="7.957664250613043"><ele>210.0</ele><time>2026-05-01T14:50:09Z</time></trkpt><trkpt lat="45.244464110791675" lon="7.95780559215443"><ele>210.0</ele><time>2026-05-01T14:50:10Z</time></trkpt><trkpt lat="45.24422554156411" lon="7.957935386941478"><ele>210.0</ele><time>2026-05-01T14:50:11Z</time></trkpt><trkpt lat="45.24398093658482" lon="7.958091392551028"><ele>209.5</ele><time>2026-05-01T14:50:12Z</time></trkpt><trkpt lat="45.243723066913475" lon="7.958261624880721"><ele>209.0</ele><time>2026-05-01T14:50:13Z</time></trkpt><trkpt lat="45.2434622726678" lon="7.958429785083066"><ele>209.0</ele><time>2026-05-01T14:50:14Z</time></trkpt><trkpt lat="45.24322192392453" lon="7.9586033464340185"><ele>209.0</ele><time>2026-05-01T14:50:15Z</time></trkpt><trkpt lat="45.24299574893163" lon="7.958741749504192"><ele>209.33333333333334</ele><time>2026-05-01T14:50:16Z</time></trkpt><trkpt lat="45.24278266935226" lon="7.958860847441706"><ele>209.66666666666669</ele><time>2026-05-01T14:50:17Z</time></trkpt><trkpt lat="45.242586909067334" lon="7.9589620976216775"><ele>210.0</ele><time>2026-05-01T14:50:18Z</time></trkpt><trkpt lat="45.242404844532295" lon="7.9590482392039545"><ele>209.66666666666669</ele><time>2026-05-01T14:50:19Z</time></trkpt><trkpt lat="45.24220683641501" lon="7.959131610941828"><ele>209.33333333333334</ele><time>2026-05-01T14:50:20Z</time></trkpt><trkpt lat="45.24200300879986" lon="7.959198998728692"><ele>209.0</ele><time>2026-05-01T14:50:21Z</time></trkpt><trkpt lat="45.24179901925287" lon="7.95924498194911"><ele>209.0</ele><time>2026-05-01T14:50:22Z</time></trkpt><trkpt lat="45.24158201506262" lon="7.959278164839414"><ele>209.0</ele><time>2026-05-01T14:50:23Z</time></trkpt><trkpt lat="45.24137105041291" lon="7.959298806663821"><ele>209.0</ele><time>2026-05-01T14:50:24Z</time></trkpt><trkpt lat="45.24117992377687" lon="7.959300844099573"><ele>209.33333333333334</ele><time>2026-05-01T14:50:25Z</time></trkpt><trkpt lat="45.24099620888608" lon="7.959282350216319"><ele>209.66666666666669</ele><time>2026-05-01T14:50:26Z</time></trkpt><trkpt lat="45.24081398028104" lon="7.959250058414623"><ele>210.0</ele><time>2026-05-01T14:50:27Z</time></trkpt><trkpt lat="45.2406333409396" lon="7.959210860935882"><ele>209.66666666666669</ele><time>2026-05-01T14:50:28Z</time></trkpt><trkpt lat="45.24043760156994" lon="7.959152925973556"><ele>209.33333333333334</ele><time>2026-05-01T14:50:29Z</time></trkpt><trkpt lat="45.24025244918451" lon="7.9590804016467525"><ele>209.0</ele><time>2026-05-01T14:50:30Z</time></trkpt><trkpt lat="45.240075494807904" lon="7.958995587129769"><ele>209.0</ele><time>2026-05-01T14:50:31Z</time></trkpt><trkpt lat="45.23990095903554" lon="7.95889461814818"><ele>209.0</ele><time>2026-05-01T14:50:32Z</time></trkpt><trkpt lat="45.23973852796456" lon="7.958786267466747"><ele>209.0</ele><time>2026-05-01T14:50:33Z</time></trkpt><trkpt lat="45.23960028642288" lon="7.9586933829679065"><ele>208.79999999999998</ele><time>2026-05-01T14:50:34Z</time></trkpt><trkpt lat="45.23948918172163" lon="7.958618701784"><ele>208.6</ele><time>2026-05-01T14:50:35Z</time></trkpt><trkpt lat="45.23938824429998" lon="7.958557387197222"><ele>208.4</ele><time>2026-05-01T14:50:36Z</time></trkpt><trkpt lat="45.23929205733589" lon="7.9585114885066774"><ele>208.2</ele><time>2026-05-01T14:50:37Z</time></trkpt><trkpt lat="45.23920205639078" lon="7.958484003837352"><ele>208.0</ele><time>2026-05-01T14:50:38Z</time></trkpt><trkpt lat="45.23912443001049" lon="7.958469220016637"><ele>207.99999999999997</ele><time>2026-05-01T14:50:39Z</time></trkpt><trkpt lat="45.23906273618099" lon="7.9584447722909"><ele>208.0</ele><time>2026-05-01T14:50:40Z</time></trkpt><trkpt lat="45.23897368559647" lon="7.958317034809454"><ele>208.0</ele><time>2026-05-01T14:50:42Z</time></trkpt><trkpt lat="45.23894366936267" lon="7.9582359065514865"><ele>208.0</ele><time>2026-05-01T14:50:43Z</time></trkpt><trkpt lat="45.23891600476242" lon="7.9581465398854805"><ele>207.99999999999997</ele><time>2026-05-01T14:50:45Z</time></trkpt><trkpt lat="45.23882407920708" lon="7.958085887027143"><ele>208.0</ele><time>2026-05-01T14:50:51Z</time></trkpt><trkpt lat="45.23871093738985" lon="7.958109773612264"><ele>207.99999999999997</ele><time>2026-05-01T14:50:53Z</time></trkpt><trkpt lat="45.23864923010278" lon="7.95815894301135"><ele>208.0</ele><time>2026-05-01T14:50:54Z</time></trkpt><trkpt lat="45.23859883665913" lon="7.958235536589517"><ele>208.0</ele><time>2026-05-01T14:50:55Z</time></trkpt><trkpt lat="45.23855827889551" lon="7.958336787370928"><ele>208.0</ele><time>2026-05-01T14:50:56Z</time></trkpt><trkpt lat="45.23852745779116" lon="7.95846054140968"><ele>207.99999999999997</ele><time>2026-05-01T14:50:57Z</time></trkpt><trkpt lat="45.23850948470991" lon="7.958601268621233"><ele>208.0</ele><time>2026-05-01T14:50:58Z</time></trkpt><trkpt lat="45.23848363466541" lon="7.958716451959952"><ele>208.0</ele><time>2026-05-01T14:50:59Z</time></trkpt><trkpt lat="45.23843230141167" lon="7.958813110828886"><ele>208.0</ele><time>2026-05-01T14:51:00Z</time></trkpt><trkpt lat="45.23835863021107" lon="7.9588917419503"><ele>208.0</ele><time>2026-05-01T14:51:01Z</time></trkpt><trkpt lat="45.23826941736681" lon="7.958945608256167"><ele>208.0</ele><time>2026-05-01T14:51:02Z</time></trkpt><trkpt lat="45.238169884401344" lon="7.958969173264632"><ele>208.0</ele><time>2026-05-01T14:51:03Z</time></trkpt><trkpt lat="45.23807907818217" lon="7.95899921572053"><ele>208.0</ele><time>2026-05-01T14:51:04Z</time></trkpt><trkpt lat="45.23797230001285" lon="7.958967887486779"><ele>208.0</ele><time>2026-05-01T14:51:05Z</time></trkpt><trkpt lat="45.2378723718772" lon="7.958907679067185"><ele>208.0</ele><time>2026-05-01T14:51:06Z</time></trkpt><trkpt lat="45.23778045890345" lon="7.95880992363451"><ele>208.0</ele><time>2026-05-01T14:51:07Z</time></trkpt><trkpt lat="45.237697227249164" lon="7.958669588956168"><ele>208.0</ele><time>2026-05-01T14:51:08Z</time></trkpt><trkpt lat="45.23762198958783" lon="7.958482240033471"><ele>208.0</ele><time>2026-05-01T14:51:09Z</time></trkpt><trkpt lat="45.237548659628715" lon="7.958256563598934"><ele>208.0</ele><time>2026-05-01T14:51:10Z</time></trkpt><trkpt lat="45.23746507899097" lon="7.9580063179013445"><ele>207.0</ele><time>2026-05-01T14:51:11Z</time></trkpt><trkpt lat="45.23735739419763" lon="7.957694578794983"><ele>206.0</ele><time>2026-05-01T14:51:12Z</time></trkpt><trkpt lat="45.23724340756916" lon="7.95734793737507"><ele>208.0</ele><time>2026-05-01T14:51:13Z</time></trkpt><trkpt lat="45.23712081075927" lon="7.956985504275989"><ele>210.0</ele><time>2026-05-01T14:51:14Z</time></trkpt><trkpt lat="45.23699347218657" lon="7.9565924787236515"><ele>211.0</ele><time>2026-05-01T14:51:15Z</time></trkpt><trkpt lat="45.23685569369346" lon="7.956214047009402"><ele>212.0</ele><time>2026-05-01T14:51:16Z</time></trkpt><trkpt lat="45.23671751949018" lon="7.955830964755578"><ele>209.0</ele><time>2026-05-01T14:51:17Z</time></trkpt><trkpt lat="45.23658872759613" lon="7.955479399974709"><ele>206.0</ele><time>2026-05-01T14:51:18Z</time></trkpt><trkpt lat="45.23647176260086" lon="7.955149617309592"><ele>205.0</ele><time>2026-05-01T14:51:19Z</time></trkpt><trkpt lat="45.23636654953323" lon="7.954849956345123"><ele>204.0</ele><time>2026-05-01T14:51:20Z</time></trkpt><trkpt lat="45.236263221102845" lon="7.954563145820858"><ele>204.0</ele><time>2026-05-01T14:51:21Z</time></trkpt><trkpt lat="45.23614604924347" lon="7.954240295369656"><ele>204.0</ele><time>2026-05-01T14:51:22Z</time></trkpt><trkpt lat="45.2360166266163" lon="7.953889490859463"><ele>204.0</ele><time>2026-05-01T14:51:23Z</time></trkpt><trkpt lat="45.23588970015771" lon="7.953548538729304"><ele>204.0</ele><time>2026-05-01T14:51:24Z</time></trkpt><trkpt lat="45.235773029043685" lon="7.953227883363461"><ele>204.0</ele><time>2026-05-01T14:51:25Z</time></trkpt><trkpt lat="45.23564534477958" lon="7.95290184185349"><ele>204.0</ele><time>2026-05-01T14:51:26Z</time></trkpt><trkpt lat="45.23551946664113" lon="7.952574837383782"><ele>201.5</ele><time>2026-05-01T14:51:27Z</time></trkpt><trkpt lat="45.23540840596643" lon="7.952269052165223"><ele>199.0</ele><time>2026-05-01T14:51:28Z</time></trkpt><trkpt lat="45.23529648905559" lon="7.951954565120412"><ele>200.5</ele><time>2026-05-01T14:51:29Z</time></trkpt><trkpt lat="45.235176448488716" lon="7.951621032906482"><ele>202.0</ele><time>2026-05-01T14:51:30Z</time></trkpt><trkpt lat="45.23505528571616" lon="7.951292097295736"><ele>202.0</ele><time>2026-05-01T14:51:31Z</time></trkpt><trkpt lat="45.23491938004717" lon="7.950936934380175"><ele>202.0</ele><time>2026-05-01T14:51:32Z</time></trkpt><trkpt lat="45.234778671947616" lon="7.950576185204184"><ele>202.0</ele><time>2026-05-01T14:51:33Z</time></trkpt><trkpt lat="45.23463863155747" lon="7.95022533188691"><ele>202.0</ele><time>2026-05-01T14:51:34Z</time></trkpt><trkpt lat="45.23449280648137" lon="7.949850836150111"><ele>202.5</ele><time>2026-05-01T14:51:35Z</time></trkpt><trkpt lat="45.23433530333998" lon="7.949449826925131"><ele>203.0</ele><time>2026-05-01T14:51:36Z</time></trkpt><trkpt lat="45.23417509473817" lon="7.949044103496149"><ele>203.0</ele><time>2026-05-01T14:51:37Z</time></trkpt><trkpt lat="45.23402137057322" lon="7.948649468612844"><ele>203.0</ele><time>2026-05-01T14:51:38Z</time></trkpt><trkpt lat="45.233872019707135" lon="7.948262782793751"><ele>202.5</ele><time>2026-05-01T14:51:39Z</time></trkpt><trkpt lat="45.233706690576945" lon="7.947848575349141"><ele>202.0</ele><time>2026-05-01T14:51:40Z</time></trkpt><trkpt lat="45.23353474141226" lon="7.9474255931986395"><ele>203.0</ele><time>2026-05-01T14:51:41Z</time></trkpt><trkpt lat="45.23336925186486" lon="7.947023730438301"><ele>204.0</ele><time>2026-05-01T14:51:42Z</time></trkpt><trkpt lat="45.23320936661498" lon="7.946644461547741"><ele>203.0</ele><time>2026-05-01T14:51:43Z</time></trkpt><trkpt lat="45.23306028473798" lon="7.946282086248546"><ele>202.0</ele><time>2026-05-01T14:51:44Z</time></trkpt><trkpt lat="45.23290844941415" lon="7.945902396254004"><ele>202.5</ele><time>2026-05-01T14:51:45Z</time></trkpt><trkpt lat="45.23276045716771" lon="7.945535459239205"><ele>203.0</ele><time>2026-05-01T14:51:46Z</time></trkpt><trkpt lat="45.232615989149416" lon="7.9451792781661394"><ele>202.5</ele><time>2026-05-01T14:51:47Z</time></trkpt><trkpt lat="45.23247515010689" lon="7.944838483753842"><ele>202.0</ele><time>2026-05-01T14:51:48Z</time></trkpt><trkpt lat="45.23234018074956" lon="7.944501885443464"><ele>202.5</ele><time>2026-05-01T14:51:49Z</time></trkpt><trkpt lat="45.232199453200124" lon="7.9441634457662715"><ele>203.0</ele><time>2026-05-01T14:51:50Z</time></trkpt><trkpt lat="45.232060505930285" lon="7.943823402955962"><ele>203.0</ele><time>2026-05-01T14:51:51Z</time></trkpt><trkpt lat="45.23192580461688" lon="7.943496642299928"><ele>203.0</ele><time>2026-05-01T14:51:52Z</time></trkpt><trkpt lat="45.23179027088999" lon="7.943167363506642"><ele>203.5</ele><time>2026-05-01T14:51:53Z</time></trkpt><trkpt lat="45.23165945391311" lon="7.942834715366246"><ele>204.0</ele><time>2026-05-01T14:51:54Z</time></trkpt><trkpt lat="45.23152746904138" lon="7.942519637349791"><ele>202.5</ele><time>2026-05-01T14:51:55Z</time></trkpt><trkpt lat="45.231398160549695" lon="7.942205127599095"><ele>201.0</ele><time>2026-05-01T14:51:56Z</time></trkpt><trkpt lat="45.23126522824435" lon="7.941875324432389"><ele>201.0</ele><time>2026-05-01T14:51:57Z</time></trkpt><trkpt lat="45.23112813672746" lon="7.941538102798106"><ele>201.0</ele><time>2026-05-01T14:51:58Z</time></trkpt><trkpt lat="45.23099388194976" lon="7.94120793097302"><ele>201.0</ele><time>2026-05-01T14:51:59Z</time></trkpt><trkpt lat="45.23085929812521" lon="7.940882669520126"><ele>201.0</ele><time>2026-05-01T14:52:00Z</time></trkpt><trkpt lat="45.23072312456197" lon="7.940563151862234"><ele>200.5</ele><time>2026-05-01T14:52:01Z</time></trkpt><trkpt lat="45.23057350083475" lon="7.940227399036968"><ele>200.0</ele><time>2026-05-01T14:52:02Z</time></trkpt><trkpt lat="45.23041865691152" lon="7.939878304404725"><ele>200.0</ele><time>2026-05-01T14:52:03Z</time></trkpt><trkpt lat="45.23027474064732" lon="7.939537818856934"><ele>200.0</ele><time>2026-05-01T14:52:04Z</time></trkpt><trkpt lat="45.23012795543308" lon="7.939174074446793"><ele>200.0</ele><time>2026-05-01T14:52:05Z</time></trkpt><trkpt lat="45.22998458407674" lon="7.938818078418977"><ele>200.0</ele><time>2026-05-01T14:52:06Z</time></trkpt><trkpt lat="45.22984732444673" lon="7.938480572420464"><ele>199.5</ele><time>2026-05-01T14:52:07Z</time></trkpt><trkpt lat="45.22970364038645" lon="7.938130705498833"><ele>199.0</ele><time>2026-05-01T14:52:08Z</time></trkpt><trkpt lat="45.22955442306837" lon="7.937763503969952"><ele>199.5</ele><time>2026-05-01T14:52:09Z</time></trkpt><trkpt lat="45.22941060316195" lon="7.937395127596722"><ele>200.0</ele><time>2026-05-01T14:52:10Z</time></trkpt><trkpt lat="45.22927561985635" lon="7.937044689201084"><ele>199.5</ele><time>2026-05-01T14:52:11Z</time></trkpt><trkpt lat="45.229145972822096" lon="7.936705139209483"><ele>199.0</ele><time>2026-05-01T14:52:12Z</time></trkpt><trkpt lat="45.229011497277014" lon="7.936364496961275"><ele>200.5</ele><time>2026-05-01T14:52:13Z</time></trkpt><trkpt lat="45.228873883578586" lon="7.9360274285807515"><ele>202.0</ele><time>2026-05-01T14:52:14Z</time></trkpt><trkpt lat="45.228735124693955" lon="7.935691287969737"><ele>202.0</ele><time>2026-05-01T14:52:15Z</time></trkpt><trkpt lat="45.228596487707236" lon="7.935354191022036"><ele>202.0</ele><time>2026-05-01T14:52:16Z</time></trkpt><trkpt lat="45.228453944949806" lon="7.935002367460743"><ele>201.5</ele><time>2026-05-01T14:52:17Z</time></trkpt><trkpt lat="45.22831557157508" lon="7.934662413366915"><ele>201.0</ele><time>2026-05-01T14:52:18Z</time></trkpt><trkpt lat="45.2281824526057" lon="7.934331711036045"><ele>199.5</ele><time>2026-05-01T14:52:19Z</time></trkpt><trkpt lat="45.228051357808845" lon="7.9340067349236225"><ele>198.0</ele><time>2026-05-01T14:52:20Z</time></trkpt><trkpt lat="45.227919319194015" lon="7.933680370700279"><ele>199.0</ele><time>2026-05-01T14:52:21Z</time></trkpt><trkpt lat="45.22778850102928" lon="7.933356233013379"><ele>200.0</ele><time>2026-05-01T14:52:22Z</time></trkpt><trkpt lat="45.227653300606576" lon="7.933028845670077"><ele>200.0</ele><time>2026-05-01T14:52:23Z</time></trkpt><trkpt lat="45.22751770662135" lon="7.932697141811733"><ele>200.0</ele><time>2026-05-01T14:52:24Z</time></trkpt><trkpt lat="45.22738587603495" lon="7.932377066455716"><ele>198.5</ele><time>2026-05-01T14:52:25Z</time></trkpt><trkpt lat="45.227254036390825" lon="7.932055963162256"><ele>197.0</ele><time>2026-05-01T14:52:26Z</time></trkpt><trkpt lat="45.22711989789043" lon="7.931728338075642"><ele>196.5</ele><time>2026-05-01T14:52:27Z</time></trkpt><trkpt lat="45.22698690997695" lon="7.93140082427583"><ele>196.0</ele><time>2026-05-01T14:52:28Z</time></trkpt><trkpt lat="45.22685161111043" lon="7.93107378381534"><ele>199.0</ele><time>2026-05-01T14:52:29Z</time></trkpt><trkpt lat="45.226711380660895" lon="7.930733265750579"><ele>202.0</ele><time>2026-05-01T14:52:30Z</time></trkpt><trkpt lat="45.22656900229898" lon="7.930384975711262"><ele>201.5</ele><time>2026-05-01T14:52:31Z</time></trkpt><trkpt lat="45.22643383296141" lon="7.930056696044213"><ele>201.0</ele><time>2026-05-01T14:52:32Z</time></trkpt><trkpt lat="45.2263020411596" lon="7.929734896290542"><ele>201.0</ele><time>2026-05-01T14:52:33Z</time></trkpt><trkpt lat="45.22617132688495" lon="7.929419158484381"><ele>201.0</ele><time>2026-05-01T14:52:34Z</time></trkpt><trkpt lat="45.22603962216526" lon="7.929097533891399"><ele>200.0</ele><time>2026-05-01T14:52:35Z</time></trkpt><trkpt lat="45.22590224540106" lon="7.928768762424051"><ele>199.0</ele><time>2026-05-01T14:52:36Z</time></trkpt><trkpt lat="45.22575634818048" lon="7.928420809985809"><ele>199.5</ele><time>2026-05-01T14:52:37Z</time></trkpt><trkpt lat="45.22561949145945" lon="7.928094919229223"><ele>200.0</ele><time>2026-05-01T14:52:38Z</time></trkpt><trkpt lat="45.225485984344516" lon="7.9277716634308035"><ele>200.0</ele><time>2026-05-01T14:52:39Z</time></trkpt><trkpt lat="45.22535075847342" lon="7.9274426909016675"><ele>200.0</ele><time>2026-05-01T14:52:40Z</time></trkpt><trkpt lat="45.225215706252484" lon="7.9271086567313205"><ele>200.0</ele><time>2026-05-01T14:52:41Z</time></trkpt><trkpt lat="45.225079900734706" lon="7.926770850223236"><ele>200.0</ele><time>2026-05-01T14:52:42Z</time></trkpt><trkpt lat="45.22494509159654" lon="7.926428099051846"><ele>200.0</ele><time>2026-05-01T14:52:43Z</time></trkpt><trkpt lat="45.224815101915084" lon="7.926103380625117"><ele>200.0</ele><time>2026-05-01T14:52:44Z</time></trkpt><trkpt lat="45.22468326360705" lon="7.925783560362836"><ele>199.5</ele><time>2026-05-01T14:52:45Z</time></trkpt><trkpt lat="45.22454779250959" lon="7.92545954701045"><ele>199.0</ele><time>2026-05-01T14:52:46Z</time></trkpt><trkpt lat="45.22440630600898" lon="7.925129814767959"><ele>200.0</ele><time>2026-05-01T14:52:47Z</time></trkpt><trkpt lat="45.22426214131759" lon="7.924799472908023"><ele>201.0</ele><time>2026-05-01T14:52:48Z</time></trkpt><trkpt lat="45.224118820965955" lon="7.9244743922951395"><ele>200.5</ele><time>2026-05-01T14:52:49Z</time></trkpt><trkpt lat="45.223978994598184" lon="7.924151517490631"><ele>200.0</ele><time>2026-05-01T14:52:50Z</time></trkpt><trkpt lat="45.22383782410872" lon="7.923819339046383"><ele>200.0</ele><time>2026-05-01T14:52:51Z</time></trkpt><trkpt lat="45.223697325862894" lon="7.9234854840771005"><ele>200.0</ele><time>2026-05-01T14:52:52Z</time></trkpt><trkpt lat="45.22355437340644" lon="7.92314591717833"><ele>200.5</ele><time>2026-05-01T14:52:53Z</time></trkpt><trkpt lat="45.22341495588368" lon="7.922815847791324"><ele>201.0</ele><time>2026-05-01T14:52:54Z</time></trkpt><trkpt lat="45.223274467369976" lon="7.922480554610015"><ele>199.0</ele><time>2026-05-01T14:52:55Z</time></trkpt><trkpt lat="45.223143414299095" lon="7.922159381670131"><ele>197.0</ele><time>2026-05-01T14:52:56Z</time></trkpt><trkpt lat="45.22301609983258" lon="7.921841770485556"><ele>198.5</ele><time>2026-05-01T14:52:57Z</time></trkpt><trkpt lat="45.222879801293956" lon="7.921501932667154"><ele>200.0</ele><time>2026-05-01T14:52:58Z</time></trkpt><trkpt lat="45.22274706993789" lon="7.921172424758693"><ele>200.5</ele><time>2026-05-01T14:52:59Z</time></trkpt><trkpt lat="45.22261091250276" lon="7.920835200111498"><ele>201.0</ele><time>2026-05-01T14:53:00Z</time></trkpt><trkpt lat="45.22247085753376" lon="7.920489810208942"><ele>201.0</ele><time>2026-05-01T14:53:01Z</time></trkpt><trkpt lat="45.2223291841703" lon="7.92014125735966"><ele>201.0</ele><time>2026-05-01T14:53:02Z</time></trkpt><trkpt lat="45.22218894205691" lon="7.919791678439209"><ele>200.5</ele><time>2026-05-01T14:53:03Z</time></trkpt><trkpt lat="45.22204833026371" lon="7.919440905017148"><ele>200.0</ele><time>2026-05-01T14:53:04Z</time></trkpt><trkpt lat="45.22190729136297" lon="7.919087714819266"><ele>200.0</ele><time>2026-05-01T14:53:05Z</time></trkpt><trkpt lat="45.22176506765132" lon="7.918746645331444"><ele>200.0</ele><time>2026-05-01T14:53:06Z</time></trkpt><trkpt lat="45.221624570047695" lon="7.918406774694779"><ele>200.0</ele><time>2026-05-01T14:53:07Z</time></trkpt><trkpt lat="45.22148616061607" lon="7.918068362509284"><ele>200.0</ele><time>2026-05-01T14:53:08Z</time></trkpt><trkpt lat="45.2213456723544" lon="7.917728368307033"><ele>199.0</ele><time>2026-05-01T14:53:09Z</time></trkpt><trkpt lat="45.22120706071161" lon="7.917390465085469"><ele>198.0</ele><time>2026-05-01T14:53:10Z</time></trkpt><trkpt lat="45.22106835018517" lon="7.917053568245782"><ele>199.5</ele><time>2026-05-01T14:53:11Z</time></trkpt><trkpt lat="45.22093084835841" lon="7.916721580809566"><ele>201.0</ele><time>2026-05-01T14:53:12Z</time></trkpt><trkpt lat="45.220789445053114" lon="7.916376843459533"><ele>201.0</ele><time>2026-05-01T14:53:13Z</time></trkpt><trkpt lat="45.22063529267212" lon="7.916005943171568"><ele>201.0</ele><time>2026-05-01T14:53:14Z</time></trkpt><trkpt lat="45.22047030785929" lon="7.91561117581541"><ele>201.0</ele><time>2026-05-01T14:53:15Z</time></trkpt><trkpt lat="45.22030120403739" lon="7.91519402790191"><ele>201.0</ele><time>2026-05-01T14:53:16Z</time></trkpt><trkpt lat="45.220129079201065" lon="7.91475534414792"><ele>201.0</ele><time>2026-05-01T14:53:17Z</time></trkpt><trkpt lat="45.21995332902225" lon="7.914308031731209"><ele>201.0</ele><time>2026-05-01T14:53:18Z</time></trkpt><trkpt lat="45.21977143239119" lon="7.913848680426211"><ele>200.5</ele><time>2026-05-01T14:53:19Z</time></trkpt><trkpt lat="45.2195841983078" lon="7.913381235520741"><ele>200.0</ele><time>2026-05-01T14:53:20Z</time></trkpt><trkpt lat="45.219395058438145" lon="7.912911463281243"><ele>199.5</ele><time>2026-05-01T14:53:21Z</time></trkpt><trkpt lat="45.21920036492981" lon="7.912432297670748"><ele>199.0</ele><time>2026-05-01T14:53:22Z</time></trkpt><trkpt lat="45.219003691744035" lon="7.911951995290976"><ele>200.0</ele><time>2026-05-01T14:53:23Z</time></trkpt><trkpt lat="45.21881094351928" lon="7.911485359101232"><ele>201.0</ele><time>2026-05-01T14:53:24Z</time></trkpt><trkpt lat="45.21862016722366" lon="7.9110215421433345"><ele>201.0</ele><time>2026-05-01T14:53:25Z</time></trkpt><trkpt lat="45.21842879497497" lon="7.9105533640452625"><ele>201.0</ele><time>2026-05-01T14:53:26Z</time></trkpt><trkpt lat="45.21824871722873" lon="7.91011183330503"><ele>198.5</ele><time>2026-05-01T14:53:27Z</time></trkpt><trkpt lat="45.21806938423564" lon="7.9096699211052695"><ele>196.0</ele><time>2026-05-01T14:53:28Z</time></trkpt><trkpt lat="45.217894711185174" lon="7.909241556265846"><ele>195.5</ele><time>2026-05-01T14:53:29Z</time></trkpt><trkpt lat="45.217735249575334" lon="7.908848830436934"><ele>195.0</ele><time>2026-05-01T14:53:30Z</time></trkpt><trkpt lat="45.21757916431279" lon="7.908470397948021"><ele>196.0</ele><time>2026-05-01T14:53:31Z</time></trkpt><trkpt lat="45.21742252467393" lon="7.908090616942771"><ele>197.0</ele><time>2026-05-01T14:53:32Z</time></trkpt><trkpt lat="45.21727086631865" lon="7.907722915633206"><ele>197.5</ele><time>2026-05-01T14:53:33Z</time></trkpt><trkpt lat="45.21711790877448" lon="7.9073443897249325"><ele>198.0</ele><time>2026-05-01T14:53:34Z</time></trkpt><trkpt lat="45.21696416075169" lon="7.9069623646189635"><ele>198.0</ele><time>2026-05-01T14:53:35Z</time></trkpt><trkpt lat="45.21680882269503" lon="7.906576239452563"><ele>198.0</ele><time>2026-05-01T14:53:36Z</time></trkpt><trkpt lat="45.216659342545675" lon="7.90620247147211"><ele>198.5</ele><time>2026-05-01T14:53:37Z</time></trkpt><trkpt lat="45.21650865150002" lon="7.905836932633988"><ele>199.0</ele><time>2026-05-01T14:53:38Z</time></trkpt><trkpt lat="45.216367084852045" lon="7.905496848064716"><ele>199.0</ele><time>2026-05-01T14:53:39Z</time></trkpt><trkpt lat="45.21622721187813" lon="7.905156032730908"><ele>199.0</ele><time>2026-05-01T14:53:40Z</time></trkpt><trkpt lat="45.21608489770511" lon="7.90480720204282"><ele>201.0</ele><time>2026-05-01T14:53:41Z</time></trkpt><trkpt lat="45.21593641333867" lon="7.904444151253376"><ele>203.0</ele><time>2026-05-01T14:53:42Z</time></trkpt><trkpt lat="45.215786889998135" lon="7.904078464515685"><ele>204.5</ele><time>2026-05-01T14:53:43Z</time></trkpt><trkpt lat="45.21563413504736" lon="7.903699764282093"><ele>206.0</ele><time>2026-05-01T14:53:44Z</time></trkpt><trkpt lat="45.215466836522715" lon="7.903299792839671"><ele>206.0</ele><time>2026-05-01T14:53:45Z</time></trkpt><trkpt lat="45.215293237021925" lon="7.9028884404221245"><ele>206.0</ele><time>2026-05-01T14:53:46Z</time></trkpt><trkpt lat="45.215110832058336" lon="7.902469571610411"><ele>203.5</ele><time>2026-05-01T14:53:47Z</time></trkpt><trkpt lat="45.21491986127741" lon="7.902038134975427"><ele>201.0</ele><time>2026-05-01T14:53:48Z</time></trkpt><trkpt lat="45.21473161164949" lon="7.901600523723262"><ele>199.0</ele><time>2026-05-01T14:53:49Z</time></trkpt><trkpt lat="45.21455015308147" lon="7.901164543542796"><ele>197.0</ele><time>2026-05-01T14:53:50Z</time></trkpt><trkpt lat="45.214380326905136" lon="7.900746563261125"><ele>197.0</ele><time>2026-05-01T14:53:51Z</time></trkpt><trkpt lat="45.21421535698901" lon="7.900333566921027"><ele>197.0</ele><time>2026-05-01T14:53:52Z</time></trkpt><trkpt lat="45.214046289690714" lon="7.8999144202505835"><ele>197.0</ele><time>2026-05-01T14:53:53Z</time></trkpt><trkpt lat="45.21387043679372" lon="7.899482706374521"><ele>197.0</ele><time>2026-05-01T14:53:54Z</time></trkpt><trkpt lat="45.21368884034898" lon="7.899045656643569"><ele>197.0</ele><time>2026-05-01T14:53:55Z</time></trkpt><trkpt lat="45.21350403506189" lon="7.898600699956958"><ele>197.0</ele><time>2026-05-01T14:53:56Z</time></trkpt><trkpt lat="45.21333212372778" lon="7.89819102338451"><ele>198.5</ele><time>2026-05-01T14:53:57Z</time></trkpt><trkpt lat="45.21316662224332" lon="7.89779828844559"><ele>200.0</ele><time>2026-05-01T14:53:58Z</time></trkpt><trkpt lat="45.213005586573125" lon="7.897416450116817"><ele>200.5</ele><time>2026-05-01T14:53:59Z</time></trkpt><trkpt lat="45.21284346943376" lon="7.89703143805937"><ele>201.0</ele><time>2026-05-01T14:54:00Z</time></trkpt><trkpt lat="45.21268342166212" lon="7.896654434300104"><ele>201.0</ele><time>2026-05-01T14:54:01Z</time></trkpt><trkpt lat="45.21252231980378" lon="7.8962786907427285"><ele>201.0</ele><time>2026-05-01T14:54:02Z</time></trkpt><trkpt lat="45.21235856828302" lon="7.895901624273965"><ele>198.5</ele><time>2026-05-01T14:54:03Z</time></trkpt><trkpt lat="45.21219493434538" lon="7.895524563478161"><ele>196.0</ele><time>2026-05-01T14:54:04Z</time></trkpt><trkpt lat="45.21202953968716" lon="7.895138560103822"><ele>196.5</ele><time>2026-05-01T14:54:05Z</time></trkpt><trkpt lat="45.21185559402036" lon="7.8947357030040575"><ele>197.0</ele><time>2026-05-01T14:54:06Z</time></trkpt><trkpt lat="45.21168027539283" lon="7.894329014096591"><ele>197.5</ele><time>2026-05-01T14:54:07Z</time></trkpt><trkpt lat="45.21149677347934" lon="7.893904926756914"><ele>198.0</ele><time>2026-05-01T14:54:08Z</time></trkpt><trkpt lat="45.21130672530411" lon="7.893466308489193"><ele>197.0</ele><time>2026-05-01T14:54:09Z</time></trkpt><trkpt lat="45.21111248722651" lon="7.893022119257341"><ele>196.0</ele><time>2026-05-01T14:54:10Z</time></trkpt><trkpt lat="45.2109151956997" lon="7.892566480637094"><ele>196.0</ele><time>2026-05-01T14:54:11Z</time></trkpt><trkpt lat="45.21071497708605" lon="7.892105580948735"><ele>196.0</ele><time>2026-05-01T14:54:12Z</time></trkpt><trkpt lat="45.21051516130402" lon="7.8916423384017165"><ele>195.0</ele><time>2026-05-01T14:54:13Z</time></trkpt><trkpt lat="45.2103129301483" lon="7.891171485476832"><ele>194.0</ele><time>2026-05-01T14:54:14Z</time></trkpt><trkpt lat="45.21012221912809" lon="7.890727963679388"><ele>194.0</ele><time>2026-05-01T14:54:15Z</time></trkpt><trkpt lat="45.20993858666651" lon="7.890307366637588"><ele>194.0</ele><time>2026-05-01T14:54:16Z</time></trkpt><trkpt lat="45.20975235849727" lon="7.889879244051269"><ele>193.5</ele><time>2026-05-01T14:54:17Z</time></trkpt><trkpt lat="45.20956008112941" lon="7.889443661232221"><ele>193.0</ele><time>2026-05-01T14:54:18Z</time></trkpt><trkpt lat="45.2093789668376" lon="7.889026808911855"><ele>193.0</ele><time>2026-05-01T14:54:19Z</time></trkpt><trkpt lat="45.209208366083125" lon="7.888634511692189"><ele>193.0</ele><time>2026-05-01T14:54:20Z</time></trkpt><trkpt lat="45.2090362611919" lon="7.888235522493074"><ele>194.5</ele><time>2026-05-01T14:54:21Z</time></trkpt><trkpt lat="45.20885082756349" lon="7.887809533212394"><ele>196.0</ele><time>2026-05-01T14:54:22Z</time></trkpt><trkpt lat="45.20866130875841" lon="7.887372537164995"><ele>196.0</ele><time>2026-05-01T14:54:23Z</time></trkpt><trkpt lat="45.208477874491926" lon="7.886950886314987"><ele>196.0</ele><time>2026-05-01T14:54:24Z</time></trkpt><trkpt lat="45.20829071231517" lon="7.886518083920756"><ele>196.0</ele><time>2026-05-01T14:54:25Z</time></trkpt><trkpt lat="45.208100452128626" lon="7.886075249451407"><ele>196.0</ele><time>2026-05-01T14:54:26Z</time></trkpt><trkpt lat="45.20790882997736" lon="7.885631407516931"><ele>196.0</ele><time>2026-05-01T14:54:27Z</time></trkpt><trkpt lat="45.207713483390364" lon="7.885176594727987"><ele>196.0</ele><time>2026-05-01T14:54:28Z</time></trkpt><trkpt lat="45.20753136927136" lon="7.884751800420854"><ele>195.0</ele><time>2026-05-01T14:54:29Z</time></trkpt><trkpt lat="45.20735833651087" lon="7.884352598522275"><ele>194.0</ele><time>2026-05-01T14:54:30Z</time></trkpt><trkpt lat="45.20717703144471" lon="7.883940993433515"><ele>193.0</ele><time>2026-05-01T14:54:31Z</time></trkpt><trkpt lat="45.206993763333195" lon="7.88352697152986"><ele>192.0</ele><time>2026-05-01T14:54:32Z</time></trkpt><trkpt lat="45.206817228565384" lon="7.883120253837043"><ele>192.0</ele><time>2026-05-01T14:54:33Z</time></trkpt><trkpt lat="45.20664649126647" lon="7.882727998216091"><ele>192.0</ele><time>2026-05-01T14:54:34Z</time></trkpt><trkpt lat="45.20647870334071" lon="7.8823327983818485"><ele>191.5</ele><time>2026-05-01T14:54:35Z</time></trkpt><trkpt lat="45.206310629703154" lon="7.881944399114364"><ele>191.0</ele><time>2026-05-01T14:54:36Z</time></trkpt><trkpt lat="45.206139523733626" lon="7.881547908221655"><ele>191.0</ele><time>2026-05-01T14:54:37Z</time></trkpt><trkpt lat="45.20596534340998" lon="7.881145280741013"><ele>191.0</ele><time>2026-05-01T14:54:38Z</time></trkpt><trkpt lat="45.2058014442452" lon="7.880761611001614"><ele>191.5</ele><time>2026-05-01T14:54:39Z</time></trkpt><trkpt lat="45.20564027671905" lon="7.8803830272379765"><ele>192.0</ele><time>2026-05-01T14:54:40Z</time></trkpt><trkpt lat="45.20547664862583" lon="7.879999638863831"><ele>193.5</ele><time>2026-05-01T14:54:41Z</time></trkpt><trkpt lat="45.20530316767575" lon="7.879594986776807"><ele>195.0</ele><time>2026-05-01T14:54:42Z</time></trkpt><trkpt lat="45.205128438069124" lon="7.879180400595243"><ele>195.0</ele><time>2026-05-01T14:54:43Z</time></trkpt><trkpt lat="45.20495815141567" lon="7.87876949912739"><ele>195.0</ele><time>2026-05-01T14:54:44Z</time></trkpt><trkpt lat="45.20478696809648" lon="7.878356727871563"><ele>193.5</ele><time>2026-05-01T14:54:45Z</time></trkpt><trkpt lat="45.20461375744504" lon="7.877956847373276"><ele>192.0</ele><time>2026-05-01T14:54:46Z</time></trkpt><trkpt lat="45.204434380254035" lon="7.877552871916971"><ele>192.0</ele><time>2026-05-01T14:54:47Z</time></trkpt><trkpt lat="45.20425097995428" lon="7.877148495836269"><ele>192.0</ele><time>2026-05-01T14:54:48Z</time></trkpt><trkpt lat="45.20406320077363" lon="7.87673618478199"><ele>191.5</ele><time>2026-05-01T14:54:49Z</time></trkpt><trkpt lat="45.20388407069467" lon="7.876333291518076"><ele>191.0</ele><time>2026-05-01T14:54:50Z</time></trkpt><trkpt lat="45.2037139665295" lon="7.875947075962034"><ele>191.0</ele><time>2026-05-01T14:54:51Z</time></trkpt><trkpt lat="45.20355067574822" lon="7.875564473761363"><ele>191.0</ele><time>2026-05-01T14:54:52Z</time></trkpt><trkpt lat="45.20338179304799" lon="7.875168519758542"><ele>190.5</ele><time>2026-05-01T14:54:53Z</time></trkpt><trkpt lat="45.2032080006433" lon="7.874761507173954"><ele>190.0</ele><time>2026-05-01T14:54:54Z</time></trkpt><trkpt lat="45.20302963574415" lon="7.8743370682859455"><ele>190.5</ele><time>2026-05-01T14:54:55Z</time></trkpt><trkpt lat="45.20284463968866" lon="7.873900453595146"><ele>191.0</ele><time>2026-05-01T14:54:56Z</time></trkpt><trkpt lat="45.20265530785621" lon="7.873469800440821"><ele>191.5</ele><time>2026-05-01T14:54:57Z</time></trkpt><trkpt lat="45.20245830490821" lon="7.873041231922549"><ele>192.0</ele><time>2026-05-01T14:54:58Z</time></trkpt><trkpt lat="45.202252474804375" lon="7.8726039224016855"><ele>191.0</ele><time>2026-05-01T14:54:59Z</time></trkpt><trkpt lat="45.202043728157335" lon="7.872153068987009"><ele>190.0</ele><time>2026-05-01T14:55:00Z</time></trkpt><trkpt lat="45.201834203364854" lon="7.8716972186951235"><ele>188.5</ele><time>2026-05-01T14:55:01Z</time></trkpt><trkpt lat="45.201627739332096" lon="7.871243293980469"><ele>187.0</ele><time>2026-05-01T14:55:02Z</time></trkpt><trkpt lat="45.201422589459185" lon="7.870787896243336"><ele>186.0</ele><time>2026-05-01T14:55:03Z</time></trkpt><trkpt lat="45.201225653989034" lon="7.8703453211403405"><ele>185.0</ele><time>2026-05-01T14:55:04Z</time></trkpt><trkpt lat="45.20103201276053" lon="7.869908486478993"><ele>185.0</ele><time>2026-05-01T14:55:05Z</time></trkpt><trkpt lat="45.200839462127746" lon="7.8694686571093975"><ele>185.0</ele><time>2026-05-01T14:55:06Z</time></trkpt><trkpt lat="45.20065133499257" lon="7.869036528803703"><ele>186.0</ele><time>2026-05-01T14:55:07Z</time></trkpt><trkpt lat="45.20045816105709" lon="7.868590214324527"><ele>187.0</ele><time>2026-05-01T14:55:08Z</time></trkpt><trkpt lat="45.20026017046853" lon="7.868131935930216"><ele>185.0</ele><time>2026-05-01T14:55:09Z</time></trkpt><trkpt lat="45.20006058364253" lon="7.867673236388536"><ele>183.0</ele><time>2026-05-01T14:55:10Z</time></trkpt><trkpt lat="45.19986071482542" lon="7.8672134164364165"><ele>185.0</ele><time>2026-05-01T14:55:11Z</time></trkpt><trkpt lat="45.199668148132126" lon="7.866773547747579"><ele>187.0</ele><time>2026-05-01T14:55:12Z</time></trkpt><trkpt lat="45.199492847574035" lon="7.866365163226781"><ele>187.0</ele><time>2026-05-01T14:55:13Z</time></trkpt><trkpt lat="45.19931740792249" lon="7.8659541390266785"><ele>187.0</ele><time>2026-05-01T14:55:14Z</time></trkpt><trkpt lat="45.199137377075346" lon="7.865536644396242"><ele>187.0</ele><time>2026-05-01T14:55:15Z</time></trkpt><trkpt lat="45.198953743945395" lon="7.865115785224309"><ele>187.0</ele><time>2026-05-01T14:55:16Z</time></trkpt><trkpt lat="45.19876326283513" lon="7.864674067281652"><ele>188.0</ele><time>2026-05-01T14:55:17Z</time></trkpt><trkpt lat="45.19857646650463" lon="7.864227344063795"><ele>189.0</ele><time>2026-05-01T14:55:18Z</time></trkpt><trkpt lat="45.198403960836316" lon="7.863805347695869"><ele>187.5</ele><time>2026-05-01T14:55:19Z</time></trkpt><trkpt lat="45.19823016967404" lon="7.863384328278026"><ele>186.0</ele><time>2026-05-01T14:55:20Z</time></trkpt><trkpt lat="45.19805017623021" lon="7.862949430024624"><ele>186.0</ele><time>2026-05-01T14:55:21Z</time></trkpt><trkpt lat="45.197874097078646" lon="7.862515058647784"><ele>186.0</ele><time>2026-05-01T14:55:22Z</time></trkpt><trkpt lat="45.19770698294996" lon="7.862095661150434"><ele>187.0</ele><time>2026-05-01T14:55:23Z</time></trkpt><trkpt lat="45.197537358812674" lon="7.861665046624342"><ele>188.0</ele><time>2026-05-01T14:55:24Z</time></trkpt><trkpt lat="45.19737281330278" lon="7.861243525721952"><ele>188.0</ele><time>2026-05-01T14:55:25Z</time></trkpt><trkpt lat="45.19720637622405" lon="7.8608207115216135"><ele>188.0</ele><time>2026-05-01T14:55:26Z</time></trkpt><trkpt lat="45.19704198333829" lon="7.860408394234285"><ele>189.0</ele><time>2026-05-01T14:55:27Z</time></trkpt><trkpt lat="45.196876484466664" lon="7.859997329649877"><ele>190.0</ele><time>2026-05-01T14:55:28Z</time></trkpt><trkpt lat="45.19670991488632" lon="7.859593797386069"><ele>189.5</ele><time>2026-05-01T14:55:29Z</time></trkpt><trkpt lat="45.19653670659534" lon="7.8591771247248605"><ele>189.0</ele><time>2026-05-01T14:55:30Z</time></trkpt><trkpt lat="45.19635152633973" lon="7.8587329515406115"><ele>188.0</ele><time>2026-05-01T14:55:31Z</time></trkpt><trkpt lat="45.19616144576309" lon="7.858276924706024"><ele>187.0</ele><time>2026-05-01T14:55:32Z</time></trkpt><trkpt lat="45.195969063562" lon="7.857812125559799"><ele>186.5</ele><time>2026-05-01T14:55:33Z</time></trkpt><trkpt lat="45.19577784327937" lon="7.857352790415025"><ele>186.0</ele><time>2026-05-01T14:55:34Z</time></trkpt><trkpt lat="45.19558840480762" lon="7.85690393138618"><ele>185.0</ele><time>2026-05-01T14:55:35Z</time></trkpt><trkpt lat="45.195402334177565" lon="7.85646562686883"><ele>184.0</ele><time>2026-05-01T14:55:36Z</time></trkpt><trkpt lat="45.19522038941195" lon="7.8560370543263005"><ele>185.5</ele><time>2026-05-01T14:55:37Z</time></trkpt><trkpt lat="45.19504201455693" lon="7.855621235537103"><ele>187.0</ele><time>2026-05-01T14:55:38Z</time></trkpt><trkpt lat="45.19486788841675" lon="7.855225526235956"><ele>187.5</ele><time>2026-05-01T14:55:39Z</time></trkpt><trkpt lat="45.194699567630586" lon="7.854847956567555"><ele>188.0</ele><time>2026-05-01T14:55:40Z</time></trkpt><trkpt lat="45.19452382271086" lon="7.854450308953031"><ele>189.0</ele><time>2026-05-01T14:55:41Z</time></trkpt><trkpt lat="45.194348366200565" lon="7.854052110161649"><ele>190.0</ele><time>2026-05-01T14:55:42Z</time></trkpt><trkpt lat="45.19418703047194" lon="7.853684893745615"><ele>189.0</ele><time>2026-05-01T14:55:43Z</time></trkpt><trkpt lat="45.19402366294677" lon="7.8533146255542"><ele>188.0</ele><time>2026-05-01T14:55:44Z</time></trkpt><trkpt lat="45.19385871811932" lon="7.852942820417927"><ele>186.5</ele><time>2026-05-01T14:55:45Z</time></trkpt><trkpt lat="45.19369881760072" lon="7.852585157850857"><ele>185.0</ele><time>2026-05-01T14:55:46Z</time></trkpt><trkpt lat="45.193528179913415" lon="7.852210545598555"><ele>185.0</ele><time>2026-05-01T14:55:47Z</time></trkpt><trkpt lat="45.19334733877088" lon="7.851817598456408"><ele>185.0</ele><time>2026-05-01T14:55:48Z</time></trkpt><trkpt lat="45.193172913522886" lon="7.851433544618118"><ele>185.0</ele><time>2026-05-01T14:55:49Z</time></trkpt><trkpt lat="45.193010752115995" lon="7.851075277655017"><ele>185.0</ele><time>2026-05-01T14:55:50Z</time></trkpt><trkpt lat="45.192853274089494" lon="7.850728804336549"><ele>186.0</ele><time>2026-05-01T14:55:51Z</time></trkpt><trkpt lat="45.19269914461713" lon="7.850395749428647"><ele>187.0</ele><time>2026-05-01T14:55:52Z</time></trkpt><trkpt lat="45.19254483691253" lon="7.850068875094032"><ele>187.0</ele><time>2026-05-01T14:55:53Z</time></trkpt><trkpt lat="45.19238643180054" lon="7.849734677691537"><ele>187.0</ele><time>2026-05-01T14:55:54Z</time></trkpt><trkpt lat="45.19222158135067" lon="7.849397481706912"><ele>188.0</ele><time>2026-05-01T14:55:55Z</time></trkpt><trkpt lat="45.19204997970611" lon="7.8490559104285795"><ele>189.0</ele><time>2026-05-01T14:55:56Z</time></trkpt><trkpt lat="45.19187410089934" lon="7.848714848378544"><ele>189.0</ele><time>2026-05-01T14:55:57Z</time></trkpt><trkpt lat="45.19169091668374" lon="7.848370611540167"><ele>189.0</ele><time>2026-05-01T14:55:58Z</time></trkpt><trkpt lat="45.19149170779266" lon="7.8479906005634374"><ele>187.0</ele><time>2026-05-01T14:55:59Z</time></trkpt><trkpt lat="45.1912874376944" lon="7.847591398176297"><ele>185.0</ele><time>2026-05-01T14:56:00Z</time></trkpt><trkpt lat="45.19108241631904" lon="7.847171723187776"><ele>185.5</ele><time>2026-05-01T14:56:01Z</time></trkpt><trkpt lat="45.190875980977765" lon="7.8467407228525"><ele>186.0</ele><time>2026-05-01T14:56:02Z</time></trkpt><trkpt lat="45.1906653172453" lon="7.84630150643146"><ele>186.5</ele><time>2026-05-01T14:56:03Z</time></trkpt><trkpt lat="45.19045006614362" lon="7.845862250153458"><ele>187.0</ele><time>2026-05-01T14:56:04Z</time></trkpt><trkpt lat="45.19022999836699" lon="7.845419000401638"><ele>186.0</ele><time>2026-05-01T14:56:05Z</time></trkpt><trkpt lat="45.19001207648057" lon="7.844981745180695"><ele>185.0</ele><time>2026-05-01T14:56:06Z</time></trkpt><trkpt lat="45.18979412306691" lon="7.844549437981979"><ele>187.5</ele><time>2026-05-01T14:56:07Z</time></trkpt><trkpt lat="45.18957639331593" lon="7.844120540243689"><ele>190.0</ele><time>2026-05-01T14:56:08Z</time></trkpt><trkpt lat="45.18935806805328" lon="7.843684253802156"><ele>189.5</ele><time>2026-05-01T14:56:09Z</time></trkpt><trkpt lat="45.18913633933959" lon="7.84324084323496"><ele>189.0</ele><time>2026-05-01T14:56:10Z</time></trkpt><trkpt lat="45.18891520530979" lon="7.842802303826026"><ele>187.5</ele><time>2026-05-01T14:56:11Z</time></trkpt><trkpt lat="45.18869450494419" lon="7.842376373943725"><ele>186.0</ele><time>2026-05-01T14:56:12Z</time></trkpt><trkpt lat="45.18846935639692" lon="7.8419455225629955"><ele>186.0</ele><time>2026-05-01T14:56:13Z</time></trkpt><trkpt lat="45.1882458394627" lon="7.841520107588373"><ele>186.0</ele><time>2026-05-01T14:56:14Z</time></trkpt><trkpt lat="45.18802939363208" lon="7.841106771936203"><ele>186.5</ele><time>2026-05-01T14:56:15Z</time></trkpt><trkpt lat="45.18781113836036" lon="7.840693488173419"><ele>187.0</ele><time>2026-05-01T14:56:16Z</time></trkpt><trkpt lat="45.18759047751167" lon="7.840280569422051"><ele>187.0</ele><time>2026-05-01T14:56:17Z</time></trkpt><trkpt lat="45.187363717809156" lon="7.839856839137386"><ele>187.0</ele><time>2026-05-01T14:56:18Z</time></trkpt><trkpt lat="45.187134109671646" lon="7.839426196048456"><ele>187.5</ele><time>2026-05-01T14:56:19Z</time></trkpt><trkpt lat="45.18690589865442" lon="7.838997123017902"><ele>188.0</ele><time>2026-05-01T14:56:20Z</time></trkpt><trkpt lat="45.18667754949726" lon="7.838563166593934"><ele>187.5</ele><time>2026-05-01T14:56:21Z</time></trkpt><trkpt lat="45.186451188203186" lon="7.8381288435796455"><ele>187.0</ele><time>2026-05-01T14:56:22Z</time></trkpt><trkpt lat="45.18622732844898" lon="7.837686221088334"><ele>187.5</ele><time>2026-05-01T14:56:23Z</time></trkpt><trkpt lat="45.186009463789865" lon="7.837251888034882"><ele>188.0</ele><time>2026-05-01T14:56:24Z</time></trkpt><trkpt lat="45.18580613220911" lon="7.836845350167695"><ele>188.5</ele><time>2026-05-01T14:56:25Z</time></trkpt><trkpt lat="45.18560437009778" lon="7.836439971419312"><ele>189.0</ele><time>2026-05-01T14:56:26Z</time></trkpt><trkpt lat="45.18540615881672" lon="7.836042546651821"><ele>188.5</ele><time>2026-05-01T14:56:27Z</time></trkpt><trkpt lat="45.18520078379468" lon="7.835636688049602"><ele>188.0</ele><time>2026-05-01T14:56:28Z</time></trkpt><trkpt lat="45.184996050942516" lon="7.835234573886562"><ele>188.5</ele><time>2026-05-01T14:56:29Z</time></trkpt><trkpt lat="45.184795679041244" lon="7.834839687931712"><ele>189.0</ele><time>2026-05-01T14:56:30Z</time></trkpt><trkpt lat="45.18459142986893" lon="7.834439116125898"><ele>189.0</ele><time>2026-05-01T14:56:31Z</time></trkpt><trkpt lat="45.1843751918891" lon="7.834021364937497"><ele>189.0</ele><time>2026-05-01T14:56:32Z</time></trkpt><trkpt lat="45.18415332335796" lon="7.833591016898124"><ele>187.5</ele><time>2026-05-01T14:56:33Z</time></trkpt><trkpt lat="45.18393088727977" lon="7.833147850180964"><ele>186.0</ele><time>2026-05-01T14:56:34Z</time></trkpt><trkpt lat="45.183707281044185" lon="7.832690503819985"><ele>187.0</ele><time>2026-05-01T14:56:35Z</time></trkpt><trkpt lat="45.18348414415687" lon="7.832229831089443"><ele>188.0</ele><time>2026-05-01T14:56:36Z</time></trkpt><trkpt lat="45.183264375873435" lon="7.831776105892126"><ele>189.5</ele><time>2026-05-01T14:56:37Z</time></trkpt><trkpt lat="45.183058655751665" lon="7.831360258823741"><ele>191.0</ele><time>2026-05-01T14:56:38Z</time></trkpt><trkpt lat="45.182856845690566" lon="7.830959063655037"><ele>191.5</ele><time>2026-05-01T14:56:39Z</time></trkpt><trkpt lat="45.18264613163187" lon="7.830549626676025"><ele>192.0</ele><time>2026-05-01T14:56:40Z</time></trkpt><trkpt lat="45.182428821159185" lon="7.830128281468338"><ele>192.5</ele><time>2026-05-01T14:56:41Z</time></trkpt><trkpt lat="45.18220643244776" lon="7.829695222769573"><ele>193.0</ele><time>2026-05-01T14:56:42Z</time></trkpt><trkpt lat="45.18198386252772" lon="7.829253869939188"><ele>193.0</ele><time>2026-05-01T14:56:43Z</time></trkpt><trkpt lat="45.18176225502835" lon="7.82880703809137"><ele>193.0</ele><time>2026-05-01T14:56:44Z</time></trkpt><trkpt lat="45.181544790195815" lon="7.828356542646107"><ele>192.0</ele><time>2026-05-01T14:56:45Z</time></trkpt><trkpt lat="45.18132852819043" lon="7.827902532126548"><ele>191.0</ele><time>2026-05-01T14:56:46Z</time></trkpt><trkpt lat="45.18111166010264" lon="7.827447391449277"><ele>191.0</ele><time>2026-05-01T14:56:47Z</time></trkpt><trkpt lat="45.18089479769622" lon="7.826993815240952"><ele>191.0</ele><time>2026-05-01T14:56:48Z</time></trkpt><trkpt lat="45.180675836907746" lon="7.826538218703298"><ele>191.0</ele><time>2026-05-01T14:56:49Z</time></trkpt><trkpt lat="45.18045693538116" lon="7.826093432694316"><ele>191.0</ele><time>2026-05-01T14:56:50Z</time></trkpt><trkpt lat="45.18023542199768" lon="7.825648893468672"><ele>190.5</ele><time>2026-05-01T14:56:51Z</time></trkpt><trkpt lat="45.18000886901324" lon="7.825195308637772"><ele>190.0</ele><time>2026-05-01T14:56:52Z</time></trkpt><trkpt lat="45.179792570439666" lon="7.8247625321103325"><ele>191.5</ele><time>2026-05-01T14:56:53Z</time></trkpt><trkpt lat="45.17958530880246" lon="7.824346049033105"><ele>193.0</ele><time>2026-05-01T14:56:54Z</time></trkpt><trkpt lat="45.179368623855275" lon="7.823908212443842"><ele>194.0</ele><time>2026-05-01T14:56:55Z</time></trkpt><trkpt lat="45.17914754008119" lon="7.823460635087127"><ele>195.0</ele><time>2026-05-01T14:56:56Z</time></trkpt><trkpt lat="45.17893547769795" lon="7.823033387684308"><ele>194.5</ele><time>2026-05-01T14:56:57Z</time></trkpt><trkpt lat="45.178726266199824" lon="7.822613903928666"><ele>194.0</ele><time>2026-05-01T14:56:58Z</time></trkpt><trkpt lat="45.17852780320668" lon="7.822214731478313"><ele>194.0</ele><time>2026-05-01T14:56:59Z</time></trkpt><trkpt lat="45.17832743175016" lon="7.821813662696935"><ele>194.0</ele><time>2026-05-01T14:57:00Z</time></trkpt><trkpt lat="45.17812017542394" lon="7.821396784813556"><ele>193.5</ele><time>2026-05-01T14:57:01Z</time></trkpt><trkpt lat="45.177907956746374" lon="7.820969262203943"><ele>193.0</ele><time>2026-05-01T14:57:02Z</time></trkpt><trkpt lat="45.17768854004373" lon="7.820528018439541"><ele>193.0</ele><time>2026-05-01T14:57:03Z</time></trkpt><trkpt lat="45.17747459777047" lon="7.820098578393213"><ele>193.0</ele><time>2026-05-01T14:57:04Z</time></trkpt><trkpt lat="45.177263297463575" lon="7.819673734759172"><ele>194.5</ele><time>2026-05-01T14:57:05Z</time></trkpt><trkpt lat="45.177047029143615" lon="7.819240024426833"><ele>196.0</ele><time>2026-05-01T14:57:06Z</time></trkpt><trkpt lat="45.176827601641314" lon="7.81879803739456"><ele>195.5</ele><time>2026-05-01T14:57:07Z</time></trkpt><trkpt lat="45.176613660312704" lon="7.818369519321544"><ele>195.0</ele><time>2026-05-01T14:57:08Z</time></trkpt><trkpt lat="45.17640412499033" lon="7.817957194106799"><ele>195.5</ele><time>2026-05-01T14:57:09Z</time></trkpt><trkpt lat="45.176195645218534" lon="7.81754984857004"><ele>196.0</ele><time>2026-05-01T14:57:10Z</time></trkpt><trkpt lat="45.17598746469952" lon="7.817145641288203"><ele>196.5</ele><time>2026-05-01T14:57:11Z</time></trkpt><trkpt lat="45.17577641714403" lon="7.816731206640795"><ele>197.0</ele><time>2026-05-01T14:57:12Z</time></trkpt><trkpt lat="45.17556403354606" lon="7.816308112362177"><ele>196.5</ele><time>2026-05-01T14:57:13Z</time></trkpt><trkpt lat="45.17534714504184" lon="7.815870575401742"><ele>196.0</ele><time>2026-05-01T14:57:14Z</time></trkpt><trkpt lat="45.17512727342308" lon="7.815425400638609"><ele>196.5</ele><time>2026-05-01T14:57:15Z</time></trkpt><trkpt lat="45.174903199617596" lon="7.814975486610518"><ele>197.0</ele><time>2026-05-01T14:57:16Z</time></trkpt><trkpt lat="45.17468964560276" lon="7.814550736310542"><ele>197.5</ele><time>2026-05-01T14:57:17Z</time></trkpt><trkpt lat="45.174475661364205" lon="7.81411989591222"><ele>198.0</ele><time>2026-05-01T14:57:18Z</time></trkpt><trkpt lat="45.17426297201886" lon="7.81368610942499"><ele>198.5</ele><time>2026-05-01T14:57:19Z</time></trkpt><trkpt lat="45.174047925834735" lon="7.813255866644226"><ele>199.0</ele><time>2026-05-01T14:57:20Z</time></trkpt><trkpt lat="45.17382703489903" lon="7.812820828557968"><ele>198.0</ele><time>2026-05-01T14:57:21Z</time></trkpt><trkpt lat="45.17361412753287" lon="7.812399354414922"><ele>197.0</ele><time>2026-05-01T14:57:22Z</time></trkpt><trkpt lat="45.17341649661024" lon="7.812006567408209"><ele>197.0</ele><time>2026-05-01T14:57:23Z</time></trkpt><trkpt lat="45.173227601736784" lon="7.8116213614224295"><ele>197.0</ele><time>2026-05-01T14:57:24Z</time></trkpt><trkpt lat="45.17303689074418" lon="7.811227698168964"><ele>196.5</ele><time>2026-05-01T14:57:25Z</time></trkpt><trkpt lat="45.172848799822106" lon="7.810839397665653"><ele>196.0</ele><time>2026-05-01T14:57:26Z</time></trkpt><trkpt lat="45.172659019288744" lon="7.81045366769583"><ele>196.5</ele><time>2026-05-01T14:57:27Z</time></trkpt><trkpt lat="45.172471097751725" lon="7.810073220257917"><ele>197.0</ele><time>2026-05-01T14:57:28Z</time></trkpt><trkpt lat="45.17228708689243" lon="7.80969324114792"><ele>198.0</ele><time>2026-05-01T14:57:29Z</time></trkpt><trkpt lat="45.17210471959462" lon="7.809302439344984"><ele>199.0</ele><time>2026-05-01T14:57:30Z</time></trkpt><trkpt lat="45.17192033956276" lon="7.808897198104166"><ele>199.5</ele><time>2026-05-01T14:57:31Z</time></trkpt><trkpt lat="45.17173546682485" lon="7.808486538141996"><ele>200.0</ele><time>2026-05-01T14:57:32Z</time></trkpt><trkpt lat="45.17155131202613" lon="7.8080931647412966"><ele>200.0</ele><time>2026-05-01T14:57:33Z</time></trkpt><trkpt lat="45.17135677435285" lon="7.807696461767368"><ele>200.0</ele><time>2026-05-01T14:57:34Z</time></trkpt><trkpt lat="45.171150742572635" lon="7.807288182065707"><ele>199.5</ele><time>2026-05-01T14:57:35Z</time></trkpt><trkpt lat="45.17093221825265" lon="7.806859323644509"><ele>199.0</ele><time>2026-05-01T14:57:36Z</time></trkpt><trkpt lat="45.1707094379605" lon="7.80641942000155"><ele>199.5</ele><time>2026-05-01T14:57:37Z</time></trkpt><trkpt lat="45.170485307107924" lon="7.805968985769944"><ele>200.0</ele><time>2026-05-01T14:57:38Z</time></trkpt><trkpt lat="45.17026642306772" lon="7.80552433132808"><ele>200.0</ele><time>2026-05-01T14:57:39Z</time></trkpt><trkpt lat="45.1700545918152" lon="7.805093050138867"><ele>200.0</ele><time>2026-05-01T14:57:40Z</time></trkpt><trkpt lat="45.16984609637847" lon="7.804668765920481"><ele>201.0</ele><time>2026-05-01T14:57:41Z</time></trkpt><trkpt lat="45.16963831131499" lon="7.80424721518073"><ele>202.0</ele><time>2026-05-01T14:57:42Z</time></trkpt><trkpt lat="45.169426795786485" lon="7.803824941985852"><ele>200.5</ele><time>2026-05-01T14:57:43Z</time></trkpt><trkpt lat="45.169208260424895" lon="7.803391908345108"><ele>199.0</ele><time>2026-05-01T14:57:44Z</time></trkpt><trkpt lat="45.16898255191835" lon="7.802943433035879"><ele>199.5</ele><time>2026-05-01T14:57:45Z</time></trkpt><trkpt lat="45.16875473491914" lon="7.8024872920902375"><ele>200.0</ele><time>2026-05-01T14:57:46Z</time></trkpt><trkpt lat="45.16852491357631" lon="7.8020262155504225"><ele>200.0</ele><time>2026-05-01T14:57:47Z</time></trkpt><trkpt lat="45.1683056767193" lon="7.801585010311344"><ele>200.0</ele><time>2026-05-01T14:57:48Z</time></trkpt><trkpt lat="45.16809688435341" lon="7.801170656957546"><ele>201.0</ele><time>2026-05-01T14:57:49Z</time></trkpt><trkpt lat="45.167895488038354" lon="7.800775849210213"><ele>202.0</ele><time>2026-05-01T14:57:50Z</time></trkpt><trkpt lat="45.16769598112776" lon="7.800384858302891"><ele>202.0</ele><time>2026-05-01T14:57:51Z</time></trkpt><trkpt lat="45.167485786173124" lon="7.799978826619211"><ele>202.0</ele><time>2026-05-01T14:57:52Z</time></trkpt><trkpt lat="45.16727144083335" lon="7.7995641982095965"><ele>201.5</ele><time>2026-05-01T14:57:53Z</time></trkpt><trkpt lat="45.16705479633062" lon="7.799143607584298"><ele>201.0</ele><time>2026-05-01T14:57:54Z</time></trkpt><trkpt lat="45.16684335778611" lon="7.798724569733783"><ele>201.0</ele><time>2026-05-01T14:57:55Z</time></trkpt><trkpt lat="45.1666350361878" lon="7.798308835519861"><ele>201.0</ele><time>2026-05-01T14:57:56Z</time></trkpt><trkpt lat="45.166437360196845" lon="7.797912943114826"><ele>201.0</ele><time>2026-05-01T14:57:57Z</time></trkpt><trkpt lat="45.16623591088268" lon="7.797514108384907"><ele>201.0</ele><time>2026-05-01T14:57:58Z</time></trkpt><trkpt lat="45.16602297298514" lon="7.797104632472235"><ele>203.0</ele><time>2026-05-01T14:57:59Z</time></trkpt><trkpt lat="45.16579911943401" lon="7.7966789312334255"><ele>205.0</ele><time>2026-05-01T14:58:00Z</time></trkpt><trkpt lat="45.16557509328399" lon="7.796244718600849"><ele>203.5</ele><time>2026-05-01T14:58:01Z</time></trkpt><trkpt lat="45.16536396595221" lon="7.795814177104267"><ele>202.0</ele><time>2026-05-01T14:58:02Z</time></trkpt><trkpt lat="45.16515832651927" lon="7.795384654001508"><ele>201.5</ele><time>2026-05-01T14:58:03Z</time></trkpt><trkpt lat="45.164955423072726" lon="7.794953728205012"><ele>201.0</ele><time>2026-05-01T14:58:04Z</time></trkpt><trkpt lat="45.16474691105769" lon="7.794508002788258"><ele>202.0</ele><time>2026-05-01T14:58:05Z</time></trkpt><trkpt lat="45.164536457017455" lon="7.794055424952207"><ele>203.0</ele><time>2026-05-01T14:58:06Z</time></trkpt><trkpt lat="45.1643286815158" lon="7.7936048867441"><ele>203.0</ele><time>2026-05-01T14:58:07Z</time></trkpt><trkpt lat="45.16412834592966" lon="7.793171345765659"><ele>203.0</ele><time>2026-05-01T14:58:08Z</time></trkpt><trkpt lat="45.16393831556732" lon="7.792770495810774"><ele>203.5</ele><time>2026-05-01T14:58:09Z</time></trkpt><trkpt lat="45.16374582925589" lon="7.792377928758121"><ele>204.0</ele><time>2026-05-01T14:58:10Z</time></trkpt><trkpt lat="45.16354223777983" lon="7.791971663387125"><ele>204.0</ele><time>2026-05-01T14:58:11Z</time></trkpt><trkpt lat="45.1633328725206" lon="7.791551076894694"><ele>204.0</ele><time>2026-05-01T14:58:12Z</time></trkpt><trkpt lat="45.16312368903671" lon="7.79112494828911"><ele>203.5</ele><time>2026-05-01T14:58:13Z</time></trkpt><trkpt lat="45.16291215240796" lon="7.790694409209518"><ele>203.0</ele><time>2026-05-01T14:58:14Z</time></trkpt><trkpt lat="45.16269476907422" lon="7.790253444178503"><ele>203.5</ele><time>2026-05-01T14:58:15Z</time></trkpt><trkpt lat="45.162472752428826" lon="7.789808995460308"><ele>204.0</ele><time>2026-05-01T14:58:16Z</time></trkpt><trkpt lat="45.162244800490804" lon="7.789359086963399"><ele>204.5</ele><time>2026-05-01T14:58:17Z</time></trkpt><trkpt lat="45.16201199485406" lon="7.788900621626363"><ele>205.0</ele><time>2026-05-01T14:58:18Z</time></trkpt><trkpt lat="45.16178003833117" lon="7.788440310009415"><ele>206.5</ele><time>2026-05-01T14:58:19Z</time></trkpt><trkpt lat="45.161549744454845" lon="7.787975697355849"><ele>208.0</ele><time>2026-05-01T14:58:20Z</time></trkpt><trkpt lat="45.16131819811377" lon="7.78750450833649"><ele>208.5</ele><time>2026-05-01T14:58:21Z</time></trkpt><trkpt lat="45.1610839204974" lon="7.787028017800545"><ele>209.0</ele><time>2026-05-01T14:58:22Z</time></trkpt><trkpt lat="45.16085216371663" lon="7.7865610959054194"><ele>210.0</ele><time>2026-05-01T14:58:23Z</time></trkpt><trkpt lat="45.160620164261346" lon="7.786101264036315"><ele>211.0</ele><time>2026-05-01T14:58:24Z</time></trkpt><trkpt lat="45.16038358964834" lon="7.785633439818234"><ele>210.0</ele><time>2026-05-01T14:58:25Z</time></trkpt><trkpt lat="45.16014478685544" lon="7.785158175462024"><ele>209.0</ele><time>2026-05-01T14:58:26Z</time></trkpt><trkpt lat="45.15990630959369" lon="7.784677193725836"><ele>207.0</ele><time>2026-05-01T14:58:27Z</time></trkpt><trkpt lat="45.159668916189325" lon="7.784197651938645"><ele>205.0</ele><time>2026-05-01T14:58:28Z</time></trkpt><trkpt lat="45.15944204973221" lon="7.78374162269078"><ele>206.0</ele><time>2026-05-01T14:58:29Z</time></trkpt><trkpt lat="45.159222549868055" lon="7.783302555297666"><ele>207.0</ele><time>2026-05-01T14:58:30Z</time></trkpt><trkpt lat="45.158996093597075" lon="7.782850765536618"><ele>207.5</ele><time>2026-05-01T14:58:31Z</time></trkpt><trkpt lat="45.15876835826901" lon="7.782394842360749"><ele>208.0</ele><time>2026-05-01T14:58:32Z</time></trkpt><trkpt lat="45.15854676876906" lon="7.781958547651996"><ele>207.0</ele><time>2026-05-01T14:58:33Z</time></trkpt><trkpt lat="45.158323921698255" lon="7.781531879785839"><ele>206.0</ele><time>2026-05-01T14:58:34Z</time></trkpt><trkpt lat="45.158096444600965" lon="7.781102073096396"><ele>204.0</ele><time>2026-05-01T14:58:35Z</time></trkpt><trkpt lat="45.157859747389125" lon="7.780653388232593"><ele>202.0</ele><time>2026-05-01T14:58:36Z</time></trkpt><trkpt lat="45.1576250057864" lon="7.780205086010187"><ele>204.0</ele><time>2026-05-01T14:58:37Z</time></trkpt><trkpt lat="45.157389232662005" lon="7.779752048214159"><ele>206.0</ele><time>2026-05-01T14:58:38Z</time></trkpt><trkpt lat="45.157151420758716" lon="7.779291848166956"><ele>206.0</ele><time>2026-05-01T14:58:39Z</time></trkpt><trkpt lat="45.15691065199221" lon="7.77882508604295"><ele>206.0</ele><time>2026-05-01T14:58:40Z</time></trkpt><trkpt lat="45.1566723886884" lon="7.778356402387777"><ele>206.5</ele><time>2026-05-01T14:58:41Z</time></trkpt><trkpt lat="45.1564432111479" lon="7.777900071489579"><ele>207.0</ele><time>2026-05-01T14:58:42Z</time></trkpt><trkpt lat="45.15622402480671" lon="7.777461549539121"><ele>207.0</ele><time>2026-05-01T14:58:43Z</time></trkpt><trkpt lat="45.15599728546809" lon="7.7770089083744915"><ele>207.0</ele><time>2026-05-01T14:58:44Z</time></trkpt><trkpt lat="45.155771135159476" lon="7.776552110627178"><ele>207.0</ele><time>2026-05-01T14:58:45Z</time></trkpt><trkpt lat="45.155553276923726" lon="7.776109691477283"><ele>207.0</ele><time>2026-05-01T14:58:46Z</time></trkpt><trkpt lat="45.15535114929361" lon="7.775699980676892"><ele>207.5</ele><time>2026-05-01T14:58:47Z</time></trkpt><trkpt lat="45.15516013098078" lon="7.775315434288397"><ele>208.0</ele><time>2026-05-01T14:58:48Z</time></trkpt><trkpt lat="45.15497078146342" lon="7.774935579787181"><ele>208.0</ele><time>2026-05-01T14:58:49Z</time></trkpt><trkpt lat="45.154780197710984" lon="7.774555382247898"><ele>208.0</ele><time>2026-05-01T14:58:50Z</time></trkpt><trkpt lat="45.15458685952934" lon="7.774170504085638"><ele>208.0</ele><time>2026-05-01T14:58:51Z</time></trkpt><trkpt lat="45.15438218222119" lon="7.773763365452701"><ele>208.0</ele><time>2026-05-01T14:58:52Z</time></trkpt><trkpt lat="45.15417303412683" lon="7.773344225840721"><ele>207.5</ele><time>2026-05-01T14:58:53Z</time></trkpt><trkpt lat="45.153956571682514" lon="7.772909209704755"><ele>207.0</ele><time>2026-05-01T14:58:54Z</time></trkpt><trkpt lat="45.15373839484714" lon="7.77247193070448"><ele>207.0</ele><time>2026-05-01T14:58:55Z</time></trkpt><trkpt lat="45.153515170994275" lon="7.772025970757892"><ele>207.0</ele><time>2026-05-01T14:58:56Z</time></trkpt><trkpt lat="45.15328886895456" lon="7.771570149734458"><ele>206.5</ele><time>2026-05-01T14:58:57Z</time></trkpt><trkpt lat="45.15306182144492" lon="7.771110810607354"><ele>206.0</ele><time>2026-05-01T14:58:58Z</time></trkpt><trkpt lat="45.15283800117166" lon="7.770657466514486"><ele>208.5</ele><time>2026-05-01T14:58:59Z</time></trkpt><trkpt lat="45.15262576756804" lon="7.770226820477671"><ele>211.0</ele><time>2026-05-01T14:59:00Z</time></trkpt><trkpt lat="45.152413041563825" lon="7.769797412524584"><ele>208.5</ele><time>2026-05-01T14:59:01Z</time></trkpt><trkpt lat="45.15219467931362" lon="7.769358031970186"><ele>206.0</ele><time>2026-05-01T14:59:02Z</time></trkpt><trkpt lat="45.151969131024366" lon="7.7689016821735395"><ele>206.0</ele><time>2026-05-01T14:59:03Z</time></trkpt><trkpt lat="45.15174079477385" lon="7.768437683765268"><ele>206.0</ele><time>2026-05-01T14:59:04Z</time></trkpt><trkpt lat="45.15151014771485" lon="7.767972373372422"><ele>207.5</ele><time>2026-05-01T14:59:05Z</time></trkpt><trkpt lat="45.15127805843629" lon="7.767508123290729"><ele>209.0</ele><time>2026-05-01T14:59:06Z</time></trkpt><trkpt lat="45.15104540238073" lon="7.767041732359735"><ele>209.0</ele><time>2026-05-01T14:59:07Z</time></trkpt><trkpt lat="45.15081438482282" lon="7.766577627243089"><ele>209.0</ele><time>2026-05-01T14:59:08Z</time></trkpt><trkpt lat="45.150583813750465" lon="7.7661117933985055"><ele>209.5</ele><time>2026-05-01T14:59:09Z</time></trkpt><trkpt lat="45.15035071954169" lon="7.765640035321761"><ele>210.0</ele><time>2026-05-01T14:59:10Z</time></trkpt><trkpt lat="45.15011634393418" lon="7.765165935872295"><ele>210.0</ele><time>2026-05-01T14:59:11Z</time></trkpt><trkpt lat="45.149879152742" lon="7.764687665737103"><ele>210.0</ele><time>2026-05-01T14:59:12Z</time></trkpt><trkpt lat="45.14964114821644" lon="7.7642106323183615"><ele>210.0</ele><time>2026-05-01T14:59:13Z</time></trkpt><trkpt lat="45.14940375201105" lon="7.7637327823053495"><ele>210.0</ele><time>2026-05-01T14:59:14Z</time></trkpt><trkpt lat="45.149170646466864" lon="7.763264007993336"><ele>210.0</ele><time>2026-05-01T14:59:15Z</time></trkpt><trkpt lat="45.14893669855855" lon="7.762793018928799"><ele>210.0</ele><time>2026-05-01T14:59:16Z</time></trkpt><trkpt lat="45.14870102845064" lon="7.762316550470004"><ele>211.5</ele><time>2026-05-01T14:59:17Z</time></trkpt><trkpt lat="45.14846625948738" lon="7.7618345620862605"><ele>213.0</ele><time>2026-05-01T14:59:18Z</time></trkpt><trkpt lat="45.1482322506533" lon="7.761353432087656"><ele>212.5</ele><time>2026-05-01T14:59:19Z</time></trkpt><trkpt lat="45.147998062924415" lon="7.760872693466963"><ele>212.0</ele><time>2026-05-01T14:59:20Z</time></trkpt><trkpt lat="45.14776432633179" lon="7.760391059781637"><ele>211.5</ele><time>2026-05-01T14:59:21Z</time></trkpt><trkpt lat="45.147540672542" lon="7.759936372331911"><ele>211.0</ele><time>2026-05-01T14:59:22Z</time></trkpt><trkpt lat="45.14731281215656" lon="7.759474721610915"><ele>212.0</ele><time>2026-05-01T14:59:23Z</time></trkpt><trkpt lat="45.14708167386208" lon="7.759012713516663"><ele>213.0</ele><time>2026-05-01T14:59:24Z</time></trkpt><trkpt lat="45.146851852347886" lon="7.758552005700316"><ele>213.0</ele><time>2026-05-01T14:59:25Z</time></trkpt><trkpt lat="45.14663457711956" lon="7.758118494013823"><ele>213.0</ele><time>2026-05-01T14:59:26Z</time></trkpt><trkpt lat="45.146431785299136" lon="7.757713151265332"><ele>214.0</ele><time>2026-05-01T14:59:27Z</time></trkpt><trkpt lat="45.1462339682714" lon="7.757309690770137"><ele>215.0</ele><time>2026-05-01T14:59:28Z</time></trkpt><trkpt lat="45.14604116520923" lon="7.756916541116274"><ele>214.5</ele><time>2026-05-01T14:59:29Z</time></trkpt><trkpt lat="45.14584876014433" lon="7.756526945150868"><ele>214.0</ele><time>2026-05-01T14:59:30Z</time></trkpt><trkpt lat="45.14565357879649" lon="7.756133841225781"><ele>214.0</ele><time>2026-05-01T14:59:31Z</time></trkpt><trkpt lat="45.14545643615115" lon="7.755741074496425"><ele>214.0</ele><time>2026-05-01T14:59:32Z</time></trkpt><trkpt lat="45.14525907756361" lon="7.755348673719561"><ele>214.0</ele><time>2026-05-01T14:59:33Z</time></trkpt><trkpt lat="45.14506507302526" lon="7.754964187264001"><ele>214.0</ele><time>2026-05-01T14:59:34Z</time></trkpt><trkpt lat="45.144876450209935" lon="7.754586957204727"><ele>213.5</ele><time>2026-05-01T14:59:35Z</time></trkpt><trkpt lat="45.144694693289104" lon="7.754219785068024"><ele>213.0</ele><time>2026-05-01T14:59:36Z</time></trkpt><trkpt lat="45.14451265163834" lon="7.753845456724868"><ele>213.0</ele><time>2026-05-01T14:59:37Z</time></trkpt><trkpt lat="45.14433100269064" lon="7.753473720139838"><ele>213.0</ele><time>2026-05-01T14:59:38Z</time></trkpt><trkpt lat="45.14415016074813" lon="7.753108392554603"><ele>213.5</ele><time>2026-05-01T14:59:39Z</time></trkpt><trkpt lat="45.143973374903204" lon="7.75275007693506"><ele>214.0</ele><time>2026-05-01T14:59:40Z</time></trkpt><trkpt lat="45.14379353671877" lon="7.752384558993228"><ele>214.0</ele><time>2026-05-01T14:59:41Z</time></trkpt><trkpt lat="45.14361066131044" lon="7.752011649423315"><ele>214.0</ele><time>2026-05-01T14:59:42Z</time></trkpt><trkpt lat="45.143424325591795" lon="7.751632565394598"><ele>214.0</ele><time>2026-05-01T14:59:43Z</time></trkpt><trkpt lat="45.143232688011054" lon="7.7512483526655025"><ele>214.0</ele><time>2026-05-01T14:59:44Z</time></trkpt><trkpt lat="45.14303368124066" lon="7.750852070646149"><ele>214.5</ele><time>2026-05-01T14:59:45Z</time></trkpt><trkpt lat="45.142834809138805" lon="7.7504524782415345"><ele>215.0</ele><time>2026-05-01T14:59:46Z</time></trkpt><trkpt lat="45.14263350977093" lon="7.750046020237058"><ele>215.0</ele><time>2026-05-01T14:59:47Z</time></trkpt><trkpt lat="45.14242955648699" lon="7.749633995062997"><ele>215.0</ele><time>2026-05-01T14:59:48Z</time></trkpt><trkpt lat="45.14221892247516" lon="7.749208868709702"><ele>216.0</ele><time>2026-05-01T14:59:49Z</time></trkpt><trkpt lat="45.14200750570404" lon="7.748780815717617"><ele>217.0</ele><time>2026-05-01T14:59:50Z</time></trkpt><trkpt lat="45.14179859320967" lon="7.748354851170185"><ele>217.5</ele><time>2026-05-01T14:59:51Z</time></trkpt><trkpt lat="45.141589361362726" lon="7.747930154317859"><ele>218.0</ele><time>2026-05-01T14:59:52Z</time></trkpt><trkpt lat="45.141377511198236" lon="7.7475051280466465"><ele>218.5</ele><time>2026-05-01T14:59:53Z</time></trkpt><trkpt lat="45.14116684601975" lon="7.747080043487077"><ele>219.0</ele><time>2026-05-01T14:59:54Z</time></trkpt><trkpt lat="45.140957437041465" lon="7.746652595834878"><ele>219.0</ele><time>2026-05-01T14:59:55Z</time></trkpt><trkpt lat="45.14074935457185" lon="7.746226009178191"><ele>219.0</ele><time>2026-05-01T14:59:56Z</time></trkpt><trkpt lat="45.140541765475504" lon="7.745807548354973"><ele>218.0</ele><time>2026-05-01T14:59:57Z</time></trkpt><trkpt lat="45.14033606678417" lon="7.745393200839899"><ele>217.0</ele><time>2026-05-01T14:59:58Z</time></trkpt><trkpt lat="45.14013267133162" lon="7.744987883493255"><ele>217.0</ele><time>2026-05-01T14:59:59Z</time></trkpt><trkpt lat="45.13992892144633" lon="7.7445801100570115"><ele>217.0</ele><time>2026-05-01T15:00:00Z</time></trkpt><trkpt lat="45.13972210872035" lon="7.744161556762854"><ele>217.5</ele><time>2026-05-01T15:00:01Z</time></trkpt><trkpt lat="45.13951234526546" lon="7.743735074102587"><ele>218.0</ele><time>2026-05-01T15:00:02Z</time></trkpt><trkpt lat="45.13931817966864" lon="7.743339611154592"><ele>218.0</ele><time>2026-05-01T15:00:03Z</time></trkpt><trkpt lat="45.13913526957844" lon="7.7429661654861395"><ele>218.0</ele><time>2026-05-01T15:00:04Z</time></trkpt><trkpt lat="45.13895430184175" lon="7.742594620840672"><ele>218.5</ele><time>2026-05-01T15:00:05Z</time></trkpt><trkpt lat="45.13876835967403" lon="7.742219704692918"><ele>219.0</ele><time>2026-05-01T15:00:06Z</time></trkpt><trkpt lat="45.13858162986237" lon="7.74184167263411"><ele>219.0</ele><time>2026-05-01T15:00:07Z</time></trkpt><trkpt lat="45.13839437946013" lon="7.741467205294674"><ele>219.0</ele><time>2026-05-01T15:00:08Z</time></trkpt><trkpt lat="45.13820065714594" lon="7.741080171547691"><ele>217.5</ele><time>2026-05-01T15:00:09Z</time></trkpt><trkpt lat="45.138003296004946" lon="7.740686481578609"><ele>216.0</ele><time>2026-05-01T15:00:10Z</time></trkpt><trkpt lat="45.13779583840167" lon="7.740276512406542"><ele>216.5</ele><time>2026-05-01T15:00:11Z</time></trkpt><trkpt lat="45.1375855692662" lon="7.739855593273663"><ele>217.0</ele><time>2026-05-01T15:00:12Z</time></trkpt><trkpt lat="45.13737376916072" lon="7.739426488145223"><ele>218.0</ele><time>2026-05-01T15:00:13Z</time></trkpt><trkpt lat="45.137162148610926" lon="7.738993762401556"><ele>219.0</ele><time>2026-05-01T15:00:14Z</time></trkpt><trkpt lat="45.13696296067383" lon="7.738589936546373"><ele>219.5</ele><time>2026-05-01T15:00:15Z</time></trkpt><trkpt lat="45.13676654424463" lon="7.738192780304856"><ele>220.0</ele><time>2026-05-01T15:00:16Z</time></trkpt><trkpt lat="45.13656427353828" lon="7.73778161499708"><ele>218.5</ele><time>2026-05-01T15:00:17Z</time></trkpt><trkpt lat="45.136362996428744" lon="7.737351634567309"><ele>217.0</ele><time>2026-05-01T15:00:18Z</time></trkpt><trkpt lat="45.13615378996039" lon="7.736918978123867"><ele>217.5</ele><time>2026-05-01T15:00:19Z</time></trkpt><trkpt lat="45.13592927754677" lon="7.7364839384934285"><ele>218.0</ele><time>2026-05-01T15:00:20Z</time></trkpt><trkpt lat="45.13572252731" lon="7.7360646158816895"><ele>218.0</ele><time>2026-05-01T15:00:21Z</time></trkpt><trkpt lat="45.13550634784152" lon="7.735634015085927"><ele>218.0</ele><time>2026-05-01T15:00:22Z</time></trkpt><trkpt lat="45.13528759925532" lon="7.735197912972899"><ele>218.0</ele><time>2026-05-01T15:00:23Z</time></trkpt><trkpt lat="45.1350743206562" lon="7.734771561073088"><ele>218.0</ele><time>2026-05-01T15:00:24Z</time></trkpt><trkpt lat="45.1348656463431" lon="7.734351317441828"><ele>218.0</ele><time>2026-05-01T15:00:25Z</time></trkpt><trkpt lat="45.134655876396884" lon="7.73392677207143"><ele>218.0</ele><time>2026-05-01T15:00:26Z</time></trkpt><trkpt lat="45.134445206233316" lon="7.733499496154207"><ele>217.0</ele><time>2026-05-01T15:00:27Z</time></trkpt><trkpt lat="45.13423598992497" lon="7.733076264350837"><ele>216.0</ele><time>2026-05-01T15:00:28Z</time></trkpt><trkpt lat="45.13402280783309" lon="7.732644927637906"><ele>216.0</ele><time>2026-05-01T15:00:29Z</time></trkpt><trkpt lat="45.13380954509986" lon="7.732211425160008"><ele>216.0</ele><time>2026-05-01T15:00:30Z</time></trkpt><trkpt lat="45.13359743012076" lon="7.731780832699333"><ele>217.5</ele><time>2026-05-01T15:00:31Z</time></trkpt><trkpt lat="45.13338797804431" lon="7.731356596471957"><ele>219.0</ele><time>2026-05-01T15:00:32Z</time></trkpt><trkpt lat="45.13317504970386" lon="7.730922612694681"><ele>219.0</ele><time>2026-05-01T15:00:33Z</time></trkpt><trkpt lat="45.13297038007669" lon="7.730472327562431"><ele>219.0</ele><time>2026-05-01T15:00:34Z</time></trkpt><trkpt lat="45.1327634510205" lon="7.730056308701042"><ele>219.0</ele><time>2026-05-01T15:00:35Z</time></trkpt><trkpt lat="45.13255619717131" lon="7.729632301292988"><ele>219.0</ele><time>2026-05-01T15:00:36Z</time></trkpt><trkpt lat="45.1323515366895" lon="7.729207562334456"><ele>220.5</ele><time>2026-05-01T15:00:37Z</time></trkpt><trkpt lat="45.13216548650077" lon="7.728807244709812"><ele>222.0</ele><time>2026-05-01T15:00:38Z</time></trkpt><trkpt lat="45.13199112052991" lon="7.728394892845426"><ele>222.0</ele><time>2026-05-01T15:00:39Z</time></trkpt><trkpt lat="45.13176984635247" lon="7.728000425584477"><ele>222.0</ele><time>2026-05-01T15:00:40Z</time></trkpt><trkpt lat="45.13158062134314" lon="7.727626596762952"><ele>221.5</ele><time>2026-05-01T15:00:41Z</time></trkpt><trkpt lat="45.13138689760962" lon="7.727236294470762"><ele>221.0</ele><time>2026-05-01T15:00:42Z</time></trkpt><trkpt lat="45.13118929236576" lon="7.726838187792212"><ele>221.0</ele><time>2026-05-01T15:00:43Z</time></trkpt><trkpt lat="45.1309901585835" lon="7.726445641218404"><ele>221.0</ele><time>2026-05-01T15:00:44Z</time></trkpt><trkpt lat="45.13078797784208" lon="7.726045250854642"><ele>222.0</ele><time>2026-05-01T15:00:45Z</time></trkpt><trkpt lat="45.13057755292737" lon="7.7256248730214905"><ele>223.0</ele><time>2026-05-01T15:00:46Z</time></trkpt><trkpt lat="45.13036569953781" lon="7.7252003699626615"><ele>223.5</ele><time>2026-05-01T15:00:47Z</time></trkpt><trkpt lat="45.130166615741715" lon="7.724791931224285"><ele>224.0</ele><time>2026-05-01T15:00:48Z</time></trkpt><trkpt lat="45.12997244150012" lon="7.724397027641682"><ele>223.5</ele><time>2026-05-01T15:00:49Z</time></trkpt><trkpt lat="45.129785986905134" lon="7.72402047807408"><ele>223.0</ele><time>2026-05-01T15:00:50Z</time></trkpt><trkpt lat="45.12960272295835" lon="7.723647606388401"><ele>222.5</ele><time>2026-05-01T15:00:51Z</time></trkpt><trkpt lat="45.129430173354784" lon="7.7232928858116265"><ele>222.0</ele><time>2026-05-01T15:00:52Z</time></trkpt><trkpt lat="45.12927046584999" lon="7.722964802747256"><ele>221.5</ele><time>2026-05-01T15:00:53Z</time></trkpt><trkpt lat="45.129120096872235" lon="7.722661747067511"><ele>221.0</ele><time>2026-05-01T15:00:54Z</time></trkpt><trkpt lat="45.12899083213031" lon="7.722398616808044"><ele>222.0</ele><time>2026-05-01T15:00:55Z</time></trkpt><trkpt lat="45.12886172129742" lon="7.722147064927412"><ele>223.0</ele><time>2026-05-01T15:00:56Z</time></trkpt><trkpt lat="45.128741806266646" lon="7.7219098912100606"><ele>224.0</ele><time>2026-05-01T15:00:57Z</time></trkpt><trkpt lat="45.128607265452125" lon="7.72165455264061"><ele>224.0</ele><time>2026-05-01T15:00:58Z</time></trkpt><trkpt lat="45.12845194126299" lon="7.721367317354081"><ele>224.0</ele><time>2026-05-01T15:00:59Z</time></trkpt><trkpt lat="45.128285356984314" lon="7.721050332543758"><ele>224.5</ele><time>2026-05-01T15:01:00Z</time></trkpt><trkpt lat="45.128110916602864" lon="7.720703516052214"><ele>225.0</ele><time>2026-05-01T15:01:01Z</time></trkpt><trkpt lat="45.12792984826621" lon="7.72033998445018"><ele>224.5</ele><time>2026-05-01T15:01:02Z</time></trkpt><trkpt lat="45.1277384094209" lon="7.719952427321457"><ele>224.0</ele><time>2026-05-01T15:01:03Z</time></trkpt><trkpt lat="45.12753961401956" lon="7.719551252318383"><ele>224.5</ele><time>2026-05-01T15:01:04Z</time></trkpt><trkpt lat="45.127337497835974" lon="7.719146345720516"><ele>225.0</ele><time>2026-05-01T15:01:05Z</time></trkpt><trkpt lat="45.12714800685371" lon="7.718765483497561"><ele>223.5</ele><time>2026-05-01T15:01:06Z</time></trkpt><trkpt lat="45.126969704455824" lon="7.718405510205092"><ele>222.0</ele><time>2026-05-01T15:01:07Z</time></trkpt><trkpt lat="45.12679800461452" lon="7.71806384240809"><ele>222.0</ele><time>2026-05-01T15:01:08Z</time></trkpt><trkpt lat="45.12661875229391" lon="7.717721026284237"><ele>222.0</ele><time>2026-05-01T15:01:09Z</time></trkpt><trkpt lat="45.12643495029037" lon="7.717394850450691"><ele>222.0</ele><time>2026-05-01T15:01:10Z</time></trkpt><trkpt lat="45.12623578978731" lon="7.717073902072275"><ele>222.0</ele><time>2026-05-01T15:01:11Z</time></trkpt><trkpt lat="45.12602511838662" lon="7.716759882158665"><ele>222.0</ele><time>2026-05-01T15:01:12Z</time></trkpt><trkpt lat="45.12579752997327" lon="7.7164434038656315"><ele>222.0</ele><time>2026-05-01T15:01:13Z</time></trkpt><trkpt lat="45.12556768813203" lon="7.716134522587926"><ele>221.5</ele><time>2026-05-01T15:01:14Z</time></trkpt><trkpt lat="45.12532488549724" lon="7.715823491505204"><ele>221.0</ele><time>2026-05-01T15:01:15Z</time></trkpt><trkpt lat="45.12507658551176" lon="7.715524160370326"><ele>220.5</ele><time>2026-05-01T15:01:16Z</time></trkpt><trkpt lat="45.124825379017196" lon="7.715245112314438"><ele>220.0</ele><time>2026-05-01T15:01:17Z</time></trkpt><trkpt lat="45.12456447072526" lon="7.714979909286898"><ele>220.0</ele><time>2026-05-01T15:01:18Z</time></trkpt><trkpt lat="45.124297783989846" lon="7.714728254523268"><ele>220.0</ele><time>2026-05-01T15:01:19Z</time></trkpt><trkpt lat="45.12403336047056" lon="7.71449692464393"><ele>221.5</ele><time>2026-05-01T15:01:20Z</time></trkpt><trkpt lat="45.123775832724206" lon="7.7142842515234005"><ele>223.0</ele><time>2026-05-01T15:01:21Z</time></trkpt><trkpt lat="45.1235111559643" lon="7.714086473092751"><ele>223.0</ele><time>2026-05-01T15:01:22Z</time></trkpt><trkpt lat="45.12324712080715" lon="7.713906967507714"><ele>223.0</ele><time>2026-05-01T15:01:23Z</time></trkpt><trkpt lat="45.12299280978694" lon="7.713740971042167"><ele>223.5</ele><time>2026-05-01T15:01:24Z</time></trkpt><trkpt lat="45.12275664214602" lon="7.713587699362043"><ele>224.0</ele><time>2026-05-01T15:01:25Z</time></trkpt><trkpt lat="45.12255102591943" lon="7.713454172594912"><ele>224.0</ele><time>2026-05-01T15:01:26Z</time></trkpt><trkpt lat="45.12235941918023" lon="7.713332607941762"><ele>224.0</ele><time>2026-05-01T15:01:27Z</time></trkpt><trkpt lat="45.122181043762744" lon="7.71321972336713"><ele>224.0</ele><time>2026-05-01T15:01:28Z</time></trkpt><trkpt lat="45.12201381256815" lon="7.713115788507673"><ele>224.0</ele><time>2026-05-01T15:01:29Z</time></trkpt><trkpt lat="45.12185749731539" lon="7.713013895646723"><ele>224.0</ele><time>2026-05-01T15:01:30Z</time></trkpt><trkpt lat="45.12171027990359" lon="7.712914253572953"><ele>224.0</ele><time>2026-05-01T15:01:31Z</time></trkpt><trkpt lat="45.12157054947579" lon="7.7128215903137916"><ele>223.5</ele><time>2026-05-01T15:01:32Z</time></trkpt><trkpt lat="45.12143848452236" lon="7.7127342951031626"><ele>223.0</ele><time>2026-05-01T15:01:33Z</time></trkpt><trkpt lat="45.121306304180095" lon="7.712645709135524"><ele>222.5</ele><time>2026-05-01T15:01:34Z</time></trkpt><trkpt lat="45.12116545281315" lon="7.7125539125625835"><ele>222.0</ele><time>2026-05-01T15:01:35Z</time></trkpt><trkpt lat="45.12102328801975" lon="7.712463287853926"><ele>222.0</ele><time>2026-05-01T15:01:36Z</time></trkpt><trkpt lat="45.1208751279733" lon="7.712368655481294"><ele>222.0</ele><time>2026-05-01T15:01:37Z</time></trkpt><trkpt lat="45.12073006039391" lon="7.71227402276029"><ele>222.0</ele><time>2026-05-01T15:01:38Z</time></trkpt><trkpt lat="45.12060368107999" lon="7.712190266438971"><ele>221.75</ele><time>2026-05-01T15:01:39Z</time></trkpt><trkpt lat="45.12049139529807" lon="7.712115969479074"><ele>221.5</ele><time>2026-05-01T15:01:40Z</time></trkpt><trkpt lat="45.12038345405629" lon="7.712044138786685"><ele>221.25</ele><time>2026-05-01T15:01:41Z</time></trkpt><trkpt lat="45.12027783274721" lon="7.711973513391306"><ele>221.0</ele><time>2026-05-01T15:01:42Z</time></trkpt><trkpt lat="45.1201765011094" lon="7.711907348858615"><ele>221.0</ele><time>2026-05-01T15:01:43Z</time></trkpt><trkpt lat="45.12007232021641" lon="7.711839475313929"><ele>221.00000000000003</ele><time>2026-05-01T15:01:44Z</time></trkpt><trkpt lat="45.11997261224796" lon="7.711778993806051"><ele>221.00000000000003</ele><time>2026-05-01T15:01:45Z</time></trkpt><trkpt lat="45.11988255276878" lon="7.711716106773948"><ele>221.0</ele><time>2026-05-01T15:01:46Z</time></trkpt><trkpt lat="45.11980848027499" lon="7.711652440655207"><ele>221.0</ele><time>2026-05-01T15:01:47Z</time></trkpt><trkpt lat="45.119736537648464" lon="7.711587088104137"><ele>221.16666666666669</ele><time>2026-05-01T15:01:48Z</time></trkpt><trkpt lat="45.119665446032165" lon="7.711524307195035"><ele>221.33333333333334</ele><time>2026-05-01T15:01:49Z</time></trkpt><trkpt lat="45.119596618132526" lon="7.711459980729413"><ele>221.5</ele><time>2026-05-01T15:01:50Z</time></trkpt><trkpt lat="45.119535893028576" lon="7.711402604735716"><ele>221.66666666666669</ele><time>2026-05-01T15:01:51Z</time></trkpt><trkpt lat="45.11947583471377" lon="7.711349821602521"><ele>221.83333333333334</ele><time>2026-05-01T15:01:52Z</time></trkpt><trkpt lat="45.11936723647847" lon="7.711241707624484"><ele>222.0</ele><time>2026-05-01T15:01:54Z</time></trkpt><trkpt lat="45.1193055040991" lon="7.711159190125993"><ele>221.75</ele><time>2026-05-01T15:01:55Z</time></trkpt><trkpt lat="45.11924230107904" lon="7.711057429303028"><ele>221.5</ele><time>2026-05-01T15:01:56Z</time></trkpt><trkpt lat="45.119165573265704" lon="7.710936489701962"><ele>221.25</ele><time>2026-05-01T15:01:57Z</time></trkpt><trkpt lat="45.11908294364211" lon="7.710801474017774"><ele>221.0</ele><time>2026-05-01T15:01:58Z</time></trkpt><trkpt lat="45.11900467548355" lon="7.710640098267158"><ele>221.0</ele><time>2026-05-01T15:01:59Z</time></trkpt><trkpt lat="45.11894082365399" lon="7.710465742553497"><ele>221.0</ele><time>2026-05-01T15:02:00Z</time></trkpt><trkpt lat="45.11889028222086" lon="7.71027128012529"><ele>221.0</ele><time>2026-05-01T15:02:01Z</time></trkpt><trkpt lat="45.11883541463499" lon="7.71005190845415"><ele>221.0</ele><time>2026-05-01T15:02:02Z</time></trkpt><trkpt lat="45.118763806067754" lon="7.709812879760117"><ele>221.0</ele><time>2026-05-01T15:02:03Z</time></trkpt><trkpt lat="45.1186949807758" lon="7.709587700900156"><ele>221.0</ele><time>2026-05-01T15:02:04Z</time></trkpt><trkpt lat="45.1186310868058" lon="7.7093750789769055"><ele>221.0</ele><time>2026-05-01T15:02:05Z</time></trkpt><trkpt lat="45.118571351267846" lon="7.709167466422648"><ele>221.0</ele><time>2026-05-01T15:02:06Z</time></trkpt><trkpt lat="45.11850959028128" lon="7.708962077670226"><ele>221.0</ele><time>2026-05-01T15:02:07Z</time></trkpt><trkpt lat="45.11845667251912" lon="7.708775508769692"><ele>221.0</ele><time>2026-05-01T15:02:08Z</time></trkpt><trkpt lat="45.118411068401464" lon="7.708617051881031"><ele>221.0</ele><time>2026-05-01T15:02:09Z</time></trkpt><trkpt lat="45.11836739163133" lon="7.7084670935960125"><ele>221.25</ele><time>2026-05-01T15:02:10Z</time></trkpt><trkpt lat="45.11832139762952" lon="7.7083161362726695"><ele>221.5</ele><time>2026-05-01T15:02:11Z</time></trkpt><trkpt lat="45.11827587277582" lon="7.7081651698653895"><ele>221.75</ele><time>2026-05-01T15:02:12Z</time></trkpt><trkpt lat="45.118230407627706" lon="7.708008337858819"><ele>222.0</ele><time>2026-05-01T15:02:13Z</time></trkpt><trkpt lat="45.11818648325088" lon="7.707847185433329"><ele>223.2</ele><time>2026-05-01T15:02:14Z</time></trkpt><trkpt lat="45.11813984495932" lon="7.70769074216375"><ele>224.39999999999998</ele><time>2026-05-01T15:02:15Z</time></trkpt><trkpt lat="45.11809717225387" lon="7.707553967295967"><ele>225.60000000000002</ele><time>2026-05-01T15:02:16Z</time></trkpt><trkpt lat="45.11805829079587" lon="7.707420832603634"><ele>226.8</ele><time>2026-05-01T15:02:17Z</time></trkpt><trkpt lat="45.11802114597929" lon="7.7072828844693095"><ele>228.0</ele><time>2026-05-01T15:02:18Z</time></trkpt><trkpt lat="45.1179842499681" lon="7.707152472039762"><ele>228.0</ele><time>2026-05-01T15:02:19Z</time></trkpt><trkpt lat="45.11794596717216" lon="7.707025571501878"><ele>228.0</ele><time>2026-05-01T15:02:20Z</time></trkpt><trkpt lat="45.11790526808841" lon="7.706901566468602"><ele>228.0</ele><time>2026-05-01T15:02:21Z</time></trkpt><trkpt lat="45.117869758726734" lon="7.706785244382156"><ele>228.0</ele><time>2026-05-01T15:02:22Z</time></trkpt><trkpt lat="45.1178386973233" lon="7.706674412484356"><ele>228.0</ele><time>2026-05-01T15:02:23Z</time></trkpt><trkpt lat="45.11780845234804" lon="7.7065573662157085"><ele>227.5</ele><time>2026-05-01T15:02:24Z</time></trkpt><trkpt lat="45.11778262245833" lon="7.7064406410079584"><ele>227.0</ele><time>2026-05-01T15:02:25Z</time></trkpt><trkpt lat="45.117758302848415" lon="7.706326761304748"><ele>226.5</ele><time>2026-05-01T15:02:26Z</time></trkpt><trkpt lat="45.11773315120063" lon="7.706214183963014"><ele>226.0</ele><time>2026-05-01T15:02:27Z</time></trkpt><trkpt lat="45.11770833619728" lon="7.706117977806244"><ele>225.5</ele><time>2026-05-01T15:02:28Z</time></trkpt><trkpt lat="45.11767816795683" lon="7.706034409475677"><ele>225.0</ele><time>2026-05-01T15:02:29Z</time></trkpt><trkpt lat="45.117638421736075" lon="7.705882957283484"><ele>224.6</ele><time>2026-05-01T15:02:31Z</time></trkpt><trkpt lat="45.11760269916335" lon="7.705789056393765"><ele>224.2</ele><time>2026-05-01T15:02:33Z</time></trkpt><trkpt lat="45.11755112079453" lon="7.705639506218673"><ele>223.8</ele><time>2026-05-01T15:02:58.999Z</time></trkpt><trkpt lat="45.117521804561804" lon="7.705519993403586"><ele>223.4</ele><time>2026-05-01T15:02:59.999Z</time></trkpt><trkpt lat="45.11748095413002" lon="7.705370636812504"><ele>223.0</ele><time>2026-05-01T15:03:01Z</time></trkpt><trkpt lat="45.11743795977107" lon="7.7052194845368485"><ele>223.33333333333331</ele><time>2026-05-01T15:03:02Z</time></trkpt><trkpt lat="45.11738122954505" lon="7.705027619534313"><ele>223.66666666666669</ele><time>2026-05-01T15:03:03Z</time></trkpt><trkpt lat="45.1173124692203" lon="7.704806506703853"><ele>224.0</ele><time>2026-05-01T15:03:04Z</time></trkpt><trkpt lat="45.117240422331854" lon="7.704592223262343"><ele>224.0</ele><time>2026-05-01T15:03:05Z</time></trkpt><trkpt lat="45.1171734326958" lon="7.7043888354155845"><ele>224.0</ele><time>2026-05-01T15:03:06Z</time></trkpt><trkpt lat="45.11711150477868" lon="7.7041889084398605"><ele>224.0</ele><time>2026-05-01T15:03:07Z</time></trkpt><trkpt lat="45.117058628883115" lon="7.704003298420302"><ele>224.0</ele><time>2026-05-01T15:03:08Z</time></trkpt><trkpt lat="45.11700786999783" lon="7.703840308082681"><ele>224.0</ele><time>2026-05-01T15:03:09Z</time></trkpt><trkpt lat="45.116958087025715" lon="7.703678527844363"><ele>224.0</ele><time>2026-05-01T15:03:10Z</time></trkpt><trkpt lat="45.116907748617045" lon="7.7035100721498315"><ele>224.0</ele><time>2026-05-01T15:03:11Z</time></trkpt><trkpt lat="45.11685526614033" lon="7.703329907261664"><ele>223.66666666666669</ele><time>2026-05-01T15:03:12Z</time></trkpt><trkpt lat="45.11679334092109" lon="7.703129590909697"><ele>223.33333333333331</ele><time>2026-05-01T15:03:13Z</time></trkpt><trkpt lat="45.116737711936345" lon="7.702934540313295"><ele>223.0</ele><time>2026-05-01T15:03:14Z</time></trkpt><trkpt lat="45.11667932746739" lon="7.702730567538663"><ele>223.0</ele><time>2026-05-01T15:03:15Z</time></trkpt><trkpt lat="45.11662097931972" lon="7.702530565423144"><ele>223.0</ele><time>2026-05-01T15:03:16Z</time></trkpt><trkpt lat="45.116564612362126" lon="7.702337823765818"><ele>223.0</ele><time>2026-05-01T15:03:17Z</time></trkpt><trkpt lat="45.11650910109058" lon="7.702147920803674"><ele>223.0</ele><time>2026-05-01T15:03:18Z</time></trkpt><trkpt lat="45.11645410734797" lon="7.701954061524615"><ele>223.0</ele><time>2026-05-01T15:03:19Z</time></trkpt><trkpt lat="45.11639427101667" lon="7.701752036215904"><ele>223.0</ele><time>2026-05-01T15:03:20Z</time></trkpt><trkpt lat="45.11633571927381" lon="7.701547571852231"><ele>223.0</ele><time>2026-05-01T15:03:21Z</time></trkpt><trkpt lat="45.11627238868745" lon="7.7013432799908585"><ele>223.0</ele><time>2026-05-01T15:03:22Z</time></trkpt><trkpt lat="45.11621190941229" lon="7.701132275605898"><ele>223.0</ele><time>2026-05-01T15:03:23Z</time></trkpt><trkpt lat="45.11614809984168" lon="7.700909616173892"><ele>223.0</ele><time>2026-05-01T15:03:24Z</time></trkpt><trkpt lat="45.116081534139276" lon="7.700662720555771"><ele>223.33333333333331</ele><time>2026-05-01T15:03:25Z</time></trkpt><trkpt lat="45.11601424065634" lon="7.700448804147732"><ele>223.66666666666669</ele><time>2026-05-01T15:03:26Z</time></trkpt><trkpt lat="45.115944232928726" lon="7.700245269733223"><ele>224.0</ele><time>2026-05-01T15:03:27Z</time></trkpt><trkpt lat="45.11586962742162" lon="7.7000595789137005"><ele>224.0</ele><time>2026-05-01T15:03:28Z</time></trkpt><trkpt lat="45.11579598697972" lon="7.699872371253931"><ele>224.0</ele><time>2026-05-01T15:03:29Z</time></trkpt><trkpt lat="45.115684632844996" lon="7.699704565854989"><ele>224.0</ele><time>2026-05-01T15:03:30Z</time></trkpt><trkpt lat="45.115575101011146" lon="7.699545369175133"><ele>224.0</ele><time>2026-05-01T15:03:31Z</time></trkpt><trkpt lat="45.11544959886426" lon="7.699383344767762"><ele>224.0</ele><time>2026-05-01T15:03:32Z</time></trkpt><trkpt lat="45.115318491447" lon="7.699243850820583"><ele>224.0</ele><time>2026-05-01T15:03:33Z</time></trkpt><trkpt lat="45.115165482434" lon="7.699103583172682"><ele>224.0</ele><time>2026-05-01T15:03:34Z</time></trkpt><trkpt lat="45.11501027468621" lon="7.698984140135052"><ele>224.0</ele><time>2026-05-01T15:03:35Z</time></trkpt><trkpt lat="45.11485730809587" lon="7.698891210692423"><ele>224.0</ele><time>2026-05-01T15:03:36Z</time></trkpt><trkpt lat="45.11469549937834" lon="7.698822072212056"><ele>222.0</ele><time>2026-05-01T15:03:37Z</time></trkpt><trkpt lat="45.11451093140298" lon="7.6987677618374155"><ele>220.0</ele><time>2026-05-01T15:03:38Z</time></trkpt><trkpt lat="45.11432233987654" lon="7.698726561878856"><ele>218.0</ele><time>2026-05-01T15:03:39Z</time></trkpt><trkpt lat="45.114140167436695" lon="7.698686285384181"><ele>219.33333333333334</ele><time>2026-05-01T15:03:40Z</time></trkpt><trkpt lat="45.11396403940627" lon="7.698647869750528"><ele>220.66666666666669</ele><time>2026-05-01T15:03:41Z</time></trkpt><trkpt lat="45.11379937597416" lon="7.69860587830146"><ele>222.0</ele><time>2026-05-01T15:03:42Z</time></trkpt><trkpt lat="45.11363710936794" lon="7.6985623672099415"><ele>222.0</ele><time>2026-05-01T15:03:43Z</time></trkpt><trkpt lat="45.11347158303989" lon="7.69851821570695"><ele>222.0</ele><time>2026-05-01T15:03:44Z</time></trkpt><trkpt lat="45.11330317518284" lon="7.698473974644864"><ele>222.0</ele><time>2026-05-01T15:03:45Z</time></trkpt><trkpt lat="45.11312648671209" lon="7.698423861822293"><ele>222.0</ele><time>2026-05-01T15:03:46Z</time></trkpt><trkpt lat="45.112931059440626" lon="7.698372665873716"><ele>222.0</ele><time>2026-05-01T15:03:47Z</time></trkpt><trkpt lat="45.112749245832056" lon="7.69832821068125"><ele>222.0</ele><time>2026-05-01T15:03:48Z</time></trkpt><trkpt lat="45.11258540544064" lon="7.698289908052823"><ele>222.0</ele><time>2026-05-01T15:03:49Z</time></trkpt><trkpt lat="45.11242032067562" lon="7.698248874399077"><ele>222.0</ele><time>2026-05-01T15:03:50Z</time></trkpt><trkpt lat="45.112245129516275" lon="7.698206385148055"><ele>222.0</ele><time>2026-05-01T15:03:51Z</time></trkpt><trkpt lat="45.112076931869396" lon="7.69816232462439"><ele>222.66666666666669</ele><time>2026-05-01T15:03:52Z</time></trkpt><trkpt lat="45.111910810395266" lon="7.698121055572839"><ele>223.33333333333334</ele><time>2026-05-01T15:03:53Z</time></trkpt><trkpt lat="45.111738254509355" lon="7.698081150076309"><ele>224.0</ele><time>2026-05-01T15:03:54Z</time></trkpt><trkpt lat="45.11155524966209" lon="7.69802476853109"><ele>224.66666666666669</ele><time>2026-05-01T15:03:55Z</time></trkpt><trkpt lat="45.111365592886465" lon="7.6979748349052715"><ele>225.33333333333331</ele><time>2026-05-01T15:03:56Z</time></trkpt><trkpt lat="45.111191961034464" lon="7.697929091646887"><ele>226.0</ele><time>2026-05-01T15:03:57Z</time></trkpt><trkpt lat="45.111048176616656" lon="7.697893119548616"><ele>226.0</ele><time>2026-05-01T15:03:58Z</time></trkpt><trkpt lat="45.110904275151654" lon="7.697856371215764"><ele>226.0</ele><time>2026-05-01T15:03:59Z</time></trkpt><trkpt lat="45.11073857784461" lon="7.6978132092329865"><ele>226.0</ele><time>2026-05-01T15:04:00Z</time></trkpt><trkpt lat="45.110563960437275" lon="7.697767723709076"><ele>226.0</ele><time>2026-05-01T15:04:01Z</time></trkpt><trkpt lat="45.11039985982587" lon="7.697724977675622"><ele>226.0</ele><time>2026-05-01T15:04:02Z</time></trkpt><trkpt lat="45.1102600645313" lon="7.697688562848561"><ele>226.0</ele><time>2026-05-01T15:04:03Z</time></trkpt><trkpt lat="45.11013274278111" lon="7.6976686634157865"><ele>226.0</ele><time>2026-05-01T15:04:04Z</time></trkpt><trkpt lat="45.11000392913449" lon="7.697638191661462"><ele>226.8</ele><time>2026-05-01T15:04:05Z</time></trkpt><trkpt lat="45.10988099508221" lon="7.697601686522517"><ele>227.60000000000002</ele><time>2026-05-01T15:04:06Z</time></trkpt><trkpt lat="45.109783480232075" lon="7.6975795919867585"><ele>228.4</ele><time>2026-05-01T15:04:07Z</time></trkpt><trkpt lat="45.10969772600048" lon="7.697557070375083"><ele>229.2</ele><time>2026-05-01T15:04:08Z</time></trkpt><trkpt lat="45.109627535423996" lon="7.697541295331851"><ele>230.0</ele><time>2026-05-01T15:04:09Z</time></trkpt><trkpt lat="45.10954703079318" lon="7.697529672015305"><ele>230.0</ele><time>2026-05-01T15:04:11Z</time></trkpt><trkpt lat="45.109444482757986" lon="7.69748086891756"><ele>230.0</ele><time>2026-05-01T15:04:29Z</time></trkpt><trkpt lat="45.109345734078175" lon="7.697479245698674"><ele>230.0</ele><time>2026-05-01T15:04:30Z</time></trkpt><trkpt lat="45.10924182022302" lon="7.697428012294165"><ele>230.0</ele><time>2026-05-01T15:04:31Z</time></trkpt><trkpt lat="45.10909693921946" lon="7.697391077939196"><ele>231.0</ele><time>2026-05-01T15:04:32Z</time></trkpt><trkpt lat="45.10893578819407" lon="7.697350556427639"><ele>232.0</ele><time>2026-05-01T15:04:33Z</time></trkpt><trkpt lat="45.10876467486624" lon="7.697308578524497"><ele>233.0</ele><time>2026-05-01T15:04:34Z</time></trkpt><trkpt lat="45.10859254657903" lon="7.69726240740815"><ele>233.0</ele><time>2026-05-01T15:04:35Z</time></trkpt><trkpt lat="45.108424213664705" lon="7.697234056905782"><ele>233.0</ele><time>2026-05-01T15:04:36Z</time></trkpt><trkpt lat="45.10827324194073" lon="7.697188446695078"><ele>233.0</ele><time>2026-05-01T15:04:37Z</time></trkpt><trkpt lat="45.108145624794766" lon="7.69715030764679"><ele>232.75</ele><time>2026-05-01T15:04:38Z</time></trkpt><trkpt lat="45.10802082641011" lon="7.697114783906556"><ele>232.5</ele><time>2026-05-01T15:04:39Z</time></trkpt><trkpt lat="45.10790133533135" lon="7.697079426249805"><ele>232.25</ele><time>2026-05-01T15:04:40Z</time></trkpt><trkpt lat="45.10777429559518" lon="7.697044559385309"><ele>232.0</ele><time>2026-05-01T15:04:41Z</time></trkpt><trkpt lat="45.10765072764281" lon="7.697010976323722"><ele>232.0</ele><time>2026-05-01T15:04:42Z</time></trkpt><trkpt lat="45.10752491744422" lon="7.696989917781165"><ele>232.0</ele><time>2026-05-01T15:04:43Z</time></trkpt><trkpt lat="45.107394625682225" lon="7.69696445581542"><ele>232.0</ele><time>2026-05-01T15:04:43.999Z</time></trkpt><trkpt lat="45.107254677309065" lon="7.6969307515877246"><ele>232.0</ele><time>2026-05-01T15:04:44.999Z</time></trkpt><trkpt lat="45.10711617300659" lon="7.69689610125303"><ele>232.0</ele><time>2026-05-01T15:04:45.999Z</time></trkpt><trkpt lat="45.10698972484957" lon="7.6968623665306275"><ele>232.0</ele><time>2026-05-01T15:04:46.999Z</time></trkpt><trkpt lat="45.106880222483106" lon="7.696838990893484"><ele>232.0</ele><time>2026-05-01T15:04:47.999Z</time></trkpt><trkpt lat="45.10678315192108" lon="7.696816694878845"><ele>232.0</ele><time>2026-05-01T15:04:48.999Z</time></trkpt><trkpt lat="45.10669391768984" lon="7.6967729796350195"><ele>232.0</ele><time>2026-05-01T15:04:49.999Z</time></trkpt><trkpt lat="45.10660001877135" lon="7.696768282968635"><ele>232.66666666666666</ele><time>2026-05-01T15:04:50.999Z</time></trkpt><trkpt lat="45.10652389621219" lon="7.696751515955545"><ele>233.33333333333331</ele><time>2026-05-01T15:04:51.999Z</time></trkpt><trkpt lat="45.106458850548435" lon="7.69673108153558"><ele>234.0</ele><time>2026-05-01T15:04:52.999Z</time></trkpt><trkpt lat="45.10637462114043" lon="7.696689632374067"><ele>234.66666666666669</ele><time>2026-05-01T15:04:54.999Z</time></trkpt><trkpt lat="45.10630619025312" lon="7.696693614429054"><ele>235.33333333333334</ele><time>2026-05-01T15:05:04.999Z</time></trkpt><trkpt lat="45.106243650190265" lon="7.696647573039365"><ele>236.0</ele><time>2026-05-01T15:05:05.999Z</time></trkpt><trkpt lat="45.10615539658204" lon="7.696608995276924"><ele>236.0</ele><time>2026-05-01T15:05:07Z</time></trkpt><trkpt lat="45.106055297814585" lon="7.696563576015816"><ele>236.0</ele><time>2026-05-01T15:05:08Z</time></trkpt><trkpt lat="45.105928095678365" lon="7.696503514673546"><ele>236.0</ele><time>2026-05-01T15:05:09Z</time></trkpt><trkpt lat="45.10578492062795" lon="7.696451441746091"><ele>236.0</ele><time>2026-05-01T15:05:10Z</time></trkpt><trkpt lat="45.105639241575886" lon="7.69636525104274"><ele>236.25</ele><time>2026-05-01T15:05:11Z</time></trkpt><trkpt lat="45.10548413002669" lon="7.696286450565699"><ele>236.5</ele><time>2026-05-01T15:05:12Z</time></trkpt><trkpt lat="45.10534517953436" lon="7.696215271021377"><ele>236.75</ele><time>2026-05-01T15:05:13Z</time></trkpt><trkpt lat="45.105216788594795" lon="7.6961492516384045"><ele>237.0</ele><time>2026-05-01T15:05:14Z</time></trkpt><trkpt lat="45.10510353607615" lon="7.696091003026246"><ele>236.6</ele><time>2026-05-01T15:05:15Z</time></trkpt><trkpt lat="45.104985180502105" lon="7.6960336497477195"><ele>236.2</ele><time>2026-05-01T15:05:16Z</time></trkpt><trkpt lat="45.10486184524499" lon="7.6959791277733105"><ele>235.8</ele><time>2026-05-01T15:05:17Z</time></trkpt><trkpt lat="45.10476242451912" lon="7.695929346709621"><ele>235.4</ele><time>2026-05-01T15:05:18Z</time></trkpt><trkpt lat="45.10468489098517" lon="7.695890736755581"><ele>235.0</ele><time>2026-05-01T15:05:19Z</time></trkpt><trkpt lat="45.104615686509035" lon="7.695858038481334"><ele>235.0</ele><time>2026-05-01T15:05:20Z</time></trkpt><trkpt lat="45.10455391652633" lon="7.695828409365661"><ele>235.0</ele><time>2026-05-01T15:05:21Z</time></trkpt><trkpt lat="45.1044704584259" lon="7.695790386046331"><ele>235.0</ele><time>2026-05-01T15:05:23Z</time></trkpt><trkpt lat="45.10440151730087" lon="7.695741526499295"><ele>235.0</ele><time>2026-05-01T15:05:26Z</time></trkpt></trkseg></trk></gpx>